<?xml version='1.0' encoding='UTF-8'?><gpx version="1.1" creator="JPX - https://github.com/jenetics/jpx" xmlns="http://www.topografix.com/GPX/1/1"><trk><trkseg><trkpt lat="44.5011025" lon="8.8989924"><ele>106.00000000000001</ele><time>2026-04-16T11:47:37.999Z</time></trkpt><trkpt lat="44.5010598" lon="8.8990658"><ele>106.0</ele><time>2026-04-16T11:47:39.999Z</time></trkpt><trkpt lat="44.5010508" lon="8.8992043"><ele>106.0</ele><time>2026-04-16T11:47:42.999Z</time></trkpt><trkpt lat="44.5010612" lon="8.8993176"><ele>106.0</ele><time>2026-04-16T11:47:44.999Z</time></trkpt><trkpt lat="44.5010618" lon="8.8994223"><ele>106.00000000000001</ele><time>2026-04-16T11:47:46.999Z</time></trkpt><trkpt lat="44.5009872" lon="8.8995001"><ele>106.0</ele><time>2026-04-16T11:47:49.999Z</time></trkpt><trkpt lat="44.5009174" lon="8.8995586"><ele>104.33333333333334</ele><time>2026-04-16T11:47:50.999Z</time></trkpt><trkpt lat="44.5008466" lon="8.8996303"><ele>102.66666666666667</ele><time>2026-04-16T11:47:51.999Z</time></trkpt><trkpt lat="44.5007784" lon="8.8996949"><ele>101.0</ele><time>2026-04-16T11:47:52.999Z</time></trkpt><trkpt lat="44.500717" lon="8.8997672"><ele>99.33333333333334</ele><time>2026-04-16T11:47:53.999Z</time></trkpt><trkpt lat="44.5006626" lon="8.8998485"><ele>97.66666666666667</ele><time>2026-04-16T11:47:54.999Z</time></trkpt><trkpt lat="44.5006071" lon="8.8999241"><ele>96.0</ele><time>2026-04-16T11:47:55.999Z</time></trkpt><trkpt lat="44.5005516" lon="8.9000023"><ele>95.99999999999999</ele><time>2026-04-16T11:47:56.999Z</time></trkpt><trkpt lat="44.5004911" lon="8.9000802"><ele>96.0</ele><time>2026-04-16T11:47:57.999Z</time></trkpt><trkpt lat="44.500428" lon="8.9001593"><ele>96.0</ele><time>2026-04-16T11:47:58.999Z</time></trkpt><trkpt lat="44.5003578" lon="8.9002053"><ele>96.0</ele><time>2026-04-16T11:47:59.998Z</time></trkpt><trkpt lat="44.5002883" lon="8.9002357"><ele>96.0</ele><time>2026-04-16T11:48:00.999Z</time></trkpt><trkpt lat="44.500222" lon="8.9002436"><ele>95.99999999999999</ele><time>2026-04-16T11:48:01.999Z</time></trkpt><trkpt lat="44.5001579" lon="8.9002323"><ele>96.0</ele><time>2026-04-16T11:48:02.999Z</time></trkpt><trkpt lat="44.5000845" lon="8.9002409"><ele>95.5</ele><time>2026-04-16T11:48:03.999Z</time></trkpt><trkpt lat="44.5000031" lon="8.9002525"><ele>95.0</ele><time>2026-04-16T11:48:04.999Z</time></trkpt><trkpt lat="44.499928" lon="8.9002648"><ele>94.5</ele><time>2026-04-16T11:48:05.999Z</time></trkpt><trkpt lat="44.4998591" lon="8.9002976"><ele>94.0</ele><time>2026-04-16T11:48:06.999Z</time></trkpt><trkpt lat="44.4998046" lon="8.9003463"><ele>93.5</ele><time>2026-04-16T11:48:07.999Z</time></trkpt><trkpt lat="44.4997156" lon="8.9004576"><ele>93.0</ele><time>2026-04-16T11:48:09.999Z</time></trkpt><trkpt lat="44.4996798" lon="8.9005408"><ele>93.00000000000001</ele><time>2026-04-16T11:48:10.999Z</time></trkpt><trkpt lat="44.4996272" lon="8.9006068"><ele>93.0</ele><time>2026-04-16T11:48:11.999Z</time></trkpt><trkpt lat="44.4995781" lon="8.9006787"><ele>93.0</ele><time>2026-04-16T11:48:12.999Z</time></trkpt><trkpt lat="44.4995281" lon="8.9007649"><ele>93.0</ele><time>2026-04-16T11:48:13.999Z</time></trkpt><trkpt lat="44.4994893" lon="8.900858"><ele>93.0</ele><time>2026-04-16T11:48:14.999Z</time></trkpt><trkpt lat="44.4994375" lon="8.9009314"><ele>93.00000000000001</ele><time>2026-04-16T11:48:15.999Z</time></trkpt><trkpt lat="44.4993803" lon="8.9009968"><ele>93.0</ele><time>2026-04-16T11:48:16.999Z</time></trkpt><trkpt lat="44.4992742" lon="8.9010768"><ele>92.80000000000001</ele><time>2026-04-16T11:48:18.999Z</time></trkpt><trkpt lat="44.4991627" lon="8.9011425"><ele>92.6</ele><time>2026-04-16T11:48:20.999Z</time></trkpt><trkpt lat="44.4990664" lon="8.901207"><ele>92.4</ele><time>2026-04-16T11:48:22.999Z</time></trkpt><trkpt lat="44.4989929" lon="8.9012468"><ele>92.19999999999999</ele><time>2026-04-16T11:48:24.999Z</time></trkpt><trkpt lat="44.49896" lon="8.9013254"><ele>92.0</ele><time>2026-04-16T11:48:26.999Z</time></trkpt><trkpt lat="44.4989821" lon="8.9014834"><ele>92.0</ele><time>2026-04-16T11:48:28.999Z</time></trkpt><trkpt lat="44.4990002" lon="8.9015734"><ele>92.0</ele><time>2026-04-16T11:48:29.999Z</time></trkpt><trkpt lat="44.4990244" lon="8.9016859"><ele>92.0</ele><time>2026-04-16T11:48:30.999Z</time></trkpt><trkpt lat="44.4990567" lon="8.9017967"><ele>92.0</ele><time>2026-04-16T11:48:31.999Z</time></trkpt><trkpt lat="44.4990913" lon="8.9019121"><ele>92.0</ele><time>2026-04-16T11:48:32.999Z</time></trkpt><trkpt lat="44.4991217" lon="8.9020296"><ele>92.0</ele><time>2026-04-16T11:48:33.999Z</time></trkpt><trkpt lat="44.499151" lon="8.9021393"><ele>92.8</ele><time>2026-04-16T11:48:34.999Z</time></trkpt><trkpt lat="44.4991771" lon="8.9022401"><ele>93.6</ele><time>2026-04-16T11:48:35.999Z</time></trkpt><trkpt lat="44.4992046" lon="8.9023437"><ele>94.39999999999999</ele><time>2026-04-16T11:48:36.999Z</time></trkpt><trkpt lat="44.4992525" lon="8.9025068"><ele>95.19999999999999</ele><time>2026-04-16T11:48:38.999Z</time></trkpt><trkpt lat="44.4993399" lon="8.9026255"><ele>96.0</ele><time>2026-04-16T11:48:40.999Z</time></trkpt><trkpt lat="44.4994287" lon="8.9026409"><ele>96.0</ele><time>2026-04-16T11:48:42.999Z</time></trkpt><trkpt lat="44.499518" lon="8.9026368"><ele>96.0</ele><time>2026-04-16T11:48:44.999Z</time></trkpt><trkpt lat="44.4995979" lon="8.9026343"><ele>96.0</ele><time>2026-04-16T11:48:46.999Z</time></trkpt><trkpt lat="44.4996977" lon="8.9026467"><ele>96.0</ele><time>2026-04-16T11:48:48.999Z</time></trkpt><trkpt lat="44.4997792" lon="8.9026748"><ele>96.0</ele><time>2026-04-16T11:48:49.999Z</time></trkpt><trkpt lat="44.4998943" lon="8.9027089"><ele>96.6</ele><time>2026-04-16T11:48:51.999Z</time></trkpt><trkpt lat="44.4999997" lon="8.9027597"><ele>97.19999999999999</ele><time>2026-04-16T11:48:53.999Z</time></trkpt><trkpt lat="44.5000862" lon="8.9027787"><ele>97.80000000000001</ele><time>2026-04-16T11:48:55.999Z</time></trkpt><trkpt lat="44.5002042" lon="8.9028197"><ele>98.4</ele><time>2026-04-16T11:48:57.999Z</time></trkpt><trkpt lat="44.5002735" lon="8.9028326"><ele>99.0</ele><time>2026-04-16T11:48:58.999Z</time></trkpt><trkpt lat="44.5003933" lon="8.9028613"><ele>101.75</ele><time>2026-04-16T11:49:00.999Z</time></trkpt><trkpt lat="44.5004978" lon="8.9028803"><ele>104.5</ele><time>2026-04-16T11:49:02.999Z</time></trkpt><trkpt lat="44.5005857" lon="8.9028925"><ele>107.25</ele><time>2026-04-16T11:49:34.999Z</time></trkpt><trkpt lat="44.5006836" lon="8.9028902"><ele>110.0</ele><time>2026-04-16T11:49:45.999Z</time></trkpt><trkpt lat="44.5006312" lon="8.9026606"><ele>109.99999999999999</ele><time>2026-04-16T11:49:50.999Z</time></trkpt><trkpt lat="44.5005833" lon="8.9025992"><ele>110.0</ele><time>2026-04-16T11:49:51.999Z</time></trkpt><trkpt lat="44.5005291" lon="8.902541"><ele>110.0</ele><time>2026-04-16T11:49:52.999Z</time></trkpt><trkpt lat="44.5004745" lon="8.9024729"><ele>110.0</ele><time>2026-04-16T11:49:53.999Z</time></trkpt><trkpt lat="44.5003691" lon="8.9023211"><ele>109.99999999999999</ele><time>2026-04-16T11:49:55.999Z</time></trkpt><trkpt lat="44.5003167" lon="8.9022318"><ele>110.0</ele><time>2026-04-16T11:49:56.999Z</time></trkpt><trkpt lat="44.5002773" lon="8.9021347"><ele>109.33333333333333</ele><time>2026-04-16T11:49:57.999Z</time></trkpt><trkpt lat="44.5002623" lon="8.9020236"><ele>108.66666666666666</ele><time>2026-04-16T11:49:58.999Z</time></trkpt><trkpt lat="44.5002677" lon="8.9019199"><ele>108.0</ele><time>2026-04-16T11:49:59.999Z</time></trkpt><trkpt lat="44.5002894" lon="8.9018069"><ele>107.33333333333334</ele><time>2026-04-16T11:50:00.999Z</time></trkpt><trkpt lat="44.5003461" lon="8.9017109"><ele>106.66666666666667</ele><time>2026-04-16T11:50:01.999Z</time></trkpt><trkpt lat="44.5003945" lon="8.9016087"><ele>106.0</ele><time>2026-04-16T11:50:02.999Z</time></trkpt><trkpt lat="44.5004651" lon="8.9015136"><ele>108.8</ele><time>2026-04-16T11:50:03.999Z</time></trkpt><trkpt lat="44.500545" lon="8.9014423"><ele>111.6</ele><time>2026-04-16T11:50:04.999Z</time></trkpt><trkpt lat="44.5006271" lon="8.9013781"><ele>114.4</ele><time>2026-04-16T11:50:05.999Z</time></trkpt><trkpt lat="44.5007126" lon="8.901311"><ele>117.2</ele><time>2026-04-16T11:50:06.999Z</time></trkpt><trkpt lat="44.5008088" lon="8.9012479"><ele>120.0</ele><time>2026-04-16T11:50:07.999Z</time></trkpt><trkpt lat="44.5008995" lon="8.9011942"><ele>120.0</ele><time>2026-04-16T11:50:08.999Z</time></trkpt><trkpt lat="44.5009911" lon="8.901138"><ele>120.0</ele><time>2026-04-16T11:50:09.999Z</time></trkpt><trkpt lat="44.5010827" lon="8.9010872"><ele>120.0</ele><time>2026-04-16T11:50:10.999Z</time></trkpt><trkpt lat="44.501175" lon="8.9010365"><ele>120.0</ele><time>2026-04-16T11:50:11.999Z</time></trkpt><trkpt lat="44.5012683" lon="8.9010004"><ele>120.0</ele><time>2026-04-16T11:50:12.999Z</time></trkpt><trkpt lat="44.5013659" lon="8.9009351"><ele>120.0</ele><time>2026-04-16T11:50:13.999Z</time></trkpt><trkpt lat="44.5014519" lon="8.9008541"><ele>120.0</ele><time>2026-04-16T11:50:14.999Z</time></trkpt><trkpt lat="44.5015436" lon="8.9007633"><ele>120.0</ele><time>2026-04-16T11:50:15.999Z</time></trkpt><trkpt lat="44.5016389" lon="8.9006713"><ele>120.0</ele><time>2026-04-16T11:50:16.999Z</time></trkpt><trkpt lat="44.501742" lon="8.9005585"><ele>120.0</ele><time>2026-04-16T11:50:17.999Z</time></trkpt><trkpt lat="44.5018337" lon="8.900447"><ele>120.0</ele><time>2026-04-16T11:50:18.999Z</time></trkpt><trkpt lat="44.5019314" lon="8.9003352"><ele>120.0</ele><time>2026-04-16T11:50:19.999Z</time></trkpt><trkpt lat="44.5020286" lon="8.9002254"><ele>120.0</ele><time>2026-04-16T11:50:20.999Z</time></trkpt><trkpt lat="44.5021308" lon="8.900114"><ele>118.25</ele><time>2026-04-16T11:50:21.999Z</time></trkpt><trkpt lat="44.5022287" lon="8.9000114"><ele>116.5</ele><time>2026-04-16T11:50:22.999Z</time></trkpt><trkpt lat="44.5023269" lon="8.8999273"><ele>114.75</ele><time>2026-04-16T11:50:23.999Z</time></trkpt><trkpt lat="44.5024301" lon="8.8998446"><ele>113.0</ele><time>2026-04-16T11:50:24.999Z</time></trkpt><trkpt lat="44.5025391" lon="8.8997683"><ele>113.0</ele><time>2026-04-16T11:50:25.999Z</time></trkpt><trkpt lat="44.5026564" lon="8.8996909"><ele>113.0</ele><time>2026-04-16T11:50:26.999Z</time></trkpt><trkpt lat="44.5027666" lon="8.8996187"><ele>113.0</ele><time>2026-04-16T11:50:27.999Z</time></trkpt><trkpt lat="44.5028747" lon="8.8995165"><ele>113.0</ele><time>2026-04-16T11:50:28.999Z</time></trkpt><trkpt lat="44.5029568" lon="8.8994032"><ele>114.25</ele><time>2026-04-16T11:50:29.999Z</time></trkpt><trkpt lat="44.5030378" lon="8.8992764"><ele>115.5</ele><time>2026-04-16T11:50:30.999Z</time></trkpt><trkpt lat="44.5031199" lon="8.8991459"><ele>116.75</ele><time>2026-04-16T11:50:31.999Z</time></trkpt><trkpt lat="44.5031888" lon="8.8990251"><ele>118.0</ele><time>2026-04-16T11:50:32.999Z</time></trkpt><trkpt lat="44.5032394" lon="8.8988954"><ele>118.0</ele><time>2026-04-16T11:50:33.999Z</time></trkpt><trkpt lat="44.5033078" lon="8.8987689"><ele>118.00000000000001</ele><time>2026-04-16T11:50:34.999Z</time></trkpt><trkpt lat="44.5033768" lon="8.8986483"><ele>118.00000000000001</ele><time>2026-04-16T11:50:35.999Z</time></trkpt><trkpt lat="44.5034528" lon="8.8985517"><ele>118.0</ele><time>2026-04-16T11:50:36.999Z</time></trkpt><trkpt lat="44.5035189" lon="8.8984632"><ele>118.0</ele><time>2026-04-16T11:50:37.999Z</time></trkpt><trkpt lat="44.5035838" lon="8.8983914"><ele>118.57142857142857</ele><time>2026-04-16T11:50:38.999Z</time></trkpt><trkpt lat="44.503643" lon="8.8983288"><ele>119.14285714285714</ele><time>2026-04-16T11:50:39.999Z</time></trkpt><trkpt lat="44.5037027" lon="8.8982921"><ele>119.71428571428571</ele><time>2026-04-16T11:50:40.999Z</time></trkpt><trkpt lat="44.5037609" lon="8.8982464"><ele>120.28571428571428</ele><time>2026-04-16T11:50:41.999Z</time></trkpt><trkpt lat="44.5038207" lon="8.8982035"><ele>120.85714285714286</ele><time>2026-04-16T11:50:42.999Z</time></trkpt><trkpt lat="44.5038903" lon="8.8981693"><ele>121.42857142857142</ele><time>2026-04-16T11:50:43.999Z</time></trkpt><trkpt lat="44.5039507" lon="8.8981249"><ele>121.99999999999999</ele><time>2026-04-16T11:50:44.999Z</time></trkpt><trkpt lat="44.5040126" lon="8.8980826"><ele>122.0</ele><time>2026-04-16T11:50:45.999Z</time></trkpt><trkpt lat="44.5041369" lon="8.8980392"><ele>121.99999999999999</ele><time>2026-04-16T11:50:47.999Z</time></trkpt><trkpt lat="44.5042161" lon="8.8979943"><ele>121.99999999999999</ele><time>2026-04-16T11:50:48.999Z</time></trkpt><trkpt lat="44.5042942" lon="8.8979481"><ele>122.0</ele><time>2026-04-16T11:50:49.999Z</time></trkpt><trkpt lat="44.5043774" lon="8.8979007"><ele>122.0</ele><time>2026-04-16T11:50:50.999Z</time></trkpt><trkpt lat="44.5044634" lon="8.8978461"><ele>121.99999999999999</ele><time>2026-04-16T11:50:51.999Z</time></trkpt><trkpt lat="44.5045429" lon="8.8977944"><ele>122.0</ele><time>2026-04-16T11:50:52.999Z</time></trkpt><trkpt lat="44.5046162" lon="8.8977495"><ele>122.0</ele><time>2026-04-16T11:50:53.999Z</time></trkpt><trkpt lat="44.5046827" lon="8.8977008"><ele>122.0</ele><time>2026-04-16T11:50:54.999Z</time></trkpt><trkpt lat="44.5047576" lon="8.8976492"><ele>121.99999999999999</ele><time>2026-04-16T11:50:55.999Z</time></trkpt><trkpt lat="44.5048362" lon="8.8975988"><ele>122.0</ele><time>2026-04-16T11:50:57.106Z</time></trkpt><trkpt lat="44.5049963" lon="8.8974897"><ele>121.8</ele><time>2026-04-16T11:50:58.999Z</time></trkpt><trkpt lat="44.5050844" lon="8.8974304"><ele>121.6</ele><time>2026-04-16T11:50:59.999Z</time></trkpt><trkpt lat="44.5051731" lon="8.8973688"><ele>121.39999999999999</ele><time>2026-04-16T11:51:00.999Z</time></trkpt><trkpt lat="44.5052486" lon="8.8973095"><ele>121.19999999999999</ele><time>2026-04-16T11:51:01.999Z</time></trkpt><trkpt lat="44.5053306" lon="8.8972369"><ele>121.0</ele><time>2026-04-16T11:51:02.999Z</time></trkpt><trkpt lat="44.5054123" lon="8.8971623"><ele>121.4</ele><time>2026-04-16T11:51:03.999Z</time></trkpt><trkpt lat="44.5054838" lon="8.8970663"><ele>121.8</ele><time>2026-04-16T11:51:04.999Z</time></trkpt><trkpt lat="44.5055551" lon="8.8969887"><ele>122.20000000000002</ele><time>2026-04-16T11:51:05.999Z</time></trkpt><trkpt lat="44.5056223" lon="8.8969066"><ele>122.60000000000001</ele><time>2026-04-16T11:51:06.999Z</time></trkpt><trkpt lat="44.5056871" lon="8.8968183"><ele>123.0</ele><time>2026-04-16T11:51:07.999Z</time></trkpt><trkpt lat="44.5057595" lon="8.8967194"><ele>122.0</ele><time>2026-04-16T11:51:08.999Z</time></trkpt><trkpt lat="44.5058325" lon="8.8966368"><ele>121.0</ele><time>2026-04-16T11:51:09.999Z</time></trkpt><trkpt lat="44.505903" lon="8.8965633"><ele>120.0</ele><time>2026-04-16T11:51:10.999Z</time></trkpt><trkpt lat="44.5059618" lon="8.8964824"><ele>119.0</ele><time>2026-04-16T11:51:11.999Z</time></trkpt><trkpt lat="44.5060278" lon="8.8964018"><ele>118.0</ele><time>2026-04-16T11:51:12.999Z</time></trkpt><trkpt lat="44.5060904" lon="8.896323"><ele>117.0</ele><time>2026-04-16T11:51:13.999Z</time></trkpt><trkpt lat="44.5061471" lon="8.8962511"><ele>117.0</ele><time>2026-04-16T11:51:14.999Z</time></trkpt><trkpt lat="44.5062142" lon="8.8961248"><ele>117.0</ele><time>2026-04-16T11:51:16.999Z</time></trkpt><trkpt lat="44.5062467" lon="8.8960159"><ele>117.0</ele><time>2026-04-16T11:51:18.999Z</time></trkpt><trkpt lat="44.5062673" lon="8.895915"><ele>117.0</ele><time>2026-04-16T11:51:22.999Z</time></trkpt><trkpt lat="44.5062901" lon="8.8958213"><ele>117.0</ele><time>2026-04-16T11:51:39.999Z</time></trkpt><trkpt lat="44.506302" lon="8.8957323"><ele>117.0</ele><time>2026-04-16T11:51:42.999Z</time></trkpt><trkpt lat="44.5063109" lon="8.8956349"><ele>117.0</ele><time>2026-04-16T11:51:45.999Z</time></trkpt><trkpt lat="44.5063224" lon="8.8955263"><ele>117.0</ele><time>2026-04-16T11:51:47.999Z</time></trkpt><trkpt lat="44.5063441" lon="8.8954072"><ele>117.0</ele><time>2026-04-16T11:51:49.999Z</time></trkpt><trkpt lat="44.5063555" lon="8.8952526"><ele>117.0</ele><time>2026-04-16T11:51:52.103Z</time></trkpt><trkpt lat="44.5063684" lon="8.895164"><ele>117.0</ele><time>2026-04-16T11:51:52.999Z</time></trkpt><trkpt lat="44.5063792" lon="8.8950611"><ele>117.0</ele><time>2026-04-16T11:51:53.999Z</time></trkpt><trkpt lat="44.5063918" lon="8.8948903"><ele>117.0</ele><time>2026-04-16T11:51:55.999Z</time></trkpt><trkpt lat="44.5064002" lon="8.8947982"><ele>116.99999999999999</ele><time>2026-04-16T11:51:56.999Z</time></trkpt><trkpt lat="44.5064177" lon="8.8946536"><ele>116.99999999999999</ele><time>2026-04-16T11:51:58.999Z</time></trkpt><trkpt lat="44.5064357" lon="8.8944968"><ele>117.0</ele><time>2026-04-16T11:52:01.999Z</time></trkpt><trkpt lat="44.5064542" lon="8.8943144"><ele>117.0</ele><time>2026-04-16T11:52:04.999Z</time></trkpt><trkpt lat="44.5064827" lon="8.8941972"><ele>118.19999999999999</ele><time>2026-04-16T11:52:06.999Z</time></trkpt><trkpt lat="44.5064946" lon="8.8941085"><ele>119.39999999999999</ele><time>2026-04-16T11:52:07.999Z</time></trkpt><trkpt lat="44.5065008" lon="8.8939707"><ele>120.60000000000001</ele><time>2026-04-16T11:52:09.999Z</time></trkpt><trkpt lat="44.5065203" lon="8.8938259"><ele>121.80000000000001</ele><time>2026-04-16T11:52:11.999Z</time></trkpt><trkpt lat="44.5065243" lon="8.8937265"><ele>123.0</ele><time>2026-04-16T11:52:12.999Z</time></trkpt><trkpt lat="44.5065247" lon="8.8935538"><ele>123.0</ele><time>2026-04-16T11:52:14.999Z</time></trkpt><trkpt lat="44.506515" lon="8.8934249"><ele>123.0</ele><time>2026-04-16T11:52:16.999Z</time></trkpt><trkpt lat="44.5065065" lon="8.8933222"><ele>123.0</ele><time>2026-04-16T11:52:18.999Z</time></trkpt><trkpt lat="44.5064782" lon="8.8932328"><ele>123.0</ele><time>2026-04-16T11:52:20.999Z</time></trkpt><trkpt lat="44.5064707" lon="8.8931096"><ele>123.0</ele><time>2026-04-16T11:52:22.999Z</time></trkpt><trkpt lat="44.5064829" lon="8.8929625"><ele>123.0</ele><time>2026-04-16T11:52:24.999Z</time></trkpt><trkpt lat="44.5064933" lon="8.8928532"><ele>123.33333333333333</ele><time>2026-04-16T11:52:25.999Z</time></trkpt><trkpt lat="44.5065249" lon="8.8927591"><ele>123.66666666666666</ele><time>2026-04-16T11:52:27.999Z</time></trkpt><trkpt lat="44.5065472" lon="8.8926604"><ele>124.0</ele><time>2026-04-16T11:52:29.999Z</time></trkpt><trkpt lat="44.5065801" lon="8.8925643"><ele>124.33333333333333</ele><time>2026-04-16T11:52:31.999Z</time></trkpt><trkpt lat="44.5066118" lon="8.8924594"><ele>124.66666666666666</ele><time>2026-04-16T11:52:33.999Z</time></trkpt><trkpt lat="44.5066486" lon="8.8923556"><ele>125.0</ele><time>2026-04-16T11:52:35.999Z</time></trkpt><trkpt lat="44.5066912" lon="8.89225"><ele>125.2</ele><time>2026-04-16T11:52:37.999Z</time></trkpt><trkpt lat="44.506771" lon="8.8921062"><ele>125.4</ele><time>2026-04-16T11:52:39.999Z</time></trkpt><trkpt lat="44.5068211" lon="8.8920105"><ele>125.6</ele><time>2026-04-16T11:52:40.999Z</time></trkpt><trkpt lat="44.5068703" lon="8.8919103"><ele>125.8</ele><time>2026-04-16T11:52:41.999Z</time></trkpt><trkpt lat="44.5069193" lon="8.8918249"><ele>126.0</ele><time>2026-04-16T11:52:42.999Z</time></trkpt><trkpt lat="44.5069678" lon="8.8917086"><ele>126.4</ele><time>2026-04-16T11:52:43.999Z</time></trkpt><trkpt lat="44.5070116" lon="8.8916005"><ele>126.8</ele><time>2026-04-16T11:52:44.999Z</time></trkpt><trkpt lat="44.5070531" lon="8.8914472"><ele>127.20000000000002</ele><time>2026-04-16T11:52:45.999Z</time></trkpt><trkpt lat="44.5070784" lon="8.8913302"><ele>127.60000000000001</ele><time>2026-04-16T11:52:46.999Z</time></trkpt><trkpt lat="44.5071054" lon="8.891209"><ele>128.0</ele><time>2026-04-16T11:52:47.999Z</time></trkpt><trkpt lat="44.5071426" lon="8.8911026"><ele>129.16666666666666</ele><time>2026-04-16T11:52:48.999Z</time></trkpt><trkpt lat="44.5071852" lon="8.8909934"><ele>130.33333333333331</ele><time>2026-04-16T11:52:49.999Z</time></trkpt><trkpt lat="44.5072294" lon="8.8909036"><ele>131.5</ele><time>2026-04-16T11:52:50.999Z</time></trkpt><trkpt lat="44.5072665" lon="8.8908154"><ele>132.66666666666666</ele><time>2026-04-16T11:52:51.999Z</time></trkpt><trkpt lat="44.5073033" lon="8.8907273"><ele>133.83333333333334</ele><time>2026-04-16T11:52:52.999Z</time></trkpt><trkpt lat="44.5073344" lon="8.8906502"><ele>135.0</ele><time>2026-04-16T11:52:53.999Z</time></trkpt><trkpt lat="44.5073824" lon="8.8905333"><ele>135.2</ele><time>2026-04-16T11:52:55.999Z</time></trkpt><trkpt lat="44.5074579" lon="8.8904521"><ele>135.4</ele><time>2026-04-16T11:52:57.999Z</time></trkpt><trkpt lat="44.5075282" lon="8.8905052"><ele>135.6</ele><time>2026-04-16T11:52:59.999Z</time></trkpt><trkpt lat="44.5075679" lon="8.8906135"><ele>135.8</ele><time>2026-04-16T11:53:02.999Z</time></trkpt><trkpt lat="44.5075807" lon="8.8907744"><ele>136.0</ele><time>2026-04-16T11:53:03.999Z</time></trkpt><trkpt lat="44.5075816" lon="8.8909053"><ele>135.83333333333334</ele><time>2026-04-16T11:53:04.999Z</time></trkpt><trkpt lat="44.5075841" lon="8.8910013"><ele>135.66666666666669</ele><time>2026-04-16T11:53:05.999Z</time></trkpt><trkpt lat="44.507582" lon="8.8911166"><ele>135.5</ele><time>2026-04-16T11:53:06.999Z</time></trkpt><trkpt lat="44.5075914" lon="8.8912418"><ele>135.33333333333334</ele><time>2026-04-16T11:53:07.999Z</time></trkpt><trkpt lat="44.5075957" lon="8.8913677"><ele>135.16666666666666</ele><time>2026-04-16T11:53:08.999Z</time></trkpt><trkpt lat="44.5075977" lon="8.8915045"><ele>135.0</ele><time>2026-04-16T11:53:09.999Z</time></trkpt><trkpt lat="44.5075906" lon="8.8916126"><ele>135.0</ele><time>2026-04-16T11:53:10.999Z</time></trkpt><trkpt lat="44.507593" lon="8.8917272"><ele>135.0</ele><time>2026-04-16T11:53:11.999Z</time></trkpt><trkpt lat="44.5075779" lon="8.8918479"><ele>135.0</ele><time>2026-04-16T11:53:12.999Z</time></trkpt><trkpt lat="44.5075702" lon="8.891961"><ele>135.0</ele><time>2026-04-16T11:53:13.999Z</time></trkpt><trkpt lat="44.5075631" lon="8.8921008"><ele>135.0</ele><time>2026-04-16T11:53:14.999Z</time></trkpt><trkpt lat="44.5075587" lon="8.8922298"><ele>135.0</ele><time>2026-04-16T11:53:15.999Z</time></trkpt><trkpt lat="44.5075387" lon="8.8923678"><ele>136.2</ele><time>2026-04-16T11:53:16.999Z</time></trkpt><trkpt lat="44.5075273" lon="8.8924785"><ele>137.4</ele><time>2026-04-16T11:53:17.999Z</time></trkpt><trkpt lat="44.5075255" lon="8.8926597"><ele>138.6</ele><time>2026-04-16T11:53:19.999Z</time></trkpt><trkpt lat="44.5075447" lon="8.8927559"><ele>139.8</ele><time>2026-04-16T11:53:20.999Z</time></trkpt><trkpt lat="44.5076645" lon="8.8928379"><ele>141.0</ele><time>2026-04-16T11:53:22.999Z</time></trkpt><trkpt lat="44.5077307" lon="8.8928303"><ele>141.28571428571428</ele><time>2026-04-16T11:53:23.999Z</time></trkpt><trkpt lat="44.5077943" lon="8.8927991"><ele>141.57142857142856</ele><time>2026-04-16T11:53:24.999Z</time></trkpt><trkpt lat="44.5078603" lon="8.8927485"><ele>141.85714285714283</ele><time>2026-04-16T11:53:25.999Z</time></trkpt><trkpt lat="44.5079262" lon="8.8926862"><ele>142.14285714285714</ele><time>2026-04-16T11:53:26.999Z</time></trkpt><trkpt lat="44.5079849" lon="8.8926334"><ele>142.42857142857142</ele><time>2026-04-16T11:53:27.999Z</time></trkpt><trkpt lat="44.5080449" lon="8.8925775"><ele>142.7142857142857</ele><time>2026-04-16T11:53:28.999Z</time></trkpt><trkpt lat="44.5081017" lon="8.8925261"><ele>143.0</ele><time>2026-04-16T11:53:29.999Z</time></trkpt><trkpt lat="44.5081654" lon="8.8924743"><ele>145.5</ele><time>2026-04-16T11:53:30.999Z</time></trkpt><trkpt lat="44.5082346" lon="8.8924291"><ele>148.0</ele><time>2026-04-16T11:53:31.999Z</time></trkpt><trkpt lat="44.5083104" lon="8.8923912"><ele>150.5</ele><time>2026-04-16T11:53:32.999Z</time></trkpt><trkpt lat="44.5083966" lon="8.8923484"><ele>153.0</ele><time>2026-04-16T11:53:33.999Z</time></trkpt><trkpt lat="44.5084947" lon="8.8922958"><ele>155.5</ele><time>2026-04-16T11:53:34.999Z</time></trkpt><trkpt lat="44.5085806" lon="8.8922485"><ele>158.0</ele><time>2026-04-16T11:53:35.999Z</time></trkpt><trkpt lat="44.5086636" lon="8.8922184"><ele>159.83333333333331</ele><time>2026-04-16T11:53:36.999Z</time></trkpt><trkpt lat="44.5087473" lon="8.8921915"><ele>161.66666666666666</ele><time>2026-04-16T11:53:37.999Z</time></trkpt><trkpt lat="44.508832" lon="8.8921685"><ele>163.5</ele><time>2026-04-16T11:53:38.999Z</time></trkpt><trkpt lat="44.5089195" lon="8.8921286"><ele>165.33333333333334</ele><time>2026-04-16T11:53:39.999Z</time></trkpt><trkpt lat="44.5090068" lon="8.8921154"><ele>167.16666666666669</ele><time>2026-04-16T11:53:40.999Z</time></trkpt><trkpt lat="44.5091005" lon="8.8921489"><ele>169.0</ele><time>2026-04-16T11:53:41.999Z</time></trkpt><trkpt lat="44.5091773" lon="8.8921665"><ele>169.0</ele><time>2026-04-16T11:53:42.999Z</time></trkpt><trkpt lat="44.5092445" lon="8.8921869"><ele>169.0</ele><time>2026-04-16T11:53:43.999Z</time></trkpt><trkpt lat="44.5093394" lon="8.8922396"><ele>169.0</ele><time>2026-04-16T11:53:44.999Z</time></trkpt><trkpt lat="44.5094066" lon="8.89228"><ele>169.0</ele><time>2026-04-16T11:53:45.999Z</time></trkpt><trkpt lat="44.509477" lon="8.8923432"><ele>169.0</ele><time>2026-04-16T11:53:46.999Z</time></trkpt><trkpt lat="44.5095416" lon="8.8923943"><ele>169.0</ele><time>2026-04-16T11:53:47.999Z</time></trkpt><trkpt lat="44.5096071" lon="8.8924427"><ele>169.39999999999998</ele><time>2026-04-16T11:53:48.998Z</time></trkpt><trkpt lat="44.5096692" lon="8.8924967"><ele>169.8</ele><time>2026-04-16T11:53:49.999Z</time></trkpt><trkpt lat="44.5097377" lon="8.8925023"><ele>170.2</ele><time>2026-04-16T11:53:50.999Z</time></trkpt><trkpt lat="44.5098529" lon="8.8923679"><ele>170.60000000000002</ele><time>2026-04-16T11:53:53.999Z</time></trkpt><trkpt lat="44.5098155" lon="8.892231"><ele>171.0</ele><time>2026-04-16T11:53:55.999Z</time></trkpt><trkpt lat="44.5097177" lon="8.8921295"><ele>171.0</ele><time>2026-04-16T11:53:57.999Z</time></trkpt><trkpt lat="44.5096671" lon="8.8920767"><ele>171.0</ele><time>2026-04-16T11:53:58.999Z</time></trkpt><trkpt lat="44.50962" lon="8.8919866"><ele>171.0</ele><time>2026-04-16T11:54:00.112Z</time></trkpt><trkpt lat="44.5095617" lon="8.891797"><ele>171.0</ele><time>2026-04-16T11:54:01.999Z</time></trkpt><trkpt lat="44.5095323" lon="8.8916892"><ele>171.0</ele><time>2026-04-16T11:54:02.999Z</time></trkpt><trkpt lat="44.5095067" lon="8.8915849"><ele>170.75</ele><time>2026-04-16T11:54:03.999Z</time></trkpt><trkpt lat="44.509479" lon="8.8914861"><ele>170.5</ele><time>2026-04-16T11:54:05.111Z</time></trkpt><trkpt lat="44.509435" lon="8.8913182"><ele>170.25</ele><time>2026-04-16T11:54:06.999Z</time></trkpt><trkpt lat="44.5094206" lon="8.8911706"><ele>170.0</ele><time>2026-04-16T11:54:08.999Z</time></trkpt><trkpt lat="44.5095447" lon="8.8910795"><ele>174.8</ele><time>2026-04-16T11:54:11.999Z</time></trkpt><trkpt lat="44.5096404" lon="8.8911861"><ele>179.6</ele><time>2026-04-16T11:54:13.999Z</time></trkpt><trkpt lat="44.509695" lon="8.8912689"><ele>184.39999999999998</ele><time>2026-04-16T11:54:14.999Z</time></trkpt><trkpt lat="44.509745" lon="8.8913559"><ele>189.2</ele><time>2026-04-16T11:54:15.999Z</time></trkpt><trkpt lat="44.5098136" lon="8.8914339"><ele>194.0</ele><time>2026-04-16T11:54:16.999Z</time></trkpt><trkpt lat="44.5098928" lon="8.8915051"><ele>194.0</ele><time>2026-04-16T11:54:17.999Z</time></trkpt><trkpt lat="44.5099881" lon="8.8915518"><ele>194.0</ele><time>2026-04-16T11:54:18.999Z</time></trkpt><trkpt lat="44.5100773" lon="8.8915873"><ele>194.0</ele><time>2026-04-16T11:54:19.999Z</time></trkpt><trkpt lat="44.5101714" lon="8.8916281"><ele>194.0</ele><time>2026-04-16T11:54:20.999Z</time></trkpt><trkpt lat="44.5102581" lon="8.8916483"><ele>194.0</ele><time>2026-04-16T11:54:21.999Z</time></trkpt><trkpt lat="44.5103485" lon="8.8916722"><ele>196.0</ele><time>2026-04-16T11:54:22.999Z</time></trkpt><trkpt lat="44.5104489" lon="8.8916764"><ele>198.0</ele><time>2026-04-16T11:54:23.999Z</time></trkpt><trkpt lat="44.5105367" lon="8.8916722"><ele>200.0</ele><time>2026-04-16T11:54:24.999Z</time></trkpt><trkpt lat="44.5106343" lon="8.8916485"><ele>202.0</ele><time>2026-04-16T11:54:25.999Z</time></trkpt><trkpt lat="44.5107289" lon="8.8916155"><ele>204.0</ele><time>2026-04-16T11:54:26.999Z</time></trkpt><trkpt lat="44.5108251" lon="8.8915824"><ele>204.0</ele><time>2026-04-16T11:54:27.999Z</time></trkpt><trkpt lat="44.5109082" lon="8.8915462"><ele>204.0</ele><time>2026-04-16T11:54:28.999Z</time></trkpt><trkpt lat="44.5109939" lon="8.8915111"><ele>204.0</ele><time>2026-04-16T11:54:29.999Z</time></trkpt><trkpt lat="44.5110714" lon="8.8914837"><ele>204.0</ele><time>2026-04-16T11:54:30.999Z</time></trkpt><trkpt lat="44.511139" lon="8.8914297"><ele>204.0</ele><time>2026-04-16T11:54:31.999Z</time></trkpt><trkpt lat="44.5111896" lon="8.8913509"><ele>204.0</ele><time>2026-04-16T11:54:32.999Z</time></trkpt><trkpt lat="44.5112303" lon="8.8912506"><ele>204.0</ele><time>2026-04-16T11:54:33.999Z</time></trkpt><trkpt lat="44.5112735" lon="8.8911598"><ele>204.0</ele><time>2026-04-16T11:54:34.999Z</time></trkpt><trkpt lat="44.5113187" lon="8.8910828"><ele>204.0</ele><time>2026-04-16T11:54:35.999Z</time></trkpt><trkpt lat="44.5113749" lon="8.8910404"><ele>204.0</ele><time>2026-04-16T11:54:36.999Z</time></trkpt><trkpt lat="44.5115052" lon="8.8910129"><ele>204.0</ele><time>2026-04-16T11:54:38.999Z</time></trkpt><trkpt lat="44.5115949" lon="8.8910049"><ele>204.0</ele><time>2026-04-16T11:54:39.999Z</time></trkpt><trkpt lat="44.5116908" lon="8.8910923"><ele>204.0</ele><time>2026-04-16T11:54:42.101Z</time></trkpt><trkpt lat="44.5117975" lon="8.891112"><ele>204.0</ele><time>2026-04-16T11:54:43.999Z</time></trkpt><trkpt lat="44.5118682" lon="8.8911057"><ele>204.0</ele><time>2026-04-16T11:54:45.999Z</time></trkpt><trkpt lat="44.5119434" lon="8.8909958"><ele>204.0</ele><time>2026-04-16T11:54:48.999Z</time></trkpt><trkpt lat="44.5120293" lon="8.8908131"><ele>204.0</ele><time>2026-04-16T11:54:50.999Z</time></trkpt><trkpt lat="44.5120948" lon="8.8907292"><ele>206.6</ele><time>2026-04-16T11:54:51.999Z</time></trkpt><trkpt lat="44.5121585" lon="8.8906356"><ele>209.2</ele><time>2026-04-16T11:54:52.999Z</time></trkpt><trkpt lat="44.5122126" lon="8.8905386"><ele>211.79999999999998</ele><time>2026-04-16T11:54:53.999Z</time></trkpt><trkpt lat="44.512296" lon="8.890492"><ele>214.39999999999998</ele><time>2026-04-16T11:54:54.999Z</time></trkpt><trkpt lat="44.5123777" lon="8.8904145"><ele>217.0</ele><time>2026-04-16T11:54:55.999Z</time></trkpt><trkpt lat="44.5124543" lon="8.8903436"><ele>217.0</ele><time>2026-04-16T11:54:56.999Z</time></trkpt><trkpt lat="44.5125299" lon="8.8903177"><ele>217.0</ele><time>2026-04-16T11:54:57.999Z</time></trkpt><trkpt lat="44.5126396" lon="8.8903778"><ele>217.0</ele><time>2026-04-16T11:55:00.123Z</time></trkpt><trkpt lat="44.5127398" lon="8.8904807"><ele>217.0</ele><time>2026-04-16T11:55:01.999Z</time></trkpt><trkpt lat="44.5128091" lon="8.8905335"><ele>217.0</ele><time>2026-04-16T11:55:02.999Z</time></trkpt><trkpt lat="44.5128919" lon="8.8905708"><ele>218.66666666666666</ele><time>2026-04-16T11:55:03.999Z</time></trkpt><trkpt lat="44.5129692" lon="8.8905688"><ele>220.33333333333331</ele><time>2026-04-16T11:55:04.999Z</time></trkpt><trkpt lat="44.5130581" lon="8.8905484"><ele>222.0</ele><time>2026-04-16T11:55:05.999Z</time></trkpt><trkpt lat="44.5131434" lon="8.8905078"><ele>223.66666666666669</ele><time>2026-04-16T11:55:06.999Z</time></trkpt><trkpt lat="44.5132166" lon="8.8904587"><ele>225.33333333333334</ele><time>2026-04-16T11:55:07.999Z</time></trkpt><trkpt lat="44.5132815" lon="8.8903905"><ele>227.0</ele><time>2026-04-16T11:55:08.999Z</time></trkpt><trkpt lat="44.5133283" lon="8.8903014"><ele>227.00000000000003</ele><time>2026-04-16T11:55:09.999Z</time></trkpt><trkpt lat="44.5133573" lon="8.8901819"><ele>227.0</ele><time>2026-04-16T11:55:10.999Z</time></trkpt><trkpt lat="44.5133805" lon="8.8900624"><ele>227.0</ele><time>2026-04-16T11:55:11.999Z</time></trkpt><trkpt lat="44.5133996" lon="8.8899657"><ele>227.0</ele><time>2026-04-16T11:55:12.999Z</time></trkpt><trkpt lat="44.5134511" lon="8.8898679"><ele>227.00000000000003</ele><time>2026-04-16T11:55:13.999Z</time></trkpt><trkpt lat="44.5135147" lon="8.8897848"><ele>227.0</ele><time>2026-04-16T11:55:14.999Z</time></trkpt><trkpt lat="44.5135984" lon="8.889737"><ele>229.33333333333334</ele><time>2026-04-16T11:55:15.999Z</time></trkpt><trkpt lat="44.5136845" lon="8.8896823"><ele>231.66666666666669</ele><time>2026-04-16T11:55:16.999Z</time></trkpt><trkpt lat="44.5137695" lon="8.8896337"><ele>234.0</ele><time>2026-04-16T11:55:17.999Z</time></trkpt><trkpt lat="44.513851" lon="8.8895858"><ele>236.33333333333331</ele><time>2026-04-16T11:55:18.999Z</time></trkpt><trkpt lat="44.5139246" lon="8.8895351"><ele>238.66666666666666</ele><time>2026-04-16T11:55:19.999Z</time></trkpt><trkpt lat="44.5140044" lon="8.8895144"><ele>241.0</ele><time>2026-04-16T11:55:20.999Z</time></trkpt><trkpt lat="44.5140813" lon="8.8895038"><ele>241.8</ele><time>2026-04-16T11:55:21.999Z</time></trkpt><trkpt lat="44.5141505" lon="8.8895656"><ele>242.60000000000002</ele><time>2026-04-16T11:55:22.999Z</time></trkpt><trkpt lat="44.5142078" lon="8.8896542"><ele>243.4</ele><time>2026-04-16T11:55:23.999Z</time></trkpt><trkpt lat="44.5142721" lon="8.8897257"><ele>244.2</ele><time>2026-04-16T11:55:24.999Z</time></trkpt><trkpt lat="44.5143806" lon="8.8897709"><ele>245.0</ele><time>2026-04-16T11:55:25.999Z</time></trkpt><trkpt lat="44.514485" lon="8.8898459"><ele>247.75</ele><time>2026-04-16T11:55:26.999Z</time></trkpt><trkpt lat="44.5145933" lon="8.8898988"><ele>250.5</ele><time>2026-04-16T11:55:27.999Z</time></trkpt><trkpt lat="44.5146916" lon="8.8899498"><ele>253.25</ele><time>2026-04-16T11:55:28.999Z</time></trkpt><trkpt lat="44.5147783" lon="8.8900031"><ele>256.0</ele><time>2026-04-16T11:55:30.106Z</time></trkpt><trkpt lat="44.5149088" lon="8.8900782"><ele>255.99999999999997</ele><time>2026-04-16T11:55:31.999Z</time></trkpt><trkpt lat="44.5149729" lon="8.8900796"><ele>256.0</ele><time>2026-04-16T11:55:32.999Z</time></trkpt><trkpt lat="44.515037" lon="8.8900397"><ele>256.0</ele><time>2026-04-16T11:55:33.999Z</time></trkpt><trkpt lat="44.5151089" lon="8.8898906"><ele>256.0</ele><time>2026-04-16T11:55:35.999Z</time></trkpt><trkpt lat="44.5151516" lon="8.8897801"><ele>255.99999999999997</ele><time>2026-04-16T11:55:36.999Z</time></trkpt><trkpt lat="44.515179" lon="8.8896719"><ele>256.0</ele><time>2026-04-16T11:55:37.999Z</time></trkpt><trkpt lat="44.5151943" lon="8.8895612"><ele>255.99999999999997</ele><time>2026-04-16T11:55:38.999Z</time></trkpt><trkpt lat="44.5151936" lon="8.8894682"><ele>256.0</ele><time>2026-04-16T11:55:39.999Z</time></trkpt><trkpt lat="44.515216" lon="8.8893559"><ele>256.0</ele><time>2026-04-16T11:55:40.999Z</time></trkpt><trkpt lat="44.5152665" lon="8.8893028"><ele>256.0</ele><time>2026-04-16T11:55:42.118Z</time></trkpt><trkpt lat="44.5154092" lon="8.8892304"><ele>255.99999999999997</ele><time>2026-04-16T11:55:43.999Z</time></trkpt><trkpt lat="44.5154814" lon="8.8892037"><ele>256.0</ele><time>2026-04-16T11:55:44.999Z</time></trkpt><trkpt lat="44.515561" lon="8.8891745"><ele>258.75</ele><time>2026-04-16T11:55:46.103Z</time></trkpt><trkpt lat="44.5156406" lon="8.8891047"><ele>261.5</ele><time>2026-04-16T11:55:47.112Z</time></trkpt><trkpt lat="44.5157687" lon="8.8889015"><ele>264.25</ele><time>2026-04-16T11:55:48.999Z</time></trkpt><trkpt lat="44.5157629" lon="8.888779"><ele>267.0</ele><time>2026-04-16T11:55:49.999Z</time></trkpt><trkpt lat="44.5157893" lon="8.8886728"><ele>267.0</ele><time>2026-04-16T11:55:50.999Z</time></trkpt><trkpt lat="44.5158489" lon="8.8886187"><ele>267.0</ele><time>2026-04-16T11:55:52.102Z</time></trkpt><trkpt lat="44.5159543" lon="8.8885388"><ele>267.0</ele><time>2026-04-16T11:55:53.999Z</time></trkpt><trkpt lat="44.5160869" lon="8.8885618"><ele>267.0</ele><time>2026-04-16T11:55:55.11Z</time></trkpt><trkpt lat="44.5162704" lon="8.8885448"><ele>268.5</ele><time>2026-04-16T11:55:56.999Z</time></trkpt><trkpt lat="44.5163544" lon="8.8885078"><ele>270.0</ele><time>2026-04-16T11:55:57.999Z</time></trkpt><trkpt lat="44.5164328" lon="8.8884307"><ele>271.5</ele><time>2026-04-16T11:55:58.999Z</time></trkpt><trkpt lat="44.5164902" lon="8.8883389"><ele>273.0</ele><time>2026-04-16T11:55:59.999Z</time></trkpt><trkpt lat="44.5165288" lon="8.8882348"><ele>274.5</ele><time>2026-04-16T11:56:00.999Z</time></trkpt><trkpt lat="44.5165433" lon="8.8881122"><ele>276.0</ele><time>2026-04-16T11:56:01.999Z</time></trkpt><trkpt lat="44.516545" lon="8.8879926"><ele>276.0</ele><time>2026-04-16T11:56:02.999Z</time></trkpt><trkpt lat="44.5165286" lon="8.8878592"><ele>276.0</ele><time>2026-04-16T11:56:03.999Z</time></trkpt><trkpt lat="44.5165106" lon="8.8877262"><ele>276.0</ele><time>2026-04-16T11:56:04.999Z</time></trkpt><trkpt lat="44.5164934" lon="8.8875887"><ele>276.0</ele><time>2026-04-16T11:56:05.999Z</time></trkpt><trkpt lat="44.5164935" lon="8.8874505"><ele>276.0</ele><time>2026-04-16T11:56:06.999Z</time></trkpt><trkpt lat="44.5165303" lon="8.8873236"><ele>279.2</ele><time>2026-04-16T11:56:07.999Z</time></trkpt><trkpt lat="44.5165858" lon="8.8871889"><ele>282.40000000000003</ele><time>2026-04-16T11:56:08.999Z</time></trkpt><trkpt lat="44.5166319" lon="8.8870462"><ele>285.6</ele><time>2026-04-16T11:56:09.999Z</time></trkpt><trkpt lat="44.5166768" lon="8.8869107"><ele>288.8</ele><time>2026-04-16T11:56:10.999Z</time></trkpt><trkpt lat="44.516721" lon="8.8867778"><ele>292.0</ele><time>2026-04-16T11:56:11.999Z</time></trkpt><trkpt lat="44.5167616" lon="8.8866358"><ele>292.8</ele><time>2026-04-16T11:56:12.999Z</time></trkpt><trkpt lat="44.5167992" lon="8.8865034"><ele>293.6</ele><time>2026-04-16T11:56:13.999Z</time></trkpt><trkpt lat="44.5168453" lon="8.8863766"><ele>294.40000000000003</ele><time>2026-04-16T11:56:14.999Z</time></trkpt><trkpt lat="44.516899" lon="8.8862644"><ele>295.2</ele><time>2026-04-16T11:56:15.999Z</time></trkpt><trkpt lat="44.5170081" lon="8.8861821"><ele>296.0</ele><time>2026-04-16T11:56:16.999Z</time></trkpt><trkpt lat="44.5171136" lon="8.8861135"><ele>296.0</ele><time>2026-04-16T11:56:17.999Z</time></trkpt><trkpt lat="44.5172253" lon="8.8860481"><ele>296.0</ele><time>2026-04-16T11:56:18.999Z</time></trkpt><trkpt lat="44.5173154" lon="8.8859803"><ele>296.0</ele><time>2026-04-16T11:56:19.999Z</time></trkpt><trkpt lat="44.517404" lon="8.8859027"><ele>296.0</ele><time>2026-04-16T11:56:20.999Z</time></trkpt><trkpt lat="44.5174883" lon="8.8858244"><ele>296.0</ele><time>2026-04-16T11:56:22.108Z</time></trkpt><trkpt lat="44.5176671" lon="8.8856705"><ele>300.25</ele><time>2026-04-16T11:56:23.999Z</time></trkpt><trkpt lat="44.5177558" lon="8.8855881"><ele>304.5</ele><time>2026-04-16T11:56:25.104Z</time></trkpt><trkpt lat="44.5178645" lon="8.8855307"><ele>308.75</ele><time>2026-04-16T11:56:26.104Z</time></trkpt><trkpt lat="44.5180845" lon="8.8854875"><ele>313.0</ele><time>2026-04-16T11:56:27.999Z</time></trkpt><trkpt lat="44.5181995" lon="8.8854693"><ele>313.0</ele><time>2026-04-16T11:56:28.999Z</time></trkpt><trkpt lat="44.5183249" lon="8.8854478"><ele>313.0</ele><time>2026-04-16T11:56:29.999Z</time></trkpt><trkpt lat="44.5184322" lon="8.885421"><ele>313.0</ele><time>2026-04-16T11:56:30.999Z</time></trkpt><trkpt lat="44.5185329" lon="8.8853648"><ele>313.0</ele><time>2026-04-16T11:56:31.999Z</time></trkpt><trkpt lat="44.5186348" lon="8.885285"><ele>314.25</ele><time>2026-04-16T11:56:32.998Z</time></trkpt><trkpt lat="44.5187418" lon="8.8851926"><ele>315.5</ele><time>2026-04-16T11:56:33.999Z</time></trkpt><trkpt lat="44.5188465" lon="8.8851087"><ele>316.75</ele><time>2026-04-16T11:56:34.999Z</time></trkpt><trkpt lat="44.5189584" lon="8.8850138"><ele>318.0</ele><time>2026-04-16T11:56:35.999Z</time></trkpt><trkpt lat="44.5190578" lon="8.8849176"><ele>318.0</ele><time>2026-04-16T11:56:36.999Z</time></trkpt><trkpt lat="44.5191636" lon="8.8848234"><ele>318.0</ele><time>2026-04-16T11:56:37.999Z</time></trkpt><trkpt lat="44.5192553" lon="8.8847422"><ele>318.0</ele><time>2026-04-16T11:56:38.999Z</time></trkpt><trkpt lat="44.5193726" lon="8.8846708"><ele>318.0</ele><time>2026-04-16T11:56:39.999Z</time></trkpt><trkpt lat="44.5194851" lon="8.8846186"><ele>317.75</ele><time>2026-04-16T11:56:40.999Z</time></trkpt><trkpt lat="44.5197175" lon="8.8845657"><ele>317.5</ele><time>2026-04-16T11:56:42.999Z</time></trkpt><trkpt lat="44.5198253" lon="8.8845483"><ele>317.25</ele><time>2026-04-16T11:56:43.999Z</time></trkpt><trkpt lat="44.5199262" lon="8.8845446"><ele>317.0</ele><time>2026-04-16T11:56:44.999Z</time></trkpt><trkpt lat="44.5200369" lon="8.8845444"><ele>317.0</ele><time>2026-04-16T11:56:46.104Z</time></trkpt><trkpt lat="44.520143" lon="8.8845302"><ele>317.0</ele><time>2026-04-16T11:56:47.113Z</time></trkpt><trkpt lat="44.5203503" lon="8.8845164"><ele>317.0</ele><time>2026-04-16T11:56:48.999Z</time></trkpt><trkpt lat="44.520432" lon="8.8845193"><ele>317.0</ele><time>2026-04-16T11:56:49.999Z</time></trkpt><trkpt lat="44.5205169" lon="8.8845183"><ele>317.6666666666667</ele><time>2026-04-16T11:56:50.999Z</time></trkpt><trkpt lat="44.5206003" lon="8.8845346"><ele>318.33333333333337</ele><time>2026-04-16T11:56:51.996Z</time></trkpt><trkpt lat="44.5206702" lon="8.884546"><ele>319.0</ele><time>2026-04-16T11:56:52.999Z</time></trkpt><trkpt lat="44.5207451" lon="8.8845484"><ele>319.6666666666667</ele><time>2026-04-16T11:56:53.999Z</time></trkpt><trkpt lat="44.520825" lon="8.8845506"><ele>320.3333333333333</ele><time>2026-04-16T11:56:54.999Z</time></trkpt><trkpt lat="44.5209128" lon="8.8845443"><ele>321.0</ele><time>2026-04-16T11:56:55.999Z</time></trkpt><trkpt lat="44.521006" lon="8.8845323"><ele>321.0</ele><time>2026-04-16T11:56:56.999Z</time></trkpt><trkpt lat="44.5211282" lon="8.8845135"><ele>321.0</ele><time>2026-04-16T11:56:57.999Z</time></trkpt><trkpt lat="44.5212294" lon="8.8844896"><ele>321.0</ele><time>2026-04-16T11:56:58.998Z</time></trkpt><trkpt lat="44.5213278" lon="8.8844699"><ele>321.0</ele><time>2026-04-16T11:56:59.999Z</time></trkpt><trkpt lat="44.5214191" lon="8.884456"><ele>321.0</ele><time>2026-04-16T11:57:00.999Z</time></trkpt><trkpt lat="44.5215153" lon="8.8844511"><ele>320.40000000000003</ele><time>2026-04-16T11:57:01.999Z</time></trkpt><trkpt lat="44.5216172" lon="8.8844625"><ele>319.8</ele><time>2026-04-16T11:57:02.999Z</time></trkpt><trkpt lat="44.5217144" lon="8.884487"><ele>319.20000000000005</ele><time>2026-04-16T11:57:03.999Z</time></trkpt><trkpt lat="44.5218199" lon="8.8845232"><ele>318.6</ele><time>2026-04-16T11:57:04.999Z</time></trkpt><trkpt lat="44.5219342" lon="8.8845629"><ele>318.0</ele><time>2026-04-16T11:57:05.999Z</time></trkpt><trkpt lat="44.5220349" lon="8.8845997"><ele>319.2</ele><time>2026-04-16T11:57:06.999Z</time></trkpt><trkpt lat="44.522143" lon="8.8846355"><ele>320.4</ele><time>2026-04-16T11:57:07.999Z</time></trkpt><trkpt lat="44.5222402" lon="8.8846824"><ele>321.59999999999997</ele><time>2026-04-16T11:57:08.999Z</time></trkpt><trkpt lat="44.5223343" lon="8.8847217"><ele>322.8</ele><time>2026-04-16T11:57:09.999Z</time></trkpt><trkpt lat="44.5224327" lon="8.8847531"><ele>324.0</ele><time>2026-04-16T11:57:10.999Z</time></trkpt><trkpt lat="44.52253" lon="8.8847825"><ele>324.0</ele><time>2026-04-16T11:57:11.999Z</time></trkpt><trkpt lat="44.5226344" lon="8.8848162"><ele>324.0</ele><time>2026-04-16T11:57:12.999Z</time></trkpt><trkpt lat="44.5227362" lon="8.8848575"><ele>324.0</ele><time>2026-04-16T11:57:13.999Z</time></trkpt><trkpt lat="44.5228329" lon="8.8848835"><ele>324.0</ele><time>2026-04-16T11:57:14.999Z</time></trkpt><trkpt lat="44.5229409" lon="8.8849226"><ele>324.0</ele><time>2026-04-16T11:57:15.999Z</time></trkpt><trkpt lat="44.5230482" lon="8.8849568"><ele>325.0</ele><time>2026-04-16T11:57:16.999Z</time></trkpt><trkpt lat="44.5231511" lon="8.8849998"><ele>326.0</ele><time>2026-04-16T11:57:17.999Z</time></trkpt><trkpt lat="44.5232463" lon="8.8850311"><ele>327.0</ele><time>2026-04-16T11:57:18.999Z</time></trkpt><trkpt lat="44.5233472" lon="8.885067"><ele>328.0</ele><time>2026-04-16T11:57:19.999Z</time></trkpt><trkpt lat="44.5234394" lon="8.8850804"><ele>329.0</ele><time>2026-04-16T11:57:20.999Z</time></trkpt><trkpt lat="44.523535" lon="8.8850799"><ele>329.0</ele><time>2026-04-16T11:57:21.999Z</time></trkpt><trkpt lat="44.5236255" lon="8.8850699"><ele>329.0</ele><time>2026-04-16T11:57:22.999Z</time></trkpt><trkpt lat="44.5237105" lon="8.8850659"><ele>329.0</ele><time>2026-04-16T11:57:23.999Z</time></trkpt><trkpt lat="44.5238011" lon="8.8850905"><ele>329.0</ele><time>2026-04-16T11:57:24.999Z</time></trkpt><trkpt lat="44.5238967" lon="8.8851434"><ele>329.0</ele><time>2026-04-16T11:57:25.999Z</time></trkpt><trkpt lat="44.5239868" lon="8.8852138"><ele>330.79999999999995</ele><time>2026-04-16T11:57:26.999Z</time></trkpt><trkpt lat="44.5240749" lon="8.8852891"><ele>332.59999999999997</ele><time>2026-04-16T11:57:27.999Z</time></trkpt><trkpt lat="44.5241645" lon="8.8853651"><ele>334.4</ele><time>2026-04-16T11:57:28.999Z</time></trkpt><trkpt lat="44.5242543" lon="8.8854412"><ele>336.2</ele><time>2026-04-16T11:57:29.999Z</time></trkpt><trkpt lat="44.5243422" lon="8.8855227"><ele>338.0</ele><time>2026-04-16T11:57:30.999Z</time></trkpt><trkpt lat="44.5244322" lon="8.8856004"><ele>338.0</ele><time>2026-04-16T11:57:32.1Z</time></trkpt><trkpt lat="44.5245196" lon="8.8856723"><ele>338.0</ele><time>2026-04-16T11:57:32.999Z</time></trkpt><trkpt lat="44.5246002" lon="8.8857439"><ele>338.0</ele><time>2026-04-16T11:57:33.999Z</time></trkpt><trkpt lat="44.5246788" lon="8.8858177"><ele>338.0</ele><time>2026-04-16T11:57:34.999Z</time></trkpt><trkpt lat="44.5247518" lon="8.885885"><ele>338.0</ele><time>2026-04-16T11:57:35.999Z</time></trkpt><trkpt lat="44.5248277" lon="8.8859357"><ele>338.33333333333337</ele><time>2026-04-16T11:57:36.999Z</time></trkpt><trkpt lat="44.5249114" lon="8.8859629"><ele>338.6666666666667</ele><time>2026-04-16T11:57:37.999Z</time></trkpt><trkpt lat="44.5249924" lon="8.8859842"><ele>339.0</ele><time>2026-04-16T11:57:38.999Z</time></trkpt><trkpt lat="44.5250872" lon="8.8860052"><ele>339.3333333333333</ele><time>2026-04-16T11:57:39.999Z</time></trkpt><trkpt lat="44.5251743" lon="8.8860192"><ele>339.66666666666663</ele><time>2026-04-16T11:57:40.999Z</time></trkpt><trkpt lat="44.5252521" lon="8.8860215"><ele>340.0</ele><time>2026-04-16T11:57:41.999Z</time></trkpt><trkpt lat="44.5253384" lon="8.8860241"><ele>344.2</ele><time>2026-04-16T11:57:42.999Z</time></trkpt><trkpt lat="44.5254129" lon="8.8860122"><ele>348.4</ele><time>2026-04-16T11:57:43.999Z</time></trkpt><trkpt lat="44.5255163" lon="8.8860041"><ele>352.6</ele><time>2026-04-16T11:57:44.999Z</time></trkpt><trkpt lat="44.5256227" lon="8.8859844"><ele>356.8</ele><time>2026-04-16T11:57:45.999Z</time></trkpt><trkpt lat="44.5257172" lon="8.8859805"><ele>361.0</ele><time>2026-04-16T11:57:46.999Z</time></trkpt><trkpt lat="44.5257902" lon="8.8859468"><ele>361.0</ele><time>2026-04-16T11:57:47.999Z</time></trkpt><trkpt lat="44.5258867" lon="8.8859331"><ele>361.0</ele><time>2026-04-16T11:57:48.999Z</time></trkpt><trkpt lat="44.5259693" lon="8.8859221"><ele>361.0</ele><time>2026-04-16T11:57:49.999Z</time></trkpt><trkpt lat="44.5260492" lon="8.8859373"><ele>361.0</ele><time>2026-04-16T11:57:50.999Z</time></trkpt><trkpt lat="44.5261356" lon="8.8859748"><ele>361.0</ele><time>2026-04-16T11:57:51.999Z</time></trkpt><trkpt lat="44.5261987" lon="8.8859955"><ele>361.0</ele><time>2026-04-16T11:57:52.999Z</time></trkpt><trkpt lat="44.5263036" lon="8.8860474"><ele>363.20000000000005</ele><time>2026-04-16T11:57:54.999Z</time></trkpt><trkpt lat="44.5264133" lon="8.8860521"><ele>365.40000000000003</ele><time>2026-04-16T11:57:57.115Z</time></trkpt><trkpt lat="44.52651" lon="8.885912"><ele>367.6</ele><time>2026-04-16T11:57:58.999Z</time></trkpt><trkpt lat="44.5265666" lon="8.8858536"><ele>369.8</ele><time>2026-04-16T11:57:59.999Z</time></trkpt><trkpt lat="44.5266206" lon="8.8858051"><ele>372.0</ele><time>2026-04-16T11:58:00.999Z</time></trkpt><trkpt lat="44.5266865" lon="8.8857807"><ele>372.0</ele><time>2026-04-16T11:58:02.105Z</time></trkpt><trkpt lat="44.5268457" lon="8.8857918"><ele>372.0</ele><time>2026-04-16T11:58:03.999Z</time></trkpt><trkpt lat="44.5269116" lon="8.8858251"><ele>372.0</ele><time>2026-04-16T11:58:04.999Z</time></trkpt><trkpt lat="44.527" lon="8.8859146"><ele>372.0</ele><time>2026-04-16T11:58:06.999Z</time></trkpt><trkpt lat="44.5270519" lon="8.8860481"><ele>372.0</ele><time>2026-04-16T11:58:08.999Z</time></trkpt><trkpt lat="44.527156" lon="8.8861107"><ele>376.40000000000003</ele><time>2026-04-16T11:58:10.999Z</time></trkpt><trkpt lat="44.5272638" lon="8.8860825"><ele>380.8</ele><time>2026-04-16T11:58:12.999Z</time></trkpt><trkpt lat="44.5273275" lon="8.885975"><ele>385.2</ele><time>2026-04-16T11:58:13.999Z</time></trkpt><trkpt lat="44.5273847" lon="8.8858991"><ele>389.6</ele><time>2026-04-16T11:58:14.999Z</time></trkpt><trkpt lat="44.5274394" lon="8.885816"><ele>394.0</ele><time>2026-04-16T11:58:15.999Z</time></trkpt><trkpt lat="44.5274997" lon="8.8857354"><ele>394.00000000000006</ele><time>2026-04-16T11:58:16.999Z</time></trkpt><trkpt lat="44.5275653" lon="8.885661"><ele>394.0</ele><time>2026-04-16T11:58:17.999Z</time></trkpt><trkpt lat="44.5276417" lon="8.8856123"><ele>394.0</ele><time>2026-04-16T11:58:18.998Z</time></trkpt><trkpt lat="44.5277202" lon="8.8855896"><ele>394.0</ele><time>2026-04-16T11:58:19.999Z</time></trkpt><trkpt lat="44.527804" lon="8.8855602"><ele>394.00000000000006</ele><time>2026-04-16T11:58:20.999Z</time></trkpt><trkpt lat="44.5278656" lon="8.8855307"><ele>394.0</ele><time>2026-04-16T11:58:22.109Z</time></trkpt><trkpt lat="44.527972" lon="8.885415"><ele>395.6</ele><time>2026-04-16T11:58:23.999Z</time></trkpt><trkpt lat="44.5281042" lon="8.885244"><ele>397.2</ele><time>2026-04-16T11:58:26.999Z</time></trkpt><trkpt lat="44.5281576" lon="8.8851964"><ele>398.8</ele><time>2026-04-16T11:58:27.999Z</time></trkpt><trkpt lat="44.5282128" lon="8.8851508"><ele>400.40000000000003</ele><time>2026-04-16T11:58:28.999Z</time></trkpt><trkpt lat="44.5283181" lon="8.8850544"><ele>402.0</ele><time>2026-04-16T11:58:30.999Z</time></trkpt><trkpt lat="44.5284101" lon="8.8850292"><ele>402.0</ele><time>2026-04-16T11:58:32.103Z</time></trkpt><trkpt lat="44.5285678" lon="8.8849896"><ele>402.0</ele><time>2026-04-16T11:58:33.999Z</time></trkpt><trkpt lat="44.5286346" lon="8.8849783"><ele>402.0</ele><time>2026-04-16T11:58:34.999Z</time></trkpt><trkpt lat="44.5287077" lon="8.8849602"><ele>402.0</ele><time>2026-04-16T11:58:35.999Z</time></trkpt><trkpt lat="44.5287695" lon="8.8849267"><ele>402.0</ele><time>2026-04-16T11:58:36.999Z</time></trkpt><trkpt lat="44.5288169" lon="8.8848647"><ele>402.0</ele><time>2026-04-16T11:58:37.999Z</time></trkpt><trkpt lat="44.5288632" lon="8.8847971"><ele>402.0</ele><time>2026-04-16T11:58:38.999Z</time></trkpt><trkpt lat="44.5288997" lon="8.8846377"><ele>402.0</ele><time>2026-04-16T11:58:40.998Z</time></trkpt><trkpt lat="44.5288782" lon="8.8845468"><ele>402.0</ele><time>2026-04-16T11:58:42.101Z</time></trkpt><trkpt lat="44.5287573" lon="8.8843998"><ele>402.0</ele><time>2026-04-16T11:58:43.999Z</time></trkpt><trkpt lat="44.5287073" lon="8.8843309"><ele>402.0</ele><time>2026-04-16T11:58:44.999Z</time></trkpt><trkpt lat="44.5286595" lon="8.8841885"><ele>404.20000000000005</ele><time>2026-04-16T11:58:46.999Z</time></trkpt><trkpt lat="44.5286258" lon="8.8841047"><ele>406.4</ele><time>2026-04-16T11:58:47.999Z</time></trkpt><trkpt lat="44.5285609" lon="8.8839871"><ele>408.6</ele><time>2026-04-16T11:58:48.999Z</time></trkpt><trkpt lat="44.528515" lon="8.8838905"><ele>410.79999999999995</ele><time>2026-04-16T11:58:50.103Z</time></trkpt><trkpt lat="44.5283794" lon="8.883787"><ele>413.0</ele><time>2026-04-16T11:58:51.999Z</time></trkpt><trkpt lat="44.5283072" lon="8.8837837"><ele>412.99999999999994</ele><time>2026-04-16T11:58:52.999Z</time></trkpt><trkpt lat="44.5282263" lon="8.8837806"><ele>413.0</ele><time>2026-04-16T11:58:53.999Z</time></trkpt><trkpt lat="44.5281495" lon="8.8837767"><ele>413.0</ele><time>2026-04-16T11:58:54.999Z</time></trkpt><trkpt lat="44.5280809" lon="8.8837625"><ele>413.0</ele><time>2026-04-16T11:58:55.999Z</time></trkpt><trkpt lat="44.5280056" lon="8.8837252"><ele>412.99999999999994</ele><time>2026-04-16T11:58:56.999Z</time></trkpt><trkpt lat="44.5279282" lon="8.8836807"><ele>413.0</ele><time>2026-04-16T11:58:57.999Z</time></trkpt><trkpt lat="44.5278548" lon="8.8836104"><ele>412.79999999999995</ele><time>2026-04-16T11:58:58.999Z</time></trkpt><trkpt lat="44.5277914" lon="8.8835344"><ele>412.6</ele><time>2026-04-16T11:58:59.999Z</time></trkpt><trkpt lat="44.5277339" lon="8.8834454"><ele>412.4</ele><time>2026-04-16T11:59:00.999Z</time></trkpt><trkpt lat="44.5276804" lon="8.8833336"><ele>412.20000000000005</ele><time>2026-04-16T11:59:01.999Z</time></trkpt><trkpt lat="44.5276309" lon="8.8832224"><ele>412.0</ele><time>2026-04-16T11:59:02.999Z</time></trkpt><trkpt lat="44.5275817" lon="8.8831104"><ele>412.00000000000006</ele><time>2026-04-16T11:59:03.999Z</time></trkpt><trkpt lat="44.5275489" lon="8.8830146"><ele>412.0</ele><time>2026-04-16T11:59:04.999Z</time></trkpt><trkpt lat="44.5274986" lon="8.8829415"><ele>412.0</ele><time>2026-04-16T11:59:06.106Z</time></trkpt><trkpt lat="44.5274736" lon="8.8828451"><ele>412.0</ele><time>2026-04-16T11:59:07.102Z</time></trkpt><trkpt lat="44.5275246" lon="8.8826832"><ele>412.00000000000006</ele><time>2026-04-16T11:59:08.999Z</time></trkpt><trkpt lat="44.5275807" lon="8.8826275"><ele>412.0</ele><time>2026-04-16T11:59:10.105Z</time></trkpt><trkpt lat="44.5277381" lon="8.8825561"><ele>411.50000000000006</ele><time>2026-04-16T11:59:11.999Z</time></trkpt><trkpt lat="44.5278314" lon="8.8825275"><ele>411.0</ele><time>2026-04-16T11:59:12.999Z</time></trkpt><trkpt lat="44.5279008" lon="8.8824978"><ele>410.5</ele><time>2026-04-16T11:59:13.999Z</time></trkpt><trkpt lat="44.527985" lon="8.8824711"><ele>410.0</ele><time>2026-04-16T11:59:14.999Z</time></trkpt><trkpt lat="44.5280727" lon="8.8824342"><ele>409.50000000000006</ele><time>2026-04-16T11:59:15.999Z</time></trkpt><trkpt lat="44.5281621" lon="8.8824019"><ele>409.0</ele><time>2026-04-16T11:59:16.999Z</time></trkpt><trkpt lat="44.5282548" lon="8.8823617"><ele>412.83333333333337</ele><time>2026-04-16T11:59:17.999Z</time></trkpt><trkpt lat="44.5283515" lon="8.8823072"><ele>416.6666666666667</ele><time>2026-04-16T11:59:18.999Z</time></trkpt><trkpt lat="44.5284431" lon="8.8822751"><ele>420.5</ele><time>2026-04-16T11:59:19.999Z</time></trkpt><trkpt lat="44.5285294" lon="8.8822455"><ele>424.33333333333337</ele><time>2026-04-16T11:59:20.999Z</time></trkpt><trkpt lat="44.5286031" lon="8.8822651"><ele>428.1666666666667</ele><time>2026-04-16T11:59:21.999Z</time></trkpt><trkpt lat="44.5286832" lon="8.8822628"><ele>432.0</ele><time>2026-04-16T11:59:22.999Z</time></trkpt><trkpt lat="44.5287714" lon="8.8822503"><ele>436.40000000000003</ele><time>2026-04-16T11:59:23.999Z</time></trkpt><trkpt lat="44.5288627" lon="8.8822277"><ele>440.80000000000007</ele><time>2026-04-16T11:59:24.999Z</time></trkpt><trkpt lat="44.5289474" lon="8.8821977"><ele>445.2</ele><time>2026-04-16T11:59:25.999Z</time></trkpt><trkpt lat="44.5290452" lon="8.8821181"><ele>449.6</ele><time>2026-04-16T11:59:26.999Z</time></trkpt><trkpt lat="44.5291352" lon="8.8820484"><ele>454.0</ele><time>2026-04-16T11:59:27.999Z</time></trkpt><trkpt lat="44.5292219" lon="8.8819926"><ele>454.00000000000006</ele><time>2026-04-16T11:59:28.999Z</time></trkpt><trkpt lat="44.529303" lon="8.8819298"><ele>454.0</ele><time>2026-04-16T11:59:29.999Z</time></trkpt><trkpt lat="44.5293816" lon="8.8818704"><ele>454.0</ele><time>2026-04-16T11:59:30.999Z</time></trkpt><trkpt lat="44.5294678" lon="8.8818063"><ele>454.0</ele><time>2026-04-16T11:59:31.999Z</time></trkpt><trkpt lat="44.529547" lon="8.8817529"><ele>454.00000000000006</ele><time>2026-04-16T11:59:32.999Z</time></trkpt><trkpt lat="44.52961" lon="8.8817012"><ele>454.0</ele><time>2026-04-16T11:59:33.999Z</time></trkpt><trkpt lat="44.5296604" lon="8.8816132"><ele>456.00000000000006</ele><time>2026-04-16T11:59:34.999Z</time></trkpt><trkpt lat="44.5296934" lon="8.8815099"><ele>458.0</ele><time>2026-04-16T11:59:35.999Z</time></trkpt><trkpt lat="44.5297014" lon="8.8813839"><ele>460.0</ele><time>2026-04-16T11:59:36.999Z</time></trkpt><trkpt lat="44.5296972" lon="8.8812871"><ele>462.0</ele><time>2026-04-16T11:59:37.999Z</time></trkpt><trkpt lat="44.5296879" lon="8.8811804"><ele>464.00000000000006</ele><time>2026-04-16T11:59:38.999Z</time></trkpt><trkpt lat="44.5296638" lon="8.8810806"><ele>466.0</ele><time>2026-04-16T11:59:39.999Z</time></trkpt><trkpt lat="44.5296454" lon="8.8809791"><ele>464.57142857142856</ele><time>2026-04-16T11:59:40.999Z</time></trkpt><trkpt lat="44.5296412" lon="8.8808894"><ele>463.1428571428571</ele><time>2026-04-16T11:59:41.999Z</time></trkpt><trkpt lat="44.5296502" lon="8.8807959"><ele>461.71428571428567</ele><time>2026-04-16T11:59:42.999Z</time></trkpt><trkpt lat="44.5296676" lon="8.8807039"><ele>460.2857142857143</ele><time>2026-04-16T11:59:43.999Z</time></trkpt><trkpt lat="44.5296796" lon="8.8805948"><ele>458.8571428571428</ele><time>2026-04-16T11:59:44.999Z</time></trkpt><trkpt lat="44.5296858" lon="8.880481"><ele>457.4285714285714</ele><time>2026-04-16T11:59:45.999Z</time></trkpt><trkpt lat="44.5296839" lon="8.8803634"><ele>456.0</ele><time>2026-04-16T11:59:46.999Z</time></trkpt><trkpt lat="44.5296791" lon="8.8802532"><ele>456.0</ele><time>2026-04-16T11:59:47.999Z</time></trkpt><trkpt lat="44.5296739" lon="8.8801525"><ele>456.0</ele><time>2026-04-16T11:59:48.999Z</time></trkpt><trkpt lat="44.5297288" lon="8.8799913"><ele>456.0</ele><time>2026-04-16T11:59:50.999Z</time></trkpt><trkpt lat="44.5298379" lon="8.879953"><ele>456.0</ele><time>2026-04-16T11:59:52.999Z</time></trkpt><trkpt lat="44.5299162" lon="8.8799513"><ele>456.0</ele><time>2026-04-16T11:59:53.999Z</time></trkpt><trkpt lat="44.5299968" lon="8.8799806"><ele>457.0</ele><time>2026-04-16T11:59:54.999Z</time></trkpt><trkpt lat="44.5300835" lon="8.879994"><ele>458.0</ele><time>2026-04-16T11:59:55.999Z</time></trkpt><trkpt lat="44.530171" lon="8.8800125"><ele>459.0</ele><time>2026-04-16T11:59:56.999Z</time></trkpt><trkpt lat="44.5302594" lon="8.880017"><ele>460.0</ele><time>2026-04-16T11:59:57.999Z</time></trkpt><trkpt lat="44.530346" lon="8.8800187"><ele>461.0</ele><time>2026-04-16T11:59:58.999Z</time></trkpt><trkpt lat="44.5304389" lon="8.8800174"><ele>462.0</ele><time>2026-04-16T11:59:59.999Z</time></trkpt><trkpt lat="44.5305237" lon="8.8800257"><ele>462.0</ele><time>2026-04-16T12:00:01.101Z</time></trkpt><trkpt lat="44.5306138" lon="8.880028"><ele>462.0</ele><time>2026-04-16T12:00:02.114Z</time></trkpt><trkpt lat="44.5307833" lon="8.8800227"><ele>462.0</ele><time>2026-04-16T12:00:03.999Z</time></trkpt><trkpt lat="44.5308715" lon="8.8800117"><ele>462.0</ele><time>2026-04-16T12:00:05.114Z</time></trkpt><trkpt lat="44.5310309" lon="8.8799797"><ele>462.0</ele><time>2026-04-16T12:00:07.128Z</time></trkpt><trkpt lat="44.531198" lon="8.8799407"><ele>462.0</ele><time>2026-04-16T12:00:08.999Z</time></trkpt><trkpt lat="44.5312834" lon="8.8799239"><ele>462.0</ele><time>2026-04-16T12:00:09.999Z</time></trkpt><trkpt lat="44.5314218" lon="8.8799208"><ele>462.0</ele><time>2026-04-16T12:00:11.999Z</time></trkpt><trkpt lat="44.531495" lon="8.8799563"><ele>462.8</ele><time>2026-04-16T12:00:12.999Z</time></trkpt><trkpt lat="44.5315479" lon="8.8800209"><ele>463.6</ele><time>2026-04-16T12:00:13.999Z</time></trkpt><trkpt lat="44.5315872" lon="8.8800906"><ele>464.40000000000003</ele><time>2026-04-16T12:00:15.107Z</time></trkpt><trkpt lat="44.5316029" lon="8.8802032"><ele>465.20000000000005</ele><time>2026-04-16T12:00:16.108Z</time></trkpt><trkpt lat="44.5316497" lon="8.8804218"><ele>466.0</ele><time>2026-04-16T12:00:17.999Z</time></trkpt><trkpt lat="44.5316891" lon="8.8805243"><ele>469.00000000000006</ele><time>2026-04-16T12:00:18.999Z</time></trkpt><trkpt lat="44.5317263" lon="8.8806229"><ele>472.0</ele><time>2026-04-16T12:00:19.999Z</time></trkpt><trkpt lat="44.5317635" lon="8.88071"><ele>475.0</ele><time>2026-04-16T12:00:20.999Z</time></trkpt><trkpt lat="44.5318104" lon="8.8807994"><ele>478.0</ele><time>2026-04-16T12:00:21.999Z</time></trkpt><trkpt lat="44.5318867" lon="8.8808933"><ele>481.00000000000006</ele><time>2026-04-16T12:00:22.999Z</time></trkpt><trkpt lat="44.5319509" lon="8.8809654"><ele>484.0</ele><time>2026-04-16T12:00:23.999Z</time></trkpt><trkpt lat="44.5320427" lon="8.881045"><ele>483.4</ele><time>2026-04-16T12:00:24.999Z</time></trkpt><trkpt lat="44.5321252" lon="8.881128"><ele>482.79999999999995</ele><time>2026-04-16T12:00:25.999Z</time></trkpt><trkpt lat="44.532206" lon="8.8812016"><ele>482.20000000000005</ele><time>2026-04-16T12:00:26.999Z</time></trkpt><trkpt lat="44.5322848" lon="8.8812619"><ele>481.6</ele><time>2026-04-16T12:00:27.999Z</time></trkpt><trkpt lat="44.5323769" lon="8.8813229"><ele>481.0</ele><time>2026-04-16T12:00:28.999Z</time></trkpt><trkpt lat="44.5324601" lon="8.8813939"><ele>481.0</ele><time>2026-04-16T12:00:29.999Z</time></trkpt><trkpt lat="44.5325409" lon="8.8814662"><ele>481.0</ele><time>2026-04-16T12:00:30.999Z</time></trkpt><trkpt lat="44.5326242" lon="8.8815434"><ele>481.0</ele><time>2026-04-16T12:00:31.999Z</time></trkpt><trkpt lat="44.5327075" lon="8.8816116"><ele>481.0</ele><time>2026-04-16T12:00:32.999Z</time></trkpt><trkpt lat="44.5327938" lon="8.8816751"><ele>481.0</ele><time>2026-04-16T12:00:33.999Z</time></trkpt><trkpt lat="44.5328831" lon="8.8817503"><ele>484.0</ele><time>2026-04-16T12:00:34.999Z</time></trkpt><trkpt lat="44.5329702" lon="8.8818141"><ele>487.0</ele><time>2026-04-16T12:00:35.999Z</time></trkpt><trkpt lat="44.5330462" lon="8.881887"><ele>490.0</ele><time>2026-04-16T12:00:36.999Z</time></trkpt><trkpt lat="44.5331137" lon="8.8819755"><ele>493.0</ele><time>2026-04-16T12:00:37.999Z</time></trkpt><trkpt lat="44.5331616" lon="8.8820717"><ele>496.0</ele><time>2026-04-16T12:00:38.999Z</time></trkpt><trkpt lat="44.5331891" lon="8.8821997"><ele>496.00000000000006</ele><time>2026-04-16T12:00:39.999Z</time></trkpt><trkpt lat="44.5332166" lon="8.8823194"><ele>496.0</ele><time>2026-04-16T12:00:40.999Z</time></trkpt><trkpt lat="44.5332407" lon="8.8824414"><ele>496.0</ele><time>2026-04-16T12:00:41.999Z</time></trkpt><trkpt lat="44.5332713" lon="8.8825655"><ele>496.0</ele><time>2026-04-16T12:00:42.999Z</time></trkpt><trkpt lat="44.5333306" lon="8.8826742"><ele>496.00000000000006</ele><time>2026-04-16T12:00:43.999Z</time></trkpt><trkpt lat="44.5333773" lon="8.8827551"><ele>496.0</ele><time>2026-04-16T12:00:44.999Z</time></trkpt><trkpt lat="44.5334378" lon="8.8828328"><ele>495.6</ele><time>2026-04-16T12:00:45.999Z</time></trkpt><trkpt lat="44.5335023" lon="8.8829191"><ele>495.20000000000005</ele><time>2026-04-16T12:00:46.999Z</time></trkpt><trkpt lat="44.5335675" lon="8.8830034"><ele>494.79999999999995</ele><time>2026-04-16T12:00:47.999Z</time></trkpt><trkpt lat="44.5336423" lon="8.8830792"><ele>494.4</ele><time>2026-04-16T12:00:48.999Z</time></trkpt><trkpt lat="44.5337178" lon="8.8831453"><ele>494.0</ele><time>2026-04-16T12:00:50.111Z</time></trkpt><trkpt lat="44.5338827" lon="8.8832585"><ele>493.99999999999994</ele><time>2026-04-16T12:00:51.999Z</time></trkpt><trkpt lat="44.5339502" lon="8.8833303"><ele>494.0</ele><time>2026-04-16T12:00:52.999Z</time></trkpt><trkpt lat="44.5340122" lon="8.8834132"><ele>494.0</ele><time>2026-04-16T12:00:53.999Z</time></trkpt><trkpt lat="44.5340723" lon="8.8835028"><ele>494.0</ele><time>2026-04-16T12:00:54.999Z</time></trkpt><trkpt lat="44.5341363" lon="8.8836024"><ele>493.99999999999994</ele><time>2026-04-16T12:00:56.122Z</time></trkpt><trkpt lat="44.5342038" lon="8.8836911"><ele>494.0</ele><time>2026-04-16T12:00:56.999Z</time></trkpt><trkpt lat="44.5342634" lon="8.883781"><ele>496.4</ele><time>2026-04-16T12:00:57.999Z</time></trkpt><trkpt lat="44.5343323" lon="8.8838663"><ele>498.79999999999995</ele><time>2026-04-16T12:00:58.999Z</time></trkpt><trkpt lat="44.5343947" lon="8.883945"><ele>501.20000000000005</ele><time>2026-04-16T12:01:00.107Z</time></trkpt><trkpt lat="44.534548" lon="8.8840971"><ele>503.6</ele><time>2026-04-16T12:01:01.999Z</time></trkpt><trkpt lat="44.5346211" lon="8.8841374"><ele>506.0</ele><time>2026-04-16T12:01:02.999Z</time></trkpt><trkpt lat="44.534722" lon="8.8841662"><ele>506.0</ele><time>2026-04-16T12:01:03.999Z</time></trkpt><trkpt lat="44.5348162" lon="8.8841725"><ele>506.0</ele><time>2026-04-16T12:01:05.12Z</time></trkpt><trkpt lat="44.5349142" lon="8.8841651"><ele>506.0</ele><time>2026-04-16T12:01:06.123Z</time></trkpt><trkpt lat="44.5350991" lon="8.8841338"><ele>506.0</ele><time>2026-04-16T12:01:07.999Z</time></trkpt><trkpt lat="44.5351837" lon="8.8841087"><ele>506.0</ele><time>2026-04-16T12:01:08.999Z</time></trkpt><trkpt lat="44.5352589" lon="8.8840742"><ele>506.0</ele><time>2026-04-16T12:01:10.105Z</time></trkpt><trkpt lat="44.5354319" lon="8.8840104"><ele>506.0</ele><time>2026-04-16T12:01:12.117Z</time></trkpt><trkpt lat="44.5355925" lon="8.8839522"><ele>506.0</ele><time>2026-04-16T12:01:13.999Z</time></trkpt><trkpt lat="44.53567" lon="8.8839212"><ele>506.4</ele><time>2026-04-16T12:01:14.999Z</time></trkpt><trkpt lat="44.5357551" lon="8.8838884"><ele>506.8</ele><time>2026-04-16T12:01:16.121Z</time></trkpt><trkpt lat="44.5359071" lon="8.8838345"><ele>507.19999999999993</ele><time>2026-04-16T12:01:17.999Z</time></trkpt><trkpt lat="44.5359761" lon="8.8838127"><ele>507.59999999999997</ele><time>2026-04-16T12:01:18.998Z</time></trkpt><trkpt lat="44.5360452" lon="8.8837821"><ele>508.0</ele><time>2026-04-16T12:01:19.999Z</time></trkpt><trkpt lat="44.5361088" lon="8.8837496"><ele>506.1666666666667</ele><time>2026-04-16T12:01:21.001Z</time></trkpt><trkpt lat="44.5362312" lon="8.883701"><ele>504.33333333333337</ele><time>2026-04-16T12:01:22.999Z</time></trkpt><trkpt lat="44.5362913" lon="8.8836684"><ele>502.5</ele><time>2026-04-16T12:01:23.999Z</time></trkpt><trkpt lat="44.5363531" lon="8.883651"><ele>500.66666666666663</ele><time>2026-04-16T12:01:24.999Z</time></trkpt><trkpt lat="44.5364271" lon="8.883635"><ele>498.8333333333333</ele><time>2026-04-16T12:01:25.999Z</time></trkpt><trkpt lat="44.5364924" lon="8.8836518"><ele>497.0</ele><time>2026-04-16T12:01:26.999Z</time></trkpt><trkpt lat="44.5365592" lon="8.883658"><ele>496.99999999999994</ele><time>2026-04-16T12:01:27.999Z</time></trkpt><trkpt lat="44.5366893" lon="8.8836561"><ele>497.0</ele><time>2026-04-16T12:01:29.999Z</time></trkpt><trkpt lat="44.5367724" lon="8.8836458"><ele>497.0</ele><time>2026-04-16T12:01:30.999Z</time></trkpt><trkpt lat="44.5368386" lon="8.8836532"><ele>497.0</ele><time>2026-04-16T12:01:31.999Z</time></trkpt><trkpt lat="44.5369135" lon="8.8836451"><ele>496.99999999999994</ele><time>2026-04-16T12:01:32.999Z</time></trkpt><trkpt lat="44.5370004" lon="8.8836157"><ele>497.0</ele><time>2026-04-16T12:01:33.999Z</time></trkpt><trkpt lat="44.5370757" lon="8.883578"><ele>497.66666666666663</ele><time>2026-04-16T12:01:34.999Z</time></trkpt><trkpt lat="44.5371495" lon="8.8835305"><ele>498.3333333333333</ele><time>2026-04-16T12:01:35.999Z</time></trkpt><trkpt lat="44.537225" lon="8.8834882"><ele>499.0</ele><time>2026-04-16T12:01:36.999Z</time></trkpt><trkpt lat="44.5372932" lon="8.8834432"><ele>499.66666666666663</ele><time>2026-04-16T12:01:37.999Z</time></trkpt><trkpt lat="44.5373843" lon="8.883399"><ele>500.3333333333333</ele><time>2026-04-16T12:01:38.999Z</time></trkpt><trkpt lat="44.5374634" lon="8.8833712"><ele>501.0</ele><time>2026-04-16T12:01:39.999Z</time></trkpt><trkpt lat="44.5375365" lon="8.8833432"><ele>501.0</ele><time>2026-04-16T12:01:40.999Z</time></trkpt><trkpt lat="44.5376168" lon="8.883326"><ele>501.0</ele><time>2026-04-16T12:01:41.999Z</time></trkpt><trkpt lat="44.5376907" lon="8.8832844"><ele>501.0</ele><time>2026-04-16T12:01:42.999Z</time></trkpt><trkpt lat="44.5377601" lon="8.8832566"><ele>501.0</ele><time>2026-04-16T12:01:43.999Z</time></trkpt><trkpt lat="44.5378299" lon="8.883228"><ele>501.0</ele><time>2026-04-16T12:01:44.999Z</time></trkpt><trkpt lat="44.5378997" lon="8.8832044"><ele>501.0</ele><time>2026-04-16T12:01:45.999Z</time></trkpt><trkpt lat="44.5379724" lon="8.8831791"><ele>502.5</ele><time>2026-04-16T12:01:46.999Z</time></trkpt><trkpt lat="44.5380505" lon="8.8831589"><ele>504.0</ele><time>2026-04-16T12:01:47.999Z</time></trkpt><trkpt lat="44.5381308" lon="8.8831435"><ele>505.5</ele><time>2026-04-16T12:01:48.999Z</time></trkpt><trkpt lat="44.5382681" lon="8.8831545"><ele>507.0</ele><time>2026-04-16T12:01:51.107Z</time></trkpt><trkpt lat="44.5384335" lon="8.883213"><ele>507.0</ele><time>2026-04-16T12:01:52.999Z</time></trkpt><trkpt lat="44.5384969" lon="8.8832493"><ele>507.0</ele><time>2026-04-16T12:01:53.999Z</time></trkpt><trkpt lat="44.538561" lon="8.8832628"><ele>507.0</ele><time>2026-04-16T12:01:54.999Z</time></trkpt><trkpt lat="44.5387013" lon="8.8832571"><ele>507.0</ele><time>2026-04-16T12:01:56.999Z</time></trkpt><trkpt lat="44.5387739" lon="8.8832496"><ele>507.0</ele><time>2026-04-16T12:01:57.999Z</time></trkpt><trkpt lat="44.5388489" lon="8.8832413"><ele>507.0</ele><time>2026-04-16T12:01:58.999Z</time></trkpt><trkpt lat="44.5389178" lon="8.8832164"><ele>508.6666666666667</ele><time>2026-04-16T12:01:59.999Z</time></trkpt><trkpt lat="44.5389867" lon="8.8831684"><ele>510.33333333333337</ele><time>2026-04-16T12:02:00.999Z</time></trkpt><trkpt lat="44.5390413" lon="8.8830865"><ele>512.0</ele><time>2026-04-16T12:02:01.999Z</time></trkpt><trkpt lat="44.5390688" lon="8.882973"><ele>513.6666666666667</ele><time>2026-04-16T12:02:02.999Z</time></trkpt><trkpt lat="44.5390701" lon="8.8828547"><ele>515.3333333333334</ele><time>2026-04-16T12:02:03.999Z</time></trkpt><trkpt lat="44.5390329" lon="8.882736"><ele>517.0</ele><time>2026-04-16T12:02:04.999Z</time></trkpt><trkpt lat="44.5389786" lon="8.8826181"><ele>519.6</ele><time>2026-04-16T12:02:05.999Z</time></trkpt><trkpt lat="44.5389487" lon="8.8824954"><ele>522.2</ele><time>2026-04-16T12:02:06.999Z</time></trkpt><trkpt lat="44.5389562" lon="8.8823669"><ele>524.8</ele><time>2026-04-16T12:02:07.999Z</time></trkpt><trkpt lat="44.5389777" lon="8.8822499"><ele>527.4</ele><time>2026-04-16T12:02:08.999Z</time></trkpt><trkpt lat="44.5390302" lon="8.8821495"><ele>530.0</ele><time>2026-04-16T12:02:10.114Z</time></trkpt><trkpt lat="44.5391405" lon="8.8819429"><ele>530.0</ele><time>2026-04-16T12:02:11.999Z</time></trkpt><trkpt lat="44.5391923" lon="8.8818468"><ele>530.0</ele><time>2026-04-16T12:02:12.999Z</time></trkpt><trkpt lat="44.5392417" lon="8.8817548"><ele>530.0</ele><time>2026-04-16T12:02:13.999Z</time></trkpt><trkpt lat="44.5392821" lon="8.8816584"><ele>530.0</ele><time>2026-04-16T12:02:14.999Z</time></trkpt><trkpt lat="44.5392982" lon="8.8815506"><ele>530.0</ele><time>2026-04-16T12:02:15.999Z</time></trkpt><trkpt lat="44.5392801" lon="8.8813952"><ele>530.0</ele><time>2026-04-16T12:02:16.999Z</time></trkpt><trkpt lat="44.5392325" lon="8.8813017"><ele>529.75</ele><time>2026-04-16T12:02:17.999Z</time></trkpt><trkpt lat="44.5391712" lon="8.8812082"><ele>529.5</ele><time>2026-04-16T12:02:18.999Z</time></trkpt><trkpt lat="44.5391045" lon="8.881131"><ele>529.25</ele><time>2026-04-16T12:02:19.999Z</time></trkpt><trkpt lat="44.5390367" lon="8.881047"><ele>529.0</ele><time>2026-04-16T12:02:21.114Z</time></trkpt><trkpt lat="44.5389141" lon="8.8808551"><ele>527.1666666666667</ele><time>2026-04-16T12:02:22.999Z</time></trkpt><trkpt lat="44.5388576" lon="8.8807537"><ele>525.3333333333334</ele><time>2026-04-16T12:02:23.999Z</time></trkpt><trkpt lat="44.5388046" lon="8.8806446"><ele>523.5</ele><time>2026-04-16T12:02:24.999Z</time></trkpt><trkpt lat="44.5387585" lon="8.880533"><ele>521.6666666666666</ele><time>2026-04-16T12:02:25.999Z</time></trkpt><trkpt lat="44.5387262" lon="8.8804193"><ele>519.8333333333333</ele><time>2026-04-16T12:02:26.999Z</time></trkpt><trkpt lat="44.5387132" lon="8.880316"><ele>518.0</ele><time>2026-04-16T12:02:27.999Z</time></trkpt><trkpt lat="44.5387193" lon="8.8802243"><ele>523.6</ele><time>2026-04-16T12:02:28.999Z</time></trkpt><trkpt lat="44.5387871" lon="8.8800758"><ele>529.1999999999999</ele><time>2026-04-16T12:02:30.999Z</time></trkpt><trkpt lat="44.5388402" lon="8.8800238"><ele>534.8</ele><time>2026-04-16T12:02:32.1Z</time></trkpt><trkpt lat="44.5389787" lon="8.8799594"><ele>540.4</ele><time>2026-04-16T12:02:33.999Z</time></trkpt><trkpt lat="44.5390484" lon="8.8799398"><ele>546.0</ele><time>2026-04-16T12:02:34.999Z</time></trkpt><trkpt lat="44.5391399" lon="8.8799406"><ele>546.0</ele><time>2026-04-16T12:02:36.103Z</time></trkpt><trkpt lat="44.5393099" lon="8.8799745"><ele>546.0</ele><time>2026-04-16T12:02:37.999Z</time></trkpt><trkpt lat="44.5394042" lon="8.8800136"><ele>546.0</ele><time>2026-04-16T12:02:38.999Z</time></trkpt><trkpt lat="44.5394884" lon="8.8800664"><ele>546.0</ele><time>2026-04-16T12:02:39.999Z</time></trkpt><trkpt lat="44.5395717" lon="8.880114"><ele>547.3333333333334</ele><time>2026-04-16T12:02:40.999Z</time></trkpt><trkpt lat="44.5396425" lon="8.880171"><ele>548.6666666666666</ele><time>2026-04-16T12:02:41.999Z</time></trkpt><trkpt lat="44.5397025" lon="8.8802824"><ele>550.0</ele><time>2026-04-16T12:02:42.999Z</time></trkpt><trkpt lat="44.5397499" lon="8.8803931"><ele>551.3333333333333</ele><time>2026-04-16T12:02:43.999Z</time></trkpt><trkpt lat="44.5397944" lon="8.8804979"><ele>552.6666666666666</ele><time>2026-04-16T12:02:44.999Z</time></trkpt><trkpt lat="44.5398458" lon="8.8805966"><ele>554.0</ele><time>2026-04-16T12:02:45.999Z</time></trkpt><trkpt lat="44.5399093" lon="8.8806892"><ele>554.0</ele><time>2026-04-16T12:02:46.999Z</time></trkpt><trkpt lat="44.5400101" lon="8.8807655"><ele>554.0</ele><time>2026-04-16T12:02:47.999Z</time></trkpt><trkpt lat="44.5401018" lon="8.8808193"><ele>554.0</ele><time>2026-04-16T12:02:48.999Z</time></trkpt><trkpt lat="44.5401976" lon="8.8808587"><ele>554.0</ele><time>2026-04-16T12:02:49.999Z</time></trkpt><trkpt lat="44.5402818" lon="8.880878"><ele>554.0</ele><time>2026-04-16T12:02:50.999Z</time></trkpt><trkpt lat="44.5403523" lon="8.8809129"><ele>558.5</ele><time>2026-04-16T12:02:51.999Z</time></trkpt><trkpt lat="44.5404363" lon="8.8810235"><ele>563.0</ele><time>2026-04-16T12:02:54.102Z</time></trkpt><trkpt lat="44.5404455" lon="8.8812295"><ele>567.5</ele><time>2026-04-16T12:02:56.102Z</time></trkpt><trkpt lat="44.540439" lon="8.8814558"><ele>572.0</ele><time>2026-04-16T12:02:57.999Z</time></trkpt><trkpt lat="44.5404395" lon="8.8815766"><ele>572.0</ele><time>2026-04-16T12:02:58.999Z</time></trkpt><trkpt lat="44.5404404" lon="8.8817"><ele>572.0</ele><time>2026-04-16T12:02:59.999Z</time></trkpt><trkpt lat="44.5404311" lon="8.8818434"><ele>572.0</ele><time>2026-04-16T12:03:00.999Z</time></trkpt><trkpt lat="44.5404305" lon="8.881964"><ele>572.0</ele><time>2026-04-16T12:03:01.999Z</time></trkpt><trkpt lat="44.5404326" lon="8.8820839"><ele>572.0</ele><time>2026-04-16T12:03:02.999Z</time></trkpt><trkpt lat="44.5404515" lon="8.8821894"><ele>572.0</ele><time>2026-04-16T12:03:04.11Z</time></trkpt><trkpt lat="44.5405696" lon="8.8822888"><ele>570.8333333333333</ele><time>2026-04-16T12:03:05.999Z</time></trkpt><trkpt lat="44.5406444" lon="8.8823158"><ele>569.6666666666666</ele><time>2026-04-16T12:03:06.999Z</time></trkpt><trkpt lat="44.5407324" lon="8.8822739"><ele>568.5</ele><time>2026-04-16T12:03:07.999Z</time></trkpt><trkpt lat="44.5408134" lon="8.8822441"><ele>567.3333333333334</ele><time>2026-04-16T12:03:08.999Z</time></trkpt><trkpt lat="44.540903" lon="8.882182"><ele>566.1666666666667</ele><time>2026-04-16T12:03:10.101Z</time></trkpt><trkpt lat="44.5409862" lon="8.8821165"><ele>565.0</ele><time>2026-04-16T12:03:11.117Z</time></trkpt><trkpt lat="44.5411542" lon="8.8819751"><ele>567.8333333333334</ele><time>2026-04-16T12:03:12.999Z</time></trkpt><trkpt lat="44.5412386" lon="8.8818752"><ele>570.6666666666667</ele><time>2026-04-16T12:03:13.999Z</time></trkpt><trkpt lat="44.5412995" lon="8.8818184"><ele>573.5</ele><time>2026-04-16T12:03:14.998Z</time></trkpt><trkpt lat="44.5413652" lon="8.8817744"><ele>576.3333333333334</ele><time>2026-04-16T12:03:15.999Z</time></trkpt><trkpt lat="44.5414395" lon="8.8817269"><ele>579.1666666666666</ele><time>2026-04-16T12:03:16.999Z</time></trkpt><trkpt lat="44.5415209" lon="8.8817171"><ele>582.0</ele><time>2026-04-16T12:03:17.999Z</time></trkpt><trkpt lat="44.5415932" lon="8.8817018"><ele>582.0</ele><time>2026-04-16T12:03:18.999Z</time></trkpt><trkpt lat="44.5416566" lon="8.8817959"><ele>582.0</ele><time>2026-04-16T12:03:20.999Z</time></trkpt><trkpt lat="44.541687" lon="8.8820017"><ele>582.0</ele><time>2026-04-16T12:03:22.999Z</time></trkpt><trkpt lat="44.5416905" lon="8.882112"><ele>582.0</ele><time>2026-04-16T12:03:23.999Z</time></trkpt><trkpt lat="44.5417153" lon="8.8822017"><ele>582.0</ele><time>2026-04-16T12:03:24.999Z</time></trkpt><trkpt lat="44.5417109" lon="8.8822952"><ele>582.0</ele><time>2026-04-16T12:03:25.999Z</time></trkpt><trkpt lat="44.5417203" lon="8.8823885"><ele>582.0</ele><time>2026-04-16T12:03:26.999Z</time></trkpt><trkpt lat="44.541739" lon="8.8824986"><ele>582.0</ele><time>2026-04-16T12:03:27.999Z</time></trkpt><trkpt lat="44.5418448" lon="8.882577"><ele>582.0</ele><time>2026-04-16T12:03:29.999Z</time></trkpt><trkpt lat="44.5419157" lon="8.8826051"><ele>582.0</ele><time>2026-04-16T12:03:30.999Z</time></trkpt><trkpt lat="44.5420008" lon="8.8826096"><ele>582.0</ele><time>2026-04-16T12:03:31.999Z</time></trkpt><trkpt lat="44.5420915" lon="8.8825966"><ele>584.0</ele><time>2026-04-16T12:03:32.999Z</time></trkpt><trkpt lat="44.5421729" lon="8.8825731"><ele>586.0</ele><time>2026-04-16T12:03:33.999Z</time></trkpt><trkpt lat="44.5422475" lon="8.8825255"><ele>588.0</ele><time>2026-04-16T12:03:34.999Z</time></trkpt><trkpt lat="44.5423211" lon="8.8824729"><ele>590.0</ele><time>2026-04-16T12:03:35.999Z</time></trkpt><trkpt lat="44.5423907" lon="8.8824274"><ele>592.0</ele><time>2026-04-16T12:03:36.999Z</time></trkpt><trkpt lat="44.5424704" lon="8.8824268"><ele>594.0</ele><time>2026-04-16T12:03:37.999Z</time></trkpt><trkpt lat="44.5425501" lon="8.8824223"><ele>594.0</ele><time>2026-04-16T12:03:38.999Z</time></trkpt><trkpt lat="44.5426424" lon="8.8824519"><ele>594.0</ele><time>2026-04-16T12:03:39.999Z</time></trkpt><trkpt lat="44.5427338" lon="8.8824795"><ele>594.0</ele><time>2026-04-16T12:03:40.999Z</time></trkpt><trkpt lat="44.5428175" lon="8.8825139"><ele>594.0</ele><time>2026-04-16T12:03:41.999Z</time></trkpt><trkpt lat="44.5429003" lon="8.8825621"><ele>594.0</ele><time>2026-04-16T12:03:42.999Z</time></trkpt><trkpt lat="44.5429774" lon="8.8826266"><ele>592.6</ele><time>2026-04-16T12:03:43.999Z</time></trkpt><trkpt lat="44.5430554" lon="8.8826798"><ele>591.2</ele><time>2026-04-16T12:03:44.999Z</time></trkpt><trkpt lat="44.5431589" lon="8.882718"><ele>589.8000000000001</ele><time>2026-04-16T12:03:45.999Z</time></trkpt><trkpt lat="44.5432435" lon="8.8827465"><ele>588.4</ele><time>2026-04-16T12:03:46.999Z</time></trkpt><trkpt lat="44.5433301" lon="8.8827728"><ele>587.0</ele><time>2026-04-16T12:03:47.999Z</time></trkpt><trkpt lat="44.5434274" lon="8.8827922"><ele>587.0</ele><time>2026-04-16T12:03:48.999Z</time></trkpt><trkpt lat="44.5435126" lon="8.8827988"><ele>587.0</ele><time>2026-04-16T12:03:49.999Z</time></trkpt><trkpt lat="44.5436042" lon="8.8828018"><ele>587.0</ele><time>2026-04-16T12:03:50.999Z</time></trkpt><trkpt lat="44.5437268" lon="8.8827958"><ele>587.0</ele><time>2026-04-16T12:03:52.999Z</time></trkpt><trkpt lat="44.5437956" lon="8.8827086"><ele>587.0</ele><time>2026-04-16T12:03:54.999Z</time></trkpt><trkpt lat="44.5437968" lon="8.8826176"><ele>590.6666666666666</ele><time>2026-04-16T12:03:55.999Z</time></trkpt><trkpt lat="44.5437315" lon="8.8824889"><ele>594.3333333333333</ele><time>2026-04-16T12:03:57.999Z</time></trkpt><trkpt lat="44.54368" lon="8.8824275"><ele>598.0</ele><time>2026-04-16T12:03:58.999Z</time></trkpt><trkpt lat="44.543624" lon="8.8823852"><ele>601.6666666666666</ele><time>2026-04-16T12:03:59.999Z</time></trkpt><trkpt lat="44.5435612" lon="8.8823472"><ele>605.3333333333334</ele><time>2026-04-16T12:04:00.999Z</time></trkpt><trkpt lat="44.5435166" lon="8.8822795"><ele>609.0</ele><time>2026-04-16T12:04:01.999Z</time></trkpt><trkpt lat="44.5434636" lon="8.8822025"><ele>609.0</ele><time>2026-04-16T12:04:02.999Z</time></trkpt><trkpt lat="44.5434246" lon="8.8820968"><ele>609.0</ele><time>2026-04-16T12:04:03.999Z</time></trkpt><trkpt lat="44.5433886" lon="8.8819913"><ele>609.0</ele><time>2026-04-16T12:04:05.104Z</time></trkpt><trkpt lat="44.5432966" lon="8.881783"><ele>609.0</ele><time>2026-04-16T12:04:07.103Z</time></trkpt><trkpt lat="44.5431822" lon="8.8815893"><ele>608.5</ele><time>2026-04-16T12:04:08.999Z</time></trkpt><trkpt lat="44.5431048" lon="8.8815124"><ele>608.0</ele><time>2026-04-16T12:04:09.999Z</time></trkpt><trkpt lat="44.5429064" lon="8.8813916"><ele>607.5</ele><time>2026-04-16T12:04:12.999Z</time></trkpt><trkpt lat="44.5428322" lon="8.8813277"><ele>607.0</ele><time>2026-04-16T12:04:13.999Z</time></trkpt><trkpt lat="44.5427741" lon="8.8812513"><ele>607.0</ele><time>2026-04-16T12:04:14.999Z</time></trkpt><trkpt lat="44.5427194" lon="8.8811822"><ele>607.0</ele><time>2026-04-16T12:04:15.999Z</time></trkpt><trkpt lat="44.5426774" lon="8.8811043"><ele>607.0</ele><time>2026-04-16T12:04:16.999Z</time></trkpt><trkpt lat="44.5426223" lon="8.8810124"><ele>607.0</ele><time>2026-04-16T12:04:17.999Z</time></trkpt><trkpt lat="44.5425859" lon="8.8808636"><ele>607.0</ele><time>2026-04-16T12:04:18.999Z</time></trkpt><trkpt lat="44.5425674" lon="8.8807655"><ele>607.0</ele><time>2026-04-16T12:04:20.109Z</time></trkpt><trkpt lat="44.5425429" lon="8.880549"><ele>610.2</ele><time>2026-04-16T12:04:21.999Z</time></trkpt><trkpt lat="44.542518" lon="8.8804539"><ele>613.4000000000001</ele><time>2026-04-16T12:04:22.999Z</time></trkpt><trkpt lat="44.542525" lon="8.8803133"><ele>616.5999999999999</ele><time>2026-04-16T12:04:24.999Z</time></trkpt><trkpt lat="44.5425928" lon="8.8802365"><ele>619.8</ele><time>2026-04-16T12:04:26.999Z</time></trkpt><trkpt lat="44.5426915" lon="8.880329"><ele>623.0</ele><time>2026-04-16T12:04:28.999Z</time></trkpt><trkpt lat="44.5427335" lon="8.8804277"><ele>623.0</ele><time>2026-04-16T12:04:30.999Z</time></trkpt><trkpt lat="44.5427558" lon="8.8805356"><ele>623.0</ele><time>2026-04-16T12:04:32.999Z</time></trkpt><trkpt lat="44.5428495" lon="8.8807016"><ele>623.0</ele><time>2026-04-16T12:04:34.999Z</time></trkpt><trkpt lat="44.542889" lon="8.8808352"><ele>623.0</ele><time>2026-04-16T12:04:35.999Z</time></trkpt><trkpt lat="44.5429747" lon="8.8808927"><ele>623.0</ele><time>2026-04-16T12:04:36.999Z</time></trkpt><trkpt lat="44.5430621" lon="8.8809138"><ele>624.1999999999999</ele><time>2026-04-16T12:04:37.999Z</time></trkpt><trkpt lat="44.5431521" lon="8.8809441"><ele>625.4</ele><time>2026-04-16T12:04:38.999Z</time></trkpt><trkpt lat="44.5432474" lon="8.8809886"><ele>626.5999999999999</ele><time>2026-04-16T12:04:39.999Z</time></trkpt><trkpt lat="44.5433604" lon="8.8810347"><ele>627.8</ele><time>2026-04-16T12:04:40.999Z</time></trkpt><trkpt lat="44.5434724" lon="8.8810794"><ele>629.0</ele><time>2026-04-16T12:04:41.999Z</time></trkpt><trkpt lat="44.5435787" lon="8.8811204"><ele>629.0</ele><time>2026-04-16T12:04:42.999Z</time></trkpt><trkpt lat="44.5436809" lon="8.8811456"><ele>629.0</ele><time>2026-04-16T12:04:43.999Z</time></trkpt><trkpt lat="44.5437823" lon="8.8811896"><ele>629.0</ele><time>2026-04-16T12:04:44.999Z</time></trkpt><trkpt lat="44.5438883" lon="8.8812376"><ele>629.0</ele><time>2026-04-16T12:04:46.598Z</time></trkpt><trkpt lat="44.5440691" lon="8.8813278"><ele>633.0</ele><time>2026-04-16T12:04:47.999Z</time></trkpt><trkpt lat="44.5441718" lon="8.8813719"><ele>637.0</ele><time>2026-04-16T12:04:48.999Z</time></trkpt><trkpt lat="44.5442672" lon="8.8814265"><ele>641.0</ele><time>2026-04-16T12:04:49.999Z</time></trkpt><trkpt lat="44.5443682" lon="8.8814745"><ele>645.0</ele><time>2026-04-16T12:04:50.999Z</time></trkpt><trkpt lat="44.5444751" lon="8.8814945"><ele>649.0</ele><time>2026-04-16T12:04:51.999Z</time></trkpt><trkpt lat="44.5445924" lon="8.8815369"><ele>652.25</ele><time>2026-04-16T12:04:52.999Z</time></trkpt><trkpt lat="44.5446911" lon="8.8815915"><ele>655.5</ele><time>2026-04-16T12:04:53.999Z</time></trkpt><trkpt lat="44.5447995" lon="8.8816454"><ele>658.75</ele><time>2026-04-16T12:04:55.105Z</time></trkpt><trkpt lat="44.5450151" lon="8.8817506"><ele>662.0</ele><time>2026-04-16T12:04:56.999Z</time></trkpt><trkpt lat="44.5451047" lon="8.8818045"><ele>659.2</ele><time>2026-04-16T12:04:57.999Z</time></trkpt><trkpt lat="44.5452143" lon="8.8818503"><ele>656.4000000000001</ele><time>2026-04-16T12:04:58.999Z</time></trkpt><trkpt lat="44.545323" lon="8.8818731"><ele>653.5999999999999</ele><time>2026-04-16T12:04:59.999Z</time></trkpt><trkpt lat="44.545423" lon="8.8819142"><ele>650.8</ele><time>2026-04-16T12:05:00.999Z</time></trkpt><trkpt lat="44.5455236" lon="8.8819472"><ele>648.0</ele><time>2026-04-16T12:05:01.999Z</time></trkpt><trkpt lat="44.5456313" lon="8.8819535"><ele>648.0</ele><time>2026-04-16T12:05:02.999Z</time></trkpt><trkpt lat="44.5457232" lon="8.8819265"><ele>648.0</ele><time>2026-04-16T12:05:03.999Z</time></trkpt><trkpt lat="44.5458406" lon="8.8819025"><ele>648.0</ele><time>2026-04-16T12:05:04.999Z</time></trkpt><trkpt lat="44.5459244" lon="8.8818757"><ele>648.0</ele><time>2026-04-16T12:05:05.999Z</time></trkpt><trkpt lat="44.5460186" lon="8.8818511"><ele>648.0</ele><time>2026-04-16T12:05:06.999Z</time></trkpt><trkpt lat="44.5461069" lon="8.8818396"><ele>648.0</ele><time>2026-04-16T12:05:07.999Z</time></trkpt><trkpt lat="44.5461972" lon="8.8818254"><ele>648.0</ele><time>2026-04-16T12:05:08.999Z</time></trkpt><trkpt lat="44.5462965" lon="8.8818109"><ele>648.0</ele><time>2026-04-16T12:05:09.999Z</time></trkpt><trkpt lat="44.546388" lon="8.8818071"><ele>648.0</ele><time>2026-04-16T12:05:10.999Z</time></trkpt><trkpt lat="44.5464757" lon="8.8818384"><ele>648.0</ele><time>2026-04-16T12:05:11.999Z</time></trkpt><trkpt lat="44.546582" lon="8.8818874"><ele>650.4</ele><time>2026-04-16T12:05:12.999Z</time></trkpt><trkpt lat="44.5466856" lon="8.881922"><ele>652.8</ele><time>2026-04-16T12:05:13.999Z</time></trkpt><trkpt lat="44.5467803" lon="8.8819579"><ele>655.2</ele><time>2026-04-16T12:05:14.999Z</time></trkpt><trkpt lat="44.5468724" lon="8.8820044"><ele>657.6</ele><time>2026-04-16T12:05:15.999Z</time></trkpt><trkpt lat="44.5469671" lon="8.8820547"><ele>660.0</ele><time>2026-04-16T12:05:17.104Z</time></trkpt><trkpt lat="44.547135" lon="8.8821937"><ele>665.0</ele><time>2026-04-16T12:05:18.999Z</time></trkpt><trkpt lat="44.54721" lon="8.8822499"><ele>670.0</ele><time>2026-04-16T12:05:19.999Z</time></trkpt><trkpt lat="44.5472962" lon="8.8822889"><ele>675.0</ele><time>2026-04-16T12:05:20.999Z</time></trkpt><trkpt lat="44.5473844" lon="8.8823389"><ele>680.0</ele><time>2026-04-16T12:05:21.999Z</time></trkpt><trkpt lat="44.547477" lon="8.8823713"><ele>685.0</ele><time>2026-04-16T12:05:22.999Z</time></trkpt><trkpt lat="44.5475669" lon="8.8823996"><ele>685.0</ele><time>2026-04-16T12:05:23.999Z</time></trkpt><trkpt lat="44.5476621" lon="8.8824384"><ele>685.0</ele><time>2026-04-16T12:05:25.105Z</time></trkpt><trkpt lat="44.5477899" lon="8.88257"><ele>685.0</ele><time>2026-04-16T12:05:26.999Z</time></trkpt><trkpt lat="44.5478444" lon="8.8826689"><ele>685.0</ele><time>2026-04-16T12:05:27.999Z</time></trkpt><trkpt lat="44.5479098" lon="8.8827706"><ele>685.0</ele><time>2026-04-16T12:05:28.999Z</time></trkpt><trkpt lat="44.5479811" lon="8.882863"><ele>685.6</ele><time>2026-04-16T12:05:30.101Z</time></trkpt><trkpt lat="44.5481366" lon="8.8830059"><ele>686.2</ele><time>2026-04-16T12:05:31.999Z</time></trkpt><trkpt lat="44.5482289" lon="8.8830416"><ele>686.8</ele><time>2026-04-16T12:05:32.999Z</time></trkpt><trkpt lat="44.5483167" lon="8.8830548"><ele>687.4</ele><time>2026-04-16T12:05:33.999Z</time></trkpt><trkpt lat="44.5483897" lon="8.8830423"><ele>688.0</ele><time>2026-04-16T12:05:34.999Z</time></trkpt><trkpt lat="44.5484609" lon="8.8830165"><ele>688.0</ele><time>2026-04-16T12:05:35.999Z</time></trkpt><trkpt lat="44.5485181" lon="8.8829733"><ele>688.0</ele><time>2026-04-16T12:05:36.999Z</time></trkpt><trkpt lat="44.5485785" lon="8.8829275"><ele>688.0</ele><time>2026-04-16T12:05:37.999Z</time></trkpt><trkpt lat="44.5486367" lon="8.8828484"><ele>688.0</ele><time>2026-04-16T12:05:38.999Z</time></trkpt><trkpt lat="44.54869" lon="8.8828"><ele>688.0</ele><time>2026-04-16T12:05:39.999Z</time></trkpt><trkpt lat="44.5487576" lon="8.8827234"><ele>688.0</ele><time>2026-04-16T12:05:40.999Z</time></trkpt><trkpt lat="44.5488525" lon="8.8827329"><ele>692.8</ele><time>2026-04-16T12:05:42.999Z</time></trkpt><trkpt lat="44.5489151" lon="8.8828324"><ele>697.5999999999999</ele><time>2026-04-16T12:05:44.999Z</time></trkpt><trkpt lat="44.5489317" lon="8.8829553"><ele>702.4000000000001</ele><time>2026-04-16T12:05:46.999Z</time></trkpt><trkpt lat="44.5489116" lon="8.8830756"><ele>707.2</ele><time>2026-04-16T12:05:47.999Z</time></trkpt><trkpt lat="44.5489114" lon="8.8833199"><ele>712.0</ele><time>2026-04-16T12:05:49.999Z</time></trkpt><trkpt lat="44.5489441" lon="8.8834261"><ele>709.2</ele><time>2026-04-16T12:05:50.999Z</time></trkpt><trkpt lat="44.5489583" lon="8.8836234"><ele>706.4000000000001</ele><time>2026-04-16T12:05:51.999Z</time></trkpt><trkpt lat="44.5490054" lon="8.8837079"><ele>703.5999999999999</ele><time>2026-04-16T12:05:52.999Z</time></trkpt><trkpt lat="44.5490863" lon="8.8837193"><ele>700.8</ele><time>2026-04-16T12:05:53.999Z</time></trkpt><trkpt lat="44.5491706" lon="8.8837571"><ele>698.0</ele><time>2026-04-16T12:05:54.999Z</time></trkpt><trkpt lat="44.5492629" lon="8.8837729"><ele>698.0</ele><time>2026-04-16T12:05:55.999Z</time></trkpt><trkpt lat="44.5493715" lon="8.8837901"><ele>698.0</ele><time>2026-04-16T12:05:56.999Z</time></trkpt><trkpt lat="44.5494664" lon="8.8838165"><ele>698.0</ele><time>2026-04-16T12:05:57.999Z</time></trkpt><trkpt lat="44.549557" lon="8.8838308"><ele>698.0</ele><time>2026-04-16T12:05:58.999Z</time></trkpt><trkpt lat="44.5496563" lon="8.8838281"><ele>698.0</ele><time>2026-04-16T12:05:59.999Z</time></trkpt><trkpt lat="44.5497368" lon="8.8837692"><ele>700.8</ele><time>2026-04-16T12:06:00.999Z</time></trkpt><trkpt lat="44.5498209" lon="8.8836974"><ele>703.5999999999999</ele><time>2026-04-16T12:06:01.999Z</time></trkpt><trkpt lat="44.5498964" lon="8.8836128"><ele>706.4000000000001</ele><time>2026-04-16T12:06:02.999Z</time></trkpt><trkpt lat="44.5499627" lon="8.8835283"><ele>709.2</ele><time>2026-04-16T12:06:03.999Z</time></trkpt><trkpt lat="44.550026" lon="8.883435"><ele>712.0</ele><time>2026-04-16T12:06:04.999Z</time></trkpt><trkpt lat="44.5500975" lon="8.8833491"><ele>713.8333333333334</ele><time>2026-04-16T12:06:05.998Z</time></trkpt><trkpt lat="44.5501712" lon="8.8832657"><ele>715.6666666666667</ele><time>2026-04-16T12:06:06.999Z</time></trkpt><trkpt lat="44.5502536" lon="8.8832035"><ele>717.5</ele><time>2026-04-16T12:06:07.999Z</time></trkpt><trkpt lat="44.5503284" lon="8.8831435"><ele>719.3333333333334</ele><time>2026-04-16T12:06:08.999Z</time></trkpt><trkpt lat="44.5503945" lon="8.8830698"><ele>721.1666666666666</ele><time>2026-04-16T12:06:09.999Z</time></trkpt><trkpt lat="44.5504618" lon="8.8830175"><ele>723.0</ele><time>2026-04-16T12:06:10.999Z</time></trkpt><trkpt lat="44.5505775" lon="8.8829534"><ele>726.0</ele><time>2026-04-16T12:06:11.999Z</time></trkpt><trkpt lat="44.5506801" lon="8.8829119"><ele>729.0</ele><time>2026-04-16T12:06:12.999Z</time></trkpt><trkpt lat="44.5507633" lon="8.8828673"><ele>732.0</ele><time>2026-04-16T12:06:13.999Z</time></trkpt><trkpt lat="44.5508622" lon="8.8828165"><ele>735.0</ele><time>2026-04-16T12:06:14.999Z</time></trkpt><trkpt lat="44.5509419" lon="8.88276"><ele>738.0</ele><time>2026-04-16T12:06:15.999Z</time></trkpt><trkpt lat="44.5510172" lon="8.8826971"><ele>738.0</ele><time>2026-04-16T12:06:16.999Z</time></trkpt><trkpt lat="44.5510827" lon="8.8826403"><ele>738.0</ele><time>2026-04-16T12:06:17.999Z</time></trkpt><trkpt lat="44.5511451" lon="8.8825897"><ele>738.0</ele><time>2026-04-16T12:06:18.999Z</time></trkpt><trkpt lat="44.5512579" lon="8.8825556"><ele>738.0</ele><time>2026-04-16T12:06:20.999Z</time></trkpt><trkpt lat="44.5513264" lon="8.8826012"><ele>738.0</ele><time>2026-04-16T12:06:22.999Z</time></trkpt><trkpt lat="44.5513273" lon="8.8827641"><ele>738.0</ele><time>2026-04-16T12:06:24.999Z</time></trkpt><trkpt lat="44.5512728" lon="8.8828619"><ele>738.0</ele><time>2026-04-16T12:06:25.999Z</time></trkpt><trkpt lat="44.5512488" lon="8.8829555"><ele>738.0</ele><time>2026-04-16T12:06:26.999Z</time></trkpt><trkpt lat="44.5511827" lon="8.8830631"><ele>738.0</ele><time>2026-04-16T12:06:27.999Z</time></trkpt><trkpt lat="44.5511223" lon="8.8831471"><ele>738.0</ele><time>2026-04-16T12:06:28.999Z</time></trkpt><trkpt lat="44.5510442" lon="8.8832338"><ele>738.0</ele><time>2026-04-16T12:06:29.999Z</time></trkpt><trkpt lat="44.5509886" lon="8.8833443"><ele>740.25</ele><time>2026-04-16T12:06:30.999Z</time></trkpt><trkpt lat="44.5509417" lon="8.8834403"><ele>742.5</ele><time>2026-04-16T12:06:31.999Z</time></trkpt><trkpt lat="44.5509068" lon="8.883561"><ele>744.75</ele><time>2026-04-16T12:06:32.999Z</time></trkpt><trkpt lat="44.5508846" lon="8.8836774"><ele>747.0</ele><time>2026-04-16T12:06:33.999Z</time></trkpt><trkpt lat="44.5508506" lon="8.8839527"><ele>747.0</ele><time>2026-04-16T12:06:35.999Z</time></trkpt><trkpt lat="44.5508128" lon="8.8840804"><ele>747.0</ele><time>2026-04-16T12:06:36.999Z</time></trkpt><trkpt lat="44.5507756" lon="8.884196"><ele>747.0</ele><time>2026-04-16T12:06:37.999Z</time></trkpt><trkpt lat="44.5507424" lon="8.8843209"><ele>747.0</ele><time>2026-04-16T12:06:38.999Z</time></trkpt><trkpt lat="44.5507192" lon="8.8844385"><ele>747.0</ele><time>2026-04-16T12:06:39.999Z</time></trkpt><trkpt lat="44.5507341" lon="8.8845594"><ele>747.5</ele><time>2026-04-16T12:06:41.107Z</time></trkpt><trkpt lat="44.5507538" lon="8.8848271"><ele>748.0</ele><time>2026-04-16T12:06:42.999Z</time></trkpt><trkpt lat="44.5507652" lon="8.8849377"><ele>748.5</ele><time>2026-04-16T12:06:43.999Z</time></trkpt><trkpt lat="44.5507817" lon="8.8850519"><ele>749.0</ele><time>2026-04-16T12:06:44.999Z</time></trkpt><trkpt lat="44.55085" lon="8.8852364"><ele>749.8000000000001</ele><time>2026-04-16T12:06:47.114Z</time></trkpt><trkpt lat="44.5509874" lon="8.8854143"><ele>750.6</ele><time>2026-04-16T12:06:48.999Z</time></trkpt><trkpt lat="44.5510657" lon="8.8854769"><ele>751.4</ele><time>2026-04-16T12:06:49.999Z</time></trkpt><trkpt lat="44.551131" lon="8.8855436"><ele>752.2</ele><time>2026-04-16T12:06:50.999Z</time></trkpt><trkpt lat="44.551184" lon="8.8856265"><ele>753.0</ele><time>2026-04-16T12:06:51.999Z</time></trkpt><trkpt lat="44.5512032" lon="8.8857446"><ele>757.5</ele><time>2026-04-16T12:06:52.999Z</time></trkpt><trkpt lat="44.5512113" lon="8.8858671"><ele>762.0</ele><time>2026-04-16T12:06:54.999Z</time></trkpt><trkpt lat="44.5510751" lon="8.8860151"><ele>766.5</ele><time>2026-04-16T12:06:55.999Z</time></trkpt><trkpt lat="44.5509879" lon="8.8860836"><ele>771.0</ele><time>2026-04-16T12:06:56.999Z</time></trkpt><trkpt lat="44.5509073" lon="8.8861674"><ele>771.0</ele><time>2026-04-16T12:06:57.999Z</time></trkpt><trkpt lat="44.5508273" lon="8.8862563"><ele>771.0</ele><time>2026-04-16T12:06:58.999Z</time></trkpt><trkpt lat="44.5507583" lon="8.8863383"><ele>771.0</ele><time>2026-04-16T12:06:59.999Z</time></trkpt><trkpt lat="44.5506849" lon="8.8864087"><ele>771.0</ele><time>2026-04-16T12:07:00.999Z</time></trkpt><trkpt lat="44.5506187" lon="8.8865127"><ele>771.0</ele><time>2026-04-16T12:07:01.999Z</time></trkpt><trkpt lat="44.5505645" lon="8.8866059"><ele>771.0</ele><time>2026-04-16T12:07:02.999Z</time></trkpt><trkpt lat="44.5505172" lon="8.8867071"><ele>771.0</ele><time>2026-04-16T12:07:03.999Z</time></trkpt><trkpt lat="44.5504754" lon="8.8868144"><ele>771.0</ele><time>2026-04-16T12:07:04.998Z</time></trkpt><trkpt lat="44.5504729" lon="8.8869455"><ele>771.0</ele><time>2026-04-16T12:07:05.999Z</time></trkpt><trkpt lat="44.5504755" lon="8.8870642"><ele>771.0</ele><time>2026-04-16T12:07:06.999Z</time></trkpt><trkpt lat="44.5504752" lon="8.8871726"><ele>771.0</ele><time>2026-04-16T12:07:07.999Z</time></trkpt><trkpt lat="44.5504896" lon="8.8873293"><ele>772.4</ele><time>2026-04-16T12:07:09.999Z</time></trkpt><trkpt lat="44.5504935" lon="8.8874607"><ele>773.8</ele><time>2026-04-16T12:07:11.999Z</time></trkpt><trkpt lat="44.5504767" lon="8.8875464"><ele>775.1999999999999</ele><time>2026-04-16T12:07:13.999Z</time></trkpt><trkpt lat="44.5505442" lon="8.8876608"><ele>776.5999999999999</ele><time>2026-04-16T12:10:33.999Z</time></trkpt><trkpt lat="44.5506248" lon="8.8877644"><ele>778.0</ele><time>2026-04-16T12:10:35.999Z</time></trkpt><trkpt lat="44.5507283" lon="8.8878224"><ele>778.8333333333333</ele><time>2026-04-16T12:10:37.999Z</time></trkpt><trkpt lat="44.5508479" lon="8.8878602"><ele>779.6666666666666</ele><time>2026-04-16T12:10:39.999Z</time></trkpt><trkpt lat="44.550917" lon="8.8878549"><ele>780.5</ele><time>2026-04-16T12:10:40.999Z</time></trkpt><trkpt lat="44.5509876" lon="8.887835"><ele>781.3333333333333</ele><time>2026-04-16T12:10:41.999Z</time></trkpt><trkpt lat="44.5510518" lon="8.8878104"><ele>782.1666666666666</ele><time>2026-04-16T12:10:42.999Z</time></trkpt><trkpt lat="44.551126" lon="8.8877777"><ele>783.0</ele><time>2026-04-16T12:10:43.999Z</time></trkpt><trkpt lat="44.5511907" lon="8.8877403"><ele>780.1666666666666</ele><time>2026-04-16T12:10:44.999Z</time></trkpt><trkpt lat="44.5512705" lon="8.8876954"><ele>777.3333333333334</ele><time>2026-04-16T12:10:45.999Z</time></trkpt><trkpt lat="44.5513393" lon="8.8876486"><ele>774.5</ele><time>2026-04-16T12:10:46.999Z</time></trkpt><trkpt lat="44.551416" lon="8.8875916"><ele>771.6666666666667</ele><time>2026-04-16T12:10:47.999Z</time></trkpt><trkpt lat="44.5514875" lon="8.8875218"><ele>768.8333333333334</ele><time>2026-04-16T12:10:48.999Z</time></trkpt><trkpt lat="44.5515724" lon="8.8874515"><ele>766.0</ele><time>2026-04-16T12:10:49.999Z</time></trkpt><trkpt lat="44.551647" lon="8.8873749"><ele>766.0</ele><time>2026-04-16T12:10:50.999Z</time></trkpt><trkpt lat="44.5517216" lon="8.8872933"><ele>766.0</ele><time>2026-04-16T12:10:51.999Z</time></trkpt><trkpt lat="44.5517899" lon="8.8872042"><ele>766.0</ele><time>2026-04-16T12:10:52.999Z</time></trkpt><trkpt lat="44.5518454" lon="8.8871021"><ele>766.0</ele><time>2026-04-16T12:10:53.999Z</time></trkpt><trkpt lat="44.5519082" lon="8.886995"><ele>766.0</ele><time>2026-04-16T12:10:54.999Z</time></trkpt><trkpt lat="44.5519591" lon="8.8868792"><ele>766.0</ele><time>2026-04-16T12:10:55.999Z</time></trkpt><trkpt lat="44.5520177" lon="8.8867687"><ele>766.0</ele><time>2026-04-16T12:10:56.999Z</time></trkpt><trkpt lat="44.5520782" lon="8.886659"><ele>766.0</ele><time>2026-04-16T12:10:57.999Z</time></trkpt><trkpt lat="44.5521491" lon="8.8865515"><ele>766.0</ele><time>2026-04-16T12:10:58.999Z</time></trkpt><trkpt lat="44.552205" lon="8.8864535"><ele>766.0</ele><time>2026-04-16T12:10:59.998Z</time></trkpt><trkpt lat="44.5522496" lon="8.8863416"><ele>765.8333333333334</ele><time>2026-04-16T12:11:00.999Z</time></trkpt><trkpt lat="44.5522805" lon="8.8862174"><ele>765.6666666666667</ele><time>2026-04-16T12:11:01.999Z</time></trkpt><trkpt lat="44.5523168" lon="8.8860985"><ele>765.5</ele><time>2026-04-16T12:11:02.999Z</time></trkpt><trkpt lat="44.5523493" lon="8.8859807"><ele>765.3333333333334</ele><time>2026-04-16T12:11:03.999Z</time></trkpt><trkpt lat="44.5523756" lon="8.8858667"><ele>765.1666666666666</ele><time>2026-04-16T12:11:04.999Z</time></trkpt><trkpt lat="44.5524" lon="8.8857667"><ele>765.0</ele><time>2026-04-16T12:11:05.999Z</time></trkpt><trkpt lat="44.5524136" lon="8.8856751"><ele>765.0</ele><time>2026-04-16T12:11:07.104Z</time></trkpt><trkpt lat="44.552462" lon="8.8855446"><ele>765.0</ele><time>2026-04-16T12:11:08.999Z</time></trkpt><trkpt lat="44.5525871" lon="8.8856679"><ele>765.0</ele><time>2026-04-16T12:11:11.999Z</time></trkpt><trkpt lat="44.5526644" lon="8.8857254"><ele>765.0</ele><time>2026-04-16T12:11:13.999Z</time></trkpt><trkpt lat="44.5527679" lon="8.8858038"><ele>765.0</ele><time>2026-04-16T12:11:15.999Z</time></trkpt><trkpt lat="44.5527884" lon="8.8859282"><ele>765.0</ele><time>2026-04-16T12:11:17.117Z</time></trkpt><trkpt lat="44.5529576" lon="8.8860889"><ele>765.0</ele><time>2026-04-16T12:11:18.999Z</time></trkpt><trkpt lat="44.5530124" lon="8.8861863"><ele>765.0</ele><time>2026-04-16T12:11:19.999Z</time></trkpt><trkpt lat="44.5531109" lon="8.8862344"><ele>762.4</ele><time>2026-04-16T12:11:21.106Z</time></trkpt><trkpt lat="44.5532547" lon="8.8862953"><ele>759.8</ele><time>2026-04-16T12:11:22.999Z</time></trkpt><trkpt lat="44.5533301" lon="8.8863514"><ele>757.2</ele><time>2026-04-16T12:11:23.999Z</time></trkpt><trkpt lat="44.553406" lon="8.886408"><ele>754.6</ele><time>2026-04-16T12:11:24.999Z</time></trkpt><trkpt lat="44.5534202" lon="8.8865315"><ele>752.0</ele><time>2026-04-16T12:11:26.999Z</time></trkpt><trkpt lat="44.5534342" lon="8.886649"><ele>752.0</ele><time>2026-04-16T12:11:28.999Z</time></trkpt><trkpt lat="44.5534894" lon="8.8867326"><ele>752.0</ele><time>2026-04-16T12:11:30.999Z</time></trkpt><trkpt lat="44.5535054" lon="8.8869904"><ele>752.0</ele><time>2026-04-16T12:11:31.999Z</time></trkpt><trkpt lat="44.5535353" lon="8.887103"><ele>752.0</ele><time>2026-04-16T12:11:32.999Z</time></trkpt><trkpt lat="44.5535566" lon="8.8871953"><ele>752.0</ele><time>2026-04-16T12:11:33.999Z</time></trkpt><trkpt lat="44.5536312" lon="8.88728"><ele>748.3333333333333</ele><time>2026-04-16T12:11:34.999Z</time></trkpt><trkpt lat="44.5537212" lon="8.8873295"><ele>744.6666666666666</ele><time>2026-04-16T12:11:35.999Z</time></trkpt><trkpt lat="44.5538098" lon="8.8873927"><ele>741.0</ele><time>2026-04-16T12:11:36.999Z</time></trkpt><trkpt lat="44.5538849" lon="8.8874422"><ele>737.3333333333334</ele><time>2026-04-16T12:11:37.999Z</time></trkpt><trkpt lat="44.5539727" lon="8.8874275"><ele>733.6666666666667</ele><time>2026-04-16T12:11:38.999Z</time></trkpt><trkpt lat="44.5540496" lon="8.8874071"><ele>730.0</ele><time>2026-04-16T12:11:39.999Z</time></trkpt><trkpt lat="44.5541406" lon="8.8873593"><ele>730.0</ele><time>2026-04-16T12:11:40.999Z</time></trkpt><trkpt lat="44.5542099" lon="8.8873006"><ele>730.0</ele><time>2026-04-16T12:11:41.999Z</time></trkpt><trkpt lat="44.554274" lon="8.8872274"><ele>730.0</ele><time>2026-04-16T12:11:42.999Z</time></trkpt><trkpt lat="44.5543377" lon="8.8871537"><ele>730.0</ele><time>2026-04-16T12:11:43.999Z</time></trkpt><trkpt lat="44.5544031" lon="8.8870893"><ele>730.0</ele><time>2026-04-16T12:11:44.999Z</time></trkpt><trkpt lat="44.5544615" lon="8.88702"><ele>730.0</ele><time>2026-04-16T12:11:45.999Z</time></trkpt><trkpt lat="44.5545434" lon="8.8870491"><ele>726.4</ele><time>2026-04-16T12:11:46.999Z</time></trkpt><trkpt lat="44.554612" lon="8.8870777"><ele>722.8</ele><time>2026-04-16T12:11:47.999Z</time></trkpt><trkpt lat="44.5546918" lon="8.8871463"><ele>719.2</ele><time>2026-04-16T12:11:48.999Z</time></trkpt><trkpt lat="44.5547794" lon="8.8872222"><ele>715.6</ele><time>2026-04-16T12:11:49.999Z</time></trkpt><trkpt lat="44.5548714" lon="8.8872868"><ele>712.0</ele><time>2026-04-16T12:11:50.999Z</time></trkpt><trkpt lat="44.5549626" lon="8.8873253"><ele>712.0</ele><time>2026-04-16T12:11:51.999Z</time></trkpt><trkpt lat="44.5550766" lon="8.8873326"><ele>712.0</ele><time>2026-04-16T12:11:52.999Z</time></trkpt><trkpt lat="44.5551834" lon="8.8872994"><ele>712.0</ele><time>2026-04-16T12:11:53.999Z</time></trkpt><trkpt lat="44.5552628" lon="8.8872311"><ele>712.0</ele><time>2026-04-16T12:11:54.999Z</time></trkpt><trkpt lat="44.5553383" lon="8.887144"><ele>712.0</ele><time>2026-04-16T12:11:55.999Z</time></trkpt><trkpt lat="44.5554101" lon="8.8870442"><ele>712.6</ele><time>2026-04-16T12:11:56.999Z</time></trkpt><trkpt lat="44.5554773" lon="8.8869293"><ele>713.2</ele><time>2026-04-16T12:11:57.999Z</time></trkpt><trkpt lat="44.5555435" lon="8.8868188"><ele>713.8</ele><time>2026-04-16T12:11:58.999Z</time></trkpt><trkpt lat="44.555612" lon="8.8867374"><ele>714.4</ele><time>2026-04-16T12:11:59.999Z</time></trkpt><trkpt lat="44.5556797" lon="8.8866545"><ele>715.0</ele><time>2026-04-16T12:12:00.999Z</time></trkpt><trkpt lat="44.5557529" lon="8.8865984"><ele>715.0</ele><time>2026-04-16T12:12:01.999Z</time></trkpt><trkpt lat="44.555818" lon="8.8866032"><ele>715.0</ele><time>2026-04-16T12:12:02.999Z</time></trkpt><trkpt lat="44.5559013" lon="8.886612"><ele>715.0</ele><time>2026-04-16T12:12:03.999Z</time></trkpt><trkpt lat="44.5559801" lon="8.8866413"><ele>715.0</ele><time>2026-04-16T12:12:04.999Z</time></trkpt><trkpt lat="44.5560706" lon="8.8866964"><ele>715.0</ele><time>2026-04-16T12:12:05.999Z</time></trkpt><trkpt lat="44.5561734" lon="8.8867457"><ele>715.0</ele><time>2026-04-16T12:12:06.999Z</time></trkpt><trkpt lat="44.5562827" lon="8.886778"><ele>706.3333333333334</ele><time>2026-04-16T12:12:07.999Z</time></trkpt><trkpt lat="44.5564019" lon="8.8868154"><ele>697.6666666666666</ele><time>2026-04-16T12:12:08.999Z</time></trkpt><trkpt lat="44.556516" lon="8.8868406"><ele>689.0</ele><time>2026-04-16T12:12:10.109Z</time></trkpt><trkpt lat="44.556753" lon="8.8869218"><ele>689.0</ele><time>2026-04-16T12:12:11.999Z</time></trkpt><trkpt lat="44.5568742" lon="8.8869652"><ele>689.0</ele><time>2026-04-16T12:12:12.999Z</time></trkpt><trkpt lat="44.5569942" lon="8.8870208"><ele>689.0</ele><time>2026-04-16T12:12:13.999Z</time></trkpt><trkpt lat="44.5571152" lon="8.8870792"><ele>689.0</ele><time>2026-04-16T12:12:15.102Z</time></trkpt><trkpt lat="44.5572161" lon="8.8871292"><ele>688.2</ele><time>2026-04-16T12:12:16.102Z</time></trkpt><trkpt lat="44.5573721" lon="8.8872218"><ele>687.4000000000001</ele><time>2026-04-16T12:12:17.999Z</time></trkpt><trkpt lat="44.5574474" lon="8.8872422"><ele>686.6</ele><time>2026-04-16T12:12:18.999Z</time></trkpt><trkpt lat="44.5575302" lon="8.8872376"><ele>685.8</ele><time>2026-04-16T12:12:19.999Z</time></trkpt><trkpt lat="44.5575987" lon="8.8871829"><ele>685.0</ele><time>2026-04-16T12:12:21.103Z</time></trkpt><trkpt lat="44.5576732" lon="8.8869982"><ele>685.0</ele><time>2026-04-16T12:12:22.999Z</time></trkpt><trkpt lat="44.5576776" lon="8.8868776"><ele>685.0</ele><time>2026-04-16T12:12:23.999Z</time></trkpt><trkpt lat="44.5576635" lon="8.8867717"><ele>685.0</ele><time>2026-04-16T12:12:25.102Z</time></trkpt><trkpt lat="44.5575914" lon="8.8865799"><ele>685.0</ele><time>2026-04-16T12:12:26.999Z</time></trkpt><trkpt lat="44.5575306" lon="8.8865067"><ele>685.0</ele><time>2026-04-16T12:12:27.999Z</time></trkpt><trkpt lat="44.5574642" lon="8.8864474"><ele>687.0</ele><time>2026-04-16T12:12:28.999Z</time></trkpt><trkpt lat="44.5574037" lon="8.8864044"><ele>689.0</ele><time>2026-04-16T12:12:29.999Z</time></trkpt><trkpt lat="44.557354" lon="8.8862262"><ele>691.0</ele><time>2026-04-16T12:12:32.999Z</time></trkpt><trkpt lat="44.5574315" lon="8.8861635"><ele>693.0</ele><time>2026-04-16T12:12:34.999Z</time></trkpt><trkpt lat="44.5575555" lon="8.88617"><ele>695.0</ele><time>2026-04-16T12:12:36.999Z</time></trkpt><trkpt lat="44.5576228" lon="8.8861838"><ele>695.0</ele><time>2026-04-16T12:12:37.999Z</time></trkpt><trkpt lat="44.5576942" lon="8.8862341"><ele>695.0</ele><time>2026-04-16T12:12:38.999Z</time></trkpt><trkpt lat="44.5577617" lon="8.8862916"><ele>695.0</ele><time>2026-04-16T12:12:39.999Z</time></trkpt><trkpt lat="44.5578239" lon="8.8863576"><ele>695.0</ele><time>2026-04-16T12:12:40.999Z</time></trkpt><trkpt lat="44.5578819" lon="8.8864365"><ele>695.0</ele><time>2026-04-16T12:12:41.999Z</time></trkpt><trkpt lat="44.557931" lon="8.8865178"><ele>695.0</ele><time>2026-04-16T12:12:42.999Z</time></trkpt><trkpt lat="44.5579771" lon="8.8866081"><ele>694.8333333333333</ele><time>2026-04-16T12:12:43.999Z</time></trkpt><trkpt lat="44.5580129" lon="8.8867317"><ele>694.6666666666666</ele><time>2026-04-16T12:12:44.999Z</time></trkpt><trkpt lat="44.5580494" lon="8.8868337"><ele>694.5</ele><time>2026-04-16T12:12:45.999Z</time></trkpt><trkpt lat="44.5580912" lon="8.88694"><ele>694.3333333333334</ele><time>2026-04-16T12:12:46.999Z</time></trkpt><trkpt lat="44.5581382" lon="8.8870306"><ele>694.1666666666667</ele><time>2026-04-16T12:12:47.999Z</time></trkpt><trkpt lat="44.5581945" lon="8.887082"><ele>694.0</ele><time>2026-04-16T12:12:48.999Z</time></trkpt><trkpt lat="44.5582615" lon="8.8871532"><ele>692.1666666666667</ele><time>2026-04-16T12:12:49.999Z</time></trkpt><trkpt lat="44.5583457" lon="8.8872062"><ele>690.3333333333334</ele><time>2026-04-16T12:12:50.999Z</time></trkpt><trkpt lat="44.5584063" lon="8.8872357"><ele>688.5</ele><time>2026-04-16T12:12:51.999Z</time></trkpt><trkpt lat="44.5584747" lon="8.887271"><ele>686.6666666666666</ele><time>2026-04-16T12:12:52.999Z</time></trkpt><trkpt lat="44.5585344" lon="8.8873133"><ele>684.8333333333333</ele><time>2026-04-16T12:12:53.999Z</time></trkpt><trkpt lat="44.5585848" lon="8.8873686"><ele>683.0</ele><time>2026-04-16T12:12:54.999Z</time></trkpt><trkpt lat="44.5586368" lon="8.8875555"><ele>681.0</ele><time>2026-04-16T12:12:56.999Z</time></trkpt><trkpt lat="44.5586532" lon="8.887675"><ele>679.0</ele><time>2026-04-16T12:12:57.999Z</time></trkpt><trkpt lat="44.5586852" lon="8.8877977"><ele>677.0</ele><time>2026-04-16T12:12:58.999Z</time></trkpt><trkpt lat="44.5587333" lon="8.8879033"><ele>675.0</ele><time>2026-04-16T12:12:59.999Z</time></trkpt><trkpt lat="44.5588026" lon="8.8879938"><ele>673.0</ele><time>2026-04-16T12:13:00.999Z</time></trkpt><trkpt lat="44.5588876" lon="8.8880653"><ele>672.4</ele><time>2026-04-16T12:13:01.999Z</time></trkpt><trkpt lat="44.5589882" lon="8.8881169"><ele>671.8</ele><time>2026-04-16T12:13:02.999Z</time></trkpt><trkpt lat="44.5590721" lon="8.8881846"><ele>671.2</ele><time>2026-04-16T12:13:03.999Z</time></trkpt><trkpt lat="44.559175" lon="8.8881694"><ele>670.6</ele><time>2026-04-16T12:13:04.999Z</time></trkpt><trkpt lat="44.5592663" lon="8.8881183"><ele>670.0</ele><time>2026-04-16T12:13:05.999Z</time></trkpt><trkpt lat="44.5593458" lon="8.888043"><ele>670.0</ele><time>2026-04-16T12:13:06.999Z</time></trkpt><trkpt lat="44.5594295" lon="8.8879643"><ele>670.0</ele><time>2026-04-16T12:13:07.999Z</time></trkpt><trkpt lat="44.5595199" lon="8.8878873"><ele>670.0</ele><time>2026-04-16T12:13:08.999Z</time></trkpt><trkpt lat="44.5596214" lon="8.887849"><ele>670.0</ele><time>2026-04-16T12:13:09.999Z</time></trkpt><trkpt lat="44.5597358" lon="8.887813"><ele>670.0</ele><time>2026-04-16T12:13:10.999Z</time></trkpt><trkpt lat="44.5598494" lon="8.8877938"><ele>668.5</ele><time>2026-04-16T12:13:11.999Z</time></trkpt><trkpt lat="44.5599684" lon="8.8877836"><ele>667.0</ele><time>2026-04-16T12:13:12.999Z</time></trkpt><trkpt lat="44.5600856" lon="8.8877856"><ele>665.5</ele><time>2026-04-16T12:13:13.999Z</time></trkpt><trkpt lat="44.5601978" lon="8.8877918"><ele>664.0</ele><time>2026-04-16T12:13:14.999Z</time></trkpt><trkpt lat="44.5603166" lon="8.8877937"><ele>662.5</ele><time>2026-04-16T12:13:15.999Z</time></trkpt><trkpt lat="44.5604527" lon="8.8877979"><ele>661.0</ele><time>2026-04-16T12:13:16.999Z</time></trkpt><trkpt lat="44.5605867" lon="8.8878127"><ele>659.5</ele><time>2026-04-16T12:13:17.999Z</time></trkpt><trkpt lat="44.5607234" lon="8.8878434"><ele>658.0</ele><time>2026-04-16T12:13:18.999Z</time></trkpt><trkpt lat="44.5608576" lon="8.8878799"><ele>658.0</ele><time>2026-04-16T12:13:19.999Z</time></trkpt><trkpt lat="44.560972" lon="8.8879051"><ele>658.0</ele><time>2026-04-16T12:13:20.999Z</time></trkpt><trkpt lat="44.5611009" lon="8.8879232"><ele>658.0</ele><time>2026-04-16T12:13:21.999Z</time></trkpt><trkpt lat="44.5612231" lon="8.8879312"><ele>658.0</ele><time>2026-04-16T12:13:22.999Z</time></trkpt><trkpt lat="44.5613467" lon="8.8879166"><ele>659.25</ele><time>2026-04-16T12:13:23.999Z</time></trkpt><trkpt lat="44.5614633" lon="8.8878987"><ele>660.5</ele><time>2026-04-16T12:13:24.999Z</time></trkpt><trkpt lat="44.5615828" lon="8.8878818"><ele>661.75</ele><time>2026-04-16T12:13:25.999Z</time></trkpt><trkpt lat="44.5616962" lon="8.88786"><ele>663.0</ele><time>2026-04-16T12:13:26.999Z</time></trkpt><trkpt lat="44.5618148" lon="8.887846"><ele>663.0</ele><time>2026-04-16T12:13:27.999Z</time></trkpt><trkpt lat="44.561935" lon="8.8878382"><ele>663.0</ele><time>2026-04-16T12:13:28.999Z</time></trkpt><trkpt lat="44.5620531" lon="8.8878376"><ele>663.0</ele><time>2026-04-16T12:13:29.999Z</time></trkpt><trkpt lat="44.5621668" lon="8.887836"><ele>663.0</ele><time>2026-04-16T12:13:30.999Z</time></trkpt><trkpt lat="44.5622806" lon="8.8878453"><ele>662.5</ele><time>2026-04-16T12:13:31.999Z</time></trkpt><trkpt lat="44.5623838" lon="8.8878651"><ele>662.0</ele><time>2026-04-16T12:13:32.999Z</time></trkpt><trkpt lat="44.562485" lon="8.8878592"><ele>661.5</ele><time>2026-04-16T12:13:33.999Z</time></trkpt><trkpt lat="44.5625854" lon="8.8878248"><ele>661.0</ele><time>2026-04-16T12:13:35.103Z</time></trkpt><trkpt lat="44.5627822" lon="8.8877315"><ele>660.5</ele><time>2026-04-16T12:13:36.999Z</time></trkpt><trkpt lat="44.5628827" lon="8.8876838"><ele>660.0</ele><time>2026-04-16T12:13:37.999Z</time></trkpt><trkpt lat="44.5629834" lon="8.8876406"><ele>659.5</ele><time>2026-04-16T12:13:38.999Z</time></trkpt><trkpt lat="44.5630898" lon="8.887609"><ele>659.0</ele><time>2026-04-16T12:13:40.102Z</time></trkpt><trkpt lat="44.5633145" lon="8.8876262"><ele>659.0</ele><time>2026-04-16T12:13:41.999Z</time></trkpt><trkpt lat="44.56342" lon="8.8876189"><ele>659.0</ele><time>2026-04-16T12:13:42.999Z</time></trkpt><trkpt lat="44.5635186" lon="8.8876017"><ele>659.0</ele><time>2026-04-16T12:13:43.999Z</time></trkpt><trkpt lat="44.5636238" lon="8.8875497"><ele>659.0</ele><time>2026-04-16T12:13:44.999Z</time></trkpt><trkpt lat="44.5637249" lon="8.887477"><ele>659.0</ele><time>2026-04-16T12:13:45.999Z</time></trkpt><trkpt lat="44.5638094" lon="8.8873958"><ele>655.8000000000001</ele><time>2026-04-16T12:13:46.999Z</time></trkpt><trkpt lat="44.5639047" lon="8.8873188"><ele>652.6</ele><time>2026-04-16T12:13:47.999Z</time></trkpt><trkpt lat="44.5639973" lon="8.8872333"><ele>649.4</ele><time>2026-04-16T12:13:48.999Z</time></trkpt><trkpt lat="44.5640895" lon="8.8871517"><ele>646.2</ele><time>2026-04-16T12:13:49.999Z</time></trkpt><trkpt lat="44.5641821" lon="8.887087"><ele>643.0</ele><time>2026-04-16T12:13:50.999Z</time></trkpt><trkpt lat="44.5642669" lon="8.8870456"><ele>643.0</ele><time>2026-04-16T12:13:51.999Z</time></trkpt><trkpt lat="44.5643773" lon="8.8870271"><ele>643.0</ele><time>2026-04-16T12:13:52.999Z</time></trkpt><trkpt lat="44.5644848" lon="8.887029"><ele>643.0</ele><time>2026-04-16T12:13:53.999Z</time></trkpt><trkpt lat="44.5645938" lon="8.8870626"><ele>643.0</ele><time>2026-04-16T12:13:54.999Z</time></trkpt><trkpt lat="44.5647044" lon="8.8871109"><ele>643.0</ele><time>2026-04-16T12:13:55.999Z</time></trkpt><trkpt lat="44.5648147" lon="8.887168"><ele>642.6666666666667</ele><time>2026-04-16T12:13:57.106Z</time></trkpt><trkpt lat="44.5650343" lon="8.887259"><ele>642.3333333333334</ele><time>2026-04-16T12:13:58.999Z</time></trkpt><trkpt lat="44.5651426" lon="8.8872925"><ele>642.0</ele><time>2026-04-16T12:13:59.999Z</time></trkpt><trkpt lat="44.5652575" lon="8.8873006"><ele>640.25</ele><time>2026-04-16T12:14:00.999Z</time></trkpt><trkpt lat="44.5653657" lon="8.8873144"><ele>638.5</ele><time>2026-04-16T12:14:01.999Z</time></trkpt><trkpt lat="44.5654867" lon="8.8873296"><ele>636.75</ele><time>2026-04-16T12:14:02.999Z</time></trkpt><trkpt lat="44.5656028" lon="8.8873447"><ele>635.0</ele><time>2026-04-16T12:14:03.999Z</time></trkpt><trkpt lat="44.5657273" lon="8.8873612"><ele>635.0</ele><time>2026-04-16T12:14:04.999Z</time></trkpt><trkpt lat="44.5658564" lon="8.8873674"><ele>635.0</ele><time>2026-04-16T12:14:05.999Z</time></trkpt><trkpt lat="44.5659745" lon="8.8873507"><ele>635.0</ele><time>2026-04-16T12:14:06.999Z</time></trkpt><trkpt lat="44.5660953" lon="8.8873195"><ele>635.0</ele><time>2026-04-16T12:14:07.999Z</time></trkpt><trkpt lat="44.566198" lon="8.8872826"><ele>632.0</ele><time>2026-04-16T12:14:08.999Z</time></trkpt><trkpt lat="44.5663071" lon="8.8872753"><ele>629.0</ele><time>2026-04-16T12:14:09.999Z</time></trkpt><trkpt lat="44.5664152" lon="8.8872827"><ele>626.0</ele><time>2026-04-16T12:14:11.102Z</time></trkpt><trkpt lat="44.5666451" lon="8.8873467"><ele>626.0</ele><time>2026-04-16T12:14:12.999Z</time></trkpt><trkpt lat="44.5667621" lon="8.8873834"><ele>626.0</ele><time>2026-04-16T12:14:13.999Z</time></trkpt><trkpt lat="44.5668833" lon="8.8874149"><ele>626.0</ele><time>2026-04-16T12:14:14.999Z</time></trkpt><trkpt lat="44.5669964" lon="8.8874533"><ele>626.0</ele><time>2026-04-16T12:14:15.999Z</time></trkpt><trkpt lat="44.5671018" lon="8.8874888"><ele>624.4</ele><time>2026-04-16T12:14:16.999Z</time></trkpt><trkpt lat="44.5671945" lon="8.8875175"><ele>622.8</ele><time>2026-04-16T12:14:17.999Z</time></trkpt><trkpt lat="44.5672744" lon="8.887497"><ele>621.1999999999999</ele><time>2026-04-16T12:14:18.999Z</time></trkpt><trkpt lat="44.5673573" lon="8.8874536"><ele>619.6</ele><time>2026-04-16T12:14:19.999Z</time></trkpt><trkpt lat="44.5674408" lon="8.8873852"><ele>618.0</ele><time>2026-04-16T12:14:20.999Z</time></trkpt><trkpt lat="44.5675314" lon="8.8872952"><ele>618.0</ele><time>2026-04-16T12:14:21.999Z</time></trkpt><trkpt lat="44.5676274" lon="8.8871919"><ele>618.0</ele><time>2026-04-16T12:14:22.999Z</time></trkpt><trkpt lat="44.5677295" lon="8.8870958"><ele>618.0</ele><time>2026-04-16T12:14:23.999Z</time></trkpt><trkpt lat="44.5678481" lon="8.8870249"><ele>618.0</ele><time>2026-04-16T12:14:24.999Z</time></trkpt><trkpt lat="44.5679532" lon="8.8869654"><ele>619.5</ele><time>2026-04-16T12:14:25.999Z</time></trkpt><trkpt lat="44.5680669" lon="8.8869323"><ele>621.0</ele><time>2026-04-16T12:14:26.999Z</time></trkpt><trkpt lat="44.5681796" lon="8.8868962"><ele>622.5</ele><time>2026-04-16T12:14:27.999Z</time></trkpt><trkpt lat="44.5682991" lon="8.8868559"><ele>624.0</ele><time>2026-04-16T12:14:28.999Z</time></trkpt><trkpt lat="44.5684174" lon="8.8868137"><ele>622.0</ele><time>2026-04-16T12:14:29.999Z</time></trkpt><trkpt lat="44.5685159" lon="8.8867566"><ele>620.0</ele><time>2026-04-16T12:14:30.999Z</time></trkpt><trkpt lat="44.5686132" lon="8.886675"><ele>618.0</ele><time>2026-04-16T12:14:31.999Z</time></trkpt><trkpt lat="44.5687108" lon="8.8865785"><ele>616.0</ele><time>2026-04-16T12:14:32.999Z</time></trkpt><trkpt lat="44.5687985" lon="8.8864794"><ele>615.4</ele><time>2026-04-16T12:14:33.999Z</time></trkpt><trkpt lat="44.568891" lon="8.8863723"><ele>614.8</ele><time>2026-04-16T12:14:34.999Z</time></trkpt><trkpt lat="44.5689834" lon="8.8862743"><ele>614.1999999999999</ele><time>2026-04-16T12:14:35.999Z</time></trkpt><trkpt lat="44.5690755" lon="8.8861897"><ele>613.6</ele><time>2026-04-16T12:14:36.999Z</time></trkpt><trkpt lat="44.5691676" lon="8.8861343"><ele>613.0</ele><time>2026-04-16T12:14:37.999Z</time></trkpt><trkpt lat="44.5692975" lon="8.8860918"><ele>613.0</ele><time>2026-04-16T12:14:38.999Z</time></trkpt><trkpt lat="44.5693947" lon="8.886038"><ele>613.0</ele><time>2026-04-16T12:14:39.999Z</time></trkpt><trkpt lat="44.5695104" lon="8.885967"><ele>613.0</ele><time>2026-04-16T12:14:40.999Z</time></trkpt><trkpt lat="44.5696156" lon="8.885862"><ele>613.0</ele><time>2026-04-16T12:14:42.102Z</time></trkpt><trkpt lat="44.5697533" lon="8.8855949"><ele>611.75</ele><time>2026-04-16T12:14:43.999Z</time></trkpt><trkpt lat="44.5698275" lon="8.8854551"><ele>610.5</ele><time>2026-04-16T12:14:44.999Z</time></trkpt><trkpt lat="44.5699072" lon="8.8853246"><ele>609.25</ele><time>2026-04-16T12:14:45.999Z</time></trkpt><trkpt lat="44.5700064" lon="8.885221"><ele>608.0</ele><time>2026-04-16T12:14:46.999Z</time></trkpt><trkpt lat="44.5701018" lon="8.8851423"><ele>607.75</ele><time>2026-04-16T12:14:47.999Z</time></trkpt><trkpt lat="44.5702044" lon="8.8850362"><ele>607.5</ele><time>2026-04-16T12:14:48.999Z</time></trkpt><trkpt lat="44.5702827" lon="8.8849214"><ele>607.25</ele><time>2026-04-16T12:14:49.999Z</time></trkpt><trkpt lat="44.5703548" lon="8.8847935"><ele>607.0</ele><time>2026-04-16T12:14:50.999Z</time></trkpt><trkpt lat="44.5704383" lon="8.8846765"><ele>604.75</ele><time>2026-04-16T12:14:51.999Z</time></trkpt><trkpt lat="44.5705355" lon="8.8845669"><ele>602.5</ele><time>2026-04-16T12:14:52.999Z</time></trkpt><trkpt lat="44.5706311" lon="8.8844642"><ele>600.25</ele><time>2026-04-16T12:14:53.999Z</time></trkpt><trkpt lat="44.5707477" lon="8.8844259"><ele>598.0</ele><time>2026-04-16T12:14:55.1Z</time></trkpt><trkpt lat="44.5708497" lon="8.884387"><ele>598.0</ele><time>2026-04-16T12:14:55.999Z</time></trkpt><trkpt lat="44.5709604" lon="8.8843953"><ele>598.0</ele><time>2026-04-16T12:14:56.999Z</time></trkpt><trkpt lat="44.5710567" lon="8.8844218"><ele>598.0</ele><time>2026-04-16T12:14:57.999Z</time></trkpt><trkpt lat="44.5711425" lon="8.8844822"><ele>598.0</ele><time>2026-04-16T12:14:58.999Z</time></trkpt><trkpt lat="44.5712343" lon="8.884542"><ele>598.0</ele><time>2026-04-16T12:14:59.999Z</time></trkpt><trkpt lat="44.5713216" lon="8.8845904"><ele>597.25</ele><time>2026-04-16T12:15:01.108Z</time></trkpt><trkpt lat="44.5715229" lon="8.8846042"><ele>596.5</ele><time>2026-04-16T12:15:02.999Z</time></trkpt><trkpt lat="44.5716251" lon="8.8845503"><ele>595.75</ele><time>2026-04-16T12:15:03.999Z</time></trkpt><trkpt lat="44.5717133" lon="8.8844608"><ele>595.0</ele><time>2026-04-16T12:15:04.999Z</time></trkpt><trkpt lat="44.5717895" lon="8.8843571"><ele>594.0</ele><time>2026-04-16T12:15:06.11Z</time></trkpt><trkpt lat="44.5718984" lon="8.8840993"><ele>593.0</ele><time>2026-04-16T12:15:07.999Z</time></trkpt><trkpt lat="44.5719598" lon="8.8839577"><ele>592.0</ele><time>2026-04-16T12:15:08.999Z</time></trkpt><trkpt lat="44.5720182" lon="8.8838252"><ele>591.0</ele><time>2026-04-16T12:15:09.999Z</time></trkpt><trkpt lat="44.5720705" lon="8.8837047"><ele>591.0</ele><time>2026-04-16T12:15:10.999Z</time></trkpt><trkpt lat="44.572132" lon="8.8835873"><ele>591.0</ele><time>2026-04-16T12:15:11.999Z</time></trkpt><trkpt lat="44.5721964" lon="8.8834745"><ele>591.0</ele><time>2026-04-16T12:15:12.999Z</time></trkpt><trkpt lat="44.572281" lon="8.8834189"><ele>591.0</ele><time>2026-04-16T12:15:13.999Z</time></trkpt><trkpt lat="44.5723522" lon="8.8834553"><ele>591.0</ele><time>2026-04-16T12:15:14.999Z</time></trkpt><trkpt lat="44.572458" lon="8.8834975"><ele>591.0</ele><time>2026-04-16T12:15:15.999Z</time></trkpt><trkpt lat="44.572555" lon="8.8835003"><ele>591.0</ele><time>2026-04-16T12:15:16.999Z</time></trkpt><trkpt lat="44.5726434" lon="8.883464"><ele>591.0</ele><time>2026-04-16T12:15:17.999Z</time></trkpt><trkpt lat="44.572718" lon="8.8834045"><ele>591.0</ele><time>2026-04-16T12:15:18.999Z</time></trkpt><trkpt lat="44.5727506" lon="8.8832846"><ele>591.0</ele><time>2026-04-16T12:15:19.999Z</time></trkpt><trkpt lat="44.572773" lon="8.8831563"><ele>588.8</ele><time>2026-04-16T12:15:20.999Z</time></trkpt><trkpt lat="44.5727857" lon="8.8830271"><ele>586.6</ele><time>2026-04-16T12:15:21.999Z</time></trkpt><trkpt lat="44.572801" lon="8.8828829"><ele>584.4</ele><time>2026-04-16T12:15:22.999Z</time></trkpt><trkpt lat="44.5728393" lon="8.882737"><ele>582.2</ele><time>2026-04-16T12:15:23.999Z</time></trkpt><trkpt lat="44.5728832" lon="8.8826019"><ele>580.0</ele><time>2026-04-16T12:15:24.999Z</time></trkpt><trkpt lat="44.5729408" lon="8.8824867"><ele>577.8</ele><time>2026-04-16T12:15:25.999Z</time></trkpt><trkpt lat="44.5730035" lon="8.8823608"><ele>575.6</ele><time>2026-04-16T12:15:26.999Z</time></trkpt><trkpt lat="44.5731011" lon="8.8822817"><ele>573.4</ele><time>2026-04-16T12:15:27.999Z</time></trkpt><trkpt lat="44.5731838" lon="8.8822008"><ele>571.2</ele><time>2026-04-16T12:15:28.999Z</time></trkpt><trkpt lat="44.5732699" lon="8.8821034"><ele>569.0</ele><time>2026-04-16T12:15:29.999Z</time></trkpt><trkpt lat="44.5733632" lon="8.8820018"><ele>569.0</ele><time>2026-04-16T12:15:30.999Z</time></trkpt><trkpt lat="44.5734697" lon="8.8819093"><ele>569.0</ele><time>2026-04-16T12:15:31.999Z</time></trkpt><trkpt lat="44.5735662" lon="8.8818109"><ele>569.0</ele><time>2026-04-16T12:15:32.999Z</time></trkpt><trkpt lat="44.5736567" lon="8.881711"><ele>569.0</ele><time>2026-04-16T12:15:33.999Z</time></trkpt><trkpt lat="44.5737458" lon="8.8816149"><ele>567.75</ele><time>2026-04-16T12:15:34.999Z</time></trkpt><trkpt lat="44.5738332" lon="8.8815169"><ele>566.5</ele><time>2026-04-16T12:15:35.999Z</time></trkpt><trkpt lat="44.573928" lon="8.8814208"><ele>565.25</ele><time>2026-04-16T12:15:36.999Z</time></trkpt><trkpt lat="44.5740324" lon="8.8813314"><ele>564.0</ele><time>2026-04-16T12:15:37.999Z</time></trkpt><trkpt lat="44.5741427" lon="8.8812449"><ele>564.0</ele><time>2026-04-16T12:15:38.999Z</time></trkpt><trkpt lat="44.5742472" lon="8.8811693"><ele>564.0</ele><time>2026-04-16T12:15:39.999Z</time></trkpt><trkpt lat="44.5743605" lon="8.8811037"><ele>564.0</ele><time>2026-04-16T12:15:40.999Z</time></trkpt><trkpt lat="44.574464" lon="8.8810732"><ele>564.0</ele><time>2026-04-16T12:15:41.999Z</time></trkpt><trkpt lat="44.5745928" lon="8.8810697"><ele>567.0</ele><time>2026-04-16T12:15:42.999Z</time></trkpt><trkpt lat="44.5747102" lon="8.8810747"><ele>570.0</ele><time>2026-04-16T12:15:43.999Z</time></trkpt><trkpt lat="44.5748351" lon="8.8810896"><ele>573.0</ele><time>2026-04-16T12:15:44.999Z</time></trkpt><trkpt lat="44.5749541" lon="8.8810859"><ele>576.0</ele><time>2026-04-16T12:15:45.999Z</time></trkpt><trkpt lat="44.5750627" lon="8.8810608"><ele>576.0</ele><time>2026-04-16T12:15:46.999Z</time></trkpt><trkpt lat="44.5751579" lon="8.8809911"><ele>576.0</ele><time>2026-04-16T12:15:47.999Z</time></trkpt><trkpt lat="44.5752329" lon="8.8808959"><ele>576.0</ele><time>2026-04-16T12:15:48.999Z</time></trkpt><trkpt lat="44.5752924" lon="8.8807747"><ele>576.0</ele><time>2026-04-16T12:15:50.108Z</time></trkpt><trkpt lat="44.5753802" lon="8.8805196"><ele>572.25</ele><time>2026-04-16T12:15:52.101Z</time></trkpt><trkpt lat="44.5755161" lon="8.8802902"><ele>568.5</ele><time>2026-04-16T12:15:53.999Z</time></trkpt><trkpt lat="44.5756052" lon="8.8801969"><ele>564.75</ele><time>2026-04-16T12:15:54.999Z</time></trkpt><trkpt lat="44.5757013" lon="8.8801137"><ele>561.0</ele><time>2026-04-16T12:15:55.999Z</time></trkpt><trkpt lat="44.5758024" lon="8.8800667"><ele>560.0</ele><time>2026-04-16T12:15:56.999Z</time></trkpt><trkpt lat="44.5759158" lon="8.8800183"><ele>559.0</ele><time>2026-04-16T12:15:57.999Z</time></trkpt><trkpt lat="44.5760216" lon="8.8799631"><ele>558.0</ele><time>2026-04-16T12:15:58.999Z</time></trkpt><trkpt lat="44.5761207" lon="8.8798704"><ele>557.0</ele><time>2026-04-16T12:15:59.999Z</time></trkpt><trkpt lat="44.5762216" lon="8.8797808"><ele>557.0</ele><time>2026-04-16T12:16:00.999Z</time></trkpt><trkpt lat="44.5763152" lon="8.8797122"><ele>557.0</ele><time>2026-04-16T12:16:01.999Z</time></trkpt><trkpt lat="44.576411" lon="8.8796226"><ele>557.0</ele><time>2026-04-16T12:16:02.999Z</time></trkpt><trkpt lat="44.5765016" lon="8.8795265"><ele>557.0</ele><time>2026-04-16T12:16:03.999Z</time></trkpt><trkpt lat="44.5765815" lon="8.8794378"><ele>557.0</ele><time>2026-04-16T12:16:04.999Z</time></trkpt><trkpt lat="44.5766533" lon="8.8793492"><ele>553.8000000000001</ele><time>2026-04-16T12:16:05.999Z</time></trkpt><trkpt lat="44.5767142" lon="8.8792581"><ele>550.6</ele><time>2026-04-16T12:16:06.999Z</time></trkpt><trkpt lat="44.5767773" lon="8.87915"><ele>547.4000000000001</ele><time>2026-04-16T12:16:07.999Z</time></trkpt><trkpt lat="44.5768471" lon="8.8790615"><ele>544.2</ele><time>2026-04-16T12:16:08.999Z</time></trkpt><trkpt lat="44.5769286" lon="8.8789794"><ele>541.0</ele><time>2026-04-16T12:16:09.999Z</time></trkpt><trkpt lat="44.5770109" lon="8.8789007"><ele>544.8</ele><time>2026-04-16T12:16:10.999Z</time></trkpt><trkpt lat="44.5770958" lon="8.8788177"><ele>548.6</ele><time>2026-04-16T12:16:11.999Z</time></trkpt><trkpt lat="44.5771787" lon="8.8787351"><ele>552.4</ele><time>2026-04-16T12:16:12.999Z</time></trkpt><trkpt lat="44.5772624" lon="8.8786575"><ele>556.2</ele><time>2026-04-16T12:16:13.999Z</time></trkpt><trkpt lat="44.5773514" lon="8.87859"><ele>560.0</ele><time>2026-04-16T12:16:14.999Z</time></trkpt><trkpt lat="44.5774304" lon="8.8785091"><ele>556.8333333333333</ele><time>2026-04-16T12:16:15.999Z</time></trkpt><trkpt lat="44.5774939" lon="8.8784226"><ele>553.6666666666666</ele><time>2026-04-16T12:16:16.999Z</time></trkpt><trkpt lat="44.5775481" lon="8.8783168"><ele>550.5</ele><time>2026-04-16T12:16:17.999Z</time></trkpt><trkpt lat="44.5775797" lon="8.8782189"><ele>547.3333333333334</ele><time>2026-04-16T12:16:18.999Z</time></trkpt><trkpt lat="44.5776001" lon="8.8781142"><ele>544.1666666666667</ele><time>2026-04-16T12:16:19.999Z</time></trkpt><trkpt lat="44.5775944" lon="8.8780207"><ele>541.0</ele><time>2026-04-16T12:16:20.999Z</time></trkpt><trkpt lat="44.5775854" lon="8.8779236"><ele>541.0</ele><time>2026-04-16T12:16:21.999Z</time></trkpt><trkpt lat="44.5775595" lon="8.877772"><ele>541.0</ele><time>2026-04-16T12:16:22.999Z</time></trkpt><trkpt lat="44.5775592" lon="8.8776245"><ele>541.0</ele><time>2026-04-16T12:16:23.999Z</time></trkpt><trkpt lat="44.5775645" lon="8.8774761"><ele>541.0</ele><time>2026-04-16T12:16:24.999Z</time></trkpt><trkpt lat="44.5775635" lon="8.8773364"><ele>541.0</ele><time>2026-04-16T12:16:25.999Z</time></trkpt><trkpt lat="44.5775698" lon="8.8771934"><ele>540.0</ele><time>2026-04-16T12:16:26.999Z</time></trkpt><trkpt lat="44.5775795" lon="8.8770831"><ele>539.0</ele><time>2026-04-16T12:16:27.999Z</time></trkpt><trkpt lat="44.5776037" lon="8.8769734"><ele>538.0</ele><time>2026-04-16T12:16:28.999Z</time></trkpt><trkpt lat="44.5776473" lon="8.8768584"><ele>537.0</ele><time>2026-04-16T12:16:29.999Z</time></trkpt><trkpt lat="44.5776974" lon="8.8767322"><ele>536.0</ele><time>2026-04-16T12:16:30.999Z</time></trkpt><trkpt lat="44.5777461" lon="8.8765847"><ele>535.4</ele><time>2026-04-16T12:16:31.999Z</time></trkpt><trkpt lat="44.5777916" lon="8.8764311"><ele>534.8</ele><time>2026-04-16T12:16:32.999Z</time></trkpt><trkpt lat="44.5778268" lon="8.8762817"><ele>534.1999999999999</ele><time>2026-04-16T12:16:33.999Z</time></trkpt><trkpt lat="44.5778642" lon="8.8761394"><ele>533.6</ele><time>2026-04-16T12:16:34.999Z</time></trkpt><trkpt lat="44.5778986" lon="8.8759924"><ele>533.0</ele><time>2026-04-16T12:16:35.999Z</time></trkpt><trkpt lat="44.5779403" lon="8.8758454"><ele>534.75</ele><time>2026-04-16T12:16:36.999Z</time></trkpt><trkpt lat="44.5779754" lon="8.8756943"><ele>536.5</ele><time>2026-04-16T12:16:37.999Z</time></trkpt><trkpt lat="44.5779906" lon="8.875567"><ele>538.25</ele><time>2026-04-16T12:16:38.998Z</time></trkpt><trkpt lat="44.577995" lon="8.875441"><ele>540.0</ele><time>2026-04-16T12:16:40.114Z</time></trkpt><trkpt lat="44.5780242" lon="8.8752148"><ele>537.0</ele><time>2026-04-16T12:16:41.999Z</time></trkpt><trkpt lat="44.5780758" lon="8.8751011"><ele>534.0</ele><time>2026-04-16T12:16:42.999Z</time></trkpt><trkpt lat="44.5781381" lon="8.8750029"><ele>531.0</ele><time>2026-04-16T12:16:43.999Z</time></trkpt><trkpt lat="44.5782122" lon="8.8749357"><ele>528.0</ele><time>2026-04-16T12:16:44.999Z</time></trkpt><trkpt lat="44.5782911" lon="8.8749106"><ele>525.0</ele><time>2026-04-16T12:16:45.999Z</time></trkpt><trkpt lat="44.5783717" lon="8.8748842"><ele>522.0</ele><time>2026-04-16T12:16:46.999Z</time></trkpt><trkpt lat="44.5784746" lon="8.8748619"><ele>522.0</ele><time>2026-04-16T12:16:47.999Z</time></trkpt><trkpt lat="44.5785775" lon="8.874841"><ele>522.0</ele><time>2026-04-16T12:16:48.999Z</time></trkpt><trkpt lat="44.5786746" lon="8.8748143"><ele>522.0</ele><time>2026-04-16T12:16:50.1Z</time></trkpt><trkpt lat="44.5788439" lon="8.8746727"><ele>522.0</ele><time>2026-04-16T12:16:51.999Z</time></trkpt><trkpt lat="44.5789234" lon="8.8745755"><ele>520.4</ele><time>2026-04-16T12:16:52.999Z</time></trkpt><trkpt lat="44.579003" lon="8.8744604"><ele>518.8000000000001</ele><time>2026-04-16T12:16:53.999Z</time></trkpt><trkpt lat="44.5790809" lon="8.874342"><ele>517.2</ele><time>2026-04-16T12:16:54.999Z</time></trkpt><trkpt lat="44.579159" lon="8.8742316"><ele>515.6</ele><time>2026-04-16T12:16:55.999Z</time></trkpt><trkpt lat="44.579239" lon="8.8741336"><ele>514.0</ele><time>2026-04-16T12:16:56.999Z</time></trkpt><trkpt lat="44.5793295" lon="8.8740406"><ele>514.0</ele><time>2026-04-16T12:16:57.999Z</time></trkpt><trkpt lat="44.5794315" lon="8.8739685"><ele>514.0</ele><time>2026-04-16T12:16:58.999Z</time></trkpt><trkpt lat="44.5795275" lon="8.873929"><ele>514.0</ele><time>2026-04-16T12:16:59.999Z</time></trkpt><trkpt lat="44.5796256" lon="8.8738661"><ele>514.0</ele><time>2026-04-16T12:17:01.103Z</time></trkpt><trkpt lat="44.5798271" lon="8.8737394"><ele>517.2</ele><time>2026-04-16T12:17:02.999Z</time></trkpt><trkpt lat="44.5799235" lon="8.8736755"><ele>520.4</ele><time>2026-04-16T12:17:03.999Z</time></trkpt><trkpt lat="44.5800141" lon="8.8736114"><ele>523.6</ele><time>2026-04-16T12:17:04.999Z</time></trkpt><trkpt lat="44.5800981" lon="8.8735742"><ele>526.8</ele><time>2026-04-16T12:17:05.999Z</time></trkpt><trkpt lat="44.580192" lon="8.8735048"><ele>530.0</ele><time>2026-04-16T12:17:07.12Z</time></trkpt><trkpt lat="44.5803668" lon="8.8733383"><ele>530.2</ele><time>2026-04-16T12:17:08.999Z</time></trkpt><trkpt lat="44.5804523" lon="8.8732467"><ele>530.4</ele><time>2026-04-16T12:17:09.999Z</time></trkpt><trkpt lat="44.5805309" lon="8.8731318"><ele>530.6</ele><time>2026-04-16T12:17:10.999Z</time></trkpt><trkpt lat="44.5806005" lon="8.8730043"><ele>530.8</ele><time>2026-04-16T12:17:11.999Z</time></trkpt><trkpt lat="44.5806566" lon="8.8728743"><ele>531.0</ele><time>2026-04-16T12:17:12.999Z</time></trkpt><trkpt lat="44.5807153" lon="8.8727334"><ele>531.0</ele><time>2026-04-16T12:17:13.999Z</time></trkpt><trkpt lat="44.5807628" lon="8.8726122"><ele>531.0</ele><time>2026-04-16T12:17:14.999Z</time></trkpt><trkpt lat="44.5808122" lon="8.872491"><ele>531.0</ele><time>2026-04-16T12:17:15.999Z</time></trkpt><trkpt lat="44.5808636" lon="8.8723644"><ele>531.0</ele><time>2026-04-16T12:17:16.999Z</time></trkpt><trkpt lat="44.580915" lon="8.8722366"><ele>531.0</ele><time>2026-04-16T12:17:17.999Z</time></trkpt><trkpt lat="44.5809661" lon="8.8721203"><ele>531.6</ele><time>2026-04-16T12:17:18.999Z</time></trkpt><trkpt lat="44.5810258" lon="8.8720175"><ele>532.2</ele><time>2026-04-16T12:17:19.999Z</time></trkpt><trkpt lat="44.5811039" lon="8.8719284"><ele>532.8</ele><time>2026-04-16T12:17:20.999Z</time></trkpt><trkpt lat="44.5811906" lon="8.8718441"><ele>533.4</ele><time>2026-04-16T12:17:21.999Z</time></trkpt><trkpt lat="44.5812799" lon="8.8717641"><ele>534.0</ele><time>2026-04-16T12:17:22.999Z</time></trkpt><trkpt lat="44.5813723" lon="8.8716824"><ele>528.4</ele><time>2026-04-16T12:17:23.999Z</time></trkpt><trkpt lat="44.5814621" lon="8.8716014"><ele>522.8</ele><time>2026-04-16T12:17:24.999Z</time></trkpt><trkpt lat="44.5815484" lon="8.8715249"><ele>517.2</ele><time>2026-04-16T12:17:25.999Z</time></trkpt><trkpt lat="44.5816417" lon="8.8714463"><ele>511.6</ele><time>2026-04-16T12:17:26.999Z</time></trkpt><trkpt lat="44.5817376" lon="8.8713593"><ele>506.0</ele><time>2026-04-16T12:17:27.999Z</time></trkpt><trkpt lat="44.5818275" lon="8.8712683"><ele>506.0</ele><time>2026-04-16T12:17:28.999Z</time></trkpt><trkpt lat="44.5819107" lon="8.8711729"><ele>506.0</ele><time>2026-04-16T12:17:29.999Z</time></trkpt><trkpt lat="44.5819866" lon="8.8710773"><ele>506.0</ele><time>2026-04-16T12:17:30.999Z</time></trkpt><trkpt lat="44.5820549" lon="8.870985"><ele>506.0</ele><time>2026-04-16T12:17:31.999Z</time></trkpt><trkpt lat="44.5821182" lon="8.8709238"><ele>506.0</ele><time>2026-04-16T12:17:32.999Z</time></trkpt><trkpt lat="44.5821822" lon="8.8708326"><ele>503.8</ele><time>2026-04-16T12:17:33.999Z</time></trkpt><trkpt lat="44.5822415" lon="8.8707367"><ele>501.6</ele><time>2026-04-16T12:17:34.999Z</time></trkpt><trkpt lat="44.5823163" lon="8.870658"><ele>499.4</ele><time>2026-04-16T12:17:35.999Z</time></trkpt><trkpt lat="44.5824049" lon="8.8706087"><ele>497.2</ele><time>2026-04-16T12:17:36.999Z</time></trkpt><trkpt lat="44.5824973" lon="8.8705721"><ele>495.0</ele><time>2026-04-16T12:17:37.999Z</time></trkpt><trkpt lat="44.5825785" lon="8.8705409"><ele>495.0</ele><time>2026-04-16T12:17:38.999Z</time></trkpt><trkpt lat="44.5826548" lon="8.8705081"><ele>495.0</ele><time>2026-04-16T12:17:39.999Z</time></trkpt><trkpt lat="44.5827222" lon="8.8704818"><ele>495.0</ele><time>2026-04-16T12:17:40.999Z</time></trkpt><trkpt lat="44.582795" lon="8.8704482"><ele>495.0</ele><time>2026-04-16T12:17:41.999Z</time></trkpt><trkpt lat="44.5829032" lon="8.8703606"><ele>495.0</ele><time>2026-04-16T12:17:43.999Z</time></trkpt><trkpt lat="44.5829653" lon="8.8703045"><ele>495.0</ele><time>2026-04-16T12:17:44.999Z</time></trkpt><trkpt lat="44.5830424" lon="8.8702338"><ele>493.0</ele><time>2026-04-16T12:17:45.999Z</time></trkpt><trkpt lat="44.5831418" lon="8.8701234"><ele>491.0</ele><time>2026-04-16T12:17:46.999Z</time></trkpt><trkpt lat="44.583254" lon="8.8700299"><ele>489.0</ele><time>2026-04-16T12:17:47.999Z</time></trkpt><trkpt lat="44.5833666" lon="8.869931"><ele>487.0</ele><time>2026-04-16T12:17:48.999Z</time></trkpt><trkpt lat="44.583468" lon="8.8698262"><ele>487.0</ele><time>2026-04-16T12:17:49.999Z</time></trkpt><trkpt lat="44.5835656" lon="8.8697045"><ele>487.0</ele><time>2026-04-16T12:17:50.999Z</time></trkpt><trkpt lat="44.5836635" lon="8.8695553"><ele>487.0</ele><time>2026-04-16T12:17:51.999Z</time></trkpt><trkpt lat="44.5837452" lon="8.8694924"><ele>487.0</ele><time>2026-04-16T12:17:52.999Z</time></trkpt><trkpt lat="44.5838356" lon="8.8693559"><ele>485.25</ele><time>2026-04-16T12:17:53.999Z</time></trkpt><trkpt lat="44.583919" lon="8.8692297"><ele>483.5</ele><time>2026-04-16T12:17:54.999Z</time></trkpt><trkpt lat="44.5840052" lon="8.8691091"><ele>481.75</ele><time>2026-04-16T12:17:55.999Z</time></trkpt><trkpt lat="44.5840994" lon="8.8689964"><ele>480.0</ele><time>2026-04-16T12:17:57.115Z</time></trkpt><trkpt lat="44.584322" lon="8.8687982"><ele>480.0</ele><time>2026-04-16T12:17:58.999Z</time></trkpt><trkpt lat="44.5844312" lon="8.868715"><ele>480.0</ele><time>2026-04-16T12:17:59.999Z</time></trkpt><trkpt lat="44.5845336" lon="8.8686198"><ele>480.0</ele><time>2026-04-16T12:18:00.999Z</time></trkpt><trkpt lat="44.5846417" lon="8.8685091"><ele>480.0</ele><time>2026-04-16T12:18:01.999Z</time></trkpt><trkpt lat="44.5847353" lon="8.8683999"><ele>479.5</ele><time>2026-04-16T12:18:02.999Z</time></trkpt><trkpt lat="44.5848296" lon="8.8683034"><ele>479.0</ele><time>2026-04-16T12:18:03.999Z</time></trkpt><trkpt lat="44.5849202" lon="8.8682042"><ele>478.5</ele><time>2026-04-16T12:18:04.999Z</time></trkpt><trkpt lat="44.5850096" lon="8.8681011"><ele>478.0</ele><time>2026-04-16T12:18:05.999Z</time></trkpt><trkpt lat="44.5850964" lon="8.868"><ele>478.0</ele><time>2026-04-16T12:18:06.999Z</time></trkpt><trkpt lat="44.5851811" lon="8.8678871"><ele>478.0</ele><time>2026-04-16T12:18:07.999Z</time></trkpt><trkpt lat="44.5852756" lon="8.8677663"><ele>478.0</ele><time>2026-04-16T12:18:08.999Z</time></trkpt><trkpt lat="44.5853636" lon="8.8676535"><ele>478.0</ele><time>2026-04-16T12:18:09.999Z</time></trkpt><trkpt lat="44.5854524" lon="8.8675295"><ele>478.6666666666667</ele><time>2026-04-16T12:18:11.112Z</time></trkpt><trkpt lat="44.5856157" lon="8.8673017"><ele>479.33333333333337</ele><time>2026-04-16T12:18:12.999Z</time></trkpt><trkpt lat="44.585693" lon="8.8671807"><ele>480.0</ele><time>2026-04-16T12:18:13.999Z</time></trkpt><trkpt lat="44.5857582" lon="8.867048"><ele>480.0</ele><time>2026-04-16T12:18:15.1Z</time></trkpt><trkpt lat="44.5858232" lon="8.8669216"><ele>480.0</ele><time>2026-04-16T12:18:16.116Z</time></trkpt><trkpt lat="44.5859101" lon="8.8666875"><ele>480.0</ele><time>2026-04-16T12:18:17.999Z</time></trkpt><trkpt lat="44.5859194" lon="8.866558"><ele>480.0</ele><time>2026-04-16T12:18:18.999Z</time></trkpt><trkpt lat="44.5859156" lon="8.8664153"><ele>478.4</ele><time>2026-04-16T12:18:19.999Z</time></trkpt><trkpt lat="44.5859062" lon="8.8662703"><ele>476.8</ele><time>2026-04-16T12:18:20.999Z</time></trkpt><trkpt lat="44.5859068" lon="8.8661248"><ele>475.20000000000005</ele><time>2026-04-16T12:18:21.999Z</time></trkpt><trkpt lat="44.5859168" lon="8.8659823"><ele>473.6</ele><time>2026-04-16T12:18:22.999Z</time></trkpt><trkpt lat="44.5859369" lon="8.8658382"><ele>472.0</ele><time>2026-04-16T12:18:23.999Z</time></trkpt><trkpt lat="44.5859646" lon="8.8657205"><ele>470.6</ele><time>2026-04-16T12:18:24.999Z</time></trkpt><trkpt lat="44.5860064" lon="8.8656162"><ele>469.20000000000005</ele><time>2026-04-16T12:18:25.999Z</time></trkpt><trkpt lat="44.5860641" lon="8.8655325"><ele>467.8</ele><time>2026-04-16T12:18:26.999Z</time></trkpt><trkpt lat="44.5861451" lon="8.8654669"><ele>466.4</ele><time>2026-04-16T12:18:27.999Z</time></trkpt><trkpt lat="44.5862268" lon="8.8654123"><ele>465.0</ele><time>2026-04-16T12:18:28.999Z</time></trkpt><trkpt lat="44.5863276" lon="8.865383"><ele>464.6</ele><time>2026-04-16T12:18:29.999Z</time></trkpt><trkpt lat="44.5864257" lon="8.8654006"><ele>464.2</ele><time>2026-04-16T12:18:30.999Z</time></trkpt><trkpt lat="44.5865207" lon="8.8654331"><ele>463.79999999999995</ele><time>2026-04-16T12:18:31.999Z</time></trkpt><trkpt lat="44.5866152" lon="8.8654476"><ele>463.4</ele><time>2026-04-16T12:18:32.999Z</time></trkpt><trkpt lat="44.5867084" lon="8.8654706"><ele>463.0</ele><time>2026-04-16T12:18:33.999Z</time></trkpt><trkpt lat="44.5867946" lon="8.8655184"><ele>463.00000000000006</ele><time>2026-04-16T12:18:34.999Z</time></trkpt><trkpt lat="44.5868774" lon="8.865553"><ele>463.0</ele><time>2026-04-16T12:18:35.999Z</time></trkpt><trkpt lat="44.5869397" lon="8.8655799"><ele>463.0</ele><time>2026-04-16T12:18:36.999Z</time></trkpt><trkpt lat="44.587021" lon="8.8655673"><ele>463.0</ele><time>2026-04-16T12:18:37.999Z</time></trkpt><trkpt lat="44.5870981" lon="8.8655292"><ele>463.00000000000006</ele><time>2026-04-16T12:18:38.999Z</time></trkpt><trkpt lat="44.5871913" lon="8.8654535"><ele>463.0</ele><time>2026-04-16T12:18:39.999Z</time></trkpt><trkpt lat="44.5872911" lon="8.8654004"><ele>462.25</ele><time>2026-04-16T12:18:40.999Z</time></trkpt><trkpt lat="44.587393" lon="8.8653496"><ele>461.5</ele><time>2026-04-16T12:18:41.999Z</time></trkpt><trkpt lat="44.5875016" lon="8.8653197"><ele>460.75</ele><time>2026-04-16T12:18:42.999Z</time></trkpt><trkpt lat="44.5876229" lon="8.8653003"><ele>460.0</ele><time>2026-04-16T12:18:43.999Z</time></trkpt><trkpt lat="44.5877375" lon="8.8652832"><ele>460.25</ele><time>2026-04-16T12:18:45.103Z</time></trkpt><trkpt lat="44.587942" lon="8.8652254"><ele>460.5</ele><time>2026-04-16T12:18:47.102Z</time></trkpt><trkpt lat="44.5880434" lon="8.8651878"><ele>460.75</ele><time>2026-04-16T12:18:47.999Z</time></trkpt><trkpt lat="44.588137" lon="8.8651215"><ele>461.0</ele><time>2026-04-16T12:18:48.999Z</time></trkpt><trkpt lat="44.5882197" lon="8.8650318"><ele>461.0</ele><time>2026-04-16T12:18:49.999Z</time></trkpt><trkpt lat="44.5882866" lon="8.8649234"><ele>461.0</ele><time>2026-04-16T12:18:50.999Z</time></trkpt><trkpt lat="44.5883491" lon="8.8647981"><ele>461.0</ele><time>2026-04-16T12:18:51.999Z</time></trkpt><trkpt lat="44.5884044" lon="8.8646648"><ele>461.0</ele><time>2026-04-16T12:18:52.999Z</time></trkpt><trkpt lat="44.5884485" lon="8.8645039"><ele>461.0</ele><time>2026-04-16T12:18:53.999Z</time></trkpt><trkpt lat="44.5884783" lon="8.8643367"><ele>459.4</ele><time>2026-04-16T12:18:54.999Z</time></trkpt><trkpt lat="44.5884858" lon="8.8641882"><ele>457.8</ele><time>2026-04-16T12:18:55.999Z</time></trkpt><trkpt lat="44.5885085" lon="8.864035"><ele>456.19999999999993</ele><time>2026-04-16T12:18:56.999Z</time></trkpt><trkpt lat="44.588524" lon="8.8638852"><ele>454.59999999999997</ele><time>2026-04-16T12:18:57.999Z</time></trkpt><trkpt lat="44.5885516" lon="8.8637325"><ele>453.0</ele><time>2026-04-16T12:18:58.999Z</time></trkpt><trkpt lat="44.5885865" lon="8.8635954"><ele>453.0</ele><time>2026-04-16T12:18:59.999Z</time></trkpt><trkpt lat="44.5886361" lon="8.8634509"><ele>453.0</ele><time>2026-04-16T12:19:01.11Z</time></trkpt><trkpt lat="44.588696" lon="8.863312"><ele>453.0</ele><time>2026-04-16T12:19:02.11Z</time></trkpt><trkpt lat="44.5888187" lon="8.8630389"><ele>453.75</ele><time>2026-04-16T12:19:03.999Z</time></trkpt><trkpt lat="44.5888708" lon="8.862907"><ele>454.5</ele><time>2026-04-16T12:19:05.121Z</time></trkpt><trkpt lat="44.5889528" lon="8.862657"><ele>455.25</ele><time>2026-04-16T12:19:06.999Z</time></trkpt><trkpt lat="44.5889803" lon="8.8625142"><ele>456.0</ele><time>2026-04-16T12:19:07.999Z</time></trkpt><trkpt lat="44.5889881" lon="8.8623806"><ele>456.0</ele><time>2026-04-16T12:19:08.999Z</time></trkpt><trkpt lat="44.5889688" lon="8.8622721"><ele>456.0</ele><time>2026-04-16T12:19:09.999Z</time></trkpt><trkpt lat="44.5889209" lon="8.8621657"><ele>456.0</ele><time>2026-04-16T12:19:11.103Z</time></trkpt><trkpt lat="44.588853" lon="8.8620646"><ele>456.0</ele><time>2026-04-16T12:19:12.111Z</time></trkpt><trkpt lat="44.5887455" lon="8.8618501"><ele>455.8</ele><time>2026-04-16T12:19:13.999Z</time></trkpt><trkpt lat="44.588762" lon="8.8617342"><ele>455.6</ele><time>2026-04-16T12:19:14.999Z</time></trkpt><trkpt lat="44.5887923" lon="8.8616497"><ele>455.4</ele><time>2026-04-16T12:19:15.999Z</time></trkpt><trkpt lat="44.5888296" lon="8.8615001"><ele>455.2</ele><time>2026-04-16T12:19:16.999Z</time></trkpt><trkpt lat="44.5888762" lon="8.8613693"><ele>455.0</ele><time>2026-04-16T12:19:17.999Z</time></trkpt><trkpt lat="44.5889359" lon="8.8612539"><ele>455.0</ele><time>2026-04-16T12:19:18.999Z</time></trkpt><trkpt lat="44.589011" lon="8.8611573"><ele>455.0</ele><time>2026-04-16T12:19:19.999Z</time></trkpt><trkpt lat="44.5890763" lon="8.8611066"><ele>455.0</ele><time>2026-04-16T12:19:20.999Z</time></trkpt><trkpt lat="44.5891769" lon="8.8610915"><ele>455.0</ele><time>2026-04-16T12:19:21.999Z</time></trkpt><trkpt lat="44.5892914" lon="8.8610685"><ele>455.0</ele><time>2026-04-16T12:19:22.999Z</time></trkpt><trkpt lat="44.5894075" lon="8.861046"><ele>454.25</ele><time>2026-04-16T12:19:23.999Z</time></trkpt><trkpt lat="44.5895133" lon="8.861038"><ele>453.5</ele><time>2026-04-16T12:19:24.999Z</time></trkpt><trkpt lat="44.5896292" lon="8.8610526"><ele>452.75</ele><time>2026-04-16T12:19:25.999Z</time></trkpt><trkpt lat="44.5897509" lon="8.8610601"><ele>452.0</ele><time>2026-04-16T12:19:26.999Z</time></trkpt><trkpt lat="44.589866" lon="8.8610732"><ele>452.0</ele><time>2026-04-16T12:19:27.999Z</time></trkpt><trkpt lat="44.5899725" lon="8.8610784"><ele>452.0</ele><time>2026-04-16T12:19:28.999Z</time></trkpt><trkpt lat="44.5900996" lon="8.8610996"><ele>452.0</ele><time>2026-04-16T12:19:29.999Z</time></trkpt><trkpt lat="44.5902041" lon="8.8611372"><ele>452.0</ele><time>2026-04-16T12:19:30.999Z</time></trkpt><trkpt lat="44.5903194" lon="8.8611859"><ele>451.5</ele><time>2026-04-16T12:19:31.999Z</time></trkpt><trkpt lat="44.5904294" lon="8.8612365"><ele>451.0</ele><time>2026-04-16T12:19:32.999Z</time></trkpt><trkpt lat="44.5905455" lon="8.8612569"><ele>450.5</ele><time>2026-04-16T12:19:33.999Z</time></trkpt><trkpt lat="44.590656" lon="8.8612507"><ele>450.0</ele><time>2026-04-16T12:19:34.999Z</time></trkpt><trkpt lat="44.5907642" lon="8.8612339"><ele>450.0</ele><time>2026-04-16T12:19:35.999Z</time></trkpt><trkpt lat="44.5908721" lon="8.8612101"><ele>450.0</ele><time>2026-04-16T12:19:36.999Z</time></trkpt><trkpt lat="44.5909815" lon="8.8611946"><ele>450.0</ele><time>2026-04-16T12:19:37.999Z</time></trkpt><trkpt lat="44.5910987" lon="8.8611633"><ele>450.0</ele><time>2026-04-16T12:19:38.999Z</time></trkpt><trkpt lat="44.5912099" lon="8.8611248"><ele>452.0</ele><time>2026-04-16T12:19:39.999Z</time></trkpt><trkpt lat="44.5912867" lon="8.8610301"><ele>454.0</ele><time>2026-04-16T12:19:41.109Z</time></trkpt><trkpt lat="44.5914571" lon="8.860809"><ele>456.0</ele><time>2026-04-16T12:19:42.999Z</time></trkpt><trkpt lat="44.5915191" lon="8.860666"><ele>456.0</ele><time>2026-04-16T12:19:43.999Z</time></trkpt><trkpt lat="44.5915803" lon="8.8604961"><ele>456.0</ele><time>2026-04-16T12:19:44.999Z</time></trkpt><trkpt lat="44.5916273" lon="8.8603321"><ele>456.0</ele><time>2026-04-16T12:19:45.999Z</time></trkpt><trkpt lat="44.5916569" lon="8.8601671"><ele>456.0</ele><time>2026-04-16T12:19:47.105Z</time></trkpt><trkpt lat="44.5916554" lon="8.8598219"><ele>453.25</ele><time>2026-04-16T12:19:48.999Z</time></trkpt><trkpt lat="44.5916291" lon="8.8596539"><ele>450.5</ele><time>2026-04-16T12:19:49.999Z</time></trkpt><trkpt lat="44.5915804" lon="8.8594737"><ele>447.75</ele><time>2026-04-16T12:19:50.999Z</time></trkpt><trkpt lat="44.5915332" lon="8.8593163"><ele>445.0</ele><time>2026-04-16T12:19:51.999Z</time></trkpt><trkpt lat="44.5915035" lon="8.8591429"><ele>445.0</ele><time>2026-04-16T12:19:52.999Z</time></trkpt><trkpt lat="44.5914874" lon="8.8589718"><ele>445.0</ele><time>2026-04-16T12:19:53.999Z</time></trkpt><trkpt lat="44.5914732" lon="8.8588002"><ele>445.0</ele><time>2026-04-16T12:19:55.105Z</time></trkpt><trkpt lat="44.591465" lon="8.858628"><ele>445.0</ele><time>2026-04-16T12:19:56.117Z</time></trkpt><trkpt lat="44.5914614" lon="8.8584687"><ele>444.5</ele><time>2026-04-16T12:19:56.999Z</time></trkpt><trkpt lat="44.5914296" lon="8.8583041"><ele>444.0</ele><time>2026-04-16T12:19:57.999Z</time></trkpt><trkpt lat="44.5913866" lon="8.8581392"><ele>443.5</ele><time>2026-04-16T12:19:58.999Z</time></trkpt><trkpt lat="44.5913443" lon="8.8579862"><ele>443.0</ele><time>2026-04-16T12:19:59.999Z</time></trkpt><trkpt lat="44.5913026" lon="8.8578538"><ele>443.0</ele><time>2026-04-16T12:20:00.999Z</time></trkpt><trkpt lat="44.591267" lon="8.8577197"><ele>442.99999999999994</ele><time>2026-04-16T12:20:01.999Z</time></trkpt><trkpt lat="44.5912556" lon="8.8575842"><ele>442.99999999999994</ele><time>2026-04-16T12:20:02.999Z</time></trkpt><trkpt lat="44.5912703" lon="8.8574665"><ele>443.0</ele><time>2026-04-16T12:20:03.999Z</time></trkpt><trkpt lat="44.5913039" lon="8.8573518"><ele>443.0</ele><time>2026-04-16T12:20:04.999Z</time></trkpt><trkpt lat="44.5913577" lon="8.8572394"><ele>440.2</ele><time>2026-04-16T12:20:05.999Z</time></trkpt><trkpt lat="44.591421" lon="8.8571261"><ele>437.4</ele><time>2026-04-16T12:20:06.999Z</time></trkpt><trkpt lat="44.591481" lon="8.8570196"><ele>434.59999999999997</ele><time>2026-04-16T12:20:07.999Z</time></trkpt><trkpt lat="44.5915406" lon="8.8569123"><ele>431.79999999999995</ele><time>2026-04-16T12:20:08.999Z</time></trkpt><trkpt lat="44.5916021" lon="8.8568116"><ele>429.0</ele><time>2026-04-16T12:20:09.999Z</time></trkpt><trkpt lat="44.5916742" lon="8.8567529"><ele>429.0</ele><time>2026-04-16T12:20:10.999Z</time></trkpt><trkpt lat="44.5917463" lon="8.8567127"><ele>429.0</ele><time>2026-04-16T12:20:11.999Z</time></trkpt><trkpt lat="44.5918207" lon="8.8567122"><ele>429.0</ele><time>2026-04-16T12:20:12.999Z</time></trkpt><trkpt lat="44.5918899" lon="8.856738"><ele>429.0</ele><time>2026-04-16T12:20:13.999Z</time></trkpt><trkpt lat="44.5919612" lon="8.8567986"><ele>429.0</ele><time>2026-04-16T12:20:14.999Z</time></trkpt><trkpt lat="44.5920327" lon="8.8568657"><ele>429.0</ele><time>2026-04-16T12:20:15.999Z</time></trkpt><trkpt lat="44.5921092" lon="8.8569431"><ele>428.0</ele><time>2026-04-16T12:20:16.999Z</time></trkpt><trkpt lat="44.5921884" lon="8.8570268"><ele>427.0</ele><time>2026-04-16T12:20:17.999Z</time></trkpt><trkpt lat="44.5922796" lon="8.8571031"><ele>426.0</ele><time>2026-04-16T12:20:18.999Z</time></trkpt><trkpt lat="44.592374" lon="8.8571804"><ele>425.0</ele><time>2026-04-16T12:20:20Z</time></trkpt><trkpt lat="44.5924737" lon="8.8572443"><ele>424.0</ele><time>2026-04-16T12:20:20.999Z</time></trkpt><trkpt lat="44.5925899" lon="8.8573032"><ele>424.0</ele><time>2026-04-16T12:20:21.999Z</time></trkpt><trkpt lat="44.5926971" lon="8.8573548"><ele>424.0</ele><time>2026-04-16T12:20:22.999Z</time></trkpt><trkpt lat="44.5928017" lon="8.857418"><ele>424.0</ele><time>2026-04-16T12:20:23.999Z</time></trkpt><trkpt lat="44.5929024" lon="8.8574879"><ele>424.0</ele><time>2026-04-16T12:20:24.999Z</time></trkpt><trkpt lat="44.5930004" lon="8.857575"><ele>425.79999999999995</ele><time>2026-04-16T12:20:25.999Z</time></trkpt><trkpt lat="44.5930924" lon="8.8576756"><ele>427.59999999999997</ele><time>2026-04-16T12:20:26.999Z</time></trkpt><trkpt lat="44.5931838" lon="8.8577727"><ele>429.4</ele><time>2026-04-16T12:20:27.999Z</time></trkpt><trkpt lat="44.5932725" lon="8.8578616"><ele>431.2</ele><time>2026-04-16T12:20:28.999Z</time></trkpt><trkpt lat="44.5933542" lon="8.8579582"><ele>433.0</ele><time>2026-04-16T12:20:29.999Z</time></trkpt><trkpt lat="44.5934286" lon="8.8580691"><ele>433.0</ele><time>2026-04-16T12:20:30.999Z</time></trkpt><trkpt lat="44.5934907" lon="8.8581957"><ele>432.99999999999994</ele><time>2026-04-16T12:20:31.999Z</time></trkpt><trkpt lat="44.5935419" lon="8.8583348"><ele>432.99999999999994</ele><time>2026-04-16T12:20:32.999Z</time></trkpt><trkpt lat="44.5935915" lon="8.8584788"><ele>433.0</ele><time>2026-04-16T12:20:33.999Z</time></trkpt><trkpt lat="44.5936516" lon="8.8586108"><ele>433.0</ele><time>2026-04-16T12:20:34.999Z</time></trkpt><trkpt lat="44.5937166" lon="8.8587464"><ele>434.0</ele><time>2026-04-16T12:20:35.999Z</time></trkpt><trkpt lat="44.5937889" lon="8.8588878"><ele>435.0</ele><time>2026-04-16T12:20:36.999Z</time></trkpt><trkpt lat="44.5938633" lon="8.8590335"><ele>436.0</ele><time>2026-04-16T12:20:37.999Z</time></trkpt><trkpt lat="44.5939445" lon="8.8591831"><ele>437.0</ele><time>2026-04-16T12:20:38.999Z</time></trkpt><trkpt lat="44.5940198" lon="8.859331"><ele>431.25</ele><time>2026-04-16T12:20:39.999Z</time></trkpt><trkpt lat="44.5940921" lon="8.8594804"><ele>425.5</ele><time>2026-04-16T12:20:40.999Z</time></trkpt><trkpt lat="44.5941773" lon="8.8596347"><ele>419.75</ele><time>2026-04-16T12:20:41.999Z</time></trkpt><trkpt lat="44.5942706" lon="8.8597847"><ele>414.0</ele><time>2026-04-16T12:20:42.999Z</time></trkpt><trkpt lat="44.5943678" lon="8.8599149"><ele>414.0</ele><time>2026-04-16T12:20:43.999Z</time></trkpt><trkpt lat="44.594464" lon="8.8600574"><ele>414.0</ele><time>2026-04-16T12:20:45.116Z</time></trkpt><trkpt lat="44.5946752" lon="8.8602869"><ele>414.0</ele><time>2026-04-16T12:20:46.999Z</time></trkpt><trkpt lat="44.5947868" lon="8.8603858"><ele>411.0</ele><time>2026-04-16T12:20:47.999Z</time></trkpt><trkpt lat="44.5948916" lon="8.8604856"><ele>408.0</ele><time>2026-04-16T12:20:48.999Z</time></trkpt><trkpt lat="44.5949973" lon="8.8605804"><ele>405.0</ele><time>2026-04-16T12:20:49.999Z</time></trkpt><trkpt lat="44.5951044" lon="8.8606648"><ele>402.0</ele><time>2026-04-16T12:20:51.115Z</time></trkpt><trkpt lat="44.5953126" lon="8.8608304"><ele>401.5</ele><time>2026-04-16T12:20:52.999Z</time></trkpt><trkpt lat="44.5954164" lon="8.86091"><ele>401.0</ele><time>2026-04-16T12:20:53.999Z</time></trkpt><trkpt lat="44.5955205" lon="8.8609905"><ele>400.5</ele><time>2026-04-16T12:20:54.999Z</time></trkpt><trkpt lat="44.5956326" lon="8.8610614"><ele>400.0</ele><time>2026-04-16T12:20:55.999Z</time></trkpt><trkpt lat="44.595748" lon="8.8611084"><ele>400.0</ele><time>2026-04-16T12:20:57.104Z</time></trkpt><trkpt lat="44.5959924" lon="8.8611642"><ele>400.0</ele><time>2026-04-16T12:20:58.999Z</time></trkpt><trkpt lat="44.596091" lon="8.8611754"><ele>400.0</ele><time>2026-04-16T12:20:59.999Z</time></trkpt><trkpt lat="44.5962126" lon="8.8611796"><ele>401.0</ele><time>2026-04-16T12:21:00.999Z</time></trkpt><trkpt lat="44.5963367" lon="8.8611739"><ele>402.0</ele><time>2026-04-16T12:21:01.999Z</time></trkpt><trkpt lat="44.596461" lon="8.861171"><ele>403.0</ele><time>2026-04-16T12:21:02.999Z</time></trkpt><trkpt lat="44.5965876" lon="8.861177"><ele>404.0</ele><time>2026-04-16T12:21:03.999Z</time></trkpt><trkpt lat="44.5967184" lon="8.8611765"><ele>404.0</ele><time>2026-04-16T12:21:04.999Z</time></trkpt><trkpt lat="44.5968519" lon="8.8611646"><ele>404.0</ele><time>2026-04-16T12:21:05.999Z</time></trkpt><trkpt lat="44.5969823" lon="8.8611349"><ele>404.0</ele><time>2026-04-16T12:21:06.999Z</time></trkpt><trkpt lat="44.597111" lon="8.8610981"><ele>404.0</ele><time>2026-04-16T12:21:07.999Z</time></trkpt><trkpt lat="44.5972422" lon="8.8610477"><ele>403.25</ele><time>2026-04-16T12:21:08.999Z</time></trkpt><trkpt lat="44.5973651" lon="8.860978"><ele>402.5</ele><time>2026-04-16T12:21:09.999Z</time></trkpt><trkpt lat="44.597488" lon="8.8609057"><ele>401.75</ele><time>2026-04-16T12:21:10.999Z</time></trkpt><trkpt lat="44.5976118" lon="8.8608301"><ele>401.0</ele><time>2026-04-16T12:21:11.999Z</time></trkpt><trkpt lat="44.5977348" lon="8.8607446"><ele>403.25</ele><time>2026-04-16T12:21:12.999Z</time></trkpt><trkpt lat="44.5978576" lon="8.8606557"><ele>405.5</ele><time>2026-04-16T12:21:13.999Z</time></trkpt><trkpt lat="44.5979806" lon="8.8605659"><ele>407.75</ele><time>2026-04-16T12:21:14.999Z</time></trkpt><trkpt lat="44.598104" lon="8.8604827"><ele>410.0</ele><time>2026-04-16T12:21:15.999Z</time></trkpt><trkpt lat="44.5982276" lon="8.8604081"><ele>410.0</ele><time>2026-04-16T12:21:16.999Z</time></trkpt><trkpt lat="44.5983546" lon="8.8603469"><ele>410.0</ele><time>2026-04-16T12:21:17.999Z</time></trkpt><trkpt lat="44.5984845" lon="8.8602901"><ele>410.0</ele><time>2026-04-16T12:21:18.999Z</time></trkpt><trkpt lat="44.598611" lon="8.8602616"><ele>410.0</ele><time>2026-04-16T12:21:19.999Z</time></trkpt><trkpt lat="44.5987321" lon="8.8602326"><ele>408.25</ele><time>2026-04-16T12:21:20.999Z</time></trkpt><trkpt lat="44.5988389" lon="8.860175"><ele>406.5</ele><time>2026-04-16T12:21:21.999Z</time></trkpt><trkpt lat="44.5989277" lon="8.8600941"><ele>404.75</ele><time>2026-04-16T12:21:22.999Z</time></trkpt><trkpt lat="44.5990178" lon="8.8599813"><ele>403.0</ele><time>2026-04-16T12:21:23.999Z</time></trkpt><trkpt lat="44.5991015" lon="8.8598559"><ele>403.0</ele><time>2026-04-16T12:21:24.999Z</time></trkpt><trkpt lat="44.599192" lon="8.859737"><ele>403.0</ele><time>2026-04-16T12:21:25.999Z</time></trkpt><trkpt lat="44.5992788" lon="8.8596048"><ele>403.0</ele><time>2026-04-16T12:21:26.999Z</time></trkpt><trkpt lat="44.5993587" lon="8.8594718"><ele>403.0</ele><time>2026-04-16T12:21:27.999Z</time></trkpt><trkpt lat="44.5994391" lon="8.8593537"><ele>402.75</ele><time>2026-04-16T12:21:28.999Z</time></trkpt><trkpt lat="44.5995166" lon="8.8592348"><ele>402.5</ele><time>2026-04-16T12:21:29.999Z</time></trkpt><trkpt lat="44.5996077" lon="8.8591062"><ele>402.25</ele><time>2026-04-16T12:21:30.999Z</time></trkpt><trkpt lat="44.5997111" lon="8.8590058"><ele>402.0</ele><time>2026-04-16T12:21:31.999Z</time></trkpt><trkpt lat="44.5998251" lon="8.8589365"><ele>402.0</ele><time>2026-04-16T12:21:32.999Z</time></trkpt><trkpt lat="44.5999425" lon="8.8588681"><ele>402.0</ele><time>2026-04-16T12:21:33.999Z</time></trkpt><trkpt lat="44.6000601" lon="8.8588021"><ele>402.0</ele><time>2026-04-16T12:21:35.102Z</time></trkpt><trkpt lat="44.6003264" lon="8.8587538"><ele>406.5</ele><time>2026-04-16T12:21:36.999Z</time></trkpt><trkpt lat="44.6004602" lon="8.8587298"><ele>411.0</ele><time>2026-04-16T12:21:37.999Z</time></trkpt><trkpt lat="44.600598" lon="8.8587075"><ele>415.5</ele><time>2026-04-16T12:21:38.999Z</time></trkpt><trkpt lat="44.6007404" lon="8.8586912"><ele>420.0</ele><time>2026-04-16T12:21:39.999Z</time></trkpt><trkpt lat="44.6008834" lon="8.858676"><ele>420.0</ele><time>2026-04-16T12:21:40.999Z</time></trkpt><trkpt lat="44.6010313" lon="8.8586686"><ele>420.0</ele><time>2026-04-16T12:21:41.999Z</time></trkpt><trkpt lat="44.6011533" lon="8.8586805"><ele>420.0</ele><time>2026-04-16T12:21:42.999Z</time></trkpt><trkpt lat="44.6012864" lon="8.8586771"><ele>420.0</ele><time>2026-04-16T12:21:43.999Z</time></trkpt><trkpt lat="44.6014202" lon="8.8586736"><ele>418.33333333333337</ele><time>2026-04-16T12:21:45.103Z</time></trkpt><trkpt lat="44.6016619" lon="8.8586319"><ele>416.6666666666667</ele><time>2026-04-16T12:21:47.102Z</time></trkpt><trkpt lat="44.6017639" lon="8.8585602"><ele>415.0</ele><time>2026-04-16T12:21:47.999Z</time></trkpt><trkpt lat="44.6018559" lon="8.8584648"><ele>413.33333333333337</ele><time>2026-04-16T12:21:48.999Z</time></trkpt><trkpt lat="44.6019449" lon="8.8583603"><ele>411.66666666666663</ele><time>2026-04-16T12:21:50.111Z</time></trkpt><trkpt lat="44.602131" lon="8.8581047"><ele>410.0</ele><time>2026-04-16T12:21:51.999Z</time></trkpt><trkpt lat="44.6022407" lon="8.8579511"><ele>410.0</ele><time>2026-04-16T12:21:52.999Z</time></trkpt><trkpt lat="44.6023458" lon="8.8578155"><ele>410.0</ele><time>2026-04-16T12:21:53.999Z</time></trkpt><trkpt lat="44.6024486" lon="8.8576753"><ele>410.0</ele><time>2026-04-16T12:21:54.999Z</time></trkpt><trkpt lat="44.6025458" lon="8.8575361"><ele>410.0</ele><time>2026-04-16T12:21:55.999Z</time></trkpt><trkpt lat="44.6026378" lon="8.8574057"><ele>407.75</ele><time>2026-04-16T12:21:56.999Z</time></trkpt><trkpt lat="44.6027129" lon="8.8572553"><ele>405.5</ele><time>2026-04-16T12:21:57.999Z</time></trkpt><trkpt lat="44.6027875" lon="8.8571176"><ele>403.25</ele><time>2026-04-16T12:21:58.999Z</time></trkpt><trkpt lat="44.602861" lon="8.8569532"><ele>401.0</ele><time>2026-04-16T12:21:59.999Z</time></trkpt><trkpt lat="44.6029401" lon="8.856794"><ele>395.3333333333333</ele><time>2026-04-16T12:22:01.122Z</time></trkpt><trkpt lat="44.6030292" lon="8.856637"><ele>389.66666666666663</ele><time>2026-04-16T12:22:02.121Z</time></trkpt><trkpt lat="44.6031998" lon="8.8563359"><ele>384.0</ele><time>2026-04-16T12:22:03.999Z</time></trkpt><trkpt lat="44.6032783" lon="8.8561872"><ele>383.3333333333333</ele><time>2026-04-16T12:22:05.101Z</time></trkpt><trkpt lat="44.603447" lon="8.855885"><ele>382.66666666666663</ele><time>2026-04-16T12:22:06.999Z</time></trkpt><trkpt lat="44.6035308" lon="8.8557306"><ele>382.0</ele><time>2026-04-16T12:22:07.999Z</time></trkpt><trkpt lat="44.6036161" lon="8.8555681"><ele>381.75</ele><time>2026-04-16T12:22:08.999Z</time></trkpt><trkpt lat="44.6037035" lon="8.8554148"><ele>381.5</ele><time>2026-04-16T12:22:09.999Z</time></trkpt><trkpt lat="44.6037962" lon="8.8552712"><ele>381.25</ele><time>2026-04-16T12:22:10.999Z</time></trkpt><trkpt lat="44.6038894" lon="8.8551261"><ele>381.0</ele><time>2026-04-16T12:22:11.999Z</time></trkpt><trkpt lat="44.6039899" lon="8.8549929"><ele>380.25</ele><time>2026-04-16T12:22:12.999Z</time></trkpt><trkpt lat="44.6040897" lon="8.854856"><ele>379.5</ele><time>2026-04-16T12:22:13.999Z</time></trkpt><trkpt lat="44.6041928" lon="8.8547294"><ele>378.75</ele><time>2026-04-16T12:22:14.999Z</time></trkpt><trkpt lat="44.6043098" lon="8.8546172"><ele>378.0</ele><time>2026-04-16T12:22:15.999Z</time></trkpt><trkpt lat="44.6044335" lon="8.8545242"><ele>377.25</ele><time>2026-04-16T12:22:16.999Z</time></trkpt><trkpt lat="44.6045691" lon="8.8544299"><ele>376.5</ele><time>2026-04-16T12:22:17.999Z</time></trkpt><trkpt lat="44.6047044" lon="8.854349"><ele>375.75</ele><time>2026-04-16T12:22:18.999Z</time></trkpt><trkpt lat="44.6048351" lon="8.85427"><ele>375.0</ele><time>2026-04-16T12:22:19.999Z</time></trkpt><trkpt lat="44.6049651" lon="8.8541946"><ele>375.0</ele><time>2026-04-16T12:22:20.999Z</time></trkpt><trkpt lat="44.6051012" lon="8.8541287"><ele>375.0</ele><time>2026-04-16T12:22:21.999Z</time></trkpt><trkpt lat="44.6052483" lon="8.8540528"><ele>375.0</ele><time>2026-04-16T12:22:22.999Z</time></trkpt><trkpt lat="44.6053915" lon="8.8539843"><ele>375.3333333333333</ele><time>2026-04-16T12:22:23.999Z</time></trkpt><trkpt lat="44.605548" lon="8.8539143"><ele>375.66666666666663</ele><time>2026-04-16T12:22:24.999Z</time></trkpt><trkpt lat="44.6056897" lon="8.8538482"><ele>376.0</ele><time>2026-04-16T12:22:25.999Z</time></trkpt><trkpt lat="44.6058285" lon="8.8537828"><ele>376.0</ele><time>2026-04-16T12:22:26.999Z</time></trkpt><trkpt lat="44.6059579" lon="8.8537263"><ele>376.0</ele><time>2026-04-16T12:22:27.999Z</time></trkpt><trkpt lat="44.606089" lon="8.853673"><ele>376.0</ele><time>2026-04-16T12:22:28.999Z</time></trkpt><trkpt lat="44.6062122" lon="8.8536221"><ele>376.0</ele><time>2026-04-16T12:22:29.999Z</time></trkpt><trkpt lat="44.6063381" lon="8.8535661"><ele>375.0</ele><time>2026-04-16T12:22:30.999Z</time></trkpt><trkpt lat="44.6064581" lon="8.8535234"><ele>374.0</ele><time>2026-04-16T12:22:32.104Z</time></trkpt><trkpt lat="44.6067332" lon="8.8534412"><ele>373.0</ele><time>2026-04-16T12:22:33.999Z</time></trkpt><trkpt lat="44.6068669" lon="8.8533959"><ele>373.0</ele><time>2026-04-16T12:22:34.999Z</time></trkpt><trkpt lat="44.6069919" lon="8.8533567"><ele>373.0</ele><time>2026-04-16T12:22:35.999Z</time></trkpt><trkpt lat="44.6071239" lon="8.8533191"><ele>373.0</ele><time>2026-04-16T12:22:36.999Z</time></trkpt><trkpt lat="44.6072534" lon="8.8532845"><ele>373.0</ele><time>2026-04-16T12:22:37.999Z</time></trkpt><trkpt lat="44.6073859" lon="8.8532438"><ele>374.0</ele><time>2026-04-16T12:22:38.999Z</time></trkpt><trkpt lat="44.6075165" lon="8.8532039"><ele>375.0</ele><time>2026-04-16T12:22:39.999Z</time></trkpt><trkpt lat="44.6076475" lon="8.8531544"><ele>376.0</ele><time>2026-04-16T12:22:40.999Z</time></trkpt><trkpt lat="44.6077787" lon="8.8531111"><ele>377.0</ele><time>2026-04-16T12:22:41.999Z</time></trkpt><trkpt lat="44.6079127" lon="8.8530666"><ele>381.75</ele><time>2026-04-16T12:22:42.999Z</time></trkpt><trkpt lat="44.608037" lon="8.8530146"><ele>386.5</ele><time>2026-04-16T12:22:43.999Z</time></trkpt><trkpt lat="44.6081669" lon="8.8529578"><ele>391.25</ele><time>2026-04-16T12:22:44.999Z</time></trkpt><trkpt lat="44.6082881" lon="8.8528971"><ele>396.0</ele><time>2026-04-16T12:22:45.999Z</time></trkpt><trkpt lat="44.608402" lon="8.8528299"><ele>396.0</ele><time>2026-04-16T12:22:46.999Z</time></trkpt><trkpt lat="44.6085056" lon="8.8527516"><ele>396.0</ele><time>2026-04-16T12:22:47.999Z</time></trkpt><trkpt lat="44.6086039" lon="8.852659"><ele>396.0</ele><time>2026-04-16T12:22:48.999Z</time></trkpt><trkpt lat="44.6086934" lon="8.8525723"><ele>396.0</ele><time>2026-04-16T12:22:49.999Z</time></trkpt><trkpt lat="44.6087593" lon="8.8524642"><ele>396.0</ele><time>2026-04-16T12:22:50.999Z</time></trkpt><trkpt lat="44.6088045" lon="8.8523498"><ele>397.0</ele><time>2026-04-16T12:22:51.999Z</time></trkpt><trkpt lat="44.6088276" lon="8.852233"><ele>398.0</ele><time>2026-04-16T12:22:52.999Z</time></trkpt><trkpt lat="44.6088455" lon="8.852109"><ele>399.0</ele><time>2026-04-16T12:22:53.999Z</time></trkpt><trkpt lat="44.6088275" lon="8.852007"><ele>400.0</ele><time>2026-04-16T12:22:54.999Z</time></trkpt><trkpt lat="44.608771" lon="8.8518673"><ele>401.0</ele><time>2026-04-16T12:22:56.114Z</time></trkpt><trkpt lat="44.6086683" lon="8.8516268"><ele>394.25</ele><time>2026-04-16T12:22:57.999Z</time></trkpt><trkpt lat="44.6086263" lon="8.85149"><ele>387.5</ele><time>2026-04-16T12:22:58.999Z</time></trkpt><trkpt lat="44.6085893" lon="8.8513456"><ele>380.75</ele><time>2026-04-16T12:22:59.999Z</time></trkpt><trkpt lat="44.6085559" lon="8.8511818"><ele>374.0</ele><time>2026-04-16T12:23:00.999Z</time></trkpt><trkpt lat="44.6085279" lon="8.8510117"><ele>373.5</ele><time>2026-04-16T12:23:01.999Z</time></trkpt><trkpt lat="44.6085038" lon="8.8508325"><ele>373.0</ele><time>2026-04-16T12:23:02.999Z</time></trkpt><trkpt lat="44.6084774" lon="8.8506557"><ele>372.5</ele><time>2026-04-16T12:23:03.999Z</time></trkpt><trkpt lat="44.6084443" lon="8.8504793"><ele>372.0</ele><time>2026-04-16T12:23:04.999Z</time></trkpt><trkpt lat="44.6084252" lon="8.8503038"><ele>373.3333333333333</ele><time>2026-04-16T12:23:06.102Z</time></trkpt><trkpt lat="44.6083822" lon="8.8499288"><ele>374.66666666666663</ele><time>2026-04-16T12:23:07.999Z</time></trkpt><trkpt lat="44.6083621" lon="8.849744"><ele>376.0</ele><time>2026-04-16T12:23:08.999Z</time></trkpt><trkpt lat="44.6083403" lon="8.8495627"><ele>376.0</ele><time>2026-04-16T12:23:09.999Z</time></trkpt><trkpt lat="44.6083296" lon="8.8493912"><ele>376.0</ele><time>2026-04-16T12:23:10.999Z</time></trkpt><trkpt lat="44.6083362" lon="8.8492272"><ele>376.0</ele><time>2026-04-16T12:23:11.999Z</time></trkpt><trkpt lat="44.6083406" lon="8.84905"><ele>376.0</ele><time>2026-04-16T12:23:12.999Z</time></trkpt><trkpt lat="44.6083563" lon="8.8488781"><ele>375.25</ele><time>2026-04-16T12:23:13.999Z</time></trkpt><trkpt lat="44.6083825" lon="8.8487158"><ele>374.5</ele><time>2026-04-16T12:23:14.999Z</time></trkpt><trkpt lat="44.6084245" lon="8.8485511"><ele>373.75</ele><time>2026-04-16T12:23:15.999Z</time></trkpt><trkpt lat="44.6084688" lon="8.8483936"><ele>373.0</ele><time>2026-04-16T12:23:16.999Z</time></trkpt><trkpt lat="44.6085334" lon="8.8482628"><ele>371.75</ele><time>2026-04-16T12:23:17.999Z</time></trkpt><trkpt lat="44.608599" lon="8.8481092"><ele>370.5</ele><time>2026-04-16T12:23:18.999Z</time></trkpt><trkpt lat="44.6086751" lon="8.8479696"><ele>369.25</ele><time>2026-04-16T12:23:19.999Z</time></trkpt><trkpt lat="44.608758" lon="8.8478309"><ele>368.0</ele><time>2026-04-16T12:23:20.999Z</time></trkpt><trkpt lat="44.6088387" lon="8.8477029"><ele>366.5</ele><time>2026-04-16T12:23:21.999Z</time></trkpt><trkpt lat="44.608918" lon="8.8475842"><ele>365.0</ele><time>2026-04-16T12:23:22.999Z</time></trkpt><trkpt lat="44.6090001" lon="8.8474848"><ele>363.5</ele><time>2026-04-16T12:23:23.999Z</time></trkpt><trkpt lat="44.6090904" lon="8.8473834"><ele>362.0</ele><time>2026-04-16T12:23:24.999Z</time></trkpt><trkpt lat="44.6091921" lon="8.8472893"><ele>362.0</ele><time>2026-04-16T12:23:25.999Z</time></trkpt><trkpt lat="44.6092933" lon="8.847209"><ele>362.0</ele><time>2026-04-16T12:23:26.999Z</time></trkpt><trkpt lat="44.6094063" lon="8.8471457"><ele>362.0</ele><time>2026-04-16T12:23:27.999Z</time></trkpt><trkpt lat="44.6095233" lon="8.8470903"><ele>362.0</ele><time>2026-04-16T12:23:28.999Z</time></trkpt><trkpt lat="44.6096502" lon="8.8470738"><ele>365.0</ele><time>2026-04-16T12:23:29.999Z</time></trkpt><trkpt lat="44.6097781" lon="8.847044"><ele>368.0</ele><time>2026-04-16T12:23:30.999Z</time></trkpt><trkpt lat="44.6099051" lon="8.8470324"><ele>371.0</ele><time>2026-04-16T12:23:31.999Z</time></trkpt><trkpt lat="44.6100357" lon="8.8470293"><ele>374.0</ele><time>2026-04-16T12:23:32.999Z</time></trkpt><trkpt lat="44.6101613" lon="8.8470284"><ele>374.0</ele><time>2026-04-16T12:23:33.999Z</time></trkpt><trkpt lat="44.6102872" lon="8.8470183"><ele>374.0</ele><time>2026-04-16T12:23:34.999Z</time></trkpt><trkpt lat="44.6104102" lon="8.8470028"><ele>374.0</ele><time>2026-04-16T12:23:35.999Z</time></trkpt><trkpt lat="44.6105319" lon="8.8469918"><ele>374.0</ele><time>2026-04-16T12:23:36.999Z</time></trkpt><trkpt lat="44.6106539" lon="8.8469858"><ele>372.0</ele><time>2026-04-16T12:23:37.999Z</time></trkpt><trkpt lat="44.6107783" lon="8.8469699"><ele>370.0</ele><time>2026-04-16T12:23:38.999Z</time></trkpt><trkpt lat="44.6108993" lon="8.8469492"><ele>368.0</ele><time>2026-04-16T12:23:39.999Z</time></trkpt><trkpt lat="44.611021" lon="8.8469306"><ele>366.0</ele><time>2026-04-16T12:23:40.999Z</time></trkpt><trkpt lat="44.611145" lon="8.8469056"><ele>365.5</ele><time>2026-04-16T12:23:41.999Z</time></trkpt><trkpt lat="44.6112598" lon="8.8468797"><ele>365.0</ele><time>2026-04-16T12:23:42.999Z</time></trkpt><trkpt lat="44.6113785" lon="8.8468413"><ele>364.5</ele><time>2026-04-16T12:23:43.999Z</time></trkpt><trkpt lat="44.6114952" lon="8.8467937"><ele>364.0</ele><time>2026-04-16T12:23:44.999Z</time></trkpt><trkpt lat="44.6116132" lon="8.8467408"><ele>361.5</ele><time>2026-04-16T12:23:45.999Z</time></trkpt><trkpt lat="44.6117258" lon="8.846696"><ele>359.0</ele><time>2026-04-16T12:23:46.999Z</time></trkpt><trkpt lat="44.6118285" lon="8.8466562"><ele>356.5</ele><time>2026-04-16T12:23:47.999Z</time></trkpt><trkpt lat="44.6119457" lon="8.8466278"><ele>354.0</ele><time>2026-04-16T12:23:48.999Z</time></trkpt><trkpt lat="44.6120568" lon="8.8466033"><ele>354.0</ele><time>2026-04-16T12:23:49.999Z</time></trkpt><trkpt lat="44.6121749" lon="8.8465733"><ele>354.0</ele><time>2026-04-16T12:23:50.999Z</time></trkpt><trkpt lat="44.6122906" lon="8.846554"><ele>354.0</ele><time>2026-04-16T12:23:51.999Z</time></trkpt><trkpt lat="44.6124059" lon="8.846534"><ele>354.0</ele><time>2026-04-16T12:23:52.999Z</time></trkpt><trkpt lat="44.6125248" lon="8.8465199"><ele>354.0</ele><time>2026-04-16T12:23:53.999Z</time></trkpt><trkpt lat="44.6126391" lon="8.8465025"><ele>354.0</ele><time>2026-04-16T12:23:55Z</time></trkpt><trkpt lat="44.6127472" lon="8.8464833"><ele>354.0</ele><time>2026-04-16T12:23:55.999Z</time></trkpt><trkpt lat="44.6128587" lon="8.8464563"><ele>354.0</ele><time>2026-04-16T12:23:56.999Z</time></trkpt><trkpt lat="44.6129676" lon="8.8464244"><ele>354.0</ele><time>2026-04-16T12:23:57.999Z</time></trkpt><trkpt lat="44.6130772" lon="8.8463848"><ele>354.75</ele><time>2026-04-16T12:23:58.999Z</time></trkpt><trkpt lat="44.6131935" lon="8.8463454"><ele>355.5</ele><time>2026-04-16T12:23:59.999Z</time></trkpt><trkpt lat="44.6133053" lon="8.8463058"><ele>356.25</ele><time>2026-04-16T12:24:00.999Z</time></trkpt><trkpt lat="44.6134181" lon="8.8462593"><ele>357.0</ele><time>2026-04-16T12:24:01.999Z</time></trkpt><trkpt lat="44.6135359" lon="8.8462102"><ele>357.0</ele><time>2026-04-16T12:24:02.999Z</time></trkpt><trkpt lat="44.6136483" lon="8.8461735"><ele>357.0</ele><time>2026-04-16T12:24:03.999Z</time></trkpt><trkpt lat="44.613753" lon="8.8461312"><ele>357.0</ele><time>2026-04-16T12:24:04.999Z</time></trkpt><trkpt lat="44.6138563" lon="8.8460891"><ele>357.0</ele><time>2026-04-16T12:24:05.999Z</time></trkpt><trkpt lat="44.6139699" lon="8.8460633"><ele>357.0</ele><time>2026-04-16T12:24:06.999Z</time></trkpt><trkpt lat="44.6140672" lon="8.8460296"><ele>358.20000000000005</ele><time>2026-04-16T12:24:07.999Z</time></trkpt><trkpt lat="44.6141713" lon="8.8459922"><ele>359.4</ele><time>2026-04-16T12:24:08.999Z</time></trkpt><trkpt lat="44.6142767" lon="8.8459617"><ele>360.6</ele><time>2026-04-16T12:24:09.999Z</time></trkpt><trkpt lat="44.6143863" lon="8.8459303"><ele>361.79999999999995</ele><time>2026-04-16T12:24:10.999Z</time></trkpt><trkpt lat="44.6144921" lon="8.8458805"><ele>363.0</ele><time>2026-04-16T12:24:11.999Z</time></trkpt><trkpt lat="44.6145928" lon="8.8458042"><ele>359.5</ele><time>2026-04-16T12:24:12.999Z</time></trkpt><trkpt lat="44.6146883" lon="8.8457149"><ele>356.0</ele><time>2026-04-16T12:24:13.999Z</time></trkpt><trkpt lat="44.614778" lon="8.8456148"><ele>352.5</ele><time>2026-04-16T12:24:14.999Z</time></trkpt><trkpt lat="44.6148614" lon="8.8455074"><ele>349.0</ele><time>2026-04-16T12:24:15.999Z</time></trkpt><trkpt lat="44.6149412" lon="8.8453862"><ele>349.0</ele><time>2026-04-16T12:24:16.999Z</time></trkpt><trkpt lat="44.6150164" lon="8.845275"><ele>349.0</ele><time>2026-04-16T12:24:17.999Z</time></trkpt><trkpt lat="44.6150943" lon="8.8451843"><ele>349.0</ele><time>2026-04-16T12:24:19Z</time></trkpt><trkpt lat="44.6151813" lon="8.8451187"><ele>349.0</ele><time>2026-04-16T12:24:20.105Z</time></trkpt><trkpt lat="44.6153525" lon="8.8450545"><ele>348.0</ele><time>2026-04-16T12:24:22.101Z</time></trkpt><trkpt lat="44.6155115" lon="8.8450603"><ele>347.0</ele><time>2026-04-16T12:24:23.999Z</time></trkpt><trkpt lat="44.6155961" lon="8.8450352"><ele>346.0</ele><time>2026-04-16T12:24:24.999Z</time></trkpt><trkpt lat="44.6156764" lon="8.8449705"><ele>345.0</ele><time>2026-04-16T12:24:26.104Z</time></trkpt><trkpt lat="44.6157391" lon="8.8448879"><ele>344.0</ele><time>2026-04-16T12:24:27.106Z</time></trkpt><trkpt lat="44.6158955" lon="8.8447595"><ele>344.0</ele><time>2026-04-16T12:24:28.999Z</time></trkpt><trkpt lat="44.6160246" lon="8.8447352"><ele>344.0</ele><time>2026-04-16T12:24:29.999Z</time></trkpt><trkpt lat="44.6161497" lon="8.8447299"><ele>344.0</ele><time>2026-04-16T12:24:31.114Z</time></trkpt><trkpt lat="44.6163862" lon="8.8448056"><ele>343.75</ele><time>2026-04-16T12:24:32.999Z</time></trkpt><trkpt lat="44.6165104" lon="8.8448522"><ele>343.5</ele><time>2026-04-16T12:24:33.999Z</time></trkpt><trkpt lat="44.6166261" lon="8.8449093"><ele>343.25</ele><time>2026-04-16T12:24:34.999Z</time></trkpt><trkpt lat="44.6167326" lon="8.8449717"><ele>343.0</ele><time>2026-04-16T12:24:35.999Z</time></trkpt><trkpt lat="44.6168568" lon="8.8450342"><ele>343.0</ele><time>2026-04-16T12:24:36.999Z</time></trkpt><trkpt lat="44.6169826" lon="8.8450954"><ele>343.0</ele><time>2026-04-16T12:24:37.999Z</time></trkpt><trkpt lat="44.6171093" lon="8.8451523"><ele>343.0</ele><time>2026-04-16T12:24:38.999Z</time></trkpt><trkpt lat="44.6172419" lon="8.8452132"><ele>343.0</ele><time>2026-04-16T12:24:39.999Z</time></trkpt><trkpt lat="44.6173758" lon="8.8452837"><ele>343.75</ele><time>2026-04-16T12:24:40.999Z</time></trkpt><trkpt lat="44.6175074" lon="8.8453351"><ele>344.5</ele><time>2026-04-16T12:24:41.999Z</time></trkpt><trkpt lat="44.6176409" lon="8.8453774"><ele>345.25</ele><time>2026-04-16T12:24:42.999Z</time></trkpt><trkpt lat="44.6177756" lon="8.8453811"><ele>346.0</ele><time>2026-04-16T12:24:43.999Z</time></trkpt><trkpt lat="44.6179175" lon="8.8453634"><ele>346.0</ele><time>2026-04-16T12:24:45.105Z</time></trkpt><trkpt lat="44.6181439" lon="8.8452149"><ele>346.0</ele><time>2026-04-16T12:24:47.111Z</time></trkpt><trkpt lat="44.6183501" lon="8.8450138"><ele>342.75</ele><time>2026-04-16T12:24:48.999Z</time></trkpt><trkpt lat="44.6184591" lon="8.8449057"><ele>339.5</ele><time>2026-04-16T12:24:49.999Z</time></trkpt><trkpt lat="44.6185664" lon="8.8448304"><ele>336.25</ele><time>2026-04-16T12:24:50.999Z</time></trkpt><trkpt lat="44.618674" lon="8.8447527"><ele>333.0</ele><time>2026-04-16T12:24:52.106Z</time></trkpt><trkpt lat="44.6189306" lon="8.8446812"><ele>333.0</ele><time>2026-04-16T12:24:53.999Z</time></trkpt><trkpt lat="44.6190404" lon="8.8446757"><ele>333.0</ele><time>2026-04-16T12:24:54.999Z</time></trkpt><trkpt lat="44.6191705" lon="8.8446921"><ele>333.0</ele><time>2026-04-16T12:24:55.999Z</time></trkpt><trkpt lat="44.6192786" lon="8.8447377"><ele>333.0</ele><time>2026-04-16T12:24:56.999Z</time></trkpt><trkpt lat="44.6193927" lon="8.8447785"><ele>329.75</ele><time>2026-04-16T12:24:57.999Z</time></trkpt><trkpt lat="44.6195111" lon="8.8448217"><ele>326.5</ele><time>2026-04-16T12:24:58.999Z</time></trkpt><trkpt lat="44.6196335" lon="8.8448731"><ele>323.25</ele><time>2026-04-16T12:24:59.999Z</time></trkpt><trkpt lat="44.6197526" lon="8.8449226"><ele>320.0</ele><time>2026-04-16T12:25:00.999Z</time></trkpt><trkpt lat="44.6198745" lon="8.8449719"><ele>320.0</ele><time>2026-04-16T12:25:01.999Z</time></trkpt><trkpt lat="44.6199987" lon="8.8450192"><ele>320.0</ele><time>2026-04-16T12:25:02.999Z</time></trkpt><trkpt lat="44.6201172" lon="8.845068"><ele>320.0</ele><time>2026-04-16T12:25:03.999Z</time></trkpt><trkpt lat="44.6202431" lon="8.8451098"><ele>320.0</ele><time>2026-04-16T12:25:04.999Z</time></trkpt><trkpt lat="44.620375" lon="8.8451615"><ele>318.5</ele><time>2026-04-16T12:25:05.999Z</time></trkpt><trkpt lat="44.6205152" lon="8.8452032"><ele>317.0</ele><time>2026-04-16T12:25:06.999Z</time></trkpt><trkpt lat="44.6206452" lon="8.8452498"><ele>315.5</ele><time>2026-04-16T12:25:07.999Z</time></trkpt><trkpt lat="44.6207727" lon="8.8452991"><ele>314.0</ele><time>2026-04-16T12:25:08.999Z</time></trkpt><trkpt lat="44.6209106" lon="8.8453456"><ele>314.0</ele><time>2026-04-16T12:25:09.999Z</time></trkpt><trkpt lat="44.621047" lon="8.8453996"><ele>314.0</ele><time>2026-04-16T12:25:10.999Z</time></trkpt><trkpt lat="44.621179" lon="8.8454554"><ele>314.0</ele><time>2026-04-16T12:25:11.999Z</time></trkpt><trkpt lat="44.6213182" lon="8.8455024"><ele>314.0</ele><time>2026-04-16T12:25:12.999Z</time></trkpt><trkpt lat="44.6214588" lon="8.845569"><ele>313.75</ele><time>2026-04-16T12:25:13.999Z</time></trkpt><trkpt lat="44.6215887" lon="8.8456289"><ele>313.5</ele><time>2026-04-16T12:25:14.999Z</time></trkpt><trkpt lat="44.6217177" lon="8.8457155"><ele>313.25</ele><time>2026-04-16T12:25:15.999Z</time></trkpt><trkpt lat="44.6218526" lon="8.8457983"><ele>313.0</ele><time>2026-04-16T12:25:16.999Z</time></trkpt><trkpt lat="44.6219921" lon="8.8458924"><ele>313.3333333333333</ele><time>2026-04-16T12:25:17.999Z</time></trkpt><trkpt lat="44.6221301" lon="8.8459877"><ele>313.6666666666667</ele><time>2026-04-16T12:25:18.999Z</time></trkpt><trkpt lat="44.6222686" lon="8.8460857"><ele>314.0</ele><time>2026-04-16T12:25:19.999Z</time></trkpt><trkpt lat="44.6224067" lon="8.8461809"><ele>314.0</ele><time>2026-04-16T12:25:20.999Z</time></trkpt><trkpt lat="44.6225455" lon="8.8462795"><ele>314.0</ele><time>2026-04-16T12:25:22.107Z</time></trkpt><trkpt lat="44.6228229" lon="8.8464621"><ele>316.6666666666667</ele><time>2026-04-16T12:25:23.999Z</time></trkpt><trkpt lat="44.622967" lon="8.8465469"><ele>319.3333333333333</ele><time>2026-04-16T12:25:24.999Z</time></trkpt><trkpt lat="44.6231131" lon="8.8466046"><ele>322.0</ele><time>2026-04-16T12:25:25.999Z</time></trkpt><trkpt lat="44.6232682" lon="8.8466291"><ele>322.0</ele><time>2026-04-16T12:25:26.999Z</time></trkpt><trkpt lat="44.6234351" lon="8.846632"><ele>322.0</ele><time>2026-04-16T12:25:27.999Z</time></trkpt><trkpt lat="44.6235916" lon="8.846602"><ele>322.0</ele><time>2026-04-16T12:25:28.999Z</time></trkpt><trkpt lat="44.6237602" lon="8.8465631"><ele>322.0</ele><time>2026-04-16T12:25:30.111Z</time></trkpt><trkpt lat="44.6239017" lon="8.8464662"><ele>322.0</ele><time>2026-04-16T12:25:31.113Z</time></trkpt><trkpt lat="44.6240419" lon="8.8463532"><ele>322.0</ele><time>2026-04-16T12:25:32.113Z</time></trkpt><trkpt lat="44.6242949" lon="8.8460656"><ele>322.5</ele><time>2026-04-16T12:25:33.999Z</time></trkpt><trkpt lat="44.6244137" lon="8.8459155"><ele>323.0</ele><time>2026-04-16T12:25:35.1Z</time></trkpt><trkpt lat="44.6246562" lon="8.8455774"><ele>323.0</ele><time>2026-04-16T12:25:37.114Z</time></trkpt><trkpt lat="44.6248983" lon="8.845272"><ele>323.0</ele><time>2026-04-16T12:25:38.999Z</time></trkpt><trkpt lat="44.6250191" lon="8.8451271"><ele>323.0</ele><time>2026-04-16T12:25:40.114Z</time></trkpt><trkpt lat="44.6252473" lon="8.8448334"><ele>323.0</ele><time>2026-04-16T12:25:41.999Z</time></trkpt><trkpt lat="44.6253601" lon="8.8446869"><ele>324.33333333333337</ele><time>2026-04-16T12:25:42.999Z</time></trkpt><trkpt lat="44.6254761" lon="8.8445448"><ele>325.6666666666667</ele><time>2026-04-16T12:25:43.999Z</time></trkpt><trkpt lat="44.6255878" lon="8.8444005"><ele>327.0</ele><time>2026-04-16T12:25:45.132Z</time></trkpt><trkpt lat="44.6257063" lon="8.8442524"><ele>327.5</ele><time>2026-04-16T12:25:46.107Z</time></trkpt><trkpt lat="44.6258244" lon="8.8441022"><ele>328.0</ele><time>2026-04-16T12:25:47.109Z</time></trkpt><trkpt lat="44.6260709" lon="8.8438014"><ele>327.66666666666663</ele><time>2026-04-16T12:25:48.999Z</time></trkpt><trkpt lat="44.6261969" lon="8.8436435"><ele>327.3333333333333</ele><time>2026-04-16T12:25:49.999Z</time></trkpt><trkpt lat="44.626331" lon="8.8434948"><ele>327.0</ele><time>2026-04-16T12:25:50.999Z</time></trkpt><trkpt lat="44.6264722" lon="8.8433469"><ele>327.0</ele><time>2026-04-16T12:25:51.999Z</time></trkpt><trkpt lat="44.626616" lon="8.8432357"><ele>327.0</ele><time>2026-04-16T12:25:52.999Z</time></trkpt><trkpt lat="44.6267743" lon="8.84316"><ele>327.0</ele><time>2026-04-16T12:25:54Z</time></trkpt><trkpt lat="44.6269343" lon="8.8430879"><ele>326.6666666666667</ele><time>2026-04-16T12:25:54.999Z</time></trkpt><trkpt lat="44.6270962" lon="8.8430173"><ele>326.33333333333337</ele><time>2026-04-16T12:25:55.999Z</time></trkpt><trkpt lat="44.6272746" lon="8.8429688"><ele>326.0</ele><time>2026-04-16T12:25:56.999Z</time></trkpt><trkpt lat="44.6274377" lon="8.8429254"><ele>326.0</ele><time>2026-04-16T12:25:57.999Z</time></trkpt><trkpt lat="44.6276083" lon="8.8428905"><ele>326.0</ele><time>2026-04-16T12:25:58.999Z</time></trkpt><trkpt lat="44.6277798" lon="8.8428654"><ele>326.0</ele><time>2026-04-16T12:25:59.999Z</time></trkpt><trkpt lat="44.6279523" lon="8.8428379"><ele>323.6666666666667</ele><time>2026-04-16T12:26:00.999Z</time></trkpt><trkpt lat="44.6281281" lon="8.8428149"><ele>321.3333333333333</ele><time>2026-04-16T12:26:02Z</time></trkpt><trkpt lat="44.6282953" lon="8.8427917"><ele>319.0</ele><time>2026-04-16T12:26:02.999Z</time></trkpt><trkpt lat="44.6284601" lon="8.8427823"><ele>319.0</ele><time>2026-04-16T12:26:03.999Z</time></trkpt><trkpt lat="44.6286303" lon="8.8427809"><ele>319.0</ele><time>2026-04-16T12:26:04.999Z</time></trkpt><trkpt lat="44.6287997" lon="8.8427679"><ele>319.0</ele><time>2026-04-16T12:26:05.999Z</time></trkpt><trkpt lat="44.6289634" lon="8.8427365"><ele>320.0</ele><time>2026-04-16T12:26:06.999Z</time></trkpt><trkpt lat="44.629118" lon="8.8426852"><ele>321.0</ele><time>2026-04-16T12:26:07.999Z</time></trkpt><trkpt lat="44.6292598" lon="8.8426094"><ele>322.0</ele><time>2026-04-16T12:26:08.999Z</time></trkpt><trkpt lat="44.6293988" lon="8.8425138"><ele>320.25</ele><time>2026-04-16T12:26:09.999Z</time></trkpt><trkpt lat="44.6295342" lon="8.8424152"><ele>318.5</ele><time>2026-04-16T12:26:10.999Z</time></trkpt><trkpt lat="44.6296676" lon="8.8423267"><ele>316.75</ele><time>2026-04-16T12:26:11.999Z</time></trkpt><trkpt lat="44.6297965" lon="8.84224"><ele>315.0</ele><time>2026-04-16T12:26:12.999Z</time></trkpt><trkpt lat="44.6299219" lon="8.8421559"><ele>315.0</ele><time>2026-04-16T12:26:13.999Z</time></trkpt><trkpt lat="44.6300456" lon="8.8420801"><ele>315.0</ele><time>2026-04-16T12:26:14.999Z</time></trkpt><trkpt lat="44.6301679" lon="8.8420343"><ele>315.0</ele><time>2026-04-16T12:26:15.999Z</time></trkpt><trkpt lat="44.6303018" lon="8.8420388"><ele>315.0</ele><time>2026-04-16T12:26:16.999Z</time></trkpt><trkpt lat="44.630425" lon="8.842077"><ele>313.75</ele><time>2026-04-16T12:26:17.999Z</time></trkpt><trkpt lat="44.6305177" lon="8.8421185"><ele>312.5</ele><time>2026-04-16T12:26:18.999Z</time></trkpt><trkpt lat="44.630635" lon="8.8421527"><ele>311.25</ele><time>2026-04-16T12:26:19.999Z</time></trkpt><trkpt lat="44.630751" lon="8.8421639"><ele>310.0</ele><time>2026-04-16T12:26:20.999Z</time></trkpt><trkpt lat="44.6308689" lon="8.8421378"><ele>310.0</ele><time>2026-04-16T12:26:21.999Z</time></trkpt><trkpt lat="44.6309911" lon="8.8420987"><ele>310.0</ele><time>2026-04-16T12:26:22.999Z</time></trkpt><trkpt lat="44.6311155" lon="8.8420504"><ele>310.0</ele><time>2026-04-16T12:26:23.999Z</time></trkpt><trkpt lat="44.6312399" lon="8.8420119"><ele>310.0</ele><time>2026-04-16T12:26:24.999Z</time></trkpt><trkpt lat="44.6313378" lon="8.8419637"><ele>310.2</ele><time>2026-04-16T12:26:25.998Z</time></trkpt><trkpt lat="44.6314308" lon="8.8419304"><ele>310.4</ele><time>2026-04-16T12:26:26.999Z</time></trkpt><trkpt lat="44.6315349" lon="8.8418905"><ele>310.6</ele><time>2026-04-16T12:26:28.999Z</time></trkpt><trkpt lat="44.6316077" lon="8.8418728"><ele>310.8</ele><time>2026-04-16T12:26:30.998Z</time></trkpt><trkpt lat="44.6316964" lon="8.8418703"><ele>311.0</ele><time>2026-04-16T12:26:44.999Z</time></trkpt><trkpt lat="44.6318131" lon="8.8418116"><ele>314.0</ele><time>2026-04-16T12:26:46.999Z</time></trkpt><trkpt lat="44.6319385" lon="8.8417324"><ele>317.0</ele><time>2026-04-16T12:26:48.999Z</time></trkpt><trkpt lat="44.6320243" lon="8.8417308"><ele>320.0</ele><time>2026-04-16T12:26:49.999Z</time></trkpt><trkpt lat="44.6321093" lon="8.841749"><ele>323.0</ele><time>2026-04-16T12:26:50.999Z</time></trkpt><trkpt lat="44.6321968" lon="8.8418014"><ele>326.0</ele><time>2026-04-16T12:26:51.999Z</time></trkpt><trkpt lat="44.6322896" lon="8.8418792"><ele>326.0</ele><time>2026-04-16T12:26:52.999Z</time></trkpt><trkpt lat="44.6323702" lon="8.8419799"><ele>326.0</ele><time>2026-04-16T12:26:53.999Z</time></trkpt><trkpt lat="44.6324382" lon="8.8421011"><ele>326.0</ele><time>2026-04-16T12:26:54.999Z</time></trkpt><trkpt lat="44.6324746" lon="8.8422363"><ele>326.0</ele><time>2026-04-16T12:26:55.999Z</time></trkpt><trkpt lat="44.6324836" lon="8.8423922"><ele>326.0</ele><time>2026-04-16T12:26:56.999Z</time></trkpt><trkpt lat="44.6324787" lon="8.8425335"><ele>324.0</ele><time>2026-04-16T12:26:57.999Z</time></trkpt><trkpt lat="44.6324622" lon="8.8426611"><ele>322.0</ele><time>2026-04-16T12:26:58.999Z</time></trkpt><trkpt lat="44.6324742" lon="8.842784"><ele>320.0</ele><time>2026-04-16T12:26:59.999Z</time></trkpt><trkpt lat="44.6325134" lon="8.8429041"><ele>318.0</ele><time>2026-04-16T12:27:00.999Z</time></trkpt><trkpt lat="44.632572" lon="8.8430169"><ele>316.0</ele><time>2026-04-16T12:27:01.998Z</time></trkpt><trkpt lat="44.632648" lon="8.8430832"><ele>316.0</ele><time>2026-04-16T12:27:02.999Z</time></trkpt><trkpt lat="44.6327431" lon="8.8431265"><ele>316.0</ele><time>2026-04-16T12:27:03.999Z</time></trkpt><trkpt lat="44.6328475" lon="8.8431211"><ele>316.0</ele><time>2026-04-16T12:27:04.999Z</time></trkpt><trkpt lat="44.6329515" lon="8.8431027"><ele>316.0</ele><time>2026-04-16T12:27:05.999Z</time></trkpt><trkpt lat="44.6330644" lon="8.8430373"><ele>316.0</ele><time>2026-04-16T12:27:06.999Z</time></trkpt><trkpt lat="44.6331739" lon="8.8429779"><ele>315.8</ele><time>2026-04-16T12:27:07.999Z</time></trkpt><trkpt lat="44.6332779" lon="8.8429328"><ele>315.6</ele><time>2026-04-16T12:27:08.999Z</time></trkpt><trkpt lat="44.6333857" lon="8.8428974"><ele>315.4</ele><time>2026-04-16T12:27:09.999Z</time></trkpt><trkpt lat="44.6335054" lon="8.8428772"><ele>315.2</ele><time>2026-04-16T12:27:10.999Z</time></trkpt><trkpt lat="44.6336119" lon="8.8428687"><ele>315.0</ele><time>2026-04-16T12:27:11.999Z</time></trkpt><trkpt lat="44.6337185" lon="8.8428663"><ele>312.75</ele><time>2026-04-16T12:27:12.999Z</time></trkpt><trkpt lat="44.633838" lon="8.8428524"><ele>310.5</ele><time>2026-04-16T12:27:13.999Z</time></trkpt><trkpt lat="44.633962" lon="8.8428307"><ele>308.25</ele><time>2026-04-16T12:27:14.999Z</time></trkpt><trkpt lat="44.6340782" lon="8.8427968"><ele>306.0</ele><time>2026-04-16T12:27:15.999Z</time></trkpt><trkpt lat="44.6342044" lon="8.8427614"><ele>306.0</ele><time>2026-04-16T12:27:16.999Z</time></trkpt><trkpt lat="44.6343319" lon="8.8427121"><ele>306.0</ele><time>2026-04-16T12:27:17.999Z</time></trkpt><trkpt lat="44.6344584" lon="8.8426621"><ele>306.0</ele><time>2026-04-16T12:27:18.999Z</time></trkpt><trkpt lat="44.6345794" lon="8.8426224"><ele>306.0</ele><time>2026-04-16T12:27:19.999Z</time></trkpt><trkpt lat="44.6347146" lon="8.8425717"><ele>310.0</ele><time>2026-04-16T12:27:20.999Z</time></trkpt><trkpt lat="44.6348389" lon="8.8425358"><ele>314.0</ele><time>2026-04-16T12:27:21.999Z</time></trkpt><trkpt lat="44.634963" lon="8.8425059"><ele>318.0</ele><time>2026-04-16T12:27:22.999Z</time></trkpt><trkpt lat="44.6350848" lon="8.8424734"><ele>322.0</ele><time>2026-04-16T12:27:23.999Z</time></trkpt><trkpt lat="44.6352059" lon="8.8424223"><ele>317.75</ele><time>2026-04-16T12:27:24.999Z</time></trkpt><trkpt lat="44.6353129" lon="8.8423416"><ele>313.5</ele><time>2026-04-16T12:27:25.999Z</time></trkpt><trkpt lat="44.6354076" lon="8.8422327"><ele>309.25</ele><time>2026-04-16T12:27:26.999Z</time></trkpt><trkpt lat="44.6354893" lon="8.8420925"><ele>305.0</ele><time>2026-04-16T12:27:27.999Z</time></trkpt><trkpt lat="44.6355632" lon="8.8419414"><ele>309.0</ele><time>2026-04-16T12:27:28.999Z</time></trkpt><trkpt lat="44.6356342" lon="8.8417831"><ele>313.0</ele><time>2026-04-16T12:27:29.999Z</time></trkpt><trkpt lat="44.6357066" lon="8.841627"><ele>317.0</ele><time>2026-04-16T12:27:30.999Z</time></trkpt><trkpt lat="44.6357808" lon="8.841469"><ele>321.0</ele><time>2026-04-16T12:27:32Z</time></trkpt><trkpt lat="44.6358568" lon="8.8413098"><ele>321.0</ele><time>2026-04-16T12:27:32.999Z</time></trkpt><trkpt lat="44.6359391" lon="8.841146"><ele>321.0</ele><time>2026-04-16T12:27:33.999Z</time></trkpt><trkpt lat="44.6360246" lon="8.8409854"><ele>321.0</ele><time>2026-04-16T12:27:34.999Z</time></trkpt><trkpt lat="44.6361197" lon="8.8408319"><ele>321.0</ele><time>2026-04-16T12:27:35.999Z</time></trkpt><trkpt lat="44.6362224" lon="8.8406811"><ele>318.6666666666667</ele><time>2026-04-16T12:27:36.999Z</time></trkpt><trkpt lat="44.6363279" lon="8.8405313"><ele>316.33333333333337</ele><time>2026-04-16T12:27:37.999Z</time></trkpt><trkpt lat="44.6364336" lon="8.840383"><ele>314.0</ele><time>2026-04-16T12:27:38.999Z</time></trkpt><trkpt lat="44.6365428" lon="8.8402266"><ele>317.0</ele><time>2026-04-16T12:27:39.999Z</time></trkpt><trkpt lat="44.6366526" lon="8.8400758"><ele>320.0</ele><time>2026-04-16T12:27:40.999Z</time></trkpt><trkpt lat="44.6367647" lon="8.8399147"><ele>323.0</ele><time>2026-04-16T12:27:41.999Z</time></trkpt><trkpt lat="44.6368795" lon="8.8397514"><ele>321.0</ele><time>2026-04-16T12:27:42.999Z</time></trkpt><trkpt lat="44.6369923" lon="8.8395895"><ele>319.0</ele><time>2026-04-16T12:27:43.999Z</time></trkpt><trkpt lat="44.6371034" lon="8.8394332"><ele>317.0</ele><time>2026-04-16T12:27:44.999Z</time></trkpt><trkpt lat="44.6372094" lon="8.8392892"><ele>317.0</ele><time>2026-04-16T12:27:45.999Z</time></trkpt><trkpt lat="44.6373054" lon="8.8391395"><ele>317.0</ele><time>2026-04-16T12:27:46.999Z</time></trkpt><trkpt lat="44.637384" lon="8.8389797"><ele>317.0</ele><time>2026-04-16T12:27:47.999Z</time></trkpt><trkpt lat="44.6374468" lon="8.8388076"><ele>317.0</ele><time>2026-04-16T12:27:48.999Z</time></trkpt><trkpt lat="44.6374993" lon="8.8386245"><ele>319.25</ele><time>2026-04-16T12:27:49.999Z</time></trkpt><trkpt lat="44.6375642" lon="8.8384365"><ele>321.5</ele><time>2026-04-16T12:27:50.999Z</time></trkpt><trkpt lat="44.6376336" lon="8.8382519"><ele>323.75</ele><time>2026-04-16T12:27:51.999Z</time></trkpt><trkpt lat="44.6377073" lon="8.8380707"><ele>326.0</ele><time>2026-04-16T12:27:52.999Z</time></trkpt><trkpt lat="44.6377815" lon="8.8378915"><ele>321.33333333333337</ele><time>2026-04-16T12:27:53.999Z</time></trkpt><trkpt lat="44.6378697" lon="8.8377143"><ele>316.6666666666667</ele><time>2026-04-16T12:27:54.999Z</time></trkpt><trkpt lat="44.6379486" lon="8.8375356"><ele>312.0</ele><time>2026-04-16T12:27:55.999Z</time></trkpt><trkpt lat="44.6380197" lon="8.8373492"><ele>312.0</ele><time>2026-04-16T12:27:56.999Z</time></trkpt><trkpt lat="44.6380896" lon="8.8371595"><ele>312.0</ele><time>2026-04-16T12:27:57.999Z</time></trkpt><trkpt lat="44.6381611" lon="8.8369718"><ele>312.0</ele><time>2026-04-16T12:27:58.999Z</time></trkpt><trkpt lat="44.638231" lon="8.8367981"><ele>312.0</ele><time>2026-04-16T12:27:59.999Z</time></trkpt><trkpt lat="44.6382951" lon="8.8366314"><ele>314.25</ele><time>2026-04-16T12:28:00.999Z</time></trkpt><trkpt lat="44.6383507" lon="8.8364719"><ele>316.5</ele><time>2026-04-16T12:28:01.999Z</time></trkpt><trkpt lat="44.6383967" lon="8.8363014"><ele>318.75</ele><time>2026-04-16T12:28:02.999Z</time></trkpt><trkpt lat="44.6384321" lon="8.8361283"><ele>321.0</ele><time>2026-04-16T12:28:03.999Z</time></trkpt><trkpt lat="44.6384566" lon="8.8359655"><ele>321.20000000000005</ele><time>2026-04-16T12:28:04.999Z</time></trkpt><trkpt lat="44.6384728" lon="8.8358088"><ele>321.40000000000003</ele><time>2026-04-16T12:28:05.999Z</time></trkpt><trkpt lat="44.6385003" lon="8.8356691"><ele>321.6</ele><time>2026-04-16T12:28:06.999Z</time></trkpt><trkpt lat="44.6385406" lon="8.8355351"><ele>321.8</ele><time>2026-04-16T12:28:07.999Z</time></trkpt><trkpt lat="44.6385934" lon="8.8354152"><ele>322.0</ele><time>2026-04-16T12:28:08.999Z</time></trkpt><trkpt lat="44.6386526" lon="8.8353454"><ele>322.75</ele><time>2026-04-16T12:28:09.999Z</time></trkpt><trkpt lat="44.6387236" lon="8.8353063"><ele>323.5</ele><time>2026-04-16T12:28:10.999Z</time></trkpt><trkpt lat="44.6388669" lon="8.8351849"><ele>324.25</ele><time>2026-04-16T12:28:11.999Z</time></trkpt><trkpt lat="44.6390173" lon="8.8351386"><ele>325.0</ele><time>2026-04-16T12:28:12.999Z</time></trkpt><trkpt lat="44.6391372" lon="8.8350732"><ele>325.0</ele><time>2026-04-16T12:28:13.999Z</time></trkpt><trkpt lat="44.6392547" lon="8.8349774"><ele>325.0</ele><time>2026-04-16T12:28:14.999Z</time></trkpt><trkpt lat="44.6393713" lon="8.8348863"><ele>325.0</ele><time>2026-04-16T12:28:15.999Z</time></trkpt><trkpt lat="44.6394628" lon="8.8347609"><ele>325.0</ele><time>2026-04-16T12:28:16.999Z</time></trkpt><trkpt lat="44.639551" lon="8.8346338"><ele>318.75</ele><time>2026-04-16T12:28:17.999Z</time></trkpt><trkpt lat="44.6396436" lon="8.8345203"><ele>312.5</ele><time>2026-04-16T12:28:18.999Z</time></trkpt><trkpt lat="44.6397616" lon="8.8344582"><ele>306.25</ele><time>2026-04-16T12:28:19.999Z</time></trkpt><trkpt lat="44.6398887" lon="8.8344092"><ele>300.0</ele><time>2026-04-16T12:28:20.999Z</time></trkpt><trkpt lat="44.6400267" lon="8.8343764"><ele>300.0</ele><time>2026-04-16T12:28:21.999Z</time></trkpt><trkpt lat="44.6401707" lon="8.834368"><ele>300.0</ele><time>2026-04-16T12:28:22.999Z</time></trkpt><trkpt lat="44.6403041" lon="8.8343846"><ele>300.0</ele><time>2026-04-16T12:28:23.999Z</time></trkpt><trkpt lat="44.6404589" lon="8.8344214"><ele>300.0</ele><time>2026-04-16T12:28:24.999Z</time></trkpt><trkpt lat="44.6405639" lon="8.8344913"><ele>298.25</ele><time>2026-04-16T12:28:25.999Z</time></trkpt><trkpt lat="44.6406842" lon="8.8345335"><ele>296.5</ele><time>2026-04-16T12:28:26.999Z</time></trkpt><trkpt lat="44.6408329" lon="8.8345229"><ele>294.75</ele><time>2026-04-16T12:28:27.999Z</time></trkpt><trkpt lat="44.64097" lon="8.8344844"><ele>293.0</ele><time>2026-04-16T12:28:28.999Z</time></trkpt><trkpt lat="44.6411102" lon="8.8344265"><ele>290.0</ele><time>2026-04-16T12:28:29.999Z</time></trkpt><trkpt lat="44.6412544" lon="8.8343556"><ele>287.0</ele><time>2026-04-16T12:28:30.999Z</time></trkpt><trkpt lat="44.6413967" lon="8.83428"><ele>284.0</ele><time>2026-04-16T12:28:31.999Z</time></trkpt><trkpt lat="44.6415433" lon="8.8341995"><ele>291.33333333333337</ele><time>2026-04-16T12:28:32.999Z</time></trkpt><trkpt lat="44.6416826" lon="8.8341218"><ele>298.6666666666667</ele><time>2026-04-16T12:28:33.999Z</time></trkpt><trkpt lat="44.6418174" lon="8.8340281"><ele>306.0</ele><time>2026-04-16T12:28:34.999Z</time></trkpt><trkpt lat="44.6419558" lon="8.833938"><ele>303.75</ele><time>2026-04-16T12:28:35.999Z</time></trkpt><trkpt lat="44.6420918" lon="8.8338505"><ele>301.5</ele><time>2026-04-16T12:28:36.999Z</time></trkpt><trkpt lat="44.6422334" lon="8.8337654"><ele>299.25</ele><time>2026-04-16T12:28:37.999Z</time></trkpt><trkpt lat="44.6423682" lon="8.8336911"><ele>297.0</ele><time>2026-04-16T12:28:38.999Z</time></trkpt><trkpt lat="44.6424979" lon="8.8336229"><ele>297.0</ele><time>2026-04-16T12:28:39.999Z</time></trkpt><trkpt lat="44.6426264" lon="8.8335588"><ele>297.0</ele><time>2026-04-16T12:28:40.999Z</time></trkpt><trkpt lat="44.6427657" lon="8.8334984"><ele>297.0</ele><time>2026-04-16T12:28:41.999Z</time></trkpt><trkpt lat="44.6429037" lon="8.8334365"><ele>297.0</ele><time>2026-04-16T12:28:42.999Z</time></trkpt><trkpt lat="44.643044" lon="8.8333713"><ele>296.6666666666667</ele><time>2026-04-16T12:28:43.999Z</time></trkpt><trkpt lat="44.6431937" lon="8.8333205"><ele>296.33333333333337</ele><time>2026-04-16T12:28:44.999Z</time></trkpt><trkpt lat="44.6433467" lon="8.8332649"><ele>296.0</ele><time>2026-04-16T12:28:45.999Z</time></trkpt><trkpt lat="44.6435013" lon="8.833204"><ele>293.33333333333337</ele><time>2026-04-16T12:28:46.999Z</time></trkpt><trkpt lat="44.6436562" lon="8.8331516"><ele>290.6666666666667</ele><time>2026-04-16T12:28:47.999Z</time></trkpt><trkpt lat="44.643811" lon="8.833102"><ele>288.0</ele><time>2026-04-16T12:28:48.999Z</time></trkpt><trkpt lat="44.64397" lon="8.8330563"><ele>288.0</ele><time>2026-04-16T12:28:49.999Z</time></trkpt><trkpt lat="44.6441332" lon="8.8330123"><ele>288.0</ele><time>2026-04-16T12:28:50.999Z</time></trkpt><trkpt lat="44.6442964" lon="8.8329519"><ele>288.0</ele><time>2026-04-16T12:28:51.999Z</time></trkpt><trkpt lat="44.6444496" lon="8.8328811"><ele>286.0</ele><time>2026-04-16T12:28:52.999Z</time></trkpt><trkpt lat="44.6446071" lon="8.8327985"><ele>284.0</ele><time>2026-04-16T12:28:53.999Z</time></trkpt><trkpt lat="44.6447595" lon="8.8327069"><ele>282.0</ele><time>2026-04-16T12:28:54.999Z</time></trkpt><trkpt lat="44.644913" lon="8.8326123"><ele>281.6666666666667</ele><time>2026-04-16T12:28:55.999Z</time></trkpt><trkpt lat="44.6450696" lon="8.832496"><ele>281.33333333333337</ele><time>2026-04-16T12:28:56.999Z</time></trkpt><trkpt lat="44.6452119" lon="8.8323927"><ele>281.0</ele><time>2026-04-16T12:28:57.999Z</time></trkpt><trkpt lat="44.6453752" lon="8.8322883"><ele>280.0</ele><time>2026-04-16T12:28:58.999Z</time></trkpt><trkpt lat="44.6455302" lon="8.8322259"><ele>279.0</ele><time>2026-04-16T12:28:59.999Z</time></trkpt><trkpt lat="44.6456945" lon="8.8321497"><ele>278.0</ele><time>2026-04-16T12:29:00.999Z</time></trkpt><trkpt lat="44.6458561" lon="8.8320928"><ele>278.0</ele><time>2026-04-16T12:29:01.999Z</time></trkpt><trkpt lat="44.6460262" lon="8.83203"><ele>278.0</ele><time>2026-04-16T12:29:02.999Z</time></trkpt><trkpt lat="44.6461936" lon="8.8319933"><ele>278.0</ele><time>2026-04-16T12:29:03.999Z</time></trkpt><trkpt lat="44.6463599" lon="8.8319601"><ele>275.33333333333337</ele><time>2026-04-16T12:29:04.999Z</time></trkpt><trkpt lat="44.6465222" lon="8.8319174"><ele>272.6666666666667</ele><time>2026-04-16T12:29:05.999Z</time></trkpt><trkpt lat="44.6466731" lon="8.8318617"><ele>270.0</ele><time>2026-04-16T12:29:06.999Z</time></trkpt><trkpt lat="44.6468283" lon="8.8317944"><ele>270.6666666666667</ele><time>2026-04-16T12:29:07.999Z</time></trkpt><trkpt lat="44.646982" lon="8.8317148"><ele>271.33333333333337</ele><time>2026-04-16T12:29:08.999Z</time></trkpt><trkpt lat="44.6471246" lon="8.8316389"><ele>272.0</ele><time>2026-04-16T12:29:09.999Z</time></trkpt><trkpt lat="44.6472683" lon="8.8315734"><ele>272.0</ele><time>2026-04-16T12:29:10.999Z</time></trkpt><trkpt lat="44.6474213" lon="8.8315231"><ele>272.0</ele><time>2026-04-16T12:29:11.999Z</time></trkpt><trkpt lat="44.6475711" lon="8.8314962"><ele>272.0</ele><time>2026-04-16T12:29:12.999Z</time></trkpt><trkpt lat="44.6477195" lon="8.8314805"><ele>274.5</ele><time>2026-04-16T12:29:13.999Z</time></trkpt><trkpt lat="44.6478589" lon="8.8314877"><ele>277.0</ele><time>2026-04-16T12:29:14.999Z</time></trkpt><trkpt lat="44.6479931" lon="8.8314981"><ele>279.5</ele><time>2026-04-16T12:29:15.999Z</time></trkpt><trkpt lat="44.6481281" lon="8.831518"><ele>282.0</ele><time>2026-04-16T12:29:16.999Z</time></trkpt><trkpt lat="44.6482607" lon="8.8315423"><ele>282.0</ele><time>2026-04-16T12:29:17.999Z</time></trkpt><trkpt lat="44.6483606" lon="8.8315746"><ele>282.0</ele><time>2026-04-16T12:29:18.999Z</time></trkpt><trkpt lat="44.6484889" lon="8.831625"><ele>282.0</ele><time>2026-04-16T12:29:19.999Z</time></trkpt><trkpt lat="44.6485911" lon="8.8317063"><ele>282.0</ele><time>2026-04-16T12:29:20.999Z</time></trkpt><trkpt lat="44.6486824" lon="8.8318058"><ele>281.2</ele><time>2026-04-16T12:29:21.999Z</time></trkpt><trkpt lat="44.6487646" lon="8.8319136"><ele>280.4</ele><time>2026-04-16T12:29:22.999Z</time></trkpt><trkpt lat="44.6488231" lon="8.8320215"><ele>279.6</ele><time>2026-04-16T12:29:23.999Z</time></trkpt><trkpt lat="44.6489053" lon="8.8321374"><ele>278.8</ele><time>2026-04-16T12:29:24.999Z</time></trkpt><trkpt lat="44.6489948" lon="8.8322211"><ele>278.0</ele><time>2026-04-16T12:29:25.999Z</time></trkpt><trkpt lat="44.6490894" lon="8.8322944"><ele>278.0</ele><time>2026-04-16T12:29:26.999Z</time></trkpt><trkpt lat="44.6491791" lon="8.8323381"><ele>278.0</ele><time>2026-04-16T12:29:27.999Z</time></trkpt><trkpt lat="44.6493022" lon="8.8322868"><ele>278.0</ele><time>2026-04-16T12:29:28.999Z</time></trkpt><trkpt lat="44.6494" lon="8.8322358"><ele>278.0</ele><time>2026-04-16T12:29:29.999Z</time></trkpt><trkpt lat="44.649507" lon="8.8321639"><ele>278.0</ele><time>2026-04-16T12:29:30.999Z</time></trkpt><trkpt lat="44.6496225" lon="8.8320815"><ele>275.5</ele><time>2026-04-16T12:29:31.999Z</time></trkpt><trkpt lat="44.6497433" lon="8.8319991"><ele>273.0</ele><time>2026-04-16T12:29:32.999Z</time></trkpt><trkpt lat="44.6498721" lon="8.8319202"><ele>270.5</ele><time>2026-04-16T12:29:33.999Z</time></trkpt><trkpt lat="44.6499993" lon="8.8318486"><ele>268.0</ele><time>2026-04-16T12:29:34.999Z</time></trkpt><trkpt lat="44.650137" lon="8.8317699"><ele>268.75</ele><time>2026-04-16T12:29:35.999Z</time></trkpt><trkpt lat="44.6502742" lon="8.8316932"><ele>269.5</ele><time>2026-04-16T12:29:36.999Z</time></trkpt><trkpt lat="44.6504037" lon="8.8316122"><ele>270.25</ele><time>2026-04-16T12:29:37.999Z</time></trkpt><trkpt lat="44.6505314" lon="8.8315444"><ele>271.0</ele><time>2026-04-16T12:29:38.999Z</time></trkpt><trkpt lat="44.6506573" lon="8.8314689"><ele>271.0</ele><time>2026-04-16T12:29:39.999Z</time></trkpt><trkpt lat="44.650784" lon="8.8313967"><ele>271.0</ele><time>2026-04-16T12:29:40.999Z</time></trkpt><trkpt lat="44.6509124" lon="8.8313219"><ele>271.0</ele><time>2026-04-16T12:29:41.999Z</time></trkpt><trkpt lat="44.6510293" lon="8.8312382"><ele>271.0</ele><time>2026-04-16T12:29:42.999Z</time></trkpt><trkpt lat="44.6511486" lon="8.8311449"><ele>272.5</ele><time>2026-04-16T12:29:43.999Z</time></trkpt><trkpt lat="44.6512572" lon="8.831045"><ele>274.0</ele><time>2026-04-16T12:29:44.999Z</time></trkpt><trkpt lat="44.6513626" lon="8.8309432"><ele>275.5</ele><time>2026-04-16T12:29:45.999Z</time></trkpt><trkpt lat="44.6514763" lon="8.8308426"><ele>277.0</ele><time>2026-04-16T12:29:46.999Z</time></trkpt><trkpt lat="44.6515922" lon="8.8307541"><ele>277.0</ele><time>2026-04-16T12:29:47.999Z</time></trkpt><trkpt lat="44.6517084" lon="8.8306674"><ele>277.0</ele><time>2026-04-16T12:29:48.999Z</time></trkpt><trkpt lat="44.6518171" lon="8.8305874"><ele>277.0</ele><time>2026-04-16T12:29:49.999Z</time></trkpt><trkpt lat="44.6519266" lon="8.8305084"><ele>277.0</ele><time>2026-04-16T12:29:50.999Z</time></trkpt><trkpt lat="44.6520317" lon="8.8304385"><ele>275.75</ele><time>2026-04-16T12:29:51.999Z</time></trkpt><trkpt lat="44.6521505" lon="8.8303878"><ele>274.5</ele><time>2026-04-16T12:29:52.999Z</time></trkpt><trkpt lat="44.6522659" lon="8.8303634"><ele>273.25</ele><time>2026-04-16T12:29:53.999Z</time></trkpt><trkpt lat="44.652376" lon="8.8303509"><ele>272.0</ele><time>2026-04-16T12:29:54.999Z</time></trkpt><trkpt lat="44.6524827" lon="8.8303359"><ele>272.0</ele><time>2026-04-16T12:29:55.999Z</time></trkpt><trkpt lat="44.6525946" lon="8.8303189"><ele>272.0</ele><time>2026-04-16T12:29:56.999Z</time></trkpt><trkpt lat="44.6526971" lon="8.8303259"><ele>272.0</ele><time>2026-04-16T12:29:57.999Z</time></trkpt><trkpt lat="44.6528061" lon="8.8303561"><ele>272.0</ele><time>2026-04-16T12:29:58.999Z</time></trkpt><trkpt lat="44.652917" lon="8.8304024"><ele>272.0</ele><time>2026-04-16T12:29:59.999Z</time></trkpt><trkpt lat="44.653021" lon="8.8304539"><ele>273.2</ele><time>2026-04-16T12:30:00.999Z</time></trkpt><trkpt lat="44.6531287" lon="8.8304971"><ele>274.4</ele><time>2026-04-16T12:30:01.999Z</time></trkpt><trkpt lat="44.6532431" lon="8.8305221"><ele>275.6</ele><time>2026-04-16T12:30:02.999Z</time></trkpt><trkpt lat="44.6533528" lon="8.8305368"><ele>276.8</ele><time>2026-04-16T12:30:03.999Z</time></trkpt><trkpt lat="44.6534641" lon="8.8305322"><ele>278.0</ele><time>2026-04-16T12:30:04.999Z</time></trkpt><trkpt lat="44.6535753" lon="8.8305337"><ele>278.6</ele><time>2026-04-16T12:30:05.999Z</time></trkpt><trkpt lat="44.6536816" lon="8.8305351"><ele>279.20000000000005</ele><time>2026-04-16T12:30:06.999Z</time></trkpt><trkpt lat="44.6537754" lon="8.8305392"><ele>279.8</ele><time>2026-04-16T12:30:07.999Z</time></trkpt><trkpt lat="44.6538676" lon="8.8305346"><ele>280.40000000000003</ele><time>2026-04-16T12:30:08.999Z</time></trkpt><trkpt lat="44.6539592" lon="8.8305373"><ele>281.0</ele><time>2026-04-16T12:30:09.999Z</time></trkpt><trkpt lat="44.6540349" lon="8.8305368"><ele>281.0</ele><time>2026-04-16T12:30:10.999Z</time></trkpt><trkpt lat="44.6541112" lon="8.8305426"><ele>281.0</ele><time>2026-04-16T12:30:11.999Z</time></trkpt><trkpt lat="44.6541788" lon="8.8305443"><ele>281.0</ele><time>2026-04-16T12:30:12.999Z</time></trkpt><trkpt lat="44.654242" lon="8.8305461"><ele>281.0</ele><time>2026-04-16T12:30:13.999Z</time></trkpt><trkpt lat="44.6543614" lon="8.8305458"><ele>281.0</ele><time>2026-04-16T12:30:15.999Z</time></trkpt><trkpt lat="44.6544716" lon="8.8305379"><ele>281.0</ele><time>2026-04-16T12:30:17.999Z</time></trkpt><trkpt lat="44.6545684" lon="8.8305354"><ele>280.33333333333337</ele><time>2026-04-16T12:30:19.999Z</time></trkpt><trkpt lat="44.6546399" lon="8.8305317"><ele>279.6666666666667</ele><time>2026-04-16T12:30:22.999Z</time></trkpt><trkpt lat="44.6547212" lon="8.8305408"><ele>279.0</ele><time>2026-04-16T12:30:41.999Z</time></trkpt><trkpt lat="44.6548058" lon="8.8305324"><ele>278.3333333333333</ele><time>2026-04-16T12:30:42.999Z</time></trkpt><trkpt lat="44.6548944" lon="8.8305214"><ele>277.66666666666663</ele><time>2026-04-16T12:30:43.999Z</time></trkpt><trkpt lat="44.654978" lon="8.83052"><ele>277.0</ele><time>2026-04-16T12:30:44.999Z</time></trkpt><trkpt lat="44.6550813" lon="8.8305134"><ele>277.0</ele><time>2026-04-16T12:30:45.999Z</time></trkpt><trkpt lat="44.6551855" lon="8.8305085"><ele>277.0</ele><time>2026-04-16T12:30:47.107Z</time></trkpt><trkpt lat="44.655412" lon="8.8304975"><ele>277.0</ele><time>2026-04-16T12:30:48.999Z</time></trkpt><trkpt lat="44.6555251" lon="8.8304946"><ele>277.0</ele><time>2026-04-16T12:30:49.997Z</time></trkpt><trkpt lat="44.6556398" lon="8.8304894"><ele>277.0</ele><time>2026-04-16T12:30:50.999Z</time></trkpt><trkpt lat="44.655764" lon="8.8304791"><ele>277.0</ele><time>2026-04-16T12:30:51.999Z</time></trkpt><trkpt lat="44.6558931" lon="8.8304658"><ele>277.0</ele><time>2026-04-16T12:30:52.999Z</time></trkpt><trkpt lat="44.6560199" lon="8.8304548"><ele>277.0</ele><time>2026-04-16T12:30:53.999Z</time></trkpt><trkpt lat="44.6561505" lon="8.8304437"><ele>276.66666666666663</ele><time>2026-04-16T12:30:54.999Z</time></trkpt><trkpt lat="44.6562785" lon="8.8304279"><ele>276.3333333333333</ele><time>2026-04-16T12:30:55.999Z</time></trkpt><trkpt lat="44.6565289" lon="8.8303904"><ele>276.0</ele><time>2026-04-16T12:30:57.999Z</time></trkpt><trkpt lat="44.6566475" lon="8.8303704"><ele>276.0</ele><time>2026-04-16T12:30:58.999Z</time></trkpt><trkpt lat="44.6567725" lon="8.8303566"><ele>276.0</ele><time>2026-04-16T12:30:59.999Z</time></trkpt><trkpt lat="44.6568901" lon="8.8303439"><ele>276.0</ele><time>2026-04-16T12:31:00.999Z</time></trkpt><trkpt lat="44.6570103" lon="8.8303312"><ele>276.0</ele><time>2026-04-16T12:31:01.999Z</time></trkpt><trkpt lat="44.6571248" lon="8.8303342"><ele>276.25</ele><time>2026-04-16T12:31:02.999Z</time></trkpt><trkpt lat="44.6572392" lon="8.8303782"><ele>276.5</ele><time>2026-04-16T12:31:03.999Z</time></trkpt><trkpt lat="44.6573574" lon="8.830424"><ele>276.75</ele><time>2026-04-16T12:31:04.999Z</time></trkpt><trkpt lat="44.657472" lon="8.8304718"><ele>277.0</ele><time>2026-04-16T12:31:05.999Z</time></trkpt><trkpt lat="44.6575892" lon="8.8305114"><ele>277.0</ele><time>2026-04-16T12:31:06.999Z</time></trkpt><trkpt lat="44.6577117" lon="8.8305644"><ele>277.0</ele><time>2026-04-16T12:31:07.999Z</time></trkpt><trkpt lat="44.6578278" lon="8.8306295"><ele>277.0</ele><time>2026-04-16T12:31:08.999Z</time></trkpt><trkpt lat="44.657945" lon="8.8306828"><ele>277.0</ele><time>2026-04-16T12:31:09.999Z</time></trkpt><trkpt lat="44.6580644" lon="8.830722"><ele>275.75</ele><time>2026-04-16T12:31:10.999Z</time></trkpt><trkpt lat="44.6581635" lon="8.8307767"><ele>274.5</ele><time>2026-04-16T12:31:11.999Z</time></trkpt><trkpt lat="44.6582862" lon="8.8308295"><ele>273.25</ele><time>2026-04-16T12:31:12.999Z</time></trkpt><trkpt lat="44.6584035" lon="8.8308902"><ele>272.0</ele><time>2026-04-16T12:31:13.999Z</time></trkpt><trkpt lat="44.6585096" lon="8.8309656"><ele>270.0</ele><time>2026-04-16T12:31:14.999Z</time></trkpt><trkpt lat="44.6586247" lon="8.8310362"><ele>268.0</ele><time>2026-04-16T12:31:15.999Z</time></trkpt><trkpt lat="44.6587332" lon="8.831119"><ele>266.0</ele><time>2026-04-16T12:31:16.999Z</time></trkpt><trkpt lat="44.6588468" lon="8.8311993"><ele>264.0</ele><time>2026-04-16T12:31:17.999Z</time></trkpt><trkpt lat="44.6589493" lon="8.8312922"><ele>264.0</ele><time>2026-04-16T12:31:18.999Z</time></trkpt><trkpt lat="44.6590583" lon="8.8313755"><ele>264.0</ele><time>2026-04-16T12:31:19.999Z</time></trkpt><trkpt lat="44.6591718" lon="8.8314505"><ele>264.0</ele><time>2026-04-16T12:31:20.999Z</time></trkpt><trkpt lat="44.6592875" lon="8.8315054"><ele>264.0</ele><time>2026-04-16T12:31:21.999Z</time></trkpt><trkpt lat="44.6594283" lon="8.8315116"><ele>262.5</ele><time>2026-04-16T12:31:22.999Z</time></trkpt><trkpt lat="44.6595524" lon="8.8315026"><ele>261.0</ele><time>2026-04-16T12:31:23.999Z</time></trkpt><trkpt lat="44.6596836" lon="8.8314361"><ele>259.5</ele><time>2026-04-16T12:31:24.999Z</time></trkpt><trkpt lat="44.6598024" lon="8.8313358"><ele>258.0</ele><time>2026-04-16T12:31:25.999Z</time></trkpt><trkpt lat="44.6599071" lon="8.8312131"><ele>258.0</ele><time>2026-04-16T12:31:26.999Z</time></trkpt><trkpt lat="44.6600063" lon="8.8310854"><ele>258.0</ele><time>2026-04-16T12:31:27.999Z</time></trkpt><trkpt lat="44.6601078" lon="8.8309637"><ele>258.0</ele><time>2026-04-16T12:31:28.999Z</time></trkpt><trkpt lat="44.66021" lon="8.8308441"><ele>258.0</ele><time>2026-04-16T12:31:29.999Z</time></trkpt><trkpt lat="44.6603147" lon="8.8307196"><ele>256.25</ele><time>2026-04-16T12:31:30.999Z</time></trkpt><trkpt lat="44.6604214" lon="8.8306166"><ele>254.5</ele><time>2026-04-16T12:31:31.999Z</time></trkpt><trkpt lat="44.660527" lon="8.8304915"><ele>252.75</ele><time>2026-04-16T12:31:32.999Z</time></trkpt><trkpt lat="44.6606314" lon="8.8303643"><ele>251.0</ele><time>2026-04-16T12:31:33.999Z</time></trkpt><trkpt lat="44.660736" lon="8.8302362"><ele>251.25</ele><time>2026-04-16T12:31:34.999Z</time></trkpt><trkpt lat="44.6608383" lon="8.8301104"><ele>251.5</ele><time>2026-04-16T12:31:35.999Z</time></trkpt><trkpt lat="44.6609418" lon="8.829984"><ele>251.75</ele><time>2026-04-16T12:31:36.999Z</time></trkpt><trkpt lat="44.6610365" lon="8.8298641"><ele>252.0</ele><time>2026-04-16T12:31:37.999Z</time></trkpt><trkpt lat="44.6611264" lon="8.8297354"><ele>252.0</ele><time>2026-04-16T12:31:38.999Z</time></trkpt><trkpt lat="44.6612109" lon="8.8296006"><ele>252.0</ele><time>2026-04-16T12:31:39.999Z</time></trkpt><trkpt lat="44.6612848" lon="8.8294617"><ele>252.0</ele><time>2026-04-16T12:31:40.999Z</time></trkpt><trkpt lat="44.661352" lon="8.8293186"><ele>252.0</ele><time>2026-04-16T12:31:41.999Z</time></trkpt><trkpt lat="44.6614166" lon="8.8291634"><ele>252.0</ele><time>2026-04-16T12:31:42.999Z</time></trkpt><trkpt lat="44.6614747" lon="8.8290072"><ele>252.0</ele><time>2026-04-16T12:31:43.999Z</time></trkpt><trkpt lat="44.6615357" lon="8.8288502"><ele>252.0</ele><time>2026-04-16T12:31:44.999Z</time></trkpt><trkpt lat="44.6615935" lon="8.8286977"><ele>252.0</ele><time>2026-04-16T12:31:45.999Z</time></trkpt><trkpt lat="44.6616499" lon="8.8285429"><ele>251.5</ele><time>2026-04-16T12:31:46.999Z</time></trkpt><trkpt lat="44.6617076" lon="8.8283906"><ele>251.0</ele><time>2026-04-16T12:31:47.999Z</time></trkpt><trkpt lat="44.6617684" lon="8.828233"><ele>250.5</ele><time>2026-04-16T12:31:48.999Z</time></trkpt><trkpt lat="44.6618287" lon="8.8280793"><ele>250.0</ele><time>2026-04-16T12:31:50.102Z</time></trkpt><trkpt lat="44.6619507" lon="8.8277632"><ele>248.75</ele><time>2026-04-16T12:31:51.999Z</time></trkpt><trkpt lat="44.662013" lon="8.8276177"><ele>247.5</ele><time>2026-04-16T12:31:52.999Z</time></trkpt><trkpt lat="44.6620769" lon="8.8274651"><ele>246.25</ele><time>2026-04-16T12:31:53.999Z</time></trkpt><trkpt lat="44.6621442" lon="8.8272955"><ele>245.0</ele><time>2026-04-16T12:31:54.999Z</time></trkpt><trkpt lat="44.6622093" lon="8.8271194"><ele>245.0</ele><time>2026-04-16T12:31:55.999Z</time></trkpt><trkpt lat="44.6622782" lon="8.826941"><ele>245.0</ele><time>2026-04-16T12:31:56.999Z</time></trkpt><trkpt lat="44.6623472" lon="8.8267599"><ele>245.0</ele><time>2026-04-16T12:31:57.998Z</time></trkpt><trkpt lat="44.6624185" lon="8.8265811"><ele>245.0</ele><time>2026-04-16T12:31:58.999Z</time></trkpt><trkpt lat="44.6624976" lon="8.8264059"><ele>246.0</ele><time>2026-04-16T12:32:00.112Z</time></trkpt><trkpt lat="44.6625843" lon="8.8262409"><ele>247.0</ele><time>2026-04-16T12:32:01.116Z</time></trkpt><trkpt lat="44.6627923" lon="8.825946"><ele>248.0</ele><time>2026-04-16T12:32:02.999Z</time></trkpt><trkpt lat="44.6629101" lon="8.8258163"><ele>249.5</ele><time>2026-04-16T12:32:03.999Z</time></trkpt><trkpt lat="44.6630297" lon="8.8257104"><ele>251.0</ele><time>2026-04-16T12:32:04.999Z</time></trkpt><trkpt lat="44.6631655" lon="8.8256221"><ele>252.5</ele><time>2026-04-16T12:32:05.999Z</time></trkpt><trkpt lat="44.6632932" lon="8.825534"><ele>254.0</ele><time>2026-04-16T12:32:07.126Z</time></trkpt><trkpt lat="44.6635482" lon="8.8253707"><ele>254.25</ele><time>2026-04-16T12:32:08.999Z</time></trkpt><trkpt lat="44.663669" lon="8.8252915"><ele>254.5</ele><time>2026-04-16T12:32:09.999Z</time></trkpt><trkpt lat="44.6637859" lon="8.8252107"><ele>254.75</ele><time>2026-04-16T12:32:10.999Z</time></trkpt><trkpt lat="44.663899" lon="8.8251365"><ele>255.0</ele><time>2026-04-16T12:32:12.101Z</time></trkpt><trkpt lat="44.664121" lon="8.8249983"><ele>256.0</ele><time>2026-04-16T12:32:13.999Z</time></trkpt><trkpt lat="44.6642314" lon="8.8249266"><ele>257.0</ele><time>2026-04-16T12:32:15.133Z</time></trkpt><trkpt lat="44.6643429" lon="8.8248556"><ele>258.0</ele><time>2026-04-16T12:32:16.125Z</time></trkpt><trkpt lat="44.6645786" lon="8.8247081"><ele>258.0</ele><time>2026-04-16T12:32:17.999Z</time></trkpt><trkpt lat="44.6646989" lon="8.8246285"><ele>258.0</ele><time>2026-04-16T12:32:18.999Z</time></trkpt><trkpt lat="44.6648218" lon="8.8245559"><ele>258.0</ele><time>2026-04-16T12:32:20.111Z</time></trkpt><trkpt lat="44.6650764" lon="8.8243879"><ele>258.75</ele><time>2026-04-16T12:32:21.999Z</time></trkpt><trkpt lat="44.6652051" lon="8.8242967"><ele>259.5</ele><time>2026-04-16T12:32:22.999Z</time></trkpt><trkpt lat="44.6653348" lon="8.824201"><ele>260.25</ele><time>2026-04-16T12:32:23.999Z</time></trkpt><trkpt lat="44.6654638" lon="8.8240957"><ele>261.0</ele><time>2026-04-16T12:32:24.999Z</time></trkpt><trkpt lat="44.665596" lon="8.8239912"><ele>259.25</ele><time>2026-04-16T12:32:25.999Z</time></trkpt><trkpt lat="44.6657201" lon="8.8238901"><ele>257.5</ele><time>2026-04-16T12:32:26.999Z</time></trkpt><trkpt lat="44.6658459" lon="8.8237874"><ele>255.75</ele><time>2026-04-16T12:32:27.999Z</time></trkpt><trkpt lat="44.6659606" lon="8.823683"><ele>254.0</ele><time>2026-04-16T12:32:28.999Z</time></trkpt><trkpt lat="44.6660752" lon="8.8235736"><ele>254.5</ele><time>2026-04-16T12:32:29.999Z</time></trkpt><trkpt lat="44.6661823" lon="8.8234493"><ele>255.0</ele><time>2026-04-16T12:32:30.999Z</time></trkpt><trkpt lat="44.6662742" lon="8.8233096"><ele>255.5</ele><time>2026-04-16T12:32:31.999Z</time></trkpt><trkpt lat="44.6663671" lon="8.8231794"><ele>256.0</ele><time>2026-04-16T12:32:32.999Z</time></trkpt><trkpt lat="44.6664578" lon="8.8230469"><ele>256.0</ele><time>2026-04-16T12:32:33.999Z</time></trkpt><trkpt lat="44.6665483" lon="8.822916"><ele>256.0</ele><time>2026-04-16T12:32:34.999Z</time></trkpt><trkpt lat="44.6666464" lon="8.8227918"><ele>256.0</ele><time>2026-04-16T12:32:35.999Z</time></trkpt><trkpt lat="44.6667561" lon="8.8226729"><ele>256.0</ele><time>2026-04-16T12:32:36.999Z</time></trkpt><trkpt lat="44.6668712" lon="8.8225547"><ele>255.5</ele><time>2026-04-16T12:32:37.999Z</time></trkpt><trkpt lat="44.666982" lon="8.8224518"><ele>255.0</ele><time>2026-04-16T12:32:38.999Z</time></trkpt><trkpt lat="44.667096" lon="8.8223497"><ele>254.5</ele><time>2026-04-16T12:32:39.999Z</time></trkpt><trkpt lat="44.6672118" lon="8.8222511"><ele>254.0</ele><time>2026-04-16T12:32:40.999Z</time></trkpt><trkpt lat="44.6673274" lon="8.8221539"><ele>254.0</ele><time>2026-04-16T12:32:41.999Z</time></trkpt><trkpt lat="44.6674429" lon="8.8220598"><ele>254.0</ele><time>2026-04-16T12:32:42.999Z</time></trkpt><trkpt lat="44.6675564" lon="8.8219651"><ele>254.0</ele><time>2026-04-16T12:32:43.999Z</time></trkpt><trkpt lat="44.6676737" lon="8.8218767"><ele>254.0</ele><time>2026-04-16T12:32:44.999Z</time></trkpt><trkpt lat="44.6677929" lon="8.8217771"><ele>253.25</ele><time>2026-04-16T12:32:45.999Z</time></trkpt><trkpt lat="44.6679114" lon="8.8216787"><ele>252.5</ele><time>2026-04-16T12:32:46.999Z</time></trkpt><trkpt lat="44.668033" lon="8.8215736"><ele>251.75</ele><time>2026-04-16T12:32:47.999Z</time></trkpt><trkpt lat="44.6681494" lon="8.8214662"><ele>251.0</ele><time>2026-04-16T12:32:48.999Z</time></trkpt><trkpt lat="44.6682596" lon="8.8213556"><ele>251.0</ele><time>2026-04-16T12:32:49.999Z</time></trkpt><trkpt lat="44.6683658" lon="8.8212404"><ele>251.0</ele><time>2026-04-16T12:32:50.999Z</time></trkpt><trkpt lat="44.6684768" lon="8.8211293"><ele>251.0</ele><time>2026-04-16T12:32:51.999Z</time></trkpt><trkpt lat="44.6685933" lon="8.8210261"><ele>251.0</ele><time>2026-04-16T12:32:52.999Z</time></trkpt><trkpt lat="44.6687129" lon="8.8209249"><ele>250.66666666666669</ele><time>2026-04-16T12:32:53.999Z</time></trkpt><trkpt lat="44.6688332" lon="8.8208303"><ele>250.33333333333331</ele><time>2026-04-16T12:32:54.999Z</time></trkpt><trkpt lat="44.6689589" lon="8.8207297"><ele>250.0</ele><time>2026-04-16T12:32:56.111Z</time></trkpt><trkpt lat="44.6692305" lon="8.8205496"><ele>250.0</ele><time>2026-04-16T12:32:57.999Z</time></trkpt><trkpt lat="44.6693671" lon="8.8204577"><ele>250.0</ele><time>2026-04-16T12:32:58.999Z</time></trkpt><trkpt lat="44.6695065" lon="8.8203853"><ele>250.0</ele><time>2026-04-16T12:32:59.999Z</time></trkpt><trkpt lat="44.6696496" lon="8.8203291"><ele>250.0</ele><time>2026-04-16T12:33:00.999Z</time></trkpt><trkpt lat="44.6697965" lon="8.8202825"><ele>249.66666666666666</ele><time>2026-04-16T12:33:01.999Z</time></trkpt><trkpt lat="44.6699476" lon="8.8202405"><ele>249.33333333333331</ele><time>2026-04-16T12:33:02.999Z</time></trkpt><trkpt lat="44.6700989" lon="8.8201977"><ele>249.0</ele><time>2026-04-16T12:33:03.999Z</time></trkpt><trkpt lat="44.6702508" lon="8.8201562"><ele>249.66666666666669</ele><time>2026-04-16T12:33:04.999Z</time></trkpt><trkpt lat="44.6704034" lon="8.8201161"><ele>250.33333333333334</ele><time>2026-04-16T12:33:05.999Z</time></trkpt><trkpt lat="44.6705518" lon="8.820075"><ele>251.0</ele><time>2026-04-16T12:33:06.999Z</time></trkpt><trkpt lat="44.670706" lon="8.8200309"><ele>251.0</ele><time>2026-04-16T12:33:07.999Z</time></trkpt><trkpt lat="44.6708594" lon="8.8199873"><ele>251.0</ele><time>2026-04-16T12:33:08.999Z</time></trkpt><trkpt lat="44.6710123" lon="8.8199381"><ele>251.0</ele><time>2026-04-16T12:33:09.999Z</time></trkpt><trkpt lat="44.6711641" lon="8.8198952"><ele>247.0</ele><time>2026-04-16T12:33:11.117Z</time></trkpt><trkpt lat="44.6714682" lon="8.8198012"><ele>243.0</ele><time>2026-04-16T12:33:12.999Z</time></trkpt><trkpt lat="44.6716207" lon="8.8197567"><ele>243.0</ele><time>2026-04-16T12:33:13.999Z</time></trkpt><trkpt lat="44.6717718" lon="8.8197152"><ele>243.0</ele><time>2026-04-16T12:33:14.999Z</time></trkpt><trkpt lat="44.6719264" lon="8.8196719"><ele>243.0</ele><time>2026-04-16T12:33:16.101Z</time></trkpt><trkpt lat="44.6722308" lon="8.8195832"><ele>241.66666666666669</ele><time>2026-04-16T12:33:17.999Z</time></trkpt><trkpt lat="44.6723832" lon="8.8195353"><ele>240.33333333333334</ele><time>2026-04-16T12:33:18.999Z</time></trkpt><trkpt lat="44.6725381" lon="8.8194889"><ele>239.0</ele><time>2026-04-16T12:33:19.999Z</time></trkpt><trkpt lat="44.6726886" lon="8.8194432"><ele>239.33333333333334</ele><time>2026-04-16T12:33:20.999Z</time></trkpt><trkpt lat="44.6728406" lon="8.819399"><ele>239.66666666666669</ele><time>2026-04-16T12:33:21.999Z</time></trkpt><trkpt lat="44.67299" lon="8.819358"><ele>240.0</ele><time>2026-04-16T12:33:22.999Z</time></trkpt><trkpt lat="44.6731394" lon="8.8193127"><ele>240.0</ele><time>2026-04-16T12:33:23.999Z</time></trkpt><trkpt lat="44.6732836" lon="8.8192601"><ele>240.0</ele><time>2026-04-16T12:33:24.999Z</time></trkpt><trkpt lat="44.6734283" lon="8.819202"><ele>240.0</ele><time>2026-04-16T12:33:25.999Z</time></trkpt><trkpt lat="44.6735736" lon="8.8191356"><ele>238.33333333333331</ele><time>2026-04-16T12:33:26.999Z</time></trkpt><trkpt lat="44.6737165" lon="8.8190491"><ele>236.66666666666666</ele><time>2026-04-16T12:33:27.999Z</time></trkpt><trkpt lat="44.6738487" lon="8.8189524"><ele>235.0</ele><time>2026-04-16T12:33:28.999Z</time></trkpt><trkpt lat="44.6739811" lon="8.8188465"><ele>235.0</ele><time>2026-04-16T12:33:29.999Z</time></trkpt><trkpt lat="44.6741115" lon="8.8187268"><ele>235.0</ele><time>2026-04-16T12:33:30.999Z</time></trkpt><trkpt lat="44.6742344" lon="8.8186042"><ele>235.0</ele><time>2026-04-16T12:33:31.999Z</time></trkpt><trkpt lat="44.6743542" lon="8.8184691"><ele>236.33333333333331</ele><time>2026-04-16T12:33:32.999Z</time></trkpt><trkpt lat="44.6744677" lon="8.8183231"><ele>237.66666666666669</ele><time>2026-04-16T12:33:33.999Z</time></trkpt><trkpt lat="44.6745743" lon="8.8181736"><ele>239.0</ele><time>2026-04-16T12:33:34.999Z</time></trkpt><trkpt lat="44.674678" lon="8.8180159"><ele>239.0</ele><time>2026-04-16T12:33:35.999Z</time></trkpt><trkpt lat="44.674779" lon="8.8178517"><ele>239.0</ele><time>2026-04-16T12:33:36.999Z</time></trkpt><trkpt lat="44.6748833" lon="8.8176913"><ele>239.0</ele><time>2026-04-16T12:33:37.999Z</time></trkpt><trkpt lat="44.674986" lon="8.8175454"><ele>238.25</ele><time>2026-04-16T12:33:38.999Z</time></trkpt><trkpt lat="44.67508" lon="8.8173846"><ele>237.5</ele><time>2026-04-16T12:33:39.999Z</time></trkpt><trkpt lat="44.6751743" lon="8.8172242"><ele>236.75</ele><time>2026-04-16T12:33:40.999Z</time></trkpt><trkpt lat="44.6752703" lon="8.8170657"><ele>236.0</ele><time>2026-04-16T12:33:41.999Z</time></trkpt><trkpt lat="44.6753708" lon="8.81692"><ele>235.25</ele><time>2026-04-16T12:33:42.999Z</time></trkpt><trkpt lat="44.675471" lon="8.8167637"><ele>234.5</ele><time>2026-04-16T12:33:43.999Z</time></trkpt><trkpt lat="44.6755726" lon="8.8166147"><ele>233.75</ele><time>2026-04-16T12:33:44.999Z</time></trkpt><trkpt lat="44.6756752" lon="8.8164717"><ele>233.0</ele><time>2026-04-16T12:33:45.999Z</time></trkpt><trkpt lat="44.6757824" lon="8.8163265"><ele>233.0</ele><time>2026-04-16T12:33:46.999Z</time></trkpt><trkpt lat="44.675896" lon="8.8161829"><ele>233.0</ele><time>2026-04-16T12:33:47.999Z</time></trkpt><trkpt lat="44.6760114" lon="8.8160481"><ele>233.0</ele><time>2026-04-16T12:33:48.999Z</time></trkpt><trkpt lat="44.6761278" lon="8.8159158"><ele>231.0</ele><time>2026-04-16T12:33:49.999Z</time></trkpt><trkpt lat="44.6762463" lon="8.8157857"><ele>229.0</ele><time>2026-04-16T12:33:50.999Z</time></trkpt><trkpt lat="44.6763676" lon="8.8156607"><ele>227.0</ele><time>2026-04-16T12:33:51.999Z</time></trkpt><trkpt lat="44.676486" lon="8.815538"><ele>225.0</ele><time>2026-04-16T12:33:52.999Z</time></trkpt><trkpt lat="44.676602" lon="8.8154237"><ele>225.0</ele><time>2026-04-16T12:33:53.999Z</time></trkpt><trkpt lat="44.6767258" lon="8.8152958"><ele>225.0</ele><time>2026-04-16T12:33:54.999Z</time></trkpt><trkpt lat="44.6768436" lon="8.8151718"><ele>225.0</ele><time>2026-04-16T12:33:55.999Z</time></trkpt><trkpt lat="44.6769577" lon="8.8150493"><ele>225.0</ele><time>2026-04-16T12:33:56.999Z</time></trkpt><trkpt lat="44.6770701" lon="8.8149307"><ele>224.66666666666669</ele><time>2026-04-16T12:33:57.999Z</time></trkpt><trkpt lat="44.6771741" lon="8.8148159"><ele>224.33333333333334</ele><time>2026-04-16T12:33:58.999Z</time></trkpt><trkpt lat="44.6772652" lon="8.8147148"><ele>224.0</ele><time>2026-04-16T12:34:00.1Z</time></trkpt><trkpt lat="44.6774411" lon="8.8145302"><ele>224.0</ele><time>2026-04-16T12:34:02.116Z</time></trkpt><trkpt lat="44.6775886" lon="8.814378"><ele>223.99999999999997</ele><time>2026-04-16T12:34:03.999Z</time></trkpt><trkpt lat="44.6776606" lon="8.8143085"><ele>223.99999999999997</ele><time>2026-04-16T12:34:04.999Z</time></trkpt><trkpt lat="44.6777301" lon="8.8142441"><ele>224.0</ele><time>2026-04-16T12:34:05.999Z</time></trkpt><trkpt lat="44.6778028" lon="8.8142002"><ele>224.0</ele><time>2026-04-16T12:34:06.999Z</time></trkpt><trkpt lat="44.677878" lon="8.8141566"><ele>223.5</ele><time>2026-04-16T12:34:07.999Z</time></trkpt><trkpt lat="44.6779585" lon="8.8141274"><ele>223.0</ele><time>2026-04-16T12:34:08.999Z</time></trkpt><trkpt lat="44.6780521" lon="8.8141146"><ele>222.5</ele><time>2026-04-16T12:34:10.105Z</time></trkpt><trkpt lat="44.6782225" lon="8.8141228"><ele>222.0</ele><time>2026-04-16T12:34:12.115Z</time></trkpt><trkpt lat="44.6783881" lon="8.8141627"><ele>222.0</ele><time>2026-04-16T12:34:13.999Z</time></trkpt><trkpt lat="44.6784764" lon="8.8141681"><ele>222.0</ele><time>2026-04-16T12:34:15.119Z</time></trkpt><trkpt lat="44.6786443" lon="8.8141023"><ele>222.0</ele><time>2026-04-16T12:34:16.999Z</time></trkpt><trkpt lat="44.6787336" lon="8.8140413"><ele>222.0</ele><time>2026-04-16T12:34:17.999Z</time></trkpt><trkpt lat="44.678826" lon="8.8139696"><ele>222.2</ele><time>2026-04-16T12:34:18.999Z</time></trkpt><trkpt lat="44.678918" lon="8.8138877"><ele>222.39999999999998</ele><time>2026-04-16T12:34:19.999Z</time></trkpt><trkpt lat="44.6790093" lon="8.8138131"><ele>222.60000000000002</ele><time>2026-04-16T12:34:20.999Z</time></trkpt><trkpt lat="44.6791003" lon="8.8137352"><ele>222.8</ele><time>2026-04-16T12:34:21.999Z</time></trkpt><trkpt lat="44.67919" lon="8.8136594"><ele>223.0</ele><time>2026-04-16T12:34:22.999Z</time></trkpt><trkpt lat="44.6792758" lon="8.8135937"><ele>222.99999999999997</ele><time>2026-04-16T12:34:23.999Z</time></trkpt><trkpt lat="44.6793563" lon="8.813528"><ele>223.0</ele><time>2026-04-16T12:34:24.999Z</time></trkpt><trkpt lat="44.6794273" lon="8.8134675"><ele>223.0</ele><time>2026-04-16T12:34:25.999Z</time></trkpt><trkpt lat="44.6794962" lon="8.8134058"><ele>223.0</ele><time>2026-04-16T12:34:26.999Z</time></trkpt><trkpt lat="44.6795566" lon="8.8133506"><ele>222.99999999999997</ele><time>2026-04-16T12:34:27.999Z</time></trkpt><trkpt lat="44.6796146" lon="8.8133076"><ele>223.0</ele><time>2026-04-16T12:34:28.999Z</time></trkpt><trkpt lat="44.6797046" lon="8.8132143"><ele>222.99999999999997</ele><time>2026-04-16T12:34:30.999Z</time></trkpt><trkpt lat="44.6797865" lon="8.813062"><ele>223.0</ele><time>2026-04-16T12:34:32.999Z</time></trkpt><trkpt lat="44.6798141" lon="8.8129648"><ele>223.0</ele><time>2026-04-16T12:34:33.999Z</time></trkpt><trkpt lat="44.6798386" lon="8.8128675"><ele>223.0</ele><time>2026-04-16T12:34:34.999Z</time></trkpt><trkpt lat="44.6798651" lon="8.8127696"><ele>222.99999999999997</ele><time>2026-04-16T12:34:35.999Z</time></trkpt><trkpt lat="44.6798909" lon="8.8126689"><ele>223.0</ele><time>2026-04-16T12:34:36.999Z</time></trkpt><trkpt lat="44.6799209" lon="8.8125711"><ele>222.99999999999997</ele><time>2026-04-16T12:34:37.999Z</time></trkpt><trkpt lat="44.6799536" lon="8.8124759"><ele>223.0</ele><time>2026-04-16T12:34:38.999Z</time></trkpt><trkpt lat="44.6799869" lon="8.8123993"><ele>223.0</ele><time>2026-04-16T12:34:39.999Z</time></trkpt><trkpt lat="44.680031" lon="8.8122743"><ele>223.0</ele><time>2026-04-16T12:34:41.999Z</time></trkpt><trkpt lat="44.6800913" lon="8.8121626"><ele>222.99999999999997</ele><time>2026-04-16T12:34:44.999Z</time></trkpt><trkpt lat="44.6801482" lon="8.8121032"><ele>223.0</ele><time>2026-04-16T12:34:46.999Z</time></trkpt><trkpt lat="44.6802478" lon="8.8120562"><ele>224.0</ele><time>2026-04-16T12:34:48.999Z</time></trkpt><trkpt lat="44.6804344" lon="8.8120664"><ele>225.0</ele><time>2026-04-16T12:34:51.999Z</time></trkpt><trkpt lat="44.6804941" lon="8.8121077"><ele>226.0</ele><time>2026-04-16T12:34:52.999Z</time></trkpt><trkpt lat="44.6805915" lon="8.812223"><ele>227.0</ele><time>2026-04-16T12:34:54.999Z</time></trkpt><trkpt lat="44.6806545" lon="8.812354"><ele>227.0</ele><time>2026-04-16T12:34:56.999Z</time></trkpt><trkpt lat="44.6807126" lon="8.8124883"><ele>227.0</ele><time>2026-04-16T12:34:58.999Z</time></trkpt><trkpt lat="44.6807464" lon="8.8125662"><ele>227.0</ele><time>2026-04-16T12:35:00.107Z</time></trkpt><trkpt lat="44.68081" lon="8.8127166"><ele>227.0</ele><time>2026-04-16T12:35:02.116Z</time></trkpt><trkpt lat="44.6808777" lon="8.8128749"><ele>227.0</ele><time>2026-04-16T12:35:03.999Z</time></trkpt><trkpt lat="44.6809108" lon="8.8129587"><ele>227.8</ele><time>2026-04-16T12:35:05.102Z</time></trkpt><trkpt lat="44.680976" lon="8.8131263"><ele>228.6</ele><time>2026-04-16T12:35:07.117Z</time></trkpt><trkpt lat="44.6810564" lon="8.81329"><ele>229.40000000000003</ele><time>2026-04-16T12:35:08.999Z</time></trkpt><trkpt lat="44.6811025" lon="8.813372"><ele>230.20000000000002</ele><time>2026-04-16T12:35:09.999Z</time></trkpt><trkpt lat="44.6811501" lon="8.8134577"><ele>231.0</ele><time>2026-04-16T12:35:10.999Z</time></trkpt><trkpt lat="44.6811912" lon="8.8135347"><ele>235.0</ele><time>2026-04-16T12:35:11.999Z</time></trkpt><trkpt lat="44.6812457" lon="8.8135941"><ele>239.0</ele><time>2026-04-16T12:35:12.999Z</time></trkpt><trkpt lat="44.6812954" lon="8.8136705"><ele>243.0</ele><time>2026-04-16T12:35:13.999Z</time></trkpt><trkpt lat="44.6813452" lon="8.8137466"><ele>247.0</ele><time>2026-04-16T12:35:14.999Z</time></trkpt><trkpt lat="44.685137" lon="8.8172159"><ele>250.75</ele><time>2026-04-16T12:36:06.999Z</time></trkpt><trkpt lat="44.6852287" lon="8.8173145"><ele>254.5</ele><time>2026-04-16T12:36:07.999Z</time></trkpt><trkpt lat="44.6853104" lon="8.8174178"><ele>258.25</ele><time>2026-04-16T12:36:08.999Z</time></trkpt><trkpt lat="44.685413" lon="8.8175176"><ele>262.0</ele><time>2026-04-16T12:36:09.999Z</time></trkpt><trkpt lat="44.6855086" lon="8.8176085"><ele>262.25</ele><time>2026-04-16T12:36:10.999Z</time></trkpt><trkpt lat="44.68561" lon="8.8177102"><ele>262.5</ele><time>2026-04-16T12:36:11.999Z</time></trkpt><trkpt lat="44.6857217" lon="8.8178032"><ele>262.75</ele><time>2026-04-16T12:36:12.999Z</time></trkpt><trkpt lat="44.6858521" lon="8.8178889"><ele>263.0</ele><time>2026-04-16T12:36:13.999Z</time></trkpt><trkpt lat="44.6859826" lon="8.817978"><ele>260.0</ele><time>2026-04-16T12:36:14.999Z</time></trkpt><trkpt lat="44.6861319" lon="8.8181293"><ele>257.0</ele><time>2026-04-16T12:36:15.999Z</time></trkpt><trkpt lat="44.6862761" lon="8.8182245"><ele>254.0</ele><time>2026-04-16T12:36:16.999Z</time></trkpt><trkpt lat="44.686393" lon="8.8183103"><ele>254.0</ele><time>2026-04-16T12:36:17.999Z</time></trkpt><trkpt lat="44.6865117" lon="8.8183792"><ele>254.0</ele><time>2026-04-16T12:36:18.999Z</time></trkpt><trkpt lat="44.6866339" lon="8.818428"><ele>254.0</ele><time>2026-04-16T12:36:19.999Z</time></trkpt><trkpt lat="44.6867625" lon="8.8184758"><ele>254.0</ele><time>2026-04-16T12:36:20.999Z</time></trkpt><trkpt lat="44.6868986" lon="8.8185236"><ele>256.0</ele><time>2026-04-16T12:36:21.999Z</time></trkpt><trkpt lat="44.6870261" lon="8.8185578"><ele>258.0</ele><time>2026-04-16T12:36:22.999Z</time></trkpt><trkpt lat="44.6871612" lon="8.8185845"><ele>260.0</ele><time>2026-04-16T12:36:23.999Z</time></trkpt><trkpt lat="44.6872895" lon="8.8186098"><ele>262.0</ele><time>2026-04-16T12:36:24.999Z</time></trkpt><trkpt lat="44.6874181" lon="8.8186254"><ele>262.0</ele><time>2026-04-16T12:36:25.999Z</time></trkpt><trkpt lat="44.6875341" lon="8.8186337"><ele>262.0</ele><time>2026-04-16T12:36:26.999Z</time></trkpt><trkpt lat="44.6876506" lon="8.818638"><ele>262.0</ele><time>2026-04-16T12:36:27.999Z</time></trkpt><trkpt lat="44.6877763" lon="8.8186361"><ele>262.0</ele><time>2026-04-16T12:36:28.998Z</time></trkpt><trkpt lat="44.687898" lon="8.8186362"><ele>259.75</ele><time>2026-04-16T12:36:29.999Z</time></trkpt><trkpt lat="44.6880235" lon="8.8186277"><ele>257.5</ele><time>2026-04-16T12:36:30.999Z</time></trkpt><trkpt lat="44.6881442" lon="8.8186174"><ele>255.25</ele><time>2026-04-16T12:36:31.999Z</time></trkpt><trkpt lat="44.6882637" lon="8.8186017"><ele>253.0</ele><time>2026-04-16T12:36:32.999Z</time></trkpt><trkpt lat="44.6883738" lon="8.81859"><ele>253.0</ele><time>2026-04-16T12:36:33.999Z</time></trkpt><trkpt lat="44.6884867" lon="8.8185756"><ele>253.0</ele><time>2026-04-16T12:36:34.999Z</time></trkpt><trkpt lat="44.6885915" lon="8.8185632"><ele>253.0</ele><time>2026-04-16T12:36:35.999Z</time></trkpt><trkpt lat="44.6887032" lon="8.8185515"><ele>253.0</ele><time>2026-04-16T12:36:36.999Z</time></trkpt><trkpt lat="44.6888084" lon="8.8185382"><ele>253.0</ele><time>2026-04-16T12:36:37.999Z</time></trkpt><trkpt lat="44.6889118" lon="8.8185281"><ele>251.8</ele><time>2026-04-16T12:36:38.999Z</time></trkpt><trkpt lat="44.6890139" lon="8.8185147"><ele>250.60000000000002</ele><time>2026-04-16T12:36:39.999Z</time></trkpt><trkpt lat="44.6891173" lon="8.8185054"><ele>249.39999999999998</ele><time>2026-04-16T12:36:40.999Z</time></trkpt><trkpt lat="44.6892184" lon="8.8184926"><ele>248.2</ele><time>2026-04-16T12:36:41.999Z</time></trkpt><trkpt lat="44.6893358" lon="8.8184767"><ele>247.0</ele><time>2026-04-16T12:36:42.998Z</time></trkpt><trkpt lat="44.6894308" lon="8.81847"><ele>246.33333333333331</ele><time>2026-04-16T12:36:43.999Z</time></trkpt><trkpt lat="44.6895063" lon="8.818468"><ele>245.66666666666666</ele><time>2026-04-16T12:36:44.999Z</time></trkpt><trkpt lat="44.6895768" lon="8.8184667"><ele>245.0</ele><time>2026-04-16T12:36:45.999Z</time></trkpt><trkpt lat="44.6896448" lon="8.818462"><ele>244.33333333333331</ele><time>2026-04-16T12:36:46.999Z</time></trkpt><trkpt lat="44.6897621" lon="8.8184516"><ele>243.66666666666666</ele><time>2026-04-16T12:36:48.999Z</time></trkpt><trkpt lat="44.6898654" lon="8.8184398"><ele>243.0</ele><time>2026-04-16T12:36:50.999Z</time></trkpt><trkpt lat="44.6899732" lon="8.8184447"><ele>243.0</ele><time>2026-04-16T12:36:52.999Z</time></trkpt><trkpt lat="44.6900857" lon="8.818469"><ele>243.0</ele><time>2026-04-16T12:36:54.999Z</time></trkpt><trkpt lat="44.6901904" lon="8.8185346"><ele>243.0</ele><time>2026-04-16T12:36:56.999Z</time></trkpt><trkpt lat="44.6902472" lon="8.8185829"><ele>243.0</ele><time>2026-04-16T12:36:57.999Z</time></trkpt><trkpt lat="44.690299" lon="8.8186404"><ele>243.0</ele><time>2026-04-16T12:36:58.999Z</time></trkpt><trkpt lat="44.690341" lon="8.8187096"><ele>243.0</ele><time>2026-04-16T12:36:59.999Z</time></trkpt><trkpt lat="44.6903908" lon="8.8187841"><ele>242.33333333333334</ele><time>2026-04-16T12:37:00.999Z</time></trkpt><trkpt lat="44.6904347" lon="8.8188692"><ele>241.66666666666669</ele><time>2026-04-16T12:37:01.999Z</time></trkpt><trkpt lat="44.6904616" lon="8.8189593"><ele>241.0</ele><time>2026-04-16T12:37:02.999Z</time></trkpt><trkpt lat="44.6904735" lon="8.8190483"><ele>240.33333333333334</ele><time>2026-04-16T12:37:03.999Z</time></trkpt><trkpt lat="44.6904909" lon="8.8191346"><ele>239.66666666666669</ele><time>2026-04-16T12:37:04.999Z</time></trkpt><trkpt lat="44.6904876" lon="8.8192741"><ele>239.0</ele><time>2026-04-16T12:37:06.999Z</time></trkpt><trkpt lat="44.6904657" lon="8.8194075"><ele>239.00000000000003</ele><time>2026-04-16T12:37:08.999Z</time></trkpt><trkpt lat="44.690459" lon="8.8195584"><ele>239.0</ele><time>2026-04-16T12:37:10.999Z</time></trkpt><trkpt lat="44.6904727" lon="8.819688"><ele>239.0</ele><time>2026-04-16T12:37:12.999Z</time></trkpt><trkpt lat="44.6904903" lon="8.8198002"><ele>239.0</ele><time>2026-04-16T12:37:14.999Z</time></trkpt><trkpt lat="44.6905423" lon="8.8198634"><ele>239.00000000000003</ele><time>2026-04-16T12:37:17.999Z</time></trkpt><trkpt lat="44.6906026" lon="8.8197941"><ele>239.0</ele><time>2026-04-16T12:37:25.999Z</time></trkpt><trkpt lat="44.690609" lon="8.8196364"><ele>239.00000000000003</ele><time>2026-04-16T12:37:27.999Z</time></trkpt><trkpt lat="44.6905953" lon="8.8195469"><ele>239.0</ele><time>2026-04-16T12:37:28.999Z</time></trkpt><trkpt lat="44.6905745" lon="8.8194451"><ele>239.0</ele><time>2026-04-16T12:37:29.999Z</time></trkpt><trkpt lat="44.6905717" lon="8.8193192"><ele>239.0</ele><time>2026-04-16T12:37:30.999Z</time></trkpt><trkpt lat="44.6905579" lon="8.8191816"><ele>239.00000000000003</ele><time>2026-04-16T12:37:31.999Z</time></trkpt><trkpt lat="44.6905442" lon="8.8190387"><ele>239.0</ele><time>2026-04-16T12:37:32.999Z</time></trkpt><trkpt lat="44.6905241" lon="8.8188914"><ele>238.79999999999998</ele><time>2026-04-16T12:37:33.999Z</time></trkpt><trkpt lat="44.690509" lon="8.8187475"><ele>238.59999999999997</ele><time>2026-04-16T12:37:34.999Z</time></trkpt><trkpt lat="44.6904895" lon="8.818603"><ele>238.4</ele><time>2026-04-16T12:37:35.999Z</time></trkpt><trkpt lat="44.6904701" lon="8.8184563"><ele>238.2</ele><time>2026-04-16T12:37:36.999Z</time></trkpt><trkpt lat="44.6904503" lon="8.8182989"><ele>238.0</ele><time>2026-04-16T12:37:37.998Z</time></trkpt><trkpt lat="44.690434" lon="8.818143"><ele>238.25</ele><time>2026-04-16T12:37:38.999Z</time></trkpt><trkpt lat="44.6904135" lon="8.8179794"><ele>238.5</ele><time>2026-04-16T12:37:39.999Z</time></trkpt><trkpt lat="44.6903957" lon="8.8178213"><ele>238.75</ele><time>2026-04-16T12:37:40.999Z</time></trkpt><trkpt lat="44.6903777" lon="8.8176596"><ele>239.0</ele><time>2026-04-16T12:37:41.999Z</time></trkpt><trkpt lat="44.6903617" lon="8.8174991"><ele>239.0</ele><time>2026-04-16T12:37:42.999Z</time></trkpt><trkpt lat="44.6903469" lon="8.8173539"><ele>238.99999999999997</ele><time>2026-04-16T12:37:43.999Z</time></trkpt><trkpt lat="44.6903318" lon="8.8172074"><ele>238.99999999999997</ele><time>2026-04-16T12:37:44.999Z</time></trkpt><trkpt lat="44.6903179" lon="8.8170634"><ele>239.0</ele><time>2026-04-16T12:37:45.999Z</time></trkpt><trkpt lat="44.6902991" lon="8.8169201"><ele>239.0</ele><time>2026-04-16T12:37:46.999Z</time></trkpt><trkpt lat="44.6902758" lon="8.8167793"><ele>240.6</ele><time>2026-04-16T12:37:47.999Z</time></trkpt><trkpt lat="44.6902426" lon="8.8166347"><ele>242.2</ele><time>2026-04-16T12:37:48.999Z</time></trkpt><trkpt lat="44.690208" lon="8.816487"><ele>243.79999999999998</ele><time>2026-04-16T12:37:49.999Z</time></trkpt><trkpt lat="44.6901607" lon="8.8163434"><ele>245.39999999999998</ele><time>2026-04-16T12:37:50.999Z</time></trkpt><trkpt lat="44.6900966" lon="8.8162072"><ele>247.0</ele><time>2026-04-16T12:37:51.999Z</time></trkpt><trkpt lat="44.6900278" lon="8.8160653"><ele>246.75</ele><time>2026-04-16T12:37:52.999Z</time></trkpt><trkpt lat="44.6899568" lon="8.8159327"><ele>246.5</ele><time>2026-04-16T12:37:53.999Z</time></trkpt><trkpt lat="44.6898862" lon="8.8158012"><ele>246.25</ele><time>2026-04-16T12:37:54.999Z</time></trkpt><trkpt lat="44.6898117" lon="8.8156792"><ele>246.0</ele><time>2026-04-16T12:37:55.999Z</time></trkpt><trkpt lat="44.6897309" lon="8.8155514"><ele>246.0</ele><time>2026-04-16T12:37:56.999Z</time></trkpt><trkpt lat="44.6896544" lon="8.8154298"><ele>246.0</ele><time>2026-04-16T12:37:57.999Z</time></trkpt><trkpt lat="44.6895801" lon="8.815298"><ele>246.0</ele><time>2026-04-16T12:37:58.999Z</time></trkpt><trkpt lat="44.6895145" lon="8.8151536"><ele>246.0</ele><time>2026-04-16T12:37:59.999Z</time></trkpt><trkpt lat="44.6894509" lon="8.8150194"><ele>246.60000000000002</ele><time>2026-04-16T12:38:00.999Z</time></trkpt><trkpt lat="44.6893928" lon="8.8148817"><ele>247.20000000000002</ele><time>2026-04-16T12:38:01.999Z</time></trkpt><trkpt lat="44.6893431" lon="8.8147767"><ele>247.79999999999998</ele><time>2026-04-16T12:38:02.999Z</time></trkpt><trkpt lat="44.6892871" lon="8.8146299"><ele>248.39999999999998</ele><time>2026-04-16T12:38:03.999Z</time></trkpt><trkpt lat="44.6892357" lon="8.8144934"><ele>249.0</ele><time>2026-04-16T12:38:04.999Z</time></trkpt><trkpt lat="44.6891871" lon="8.8143571"><ele>249.75</ele><time>2026-04-16T12:38:05.999Z</time></trkpt><trkpt lat="44.6891348" lon="8.8142162"><ele>250.5</ele><time>2026-04-16T12:38:06.999Z</time></trkpt><trkpt lat="44.6890797" lon="8.8140723"><ele>251.25</ele><time>2026-04-16T12:38:07.999Z</time></trkpt><trkpt lat="44.689023" lon="8.8139259"><ele>252.0</ele><time>2026-04-16T12:38:08.999Z</time></trkpt><trkpt lat="44.6889756" lon="8.8137703"><ele>252.0</ele><time>2026-04-16T12:38:09.999Z</time></trkpt><trkpt lat="44.6889363" lon="8.8136167"><ele>252.0</ele><time>2026-04-16T12:38:10.999Z</time></trkpt><trkpt lat="44.6889064" lon="8.8134602"><ele>252.0</ele><time>2026-04-16T12:38:11.999Z</time></trkpt><trkpt lat="44.6888822" lon="8.8133145"><ele>252.0</ele><time>2026-04-16T12:38:12.999Z</time></trkpt><trkpt lat="44.6888584" lon="8.8131592"><ele>252.8</ele><time>2026-04-16T12:38:13.999Z</time></trkpt><trkpt lat="44.6888343" lon="8.8130193"><ele>253.6</ele><time>2026-04-16T12:38:14.999Z</time></trkpt><trkpt lat="44.6888108" lon="8.8128686"><ele>254.40000000000003</ele><time>2026-04-16T12:38:15.999Z</time></trkpt><trkpt lat="44.6887828" lon="8.8127128"><ele>255.20000000000002</ele><time>2026-04-16T12:38:16.999Z</time></trkpt><trkpt lat="44.6887506" lon="8.8125499"><ele>256.0</ele><time>2026-04-16T12:38:17.999Z</time></trkpt><trkpt lat="44.6887254" lon="8.8123963"><ele>257.25</ele><time>2026-04-16T12:38:18.999Z</time></trkpt><trkpt lat="44.6887002" lon="8.812239"><ele>258.5</ele><time>2026-04-16T12:38:19.999Z</time></trkpt><trkpt lat="44.6886769" lon="8.812084"><ele>259.75</ele><time>2026-04-16T12:38:21.107Z</time></trkpt><trkpt lat="44.6886299" lon="8.8117868"><ele>261.0</ele><time>2026-04-16T12:38:22.999Z</time></trkpt><trkpt lat="44.6885948" lon="8.8116572"><ele>261.5</ele><time>2026-04-16T12:38:23.999Z</time></trkpt><trkpt lat="44.688549" lon="8.8115354"><ele>262.0</ele><time>2026-04-16T12:38:25.1Z</time></trkpt><trkpt lat="44.6884415" lon="8.8113304"><ele>262.5</ele><time>2026-04-16T12:38:26.999Z</time></trkpt><trkpt lat="44.6883767" lon="8.8112396"><ele>263.0</ele><time>2026-04-16T12:38:27.999Z</time></trkpt><trkpt lat="44.6883051" lon="8.8111419"><ele>263.0</ele><time>2026-04-16T12:38:28.999Z</time></trkpt><trkpt lat="44.6882363" lon="8.8110539"><ele>263.0</ele><time>2026-04-16T12:38:30.102Z</time></trkpt><trkpt lat="44.6881206" lon="8.8108524"><ele>263.0</ele><time>2026-04-16T12:38:31.999Z</time></trkpt><trkpt lat="44.6880727" lon="8.8107401"><ele>263.0</ele><time>2026-04-16T12:38:32.999Z</time></trkpt><trkpt lat="44.6880407" lon="8.8106196"><ele>261.6</ele><time>2026-04-16T12:38:33.999Z</time></trkpt><trkpt lat="44.6880094" lon="8.8104927"><ele>260.20000000000005</ele><time>2026-04-16T12:38:34.999Z</time></trkpt><trkpt lat="44.6879866" lon="8.8103628"><ele>258.8</ele><time>2026-04-16T12:38:35.999Z</time></trkpt><trkpt lat="44.687969" lon="8.810239"><ele>257.40000000000003</ele><time>2026-04-16T12:38:36.999Z</time></trkpt><trkpt lat="44.6879547" lon="8.8101046"><ele>256.0</ele><time>2026-04-16T12:38:37.999Z</time></trkpt><trkpt lat="44.6879491" lon="8.8099755"><ele>255.4</ele><time>2026-04-16T12:38:38.999Z</time></trkpt><trkpt lat="44.6879421" lon="8.8098348"><ele>254.8</ele><time>2026-04-16T12:38:39.999Z</time></trkpt><trkpt lat="44.6879474" lon="8.8097035"><ele>254.20000000000002</ele><time>2026-04-16T12:38:40.999Z</time></trkpt><trkpt lat="44.6879471" lon="8.8095619"><ele>253.60000000000002</ele><time>2026-04-16T12:38:41.999Z</time></trkpt><trkpt lat="44.6879609" lon="8.8094279"><ele>253.0</ele><time>2026-04-16T12:38:42.999Z</time></trkpt><trkpt lat="44.6879738" lon="8.8092891"><ele>252.4</ele><time>2026-04-16T12:38:43.999Z</time></trkpt><trkpt lat="44.6879836" lon="8.8091506"><ele>251.8</ele><time>2026-04-16T12:38:44.999Z</time></trkpt><trkpt lat="44.6879931" lon="8.8090035"><ele>251.2</ele><time>2026-04-16T12:38:45.999Z</time></trkpt><trkpt lat="44.6880026" lon="8.8088739"><ele>250.6</ele><time>2026-04-16T12:38:46.999Z</time></trkpt><trkpt lat="44.6880233" lon="8.8087405"><ele>250.0</ele><time>2026-04-16T12:38:47.999Z</time></trkpt><trkpt lat="44.6880413" lon="8.8085957"><ele>249.0</ele><time>2026-04-16T12:38:48.999Z</time></trkpt><trkpt lat="44.6880565" lon="8.8084642"><ele>248.0</ele><time>2026-04-16T12:38:49.999Z</time></trkpt><trkpt lat="44.6880765" lon="8.8083348"><ele>247.0</ele><time>2026-04-16T12:38:50.999Z</time></trkpt><trkpt lat="44.6880953" lon="8.8081974"><ele>246.0</ele><time>2026-04-16T12:38:51.999Z</time></trkpt><trkpt lat="44.688114" lon="8.808066"><ele>245.0</ele><time>2026-04-16T12:38:52.999Z</time></trkpt><trkpt lat="44.6881383" lon="8.8079305"><ele>245.0</ele><time>2026-04-16T12:38:53.999Z</time></trkpt><trkpt lat="44.6881559" lon="8.8078016"><ele>245.0</ele><time>2026-04-16T12:38:54.999Z</time></trkpt><trkpt lat="44.6881778" lon="8.8076718"><ele>245.0</ele><time>2026-04-16T12:38:55.999Z</time></trkpt><trkpt lat="44.6881952" lon="8.8075367"><ele>245.0</ele><time>2026-04-16T12:38:56.999Z</time></trkpt><trkpt lat="44.6882132" lon="8.8074013"><ele>245.0</ele><time>2026-04-16T12:38:57.999Z</time></trkpt><trkpt lat="44.6882351" lon="8.8072622"><ele>243.4</ele><time>2026-04-16T12:38:58.999Z</time></trkpt><trkpt lat="44.6882544" lon="8.8071261"><ele>241.8</ele><time>2026-04-16T12:38:59.999Z</time></trkpt><trkpt lat="44.6882735" lon="8.8069903"><ele>240.2</ele><time>2026-04-16T12:39:00.999Z</time></trkpt><trkpt lat="44.6882919" lon="8.8068575"><ele>238.6</ele><time>2026-04-16T12:39:01.999Z</time></trkpt><trkpt lat="44.6883093" lon="8.806724"><ele>237.0</ele><time>2026-04-16T12:39:02.999Z</time></trkpt><trkpt lat="44.6883237" lon="8.8065964"><ele>236.16666666666666</ele><time>2026-04-16T12:39:03.999Z</time></trkpt><trkpt lat="44.6883368" lon="8.8064812"><ele>235.33333333333331</ele><time>2026-04-16T12:39:04.999Z</time></trkpt><trkpt lat="44.6883525" lon="8.8063563"><ele>234.5</ele><time>2026-04-16T12:39:05.999Z</time></trkpt><trkpt lat="44.6883801" lon="8.8062381"><ele>233.66666666666666</ele><time>2026-04-16T12:39:06.999Z</time></trkpt><trkpt lat="44.6883994" lon="8.8061218"><ele>232.83333333333331</ele><time>2026-04-16T12:39:07.999Z</time></trkpt><trkpt lat="44.6884193" lon="8.8060064"><ele>232.0</ele><time>2026-04-16T12:39:08.999Z</time></trkpt><trkpt lat="44.6884639" lon="8.8058659"><ele>231.49999999999997</ele><time>2026-04-16T12:39:11.111Z</time></trkpt><trkpt lat="44.688482" lon="8.8057396"><ele>231.0</ele><time>2026-04-16T12:39:12.999Z</time></trkpt><trkpt lat="44.6884947" lon="8.8056431"><ele>230.5</ele><time>2026-04-16T12:39:14.999Z</time></trkpt><trkpt lat="44.6885034" lon="8.8055126"><ele>230.0</ele><time>2026-04-16T12:39:16.999Z</time></trkpt><trkpt lat="44.6885427" lon="8.805398"><ele>229.49999999999997</ele><time>2026-04-16T12:39:18.999Z</time></trkpt><trkpt lat="44.688538" lon="8.8053095"><ele>229.0</ele><time>2026-04-16T12:39:19.999Z</time></trkpt><trkpt lat="44.6885616" lon="8.8051665"><ele>230.66666666666666</ele><time>2026-04-16T12:39:21.999Z</time></trkpt><trkpt lat="44.6885984" lon="8.8050138"><ele>232.33333333333331</ele><time>2026-04-16T12:39:23.999Z</time></trkpt><trkpt lat="44.688645" lon="8.8048543"><ele>234.0</ele><time>2026-04-16T12:39:25.999Z</time></trkpt><trkpt lat="44.6886609" lon="8.8047572"><ele>235.66666666666669</ele><time>2026-04-16T12:39:26.999Z</time></trkpt><trkpt lat="44.6886659" lon="8.8046673"><ele>237.33333333333334</ele><time>2026-04-16T12:39:27.999Z</time></trkpt><trkpt lat="44.6886725" lon="8.8045597"><ele>239.0</ele><time>2026-04-16T12:39:28.999Z</time></trkpt><trkpt lat="44.6886973" lon="8.8044016"><ele>238.39999999999998</ele><time>2026-04-16T12:39:30.999Z</time></trkpt><trkpt lat="44.6887195" lon="8.8043134"><ele>237.79999999999998</ele><time>2026-04-16T12:39:31.999Z</time></trkpt><trkpt lat="44.6887668" lon="8.8041595"><ele>237.20000000000002</ele><time>2026-04-16T12:39:33.999Z</time></trkpt><trkpt lat="44.688793" lon="8.8040543"><ele>236.60000000000002</ele><time>2026-04-16T12:39:35.999Z</time></trkpt><trkpt lat="44.68885" lon="8.8038963"><ele>236.0</ele><time>2026-04-16T12:39:37.999Z</time></trkpt><trkpt lat="44.6888738" lon="8.8038044"><ele>236.00000000000003</ele><time>2026-04-16T12:39:38.999Z</time></trkpt><trkpt lat="44.6889077" lon="8.8037183"><ele>236.0</ele><time>2026-04-16T12:39:39.999Z</time></trkpt><trkpt lat="44.6889456" lon="8.8036345"><ele>236.0</ele><time>2026-04-16T12:39:40.999Z</time></trkpt><trkpt lat="44.688973" lon="8.8035484"><ele>236.0</ele><time>2026-04-16T12:39:41.999Z</time></trkpt><trkpt lat="44.6890292" lon="8.8034071"><ele>236.00000000000003</ele><time>2026-04-16T12:39:43.999Z</time></trkpt><trkpt lat="44.6890648" lon="8.8033182"><ele>236.0</ele><time>2026-04-16T12:39:44.999Z</time></trkpt><trkpt lat="44.6890962" lon="8.8032291"><ele>235.50000000000003</ele><time>2026-04-16T12:39:45.999Z</time></trkpt><trkpt lat="44.689149" lon="8.8030665"><ele>235.0</ele><time>2026-04-16T12:39:47.999Z</time></trkpt><trkpt lat="44.689184" lon="8.8029869"><ele>234.5</ele><time>2026-04-16T12:39:48.999Z</time></trkpt><trkpt lat="44.6892241" lon="8.8028969"><ele>234.0</ele><time>2026-04-16T12:39:49.999Z</time></trkpt><trkpt lat="44.6892648" lon="8.8028257"><ele>233.50000000000003</ele><time>2026-04-16T12:39:50.999Z</time></trkpt><trkpt lat="44.6893078" lon="8.8027414"><ele>233.0</ele><time>2026-04-16T12:39:51.999Z</time></trkpt><trkpt lat="44.6893478" lon="8.8026637"><ele>232.8</ele><time>2026-04-16T12:39:52.999Z</time></trkpt><trkpt lat="44.6893897" lon="8.8025842"><ele>232.60000000000002</ele><time>2026-04-16T12:39:53.999Z</time></trkpt><trkpt lat="44.6894315" lon="8.8025116"><ele>232.39999999999998</ele><time>2026-04-16T12:39:54.999Z</time></trkpt><trkpt lat="44.6894838" lon="8.8023658"><ele>232.2</ele><time>2026-04-16T12:39:56.999Z</time></trkpt><trkpt lat="44.6895538" lon="8.8022577"><ele>232.0</ele><time>2026-04-16T12:39:58.999Z</time></trkpt><trkpt lat="44.6895885" lon="8.8021303"><ele>232.71428571428575</ele><time>2026-04-16T12:40:00.999Z</time></trkpt><trkpt lat="44.6896035" lon="8.8020371"><ele>233.42857142857144</ele><time>2026-04-16T12:40:01.999Z</time></trkpt><trkpt lat="44.6896211" lon="8.8019463"><ele>234.14285714285714</ele><time>2026-04-16T12:40:02.999Z</time></trkpt><trkpt lat="44.6896453" lon="8.8018596"><ele>234.85714285714286</ele><time>2026-04-16T12:40:03.999Z</time></trkpt><trkpt lat="44.6896784" lon="8.8017778"><ele>235.57142857142856</ele><time>2026-04-16T12:40:04.999Z</time></trkpt><trkpt lat="44.6897085" lon="8.8016986"><ele>236.28571428571425</ele><time>2026-04-16T12:40:05.999Z</time></trkpt><trkpt lat="44.6897534" lon="8.8016195"><ele>236.99999999999997</ele><time>2026-04-16T12:40:06.999Z</time></trkpt><trkpt lat="44.689793" lon="8.801534"><ele>237.0</ele><time>2026-04-16T12:40:07.999Z</time></trkpt><trkpt lat="44.6898334" lon="8.801445"><ele>237.0</ele><time>2026-04-16T12:40:08.999Z</time></trkpt><trkpt lat="44.6898666" lon="8.8013541"><ele>237.0</ele><time>2026-04-16T12:40:09.999Z</time></trkpt><trkpt lat="44.689897" lon="8.8012653"><ele>237.0</ele><time>2026-04-16T12:40:11.11Z</time></trkpt><trkpt lat="44.6899594" lon="8.8010824"><ele>237.0</ele><time>2026-04-16T12:40:12.999Z</time></trkpt><trkpt lat="44.6899952" lon="8.8010016"><ele>237.0</ele><time>2026-04-16T12:40:13.999Z</time></trkpt><trkpt lat="44.6900283" lon="8.8009209"><ele>234.8</ele><time>2026-04-16T12:40:14.999Z</time></trkpt><trkpt lat="44.6900622" lon="8.8008426"><ele>232.6</ele><time>2026-04-16T12:40:15.999Z</time></trkpt><trkpt lat="44.6901374" lon="8.8006648"><ele>230.40000000000003</ele><time>2026-04-16T12:40:18.999Z</time></trkpt><trkpt lat="44.6901837" lon="8.8005674"><ele>228.20000000000002</ele><time>2026-04-16T12:40:20.999Z</time></trkpt><trkpt lat="44.6902307" lon="8.8004881"><ele>226.0</ele><time>2026-04-16T12:40:23.999Z</time></trkpt><trkpt lat="44.6902658" lon="8.8003739"><ele>225.66666666666666</ele><time>2026-04-16T12:40:26.999Z</time></trkpt><trkpt lat="44.6902952" lon="8.8002856"><ele>225.33333333333331</ele><time>2026-04-16T12:40:33.999Z</time></trkpt><trkpt lat="44.6903495" lon="8.8001942"><ele>225.0</ele><time>2026-04-16T12:40:34.999Z</time></trkpt><trkpt lat="44.6903975" lon="8.8001369"><ele>224.66666666666669</ele><time>2026-04-16T12:40:35.999Z</time></trkpt><trkpt lat="44.6904511" lon="8.8000519"><ele>224.33333333333334</ele><time>2026-04-16T12:40:36.999Z</time></trkpt><trkpt lat="44.6905509" lon="8.7999826"><ele>224.0</ele><time>2026-04-16T12:40:38.999Z</time></trkpt><trkpt lat="44.6906356" lon="8.7999314"><ele>224.0</ele><time>2026-04-16T12:40:39.999Z</time></trkpt><trkpt lat="44.690701" lon="8.7998684"><ele>223.99999999999997</ele><time>2026-04-16T12:40:41.101Z</time></trkpt><trkpt lat="44.6908252" lon="8.7997927"><ele>223.99999999999997</ele><time>2026-04-16T12:40:42.999Z</time></trkpt><trkpt lat="44.690936" lon="8.7998642"><ele>224.0</ele><time>2026-04-16T12:40:44.999Z</time></trkpt><trkpt lat="44.6910176" lon="8.7999111"><ele>224.0</ele><time>2026-04-16T12:40:45.999Z</time></trkpt><trkpt lat="44.6911045" lon="8.7999645"><ele>223.0</ele><time>2026-04-16T12:40:46.999Z</time></trkpt><trkpt lat="44.6911899" lon="8.8000044"><ele>221.99999999999997</ele><time>2026-04-16T12:40:47.997Z</time></trkpt><trkpt lat="44.6912717" lon="8.8000342"><ele>220.99999999999997</ele><time>2026-04-16T12:40:48.999Z</time></trkpt><trkpt lat="44.6913589" lon="8.8000538"><ele>220.0</ele><time>2026-04-16T12:40:49.999Z</time></trkpt><trkpt lat="44.6914574" lon="8.8000642"><ele>219.0</ele><time>2026-04-16T12:40:50.999Z</time></trkpt><trkpt lat="44.6915532" lon="8.8000749"><ele>219.0</ele><time>2026-04-16T12:40:51.999Z</time></trkpt><trkpt lat="44.6916445" lon="8.8000752"><ele>218.99999999999997</ele><time>2026-04-16T12:40:52.999Z</time></trkpt><trkpt lat="44.6917382" lon="8.8000749"><ele>218.99999999999997</ele><time>2026-04-16T12:40:53.999Z</time></trkpt><trkpt lat="44.6918295" lon="8.8000697"><ele>219.0</ele><time>2026-04-16T12:40:54.999Z</time></trkpt><trkpt lat="44.6919014" lon="8.8000449"><ele>219.0</ele><time>2026-04-16T12:40:56.117Z</time></trkpt><trkpt lat="44.692046" lon="8.7999405"><ele>219.39999999999998</ele><time>2026-04-16T12:40:57.999Z</time></trkpt><trkpt lat="44.6921079" lon="8.7998737"><ele>219.79999999999998</ele><time>2026-04-16T12:40:59.104Z</time></trkpt><trkpt lat="44.6922084" lon="8.799687"><ele>220.20000000000002</ele><time>2026-04-16T12:41:00.999Z</time></trkpt><trkpt lat="44.6922404" lon="8.7995782"><ele>220.60000000000002</ele><time>2026-04-16T12:41:01.999Z</time></trkpt><trkpt lat="44.6922457" lon="8.7994716"><ele>221.0</ele><time>2026-04-16T12:41:02.999Z</time></trkpt><trkpt lat="44.6922471" lon="8.7993442"><ele>222.20000000000002</ele><time>2026-04-16T12:41:04.101Z</time></trkpt><trkpt lat="44.6922474" lon="8.7992283"><ele>223.40000000000003</ele><time>2026-04-16T12:41:05.109Z</time></trkpt><trkpt lat="44.6923191" lon="8.7990263"><ele>224.6</ele><time>2026-04-16T12:41:06.999Z</time></trkpt><trkpt lat="44.6923816" lon="8.7989402"><ele>225.8</ele><time>2026-04-16T12:41:07.999Z</time></trkpt><trkpt lat="44.6924559" lon="8.798855"><ele>227.0</ele><time>2026-04-16T12:41:09.105Z</time></trkpt><trkpt lat="44.6926125" lon="8.7987255"><ele>227.0</ele><time>2026-04-16T12:41:10.999Z</time></trkpt><trkpt lat="44.6926905" lon="8.7986422"><ele>227.0</ele><time>2026-04-16T12:41:11.999Z</time></trkpt><trkpt lat="44.6927613" lon="8.798565"><ele>227.0</ele><time>2026-04-16T12:41:12.999Z</time></trkpt><trkpt lat="44.69283" lon="8.798448"><ele>227.0</ele><time>2026-04-16T12:41:13.999Z</time></trkpt><trkpt lat="44.6928986" lon="8.798309"><ele>227.0</ele><time>2026-04-16T12:41:14.999Z</time></trkpt><trkpt lat="44.6929733" lon="8.7981734"><ele>231.75</ele><time>2026-04-16T12:41:15.999Z</time></trkpt><trkpt lat="44.6930475" lon="8.798048"><ele>236.5</ele><time>2026-04-16T12:41:16.999Z</time></trkpt><trkpt lat="44.6931233" lon="8.7979289"><ele>241.25</ele><time>2026-04-16T12:41:17.999Z</time></trkpt><trkpt lat="44.6931929" lon="8.7978052"><ele>246.0</ele><time>2026-04-16T12:41:18.999Z</time></trkpt><trkpt lat="44.6932627" lon="8.7976759"><ele>243.60000000000002</ele><time>2026-04-16T12:41:19.999Z</time></trkpt><trkpt lat="44.693326" lon="8.7975592"><ele>241.20000000000002</ele><time>2026-04-16T12:41:20.999Z</time></trkpt><trkpt lat="44.6933779" lon="8.7974426"><ele>238.79999999999998</ele><time>2026-04-16T12:41:21.998Z</time></trkpt><trkpt lat="44.6934249" lon="8.7973078"><ele>236.39999999999998</ele><time>2026-04-16T12:41:22.999Z</time></trkpt><trkpt lat="44.6934728" lon="8.7971696"><ele>234.0</ele><time>2026-04-16T12:41:23.999Z</time></trkpt><trkpt lat="44.6935217" lon="8.7970361"><ele>234.0</ele><time>2026-04-16T12:41:24.999Z</time></trkpt><trkpt lat="44.6935774" lon="8.7969009"><ele>233.99999999999997</ele><time>2026-04-16T12:41:25.999Z</time></trkpt><trkpt lat="44.6936369" lon="8.7967744"><ele>233.99999999999997</ele><time>2026-04-16T12:41:26.999Z</time></trkpt><trkpt lat="44.6937119" lon="8.7966683"><ele>234.0</ele><time>2026-04-16T12:41:27.999Z</time></trkpt><trkpt lat="44.6937949" lon="8.796571"><ele>234.0</ele><time>2026-04-16T12:41:28.999Z</time></trkpt><trkpt lat="44.693892" lon="8.7964893"><ele>235.5</ele><time>2026-04-16T12:41:29.999Z</time></trkpt><trkpt lat="44.6939944" lon="8.7964043"><ele>237.0</ele><time>2026-04-16T12:41:30.999Z</time></trkpt><trkpt lat="44.6940873" lon="8.7962998"><ele>238.5</ele><time>2026-04-16T12:41:31.999Z</time></trkpt><trkpt lat="44.6941753" lon="8.7961885"><ele>240.0</ele><time>2026-04-16T12:41:32.999Z</time></trkpt><trkpt lat="44.6942588" lon="8.7960637"><ele>240.75</ele><time>2026-04-16T12:41:33.999Z</time></trkpt><trkpt lat="44.6943391" lon="8.79593"><ele>241.5</ele><time>2026-04-16T12:41:34.999Z</time></trkpt><trkpt lat="44.6944177" lon="8.7957985"><ele>242.25</ele><time>2026-04-16T12:41:35.999Z</time></trkpt><trkpt lat="44.6944962" lon="8.7956726"><ele>243.0</ele><time>2026-04-16T12:41:36.999Z</time></trkpt><trkpt lat="44.6945777" lon="8.7955551"><ele>243.0</ele><time>2026-04-16T12:41:37.999Z</time></trkpt><trkpt lat="44.694675" lon="8.7954666"><ele>243.0</ele><time>2026-04-16T12:41:38.999Z</time></trkpt><trkpt lat="44.6947798" lon="8.7953923"><ele>243.0</ele><time>2026-04-16T12:41:39.999Z</time></trkpt><trkpt lat="44.6948983" lon="8.795336"><ele>243.0</ele><time>2026-04-16T12:41:40.999Z</time></trkpt><trkpt lat="44.6950149" lon="8.7952697"><ele>243.0</ele><time>2026-04-16T12:41:41.999Z</time></trkpt><trkpt lat="44.6951339" lon="8.7951917"><ele>243.0</ele><time>2026-04-16T12:41:42.999Z</time></trkpt><trkpt lat="44.6952483" lon="8.7951093"><ele>243.0</ele><time>2026-04-16T12:41:43.999Z</time></trkpt><trkpt lat="44.6953601" lon="8.7950289"><ele>243.0</ele><time>2026-04-16T12:41:44.999Z</time></trkpt><trkpt lat="44.6954727" lon="8.7949422"><ele>241.5</ele><time>2026-04-16T12:41:45.999Z</time></trkpt><trkpt lat="44.6955799" lon="8.7948551"><ele>240.0</ele><time>2026-04-16T12:41:46.999Z</time></trkpt><trkpt lat="44.6956906" lon="8.7947785"><ele>238.5</ele><time>2026-04-16T12:41:47.999Z</time></trkpt><trkpt lat="44.6957986" lon="8.7946918"><ele>237.0</ele><time>2026-04-16T12:41:48.999Z</time></trkpt><trkpt lat="44.6959025" lon="8.7946456"><ele>237.0</ele><time>2026-04-16T12:41:49.999Z</time></trkpt><trkpt lat="44.6960071" lon="8.7945595"><ele>237.0</ele><time>2026-04-16T12:41:50.999Z</time></trkpt><trkpt lat="44.6961088" lon="8.7944615"><ele>237.0</ele><time>2026-04-16T12:41:51.999Z</time></trkpt><trkpt lat="44.6962068" lon="8.7943405"><ele>237.0</ele><time>2026-04-16T12:41:52.999Z</time></trkpt><trkpt lat="44.6962983" lon="8.7942106"><ele>234.33333333333331</ele><time>2026-04-16T12:41:54.117Z</time></trkpt><trkpt lat="44.6964796" lon="8.7939326"><ele>231.66666666666666</ele><time>2026-04-16T12:41:55.999Z</time></trkpt><trkpt lat="44.6965685" lon="8.7937936"><ele>229.0</ele><time>2026-04-16T12:41:56.999Z</time></trkpt><trkpt lat="44.6966552" lon="8.7936554"><ele>229.0</ele><time>2026-04-16T12:41:57.999Z</time></trkpt><trkpt lat="44.69674" lon="8.7935348"><ele>229.0</ele><time>2026-04-16T12:41:58.999Z</time></trkpt><trkpt lat="44.6968161" lon="8.7933824"><ele>229.0</ele><time>2026-04-16T12:41:59.999Z</time></trkpt><trkpt lat="44.6968765" lon="8.7932197"><ele>229.0</ele><time>2026-04-16T12:42:01.111Z</time></trkpt><trkpt lat="44.696954" lon="8.7928921"><ele>228.0</ele><time>2026-04-16T12:42:02.999Z</time></trkpt><trkpt lat="44.6969711" lon="8.7927048"><ele>227.0</ele><time>2026-04-16T12:42:04.122Z</time></trkpt><trkpt lat="44.696939" lon="8.7923499"><ele>226.0</ele><time>2026-04-16T12:42:05.999Z</time></trkpt><trkpt lat="44.6969257" lon="8.7921839"><ele>221.5</ele><time>2026-04-16T12:42:06.999Z</time></trkpt><trkpt lat="44.6969124" lon="8.7920087"><ele>217.0</ele><time>2026-04-16T12:42:07.999Z</time></trkpt><trkpt lat="44.6969061" lon="8.79184"><ele>212.5</ele><time>2026-04-16T12:42:08.999Z</time></trkpt><trkpt lat="44.696896" lon="8.7916856"><ele>208.0</ele><time>2026-04-16T12:42:10.108Z</time></trkpt><trkpt lat="44.6968857" lon="8.7913819"><ele>207.25</ele><time>2026-04-16T12:42:11.999Z</time></trkpt><trkpt lat="44.6968754" lon="8.7912323"><ele>206.5</ele><time>2026-04-16T12:42:12.999Z</time></trkpt><trkpt lat="44.6968677" lon="8.791071"><ele>205.75</ele><time>2026-04-16T12:42:13.999Z</time></trkpt><trkpt lat="44.6968584" lon="8.7909041"><ele>205.0</ele><time>2026-04-16T12:42:14.999Z</time></trkpt><trkpt lat="44.6968465" lon="8.7907415"><ele>205.0</ele><time>2026-04-16T12:42:15.999Z</time></trkpt><trkpt lat="44.6968271" lon="8.7905765"><ele>205.0</ele><time>2026-04-16T12:42:16.999Z</time></trkpt><trkpt lat="44.6968065" lon="8.7904093"><ele>205.0</ele><time>2026-04-16T12:42:17.999Z</time></trkpt><trkpt lat="44.6967782" lon="8.7902429"><ele>205.0</ele><time>2026-04-16T12:42:18.999Z</time></trkpt><trkpt lat="44.6967415" lon="8.7900801"><ele>206.5</ele><time>2026-04-16T12:42:19.999Z</time></trkpt><trkpt lat="44.6967069" lon="8.7899233"><ele>208.0</ele><time>2026-04-16T12:42:20.999Z</time></trkpt><trkpt lat="44.6966635" lon="8.7897507"><ele>209.5</ele><time>2026-04-16T12:42:21.999Z</time></trkpt><trkpt lat="44.69661" lon="8.7895908"><ele>211.0</ele><time>2026-04-16T12:42:22.999Z</time></trkpt><trkpt lat="44.6965448" lon="8.7894304"><ele>213.25</ele><time>2026-04-16T12:42:23.999Z</time></trkpt><trkpt lat="44.6964781" lon="8.7892753"><ele>215.5</ele><time>2026-04-16T12:42:24.999Z</time></trkpt><trkpt lat="44.6963999" lon="8.7891064"><ele>217.75</ele><time>2026-04-16T12:42:25.999Z</time></trkpt><trkpt lat="44.6963291" lon="8.7889402"><ele>220.0</ele><time>2026-04-16T12:42:26.999Z</time></trkpt><trkpt lat="44.6962689" lon="8.788744"><ele>220.0</ele><time>2026-04-16T12:42:27.999Z</time></trkpt><trkpt lat="44.6962091" lon="8.788555"><ele>220.0</ele><time>2026-04-16T12:42:28.999Z</time></trkpt><trkpt lat="44.6961567" lon="8.7883697"><ele>220.0</ele><time>2026-04-16T12:42:29.999Z</time></trkpt><trkpt lat="44.6960959" lon="8.7881887"><ele>220.0</ele><time>2026-04-16T12:42:30.999Z</time></trkpt><trkpt lat="44.6960253" lon="8.7880116"><ele>217.25</ele><time>2026-04-16T12:42:31.999Z</time></trkpt><trkpt lat="44.6959461" lon="8.7878408"><ele>214.5</ele><time>2026-04-16T12:42:32.999Z</time></trkpt><trkpt lat="44.6958598" lon="8.787676"><ele>211.75</ele><time>2026-04-16T12:42:33.999Z</time></trkpt><trkpt lat="44.6957734" lon="8.7875088"><ele>209.0</ele><time>2026-04-16T12:42:34.999Z</time></trkpt><trkpt lat="44.6956887" lon="8.7873419"><ele>209.0</ele><time>2026-04-16T12:42:35.999Z</time></trkpt><trkpt lat="44.6956062" lon="8.7871659"><ele>209.0</ele><time>2026-04-16T12:42:36.999Z</time></trkpt><trkpt lat="44.695532" lon="8.7869954"><ele>209.0</ele><time>2026-04-16T12:42:37.999Z</time></trkpt><trkpt lat="44.6954636" lon="8.7868187"><ele>209.0</ele><time>2026-04-16T12:42:38.999Z</time></trkpt><trkpt lat="44.695394" lon="8.7866366"><ele>207.33333333333334</ele><time>2026-04-16T12:42:39.999Z</time></trkpt><trkpt lat="44.6953275" lon="8.7864523"><ele>205.66666666666669</ele><time>2026-04-16T12:42:40.999Z</time></trkpt><trkpt lat="44.6952628" lon="8.7862614"><ele>204.0</ele><time>2026-04-16T12:42:41.999Z</time></trkpt><trkpt lat="44.6952064" lon="8.7860577"><ele>204.66666666666669</ele><time>2026-04-16T12:42:42.999Z</time></trkpt><trkpt lat="44.695161" lon="8.7858415"><ele>205.33333333333334</ele><time>2026-04-16T12:42:43.999Z</time></trkpt><trkpt lat="44.6951202" lon="8.7856226"><ele>206.0</ele><time>2026-04-16T12:42:44.999Z</time></trkpt><trkpt lat="44.6950828" lon="8.7854071"><ele>206.0</ele><time>2026-04-16T12:42:45.999Z</time></trkpt><trkpt lat="44.6950422" lon="8.7852129"><ele>206.0</ele><time>2026-04-16T12:42:46.999Z</time></trkpt><trkpt lat="44.6949518" lon="8.7850291"><ele>206.0</ele><time>2026-04-16T12:42:47.999Z</time></trkpt><trkpt lat="44.6948707" lon="8.7848457"><ele>209.33333333333334</ele><time>2026-04-16T12:42:48.999Z</time></trkpt><trkpt lat="44.6947932" lon="8.7846583"><ele>212.66666666666669</ele><time>2026-04-16T12:42:49.999Z</time></trkpt><trkpt lat="44.6947216" lon="8.7844683"><ele>216.0</ele><time>2026-04-16T12:42:50.999Z</time></trkpt><trkpt lat="44.6946631" lon="8.7842722"><ele>220.0</ele><time>2026-04-16T12:42:51.999Z</time></trkpt><trkpt lat="44.6946117" lon="8.7840699"><ele>224.0</ele><time>2026-04-16T12:42:52.999Z</time></trkpt><trkpt lat="44.6945628" lon="8.7838774"><ele>228.0</ele><time>2026-04-16T12:42:54.106Z</time></trkpt><trkpt lat="44.6944564" lon="8.7834892"><ele>221.5</ele><time>2026-04-16T12:42:55.999Z</time></trkpt><trkpt lat="44.6943917" lon="8.7832963"><ele>215.0</ele><time>2026-04-16T12:42:56.999Z</time></trkpt><trkpt lat="44.6943233" lon="8.7831098"><ele>208.5</ele><time>2026-04-16T12:42:57.999Z</time></trkpt><trkpt lat="44.6942546" lon="8.7829254"><ele>202.0</ele><time>2026-04-16T12:42:58.999Z</time></trkpt><trkpt lat="44.6941878" lon="8.7827456"><ele>204.66666666666666</ele><time>2026-04-16T12:42:59.999Z</time></trkpt><trkpt lat="44.6941252" lon="8.7825632"><ele>207.33333333333331</ele><time>2026-04-16T12:43:01.107Z</time></trkpt><trkpt lat="44.6940259" lon="8.7821936"><ele>210.0</ele><time>2026-04-16T12:43:02.999Z</time></trkpt><trkpt lat="44.6939804" lon="8.7819987"><ele>210.5</ele><time>2026-04-16T12:43:03.999Z</time></trkpt><trkpt lat="44.6939345" lon="8.7817993"><ele>211.0</ele><time>2026-04-16T12:43:04.999Z</time></trkpt><trkpt lat="44.6938903" lon="8.7815995"><ele>211.5</ele><time>2026-04-16T12:43:05.999Z</time></trkpt><trkpt lat="44.6938451" lon="8.7814074"><ele>212.0</ele><time>2026-04-16T12:43:06.999Z</time></trkpt><trkpt lat="44.6938075" lon="8.7812074"><ele>211.5</ele><time>2026-04-16T12:43:07.999Z</time></trkpt><trkpt lat="44.6937791" lon="8.7810042"><ele>211.0</ele><time>2026-04-16T12:43:08.999Z</time></trkpt><trkpt lat="44.6937656" lon="8.7807988"><ele>210.5</ele><time>2026-04-16T12:43:09.999Z</time></trkpt><trkpt lat="44.6937738" lon="8.7805952"><ele>210.0</ele><time>2026-04-16T12:43:10.996Z</time></trkpt><trkpt lat="44.6937901" lon="8.7803807"><ele>210.0</ele><time>2026-04-16T12:43:11.999Z</time></trkpt><trkpt lat="44.6938218" lon="8.7801915"><ele>210.0</ele><time>2026-04-16T12:43:12.999Z</time></trkpt><trkpt lat="44.693851" lon="8.7799832"><ele>210.0</ele><time>2026-04-16T12:43:13.999Z</time></trkpt><trkpt lat="44.6938784" lon="8.7797735"><ele>210.0</ele><time>2026-04-16T12:43:14.999Z</time></trkpt><trkpt lat="44.6939089" lon="8.7795663"><ele>210.0</ele><time>2026-04-16T12:43:15.999Z</time></trkpt><trkpt lat="44.6939335" lon="8.7793583"><ele>210.0</ele><time>2026-04-16T12:43:16.999Z</time></trkpt><trkpt lat="44.6939597" lon="8.7791662"><ele>210.0</ele><time>2026-04-16T12:43:17.999Z</time></trkpt><trkpt lat="44.6939894" lon="8.7789851"><ele>210.0</ele><time>2026-04-16T12:43:18.999Z</time></trkpt><trkpt lat="44.6940276" lon="8.7788212"><ele>209.6</ele><time>2026-04-16T12:43:19.999Z</time></trkpt><trkpt lat="44.6940747" lon="8.7786951"><ele>209.2</ele><time>2026-04-16T12:43:20.999Z</time></trkpt><trkpt lat="44.6941441" lon="8.7785841"><ele>208.8</ele><time>2026-04-16T12:43:21.999Z</time></trkpt><trkpt lat="44.6942176" lon="8.778512"><ele>208.4</ele><time>2026-04-16T12:43:22.999Z</time></trkpt><trkpt lat="44.6943144" lon="8.7784884"><ele>208.0</ele><time>2026-04-16T12:43:23.999Z</time></trkpt><trkpt lat="44.6944092" lon="8.7785124"><ele>209.60000000000002</ele><time>2026-04-16T12:43:24.999Z</time></trkpt><trkpt lat="44.6944986" lon="8.7785287"><ele>211.20000000000002</ele><time>2026-04-16T12:43:25.999Z</time></trkpt><trkpt lat="44.6945894" lon="8.7785831"><ele>212.8</ele><time>2026-04-16T12:43:26.998Z</time></trkpt><trkpt lat="44.6946832" lon="8.7786326"><ele>214.4</ele><time>2026-04-16T12:43:27.999Z</time></trkpt><trkpt lat="44.6947823" lon="8.7786801"><ele>216.0</ele><time>2026-04-16T12:43:28.999Z</time></trkpt><trkpt lat="44.694876" lon="8.7787331"><ele>216.0</ele><time>2026-04-16T12:43:29.999Z</time></trkpt><trkpt lat="44.6949736" lon="8.7787881"><ele>216.00000000000003</ele><time>2026-04-16T12:43:30.999Z</time></trkpt><trkpt lat="44.6950713" lon="8.7788442"><ele>216.00000000000003</ele><time>2026-04-16T12:43:31.999Z</time></trkpt><trkpt lat="44.6951668" lon="8.7788859"><ele>216.0</ele><time>2026-04-16T12:43:32.999Z</time></trkpt><trkpt lat="44.6952583" lon="8.7789017"><ele>216.0</ele><time>2026-04-16T12:43:33.999Z</time></trkpt><trkpt lat="44.6953541" lon="8.7788901"><ele>217.4</ele><time>2026-04-16T12:43:34.999Z</time></trkpt><trkpt lat="44.6954449" lon="8.7788346"><ele>218.8</ele><time>2026-04-16T12:43:35.999Z</time></trkpt><trkpt lat="44.6955226" lon="8.7787543"><ele>220.20000000000002</ele><time>2026-04-16T12:43:36.999Z</time></trkpt><trkpt lat="44.695574" lon="8.7786309"><ele>221.60000000000002</ele><time>2026-04-16T12:43:37.999Z</time></trkpt><trkpt lat="44.6956125" lon="8.7784923"><ele>223.0</ele><time>2026-04-16T12:43:38.999Z</time></trkpt><trkpt lat="44.695639" lon="8.7783454"><ele>223.0</ele><time>2026-04-16T12:43:39.999Z</time></trkpt><trkpt lat="44.6956662" lon="8.7781894"><ele>223.0</ele><time>2026-04-16T12:43:40.999Z</time></trkpt><trkpt lat="44.6956931" lon="8.7780244"><ele>223.0</ele><time>2026-04-16T12:43:41.999Z</time></trkpt><trkpt lat="44.6957233" lon="8.7778511"><ele>223.0</ele><time>2026-04-16T12:43:42.999Z</time></trkpt><trkpt lat="44.6957546" lon="8.7776761"><ele>224.0</ele><time>2026-04-16T12:43:43.999Z</time></trkpt><trkpt lat="44.6957832" lon="8.7774917"><ele>225.0</ele><time>2026-04-16T12:43:44.999Z</time></trkpt><trkpt lat="44.6958013" lon="8.7773085"><ele>226.0</ele><time>2026-04-16T12:43:45.999Z</time></trkpt><trkpt lat="44.6958088" lon="8.7771225"><ele>227.0</ele><time>2026-04-16T12:43:46.999Z</time></trkpt><trkpt lat="44.6957951" lon="8.7769395"><ele>229.25</ele><time>2026-04-16T12:43:47.999Z</time></trkpt><trkpt lat="44.6957691" lon="8.7767657"><ele>231.5</ele><time>2026-04-16T12:43:48.999Z</time></trkpt><trkpt lat="44.695743" lon="8.7765962"><ele>233.75</ele><time>2026-04-16T12:43:49.999Z</time></trkpt><trkpt lat="44.6956798" lon="8.7764468"><ele>236.0</ele><time>2026-04-16T12:43:50.999Z</time></trkpt><trkpt lat="44.6956284" lon="8.7762992"><ele>236.0</ele><time>2026-04-16T12:43:51.999Z</time></trkpt><trkpt lat="44.6955788" lon="8.7761493"><ele>236.0</ele><time>2026-04-16T12:43:52.999Z</time></trkpt><trkpt lat="44.6955401" lon="8.7759887"><ele>236.0</ele><time>2026-04-16T12:43:53.999Z</time></trkpt><trkpt lat="44.6955137" lon="8.7758163"><ele>236.0</ele><time>2026-04-16T12:43:54.999Z</time></trkpt><trkpt lat="44.6955093" lon="8.7756469"><ele>238.75</ele><time>2026-04-16T12:43:55.999Z</time></trkpt><trkpt lat="44.6955019" lon="8.7754667"><ele>241.5</ele><time>2026-04-16T12:43:56.999Z</time></trkpt><trkpt lat="44.6955037" lon="8.7752762"><ele>244.25</ele><time>2026-04-16T12:43:57.999Z</time></trkpt><trkpt lat="44.6955073" lon="8.7750836"><ele>247.0</ele><time>2026-04-16T12:43:58.999Z</time></trkpt><trkpt lat="44.6955119" lon="8.774886"><ele>247.5</ele><time>2026-04-16T12:43:59.999Z</time></trkpt><trkpt lat="44.6955199" lon="8.7746824"><ele>248.0</ele><time>2026-04-16T12:44:00.999Z</time></trkpt><trkpt lat="44.6955221" lon="8.7744663"><ele>248.5</ele><time>2026-04-16T12:44:01.999Z</time></trkpt><trkpt lat="44.6955166" lon="8.7742551"><ele>249.0</ele><time>2026-04-16T12:44:02.999Z</time></trkpt><trkpt lat="44.6955094" lon="8.7740462"><ele>249.0</ele><time>2026-04-16T12:44:03.999Z</time></trkpt><trkpt lat="44.695501" lon="8.7738381"><ele>249.0</ele><time>2026-04-16T12:44:04.999Z</time></trkpt><trkpt lat="44.6954873" lon="8.7736207"><ele>249.0</ele><time>2026-04-16T12:44:05.999Z</time></trkpt><trkpt lat="44.6954677" lon="8.7734"><ele>247.25</ele><time>2026-04-16T12:44:06.999Z</time></trkpt><trkpt lat="44.6954436" lon="8.7731869"><ele>245.5</ele><time>2026-04-16T12:44:07.999Z</time></trkpt><trkpt lat="44.6954167" lon="8.7729846"><ele>243.75</ele><time>2026-04-16T12:44:08.999Z</time></trkpt><trkpt lat="44.6953955" lon="8.7727883"><ele>242.0</ele><time>2026-04-16T12:44:09.999Z</time></trkpt><trkpt lat="44.6953872" lon="8.7725941"><ele>241.0</ele><time>2026-04-16T12:44:10.999Z</time></trkpt><trkpt lat="44.6953991" lon="8.7724189"><ele>240.0</ele><time>2026-04-16T12:44:11.999Z</time></trkpt><trkpt lat="44.6954061" lon="8.7722453"><ele>239.0</ele><time>2026-04-16T12:44:12.999Z</time></trkpt><trkpt lat="44.6954053" lon="8.7720729"><ele>238.0</ele><time>2026-04-16T12:44:13.999Z</time></trkpt><trkpt lat="44.6953903" lon="8.7718891"><ele>238.25</ele><time>2026-04-16T12:44:14.999Z</time></trkpt><trkpt lat="44.6953863" lon="8.771713"><ele>238.5</ele><time>2026-04-16T12:44:15.999Z</time></trkpt><trkpt lat="44.6953623" lon="8.7715432"><ele>238.75</ele><time>2026-04-16T12:44:16.999Z</time></trkpt><trkpt lat="44.6953241" lon="8.7713479"><ele>239.0</ele><time>2026-04-16T12:44:17.999Z</time></trkpt><trkpt lat="44.6952682" lon="8.7711639"><ele>231.25</ele><time>2026-04-16T12:44:18.999Z</time></trkpt><trkpt lat="44.6952326" lon="8.7709971"><ele>223.5</ele><time>2026-04-16T12:44:19.999Z</time></trkpt><trkpt lat="44.6951888" lon="8.770865"><ele>215.75</ele><time>2026-04-16T12:44:20.999Z</time></trkpt><trkpt lat="44.6951636" lon="8.770709"><ele>208.0</ele><time>2026-04-16T12:44:21.999Z</time></trkpt><trkpt lat="44.6951693" lon="8.770552"><ele>208.0</ele><time>2026-04-16T12:44:22.999Z</time></trkpt><trkpt lat="44.6951897" lon="8.7703885"><ele>208.0</ele><time>2026-04-16T12:44:23.999Z</time></trkpt><trkpt lat="44.6952235" lon="8.7702303"><ele>208.0</ele><time>2026-04-16T12:44:24.999Z</time></trkpt><trkpt lat="44.6952836" lon="8.7700692"><ele>208.0</ele><time>2026-04-16T12:44:25.999Z</time></trkpt><trkpt lat="44.6953465" lon="8.7699104"><ele>210.25</ele><time>2026-04-16T12:44:26.999Z</time></trkpt><trkpt lat="44.695414" lon="8.769753"><ele>212.5</ele><time>2026-04-16T12:44:27.999Z</time></trkpt><trkpt lat="44.6954987" lon="8.7696053"><ele>214.75</ele><time>2026-04-16T12:44:28.999Z</time></trkpt><trkpt lat="44.6955837" lon="8.7694713"><ele>217.0</ele><time>2026-04-16T12:44:29.999Z</time></trkpt><trkpt lat="44.6956888" lon="8.7693446"><ele>217.0</ele><time>2026-04-16T12:44:30.999Z</time></trkpt><trkpt lat="44.6957972" lon="8.7692316"><ele>217.0</ele><time>2026-04-16T12:44:31.999Z</time></trkpt><trkpt lat="44.6959103" lon="8.7691157"><ele>217.0</ele><time>2026-04-16T12:44:32.999Z</time></trkpt><trkpt lat="44.6960326" lon="8.7690117"><ele>217.0</ele><time>2026-04-16T12:44:33.999Z</time></trkpt><trkpt lat="44.6961618" lon="8.7689222"><ele>220.0</ele><time>2026-04-16T12:44:34.999Z</time></trkpt><trkpt lat="44.6962903" lon="8.76883"><ele>223.0</ele><time>2026-04-16T12:44:35.999Z</time></trkpt><trkpt lat="44.696411" lon="8.7687373"><ele>226.0</ele><time>2026-04-16T12:44:36.999Z</time></trkpt><trkpt lat="44.6965614" lon="8.7686282"><ele>221.75</ele><time>2026-04-16T12:44:37.999Z</time></trkpt><trkpt lat="44.6966944" lon="8.7685101"><ele>217.5</ele><time>2026-04-16T12:44:38.999Z</time></trkpt><trkpt lat="44.6968074" lon="8.7684098"><ele>213.25</ele><time>2026-04-16T12:44:39.999Z</time></trkpt><trkpt lat="44.6969183" lon="8.7683167"><ele>209.0</ele><time>2026-04-16T12:44:40.999Z</time></trkpt><trkpt lat="44.6969991" lon="8.7681383"><ele>209.0</ele><time>2026-04-16T12:44:41.999Z</time></trkpt><trkpt lat="44.6970666" lon="8.7679466"><ele>209.0</ele><time>2026-04-16T12:44:42.999Z</time></trkpt><trkpt lat="44.6971343" lon="8.7677583"><ele>209.0</ele><time>2026-04-16T12:44:43.999Z</time></trkpt><trkpt lat="44.6971934" lon="8.7675583"><ele>208.0</ele><time>2026-04-16T12:44:44.999Z</time></trkpt><trkpt lat="44.6972559" lon="8.7673684"><ele>207.0</ele><time>2026-04-16T12:44:45.999Z</time></trkpt><trkpt lat="44.6973206" lon="8.767173"><ele>206.0</ele><time>2026-04-16T12:44:46.999Z</time></trkpt><trkpt lat="44.6973902" lon="8.7669964"><ele>205.0</ele><time>2026-04-16T12:44:47.999Z</time></trkpt><trkpt lat="44.6974745" lon="8.7668404"><ele>205.0</ele><time>2026-04-16T12:44:48.999Z</time></trkpt><trkpt lat="44.6975673" lon="8.7666956"><ele>205.0</ele><time>2026-04-16T12:44:49.999Z</time></trkpt><trkpt lat="44.6976626" lon="8.7665734"><ele>205.0</ele><time>2026-04-16T12:44:50.999Z</time></trkpt><trkpt lat="44.6977646" lon="8.7664202"><ele>205.0</ele><time>2026-04-16T12:44:51.999Z</time></trkpt><trkpt lat="44.6978668" lon="8.7662785"><ele>205.0</ele><time>2026-04-16T12:44:52.999Z</time></trkpt><trkpt lat="44.6979614" lon="8.7661103"><ele>205.0</ele><time>2026-04-16T12:44:53.999Z</time></trkpt><trkpt lat="44.6980519" lon="8.7659375"><ele>205.0</ele><time>2026-04-16T12:44:54.999Z</time></trkpt><trkpt lat="44.6981441" lon="8.7657671"><ele>205.0</ele><time>2026-04-16T12:44:55.999Z</time></trkpt><trkpt lat="44.6982296" lon="8.7655837"><ele>205.0</ele><time>2026-04-16T12:44:56.999Z</time></trkpt><trkpt lat="44.6983098" lon="8.7654126"><ele>205.0</ele><time>2026-04-16T12:44:57.999Z</time></trkpt><trkpt lat="44.698384" lon="8.7652371"><ele>205.0</ele><time>2026-04-16T12:44:58.999Z</time></trkpt><trkpt lat="44.6984599" lon="8.7650611"><ele>204.25</ele><time>2026-04-16T12:44:59.999Z</time></trkpt><trkpt lat="44.6985382" lon="8.7648891"><ele>203.5</ele><time>2026-04-16T12:45:00.999Z</time></trkpt><trkpt lat="44.6986174" lon="8.7647173"><ele>202.75</ele><time>2026-04-16T12:45:01.999Z</time></trkpt><trkpt lat="44.698698" lon="8.7645453"><ele>202.0</ele><time>2026-04-16T12:45:02.999Z</time></trkpt><trkpt lat="44.6987791" lon="8.7643736"><ele>201.0</ele><time>2026-04-16T12:45:03.999Z</time></trkpt><trkpt lat="44.6988625" lon="8.7641945"><ele>200.0</ele><time>2026-04-16T12:45:04.998Z</time></trkpt><trkpt lat="44.69895" lon="8.7640195"><ele>199.0</ele><time>2026-04-16T12:45:05.999Z</time></trkpt><trkpt lat="44.6990365" lon="8.7638473"><ele>199.0</ele><time>2026-04-16T12:45:06.999Z</time></trkpt><trkpt lat="44.6991231" lon="8.7636757"><ele>199.0</ele><time>2026-04-16T12:45:07.999Z</time></trkpt><trkpt lat="44.6992091" lon="8.7635051"><ele>199.0</ele><time>2026-04-16T12:45:08.999Z</time></trkpt><trkpt lat="44.6992971" lon="8.7633387"><ele>199.0</ele><time>2026-04-16T12:45:09.999Z</time></trkpt><trkpt lat="44.6993865" lon="8.7631737"><ele>198.5</ele><time>2026-04-16T12:45:10.999Z</time></trkpt><trkpt lat="44.6994799" lon="8.7630136"><ele>198.0</ele><time>2026-04-16T12:45:11.999Z</time></trkpt><trkpt lat="44.6996822" lon="8.7626963"><ele>197.0</ele><time>2026-04-16T12:45:13.999Z</time></trkpt><trkpt lat="44.6997799" lon="8.7625375"><ele>196.0</ele><time>2026-04-16T12:45:14.999Z</time></trkpt><trkpt lat="44.6998754" lon="8.7623864"><ele>195.0</ele><time>2026-04-16T12:45:15.999Z</time></trkpt><trkpt lat="44.6999698" lon="8.7622385"><ele>194.0</ele><time>2026-04-16T12:45:16.999Z</time></trkpt><trkpt lat="44.7000615" lon="8.762106"><ele>194.0</ele><time>2026-04-16T12:45:17.999Z</time></trkpt><trkpt lat="44.7001429" lon="8.7619298"><ele>194.0</ele><time>2026-04-16T12:45:18.999Z</time></trkpt><trkpt lat="44.7001997" lon="8.7617466"><ele>194.0</ele><time>2026-04-16T12:45:19.999Z</time></trkpt><trkpt lat="44.7002472" lon="8.761549"><ele>194.0</ele><time>2026-04-16T12:45:20.999Z</time></trkpt><trkpt lat="44.7002909" lon="8.7613485"><ele>193.5</ele><time>2026-04-16T12:45:21.999Z</time></trkpt><trkpt lat="44.7003395" lon="8.7611556"><ele>193.0</ele><time>2026-04-16T12:45:22.999Z</time></trkpt><trkpt lat="44.7003958" lon="8.7609666"><ele>192.5</ele><time>2026-04-16T12:45:23.999Z</time></trkpt><trkpt lat="44.7004602" lon="8.7607846"><ele>192.0</ele><time>2026-04-16T12:45:24.999Z</time></trkpt><trkpt lat="44.7005227" lon="8.7606006"><ele>191.25</ele><time>2026-04-16T12:45:25.999Z</time></trkpt><trkpt lat="44.700592" lon="8.7604186"><ele>190.5</ele><time>2026-04-16T12:45:26.999Z</time></trkpt><trkpt lat="44.7006559" lon="8.7602318"><ele>189.75</ele><time>2026-04-16T12:45:27.999Z</time></trkpt><trkpt lat="44.7007174" lon="8.7600422"><ele>189.0</ele><time>2026-04-16T12:45:28.999Z</time></trkpt><trkpt lat="44.7007808" lon="8.7598503"><ele>187.33333333333334</ele><time>2026-04-16T12:45:29.999Z</time></trkpt><trkpt lat="44.7008487" lon="8.7596587"><ele>185.66666666666669</ele><time>2026-04-16T12:45:30.999Z</time></trkpt><trkpt lat="44.7009159" lon="8.7594679"><ele>184.0</ele><time>2026-04-16T12:45:31.999Z</time></trkpt><trkpt lat="44.7009836" lon="8.7592762"><ele>183.5</ele><time>2026-04-16T12:45:32.999Z</time></trkpt><trkpt lat="44.7010521" lon="8.7590879"><ele>183.0</ele><time>2026-04-16T12:45:33.999Z</time></trkpt><trkpt lat="44.7011213" lon="8.7589"><ele>182.5</ele><time>2026-04-16T12:45:34.999Z</time></trkpt><trkpt lat="44.7011949" lon="8.7587191"><ele>182.0</ele><time>2026-04-16T12:45:35.999Z</time></trkpt><trkpt lat="44.7012755" lon="8.7585353"><ele>183.0</ele><time>2026-04-16T12:45:36.999Z</time></trkpt><trkpt lat="44.7013747" lon="8.7583696"><ele>184.0</ele><time>2026-04-16T12:45:37.999Z</time></trkpt><trkpt lat="44.7014748" lon="8.7582255"><ele>185.0</ele><time>2026-04-16T12:45:38.999Z</time></trkpt><trkpt lat="44.7015751" lon="8.7580849"><ele>186.0</ele><time>2026-04-16T12:45:39.999Z</time></trkpt><trkpt lat="44.701678" lon="8.757931"><ele>186.0</ele><time>2026-04-16T12:45:40.999Z</time></trkpt><trkpt lat="44.7017792" lon="8.7577856"><ele>186.0</ele><time>2026-04-16T12:45:41.999Z</time></trkpt><trkpt lat="44.7018809" lon="8.7576381"><ele>186.0</ele><time>2026-04-16T12:45:42.999Z</time></trkpt><trkpt lat="44.7019825" lon="8.7574916"><ele>186.0</ele><time>2026-04-16T12:45:43.999Z</time></trkpt><trkpt lat="44.7020836" lon="8.7573425"><ele>186.5</ele><time>2026-04-16T12:45:44.999Z</time></trkpt><trkpt lat="44.7021836" lon="8.757194"><ele>187.0</ele><time>2026-04-16T12:45:45.999Z</time></trkpt><trkpt lat="44.7022873" lon="8.757046"><ele>187.5</ele><time>2026-04-16T12:45:46.999Z</time></trkpt><trkpt lat="44.7023958" lon="8.7569029"><ele>188.0</ele><time>2026-04-16T12:45:47.999Z</time></trkpt><trkpt lat="44.7025096" lon="8.7567621"><ele>187.33333333333331</ele><time>2026-04-16T12:45:48.999Z</time></trkpt><trkpt lat="44.7026305" lon="8.7566322"><ele>186.66666666666666</ele><time>2026-04-16T12:45:49.999Z</time></trkpt><trkpt lat="44.7027564" lon="8.756512"><ele>186.0</ele><time>2026-04-16T12:45:50.999Z</time></trkpt><trkpt lat="44.7028861" lon="8.756397"><ele>186.0</ele><time>2026-04-16T12:45:51.999Z</time></trkpt><trkpt lat="44.7030147" lon="8.7562812"><ele>186.0</ele><time>2026-04-16T12:45:52.999Z</time></trkpt><trkpt lat="44.7031351" lon="8.7561516"><ele>186.0</ele><time>2026-04-16T12:45:53.999Z</time></trkpt><trkpt lat="44.7032392" lon="8.7559905"><ele>183.33333333333334</ele><time>2026-04-16T12:45:54.999Z</time></trkpt><trkpt lat="44.7033368" lon="8.7558247"><ele>180.66666666666669</ele><time>2026-04-16T12:45:55.999Z</time></trkpt><trkpt lat="44.703427" lon="8.7556539"><ele>178.0</ele><time>2026-04-16T12:45:56.999Z</time></trkpt><trkpt lat="44.7035114" lon="8.7554812"><ele>178.0</ele><time>2026-04-16T12:45:57.999Z</time></trkpt><trkpt lat="44.70359" lon="8.755302"><ele>178.0</ele><time>2026-04-16T12:45:58.999Z</time></trkpt><trkpt lat="44.7036637" lon="8.7551389"><ele>178.0</ele><time>2026-04-16T12:45:59.999Z</time></trkpt><trkpt lat="44.7037388" lon="8.7549774"><ele>178.0</ele><time>2026-04-16T12:46:00.999Z</time></trkpt><trkpt lat="44.7038223" lon="8.7548162"><ele>177.75</ele><time>2026-04-16T12:46:01.999Z</time></trkpt><trkpt lat="44.7039347" lon="8.7547209"><ele>177.5</ele><time>2026-04-16T12:46:02.999Z</time></trkpt><trkpt lat="44.7040606" lon="8.7546445"><ele>177.25</ele><time>2026-04-16T12:46:03.999Z</time></trkpt><trkpt lat="44.7041892" lon="8.7546075"><ele>177.0</ele><time>2026-04-16T12:46:04.999Z</time></trkpt><trkpt lat="44.7043252" lon="8.7545422"><ele>176.66666666666666</ele><time>2026-04-16T12:46:06.107Z</time></trkpt><trkpt lat="44.7045779" lon="8.7544558"><ele>176.33333333333331</ele><time>2026-04-16T12:46:07.999Z</time></trkpt><trkpt lat="44.7047161" lon="8.754403"><ele>176.0</ele><time>2026-04-16T12:46:08.999Z</time></trkpt><trkpt lat="44.7048487" lon="8.754348"><ele>176.0</ele><time>2026-04-16T12:46:09.999Z</time></trkpt><trkpt lat="44.7049811" lon="8.7542866"><ele>176.0</ele><time>2026-04-16T12:46:10.999Z</time></trkpt><trkpt lat="44.7051169" lon="8.7542338"><ele>176.0</ele><time>2026-04-16T12:46:11.999Z</time></trkpt><trkpt lat="44.7052501" lon="8.7541771"><ele>176.0</ele><time>2026-04-16T12:46:12.999Z</time></trkpt><trkpt lat="44.7053757" lon="8.7541231"><ele>175.66666666666666</ele><time>2026-04-16T12:46:14.118Z</time></trkpt><trkpt lat="44.7056223" lon="8.7540036"><ele>175.33333333333334</ele><time>2026-04-16T12:46:15.999Z</time></trkpt><trkpt lat="44.7057396" lon="8.7539482"><ele>175.0</ele><time>2026-04-16T12:46:16.999Z</time></trkpt><trkpt lat="44.7058623" lon="8.753886"><ele>175.0</ele><time>2026-04-16T12:46:17.999Z</time></trkpt><trkpt lat="44.7059827" lon="8.7538303"><ele>175.0</ele><time>2026-04-16T12:46:18.999Z</time></trkpt><trkpt lat="44.7061029" lon="8.7537712"><ele>175.0</ele><time>2026-04-16T12:46:19.999Z</time></trkpt><trkpt lat="44.7062361" lon="8.7537211"><ele>175.0</ele><time>2026-04-16T12:46:20.999Z</time></trkpt><trkpt lat="44.7063543" lon="8.7536644"><ele>175.0</ele><time>2026-04-16T12:46:21.999Z</time></trkpt><trkpt lat="44.7064761" lon="8.7536099"><ele>175.0</ele><time>2026-04-16T12:46:22.999Z</time></trkpt><trkpt lat="44.7066065" lon="8.7535632"><ele>175.0</ele><time>2026-04-16T12:46:23.999Z</time></trkpt><trkpt lat="44.706722" lon="8.7535148"><ele>175.0</ele><time>2026-04-16T12:46:24.999Z</time></trkpt><trkpt lat="44.7068509" lon="8.7534581"><ele>176.0</ele><time>2026-04-16T12:46:25.999Z</time></trkpt><trkpt lat="44.7069774" lon="8.7534001"><ele>177.0</ele><time>2026-04-16T12:46:26.999Z</time></trkpt><trkpt lat="44.7071155" lon="8.7533409"><ele>178.0</ele><time>2026-04-16T12:46:27.999Z</time></trkpt><trkpt lat="44.7072516" lon="8.7532754"><ele>179.0</ele><time>2026-04-16T12:46:28.999Z</time></trkpt><trkpt lat="44.7073818" lon="8.7532058"><ele>179.0</ele><time>2026-04-16T12:46:29.999Z</time></trkpt><trkpt lat="44.7075175" lon="8.7531385"><ele>179.0</ele><time>2026-04-16T12:46:30.999Z</time></trkpt><trkpt lat="44.7076492" lon="8.7530685"><ele>179.0</ele><time>2026-04-16T12:46:31.999Z</time></trkpt><trkpt lat="44.7077797" lon="8.7529927"><ele>179.0</ele><time>2026-04-16T12:46:32.999Z</time></trkpt><trkpt lat="44.7079108" lon="8.7529155"><ele>178.66666666666666</ele><time>2026-04-16T12:46:33.999Z</time></trkpt><trkpt lat="44.708049" lon="8.7528307"><ele>178.33333333333334</ele><time>2026-04-16T12:46:34.999Z</time></trkpt><trkpt lat="44.7081881" lon="8.752743"><ele>178.0</ele><time>2026-04-16T12:46:35.999Z</time></trkpt><trkpt lat="44.7083221" lon="8.7526594"><ele>178.0</ele><time>2026-04-16T12:46:36.999Z</time></trkpt><trkpt lat="44.7084533" lon="8.7525756"><ele>178.0</ele><time>2026-04-16T12:46:37.999Z</time></trkpt><trkpt lat="44.7085883" lon="8.7524881"><ele>178.0</ele><time>2026-04-16T12:46:38.999Z</time></trkpt><trkpt lat="44.7087256" lon="8.7524021"><ele>178.0</ele><time>2026-04-16T12:46:39.999Z</time></trkpt><trkpt lat="44.7088615" lon="8.7523133"><ele>180.0</ele><time>2026-04-16T12:46:40.999Z</time></trkpt><trkpt lat="44.7090011" lon="8.7522219"><ele>182.0</ele><time>2026-04-16T12:46:41.999Z</time></trkpt><trkpt lat="44.7091286" lon="8.7521424"><ele>184.0</ele><time>2026-04-16T12:46:42.999Z</time></trkpt><trkpt lat="44.7092626" lon="8.7520667"><ele>186.0</ele><time>2026-04-16T12:46:43.999Z</time></trkpt><trkpt lat="44.7094029" lon="8.7519972"><ele>187.0</ele><time>2026-04-16T12:46:44.999Z</time></trkpt><trkpt lat="44.7095419" lon="8.7519333"><ele>188.0</ele><time>2026-04-16T12:46:45.999Z</time></trkpt><trkpt lat="44.7096809" lon="8.751865"><ele>189.0</ele><time>2026-04-16T12:46:46.999Z</time></trkpt><trkpt lat="44.7098183" lon="8.7517948"><ele>190.0</ele><time>2026-04-16T12:46:47.999Z</time></trkpt><trkpt lat="44.7099542" lon="8.7517153"><ele>189.33333333333334</ele><time>2026-04-16T12:46:48.999Z</time></trkpt><trkpt lat="44.710093" lon="8.7516368"><ele>188.66666666666666</ele><time>2026-04-16T12:46:50.101Z</time></trkpt><trkpt lat="44.7103608" lon="8.7514712"><ele>188.0</ele><time>2026-04-16T12:46:51.999Z</time></trkpt><trkpt lat="44.7104926" lon="8.7513784"><ele>188.0</ele><time>2026-04-16T12:46:52.999Z</time></trkpt><trkpt lat="44.710631" lon="8.7512809"><ele>188.0</ele><time>2026-04-16T12:46:54.102Z</time></trkpt><trkpt lat="44.7108845" lon="8.7510746"><ele>188.0</ele><time>2026-04-16T12:46:55.999Z</time></trkpt><trkpt lat="44.7110133" lon="8.750982"><ele>184.66666666666666</ele><time>2026-04-16T12:46:56.999Z</time></trkpt><trkpt lat="44.7111653" lon="8.7509197"><ele>181.33333333333334</ele><time>2026-04-16T12:46:57.999Z</time></trkpt><trkpt lat="44.7113071" lon="8.7508653"><ele>178.0</ele><time>2026-04-16T12:46:58.999Z</time></trkpt><trkpt lat="44.7114472" lon="8.7508085"><ele>178.0</ele><time>2026-04-16T12:46:59.999Z</time></trkpt><trkpt lat="44.7115911" lon="8.7507792"><ele>178.0</ele><time>2026-04-16T12:47:00.999Z</time></trkpt><trkpt lat="44.7117378" lon="8.7507482"><ele>178.0</ele><time>2026-04-16T12:47:01.999Z</time></trkpt><trkpt lat="44.7118773" lon="8.7507114"><ele>178.0</ele><time>2026-04-16T12:47:02.999Z</time></trkpt><trkpt lat="44.7120163" lon="8.7506646"><ele>178.0</ele><time>2026-04-16T12:47:03.999Z</time></trkpt><trkpt lat="44.7121521" lon="8.7505989"><ele>178.0</ele><time>2026-04-16T12:47:04.999Z</time></trkpt><trkpt lat="44.7122861" lon="8.7505179"><ele>178.0</ele><time>2026-04-16T12:47:05.999Z</time></trkpt><trkpt lat="44.7124218" lon="8.7504318"><ele>178.0</ele><time>2026-04-16T12:47:06.999Z</time></trkpt><trkpt lat="44.7125591" lon="8.7503458"><ele>178.0</ele><time>2026-04-16T12:47:07.999Z</time></trkpt><trkpt lat="44.7126936" lon="8.7502603"><ele>178.0</ele><time>2026-04-16T12:47:08.999Z</time></trkpt><trkpt lat="44.7128295" lon="8.7501744"><ele>178.0</ele><time>2026-04-16T12:47:09.999Z</time></trkpt><trkpt lat="44.7129624" lon="8.7500911"><ele>178.0</ele><time>2026-04-16T12:47:10.999Z</time></trkpt><trkpt lat="44.7130974" lon="8.7500067"><ele>176.25</ele><time>2026-04-16T12:47:11.999Z</time></trkpt><trkpt lat="44.7132278" lon="8.7499148"><ele>174.5</ele><time>2026-04-16T12:47:12.999Z</time></trkpt><trkpt lat="44.7133625" lon="8.7498356"><ele>172.75</ele><time>2026-04-16T12:47:13.999Z</time></trkpt><trkpt lat="44.7134936" lon="8.7497594"><ele>171.0</ele><time>2026-04-16T12:47:14.999Z</time></trkpt><trkpt lat="44.7136258" lon="8.7496821"><ele>171.0</ele><time>2026-04-16T12:47:15.999Z</time></trkpt><trkpt lat="44.7137514" lon="8.7496087"><ele>171.0</ele><time>2026-04-16T12:47:16.999Z</time></trkpt><trkpt lat="44.7138763" lon="8.749554"><ele>171.0</ele><time>2026-04-16T12:47:17.999Z</time></trkpt><trkpt lat="44.7140034" lon="8.7495073"><ele>171.0</ele><time>2026-04-16T12:47:18.999Z</time></trkpt><trkpt lat="44.7141315" lon="8.7494513"><ele>171.0</ele><time>2026-04-16T12:47:19.999Z</time></trkpt><trkpt lat="44.7142634" lon="8.7493829"><ele>171.0</ele><time>2026-04-16T12:47:20.999Z</time></trkpt><trkpt lat="44.7143959" lon="8.7493125"><ele>171.0</ele><time>2026-04-16T12:47:21.999Z</time></trkpt><trkpt lat="44.7145265" lon="8.7492406"><ele>171.0</ele><time>2026-04-16T12:47:22.999Z</time></trkpt><trkpt lat="44.7146596" lon="8.7491663"><ele>170.5</ele><time>2026-04-16T12:47:23.999Z</time></trkpt><trkpt lat="44.7147879" lon="8.749094"><ele>170.0</ele><time>2026-04-16T12:47:24.999Z</time></trkpt><trkpt lat="44.7149167" lon="8.7490184"><ele>169.5</ele><time>2026-04-16T12:47:25.999Z</time></trkpt><trkpt lat="44.7150441" lon="8.7489406"><ele>169.0</ele><time>2026-04-16T12:47:26.999Z</time></trkpt><trkpt lat="44.7151736" lon="8.7488574"><ele>168.5</ele><time>2026-04-16T12:47:27.999Z</time></trkpt><trkpt lat="44.7153068" lon="8.7487692"><ele>168.0</ele><time>2026-04-16T12:47:28.999Z</time></trkpt><trkpt lat="44.7154454" lon="8.7486729"><ele>167.5</ele><time>2026-04-16T12:47:29.996Z</time></trkpt><trkpt lat="44.7155641" lon="8.7485652"><ele>167.0</ele><time>2026-04-16T12:47:30.999Z</time></trkpt><trkpt lat="44.7156868" lon="8.7484705"><ele>167.0</ele><time>2026-04-16T12:47:31.999Z</time></trkpt><trkpt lat="44.7158041" lon="8.7483472"><ele>167.0</ele><time>2026-04-16T12:47:32.999Z</time></trkpt><trkpt lat="44.7159243" lon="8.7482248"><ele>167.0</ele><time>2026-04-16T12:47:33.999Z</time></trkpt><trkpt lat="44.716041" lon="8.7480964"><ele>167.0</ele><time>2026-04-16T12:47:34.999Z</time></trkpt><trkpt lat="44.7161596" lon="8.7479709"><ele>167.75</ele><time>2026-04-16T12:47:35.999Z</time></trkpt><trkpt lat="44.716271" lon="8.7478481"><ele>168.5</ele><time>2026-04-16T12:47:36.999Z</time></trkpt><trkpt lat="44.7163896" lon="8.747721"><ele>169.25</ele><time>2026-04-16T12:47:37.999Z</time></trkpt><trkpt lat="44.7165034" lon="8.7475938"><ele>170.0</ele><time>2026-04-16T12:47:38.999Z</time></trkpt><trkpt lat="44.7166174" lon="8.7474723"><ele>170.75</ele><time>2026-04-16T12:47:39.999Z</time></trkpt><trkpt lat="44.7167282" lon="8.7473509"><ele>171.5</ele><time>2026-04-16T12:47:40.999Z</time></trkpt><trkpt lat="44.7168455" lon="8.7472252"><ele>172.25</ele><time>2026-04-16T12:47:41.999Z</time></trkpt><trkpt lat="44.7169598" lon="8.747099"><ele>173.0</ele><time>2026-04-16T12:47:42.999Z</time></trkpt><trkpt lat="44.7170799" lon="8.7469684"><ele>171.5</ele><time>2026-04-16T12:47:43.999Z</time></trkpt><trkpt lat="44.7171955" lon="8.7468457"><ele>170.0</ele><time>2026-04-16T12:47:44.999Z</time></trkpt><trkpt lat="44.7173077" lon="8.746728"><ele>168.5</ele><time>2026-04-16T12:47:45.999Z</time></trkpt><trkpt lat="44.717424" lon="8.7466031"><ele>167.0</ele><time>2026-04-16T12:47:46.999Z</time></trkpt><trkpt lat="44.71754" lon="8.7464774"><ele>167.0</ele><time>2026-04-16T12:47:47.999Z</time></trkpt><trkpt lat="44.717655" lon="8.7463417"><ele>167.0</ele><time>2026-04-16T12:47:48.999Z</time></trkpt><trkpt lat="44.7177685" lon="8.7462193"><ele>167.0</ele><time>2026-04-16T12:47:49.999Z</time></trkpt><trkpt lat="44.7178835" lon="8.7460979"><ele>167.0</ele><time>2026-04-16T12:47:50.999Z</time></trkpt><trkpt lat="44.7179992" lon="8.7459744"><ele>167.5</ele><time>2026-04-16T12:47:51.999Z</time></trkpt><trkpt lat="44.7181142" lon="8.7458531"><ele>168.0</ele><time>2026-04-16T12:47:52.999Z</time></trkpt><trkpt lat="44.7182298" lon="8.7457257"><ele>168.5</ele><time>2026-04-16T12:47:53.999Z</time></trkpt><trkpt lat="44.7183452" lon="8.745604"><ele>169.0</ele><time>2026-04-16T12:47:54.999Z</time></trkpt><trkpt lat="44.7184633" lon="8.745474"><ele>169.5</ele><time>2026-04-16T12:47:55.999Z</time></trkpt><trkpt lat="44.7185806" lon="8.7453473"><ele>170.0</ele><time>2026-04-16T12:47:56.999Z</time></trkpt><trkpt lat="44.7186952" lon="8.7452226"><ele>170.5</ele><time>2026-04-16T12:47:57.999Z</time></trkpt><trkpt lat="44.7188091" lon="8.7451037"><ele>171.0</ele><time>2026-04-16T12:47:58.999Z</time></trkpt><trkpt lat="44.719038" lon="8.7448578"><ele>171.0</ele><time>2026-04-16T12:48:00.999Z</time></trkpt><trkpt lat="44.7191521" lon="8.7447333"><ele>171.0</ele><time>2026-04-16T12:48:01.999Z</time></trkpt><trkpt lat="44.7192659" lon="8.7446094"><ele>171.0</ele><time>2026-04-16T12:48:02.999Z</time></trkpt><trkpt lat="44.7193893" lon="8.744487"><ele>171.0</ele><time>2026-04-16T12:48:03.999Z</time></trkpt><trkpt lat="44.7195058" lon="8.7443605"><ele>170.25</ele><time>2026-04-16T12:48:04.999Z</time></trkpt><trkpt lat="44.7196216" lon="8.7442366"><ele>169.5</ele><time>2026-04-16T12:48:05.999Z</time></trkpt><trkpt lat="44.7197393" lon="8.7441113"><ele>168.75</ele><time>2026-04-16T12:48:06.999Z</time></trkpt><trkpt lat="44.7198555" lon="8.7439839"><ele>168.0</ele><time>2026-04-16T12:48:07.999Z</time></trkpt><trkpt lat="44.7199694" lon="8.7438549"><ele>168.0</ele><time>2026-04-16T12:48:08.999Z</time></trkpt><trkpt lat="44.7200861" lon="8.7437307"><ele>168.0</ele><time>2026-04-16T12:48:09.999Z</time></trkpt><trkpt lat="44.7202052" lon="8.7435827"><ele>168.0</ele><time>2026-04-16T12:48:10.999Z</time></trkpt><trkpt lat="44.7203199" lon="8.743462"><ele>168.0</ele><time>2026-04-16T12:48:11.999Z</time></trkpt><trkpt lat="44.720447" lon="8.7433437"><ele>168.33333333333334</ele><time>2026-04-16T12:48:12.999Z</time></trkpt><trkpt lat="44.7205706" lon="8.7432133"><ele>168.66666666666669</ele><time>2026-04-16T12:48:13.999Z</time></trkpt><trkpt lat="44.7206961" lon="8.7430746"><ele>169.0</ele><time>2026-04-16T12:48:14.999Z</time></trkpt><trkpt lat="44.720819" lon="8.7429489"><ele>169.0</ele><time>2026-04-16T12:48:15.999Z</time></trkpt><trkpt lat="44.7209381" lon="8.742824"><ele>169.0</ele><time>2026-04-16T12:48:16.999Z</time></trkpt><trkpt lat="44.7210537" lon="8.7427024"><ele>169.0</ele><time>2026-04-16T12:48:17.999Z</time></trkpt><trkpt lat="44.7211713" lon="8.74258"><ele>169.0</ele><time>2026-04-16T12:48:18.999Z</time></trkpt><trkpt lat="44.7212951" lon="8.7424616"><ele>168.5</ele><time>2026-04-16T12:48:19.999Z</time></trkpt><trkpt lat="44.7214173" lon="8.7423558"><ele>168.0</ele><time>2026-04-16T12:48:20.999Z</time></trkpt><trkpt lat="44.7215381" lon="8.7422535"><ele>167.5</ele><time>2026-04-16T12:48:21.999Z</time></trkpt><trkpt lat="44.7216684" lon="8.7421615"><ele>167.0</ele><time>2026-04-16T12:48:22.999Z</time></trkpt><trkpt lat="44.7218076" lon="8.7420644"><ele>167.66666666666666</ele><time>2026-04-16T12:48:23.999Z</time></trkpt><trkpt lat="44.7219502" lon="8.7419699"><ele>168.33333333333334</ele><time>2026-04-16T12:48:24.999Z</time></trkpt><trkpt lat="44.7220992" lon="8.7418737"><ele>169.0</ele><time>2026-04-16T12:48:25.999Z</time></trkpt><trkpt lat="44.7222464" lon="8.7417743"><ele>167.0</ele><time>2026-04-16T12:48:26.999Z</time></trkpt><trkpt lat="44.7223995" lon="8.7416703"><ele>165.0</ele><time>2026-04-16T12:48:27.999Z</time></trkpt><trkpt lat="44.7225526" lon="8.7415659"><ele>163.0</ele><time>2026-04-16T12:48:28.999Z</time></trkpt><trkpt lat="44.7227103" lon="8.7414579"><ele>162.66666666666669</ele><time>2026-04-16T12:48:29.999Z</time></trkpt><trkpt lat="44.7228667" lon="8.74135"><ele>162.33333333333334</ele><time>2026-04-16T12:48:30.999Z</time></trkpt><trkpt lat="44.7230237" lon="8.7412503"><ele>162.0</ele><time>2026-04-16T12:48:31.999Z</time></trkpt><trkpt lat="44.7231815" lon="8.7411463"><ele>162.0</ele><time>2026-04-16T12:48:32.999Z</time></trkpt><trkpt lat="44.7233349" lon="8.7410513"><ele>162.0</ele><time>2026-04-16T12:48:33.999Z</time></trkpt><trkpt lat="44.7234786" lon="8.7409592"><ele>162.0</ele><time>2026-04-16T12:48:34.999Z</time></trkpt><trkpt lat="44.7236147" lon="8.7408651"><ele>162.0</ele><time>2026-04-16T12:48:35.999Z</time></trkpt><trkpt lat="44.7237569" lon="8.740773"><ele>162.0</ele><time>2026-04-16T12:48:36.999Z</time></trkpt><trkpt lat="44.7238934" lon="8.7406813"><ele>162.0</ele><time>2026-04-16T12:48:37.999Z</time></trkpt><trkpt lat="44.7240333" lon="8.7405813"><ele>162.0</ele><time>2026-04-16T12:48:38.999Z</time></trkpt><trkpt lat="44.7241744" lon="8.7404874"><ele>162.0</ele><time>2026-04-16T12:48:39.999Z</time></trkpt><trkpt lat="44.7244521" lon="8.7402963"><ele>162.0</ele><time>2026-04-16T12:48:41.999Z</time></trkpt><trkpt lat="44.7245996" lon="8.7402053"><ele>162.0</ele><time>2026-04-16T12:48:42.999Z</time></trkpt><trkpt lat="44.7247423" lon="8.7401096"><ele>162.0</ele><time>2026-04-16T12:48:43.999Z</time></trkpt><trkpt lat="44.7248843" lon="8.7400126"><ele>162.0</ele><time>2026-04-16T12:48:44.999Z</time></trkpt><trkpt lat="44.725035" lon="8.7399173"><ele>162.0</ele><time>2026-04-16T12:48:45.999Z</time></trkpt><trkpt lat="44.7251884" lon="8.7398207"><ele>162.0</ele><time>2026-04-16T12:48:46.998Z</time></trkpt><trkpt lat="44.725332" lon="8.7397525"><ele>161.66666666666666</ele><time>2026-04-16T12:48:47.999Z</time></trkpt><trkpt lat="44.7254805" lon="8.7396397"><ele>161.33333333333331</ele><time>2026-04-16T12:48:48.999Z</time></trkpt><trkpt lat="44.7256268" lon="8.7395374"><ele>161.0</ele><time>2026-04-16T12:48:49.999Z</time></trkpt><trkpt lat="44.7257832" lon="8.739437"><ele>161.0</ele><time>2026-04-16T12:48:50.998Z</time></trkpt><trkpt lat="44.7259281" lon="8.7393321"><ele>161.0</ele><time>2026-04-16T12:48:51.998Z</time></trkpt><trkpt lat="44.7260777" lon="8.7392329"><ele>161.0</ele><time>2026-04-16T12:48:52.999Z</time></trkpt><trkpt lat="44.7262285" lon="8.7391328"><ele>160.66666666666666</ele><time>2026-04-16T12:48:53.999Z</time></trkpt><trkpt lat="44.7263743" lon="8.7390369"><ele>160.33333333333334</ele><time>2026-04-16T12:48:54.999Z</time></trkpt><trkpt lat="44.7265187" lon="8.7389426"><ele>160.0</ele><time>2026-04-16T12:48:55.999Z</time></trkpt><trkpt lat="44.7266712" lon="8.73885"><ele>160.0</ele><time>2026-04-16T12:48:56.999Z</time></trkpt><trkpt lat="44.7268178" lon="8.7387558"><ele>160.0</ele><time>2026-04-16T12:48:57.999Z</time></trkpt><trkpt lat="44.7269568" lon="8.7386612"><ele>160.0</ele><time>2026-04-16T12:48:58.999Z</time></trkpt><trkpt lat="44.7270967" lon="8.7385678"><ele>160.25</ele><time>2026-04-16T12:48:59.999Z</time></trkpt><trkpt lat="44.727226" lon="8.7384836"><ele>160.5</ele><time>2026-04-16T12:49:00.999Z</time></trkpt><trkpt lat="44.7273576" lon="8.7383925"><ele>160.75</ele><time>2026-04-16T12:49:01.999Z</time></trkpt><trkpt lat="44.727492" lon="8.7383077"><ele>161.0</ele><time>2026-04-16T12:49:02.999Z</time></trkpt><trkpt lat="44.7276271" lon="8.7382264"><ele>161.25</ele><time>2026-04-16T12:49:03.999Z</time></trkpt><trkpt lat="44.7277471" lon="8.7381483"><ele>161.5</ele><time>2026-04-16T12:49:04.998Z</time></trkpt><trkpt lat="44.7278728" lon="8.7380656"><ele>161.75</ele><time>2026-04-16T12:49:05.999Z</time></trkpt><trkpt lat="44.7279933" lon="8.7379777"><ele>162.0</ele><time>2026-04-16T12:49:06.999Z</time></trkpt><trkpt lat="44.7281157" lon="8.7378757"><ele>162.0</ele><time>2026-04-16T12:49:07.999Z</time></trkpt><trkpt lat="44.7282279" lon="8.7378238"><ele>162.0</ele><time>2026-04-16T12:49:08.999Z</time></trkpt><trkpt lat="44.728345" lon="8.7377413"><ele>162.0</ele><time>2026-04-16T12:49:09.999Z</time></trkpt><trkpt lat="44.7284672" lon="8.7376617"><ele>162.0</ele><time>2026-04-16T12:49:10.999Z</time></trkpt><trkpt lat="44.7285863" lon="8.7375744"><ele>164.5</ele><time>2026-04-16T12:49:11.999Z</time></trkpt><trkpt lat="44.7287154" lon="8.7374842"><ele>167.0</ele><time>2026-04-16T12:49:12.999Z</time></trkpt><trkpt lat="44.7288265" lon="8.7374028"><ele>169.5</ele><time>2026-04-16T12:49:13.999Z</time></trkpt><trkpt lat="44.7289352" lon="8.7373121"><ele>172.0</ele><time>2026-04-16T12:49:14.999Z</time></trkpt><trkpt lat="44.7290465" lon="8.7372186"><ele>172.0</ele><time>2026-04-16T12:49:15.999Z</time></trkpt><trkpt lat="44.7291568" lon="8.7371178"><ele>172.0</ele><time>2026-04-16T12:49:16.999Z</time></trkpt><trkpt lat="44.7292469" lon="8.7370156"><ele>172.0</ele><time>2026-04-16T12:49:18.1Z</time></trkpt><trkpt lat="44.729435" lon="8.7368168"><ele>172.25</ele><time>2026-04-16T12:49:19.999Z</time></trkpt><trkpt lat="44.7295281" lon="8.736704"><ele>172.5</ele><time>2026-04-16T12:49:20.999Z</time></trkpt><trkpt lat="44.7296259" lon="8.7366027"><ele>172.75</ele><time>2026-04-16T12:49:21.999Z</time></trkpt><trkpt lat="44.7297239" lon="8.7364943"><ele>173.0</ele><time>2026-04-16T12:49:22.999Z</time></trkpt><trkpt lat="44.7298186" lon="8.7363916"><ele>173.0</ele><time>2026-04-16T12:49:24.105Z</time></trkpt><trkpt lat="44.7299109" lon="8.7362894"><ele>173.0</ele><time>2026-04-16T12:49:25.105Z</time></trkpt><trkpt lat="44.7300797" lon="8.7360785"><ele>173.0</ele><time>2026-04-16T12:49:26.999Z</time></trkpt><trkpt lat="44.7301522" lon="8.7359778"><ele>173.0</ele><time>2026-04-16T12:49:27.999Z</time></trkpt><trkpt lat="44.7302232" lon="8.7358808"><ele>173.0</ele><time>2026-04-16T12:49:28.999Z</time></trkpt><trkpt lat="44.7302896" lon="8.7357915"><ele>173.0</ele><time>2026-04-16T12:49:29.999Z</time></trkpt><trkpt lat="44.7303541" lon="8.7357054"><ele>173.0</ele><time>2026-04-16T12:49:30.999Z</time></trkpt><trkpt lat="44.7304202" lon="8.7356186"><ele>173.0</ele><time>2026-04-16T12:49:31.999Z</time></trkpt><trkpt lat="44.7304871" lon="8.7355274"><ele>173.0</ele><time>2026-04-16T12:49:32.999Z</time></trkpt><trkpt lat="44.730556" lon="8.7354405"><ele>173.0</ele><time>2026-04-16T12:49:33.999Z</time></trkpt><trkpt lat="44.7306258" lon="8.7353633"><ele>173.0</ele><time>2026-04-16T12:49:34.999Z</time></trkpt><trkpt lat="44.7306939" lon="8.7353063"><ele>173.0</ele><time>2026-04-16T12:49:35.999Z</time></trkpt><trkpt lat="44.7307744" lon="8.7352521"><ele>173.0</ele><time>2026-04-16T12:49:36.999Z</time></trkpt><trkpt lat="44.730888" lon="8.7352197"><ele>173.0</ele><time>2026-04-16T12:49:37.999Z</time></trkpt><trkpt lat="44.7309754" lon="8.7352086"><ele>171.0</ele><time>2026-04-16T12:49:38.999Z</time></trkpt><trkpt lat="44.7310709" lon="8.7352037"><ele>169.0</ele><time>2026-04-16T12:49:39.999Z</time></trkpt><trkpt lat="44.7311685" lon="8.7352026"><ele>167.0</ele><time>2026-04-16T12:49:41.111Z</time></trkpt><trkpt lat="44.7313621" lon="8.7351612"><ele>165.0</ele><time>2026-04-16T12:49:42.999Z</time></trkpt><trkpt lat="44.7314476" lon="8.7351425"><ele>165.0</ele><time>2026-04-16T12:49:44.121Z</time></trkpt><trkpt lat="44.7315276" lon="8.7351064"><ele>165.0</ele><time>2026-04-16T12:49:45.12Z</time></trkpt><trkpt lat="44.7316597" lon="8.7350299"><ele>165.0</ele><time>2026-04-16T12:49:46.999Z</time></trkpt><trkpt lat="44.7317182" lon="8.7349967"><ele>165.0</ele><time>2026-04-16T12:49:47.999Z</time></trkpt><trkpt lat="44.7318743" lon="8.7348987"><ele>166.71428571428572</ele><time>2026-04-16T12:49:50.999Z</time></trkpt><trkpt lat="44.7319294" lon="8.7348512"><ele>168.42857142857144</ele><time>2026-04-16T12:49:51.999Z</time></trkpt><trkpt lat="44.7319878" lon="8.7347996"><ele>170.14285714285717</ele><time>2026-04-16T12:49:52.999Z</time></trkpt><trkpt lat="44.7320432" lon="8.7347424"><ele>171.85714285714286</ele><time>2026-04-16T12:49:53.999Z</time></trkpt><trkpt lat="44.7320965" lon="8.7346848"><ele>173.57142857142856</ele><time>2026-04-16T12:49:54.999Z</time></trkpt><trkpt lat="44.7321554" lon="8.7346194"><ele>175.2857142857143</ele><time>2026-04-16T12:49:55.999Z</time></trkpt><trkpt lat="44.7322182" lon="8.7345376"><ele>177.0</ele><time>2026-04-16T12:49:56.999Z</time></trkpt><trkpt lat="44.7322806" lon="8.7344888"><ele>177.0</ele><time>2026-04-16T12:49:57.999Z</time></trkpt><trkpt lat="44.7323313" lon="8.734407"><ele>177.0</ele><time>2026-04-16T12:49:58.999Z</time></trkpt><trkpt lat="44.7323899" lon="8.7343269"><ele>177.0</ele><time>2026-04-16T12:49:59.999Z</time></trkpt><trkpt lat="44.7324451" lon="8.7342311"><ele>177.0</ele><time>2026-04-16T12:50:00.999Z</time></trkpt><trkpt lat="44.7325024" lon="8.7341543"><ele>177.0</ele><time>2026-04-16T12:50:01.999Z</time></trkpt><trkpt lat="44.7325622" lon="8.7340743"><ele>177.0</ele><time>2026-04-16T12:50:02.999Z</time></trkpt><trkpt lat="44.7326306" lon="8.7340157"><ele>176.0</ele><time>2026-04-16T12:50:03.999Z</time></trkpt><trkpt lat="44.7327028" lon="8.7339392"><ele>175.0</ele><time>2026-04-16T12:50:04.999Z</time></trkpt><trkpt lat="44.7327702" lon="8.733884"><ele>174.0</ele><time>2026-04-16T12:50:05.999Z</time></trkpt><trkpt lat="44.7328395" lon="8.7338301"><ele>173.0</ele><time>2026-04-16T12:50:06.999Z</time></trkpt><trkpt lat="44.7329175" lon="8.7337847"><ele>172.0</ele><time>2026-04-16T12:50:07.999Z</time></trkpt><trkpt lat="44.7329968" lon="8.7337452"><ele>171.0</ele><time>2026-04-16T12:50:08.999Z</time></trkpt><trkpt lat="44.7330686" lon="8.7337063"><ele>171.0</ele><time>2026-04-16T12:50:09.999Z</time></trkpt><trkpt lat="44.733153" lon="8.7336765"><ele>171.0</ele><time>2026-04-16T12:50:10.999Z</time></trkpt><trkpt lat="44.7332227" lon="8.7336324"><ele>171.0</ele><time>2026-04-16T12:50:11.999Z</time></trkpt><trkpt lat="44.7332957" lon="8.733569"><ele>171.0</ele><time>2026-04-16T12:50:12.999Z</time></trkpt><trkpt lat="44.7333691" lon="8.7335098"><ele>171.0</ele><time>2026-04-16T12:50:13.999Z</time></trkpt><trkpt lat="44.7334524" lon="8.7334353"><ele>171.0</ele><time>2026-04-16T12:50:14.999Z</time></trkpt><trkpt lat="44.733528" lon="8.7333567"><ele>171.16666666666666</ele><time>2026-04-16T12:50:15.999Z</time></trkpt><trkpt lat="44.7336026" lon="8.7332811"><ele>171.33333333333334</ele><time>2026-04-16T12:50:16.999Z</time></trkpt><trkpt lat="44.7336752" lon="8.7332112"><ele>171.5</ele><time>2026-04-16T12:50:17.999Z</time></trkpt><trkpt lat="44.7337491" lon="8.7331455"><ele>171.66666666666669</ele><time>2026-04-16T12:50:18.999Z</time></trkpt><trkpt lat="44.7338192" lon="8.7330828"><ele>171.83333333333334</ele><time>2026-04-16T12:50:19.999Z</time></trkpt><trkpt lat="44.733881" lon="8.7330166"><ele>172.0</ele><time>2026-04-16T12:50:20.999Z</time></trkpt><trkpt lat="44.7339424" lon="8.7329559"><ele>172.0</ele><time>2026-04-16T12:50:21.999Z</time></trkpt><trkpt lat="44.7339948" lon="8.7329006"><ele>172.0</ele><time>2026-04-16T12:50:22.999Z</time></trkpt><trkpt lat="44.7340481" lon="8.732848"><ele>172.0</ele><time>2026-04-16T12:50:23.999Z</time></trkpt><trkpt lat="44.734104" lon="8.7328011"><ele>172.0</ele><time>2026-04-16T12:50:24.999Z</time></trkpt><trkpt lat="44.7341968" lon="8.7327102"><ele>172.0</ele><time>2026-04-16T12:50:26.999Z</time></trkpt><trkpt lat="44.734298" lon="8.732611"><ele>172.0</ele><time>2026-04-16T12:50:28.999Z</time></trkpt><trkpt lat="44.734356" lon="8.7325602"><ele>171.0</ele><time>2026-04-16T12:50:29.999Z</time></trkpt><trkpt lat="44.7344169" lon="8.7325028"><ele>170.0</ele><time>2026-04-16T12:50:30.999Z</time></trkpt><trkpt lat="44.7344779" lon="8.7324376"><ele>169.0</ele><time>2026-04-16T12:50:31.999Z</time></trkpt><trkpt lat="44.7345491" lon="8.7323676"><ele>168.0</ele><time>2026-04-16T12:50:32.999Z</time></trkpt><trkpt lat="44.7346262" lon="8.7323022"><ele>167.0</ele><time>2026-04-16T12:50:33.999Z</time></trkpt><trkpt lat="44.7346946" lon="8.7322368"><ele>166.0</ele><time>2026-04-16T12:50:34.999Z</time></trkpt><trkpt lat="44.7347602" lon="8.7321753"><ele>166.0</ele><time>2026-04-16T12:50:35.999Z</time></trkpt><trkpt lat="44.7348286" lon="8.7321094"><ele>166.0</ele><time>2026-04-16T12:50:36.999Z</time></trkpt><trkpt lat="44.7348929" lon="8.7320468"><ele>166.0</ele><time>2026-04-16T12:50:37.999Z</time></trkpt><trkpt lat="44.7349633" lon="8.7319875"><ele>166.0</ele><time>2026-04-16T12:50:38.999Z</time></trkpt><trkpt lat="44.7350311" lon="8.7319251"><ele>166.0</ele><time>2026-04-16T12:50:39.999Z</time></trkpt><trkpt lat="44.7351047" lon="8.7318589"><ele>166.0</ele><time>2026-04-16T12:50:40.999Z</time></trkpt><trkpt lat="44.735176" lon="8.7317967"><ele>165.83333333333334</ele><time>2026-04-16T12:50:41.999Z</time></trkpt><trkpt lat="44.7352433" lon="8.7317314"><ele>165.66666666666669</ele><time>2026-04-16T12:50:42.999Z</time></trkpt><trkpt lat="44.7353115" lon="8.7316669"><ele>165.5</ele><time>2026-04-16T12:50:43.999Z</time></trkpt><trkpt lat="44.7353766" lon="8.7316063"><ele>165.33333333333334</ele><time>2026-04-16T12:50:44.999Z</time></trkpt><trkpt lat="44.7354452" lon="8.7315471"><ele>165.16666666666666</ele><time>2026-04-16T12:50:45.999Z</time></trkpt><trkpt lat="44.7355035" lon="8.7314924"><ele>165.0</ele><time>2026-04-16T12:50:46.999Z</time></trkpt><trkpt lat="44.7355607" lon="8.7314405"><ele>165.0</ele><time>2026-04-16T12:50:47.999Z</time></trkpt><trkpt lat="44.7356184" lon="8.7313861"><ele>165.0</ele><time>2026-04-16T12:50:48.999Z</time></trkpt><trkpt lat="44.7357277" lon="8.7312916"><ele>165.0</ele><time>2026-04-16T12:50:50.999Z</time></trkpt><trkpt lat="44.735783" lon="8.7312425"><ele>165.0</ele><time>2026-04-16T12:50:51.999Z</time></trkpt><trkpt lat="44.7358889" lon="8.7311397"><ele>165.0</ele><time>2026-04-16T12:50:53.999Z</time></trkpt><trkpt lat="44.7359473" lon="8.7310864"><ele>164.8</ele><time>2026-04-16T12:50:54.999Z</time></trkpt><trkpt lat="44.7360091" lon="8.7310309"><ele>164.6</ele><time>2026-04-16T12:50:55.999Z</time></trkpt><trkpt lat="44.7360691" lon="8.7309719"><ele>164.39999999999998</ele><time>2026-04-16T12:50:56.999Z</time></trkpt><trkpt lat="44.7361407" lon="8.7309146"><ele>164.2</ele><time>2026-04-16T12:50:57.999Z</time></trkpt><trkpt lat="44.7362092" lon="8.7308449"><ele>164.0</ele><time>2026-04-16T12:50:58.999Z</time></trkpt><trkpt lat="44.7363464" lon="8.7306912"><ele>164.0</ele><time>2026-04-16T12:51:01.114Z</time></trkpt><trkpt lat="44.7364924" lon="8.730553"><ele>164.0</ele><time>2026-04-16T12:51:02.999Z</time></trkpt><trkpt lat="44.7365743" lon="8.7304771"><ele>164.0</ele><time>2026-04-16T12:51:03.999Z</time></trkpt><trkpt lat="44.7366588" lon="8.7304035"><ele>164.0</ele><time>2026-04-16T12:51:05.123Z</time></trkpt><trkpt lat="44.7368203" lon="8.7302481"><ele>164.0</ele><time>2026-04-16T12:51:06.999Z</time></trkpt><trkpt lat="44.7369124" lon="8.7301646"><ele>164.0</ele><time>2026-04-16T12:51:07.999Z</time></trkpt><trkpt lat="44.7370058" lon="8.7300858"><ele>164.0</ele><time>2026-04-16T12:51:09.117Z</time></trkpt><trkpt lat="44.7371985" lon="8.7299104"><ele>164.0</ele><time>2026-04-16T12:51:10.999Z</time></trkpt><trkpt lat="44.7372962" lon="8.7298236"><ele>164.0</ele><time>2026-04-16T12:51:11.999Z</time></trkpt><trkpt lat="44.7373981" lon="8.7297351"><ele>164.0</ele><time>2026-04-16T12:51:12.999Z</time></trkpt><trkpt lat="44.7375058" lon="8.7296339"><ele>164.0</ele><time>2026-04-16T12:51:14.114Z</time></trkpt><trkpt lat="44.7376108" lon="8.7295346"><ele>164.0</ele><time>2026-04-16T12:51:15.121Z</time></trkpt><trkpt lat="44.7378341" lon="8.7293203"><ele>164.0</ele><time>2026-04-16T12:51:16.999Z</time></trkpt><trkpt lat="44.7379487" lon="8.7292137"><ele>164.0</ele><time>2026-04-16T12:51:17.999Z</time></trkpt><trkpt lat="44.7380602" lon="8.7290985"><ele>164.0</ele><time>2026-04-16T12:51:18.999Z</time></trkpt><trkpt lat="44.738196" lon="8.7289646"><ele>164.0</ele><time>2026-04-16T12:51:19.999Z</time></trkpt><trkpt lat="44.738332" lon="8.7288297"><ele>164.0</ele><time>2026-04-16T12:51:20.999Z</time></trkpt><trkpt lat="44.7384823" lon="8.7286913"><ele>164.0</ele><time>2026-04-16T12:51:21.999Z</time></trkpt><trkpt lat="44.7386456" lon="8.7285489"><ele>164.0</ele><time>2026-04-16T12:51:22.999Z</time></trkpt><trkpt lat="44.7388093" lon="8.7284152"><ele>162.0</ele><time>2026-04-16T12:51:23.999Z</time></trkpt><trkpt lat="44.7389655" lon="8.7282753"><ele>160.0</ele><time>2026-04-16T12:51:24.999Z</time></trkpt><trkpt lat="44.7391212" lon="8.7281322"><ele>158.0</ele><time>2026-04-16T12:51:25.999Z</time></trkpt><trkpt lat="44.739282" lon="8.7279866"><ele>159.0</ele><time>2026-04-16T12:51:26.999Z</time></trkpt><trkpt lat="44.7394395" lon="8.7278439"><ele>160.0</ele><time>2026-04-16T12:51:27.999Z</time></trkpt><trkpt lat="44.7395982" lon="8.7277015"><ele>161.0</ele><time>2026-04-16T12:51:28.999Z</time></trkpt><trkpt lat="44.7397546" lon="8.727556"><ele>159.66666666666666</ele><time>2026-04-16T12:51:29.999Z</time></trkpt><trkpt lat="44.7399106" lon="8.7274101"><ele>158.33333333333334</ele><time>2026-04-16T12:51:30.999Z</time></trkpt><trkpt lat="44.7400701" lon="8.7272645"><ele>157.0</ele><time>2026-04-16T12:51:31.999Z</time></trkpt><trkpt lat="44.7402225" lon="8.7271221"><ele>157.0</ele><time>2026-04-16T12:51:32.999Z</time></trkpt><trkpt lat="44.7403793" lon="8.7269783"><ele>157.0</ele><time>2026-04-16T12:51:33.999Z</time></trkpt><trkpt lat="44.740535" lon="8.7268369"><ele>157.0</ele><time>2026-04-16T12:51:34.999Z</time></trkpt><trkpt lat="44.7406889" lon="8.7266923"><ele>157.33333333333334</ele><time>2026-04-16T12:51:35.999Z</time></trkpt><trkpt lat="44.7408435" lon="8.7265499"><ele>157.66666666666666</ele><time>2026-04-16T12:51:36.999Z</time></trkpt><trkpt lat="44.7409976" lon="8.7264074"><ele>158.0</ele><time>2026-04-16T12:51:37.999Z</time></trkpt><trkpt lat="44.7411558" lon="8.726262"><ele>158.0</ele><time>2026-04-16T12:51:39.112Z</time></trkpt><trkpt lat="44.7413144" lon="8.7261111"><ele>158.0</ele><time>2026-04-16T12:51:39.999Z</time></trkpt><trkpt lat="44.7414844" lon="8.7259724"><ele>158.0</ele><time>2026-04-16T12:51:40.999Z</time></trkpt><trkpt lat="44.7416462" lon="8.7258244"><ele>157.66666666666666</ele><time>2026-04-16T12:51:41.999Z</time></trkpt><trkpt lat="44.7418074" lon="8.7256787"><ele>157.33333333333334</ele><time>2026-04-16T12:51:42.999Z</time></trkpt><trkpt lat="44.7419678" lon="8.7255361"><ele>157.0</ele><time>2026-04-16T12:51:43.999Z</time></trkpt><trkpt lat="44.7421254" lon="8.7253932"><ele>157.0</ele><time>2026-04-16T12:51:44.999Z</time></trkpt><trkpt lat="44.7422823" lon="8.7252484"><ele>157.0</ele><time>2026-04-16T12:51:45.999Z</time></trkpt><trkpt lat="44.7424393" lon="8.7250998"><ele>157.0</ele><time>2026-04-16T12:51:46.999Z</time></trkpt><trkpt lat="44.7425936" lon="8.7249601"><ele>155.33333333333334</ele><time>2026-04-16T12:51:47.999Z</time></trkpt><trkpt lat="44.7427483" lon="8.7248155"><ele>153.66666666666666</ele><time>2026-04-16T12:51:48.999Z</time></trkpt><trkpt lat="44.7429052" lon="8.7246713"><ele>152.0</ele><time>2026-04-16T12:51:50.112Z</time></trkpt><trkpt lat="44.7432182" lon="8.7243792"><ele>152.0</ele><time>2026-04-16T12:51:51.999Z</time></trkpt><trkpt lat="44.7433751" lon="8.724233"><ele>152.0</ele><time>2026-04-16T12:51:52.999Z</time></trkpt><trkpt lat="44.7435379" lon="8.7240884"><ele>152.0</ele><time>2026-04-16T12:51:53.999Z</time></trkpt><trkpt lat="44.7436978" lon="8.7239413"><ele>151.0</ele><time>2026-04-16T12:51:54.999Z</time></trkpt><trkpt lat="44.7438586" lon="8.7237964"><ele>150.0</ele><time>2026-04-16T12:51:56.121Z</time></trkpt><trkpt lat="44.7441925" lon="8.7234897"><ele>150.0</ele><time>2026-04-16T12:51:57.999Z</time></trkpt><trkpt lat="44.7443619" lon="8.7233396"><ele>150.0</ele><time>2026-04-16T12:51:58.999Z</time></trkpt><trkpt lat="44.7445381" lon="8.723177"><ele>150.0</ele><time>2026-04-16T12:52:00.126Z</time></trkpt><trkpt lat="44.744893" lon="8.7228505"><ele>150.33333333333334</ele><time>2026-04-16T12:52:01.999Z</time></trkpt><trkpt lat="44.7450752" lon="8.7226919"><ele>150.66666666666669</ele><time>2026-04-16T12:52:02.999Z</time></trkpt><trkpt lat="44.7452522" lon="8.7225265"><ele>151.0</ele><time>2026-04-16T12:52:04.116Z</time></trkpt><trkpt lat="44.7454249" lon="8.7223652"><ele>151.0</ele><time>2026-04-16T12:52:05.111Z</time></trkpt><trkpt lat="44.745748" lon="8.7220543"><ele>151.0</ele><time>2026-04-16T12:52:06.999Z</time></trkpt><trkpt lat="44.7459024" lon="8.7219423"><ele>150.0</ele><time>2026-04-16T12:52:08.104Z</time></trkpt><trkpt lat="44.7462242" lon="8.7218087"><ele>149.0</ele><time>2026-04-16T12:52:09.999Z</time></trkpt><trkpt lat="44.7464294" lon="8.7217756"><ele>149.0</ele><time>2026-04-16T12:52:10.999Z</time></trkpt><trkpt lat="44.7466044" lon="8.7217254"><ele>149.0</ele><time>2026-04-16T12:52:11.999Z</time></trkpt><trkpt lat="44.7467866" lon="8.7216641"><ele>149.0</ele><time>2026-04-16T12:52:12.999Z</time></trkpt><trkpt lat="44.7469655" lon="8.7215974"><ele>150.33333333333331</ele><time>2026-04-16T12:52:14.128Z</time></trkpt><trkpt lat="44.7471396" lon="8.7215312"><ele>151.66666666666666</ele><time>2026-04-16T12:52:15.105Z</time></trkpt><trkpt lat="44.7473284" lon="8.7214645"><ele>153.0</ele><time>2026-04-16T12:52:16.12Z</time></trkpt><trkpt lat="44.7477026" lon="8.7213357"><ele>155.33333333333334</ele><time>2026-04-16T12:52:17.999Z</time></trkpt><trkpt lat="44.7478924" lon="8.7212741"><ele>157.66666666666669</ele><time>2026-04-16T12:52:18.999Z</time></trkpt><trkpt lat="44.7480854" lon="8.7212097"><ele>160.0</ele><time>2026-04-16T12:52:20.148Z</time></trkpt><trkpt lat="44.7484243" lon="8.7210919"><ele>157.75</ele><time>2026-04-16T12:52:21.999Z</time></trkpt><trkpt lat="44.7485853" lon="8.7210347"><ele>155.5</ele><time>2026-04-16T12:52:22.999Z</time></trkpt><trkpt lat="44.7487203" lon="8.7209694"><ele>153.25</ele><time>2026-04-16T12:52:23.999Z</time></trkpt><trkpt lat="44.7488442" lon="8.7208783"><ele>151.0</ele><time>2026-04-16T12:52:24.999Z</time></trkpt><trkpt lat="44.7489467" lon="8.7207422"><ele>151.0</ele><time>2026-04-16T12:52:25.999Z</time></trkpt><trkpt lat="44.749048" lon="8.7205832"><ele>151.0</ele><time>2026-04-16T12:52:26.999Z</time></trkpt><trkpt lat="44.7491667" lon="8.7204414"><ele>151.0</ele><time>2026-04-16T12:52:27.999Z</time></trkpt><trkpt lat="44.7492972" lon="8.7203184"><ele>149.66666666666669</ele><time>2026-04-16T12:52:28.999Z</time></trkpt><trkpt lat="44.7494443" lon="8.7202124"><ele>148.33333333333334</ele><time>2026-04-16T12:52:29.999Z</time></trkpt><trkpt lat="44.7495998" lon="8.7201118"><ele>147.0</ele><time>2026-04-16T12:52:30.999Z</time></trkpt><trkpt lat="44.7497548" lon="8.7200164"><ele>147.0</ele><time>2026-04-16T12:52:31.999Z</time></trkpt><trkpt lat="44.749916" lon="8.719945"><ele>147.0</ele><time>2026-04-16T12:52:32.999Z</time></trkpt><trkpt lat="44.7500784" lon="8.7199021"><ele>147.0</ele><time>2026-04-16T12:52:33.999Z</time></trkpt><trkpt lat="44.7502608" lon="8.7198728"><ele>145.33333333333334</ele><time>2026-04-16T12:52:34.999Z</time></trkpt><trkpt lat="44.7504405" lon="8.7198755"><ele>143.66666666666669</ele><time>2026-04-16T12:52:35.997Z</time></trkpt><trkpt lat="44.7506158" lon="8.7198838"><ele>142.0</ele><time>2026-04-16T12:52:36.999Z</time></trkpt><trkpt lat="44.7507947" lon="8.7198988"><ele>142.0</ele><time>2026-04-16T12:52:37.999Z</time></trkpt><trkpt lat="44.7509686" lon="8.7199078"><ele>142.0</ele><time>2026-04-16T12:52:38.999Z</time></trkpt><trkpt lat="44.7511424" lon="8.7199141"><ele>142.0</ele><time>2026-04-16T12:52:39.999Z</time></trkpt><trkpt lat="44.7513069" lon="8.7199261"><ele>142.66666666666669</ele><time>2026-04-16T12:52:40.999Z</time></trkpt><trkpt lat="44.751489" lon="8.7199305"><ele>143.33333333333334</ele><time>2026-04-16T12:52:41.999Z</time></trkpt><trkpt lat="44.7516501" lon="8.7199404"><ele>144.0</ele><time>2026-04-16T12:52:42.999Z</time></trkpt><trkpt lat="44.751814" lon="8.719944"><ele>144.33333333333334</ele><time>2026-04-16T12:52:43.999Z</time></trkpt><trkpt lat="44.7519823" lon="8.7199602"><ele>144.66666666666669</ele><time>2026-04-16T12:52:44.999Z</time></trkpt><trkpt lat="44.7521494" lon="8.7199683"><ele>145.0</ele><time>2026-04-16T12:52:45.999Z</time></trkpt><trkpt lat="44.7523209" lon="8.7199692"><ele>145.0</ele><time>2026-04-16T12:52:46.999Z</time></trkpt><trkpt lat="44.7525032" lon="8.71995"><ele>145.0</ele><time>2026-04-16T12:52:47.999Z</time></trkpt><trkpt lat="44.7526727" lon="8.7199371"><ele>145.0</ele><time>2026-04-16T12:52:48.999Z</time></trkpt><trkpt lat="44.7528281" lon="8.7199117"><ele>147.33333333333334</ele><time>2026-04-16T12:52:49.999Z</time></trkpt><trkpt lat="44.7529793" lon="8.7198781"><ele>149.66666666666666</ele><time>2026-04-16T12:52:50.999Z</time></trkpt><trkpt lat="44.7531422" lon="8.7198385"><ele>152.0</ele><time>2026-04-16T12:52:51.999Z</time></trkpt><trkpt lat="44.7532881" lon="8.7197341"><ele>152.0</ele><time>2026-04-16T12:52:52.999Z</time></trkpt><trkpt lat="44.7534098" lon="8.7195844"><ele>152.0</ele><time>2026-04-16T12:52:53.999Z</time></trkpt><trkpt lat="44.7535359" lon="8.719442"><ele>152.0</ele><time>2026-04-16T12:52:54.999Z</time></trkpt><trkpt lat="44.7536747" lon="8.7192941"><ele>152.66666666666666</ele><time>2026-04-16T12:52:55.999Z</time></trkpt><trkpt lat="44.7538161" lon="8.7191468"><ele>153.33333333333334</ele><time>2026-04-16T12:52:56.999Z</time></trkpt><trkpt lat="44.7539634" lon="8.7189902"><ele>154.0</ele><time>2026-04-16T12:52:57.999Z</time></trkpt><trkpt lat="44.7541167" lon="8.7188294"><ele>154.0</ele><time>2026-04-16T12:52:58.999Z</time></trkpt><trkpt lat="44.7542737" lon="8.7186623"><ele>154.0</ele><time>2026-04-16T12:52:59.999Z</time></trkpt><trkpt lat="44.7544333" lon="8.7184911"><ele>154.0</ele><time>2026-04-16T12:53:00.999Z</time></trkpt><trkpt lat="44.7545942" lon="8.7183277"><ele>154.0</ele><time>2026-04-16T12:53:01.999Z</time></trkpt><trkpt lat="44.7547556" lon="8.7181544"><ele>154.0</ele><time>2026-04-16T12:53:02.999Z</time></trkpt><trkpt lat="44.7549108" lon="8.7179921"><ele>154.0</ele><time>2026-04-16T12:53:03.999Z</time></trkpt><trkpt lat="44.7550552" lon="8.7178316"><ele>155.33333333333334</ele><time>2026-04-16T12:53:04.999Z</time></trkpt><trkpt lat="44.7551954" lon="8.7176441"><ele>156.66666666666666</ele><time>2026-04-16T12:53:05.999Z</time></trkpt><trkpt lat="44.7553246" lon="8.7174365"><ele>158.0</ele><time>2026-04-16T12:53:06.999Z</time></trkpt><trkpt lat="44.7554455" lon="8.717218"><ele>158.0</ele><time>2026-04-16T12:53:07.999Z</time></trkpt><trkpt lat="44.7555596" lon="8.7170104"><ele>158.0</ele><time>2026-04-16T12:53:08.999Z</time></trkpt><trkpt lat="44.7556703" lon="8.7168136"><ele>158.0</ele><time>2026-04-16T12:53:09.999Z</time></trkpt><trkpt lat="44.7557789" lon="8.716625"><ele>156.66666666666666</ele><time>2026-04-16T12:53:10.999Z</time></trkpt><trkpt lat="44.7558939" lon="8.7164359"><ele>155.33333333333334</ele><time>2026-04-16T12:53:11.999Z</time></trkpt><trkpt lat="44.7560186" lon="8.716289"><ele>154.0</ele><time>2026-04-16T12:53:12.999Z</time></trkpt><trkpt lat="44.7561549" lon="8.7161727"><ele>150.66666666666669</ele><time>2026-04-16T12:53:13.999Z</time></trkpt><trkpt lat="44.7563026" lon="8.7160648"><ele>147.33333333333334</ele><time>2026-04-16T12:53:14.999Z</time></trkpt><trkpt lat="44.7564558" lon="8.7159582"><ele>144.0</ele><time>2026-04-16T12:53:15.999Z</time></trkpt><trkpt lat="44.7566149" lon="8.7158551"><ele>144.0</ele><time>2026-04-16T12:53:16.999Z</time></trkpt><trkpt lat="44.7567705" lon="8.7157519"><ele>144.0</ele><time>2026-04-16T12:53:17.999Z</time></trkpt><trkpt lat="44.7569334" lon="8.7156405"><ele>144.0</ele><time>2026-04-16T12:53:18.999Z</time></trkpt><trkpt lat="44.7571011" lon="8.7155303"><ele>142.33333333333334</ele><time>2026-04-16T12:53:19.999Z</time></trkpt><trkpt lat="44.7572732" lon="8.7154171"><ele>140.66666666666669</ele><time>2026-04-16T12:53:20.999Z</time></trkpt><trkpt lat="44.7574386" lon="8.7153037"><ele>139.0</ele><time>2026-04-16T12:53:21.999Z</time></trkpt><trkpt lat="44.7576171" lon="8.7151888"><ele>141.0</ele><time>2026-04-16T12:53:22.999Z</time></trkpt><trkpt lat="44.7577937" lon="8.7150731"><ele>143.0</ele><time>2026-04-16T12:53:23.999Z</time></trkpt><trkpt lat="44.7579721" lon="8.7149553"><ele>145.0</ele><time>2026-04-16T12:53:24.999Z</time></trkpt><trkpt lat="44.7581538" lon="8.7148394"><ele>145.0</ele><time>2026-04-16T12:53:25.999Z</time></trkpt><trkpt lat="44.7583329" lon="8.7147256"><ele>145.0</ele><time>2026-04-16T12:53:26.999Z</time></trkpt><trkpt lat="44.7585177" lon="8.7146042"><ele>145.0</ele><time>2026-04-16T12:53:27.999Z</time></trkpt><trkpt lat="44.7587013" lon="8.7144837"><ele>144.66666666666669</ele><time>2026-04-16T12:53:28.999Z</time></trkpt><trkpt lat="44.7588803" lon="8.7143668"><ele>144.33333333333334</ele><time>2026-04-16T12:53:29.999Z</time></trkpt><trkpt lat="44.7590669" lon="8.714258"><ele>144.0</ele><time>2026-04-16T12:53:30.999Z</time></trkpt><trkpt lat="44.7592504" lon="8.7141432"><ele>145.0</ele><time>2026-04-16T12:53:31.999Z</time></trkpt><trkpt lat="44.7594335" lon="8.7140236"><ele>146.0</ele><time>2026-04-16T12:53:32.999Z</time></trkpt><trkpt lat="44.7596066" lon="8.7139056"><ele>147.0</ele><time>2026-04-16T12:53:33.999Z</time></trkpt><trkpt lat="44.7597736" lon="8.7137966"><ele>147.0</ele><time>2026-04-16T12:53:34.999Z</time></trkpt><trkpt lat="44.7599463" lon="8.7136913"><ele>147.0</ele><time>2026-04-16T12:53:35.999Z</time></trkpt><trkpt lat="44.7601162" lon="8.7135976"><ele>147.0</ele><time>2026-04-16T12:53:36.999Z</time></trkpt><trkpt lat="44.7602952" lon="8.7135073"><ele>148.0</ele><time>2026-04-16T12:53:37.999Z</time></trkpt><trkpt lat="44.7604921" lon="8.7134467"><ele>149.0</ele><time>2026-04-16T12:53:38.999Z</time></trkpt><trkpt lat="44.7606591" lon="8.7133901"><ele>150.0</ele><time>2026-04-16T12:53:39.999Z</time></trkpt><trkpt lat="44.7608318" lon="8.7133252"><ele>150.0</ele><time>2026-04-16T12:53:40.999Z</time></trkpt><trkpt lat="44.7609926" lon="8.7132487"><ele>150.0</ele><time>2026-04-16T12:53:41.999Z</time></trkpt><trkpt lat="44.7611462" lon="8.7131491"><ele>150.0</ele><time>2026-04-16T12:53:42.999Z</time></trkpt><trkpt lat="44.7612973" lon="8.7130326"><ele>150.0</ele><time>2026-04-16T12:53:43.999Z</time></trkpt><trkpt lat="44.7614458" lon="8.7129032"><ele>150.0</ele><time>2026-04-16T12:53:44.999Z</time></trkpt><trkpt lat="44.7615794" lon="8.7127521"><ele>150.0</ele><time>2026-04-16T12:53:45.999Z</time></trkpt><trkpt lat="44.7617147" lon="8.712609"><ele>150.0</ele><time>2026-04-16T12:53:46.999Z</time></trkpt><trkpt lat="44.7618464" lon="8.7124668"><ele>150.0</ele><time>2026-04-16T12:53:47.999Z</time></trkpt><trkpt lat="44.7619779" lon="8.7123246"><ele>150.0</ele><time>2026-04-16T12:53:48.999Z</time></trkpt><trkpt lat="44.7621104" lon="8.7121852"><ele>150.33333333333334</ele><time>2026-04-16T12:53:49.999Z</time></trkpt><trkpt lat="44.7622239" lon="8.7120536"><ele>150.66666666666669</ele><time>2026-04-16T12:53:50.999Z</time></trkpt><trkpt lat="44.7623611" lon="8.7119501"><ele>151.0</ele><time>2026-04-16T12:53:51.999Z</time></trkpt><trkpt lat="44.7625173" lon="8.7118501"><ele>150.66666666666669</ele><time>2026-04-16T12:53:52.999Z</time></trkpt><trkpt lat="44.7626651" lon="8.7117592"><ele>150.33333333333334</ele><time>2026-04-16T12:53:53.999Z</time></trkpt><trkpt lat="44.7628351" lon="8.711666"><ele>150.0</ele><time>2026-04-16T12:53:54.999Z</time></trkpt><trkpt lat="44.7629839" lon="8.7115397"><ele>150.0</ele><time>2026-04-16T12:53:55.999Z</time></trkpt><trkpt lat="44.7631193" lon="8.7114004"><ele>150.0</ele><time>2026-04-16T12:53:56.999Z</time></trkpt><trkpt lat="44.7632477" lon="8.7112389"><ele>150.0</ele><time>2026-04-16T12:53:57.999Z</time></trkpt><trkpt lat="44.7633777" lon="8.7110737"><ele>150.0</ele><time>2026-04-16T12:53:58.999Z</time></trkpt><trkpt lat="44.7635029" lon="8.710903"><ele>150.0</ele><time>2026-04-16T12:53:59.999Z</time></trkpt><trkpt lat="44.7636249" lon="8.7107365"><ele>150.0</ele><time>2026-04-16T12:54:00.999Z</time></trkpt><trkpt lat="44.7637476" lon="8.7105726"><ele>150.0</ele><time>2026-04-16T12:54:01.999Z</time></trkpt><trkpt lat="44.7638694" lon="8.7104061"><ele>150.0</ele><time>2026-04-16T12:54:02.999Z</time></trkpt><trkpt lat="44.7639975" lon="8.7102436"><ele>150.0</ele><time>2026-04-16T12:54:03.999Z</time></trkpt><trkpt lat="44.7641233" lon="8.710088"><ele>150.0</ele><time>2026-04-16T12:54:04.999Z</time></trkpt><trkpt lat="44.7642525" lon="8.7099319"><ele>150.0</ele><time>2026-04-16T12:54:05.999Z</time></trkpt><trkpt lat="44.7643839" lon="8.7097824"><ele>150.0</ele><time>2026-04-16T12:54:06.999Z</time></trkpt><trkpt lat="44.7645221" lon="8.7096379"><ele>150.0</ele><time>2026-04-16T12:54:07.999Z</time></trkpt><trkpt lat="44.7646544" lon="8.7095216"><ele>150.0</ele><time>2026-04-16T12:54:08.999Z</time></trkpt><trkpt lat="44.7647875" lon="8.7094218"><ele>150.0</ele><time>2026-04-16T12:54:09.999Z</time></trkpt><trkpt lat="44.7648979" lon="8.7093135"><ele>150.0</ele><time>2026-04-16T12:54:10.999Z</time></trkpt><trkpt lat="44.7649883" lon="8.7091886"><ele>149.75</ele><time>2026-04-16T12:54:11.999Z</time></trkpt><trkpt lat="44.7650689" lon="8.7090595"><ele>149.5</ele><time>2026-04-16T12:54:12.999Z</time></trkpt><trkpt lat="44.7651328" lon="8.7089112"><ele>149.25</ele><time>2026-04-16T12:54:13.999Z</time></trkpt><trkpt lat="44.7651966" lon="8.7087655"><ele>149.0</ele><time>2026-04-16T12:54:14.999Z</time></trkpt><trkpt lat="44.7652596" lon="8.7086149"><ele>148.75</ele><time>2026-04-16T12:54:15.999Z</time></trkpt><trkpt lat="44.765323" lon="8.7084566"><ele>148.5</ele><time>2026-04-16T12:54:16.999Z</time></trkpt><trkpt lat="44.7653895" lon="8.708295"><ele>148.25</ele><time>2026-04-16T12:54:17.999Z</time></trkpt><trkpt lat="44.7654383" lon="8.7081414"><ele>148.0</ele><time>2026-04-16T12:54:18.999Z</time></trkpt><trkpt lat="44.7654877" lon="8.7079824"><ele>148.0</ele><time>2026-04-16T12:54:19.999Z</time></trkpt><trkpt lat="44.7655342" lon="8.7078394"><ele>148.0</ele><time>2026-04-16T12:54:20.999Z</time></trkpt><trkpt lat="44.7655749" lon="8.7076909"><ele>148.0</ele><time>2026-04-16T12:54:21.999Z</time></trkpt><trkpt lat="44.765617" lon="8.7075483"><ele>148.0</ele><time>2026-04-16T12:54:22.999Z</time></trkpt><trkpt lat="44.7656657" lon="8.7074104"><ele>148.0</ele><time>2026-04-16T12:54:23.999Z</time></trkpt><trkpt lat="44.7657077" lon="8.707275"><ele>147.8</ele><time>2026-04-16T12:54:24.999Z</time></trkpt><trkpt lat="44.7657591" lon="8.7071399"><ele>147.60000000000002</ele><time>2026-04-16T12:54:25.999Z</time></trkpt><trkpt lat="44.7658114" lon="8.7070017"><ele>147.39999999999998</ele><time>2026-04-16T12:54:26.999Z</time></trkpt><trkpt lat="44.7658658" lon="8.7068697"><ele>147.2</ele><time>2026-04-16T12:54:27.999Z</time></trkpt><trkpt lat="44.7659246" lon="8.7067403"><ele>147.0</ele><time>2026-04-16T12:54:28.999Z</time></trkpt><trkpt lat="44.765984" lon="8.7066289"><ele>147.0</ele><time>2026-04-16T12:54:29.999Z</time></trkpt><trkpt lat="44.7660513" lon="8.7065051"><ele>147.0</ele><time>2026-04-16T12:54:30.999Z</time></trkpt><trkpt lat="44.7661186" lon="8.7064015"><ele>147.0</ele><time>2026-04-16T12:54:31.999Z</time></trkpt><trkpt lat="44.7661774" lon="8.7062792"><ele>147.0</ele><time>2026-04-16T12:54:32.999Z</time></trkpt><trkpt lat="44.7662454" lon="8.7061613"><ele>147.0</ele><time>2026-04-16T12:54:33.999Z</time></trkpt><trkpt lat="44.7662916" lon="8.7060424"><ele>147.16666666666666</ele><time>2026-04-16T12:54:34.999Z</time></trkpt><trkpt lat="44.7663188" lon="8.7059338"><ele>147.33333333333334</ele><time>2026-04-16T12:54:35.999Z</time></trkpt><trkpt lat="44.766348" lon="8.7058246"><ele>147.5</ele><time>2026-04-16T12:54:36.998Z</time></trkpt><trkpt lat="44.7663913" lon="8.7057205"><ele>147.66666666666669</ele><time>2026-04-16T12:54:37.999Z</time></trkpt><trkpt lat="44.7664296" lon="8.7056254"><ele>147.83333333333334</ele><time>2026-04-16T12:54:38.999Z</time></trkpt><trkpt lat="44.7664633" lon="8.7055449"><ele>148.0</ele><time>2026-04-16T12:54:39.999Z</time></trkpt><trkpt lat="44.7665071" lon="8.7054366"><ele>148.0</ele><time>2026-04-16T12:54:41.999Z</time></trkpt><trkpt lat="44.7665962" lon="8.705443"><ele>148.0</ele><time>2026-04-16T12:54:43.999Z</time></trkpt><trkpt lat="44.7666936" lon="8.705491"><ele>148.0</ele><time>2026-04-16T12:54:45.999Z</time></trkpt><trkpt lat="44.7667657" lon="8.7055452"><ele>148.0</ele><time>2026-04-16T12:54:46.999Z</time></trkpt><trkpt lat="44.7668258" lon="8.7055851"><ele>148.0</ele><time>2026-04-16T12:54:47.999Z</time></trkpt><trkpt lat="44.7669019" lon="8.7056225"><ele>148.0</ele><time>2026-04-16T12:54:48.999Z</time></trkpt><trkpt lat="44.7669846" lon="8.7056565"><ele>148.16666666666669</ele><time>2026-04-16T12:54:49.999Z</time></trkpt><trkpt lat="44.7670528" lon="8.7056875"><ele>148.33333333333334</ele><time>2026-04-16T12:54:50.999Z</time></trkpt><trkpt lat="44.7671208" lon="8.7057129"><ele>148.5</ele><time>2026-04-16T12:54:51.999Z</time></trkpt><trkpt lat="44.767219" lon="8.7057339"><ele>148.66666666666666</ele><time>2026-04-16T12:54:52.999Z</time></trkpt><trkpt lat="44.7672854" lon="8.7057732"><ele>148.83333333333331</ele><time>2026-04-16T12:54:53.999Z</time></trkpt><trkpt lat="44.767352" lon="8.7058163"><ele>149.0</ele><time>2026-04-16T12:54:54.999Z</time></trkpt><trkpt lat="44.7674298" lon="8.7058586"><ele>149.0</ele><time>2026-04-16T12:54:55.999Z</time></trkpt><trkpt lat="44.7675168" lon="8.7058999"><ele>149.0</ele><time>2026-04-16T12:54:56.999Z</time></trkpt><trkpt lat="44.7675913" lon="8.7059586"><ele>149.0</ele><time>2026-04-16T12:54:57.999Z</time></trkpt><trkpt lat="44.7676785" lon="8.7059998"><ele>149.0</ele><time>2026-04-16T12:54:58.999Z</time></trkpt><trkpt lat="44.7677771" lon="8.7060569"><ele>149.0</ele><time>2026-04-16T12:54:59.999Z</time></trkpt><trkpt lat="44.7678715" lon="8.7060928"><ele>149.6</ele><time>2026-04-16T12:55:00.999Z</time></trkpt><trkpt lat="44.767964" lon="8.7061639"><ele>150.2</ele><time>2026-04-16T12:55:01.999Z</time></trkpt><trkpt lat="44.7680626" lon="8.7062092"><ele>150.79999999999998</ele><time>2026-04-16T12:55:02.999Z</time></trkpt><trkpt lat="44.7681611" lon="8.7062668"><ele>151.4</ele><time>2026-04-16T12:55:03.999Z</time></trkpt><trkpt lat="44.7682535" lon="8.7063146"><ele>152.0</ele><time>2026-04-16T12:55:04.999Z</time></trkpt><trkpt lat="44.7683467" lon="8.7063667"><ele>152.0</ele><time>2026-04-16T12:55:05.999Z</time></trkpt><trkpt lat="44.7684224" lon="8.706407"><ele>152.0</ele><time>2026-04-16T12:55:06.999Z</time></trkpt><trkpt lat="44.7684804" lon="8.7064416"><ele>152.0</ele><time>2026-04-16T12:55:07.999Z</time></trkpt><trkpt lat="44.7685321" lon="8.7064952"><ele>152.0</ele><time>2026-04-16T12:55:08.999Z</time></trkpt><trkpt lat="44.7685929" lon="8.7066266"><ele>152.0</ele><time>2026-04-16T12:55:10.999Z</time></trkpt><trkpt lat="44.7685979" lon="8.7068087"><ele>152.0</ele><time>2026-04-16T12:55:12.999Z</time></trkpt><trkpt lat="44.7686075" lon="8.7069071"><ele>152.33333333333331</ele><time>2026-04-16T12:55:13.999Z</time></trkpt><trkpt lat="44.768615" lon="8.7070076"><ele>152.66666666666666</ele><time>2026-04-16T12:55:14.999Z</time></trkpt><trkpt lat="44.7686332" lon="8.7071044"><ele>153.0</ele><time>2026-04-16T12:55:15.999Z</time></trkpt><trkpt lat="44.7686372" lon="8.7072153"><ele>153.33333333333334</ele><time>2026-04-16T12:55:16.999Z</time></trkpt><trkpt lat="44.7686428" lon="8.7073215"><ele>153.66666666666669</ele><time>2026-04-16T12:55:17.999Z</time></trkpt><trkpt lat="44.7686516" lon="8.7074264"><ele>154.0</ele><time>2026-04-16T12:55:18.999Z</time></trkpt><trkpt lat="44.7687259" lon="8.7075431"><ele>154.0</ele><time>2026-04-16T12:55:21.999Z</time></trkpt><trkpt lat="44.7687984" lon="8.7076187"><ele>154.0</ele><time>2026-04-16T12:55:25.999Z</time></trkpt><trkpt lat="44.768866" lon="8.707626"><ele>154.0</ele><time>2026-04-16T12:55:27.999Z</time></trkpt><trkpt lat="44.7689189" lon="8.7074973"><ele>154.0</ele><time>2026-04-16T12:55:29.999Z</time></trkpt><trkpt lat="44.7689375" lon="8.7073263"><ele>154.0</ele><time>2026-04-16T12:55:31.999Z</time></trkpt><trkpt lat="44.7689482" lon="8.7072221"><ele>154.0</ele><time>2026-04-16T12:55:32.999Z</time></trkpt><trkpt lat="44.7689853" lon="8.706974"><ele>154.0</ele><time>2026-04-16T12:55:35.101Z</time></trkpt><trkpt lat="44.7690467" lon="8.7066966"><ele>154.0</ele><time>2026-04-16T12:55:36.999Z</time></trkpt><trkpt lat="44.7690843" lon="8.7065648"><ele>153.25</ele><time>2026-04-16T12:55:37.999Z</time></trkpt><trkpt lat="44.769124" lon="8.7064251"><ele>152.5</ele><time>2026-04-16T12:55:38.999Z</time></trkpt><trkpt lat="44.7691662" lon="8.7062947"><ele>151.75</ele><time>2026-04-16T12:55:39.999Z</time></trkpt><trkpt lat="44.7692118" lon="8.7061542"><ele>151.0</ele><time>2026-04-16T12:55:41.101Z</time></trkpt><trkpt lat="44.7692822" lon="8.7058914"><ele>150.8</ele><time>2026-04-16T12:55:42.999Z</time></trkpt><trkpt lat="44.7693205" lon="8.7057564"><ele>150.6</ele><time>2026-04-16T12:55:43.999Z</time></trkpt><trkpt lat="44.7693562" lon="8.7056227"><ele>150.4</ele><time>2026-04-16T12:55:44.999Z</time></trkpt><trkpt lat="44.7693895" lon="8.7054862"><ele>150.2</ele><time>2026-04-16T12:55:45.999Z</time></trkpt><trkpt lat="44.769421" lon="8.7053542"><ele>150.0</ele><time>2026-04-16T12:55:46.999Z</time></trkpt><trkpt lat="44.7694388" lon="8.705202"><ele>150.0</ele><time>2026-04-16T12:55:47.999Z</time></trkpt><trkpt lat="44.7694536" lon="8.705049"><ele>150.0</ele><time>2026-04-16T12:55:48.999Z</time></trkpt><trkpt lat="44.7694698" lon="8.7049048"><ele>150.0</ele><time>2026-04-16T12:55:49.999Z</time></trkpt><trkpt lat="44.7694781" lon="8.7047604"><ele>150.0</ele><time>2026-04-16T12:55:50.999Z</time></trkpt><trkpt lat="44.7694787" lon="8.7046128"><ele>150.0</ele><time>2026-04-16T12:55:51.999Z</time></trkpt><trkpt lat="44.7694763" lon="8.7044804"><ele>149.83333333333334</ele><time>2026-04-16T12:55:52.999Z</time></trkpt><trkpt lat="44.7694753" lon="8.704375"><ele>149.66666666666666</ele><time>2026-04-16T12:55:53.999Z</time></trkpt><trkpt lat="44.7694939" lon="8.7042192"><ele>149.5</ele><time>2026-04-16T12:55:55.999Z</time></trkpt><trkpt lat="44.7695159" lon="8.7041185"><ele>149.33333333333331</ele><time>2026-04-16T12:55:57.999Z</time></trkpt><trkpt lat="44.769546" lon="8.703979"><ele>149.16666666666666</ele><time>2026-04-16T12:56:00.999Z</time></trkpt><trkpt lat="44.7695563" lon="8.7038665"><ele>149.0</ele><time>2026-04-16T12:56:02.999Z</time></trkpt><trkpt lat="44.7695184" lon="8.7037519"><ele>149.0</ele><time>2026-04-16T12:56:04.999Z</time></trkpt><trkpt lat="44.7694721" lon="8.7036269"><ele>149.0</ele><time>2026-04-16T12:56:06.999Z</time></trkpt><trkpt lat="44.7694153" lon="8.7035281"><ele>149.0</ele><time>2026-04-16T12:56:08.999Z</time></trkpt><trkpt lat="44.7693532" lon="8.7033989"><ele>149.0</ele><time>2026-04-16T12:56:10.999Z</time></trkpt><trkpt lat="44.7693092" lon="8.7031953"><ele>148.6</ele><time>2026-04-16T12:56:12.999Z</time></trkpt><trkpt lat="44.7692937" lon="8.7030796"><ele>148.2</ele><time>2026-04-16T12:56:13.999Z</time></trkpt><trkpt lat="44.76928" lon="8.7029533"><ele>147.79999999999998</ele><time>2026-04-16T12:56:14.999Z</time></trkpt><trkpt lat="44.7692692" lon="8.7028313"><ele>147.4</ele><time>2026-04-16T12:56:15.999Z</time></trkpt><trkpt lat="44.7692537" lon="8.7026862"><ele>147.0</ele><time>2026-04-16T12:56:16.999Z</time></trkpt><trkpt lat="44.7692362" lon="8.7025368"><ele>147.0</ele><time>2026-04-16T12:56:17.999Z</time></trkpt><trkpt lat="44.7692176" lon="8.7023836"><ele>147.0</ele><time>2026-04-16T12:56:18.999Z</time></trkpt><trkpt lat="44.7691991" lon="8.702231"><ele>147.0</ele><time>2026-04-16T12:56:19.999Z</time></trkpt><trkpt lat="44.7691857" lon="8.7020809"><ele>147.0</ele><time>2026-04-16T12:56:20.999Z</time></trkpt><trkpt lat="44.7691814" lon="8.7019246"><ele>147.0</ele><time>2026-04-16T12:56:21.999Z</time></trkpt><trkpt lat="44.7691782" lon="8.7017643"><ele>147.2</ele><time>2026-04-16T12:56:22.999Z</time></trkpt><trkpt lat="44.769183" lon="8.7016037"><ele>147.39999999999998</ele><time>2026-04-16T12:56:23.999Z</time></trkpt><trkpt lat="44.76919" lon="8.7014474"><ele>147.60000000000002</ele><time>2026-04-16T12:56:24.999Z</time></trkpt><trkpt lat="44.7692166" lon="8.7013358"><ele>147.8</ele><time>2026-04-16T12:56:25.999Z</time></trkpt><trkpt lat="44.7692306" lon="8.7011855"><ele>148.0</ele><time>2026-04-16T12:56:26.999Z</time></trkpt><trkpt lat="44.7692494" lon="8.7010301"><ele>147.5</ele><time>2026-04-16T12:56:27.999Z</time></trkpt><trkpt lat="44.7692698" lon="8.7008631"><ele>147.0</ele><time>2026-04-16T12:56:28.999Z</time></trkpt><trkpt lat="44.7692948" lon="8.7006965"><ele>146.5</ele><time>2026-04-16T12:56:29.999Z</time></trkpt><trkpt lat="44.7693298" lon="8.7005307"><ele>146.0</ele><time>2026-04-16T12:56:30.999Z</time></trkpt><trkpt lat="44.7693733" lon="8.7003583"><ele>145.75</ele><time>2026-04-16T12:56:31.999Z</time></trkpt><trkpt lat="44.7694241" lon="8.7001958"><ele>145.5</ele><time>2026-04-16T12:56:32.999Z</time></trkpt><trkpt lat="44.769481" lon="8.7000221"><ele>145.25</ele><time>2026-04-16T12:56:33.999Z</time></trkpt><trkpt lat="44.7695479" lon="8.6998538"><ele>145.0</ele><time>2026-04-16T12:56:34.999Z</time></trkpt><trkpt lat="44.7696191" lon="8.6996844"><ele>145.0</ele><time>2026-04-16T12:56:35.999Z</time></trkpt><trkpt lat="44.7696975" lon="8.6995189"><ele>145.0</ele><time>2026-04-16T12:56:36.999Z</time></trkpt><trkpt lat="44.7697858" lon="8.6993571"><ele>145.0</ele><time>2026-04-16T12:56:37.999Z</time></trkpt><trkpt lat="44.7698765" lon="8.6992026"><ele>145.0</ele><time>2026-04-16T12:56:38.999Z</time></trkpt><trkpt lat="44.7699729" lon="8.6990509"><ele>144.66666666666669</ele><time>2026-04-16T12:56:39.999Z</time></trkpt><trkpt lat="44.7700811" lon="8.698906"><ele>144.33333333333334</ele><time>2026-04-16T12:56:40.999Z</time></trkpt><trkpt lat="44.7701943" lon="8.6987681"><ele>144.0</ele><time>2026-04-16T12:56:41.999Z</time></trkpt><trkpt lat="44.7703148" lon="8.6986388"><ele>143.75</ele><time>2026-04-16T12:56:42.999Z</time></trkpt><trkpt lat="44.770441" lon="8.698515"><ele>143.5</ele><time>2026-04-16T12:56:43.999Z</time></trkpt><trkpt lat="44.7705663" lon="8.6983976"><ele>143.25</ele><time>2026-04-16T12:56:44.999Z</time></trkpt><trkpt lat="44.7706869" lon="8.698287"><ele>143.0</ele><time>2026-04-16T12:56:45.999Z</time></trkpt><trkpt lat="44.7708404" lon="8.6981741"><ele>143.0</ele><time>2026-04-16T12:56:46.999Z</time></trkpt><trkpt lat="44.7709727" lon="8.6980715"><ele>143.0</ele><time>2026-04-16T12:56:47.999Z</time></trkpt><trkpt lat="44.7711" lon="8.6979745"><ele>143.0</ele><time>2026-04-16T12:56:48.999Z</time></trkpt><trkpt lat="44.7712384" lon="8.6978715"><ele>143.25</ele><time>2026-04-16T12:56:49.999Z</time></trkpt><trkpt lat="44.7713699" lon="8.6977876"><ele>143.5</ele><time>2026-04-16T12:56:50.999Z</time></trkpt><trkpt lat="44.7715008" lon="8.6977063"><ele>143.75</ele><time>2026-04-16T12:56:51.999Z</time></trkpt><trkpt lat="44.7716384" lon="8.6976217"><ele>144.0</ele><time>2026-04-16T12:56:52.999Z</time></trkpt><trkpt lat="44.7717776" lon="8.6975432"><ele>144.25</ele><time>2026-04-16T12:56:53.999Z</time></trkpt><trkpt lat="44.7719148" lon="8.6974725"><ele>144.5</ele><time>2026-04-16T12:56:54.999Z</time></trkpt><trkpt lat="44.7720594" lon="8.6974087"><ele>144.75</ele><time>2026-04-16T12:56:55.999Z</time></trkpt><trkpt lat="44.7722038" lon="8.6973592"><ele>145.0</ele><time>2026-04-16T12:56:56.999Z</time></trkpt><trkpt lat="44.772351" lon="8.6972989"><ele>145.0</ele><time>2026-04-16T12:56:57.999Z</time></trkpt><trkpt lat="44.772499" lon="8.697265"><ele>145.0</ele><time>2026-04-16T12:56:58.999Z</time></trkpt><trkpt lat="44.7726484" lon="8.6972374"><ele>145.0</ele><time>2026-04-16T12:56:59.999Z</time></trkpt><trkpt lat="44.7728054" lon="8.6972086"><ele>145.33333333333334</ele><time>2026-04-16T12:57:00.999Z</time></trkpt><trkpt lat="44.7729521" lon="8.6971799"><ele>145.66666666666666</ele><time>2026-04-16T12:57:01.999Z</time></trkpt><trkpt lat="44.7731145" lon="8.69715"><ele>146.0</ele><time>2026-04-16T12:57:02.999Z</time></trkpt><trkpt lat="44.7732631" lon="8.6971167"><ele>146.0</ele><time>2026-04-16T12:57:03.999Z</time></trkpt><trkpt lat="44.7734213" lon="8.6970767"><ele>146.0</ele><time>2026-04-16T12:57:04.999Z</time></trkpt><trkpt lat="44.7735732" lon="8.6970326"><ele>146.0</ele><time>2026-04-16T12:57:05.999Z</time></trkpt><trkpt lat="44.7737237" lon="8.6969822"><ele>145.0</ele><time>2026-04-16T12:57:06.999Z</time></trkpt><trkpt lat="44.7738706" lon="8.6969162"><ele>144.0</ele><time>2026-04-16T12:57:07.999Z</time></trkpt><trkpt lat="44.7740135" lon="8.6968296"><ele>143.0</ele><time>2026-04-16T12:57:08.999Z</time></trkpt><trkpt lat="44.7741539" lon="8.6967369"><ele>143.0</ele><time>2026-04-16T12:57:09.999Z</time></trkpt><trkpt lat="44.7742938" lon="8.6966351"><ele>143.0</ele><time>2026-04-16T12:57:10.999Z</time></trkpt><trkpt lat="44.7744333" lon="8.6965342"><ele>143.0</ele><time>2026-04-16T12:57:11.999Z</time></trkpt><trkpt lat="44.7745718" lon="8.696443"><ele>143.66666666666666</ele><time>2026-04-16T12:57:12.999Z</time></trkpt><trkpt lat="44.7747181" lon="8.696359"><ele>144.33333333333334</ele><time>2026-04-16T12:57:13.999Z</time></trkpt><trkpt lat="44.774854" lon="8.6962795"><ele>145.0</ele><time>2026-04-16T12:57:14.999Z</time></trkpt><trkpt lat="44.7749927" lon="8.6962117"><ele>145.0</ele><time>2026-04-16T12:57:15.999Z</time></trkpt><trkpt lat="44.7751354" lon="8.6961468"><ele>145.0</ele><time>2026-04-16T12:57:16.999Z</time></trkpt><trkpt lat="44.7752794" lon="8.6960767"><ele>145.0</ele><time>2026-04-16T12:57:17.999Z</time></trkpt><trkpt lat="44.7754222" lon="8.696002"><ele>145.5</ele><time>2026-04-16T12:57:18.999Z</time></trkpt><trkpt lat="44.7755588" lon="8.6959192"><ele>146.0</ele><time>2026-04-16T12:57:19.999Z</time></trkpt><trkpt lat="44.7756965" lon="8.6958422"><ele>146.5</ele><time>2026-04-16T12:57:20.999Z</time></trkpt><trkpt lat="44.7758384" lon="8.6957667"><ele>147.0</ele><time>2026-04-16T12:57:21.999Z</time></trkpt><trkpt lat="44.7759796" lon="8.6956816"><ele>147.33333333333334</ele><time>2026-04-16T12:57:22.999Z</time></trkpt><trkpt lat="44.7761329" lon="8.6956133"><ele>147.66666666666669</ele><time>2026-04-16T12:57:23.999Z</time></trkpt><trkpt lat="44.7762922" lon="8.6955529"><ele>148.0</ele><time>2026-04-16T12:57:24.999Z</time></trkpt><trkpt lat="44.7764418" lon="8.6954951"><ele>148.0</ele><time>2026-04-16T12:57:25.999Z</time></trkpt><trkpt lat="44.7765944" lon="8.6954207"><ele>148.0</ele><time>2026-04-16T12:57:26.999Z</time></trkpt><trkpt lat="44.7767452" lon="8.6953534"><ele>148.0</ele><time>2026-04-16T12:57:27.999Z</time></trkpt><trkpt lat="44.7768882" lon="8.6952844"><ele>147.66666666666669</ele><time>2026-04-16T12:57:28.999Z</time></trkpt><trkpt lat="44.7770314" lon="8.6952185"><ele>147.33333333333334</ele><time>2026-04-16T12:57:29.999Z</time></trkpt><trkpt lat="44.7771726" lon="8.6951516"><ele>147.0</ele><time>2026-04-16T12:57:30.999Z</time></trkpt><trkpt lat="44.7773162" lon="8.6950847"><ele>147.0</ele><time>2026-04-16T12:57:31.999Z</time></trkpt><trkpt lat="44.7774629" lon="8.6950204"><ele>147.0</ele><time>2026-04-16T12:57:32.999Z</time></trkpt><trkpt lat="44.777606" lon="8.6949639"><ele>147.0</ele><time>2026-04-16T12:57:33.999Z</time></trkpt><trkpt lat="44.7777487" lon="8.6949088"><ele>146.66666666666666</ele><time>2026-04-16T12:57:34.999Z</time></trkpt><trkpt lat="44.7778933" lon="8.6948567"><ele>146.33333333333331</ele><time>2026-04-16T12:57:35.999Z</time></trkpt><trkpt lat="44.7780401" lon="8.6948128"><ele>146.0</ele><time>2026-04-16T12:57:36.999Z</time></trkpt><trkpt lat="44.7781883" lon="8.6947648"><ele>146.0</ele><time>2026-04-16T12:57:37.999Z</time></trkpt><trkpt lat="44.7783344" lon="8.6947139"><ele>146.0</ele><time>2026-04-16T12:57:38.999Z</time></trkpt><trkpt lat="44.7784704" lon="8.694668"><ele>146.0</ele><time>2026-04-16T12:57:39.999Z</time></trkpt><trkpt lat="44.7786064" lon="8.6946183"><ele>146.0</ele><time>2026-04-16T12:57:40.999Z</time></trkpt><trkpt lat="44.7787393" lon="8.6945628"><ele>146.25</ele><time>2026-04-16T12:57:41.999Z</time></trkpt><trkpt lat="44.7788656" lon="8.6944907"><ele>146.5</ele><time>2026-04-16T12:57:42.999Z</time></trkpt><trkpt lat="44.778988" lon="8.6944199"><ele>146.75</ele><time>2026-04-16T12:57:43.999Z</time></trkpt><trkpt lat="44.7791098" lon="8.6943301"><ele>147.0</ele><time>2026-04-16T12:57:44.999Z</time></trkpt><trkpt lat="44.7792298" lon="8.6942427"><ele>147.5</ele><time>2026-04-16T12:57:45.999Z</time></trkpt><trkpt lat="44.7793442" lon="8.6941511"><ele>148.0</ele><time>2026-04-16T12:57:46.999Z</time></trkpt><trkpt lat="44.7794583" lon="8.6940559"><ele>148.5</ele><time>2026-04-16T12:57:47.999Z</time></trkpt><trkpt lat="44.7795716" lon="8.6939567"><ele>149.0</ele><time>2026-04-16T12:57:48.999Z</time></trkpt><trkpt lat="44.7796867" lon="8.6938591"><ele>148.0</ele><time>2026-04-16T12:57:49.999Z</time></trkpt><trkpt lat="44.7798009" lon="8.693758"><ele>147.0</ele><time>2026-04-16T12:57:50.999Z</time></trkpt><trkpt lat="44.7799106" lon="8.6936531"><ele>146.0</ele><time>2026-04-16T12:57:51.999Z</time></trkpt><trkpt lat="44.780021" lon="8.69354"><ele>145.0</ele><time>2026-04-16T12:57:52.999Z</time></trkpt><trkpt lat="44.7801247" lon="8.6934108"><ele>144.75</ele><time>2026-04-16T12:57:53.999Z</time></trkpt><trkpt lat="44.7802193" lon="8.6932825"><ele>144.5</ele><time>2026-04-16T12:57:54.999Z</time></trkpt><trkpt lat="44.7803046" lon="8.6931402"><ele>144.25</ele><time>2026-04-16T12:57:55.999Z</time></trkpt><trkpt lat="44.7803839" lon="8.6929893"><ele>144.0</ele><time>2026-04-16T12:57:56.999Z</time></trkpt><trkpt lat="44.7804597" lon="8.6928311"><ele>144.25</ele><time>2026-04-16T12:57:57.999Z</time></trkpt><trkpt lat="44.7805328" lon="8.6926744"><ele>144.5</ele><time>2026-04-16T12:57:58.999Z</time></trkpt><trkpt lat="44.7806061" lon="8.6925313"><ele>144.75</ele><time>2026-04-16T12:57:59.999Z</time></trkpt><trkpt lat="44.7806739" lon="8.6923814"><ele>145.0</ele><time>2026-04-16T12:58:00.999Z</time></trkpt><trkpt lat="44.7807451" lon="8.6922406"><ele>145.0</ele><time>2026-04-16T12:58:01.999Z</time></trkpt><trkpt lat="44.7808124" lon="8.6920987"><ele>145.0</ele><time>2026-04-16T12:58:02.999Z</time></trkpt><trkpt lat="44.780887" lon="8.6919526"><ele>145.0</ele><time>2026-04-16T12:58:03.999Z</time></trkpt><trkpt lat="44.7809597" lon="8.6918054"><ele>145.0</ele><time>2026-04-16T12:58:04.999Z</time></trkpt><trkpt lat="44.7810323" lon="8.691657"><ele>145.25</ele><time>2026-04-16T12:58:05.999Z</time></trkpt><trkpt lat="44.7810985" lon="8.6915055"><ele>145.5</ele><time>2026-04-16T12:58:06.999Z</time></trkpt><trkpt lat="44.7811626" lon="8.6913638"><ele>145.75</ele><time>2026-04-16T12:58:07.999Z</time></trkpt><trkpt lat="44.7812247" lon="8.6912277"><ele>146.0</ele><time>2026-04-16T12:58:08.999Z</time></trkpt><trkpt lat="44.781288" lon="8.6910852"><ele>146.0</ele><time>2026-04-16T12:58:09.999Z</time></trkpt><trkpt lat="44.7813589" lon="8.690947"><ele>146.0</ele><time>2026-04-16T12:58:10.999Z</time></trkpt><trkpt lat="44.7814233" lon="8.6908123"><ele>146.0</ele><time>2026-04-16T12:58:11.999Z</time></trkpt><trkpt lat="44.7814944" lon="8.6906944"><ele>146.0</ele><time>2026-04-16T12:58:12.999Z</time></trkpt><trkpt lat="44.7815762" lon="8.6906041"><ele>146.0</ele><time>2026-04-16T12:58:13.999Z</time></trkpt><trkpt lat="44.7816667" lon="8.6905415"><ele>146.0</ele><time>2026-04-16T12:58:14.999Z</time></trkpt><trkpt lat="44.7817665" lon="8.6904947"><ele>146.0</ele><time>2026-04-16T12:58:15.999Z</time></trkpt><trkpt lat="44.7818656" lon="8.6904445"><ele>146.0</ele><time>2026-04-16T12:58:16.999Z</time></trkpt><trkpt lat="44.7819672" lon="8.6903993"><ele>146.0</ele><time>2026-04-16T12:58:17.999Z</time></trkpt><trkpt lat="44.7820643" lon="8.6903565"><ele>145.8</ele><time>2026-04-16T12:58:18.999Z</time></trkpt><trkpt lat="44.7821662" lon="8.69031"><ele>145.6</ele><time>2026-04-16T12:58:19.999Z</time></trkpt><trkpt lat="44.7822703" lon="8.6902585"><ele>145.4</ele><time>2026-04-16T12:58:20.999Z</time></trkpt><trkpt lat="44.7823689" lon="8.6902082"><ele>145.2</ele><time>2026-04-16T12:58:21.999Z</time></trkpt><trkpt lat="44.7824665" lon="8.6901575"><ele>145.0</ele><time>2026-04-16T12:58:22.999Z</time></trkpt><trkpt lat="44.7825801" lon="8.6901027"><ele>144.6</ele><time>2026-04-16T12:58:23.999Z</time></trkpt><trkpt lat="44.7826862" lon="8.6900519"><ele>144.2</ele><time>2026-04-16T12:58:24.999Z</time></trkpt><trkpt lat="44.7827923" lon="8.6900021"><ele>143.8</ele><time>2026-04-16T12:58:25.999Z</time></trkpt><trkpt lat="44.7829033" lon="8.6899467"><ele>143.4</ele><time>2026-04-16T12:58:26.999Z</time></trkpt><trkpt lat="44.7830028" lon="8.6898905"><ele>143.0</ele><time>2026-04-16T12:58:27.999Z</time></trkpt><trkpt lat="44.7831124" lon="8.689838"><ele>143.0</ele><time>2026-04-16T12:58:28.999Z</time></trkpt><trkpt lat="44.7832212" lon="8.6897857"><ele>143.0</ele><time>2026-04-16T12:58:29.999Z</time></trkpt><trkpt lat="44.783326" lon="8.6897397"><ele>143.0</ele><time>2026-04-16T12:58:30.999Z</time></trkpt><trkpt lat="44.7834351" lon="8.6896946"><ele>143.0</ele><time>2026-04-16T12:58:31.999Z</time></trkpt><trkpt lat="44.7835423" lon="8.6896568"><ele>143.0</ele><time>2026-04-16T12:58:32.999Z</time></trkpt><trkpt lat="44.7836642" lon="8.6896405"><ele>143.75</ele><time>2026-04-16T12:58:33.999Z</time></trkpt><trkpt lat="44.7837696" lon="8.6896416"><ele>144.5</ele><time>2026-04-16T12:58:34.999Z</time></trkpt><trkpt lat="44.7838865" lon="8.6896527"><ele>145.25</ele><time>2026-04-16T12:58:35.999Z</time></trkpt><trkpt lat="44.783998" lon="8.6896612"><ele>146.0</ele><time>2026-04-16T12:58:36.999Z</time></trkpt><trkpt lat="44.7841236" lon="8.689661"><ele>146.0</ele><time>2026-04-16T12:58:37.999Z</time></trkpt><trkpt lat="44.7842341" lon="8.6896378"><ele>146.0</ele><time>2026-04-16T12:58:38.999Z</time></trkpt><trkpt lat="44.7843348" lon="8.689583"><ele>146.0</ele><time>2026-04-16T12:58:39.999Z</time></trkpt><trkpt lat="44.7845398" lon="8.6894487"><ele>146.0</ele><time>2026-04-16T12:58:41.999Z</time></trkpt><trkpt lat="44.7846365" lon="8.6893683"><ele>145.6</ele><time>2026-04-16T12:58:42.999Z</time></trkpt><trkpt lat="44.7847301" lon="8.6892929"><ele>145.2</ele><time>2026-04-16T12:58:43.999Z</time></trkpt><trkpt lat="44.7848289" lon="8.6892191"><ele>144.8</ele><time>2026-04-16T12:58:44.999Z</time></trkpt><trkpt lat="44.7849337" lon="8.689168"><ele>144.4</ele><time>2026-04-16T12:58:45.999Z</time></trkpt><trkpt lat="44.7850495" lon="8.6891383"><ele>144.0</ele><time>2026-04-16T12:58:46.999Z</time></trkpt><trkpt lat="44.7851574" lon="8.689138"><ele>143.8</ele><time>2026-04-16T12:58:47.999Z</time></trkpt><trkpt lat="44.7852741" lon="8.6891387"><ele>143.60000000000002</ele><time>2026-04-16T12:58:48.999Z</time></trkpt><trkpt lat="44.7853833" lon="8.6891532"><ele>143.4</ele><time>2026-04-16T12:58:49.999Z</time></trkpt><trkpt lat="44.7854885" lon="8.6891945"><ele>143.20000000000002</ele><time>2026-04-16T12:58:50.999Z</time></trkpt><trkpt lat="44.7855946" lon="8.6892219"><ele>143.0</ele><time>2026-04-16T12:58:51.999Z</time></trkpt><trkpt lat="44.7857041" lon="8.6892816"><ele>143.0</ele><time>2026-04-16T12:58:52.999Z</time></trkpt><trkpt lat="44.7858241" lon="8.6893501"><ele>143.0</ele><time>2026-04-16T12:58:53.999Z</time></trkpt><trkpt lat="44.7859473" lon="8.6893994"><ele>143.0</ele><time>2026-04-16T12:58:55.101Z</time></trkpt><trkpt lat="44.7861796" lon="8.6895178"><ele>142.25</ele><time>2026-04-16T12:58:56.999Z</time></trkpt><trkpt lat="44.7862934" lon="8.6895732"><ele>141.5</ele><time>2026-04-16T12:58:57.999Z</time></trkpt><trkpt lat="44.7864034" lon="8.6896376"><ele>140.75</ele><time>2026-04-16T12:58:58.999Z</time></trkpt><trkpt lat="44.786517" lon="8.6896994"><ele>140.0</ele><time>2026-04-16T12:58:59.999Z</time></trkpt><trkpt lat="44.7866338" lon="8.6897334"><ele>139.66666666666666</ele><time>2026-04-16T12:59:01.104Z</time></trkpt><trkpt lat="44.7868777" lon="8.6897835"><ele>139.33333333333334</ele><time>2026-04-16T12:59:02.999Z</time></trkpt><trkpt lat="44.7870078" lon="8.6897778"><ele>139.0</ele><time>2026-04-16T12:59:03.999Z</time></trkpt><trkpt lat="44.7871454" lon="8.6897556"><ele>139.0</ele><time>2026-04-16T12:59:04.999Z</time></trkpt><trkpt lat="44.787276" lon="8.6897183"><ele>139.0</ele><time>2026-04-16T12:59:06.106Z</time></trkpt><trkpt lat="44.7875185" lon="8.6896438"><ele>139.0</ele><time>2026-04-16T12:59:07.999Z</time></trkpt><trkpt lat="44.7876427" lon="8.689589"><ele>139.0</ele><time>2026-04-16T12:59:09.109Z</time></trkpt><trkpt lat="44.7877692" lon="8.6895352"><ele>139.0</ele><time>2026-04-16T12:59:10.111Z</time></trkpt><trkpt lat="44.7880227" lon="8.6894225"><ele>139.0</ele><time>2026-04-16T12:59:11.999Z</time></trkpt><trkpt lat="44.7881521" lon="8.6893603"><ele>139.0</ele><time>2026-04-16T12:59:12.999Z</time></trkpt><trkpt lat="44.78828" lon="8.6892974"><ele>139.0</ele><time>2026-04-16T12:59:13.999Z</time></trkpt><trkpt lat="44.7884076" lon="8.6892293"><ele>139.0</ele><time>2026-04-16T12:59:15.109Z</time></trkpt><trkpt lat="44.7885318" lon="8.6891544"><ele>139.0</ele><time>2026-04-16T12:59:16.107Z</time></trkpt><trkpt lat="44.7888027" lon="8.6889873"><ele>139.66666666666669</ele><time>2026-04-16T12:59:17.999Z</time></trkpt><trkpt lat="44.7889407" lon="8.6889009"><ele>140.33333333333334</ele><time>2026-04-16T12:59:18.999Z</time></trkpt><trkpt lat="44.7890778" lon="8.68881"><ele>141.0</ele><time>2026-04-16T12:59:19.999Z</time></trkpt><trkpt lat="44.7892129" lon="8.6887201"><ele>140.0</ele><time>2026-04-16T12:59:20.999Z</time></trkpt><trkpt lat="44.7893477" lon="8.6886297"><ele>139.0</ele><time>2026-04-16T12:59:21.999Z</time></trkpt><trkpt lat="44.7894773" lon="8.6885441"><ele>138.0</ele><time>2026-04-16T12:59:22.999Z</time></trkpt><trkpt lat="44.7896112" lon="8.6884621"><ele>137.0</ele><time>2026-04-16T12:59:24.115Z</time></trkpt><trkpt lat="44.7898732" lon="8.6883055"><ele>136.66666666666666</ele><time>2026-04-16T12:59:25.999Z</time></trkpt><trkpt lat="44.7900003" lon="8.6882178"><ele>136.33333333333334</ele><time>2026-04-16T12:59:26.999Z</time></trkpt><trkpt lat="44.7901361" lon="8.6881334"><ele>136.0</ele><time>2026-04-16T12:59:28.129Z</time></trkpt><trkpt lat="44.7903913" lon="8.6879601"><ele>135.33333333333334</ele><time>2026-04-16T12:59:29.999Z</time></trkpt><trkpt lat="44.7905222" lon="8.6878789"><ele>134.66666666666666</ele><time>2026-04-16T12:59:31.104Z</time></trkpt><trkpt lat="44.790799" lon="8.6878514"><ele>134.0</ele><time>2026-04-16T12:59:32.999Z</time></trkpt><trkpt lat="44.7909479" lon="8.6878538"><ele>131.33333333333331</ele><time>2026-04-16T12:59:33.999Z</time></trkpt><trkpt lat="44.7910642" lon="8.6879148"><ele>128.66666666666666</ele><time>2026-04-16T12:59:35.102Z</time></trkpt><trkpt lat="44.7911956" lon="8.6879467"><ele>126.0</ele><time>2026-04-16T12:59:36.105Z</time></trkpt><trkpt lat="44.7914816" lon="8.6880192"><ele>126.0</ele><time>2026-04-16T12:59:37.999Z</time></trkpt><trkpt lat="44.7916384" lon="8.6880183"><ele>126.0</ele><time>2026-04-16T12:59:39.119Z</time></trkpt><trkpt lat="44.7919451" lon="8.6879798"><ele>125.66666666666666</ele><time>2026-04-16T12:59:40.999Z</time></trkpt><trkpt lat="44.7920964" lon="8.6879572"><ele>125.33333333333333</ele><time>2026-04-16T12:59:41.999Z</time></trkpt><trkpt lat="44.792255" lon="8.6879327"><ele>125.0</ele><time>2026-04-16T12:59:42.999Z</time></trkpt><trkpt lat="44.7924092" lon="8.6879064"><ele>125.0</ele><time>2026-04-16T12:59:43.999Z</time></trkpt><trkpt lat="44.7925617" lon="8.6878762"><ele>125.0</ele><time>2026-04-16T12:59:44.999Z</time></trkpt><trkpt lat="44.7927124" lon="8.6878526"><ele>125.0</ele><time>2026-04-16T12:59:45.999Z</time></trkpt><trkpt lat="44.7928697" lon="8.6878278"><ele>125.0</ele><time>2026-04-16T12:59:46.999Z</time></trkpt><trkpt lat="44.7930265" lon="8.6878049"><ele>125.0</ele><time>2026-04-16T12:59:47.999Z</time></trkpt><trkpt lat="44.7931825" lon="8.6877814"><ele>125.0</ele><time>2026-04-16T12:59:48.999Z</time></trkpt><trkpt lat="44.7933321" lon="8.6877554"><ele>125.0</ele><time>2026-04-16T12:59:49.999Z</time></trkpt><trkpt lat="44.7934756" lon="8.6877235"><ele>125.0</ele><time>2026-04-16T12:59:50.999Z</time></trkpt><trkpt lat="44.7936171" lon="8.6876951"><ele>125.0</ele><time>2026-04-16T12:59:51.999Z</time></trkpt><trkpt lat="44.7937594" lon="8.6876727"><ele>125.0</ele><time>2026-04-16T12:59:52.999Z</time></trkpt><trkpt lat="44.7938984" lon="8.6876475"><ele>125.75</ele><time>2026-04-16T12:59:53.999Z</time></trkpt><trkpt lat="44.7940472" lon="8.68762"><ele>126.5</ele><time>2026-04-16T12:59:54.999Z</time></trkpt><trkpt lat="44.7941939" lon="8.6876029"><ele>127.25</ele><time>2026-04-16T12:59:55.999Z</time></trkpt><trkpt lat="44.7943373" lon="8.6875915"><ele>128.0</ele><time>2026-04-16T12:59:56.999Z</time></trkpt><trkpt lat="44.7944846" lon="8.687596"><ele>129.25</ele><time>2026-04-16T12:59:57.999Z</time></trkpt><trkpt lat="44.7946301" lon="8.687612"><ele>130.5</ele><time>2026-04-16T12:59:58.999Z</time></trkpt><trkpt lat="44.794775" lon="8.6876525"><ele>131.75</ele><time>2026-04-16T12:59:59.999Z</time></trkpt><trkpt lat="44.7949218" lon="8.6876948"><ele>133.0</ele><time>2026-04-16T13:00:00.999Z</time></trkpt><trkpt lat="44.7950675" lon="8.6877431"><ele>133.75</ele><time>2026-04-16T13:00:01.999Z</time></trkpt><trkpt lat="44.7952124" lon="8.6877859"><ele>134.5</ele><time>2026-04-16T13:00:02.999Z</time></trkpt><trkpt lat="44.7953577" lon="8.6878284"><ele>135.25</ele><time>2026-04-16T13:00:03.999Z</time></trkpt><trkpt lat="44.795503" lon="8.6878779"><ele>136.0</ele><time>2026-04-16T13:00:04.999Z</time></trkpt><trkpt lat="44.7956511" lon="8.6879284"><ele>136.0</ele><time>2026-04-16T13:00:05.999Z</time></trkpt><trkpt lat="44.7957976" lon="8.6879762"><ele>136.0</ele><time>2026-04-16T13:00:06.999Z</time></trkpt><trkpt lat="44.7959436" lon="8.6880321"><ele>136.0</ele><time>2026-04-16T13:00:07.999Z</time></trkpt><trkpt lat="44.7960927" lon="8.6880745"><ele>135.0</ele><time>2026-04-16T13:00:08.999Z</time></trkpt><trkpt lat="44.7963916" lon="8.6881754"><ele>134.0</ele><time>2026-04-16T13:00:11.107Z</time></trkpt><trkpt lat="44.7966827" lon="8.6882666"><ele>134.0</ele><time>2026-04-16T13:00:12.999Z</time></trkpt><trkpt lat="44.7968284" lon="8.6883158"><ele>134.0</ele><time>2026-04-16T13:00:13.999Z</time></trkpt><trkpt lat="44.7969768" lon="8.6883637"><ele>134.0</ele><time>2026-04-16T13:00:14.999Z</time></trkpt><trkpt lat="44.7971242" lon="8.688407"><ele>134.33333333333331</ele><time>2026-04-16T13:00:15.999Z</time></trkpt><trkpt lat="44.7972766" lon="8.6884593"><ele>134.66666666666666</ele><time>2026-04-16T13:00:16.999Z</time></trkpt><trkpt lat="44.7974351" lon="8.6885199"><ele>135.0</ele><time>2026-04-16T13:00:17.999Z</time></trkpt><trkpt lat="44.797588" lon="8.6885643"><ele>134.66666666666666</ele><time>2026-04-16T13:00:18.999Z</time></trkpt><trkpt lat="44.7977423" lon="8.6886182"><ele>134.33333333333331</ele><time>2026-04-16T13:00:19.999Z</time></trkpt><trkpt lat="44.7979041" lon="8.6886716"><ele>134.0</ele><time>2026-04-16T13:00:20.999Z</time></trkpt><trkpt lat="44.798064" lon="8.6887267"><ele>134.0</ele><time>2026-04-16T13:00:21.999Z</time></trkpt><trkpt lat="44.7982186" lon="8.6887766"><ele>134.0</ele><time>2026-04-16T13:00:22.999Z</time></trkpt><trkpt lat="44.7983768" lon="8.6888274"><ele>134.0</ele><time>2026-04-16T13:00:24.111Z</time></trkpt><trkpt lat="44.7986927" lon="8.6889392"><ele>133.66666666666666</ele><time>2026-04-16T13:00:25.999Z</time></trkpt><trkpt lat="44.7988517" lon="8.6889871"><ele>133.33333333333334</ele><time>2026-04-16T13:00:26.999Z</time></trkpt><trkpt lat="44.7990162" lon="8.6890464"><ele>133.0</ele><time>2026-04-16T13:00:27.999Z</time></trkpt><trkpt lat="44.7991732" lon="8.6891018"><ele>133.0</ele><time>2026-04-16T13:00:28.999Z</time></trkpt><trkpt lat="44.7993281" lon="8.6891584"><ele>133.0</ele><time>2026-04-16T13:00:29.999Z</time></trkpt><trkpt lat="44.7994878" lon="8.689208"><ele>133.0</ele><time>2026-04-16T13:00:30.999Z</time></trkpt><trkpt lat="44.7996481" lon="8.6892665"><ele>133.0</ele><time>2026-04-16T13:00:31.999Z</time></trkpt><trkpt lat="44.7998108" lon="8.6893289"><ele>133.0</ele><time>2026-04-16T13:00:33.12Z</time></trkpt><trkpt lat="44.7999678" lon="8.6893791"><ele>133.0</ele><time>2026-04-16T13:00:34.105Z</time></trkpt><trkpt lat="44.8002946" lon="8.6894894"><ele>133.0</ele><time>2026-04-16T13:00:35.999Z</time></trkpt><trkpt lat="44.8004565" lon="8.6895539"><ele>133.0</ele><time>2026-04-16T13:00:36.999Z</time></trkpt><trkpt lat="44.8006184" lon="8.6896048"><ele>133.0</ele><time>2026-04-16T13:00:37.999Z</time></trkpt><trkpt lat="44.8007821" lon="8.689661"><ele>133.0</ele><time>2026-04-16T13:00:39.118Z</time></trkpt><trkpt lat="44.8009476" lon="8.6897148"><ele>133.0</ele><time>2026-04-16T13:00:40.114Z</time></trkpt><trkpt lat="44.8011071" lon="8.6897498"><ele>133.0</ele><time>2026-04-16T13:00:41.115Z</time></trkpt><trkpt lat="44.8014365" lon="8.6898663"><ele>132.66666666666669</ele><time>2026-04-16T13:00:42.999Z</time></trkpt><trkpt lat="44.8015986" lon="8.6899253"><ele>132.33333333333334</ele><time>2026-04-16T13:00:43.999Z</time></trkpt><trkpt lat="44.8017673" lon="8.6899829"><ele>132.0</ele><time>2026-04-16T13:00:44.999Z</time></trkpt><trkpt lat="44.8019326" lon="8.6900416"><ele>132.0</ele><time>2026-04-16T13:00:45.999Z</time></trkpt><trkpt lat="44.8020974" lon="8.6900948"><ele>132.0</ele><time>2026-04-16T13:00:46.999Z</time></trkpt><trkpt lat="44.8022584" lon="8.6901524"><ele>132.0</ele><time>2026-04-16T13:00:47.999Z</time></trkpt><trkpt lat="44.8024252" lon="8.6902098"><ele>132.0</ele><time>2026-04-16T13:00:48.999Z</time></trkpt><trkpt lat="44.8025916" lon="8.6902662"><ele>132.0</ele><time>2026-04-16T13:00:50.13Z</time></trkpt><trkpt lat="44.8027579" lon="8.6903202"><ele>132.0</ele><time>2026-04-16T13:00:50.999Z</time></trkpt><trkpt lat="44.8029229" lon="8.6903782"><ele>132.0</ele><time>2026-04-16T13:00:51.999Z</time></trkpt><trkpt lat="44.8030893" lon="8.6904367"><ele>132.0</ele><time>2026-04-16T13:00:52.999Z</time></trkpt><trkpt lat="44.8032481" lon="8.6904939"><ele>132.0</ele><time>2026-04-16T13:00:53.999Z</time></trkpt><trkpt lat="44.803407" lon="8.690551"><ele>132.0</ele><time>2026-04-16T13:00:54.999Z</time></trkpt><trkpt lat="44.8035675" lon="8.6906042"><ele>132.0</ele><time>2026-04-16T13:00:55.999Z</time></trkpt><trkpt lat="44.8037297" lon="8.6906643"><ele>132.0</ele><time>2026-04-16T13:00:56.999Z</time></trkpt><trkpt lat="44.8038946" lon="8.6907206"><ele>132.0</ele><time>2026-04-16T13:00:57.999Z</time></trkpt><trkpt lat="44.8040625" lon="8.6907816"><ele>132.0</ele><time>2026-04-16T13:00:58.999Z</time></trkpt><trkpt lat="44.8042257" lon="8.6908407"><ele>132.0</ele><time>2026-04-16T13:00:59.999Z</time></trkpt><trkpt lat="44.8043856" lon="8.6909004"><ele>132.33333333333334</ele><time>2026-04-16T13:01:00.999Z</time></trkpt><trkpt lat="44.8045463" lon="8.6909612"><ele>132.66666666666669</ele><time>2026-04-16T13:01:01.999Z</time></trkpt><trkpt lat="44.804701" lon="8.6910163"><ele>133.0</ele><time>2026-04-16T13:01:02.999Z</time></trkpt><trkpt lat="44.8048526" lon="8.6910777"><ele>133.0</ele><time>2026-04-16T13:01:03.999Z</time></trkpt><trkpt lat="44.8050066" lon="8.6911419"><ele>133.0</ele><time>2026-04-16T13:01:04.999Z</time></trkpt><trkpt lat="44.8051621" lon="8.6912032"><ele>133.0</ele><time>2026-04-16T13:01:05.999Z</time></trkpt><trkpt lat="44.8053113" lon="8.69127"><ele>133.0</ele><time>2026-04-16T13:01:06.999Z</time></trkpt><trkpt lat="44.8054595" lon="8.691337"><ele>133.0</ele><time>2026-04-16T13:01:07.999Z</time></trkpt><trkpt lat="44.8056115" lon="8.6914018"><ele>133.0</ele><time>2026-04-16T13:01:09.109Z</time></trkpt><trkpt lat="44.8059087" lon="8.6915255"><ele>133.0</ele><time>2026-04-16T13:01:10.999Z</time></trkpt><trkpt lat="44.8060713" lon="8.6915911"><ele>133.0</ele><time>2026-04-16T13:01:11.999Z</time></trkpt><trkpt lat="44.806227" lon="8.691661"><ele>133.0</ele><time>2026-04-16T13:01:12.999Z</time></trkpt><trkpt lat="44.8063637" lon="8.6917217"><ele>133.0</ele><time>2026-04-16T13:01:13.999Z</time></trkpt><trkpt lat="44.8065114" lon="8.6917765"><ele>133.0</ele><time>2026-04-16T13:01:14.999Z</time></trkpt><trkpt lat="44.8066633" lon="8.6918224"><ele>133.0</ele><time>2026-04-16T13:01:15.999Z</time></trkpt><trkpt lat="44.8068159" lon="8.691855"><ele>132.66666666666669</ele><time>2026-04-16T13:01:16.999Z</time></trkpt><trkpt lat="44.8069749" lon="8.6918695"><ele>132.33333333333334</ele><time>2026-04-16T13:01:17.999Z</time></trkpt><trkpt lat="44.8071371" lon="8.6918788"><ele>132.0</ele><time>2026-04-16T13:01:18.999Z</time></trkpt><trkpt lat="44.8073021" lon="8.6918696"><ele>132.0</ele><time>2026-04-16T13:01:20.117Z</time></trkpt><trkpt lat="44.8076341" lon="8.6918169"><ele>132.0</ele><time>2026-04-16T13:01:21.999Z</time></trkpt><trkpt lat="44.8077938" lon="8.6917651"><ele>131.66666666666666</ele><time>2026-04-16T13:01:22.999Z</time></trkpt><trkpt lat="44.8079618" lon="8.6917113"><ele>131.33333333333331</ele><time>2026-04-16T13:01:23.999Z</time></trkpt><trkpt lat="44.8081179" lon="8.691654"><ele>131.0</ele><time>2026-04-16T13:01:24.999Z</time></trkpt><trkpt lat="44.8082739" lon="8.6916054"><ele>131.0</ele><time>2026-04-16T13:01:25.999Z</time></trkpt><trkpt lat="44.8084279" lon="8.6915567"><ele>131.0</ele><time>2026-04-16T13:01:26.999Z</time></trkpt><trkpt lat="44.8085826" lon="8.6914979"><ele>131.0</ele><time>2026-04-16T13:01:27.999Z</time></trkpt><trkpt lat="44.8087436" lon="8.6914438"><ele>131.33333333333331</ele><time>2026-04-16T13:01:28.999Z</time></trkpt><trkpt lat="44.8088989" lon="8.6913913"><ele>131.66666666666666</ele><time>2026-04-16T13:01:30.123Z</time></trkpt><trkpt lat="44.8090567" lon="8.691338"><ele>132.0</ele><time>2026-04-16T13:01:31.125Z</time></trkpt><trkpt lat="44.8093708" lon="8.691209"><ele>131.0</ele><time>2026-04-16T13:01:32.999Z</time></trkpt><trkpt lat="44.8095155" lon="8.6911409"><ele>130.0</ele><time>2026-04-16T13:01:34.107Z</time></trkpt><trkpt lat="44.8098004" lon="8.6909406"><ele>130.0</ele><time>2026-04-16T13:01:35.999Z</time></trkpt><trkpt lat="44.8099328" lon="8.6908218"><ele>130.0</ele><time>2026-04-16T13:01:36.999Z</time></trkpt><trkpt lat="44.8100642" lon="8.69069"><ele>130.0</ele><time>2026-04-16T13:01:37.999Z</time></trkpt><trkpt lat="44.8101918" lon="8.6905493"><ele>130.0</ele><time>2026-04-16T13:01:38.999Z</time></trkpt><trkpt lat="44.8103167" lon="8.6904074"><ele>130.0</ele><time>2026-04-16T13:01:39.999Z</time></trkpt><trkpt lat="44.8104398" lon="8.6902648"><ele>130.0</ele><time>2026-04-16T13:01:40.999Z</time></trkpt><trkpt lat="44.8105616" lon="8.6901195"><ele>129.33333333333334</ele><time>2026-04-16T13:01:41.999Z</time></trkpt><trkpt lat="44.8106839" lon="8.6899797"><ele>128.66666666666666</ele><time>2026-04-16T13:01:42.999Z</time></trkpt><trkpt lat="44.8108043" lon="8.6898435"><ele>128.0</ele><time>2026-04-16T13:01:43.999Z</time></trkpt><trkpt lat="44.810926" lon="8.6897022"><ele>128.5</ele><time>2026-04-16T13:01:44.999Z</time></trkpt><trkpt lat="44.8110463" lon="8.6895643"><ele>129.0</ele><time>2026-04-16T13:01:46.103Z</time></trkpt><trkpt lat="44.8112826" lon="8.6892909"><ele>129.0</ele><time>2026-04-16T13:01:47.999Z</time></trkpt><trkpt lat="44.8114047" lon="8.6891566"><ele>129.0</ele><time>2026-04-16T13:01:49.101Z</time></trkpt><trkpt lat="44.8116594" lon="8.6888947"><ele>128.0</ele><time>2026-04-16T13:01:51.103Z</time></trkpt><trkpt lat="44.8119221" lon="8.6886468"><ele>127.0</ele><time>2026-04-16T13:01:52.999Z</time></trkpt><trkpt lat="44.8120559" lon="8.6885235"><ele>127.0</ele><time>2026-04-16T13:01:53.999Z</time></trkpt><trkpt lat="44.8121895" lon="8.6883999"><ele>127.0</ele><time>2026-04-16T13:01:54.999Z</time></trkpt><trkpt lat="44.8123245" lon="8.6882756"><ele>127.0</ele><time>2026-04-16T13:01:55.999Z</time></trkpt><trkpt lat="44.8124587" lon="8.6881545"><ele>127.0</ele><time>2026-04-16T13:01:56.999Z</time></trkpt><trkpt lat="44.8125904" lon="8.6880311"><ele>127.0</ele><time>2026-04-16T13:01:57.999Z</time></trkpt><trkpt lat="44.8127192" lon="8.6879062"><ele>127.0</ele><time>2026-04-16T13:01:58.999Z</time></trkpt><trkpt lat="44.8128459" lon="8.6877929"><ele>127.25</ele><time>2026-04-16T13:01:59.999Z</time></trkpt><trkpt lat="44.812971" lon="8.6876797"><ele>127.5</ele><time>2026-04-16T13:02:00.999Z</time></trkpt><trkpt lat="44.8130956" lon="8.6875652"><ele>127.75</ele><time>2026-04-16T13:02:01.999Z</time></trkpt><trkpt lat="44.8132213" lon="8.6874517"><ele>128.0</ele><time>2026-04-16T13:02:02.999Z</time></trkpt><trkpt lat="44.8133449" lon="8.6873416"><ele>128.0</ele><time>2026-04-16T13:02:03.999Z</time></trkpt><trkpt lat="44.8134729" lon="8.6872365"><ele>128.0</ele><time>2026-04-16T13:02:04.999Z</time></trkpt><trkpt lat="44.8136024" lon="8.6871375"><ele>128.0</ele><time>2026-04-16T13:02:05.999Z</time></trkpt><trkpt lat="44.8137338" lon="8.6870443"><ele>128.0</ele><time>2026-04-16T13:02:06.999Z</time></trkpt><trkpt lat="44.813869" lon="8.6869539"><ele>127.5</ele><time>2026-04-16T13:02:07.999Z</time></trkpt><trkpt lat="44.8140099" lon="8.6868807"><ele>127.0</ele><time>2026-04-16T13:02:08.999Z</time></trkpt><trkpt lat="44.8141503" lon="8.6868126"><ele>126.5</ele><time>2026-04-16T13:02:09.999Z</time></trkpt><trkpt lat="44.8142938" lon="8.6867496"><ele>126.0</ele><time>2026-04-16T13:02:10.999Z</time></trkpt><trkpt lat="44.8144358" lon="8.6866922"><ele>125.33333333333334</ele><time>2026-04-16T13:02:11.999Z</time></trkpt><trkpt lat="44.8145835" lon="8.6866344"><ele>124.66666666666667</ele><time>2026-04-16T13:02:12.999Z</time></trkpt><trkpt lat="44.8147291" lon="8.6865733"><ele>124.0</ele><time>2026-04-16T13:02:13.999Z</time></trkpt><trkpt lat="44.814877" lon="8.6865096"><ele>124.0</ele><time>2026-04-16T13:02:14.999Z</time></trkpt><trkpt lat="44.8150229" lon="8.6864404"><ele>124.0</ele><time>2026-04-16T13:02:15.999Z</time></trkpt><trkpt lat="44.8151644" lon="8.6863659"><ele>124.0</ele><time>2026-04-16T13:02:16.999Z</time></trkpt><trkpt lat="44.8153074" lon="8.6862867"><ele>124.5</ele><time>2026-04-16T13:02:17.999Z</time></trkpt><trkpt lat="44.8154476" lon="8.6861976"><ele>125.0</ele><time>2026-04-16T13:02:18.999Z</time></trkpt><trkpt lat="44.8155787" lon="8.6860996"><ele>125.5</ele><time>2026-04-16T13:02:19.999Z</time></trkpt><trkpt lat="44.8157012" lon="8.6859918"><ele>126.0</ele><time>2026-04-16T13:02:21.106Z</time></trkpt><trkpt lat="44.8159316" lon="8.6857726"><ele>126.33333333333334</ele><time>2026-04-16T13:02:22.999Z</time></trkpt><trkpt lat="44.8160377" lon="8.6856637"><ele>126.66666666666667</ele><time>2026-04-16T13:02:23.999Z</time></trkpt><trkpt lat="44.8161509" lon="8.6855474"><ele>127.0</ele><time>2026-04-16T13:02:25.107Z</time></trkpt><trkpt lat="44.8163514" lon="8.6853487"><ele>126.5</ele><time>2026-04-16T13:02:26.999Z</time></trkpt><trkpt lat="44.8164463" lon="8.6852511"><ele>126.0</ele><time>2026-04-16T13:02:27.999Z</time></trkpt><trkpt lat="44.816545" lon="8.6851523"><ele>125.5</ele><time>2026-04-16T13:02:28.999Z</time></trkpt><trkpt lat="44.8166387" lon="8.6850545"><ele>125.0</ele><time>2026-04-16T13:02:29.999Z</time></trkpt><trkpt lat="44.8167313" lon="8.6849589"><ele>125.33333333333333</ele><time>2026-04-16T13:02:31.104Z</time></trkpt><trkpt lat="44.8169192" lon="8.6847702"><ele>125.66666666666666</ele><time>2026-04-16T13:02:32.999Z</time></trkpt><trkpt lat="44.8170139" lon="8.6846722"><ele>126.0</ele><time>2026-04-16T13:02:34.115Z</time></trkpt><trkpt lat="44.8171058" lon="8.684569"><ele>126.0</ele><time>2026-04-16T13:02:35.115Z</time></trkpt><trkpt lat="44.8171963" lon="8.6844629"><ele>126.0</ele><time>2026-04-16T13:02:36.101Z</time></trkpt><trkpt lat="44.8173774" lon="8.6842572"><ele>126.0</ele><time>2026-04-16T13:02:37.999Z</time></trkpt><trkpt lat="44.8174702" lon="8.6841546"><ele>126.0</ele><time>2026-04-16T13:02:39.129Z</time></trkpt><trkpt lat="44.8175882" lon="8.6840635"><ele>126.0</ele><time>2026-04-16T13:02:40.119Z</time></trkpt><trkpt lat="44.8176811" lon="8.6839542"><ele>126.0</ele><time>2026-04-16T13:02:41.109Z</time></trkpt><trkpt lat="44.8178795" lon="8.683743"><ele>125.66666666666666</ele><time>2026-04-16T13:02:42.999Z</time></trkpt><trkpt lat="44.8179832" lon="8.6836419"><ele>125.33333333333333</ele><time>2026-04-16T13:02:43.999Z</time></trkpt><trkpt lat="44.8180884" lon="8.6835374"><ele>125.0</ele><time>2026-04-16T13:02:45.116Z</time></trkpt><trkpt lat="44.8182973" lon="8.6833226"><ele>125.0</ele><time>2026-04-16T13:02:46.999Z</time></trkpt><trkpt lat="44.8183996" lon="8.6832214"><ele>125.0</ele><time>2026-04-16T13:02:47.999Z</time></trkpt><trkpt lat="44.818501" lon="8.6831228"><ele>125.0</ele><time>2026-04-16T13:02:48.999Z</time></trkpt><trkpt lat="44.8185987" lon="8.6830331"><ele>125.0</ele><time>2026-04-16T13:02:50.108Z</time></trkpt><trkpt lat="44.8187945" lon="8.6828778"><ele>124.8</ele><time>2026-04-16T13:02:51.999Z</time></trkpt><trkpt lat="44.8188833" lon="8.6828152"><ele>124.6</ele><time>2026-04-16T13:02:52.999Z</time></trkpt><trkpt lat="44.8189663" lon="8.6827561"><ele>124.4</ele><time>2026-04-16T13:02:53.999Z</time></trkpt><trkpt lat="44.8190397" lon="8.6827049"><ele>124.2</ele><time>2026-04-16T13:02:55.126Z</time></trkpt><trkpt lat="44.8191145" lon="8.6826607"><ele>124.0</ele><time>2026-04-16T13:02:56.111Z</time></trkpt><trkpt lat="44.8192466" lon="8.6826063"><ele>124.0</ele><time>2026-04-16T13:02:57.999Z</time></trkpt><trkpt lat="44.8193218" lon="8.6825538"><ele>124.0</ele><time>2026-04-16T13:02:58.999Z</time></trkpt><trkpt lat="44.8193924" lon="8.6824946"><ele>124.0</ele><time>2026-04-16T13:02:59.999Z</time></trkpt><trkpt lat="44.8194757" lon="8.6824051"><ele>124.0</ele><time>2026-04-16T13:03:00.999Z</time></trkpt><trkpt lat="44.8195618" lon="8.6823363"><ele>124.0</ele><time>2026-04-16T13:03:01.999Z</time></trkpt><trkpt lat="44.8196614" lon="8.6822721"><ele>124.0</ele><time>2026-04-16T13:03:02.999Z</time></trkpt><trkpt lat="44.8197555" lon="8.6822099"><ele>124.0</ele><time>2026-04-16T13:03:03.999Z</time></trkpt><trkpt lat="44.8198583" lon="8.6821385"><ele>124.0</ele><time>2026-04-16T13:03:04.999Z</time></trkpt><trkpt lat="44.8199602" lon="8.6820639"><ele>124.0</ele><time>2026-04-16T13:03:05.999Z</time></trkpt><trkpt lat="44.8200611" lon="8.6819878"><ele>124.0</ele><time>2026-04-16T13:03:06.999Z</time></trkpt><trkpt lat="44.8201865" lon="8.6819028"><ele>123.5</ele><time>2026-04-16T13:03:07.999Z</time></trkpt><trkpt lat="44.820311" lon="8.6818211"><ele>123.0</ele><time>2026-04-16T13:03:08.999Z</time></trkpt><trkpt lat="44.8204132" lon="8.6817436"><ele>122.5</ele><time>2026-04-16T13:03:09.999Z</time></trkpt><trkpt lat="44.8205251" lon="8.6816607"><ele>122.0</ele><time>2026-04-16T13:03:10.999Z</time></trkpt><trkpt lat="44.8206497" lon="8.6815861"><ele>122.0</ele><time>2026-04-16T13:03:11.999Z</time></trkpt><trkpt lat="44.8207488" lon="8.6815074"><ele>122.0</ele><time>2026-04-16T13:03:12.999Z</time></trkpt><trkpt lat="44.8208936" lon="8.6814182"><ele>122.0</ele><time>2026-04-16T13:03:13.999Z</time></trkpt><trkpt lat="44.821012" lon="8.6813403"><ele>122.0</ele><time>2026-04-16T13:03:14.999Z</time></trkpt><trkpt lat="44.8211241" lon="8.6812628"><ele>121.75</ele><time>2026-04-16T13:03:15.999Z</time></trkpt><trkpt lat="44.8212307" lon="8.6811745"><ele>121.5</ele><time>2026-04-16T13:03:16.999Z</time></trkpt><trkpt lat="44.8213315" lon="8.681124"><ele>121.25</ele><time>2026-04-16T13:03:17.999Z</time></trkpt><trkpt lat="44.8214476" lon="8.6810569"><ele>121.0</ele><time>2026-04-16T13:03:18.999Z</time></trkpt><trkpt lat="44.8215501" lon="8.680987"><ele>121.0</ele><time>2026-04-16T13:03:20.104Z</time></trkpt><trkpt lat="44.8217789" lon="8.6808507"><ele>121.0</ele><time>2026-04-16T13:03:21.999Z</time></trkpt><trkpt lat="44.8218918" lon="8.6807866"><ele>121.0</ele><time>2026-04-16T13:03:22.999Z</time></trkpt><trkpt lat="44.8219921" lon="8.6807191"><ele>121.5</ele><time>2026-04-16T13:03:24.103Z</time></trkpt><trkpt lat="44.8221905" lon="8.6805734"><ele>122.0</ele><time>2026-04-16T13:03:25.999Z</time></trkpt><trkpt lat="44.8222906" lon="8.6805079"><ele>122.5</ele><time>2026-04-16T13:03:26.999Z</time></trkpt><trkpt lat="44.8223883" lon="8.6804467"><ele>123.0</ele><time>2026-04-16T13:03:28.105Z</time></trkpt><trkpt lat="44.8225396" lon="8.6803632"><ele>123.0</ele><time>2026-04-16T13:03:29.999Z</time></trkpt><trkpt lat="44.8226045" lon="8.6803407"><ele>123.0</ele><time>2026-04-16T13:03:31.121Z</time></trkpt><trkpt lat="44.8226992" lon="8.6803076"><ele>123.0</ele><time>2026-04-16T13:03:32.999Z</time></trkpt><trkpt lat="44.8227856" lon="8.6802793"><ele>123.0</ele><time>2026-04-16T13:03:35.999Z</time></trkpt><trkpt lat="44.8228567" lon="8.6802791"><ele>123.0</ele><time>2026-04-16T13:03:38.999Z</time></trkpt><trkpt lat="44.8229311" lon="8.6802681"><ele>123.0</ele><time>2026-04-16T13:03:40.999Z</time></trkpt><trkpt lat="44.8230169" lon="8.6802832"><ele>123.0</ele><time>2026-04-16T13:03:42.999Z</time></trkpt><trkpt lat="44.8231498" lon="8.6802659"><ele>123.0</ele><time>2026-04-16T13:03:44.999Z</time></trkpt><trkpt lat="44.823214" lon="8.6802677"><ele>123.0</ele><time>2026-04-16T13:03:45.999Z</time></trkpt><trkpt lat="44.8232918" lon="8.6802638"><ele>123.0</ele><time>2026-04-16T13:03:46.999Z</time></trkpt><trkpt lat="44.8233685" lon="8.6802553"><ele>123.0</ele><time>2026-04-16T13:03:47.999Z</time></trkpt><trkpt lat="44.8234439" lon="8.6802662"><ele>123.0</ele><time>2026-04-16T13:03:48.999Z</time></trkpt><trkpt lat="44.8235262" lon="8.6802755"><ele>123.33333333333333</ele><time>2026-04-16T13:03:49.999Z</time></trkpt><trkpt lat="44.823613" lon="8.6802857"><ele>123.66666666666666</ele><time>2026-04-16T13:03:50.999Z</time></trkpt><trkpt lat="44.8237001" lon="8.6802989"><ele>124.0</ele><time>2026-04-16T13:03:51.999Z</time></trkpt><trkpt lat="44.8237828" lon="8.6803107"><ele>124.33333333333333</ele><time>2026-04-16T13:03:52.999Z</time></trkpt><trkpt lat="44.8238701" lon="8.680332"><ele>124.66666666666666</ele><time>2026-04-16T13:03:53.999Z</time></trkpt><trkpt lat="44.8239629" lon="8.6803573"><ele>125.0</ele><time>2026-04-16T13:03:54.999Z</time></trkpt><trkpt lat="44.8240508" lon="8.6803852"><ele>125.0</ele><time>2026-04-16T13:03:55.999Z</time></trkpt><trkpt lat="44.8241395" lon="8.6804149"><ele>125.0</ele><time>2026-04-16T13:03:56.999Z</time></trkpt><trkpt lat="44.8242366" lon="8.6804439"><ele>125.0</ele><time>2026-04-16T13:03:57.999Z</time></trkpt><trkpt lat="44.8243329" lon="8.680478"><ele>125.0</ele><time>2026-04-16T13:03:58.999Z</time></trkpt><trkpt lat="44.8244322" lon="8.6805171"><ele>125.0</ele><time>2026-04-16T13:03:59.999Z</time></trkpt><trkpt lat="44.824526" lon="8.6805535"><ele>124.75</ele><time>2026-04-16T13:04:01.101Z</time></trkpt><trkpt lat="44.8246137" lon="8.6806059"><ele>124.5</ele><time>2026-04-16T13:04:01.999Z</time></trkpt><trkpt lat="44.8246998" lon="8.6806554"><ele>124.25</ele><time>2026-04-16T13:04:02.999Z</time></trkpt><trkpt lat="44.8247897" lon="8.6807068"><ele>124.0</ele><time>2026-04-16T13:04:04.101Z</time></trkpt><trkpt lat="44.8249572" lon="8.6808155"><ele>124.0</ele><time>2026-04-16T13:04:05.999Z</time></trkpt><trkpt lat="44.8250388" lon="8.6808673"><ele>124.0</ele><time>2026-04-16T13:04:06.999Z</time></trkpt><trkpt lat="44.8251218" lon="8.6809287"><ele>124.0</ele><time>2026-04-16T13:04:07.999Z</time></trkpt><trkpt lat="44.8252045" lon="8.6809921"><ele>124.0</ele><time>2026-04-16T13:04:08.999Z</time></trkpt><trkpt lat="44.8252781" lon="8.6810619"><ele>124.0</ele><time>2026-04-16T13:04:09.999Z</time></trkpt><trkpt lat="44.8253469" lon="8.6811331"><ele>123.57142857142858</ele><time>2026-04-16T13:04:10.999Z</time></trkpt><trkpt lat="44.8254221" lon="8.6811884"><ele>123.14285714285715</ele><time>2026-04-16T13:04:11.999Z</time></trkpt><trkpt lat="44.8254929" lon="8.6812517"><ele>122.71428571428572</ele><time>2026-04-16T13:04:12.999Z</time></trkpt><trkpt lat="44.8255555" lon="8.6813008"><ele>122.28571428571428</ele><time>2026-04-16T13:04:13.999Z</time></trkpt><trkpt lat="44.8256207" lon="8.6813533"><ele>121.85714285714285</ele><time>2026-04-16T13:04:14.999Z</time></trkpt><trkpt lat="44.8256784" lon="8.681411"><ele>121.42857142857142</ele><time>2026-04-16T13:04:15.999Z</time></trkpt><trkpt lat="44.8257323" lon="8.6814573"><ele>121.0</ele><time>2026-04-16T13:04:16.999Z</time></trkpt><trkpt lat="44.8258394" lon="8.681564"><ele>121.00000000000001</ele><time>2026-04-16T13:04:18.999Z</time></trkpt><trkpt lat="44.8258787" lon="8.6816413"><ele>121.0</ele><time>2026-04-16T13:04:20.12Z</time></trkpt><trkpt lat="44.8259534" lon="8.6818034"><ele>121.0</ele><time>2026-04-16T13:04:21.999Z</time></trkpt><trkpt lat="44.8260008" lon="8.6818667"><ele>121.0</ele><time>2026-04-16T13:04:22.999Z</time></trkpt><trkpt lat="44.8260543" lon="8.681915"><ele>121.00000000000001</ele><time>2026-04-16T13:04:23.999Z</time></trkpt><trkpt lat="44.8261278" lon="8.6819372"><ele>121.0</ele><time>2026-04-16T13:04:24.999Z</time></trkpt><trkpt lat="44.8262601" lon="8.6819474"><ele>121.16666666666667</ele><time>2026-04-16T13:04:26.999Z</time></trkpt><trkpt lat="44.826327" lon="8.6819573"><ele>121.33333333333334</ele><time>2026-04-16T13:04:27.999Z</time></trkpt><trkpt lat="44.8263914" lon="8.6819875"><ele>121.5</ele><time>2026-04-16T13:04:28.999Z</time></trkpt><trkpt lat="44.826462" lon="8.6820386"><ele>121.66666666666666</ele><time>2026-04-16T13:04:29.999Z</time></trkpt><trkpt lat="44.826537" lon="8.6821067"><ele>121.83333333333333</ele><time>2026-04-16T13:04:30.999Z</time></trkpt><trkpt lat="44.8266173" lon="8.6821847"><ele>122.0</ele><time>2026-04-16T13:04:31.999Z</time></trkpt><trkpt lat="44.8266969" lon="8.6822537"><ele>122.0</ele><time>2026-04-16T13:04:32.999Z</time></trkpt><trkpt lat="44.8267798" lon="8.6823302"><ele>122.0</ele><time>2026-04-16T13:04:33.999Z</time></trkpt><trkpt lat="44.8268693" lon="8.68242"><ele>122.0</ele><time>2026-04-16T13:04:34.999Z</time></trkpt><trkpt lat="44.826954" lon="8.682497"><ele>122.0</ele><time>2026-04-16T13:04:36.1Z</time></trkpt><trkpt lat="44.8271303" lon="8.6826528"><ele>122.33333333333333</ele><time>2026-04-16T13:04:37.999Z</time></trkpt><trkpt lat="44.8272215" lon="8.6827216"><ele>122.66666666666666</ele><time>2026-04-16T13:04:39.129Z</time></trkpt><trkpt lat="44.8274036" lon="8.682884"><ele>123.0</ele><time>2026-04-16T13:04:41.126Z</time></trkpt><trkpt lat="44.8275843" lon="8.6830355"><ele>123.0</ele><time>2026-04-16T13:04:42.999Z</time></trkpt><trkpt lat="44.827671" lon="8.6831103"><ele>123.0</ele><time>2026-04-16T13:04:44.106Z</time></trkpt><trkpt lat="44.8278468" lon="8.683265"><ele>123.0</ele><time>2026-04-16T13:04:45.999Z</time></trkpt><trkpt lat="44.8279303" lon="8.6833413"><ele>123.0</ele><time>2026-04-16T13:04:46.999Z</time></trkpt><trkpt lat="44.8280196" lon="8.6834171"><ele>123.0</ele><time>2026-04-16T13:04:47.999Z</time></trkpt><trkpt lat="44.8281116" lon="8.6834881"><ele>123.0</ele><time>2026-04-16T13:04:48.999Z</time></trkpt><trkpt lat="44.8282192" lon="8.6835563"><ele>123.0</ele><time>2026-04-16T13:04:50.114Z</time></trkpt><trkpt lat="44.828445" lon="8.6836796"><ele>122.5</ele><time>2026-04-16T13:04:51.999Z</time></trkpt><trkpt lat="44.8285606" lon="8.6837287"><ele>122.0</ele><time>2026-04-16T13:04:52.999Z</time></trkpt><trkpt lat="44.8286735" lon="8.6837693"><ele>121.5</ele><time>2026-04-16T13:04:53.999Z</time></trkpt><trkpt lat="44.8287954" lon="8.6838029"><ele>121.0</ele><time>2026-04-16T13:04:54.999Z</time></trkpt><trkpt lat="44.8289197" lon="8.6838333"><ele>121.0</ele><time>2026-04-16T13:04:55.999Z</time></trkpt><trkpt lat="44.8290454" lon="8.6838462"><ele>121.0</ele><time>2026-04-16T13:04:56.999Z</time></trkpt><trkpt lat="44.8291771" lon="8.6838668"><ele>121.0</ele><time>2026-04-16T13:04:57.999Z</time></trkpt><trkpt lat="44.829311" lon="8.6838826"><ele>121.0</ele><time>2026-04-16T13:04:58.999Z</time></trkpt><trkpt lat="44.8294413" lon="8.6838958"><ele>120.5</ele><time>2026-04-16T13:04:59.999Z</time></trkpt><trkpt lat="44.8295836" lon="8.6839092"><ele>120.0</ele><time>2026-04-16T13:05:00.999Z</time></trkpt><trkpt lat="44.8297301" lon="8.683917"><ele>119.5</ele><time>2026-04-16T13:05:01.999Z</time></trkpt><trkpt lat="44.8298715" lon="8.6839288"><ele>119.0</ele><time>2026-04-16T13:05:02.999Z</time></trkpt><trkpt lat="44.8300036" lon="8.6839386"><ele>119.0</ele><time>2026-04-16T13:05:03.999Z</time></trkpt><trkpt lat="44.8301305" lon="8.6839508"><ele>119.0</ele><time>2026-04-16T13:05:04.999Z</time></trkpt><trkpt lat="44.8302624" lon="8.6839629"><ele>119.0</ele><time>2026-04-16T13:05:06.1Z</time></trkpt><trkpt lat="44.8305262" lon="8.683982"><ele>119.0</ele><time>2026-04-16T13:05:07.999Z</time></trkpt><trkpt lat="44.8306552" lon="8.6839931"><ele>119.0</ele><time>2026-04-16T13:05:08.999Z</time></trkpt><trkpt lat="44.8307774" lon="8.6840061"><ele>119.0</ele><time>2026-04-16T13:05:09.999Z</time></trkpt><trkpt lat="44.8309055" lon="8.6840196"><ele>119.0</ele><time>2026-04-16T13:05:11.118Z</time></trkpt><trkpt lat="44.8311632" lon="8.6840595"><ele>119.0</ele><time>2026-04-16T13:05:12.999Z</time></trkpt><trkpt lat="44.8312899" lon="8.6840986"><ele>119.0</ele><time>2026-04-16T13:05:13.999Z</time></trkpt><trkpt lat="44.8314228" lon="8.6841386"><ele>119.0</ele><time>2026-04-16T13:05:14.999Z</time></trkpt><trkpt lat="44.8315422" lon="8.684194"><ele>119.0</ele><time>2026-04-16T13:05:15.999Z</time></trkpt><trkpt lat="44.8316648" lon="8.6842673"><ele>119.0</ele><time>2026-04-16T13:05:16.999Z</time></trkpt><trkpt lat="44.8317816" lon="8.6843437"><ele>119.0</ele><time>2026-04-16T13:05:17.999Z</time></trkpt><trkpt lat="44.8319018" lon="8.6844518"><ele>119.0</ele><time>2026-04-16T13:05:18.999Z</time></trkpt><trkpt lat="44.8320161" lon="8.684569"><ele>119.0</ele><time>2026-04-16T13:05:20.107Z</time></trkpt><trkpt lat="44.8322246" lon="8.6848605"><ele>119.0</ele><time>2026-04-16T13:05:21.999Z</time></trkpt><trkpt lat="44.8323115" lon="8.6850202"><ele>119.0</ele><time>2026-04-16T13:05:22.999Z</time></trkpt><trkpt lat="44.832388" lon="8.6851905"><ele>119.0</ele><time>2026-04-16T13:05:24.11Z</time></trkpt><trkpt lat="44.8324578" lon="8.6853615"><ele>119.0</ele><time>2026-04-16T13:05:25.111Z</time></trkpt><trkpt lat="44.8325625" lon="8.6857385"><ele>119.0</ele><time>2026-04-16T13:05:26.999Z</time></trkpt><trkpt lat="44.8326056" lon="8.6859266"><ele>119.0</ele><time>2026-04-16T13:05:27.999Z</time></trkpt><trkpt lat="44.832646" lon="8.6861108"><ele>119.0</ele><time>2026-04-16T13:05:28.999Z</time></trkpt><trkpt lat="44.8326794" lon="8.686294"><ele>119.0</ele><time>2026-04-16T13:05:29.999Z</time></trkpt><trkpt lat="44.8327183" lon="8.6864798"><ele>119.0</ele><time>2026-04-16T13:05:31.111Z</time></trkpt><trkpt lat="44.8327927" lon="8.6868551"><ele>119.0</ele><time>2026-04-16T13:05:32.999Z</time></trkpt><trkpt lat="44.8328341" lon="8.6870411"><ele>119.0</ele><time>2026-04-16T13:05:33.999Z</time></trkpt><trkpt lat="44.8328779" lon="8.6872276"><ele>119.25</ele><time>2026-04-16T13:05:34.999Z</time></trkpt><trkpt lat="44.8329163" lon="8.6874151"><ele>119.5</ele><time>2026-04-16T13:05:35.999Z</time></trkpt><trkpt lat="44.8329545" lon="8.687599"><ele>119.75</ele><time>2026-04-16T13:05:36.999Z</time></trkpt><trkpt lat="44.8329901" lon="8.6877871"><ele>120.0</ele><time>2026-04-16T13:05:37.999Z</time></trkpt><trkpt lat="44.8330246" lon="8.6879649"><ele>120.25</ele><time>2026-04-16T13:05:38.999Z</time></trkpt><trkpt lat="44.8330604" lon="8.6881406"><ele>120.5</ele><time>2026-04-16T13:05:39.999Z</time></trkpt><trkpt lat="44.8330972" lon="8.6883264"><ele>120.75</ele><time>2026-04-16T13:05:40.999Z</time></trkpt><trkpt lat="44.833132" lon="8.6885113"><ele>121.0</ele><time>2026-04-16T13:05:41.999Z</time></trkpt><trkpt lat="44.8331695" lon="8.6886969"><ele>121.0</ele><time>2026-04-16T13:05:42.999Z</time></trkpt><trkpt lat="44.833206" lon="8.6888792"><ele>121.0</ele><time>2026-04-16T13:05:43.999Z</time></trkpt><trkpt lat="44.8332452" lon="8.6890661"><ele>121.0</ele><time>2026-04-16T13:05:44.999Z</time></trkpt><trkpt lat="44.8332907" lon="8.6892462"><ele>121.0</ele><time>2026-04-16T13:05:45.999Z</time></trkpt><trkpt lat="44.8333391" lon="8.6894254"><ele>121.0</ele><time>2026-04-16T13:05:46.999Z</time></trkpt><trkpt lat="44.8334014" lon="8.6895935"><ele>121.0</ele><time>2026-04-16T13:05:47.999Z</time></trkpt><trkpt lat="44.8334702" lon="8.6897527"><ele>121.0</ele><time>2026-04-16T13:05:48.999Z</time></trkpt><trkpt lat="44.8335505" lon="8.689904"><ele>121.0</ele><time>2026-04-16T13:05:49.999Z</time></trkpt><trkpt lat="44.8336369" lon="8.6900478"><ele>121.0</ele><time>2026-04-16T13:05:50.999Z</time></trkpt><trkpt lat="44.8337397" lon="8.6901759"><ele>121.0</ele><time>2026-04-16T13:05:51.999Z</time></trkpt><trkpt lat="44.8338448" lon="8.6902976"><ele>121.0</ele><time>2026-04-16T13:05:52.999Z</time></trkpt><trkpt lat="44.8339502" lon="8.6904097"><ele>121.0</ele><time>2026-04-16T13:05:53.999Z</time></trkpt><trkpt lat="44.8340563" lon="8.6905269"><ele>120.75</ele><time>2026-04-16T13:05:54.999Z</time></trkpt><trkpt lat="44.8341633" lon="8.6906412"><ele>120.5</ele><time>2026-04-16T13:05:55.999Z</time></trkpt><trkpt lat="44.8342729" lon="8.690751"><ele>120.25</ele><time>2026-04-16T13:05:56.999Z</time></trkpt><trkpt lat="44.8343888" lon="8.6908582"><ele>120.0</ele><time>2026-04-16T13:05:57.999Z</time></trkpt><trkpt lat="44.8344961" lon="8.6909788"><ele>120.25</ele><time>2026-04-16T13:05:58.999Z</time></trkpt><trkpt lat="44.8346131" lon="8.6910883"><ele>120.5</ele><time>2026-04-16T13:05:59.999Z</time></trkpt><trkpt lat="44.8347194" lon="8.6911933"><ele>120.75</ele><time>2026-04-16T13:06:00.999Z</time></trkpt><trkpt lat="44.8348212" lon="8.6912934"><ele>121.0</ele><time>2026-04-16T13:06:01.999Z</time></trkpt><trkpt lat="44.8349287" lon="8.6913842"><ele>121.0</ele><time>2026-04-16T13:06:02.999Z</time></trkpt><trkpt lat="44.8350335" lon="8.6914766"><ele>121.0</ele><time>2026-04-16T13:06:03.999Z</time></trkpt><trkpt lat="44.8351407" lon="8.6915316"><ele>121.0</ele><time>2026-04-16T13:06:04.999Z</time></trkpt><trkpt lat="44.8352492" lon="8.6915756"><ele>121.0</ele><time>2026-04-16T13:06:05.999Z</time></trkpt><trkpt lat="44.8353553" lon="8.6916164"><ele>120.5</ele><time>2026-04-16T13:06:06.999Z</time></trkpt><trkpt lat="44.8354671" lon="8.6916342"><ele>120.0</ele><time>2026-04-16T13:06:07.999Z</time></trkpt><trkpt lat="44.835573" lon="8.6916406"><ele>119.5</ele><time>2026-04-16T13:06:08.999Z</time></trkpt><trkpt lat="44.8356907" lon="8.6916537"><ele>119.0</ele><time>2026-04-16T13:06:09.999Z</time></trkpt><trkpt lat="44.835806" lon="8.6916507"><ele>119.0</ele><time>2026-04-16T13:06:10.999Z</time></trkpt><trkpt lat="44.8359236" lon="8.6916476"><ele>119.0</ele><time>2026-04-16T13:06:11.999Z</time></trkpt><trkpt lat="44.8360458" lon="8.6916384"><ele>119.0</ele><time>2026-04-16T13:06:12.999Z</time></trkpt><trkpt lat="44.8361729" lon="8.6916274"><ele>119.0</ele><time>2026-04-16T13:06:13.999Z</time></trkpt><trkpt lat="44.8363012" lon="8.6916194"><ele>118.5</ele><time>2026-04-16T13:06:14.999Z</time></trkpt><trkpt lat="44.8364272" lon="8.6916143"><ele>118.0</ele><time>2026-04-16T13:06:15.999Z</time></trkpt><trkpt lat="44.8365606" lon="8.6916043"><ele>117.5</ele><time>2026-04-16T13:06:16.999Z</time></trkpt><trkpt lat="44.8366962" lon="8.6916044"><ele>117.0</ele><time>2026-04-16T13:06:17.999Z</time></trkpt><trkpt lat="44.8368229" lon="8.6916014"><ele>116.75</ele><time>2026-04-16T13:06:18.999Z</time></trkpt><trkpt lat="44.8369425" lon="8.6915937"><ele>116.5</ele><time>2026-04-16T13:06:19.999Z</time></trkpt><trkpt lat="44.8370722" lon="8.6915868"><ele>116.25</ele><time>2026-04-16T13:06:20.999Z</time></trkpt><trkpt lat="44.8372014" lon="8.6915818"><ele>116.0</ele><time>2026-04-16T13:06:21.999Z</time></trkpt><trkpt lat="44.8373298" lon="8.6915753"><ele>116.0</ele><time>2026-04-16T13:06:22.999Z</time></trkpt><trkpt lat="44.8374671" lon="8.69157"><ele>116.0</ele><time>2026-04-16T13:06:23.999Z</time></trkpt><trkpt lat="44.8375994" lon="8.6915618"><ele>116.0</ele><time>2026-04-16T13:06:24.999Z</time></trkpt><trkpt lat="44.8377321" lon="8.6915545"><ele>116.0</ele><time>2026-04-16T13:06:25.999Z</time></trkpt><trkpt lat="44.8378658" lon="8.6915479"><ele>116.5</ele><time>2026-04-16T13:06:26.999Z</time></trkpt><trkpt lat="44.8380015" lon="8.6915402"><ele>117.0</ele><time>2026-04-16T13:06:27.999Z</time></trkpt><trkpt lat="44.8381361" lon="8.691533"><ele>117.5</ele><time>2026-04-16T13:06:28.999Z</time></trkpt><trkpt lat="44.8382653" lon="8.6915251"><ele>118.0</ele><time>2026-04-16T13:06:29.999Z</time></trkpt><trkpt lat="44.8384001" lon="8.6915188"><ele>117.75</ele><time>2026-04-16T13:06:30.999Z</time></trkpt><trkpt lat="44.8385218" lon="8.6915199"><ele>117.5</ele><time>2026-04-16T13:06:31.999Z</time></trkpt><trkpt lat="44.8386495" lon="8.6915145"><ele>117.25</ele><time>2026-04-16T13:06:32.999Z</time></trkpt><trkpt lat="44.8387764" lon="8.6915044"><ele>117.0</ele><time>2026-04-16T13:06:33.999Z</time></trkpt><trkpt lat="44.838897" lon="8.6914976"><ele>117.0</ele><time>2026-04-16T13:06:34.999Z</time></trkpt><trkpt lat="44.839024" lon="8.6914904"><ele>117.0</ele><time>2026-04-16T13:06:35.999Z</time></trkpt><trkpt lat="44.8391493" lon="8.6914853"><ele>117.0</ele><time>2026-04-16T13:06:36.999Z</time></trkpt><trkpt lat="44.8392782" lon="8.6914742"><ele>117.0</ele><time>2026-04-16T13:06:37.999Z</time></trkpt><trkpt lat="44.8394046" lon="8.6914669"><ele>116.75</ele><time>2026-04-16T13:06:38.999Z</time></trkpt><trkpt lat="44.8395335" lon="8.6914579"><ele>116.5</ele><time>2026-04-16T13:06:39.999Z</time></trkpt><trkpt lat="44.8396549" lon="8.6914385"><ele>116.25</ele><time>2026-04-16T13:06:40.999Z</time></trkpt><trkpt lat="44.8397732" lon="8.6914164"><ele>116.0</ele><time>2026-04-16T13:06:41.999Z</time></trkpt><trkpt lat="44.8398894" lon="8.6913967"><ele>116.0</ele><time>2026-04-16T13:06:42.999Z</time></trkpt><trkpt lat="44.8400022" lon="8.6913704"><ele>116.0</ele><time>2026-04-16T13:06:43.999Z</time></trkpt><trkpt lat="44.840103" lon="8.6913424"><ele>116.0</ele><time>2026-04-16T13:06:44.999Z</time></trkpt><trkpt lat="44.8402013" lon="8.6913126"><ele>116.0</ele><time>2026-04-16T13:06:45.999Z</time></trkpt><trkpt lat="44.8402892" lon="8.6912916"><ele>116.0</ele><time>2026-04-16T13:06:46.999Z</time></trkpt><trkpt lat="44.8403835" lon="8.6912944"><ele>116.19999999999999</ele><time>2026-04-16T13:06:47.999Z</time></trkpt><trkpt lat="44.8404625" lon="8.6913011"><ele>116.39999999999999</ele><time>2026-04-16T13:06:48.999Z</time></trkpt><trkpt lat="44.8405444" lon="8.6912934"><ele>116.6</ele><time>2026-04-16T13:06:49.999Z</time></trkpt><trkpt lat="44.8406181" lon="8.6912674"><ele>116.8</ele><time>2026-04-16T13:06:50.999Z</time></trkpt><trkpt lat="44.8407268" lon="8.6911188"><ele>117.0</ele><time>2026-04-16T13:06:52.999Z</time></trkpt><trkpt lat="44.8407945" lon="8.6910377"><ele>116.5</ele><time>2026-04-16T13:06:54.103Z</time></trkpt><trkpt lat="44.8409693" lon="8.6908917"><ele>116.0</ele><time>2026-04-16T13:06:55.999Z</time></trkpt><trkpt lat="44.8410622" lon="8.6908152"><ele>115.5</ele><time>2026-04-16T13:06:56.999Z</time></trkpt><trkpt lat="44.841165" lon="8.6907323"><ele>115.0</ele><time>2026-04-16T13:06:57.999Z</time></trkpt><trkpt lat="44.8412711" lon="8.6906409"><ele>115.0</ele><time>2026-04-16T13:06:58.999Z</time></trkpt><trkpt lat="44.8413768" lon="8.6905444"><ele>115.0</ele><time>2026-04-16T13:06:59.999Z</time></trkpt><trkpt lat="44.84148" lon="8.6904403"><ele>115.0</ele><time>2026-04-16T13:07:00.999Z</time></trkpt><trkpt lat="44.8415858" lon="8.6903291"><ele>115.0</ele><time>2026-04-16T13:07:01.999Z</time></trkpt><trkpt lat="44.841687" lon="8.6902107"><ele>115.0</ele><time>2026-04-16T13:07:02.999Z</time></trkpt><trkpt lat="44.841793" lon="8.690089"><ele>115.0</ele><time>2026-04-16T13:07:04.119Z</time></trkpt><trkpt lat="44.8419797" lon="8.6898256"><ele>115.0</ele><time>2026-04-16T13:07:05.999Z</time></trkpt><trkpt lat="44.8420682" lon="8.6896958"><ele>115.0</ele><time>2026-04-16T13:07:06.999Z</time></trkpt><trkpt lat="44.8421596" lon="8.6895548"><ele>115.0</ele><time>2026-04-16T13:07:07.999Z</time></trkpt><trkpt lat="44.8422487" lon="8.6894206"><ele>115.0</ele><time>2026-04-16T13:07:08.999Z</time></trkpt><trkpt lat="44.8423313" lon="8.6892799"><ele>115.0</ele><time>2026-04-16T13:07:09.999Z</time></trkpt><trkpt lat="44.8424101" lon="8.6891401"><ele>115.0</ele><time>2026-04-16T13:07:11.115Z</time></trkpt><trkpt lat="44.8425716" lon="8.6888751"><ele>115.0</ele><time>2026-04-16T13:07:12.999Z</time></trkpt><trkpt lat="44.8426482" lon="8.6887405"><ele>115.0</ele><time>2026-04-16T13:07:13.999Z</time></trkpt><trkpt lat="44.8427239" lon="8.6886001"><ele>115.0</ele><time>2026-04-16T13:07:14.999Z</time></trkpt><trkpt lat="44.8427983" lon="8.6884576"><ele>115.0</ele><time>2026-04-16T13:07:15.999Z</time></trkpt><trkpt lat="44.8428769" lon="8.6883231"><ele>115.0</ele><time>2026-04-16T13:07:16.999Z</time></trkpt><trkpt lat="44.8429526" lon="8.6881856"><ele>115.0</ele><time>2026-04-16T13:07:17.999Z</time></trkpt><trkpt lat="44.8430314" lon="8.6880453"><ele>115.0</ele><time>2026-04-16T13:07:18.999Z</time></trkpt><trkpt lat="44.8431063" lon="8.6879075"><ele>115.0</ele><time>2026-04-16T13:07:19.999Z</time></trkpt><trkpt lat="44.8431772" lon="8.6877715"><ele>115.0</ele><time>2026-04-16T13:07:20.999Z</time></trkpt><trkpt lat="44.8432426" lon="8.6876438"><ele>115.0</ele><time>2026-04-16T13:07:21.999Z</time></trkpt><trkpt lat="44.8432971" lon="8.6875334"><ele>114.75</ele><time>2026-04-16T13:07:23.114Z</time></trkpt><trkpt lat="44.8433999" lon="8.6873695"><ele>114.5</ele><time>2026-04-16T13:07:24.999Z</time></trkpt><trkpt lat="44.8435317" lon="8.6872507"><ele>114.25</ele><time>2026-04-16T13:07:27.999Z</time></trkpt><trkpt lat="44.8435862" lon="8.6871866"><ele>114.0</ele><time>2026-04-16T13:07:29.115Z</time></trkpt><trkpt lat="44.8436845" lon="8.6870312"><ele>113.75</ele><time>2026-04-16T13:07:31.113Z</time></trkpt><trkpt lat="44.8437817" lon="8.6868418"><ele>113.5</ele><time>2026-04-16T13:07:32.999Z</time></trkpt><trkpt lat="44.8438502" lon="8.6867459"><ele>113.25</ele><time>2026-04-16T13:07:33.999Z</time></trkpt><trkpt lat="44.8439228" lon="8.686647"><ele>113.0</ele><time>2026-04-16T13:07:34.999Z</time></trkpt><trkpt lat="44.844015" lon="8.6865392"><ele>113.0</ele><time>2026-04-16T13:07:35.999Z</time></trkpt><trkpt lat="44.8440959" lon="8.6864238"><ele>113.0</ele><time>2026-04-16T13:07:36.999Z</time></trkpt><trkpt lat="44.8441797" lon="8.6863138"><ele>113.0</ele><time>2026-04-16T13:07:37.999Z</time></trkpt><trkpt lat="44.8442591" lon="8.6862022"><ele>113.0</ele><time>2026-04-16T13:07:38.999Z</time></trkpt><trkpt lat="44.8443408" lon="8.6860899"><ele>112.5</ele><time>2026-04-16T13:07:39.999Z</time></trkpt><trkpt lat="44.8444263" lon="8.6859812"><ele>112.0</ele><time>2026-04-16T13:07:40.999Z</time></trkpt><trkpt lat="44.8445133" lon="8.6858677"><ele>111.5</ele><time>2026-04-16T13:07:41.999Z</time></trkpt><trkpt lat="44.8446048" lon="8.6857518"><ele>111.0</ele><time>2026-04-16T13:07:42.999Z</time></trkpt><trkpt lat="44.8446925" lon="8.6856382"><ele>111.0</ele><time>2026-04-16T13:07:43.999Z</time></trkpt><trkpt lat="44.8447793" lon="8.6855236"><ele>111.0</ele><time>2026-04-16T13:07:44.999Z</time></trkpt><trkpt lat="44.8448613" lon="8.6854053"><ele>111.0</ele><time>2026-04-16T13:07:45.999Z</time></trkpt><trkpt lat="44.8449435" lon="8.6852856"><ele>111.0</ele><time>2026-04-16T13:07:46.999Z</time></trkpt><trkpt lat="44.8450381" lon="8.6851645"><ele>111.75</ele><time>2026-04-16T13:07:47.999Z</time></trkpt><trkpt lat="44.8451349" lon="8.6850473"><ele>112.5</ele><time>2026-04-16T13:07:48.999Z</time></trkpt><trkpt lat="44.8452281" lon="8.6849244"><ele>113.25</ele><time>2026-04-16T13:07:49.999Z</time></trkpt><trkpt lat="44.845314" lon="8.6847996"><ele>114.0</ele><time>2026-04-16T13:07:50.999Z</time></trkpt><trkpt lat="44.8454065" lon="8.684674"><ele>114.0</ele><time>2026-04-16T13:07:51.999Z</time></trkpt><trkpt lat="44.8454915" lon="8.6845458"><ele>114.0</ele><time>2026-04-16T13:07:52.999Z</time></trkpt><trkpt lat="44.8455804" lon="8.684423"><ele>114.0</ele><time>2026-04-16T13:07:53.999Z</time></trkpt><trkpt lat="44.8456747" lon="8.6842986"><ele>114.0</ele><time>2026-04-16T13:07:54.999Z</time></trkpt><trkpt lat="44.8457641" lon="8.6841743"><ele>113.5</ele><time>2026-04-16T13:07:55.999Z</time></trkpt><trkpt lat="44.8458512" lon="8.6840561"><ele>113.0</ele><time>2026-04-16T13:07:56.999Z</time></trkpt><trkpt lat="44.8459405" lon="8.6839375"><ele>112.5</ele><time>2026-04-16T13:07:57.999Z</time></trkpt><trkpt lat="44.8460312" lon="8.6838229"><ele>112.0</ele><time>2026-04-16T13:07:58.999Z</time></trkpt><trkpt lat="44.8461247" lon="8.6837019"><ele>111.5</ele><time>2026-04-16T13:07:59.999Z</time></trkpt><trkpt lat="44.8462181" lon="8.6835838"><ele>111.0</ele><time>2026-04-16T13:08:00.999Z</time></trkpt><trkpt lat="44.8463061" lon="8.6834662"><ele>110.5</ele><time>2026-04-16T13:08:01.999Z</time></trkpt><trkpt lat="44.8463956" lon="8.6833463"><ele>110.0</ele><time>2026-04-16T13:08:02.999Z</time></trkpt><trkpt lat="44.8464906" lon="8.6832239"><ele>110.0</ele><time>2026-04-16T13:08:03.999Z</time></trkpt><trkpt lat="44.8465796" lon="8.6831022"><ele>110.0</ele><time>2026-04-16T13:08:05Z</time></trkpt><trkpt lat="44.8466617" lon="8.6829866"><ele>110.0</ele><time>2026-04-16T13:08:05.999Z</time></trkpt><trkpt lat="44.84675" lon="8.6828737"><ele>110.0</ele><time>2026-04-16T13:08:06.999Z</time></trkpt><trkpt lat="44.8468119" lon="8.6828116"><ele>110.0</ele><time>2026-04-16T13:08:07.999Z</time></trkpt><trkpt lat="44.8468858" lon="8.6827602"><ele>109.66666666666666</ele><time>2026-04-16T13:08:08.999Z</time></trkpt><trkpt lat="44.8469556" lon="8.682719"><ele>109.33333333333333</ele><time>2026-04-16T13:08:09.999Z</time></trkpt><trkpt lat="44.8470164" lon="8.6826662"><ele>109.0</ele><time>2026-04-16T13:08:10.999Z</time></trkpt><trkpt lat="44.8470574" lon="8.6825912"><ele>108.66666666666666</ele><time>2026-04-16T13:08:11.999Z</time></trkpt><trkpt lat="44.8470864" lon="8.6824901"><ele>108.33333333333333</ele><time>2026-04-16T13:08:12.999Z</time></trkpt><trkpt lat="44.8471182" lon="8.6823788"><ele>108.0</ele><time>2026-04-16T13:08:13.999Z</time></trkpt><trkpt lat="44.8471568" lon="8.6822625"><ele>108.0</ele><time>2026-04-16T13:08:15.107Z</time></trkpt><trkpt lat="44.847212" lon="8.6821493"><ele>108.0</ele><time>2026-04-16T13:08:16.106Z</time></trkpt><trkpt lat="44.8472983" lon="8.6818711"><ele>108.0</ele><time>2026-04-16T13:08:17.999Z</time></trkpt><trkpt lat="44.8473346" lon="8.6817194"><ele>108.0</ele><time>2026-04-16T13:08:18.999Z</time></trkpt><trkpt lat="44.8473711" lon="8.6815657"><ele>108.0</ele><time>2026-04-16T13:08:19.999Z</time></trkpt><trkpt lat="44.8474031" lon="8.6813996"><ele>108.0</ele><time>2026-04-16T13:08:20.999Z</time></trkpt><trkpt lat="44.8474263" lon="8.6812318"><ele>108.0</ele><time>2026-04-16T13:08:21.999Z</time></trkpt><trkpt lat="44.847456" lon="8.6810642"><ele>108.0</ele><time>2026-04-16T13:08:22.999Z</time></trkpt><trkpt lat="44.8474819" lon="8.680889"><ele>108.33333333333334</ele><time>2026-04-16T13:08:24.103Z</time></trkpt><trkpt lat="44.8475429" lon="8.6805456"><ele>108.66666666666667</ele><time>2026-04-16T13:08:25.999Z</time></trkpt><trkpt lat="44.8475696" lon="8.6803665"><ele>109.0</ele><time>2026-04-16T13:08:26.999Z</time></trkpt><trkpt lat="44.8475994" lon="8.680194"><ele>109.0</ele><time>2026-04-16T13:08:27.999Z</time></trkpt><trkpt lat="44.8476258" lon="8.6800158"><ele>109.0</ele><time>2026-04-16T13:08:29.129Z</time></trkpt><trkpt lat="44.8476571" lon="8.6798409"><ele>109.0</ele><time>2026-04-16T13:08:30.119Z</time></trkpt><trkpt lat="44.847715" lon="8.6795016"><ele>109.0</ele><time>2026-04-16T13:08:31.999Z</time></trkpt><trkpt lat="44.8477405" lon="8.6793376"><ele>109.0</ele><time>2026-04-16T13:08:32.999Z</time></trkpt><trkpt lat="44.847768" lon="8.6791748"><ele>109.0</ele><time>2026-04-16T13:08:33.999Z</time></trkpt><trkpt lat="44.8477982" lon="8.6790074"><ele>109.0</ele><time>2026-04-16T13:08:34.999Z</time></trkpt><trkpt lat="44.8478323" lon="8.6788384"><ele>108.66666666666667</ele><time>2026-04-16T13:08:36.105Z</time></trkpt><trkpt lat="44.8478805" lon="8.6785191"><ele>108.33333333333334</ele><time>2026-04-16T13:08:37.999Z</time></trkpt><trkpt lat="44.8479069" lon="8.6783642"><ele>108.0</ele><time>2026-04-16T13:08:39.119Z</time></trkpt><trkpt lat="44.8479335" lon="8.6782167"><ele>108.0</ele><time>2026-04-16T13:08:40.125Z</time></trkpt><trkpt lat="44.8479572" lon="8.6780803"><ele>108.00000000000001</ele><time>2026-04-16T13:08:41.111Z</time></trkpt><trkpt lat="44.8480262" lon="8.6778672"><ele>108.00000000000001</ele><time>2026-04-16T13:08:42.999Z</time></trkpt><trkpt lat="44.8480828" lon="8.6777753"><ele>108.0</ele><time>2026-04-16T13:08:44.123Z</time></trkpt><trkpt lat="44.8481485" lon="8.6776877"><ele>108.0</ele><time>2026-04-16T13:08:45.118Z</time></trkpt><trkpt lat="44.8482181" lon="8.6775967"><ele>108.0</ele><time>2026-04-16T13:08:46.111Z</time></trkpt><trkpt lat="44.8484061" lon="8.677477"><ele>108.0</ele><time>2026-04-16T13:08:47.999Z</time></trkpt><trkpt lat="44.8485257" lon="8.6774325"><ele>108.0</ele><time>2026-04-16T13:08:48.999Z</time></trkpt><trkpt lat="44.848641" lon="8.6773841"><ele>108.0</ele><time>2026-04-16T13:08:49.999Z</time></trkpt><trkpt lat="44.8487632" lon="8.6773368"><ele>108.0</ele><time>2026-04-16T13:08:50.999Z</time></trkpt><trkpt lat="44.8488858" lon="8.6772903"><ele>108.0</ele><time>2026-04-16T13:08:51.999Z</time></trkpt><trkpt lat="44.8490172" lon="8.6772368"><ele>108.0</ele><time>2026-04-16T13:08:52.999Z</time></trkpt><trkpt lat="44.8491436" lon="8.6771891"><ele>108.0</ele><time>2026-04-16T13:08:53.999Z</time></trkpt><trkpt lat="44.8492606" lon="8.677146"><ele>108.0</ele><time>2026-04-16T13:08:54.999Z</time></trkpt><trkpt lat="44.8493829" lon="8.6771005"><ele>108.0</ele><time>2026-04-16T13:08:55.999Z</time></trkpt><trkpt lat="44.8495137" lon="8.6770532"><ele>108.0</ele><time>2026-04-16T13:08:56.999Z</time></trkpt><trkpt lat="44.84964" lon="8.6770054"><ele>108.0</ele><time>2026-04-16T13:08:57.999Z</time></trkpt><trkpt lat="44.849762" lon="8.676961"><ele>108.0</ele><time>2026-04-16T13:08:58.999Z</time></trkpt><trkpt lat="44.8498911" lon="8.6769196"><ele>108.0</ele><time>2026-04-16T13:08:59.998Z</time></trkpt><trkpt lat="44.8500254" lon="8.6768749"><ele>108.0</ele><time>2026-04-16T13:09:00.998Z</time></trkpt><trkpt lat="44.8501645" lon="8.6768437"><ele>107.25</ele><time>2026-04-16T13:09:01.999Z</time></trkpt><trkpt lat="44.8502989" lon="8.6768022"><ele>106.5</ele><time>2026-04-16T13:09:02.998Z</time></trkpt><trkpt lat="44.8504387" lon="8.6767734"><ele>105.75</ele><time>2026-04-16T13:09:03.999Z</time></trkpt><trkpt lat="44.8505874" lon="8.6767537"><ele>105.0</ele><time>2026-04-16T13:09:04.999Z</time></trkpt><trkpt lat="44.8507237" lon="8.6767548"><ele>105.0</ele><time>2026-04-16T13:09:05.999Z</time></trkpt><trkpt lat="44.8508685" lon="8.6767772"><ele>105.0</ele><time>2026-04-16T13:09:06.999Z</time></trkpt><trkpt lat="44.8510113" lon="8.6768104"><ele>105.0</ele><time>2026-04-16T13:09:07.999Z</time></trkpt><trkpt lat="44.8511444" lon="8.6768809"><ele>105.0</ele><time>2026-04-16T13:09:08.999Z</time></trkpt><trkpt lat="44.8512767" lon="8.6769513"><ele>105.0</ele><time>2026-04-16T13:09:09.999Z</time></trkpt><trkpt lat="44.8514105" lon="8.6770219"><ele>105.0</ele><time>2026-04-16T13:09:10.999Z</time></trkpt><trkpt lat="44.8515465" lon="8.6770753"><ele>105.0</ele><time>2026-04-16T13:09:11.999Z</time></trkpt><trkpt lat="44.8516901" lon="8.677129"><ele>105.0</ele><time>2026-04-16T13:09:12.999Z</time></trkpt><trkpt lat="44.8518274" lon="8.6771733"><ele>105.0</ele><time>2026-04-16T13:09:13.999Z</time></trkpt><trkpt lat="44.8519662" lon="8.6771954"><ele>105.0</ele><time>2026-04-16T13:09:14.999Z</time></trkpt><trkpt lat="44.8521022" lon="8.6772106"><ele>105.0</ele><time>2026-04-16T13:09:15.999Z</time></trkpt><trkpt lat="44.8522463" lon="8.6772147"><ele>105.0</ele><time>2026-04-16T13:09:16.999Z</time></trkpt><trkpt lat="44.8523917" lon="8.6772127"><ele>105.0</ele><time>2026-04-16T13:09:17.999Z</time></trkpt><trkpt lat="44.8525288" lon="8.6771945"><ele>105.0</ele><time>2026-04-16T13:09:18.999Z</time></trkpt><trkpt lat="44.8526722" lon="8.6771663"><ele>105.0</ele><time>2026-04-16T13:09:19.999Z</time></trkpt><trkpt lat="44.8528129" lon="8.6771261"><ele>105.0</ele><time>2026-04-16T13:09:20.999Z</time></trkpt><trkpt lat="44.8529459" lon="8.6770954"><ele>105.0</ele><time>2026-04-16T13:09:21.998Z</time></trkpt><trkpt lat="44.853082" lon="8.6770602"><ele>105.0</ele><time>2026-04-16T13:09:22.999Z</time></trkpt><trkpt lat="44.8532192" lon="8.6770188"><ele>105.0</ele><time>2026-04-16T13:09:23.999Z</time></trkpt><trkpt lat="44.8533529" lon="8.6769768"><ele>105.0</ele><time>2026-04-16T13:09:24.999Z</time></trkpt><trkpt lat="44.8534881" lon="8.6769286"><ele>105.5</ele><time>2026-04-16T13:09:25.998Z</time></trkpt><trkpt lat="44.8536224" lon="8.6768768"><ele>106.0</ele><time>2026-04-16T13:09:26.999Z</time></trkpt><trkpt lat="44.853762" lon="8.6768384"><ele>106.5</ele><time>2026-04-16T13:09:27.999Z</time></trkpt><trkpt lat="44.853902" lon="8.6767908"><ele>107.0</ele><time>2026-04-16T13:09:28.999Z</time></trkpt><trkpt lat="44.8540462" lon="8.6767415"><ele>107.0</ele><time>2026-04-16T13:09:29.999Z</time></trkpt><trkpt lat="44.8541884" lon="8.6767042"><ele>107.0</ele><time>2026-04-16T13:09:30.999Z</time></trkpt><trkpt lat="44.8543265" lon="8.6766704"><ele>107.0</ele><time>2026-04-16T13:09:31.999Z</time></trkpt><trkpt lat="44.8544731" lon="8.6766405"><ele>107.0</ele><time>2026-04-16T13:09:32.999Z</time></trkpt><trkpt lat="44.8546095" lon="8.6766072"><ele>106.5</ele><time>2026-04-16T13:09:33.999Z</time></trkpt><trkpt lat="44.8547544" lon="8.6765732"><ele>106.0</ele><time>2026-04-16T13:09:34.999Z</time></trkpt><trkpt lat="44.8548988" lon="8.6765432"><ele>105.5</ele><time>2026-04-16T13:09:35.999Z</time></trkpt><trkpt lat="44.8550373" lon="8.6765114"><ele>105.0</ele><time>2026-04-16T13:09:36.999Z</time></trkpt><trkpt lat="44.8551841" lon="8.676479"><ele>104.75</ele><time>2026-04-16T13:09:37.999Z</time></trkpt><trkpt lat="44.8553197" lon="8.6764502"><ele>104.5</ele><time>2026-04-16T13:09:38.999Z</time></trkpt><trkpt lat="44.8554575" lon="8.6764157"><ele>104.25</ele><time>2026-04-16T13:09:39.999Z</time></trkpt><trkpt lat="44.8555991" lon="8.6763807"><ele>104.0</ele><time>2026-04-16T13:09:40.999Z</time></trkpt><trkpt lat="44.8557419" lon="8.6763501"><ele>104.0</ele><time>2026-04-16T13:09:41.999Z</time></trkpt><trkpt lat="44.8558916" lon="8.6763176"><ele>104.0</ele><time>2026-04-16T13:09:42.999Z</time></trkpt><trkpt lat="44.8560362" lon="8.6762752"><ele>104.0</ele><time>2026-04-16T13:09:43.999Z</time></trkpt><trkpt lat="44.856183" lon="8.6762406"><ele>104.0</ele><time>2026-04-16T13:09:44.999Z</time></trkpt><trkpt lat="44.8563341" lon="8.6762109"><ele>103.66666666666666</ele><time>2026-04-16T13:09:45.999Z</time></trkpt><trkpt lat="44.8564817" lon="8.6761771"><ele>103.33333333333334</ele><time>2026-04-16T13:09:46.999Z</time></trkpt><trkpt lat="44.8566334" lon="8.6761475"><ele>103.0</ele><time>2026-04-16T13:09:47.999Z</time></trkpt><trkpt lat="44.8567861" lon="8.6761161"><ele>102.66666666666667</ele><time>2026-04-16T13:09:48.999Z</time></trkpt><trkpt lat="44.8569401" lon="8.6760843"><ele>102.33333333333334</ele><time>2026-04-16T13:09:49.999Z</time></trkpt><trkpt lat="44.8570932" lon="8.676046"><ele>102.0</ele><time>2026-04-16T13:09:50.999Z</time></trkpt><trkpt lat="44.8572442" lon="8.6760143"><ele>102.0</ele><time>2026-04-16T13:09:51.999Z</time></trkpt><trkpt lat="44.8573955" lon="8.6759698"><ele>102.0</ele><time>2026-04-16T13:09:52.999Z</time></trkpt><trkpt lat="44.8575483" lon="8.6759165"><ele>102.0</ele><time>2026-04-16T13:09:53.999Z</time></trkpt><trkpt lat="44.8576932" lon="8.6758533"><ele>102.0</ele><time>2026-04-16T13:09:54.999Z</time></trkpt><trkpt lat="44.8578352" lon="8.6757845"><ele>102.0</ele><time>2026-04-16T13:09:55.999Z</time></trkpt><trkpt lat="44.8579798" lon="8.6757086"><ele>102.0</ele><time>2026-04-16T13:09:56.999Z</time></trkpt><trkpt lat="44.8581197" lon="8.6756322"><ele>102.0</ele><time>2026-04-16T13:09:57.999Z</time></trkpt><trkpt lat="44.8582607" lon="8.6755583"><ele>102.0</ele><time>2026-04-16T13:09:58.999Z</time></trkpt><trkpt lat="44.8583976" lon="8.6754789"><ele>102.0</ele><time>2026-04-16T13:09:59.999Z</time></trkpt><trkpt lat="44.8585434" lon="8.6754049"><ele>102.0</ele><time>2026-04-16T13:10:00.999Z</time></trkpt><trkpt lat="44.8586829" lon="8.6753268"><ele>102.0</ele><time>2026-04-16T13:10:01.999Z</time></trkpt><trkpt lat="44.8588267" lon="8.6752465"><ele>102.0</ele><time>2026-04-16T13:10:02.999Z</time></trkpt><trkpt lat="44.8589759" lon="8.6751677"><ele>101.66666666666666</ele><time>2026-04-16T13:10:03.999Z</time></trkpt><trkpt lat="44.8591218" lon="8.6750856"><ele>101.33333333333333</ele><time>2026-04-16T13:10:04.999Z</time></trkpt><trkpt lat="44.8592696" lon="8.675"><ele>101.0</ele><time>2026-04-16T13:10:05.999Z</time></trkpt><trkpt lat="44.8594147" lon="8.6749202"><ele>101.0</ele><time>2026-04-16T13:10:06.999Z</time></trkpt><trkpt lat="44.8595626" lon="8.67484"><ele>101.0</ele><time>2026-04-16T13:10:07.999Z</time></trkpt><trkpt lat="44.8597161" lon="8.6747692"><ele>101.0</ele><time>2026-04-16T13:10:08.999Z</time></trkpt><trkpt lat="44.8598617" lon="8.6746944"><ele>101.0</ele><time>2026-04-16T13:10:09.999Z</time></trkpt><trkpt lat="44.8600057" lon="8.6746202"><ele>101.0</ele><time>2026-04-16T13:10:10.999Z</time></trkpt><trkpt lat="44.8601461" lon="8.6745429"><ele>101.0</ele><time>2026-04-16T13:10:11.999Z</time></trkpt><trkpt lat="44.8602852" lon="8.6744691"><ele>101.0</ele><time>2026-04-16T13:10:12.999Z</time></trkpt><trkpt lat="44.8604255" lon="8.6743956"><ele>101.0</ele><time>2026-04-16T13:10:13.999Z</time></trkpt><trkpt lat="44.8605669" lon="8.6743208"><ele>101.0</ele><time>2026-04-16T13:10:14.999Z</time></trkpt><trkpt lat="44.8607011" lon="8.6742479"><ele>101.0</ele><time>2026-04-16T13:10:15.999Z</time></trkpt><trkpt lat="44.8608382" lon="8.674173"><ele>100.75</ele><time>2026-04-16T13:10:16.999Z</time></trkpt><trkpt lat="44.860974" lon="8.6740943"><ele>100.5</ele><time>2026-04-16T13:10:17.999Z</time></trkpt><trkpt lat="44.8611101" lon="8.6740221"><ele>100.25</ele><time>2026-04-16T13:10:18.999Z</time></trkpt><trkpt lat="44.8612484" lon="8.6739498"><ele>100.0</ele><time>2026-04-16T13:10:19.999Z</time></trkpt><trkpt lat="44.8613843" lon="8.673878"><ele>100.0</ele><time>2026-04-16T13:10:20.999Z</time></trkpt><trkpt lat="44.8615258" lon="8.6738025"><ele>100.0</ele><time>2026-04-16T13:10:21.999Z</time></trkpt><trkpt lat="44.8616706" lon="8.6737293"><ele>100.0</ele><time>2026-04-16T13:10:22.999Z</time></trkpt><trkpt lat="44.86181" lon="8.6736516"><ele>99.66666666666667</ele><time>2026-04-16T13:10:23.999Z</time></trkpt><trkpt lat="44.8619536" lon="8.6735803"><ele>99.33333333333334</ele><time>2026-04-16T13:10:24.999Z</time></trkpt><trkpt lat="44.8620937" lon="8.6735045"><ele>99.0</ele><time>2026-04-16T13:10:25.999Z</time></trkpt><trkpt lat="44.8622319" lon="8.673427"><ele>99.0</ele><time>2026-04-16T13:10:26.999Z</time></trkpt><trkpt lat="44.8623712" lon="8.6733472"><ele>99.0</ele><time>2026-04-16T13:10:27.999Z</time></trkpt><trkpt lat="44.8625082" lon="8.6732733"><ele>99.0</ele><time>2026-04-16T13:10:28.999Z</time></trkpt><trkpt lat="44.8626525" lon="8.6731984"><ele>99.25</ele><time>2026-04-16T13:10:29.999Z</time></trkpt><trkpt lat="44.8627947" lon="8.6731267"><ele>99.5</ele><time>2026-04-16T13:10:30.999Z</time></trkpt><trkpt lat="44.8629349" lon="8.6730554"><ele>99.75</ele><time>2026-04-16T13:10:31.999Z</time></trkpt><trkpt lat="44.8630673" lon="8.6729833"><ele>100.0</ele><time>2026-04-16T13:10:32.999Z</time></trkpt><trkpt lat="44.8631947" lon="8.6729084"><ele>100.0</ele><time>2026-04-16T13:10:33.999Z</time></trkpt><trkpt lat="44.8633296" lon="8.6728352"><ele>100.0</ele><time>2026-04-16T13:10:34.999Z</time></trkpt><trkpt lat="44.8634649" lon="8.672768"><ele>100.0</ele><time>2026-04-16T13:10:35.999Z</time></trkpt><trkpt lat="44.8636009" lon="8.6727025"><ele>100.0</ele><time>2026-04-16T13:10:36.999Z</time></trkpt><trkpt lat="44.8637357" lon="8.6726323"><ele>99.75</ele><time>2026-04-16T13:10:37.999Z</time></trkpt><trkpt lat="44.8638739" lon="8.6725591"><ele>99.5</ele><time>2026-04-16T13:10:38.999Z</time></trkpt><trkpt lat="44.8640087" lon="8.6724831"><ele>99.25</ele><time>2026-04-16T13:10:39.999Z</time></trkpt><trkpt lat="44.8641444" lon="8.6724118"><ele>99.0</ele><time>2026-04-16T13:10:40.999Z</time></trkpt><trkpt lat="44.8642859" lon="8.6723427"><ele>99.66666666666666</ele><time>2026-04-16T13:10:41.999Z</time></trkpt><trkpt lat="44.8644291" lon="8.672272"><ele>100.33333333333333</ele><time>2026-04-16T13:10:42.999Z</time></trkpt><trkpt lat="44.8645709" lon="8.6722107"><ele>101.0</ele><time>2026-04-16T13:10:43.999Z</time></trkpt><trkpt lat="44.8647182" lon="8.6721711"><ele>101.0</ele><time>2026-04-16T13:10:44.999Z</time></trkpt><trkpt lat="44.8648621" lon="8.672139"><ele>101.0</ele><time>2026-04-16T13:10:45.999Z</time></trkpt><trkpt lat="44.8650155" lon="8.672102"><ele>101.0</ele><time>2026-04-16T13:10:46.999Z</time></trkpt><trkpt lat="44.8651584" lon="8.6720714"><ele>101.0</ele><time>2026-04-16T13:10:47.999Z</time></trkpt><trkpt lat="44.8653014" lon="8.6720411"><ele>100.75</ele><time>2026-04-16T13:10:48.999Z</time></trkpt><trkpt lat="44.8654473" lon="8.6720171"><ele>100.5</ele><time>2026-04-16T13:10:49.999Z</time></trkpt><trkpt lat="44.8655986" lon="8.6720002"><ele>100.25</ele><time>2026-04-16T13:10:50.999Z</time></trkpt><trkpt lat="44.8657449" lon="8.6719918"><ele>100.0</ele><time>2026-04-16T13:10:51.999Z</time></trkpt><trkpt lat="44.8658925" lon="8.6719967"><ele>99.66666666666667</ele><time>2026-04-16T13:10:52.999Z</time></trkpt><trkpt lat="44.8660431" lon="8.6720196"><ele>99.33333333333334</ele><time>2026-04-16T13:10:53.999Z</time></trkpt><trkpt lat="44.8661907" lon="8.6720517"><ele>99.0</ele><time>2026-04-16T13:10:54.999Z</time></trkpt><trkpt lat="44.8663385" lon="8.672085"><ele>99.0</ele><time>2026-04-16T13:10:55.999Z</time></trkpt><trkpt lat="44.8664856" lon="8.6721197"><ele>99.0</ele><time>2026-04-16T13:10:56.999Z</time></trkpt><trkpt lat="44.8666355" lon="8.672146"><ele>99.0</ele><time>2026-04-16T13:10:57.999Z</time></trkpt><trkpt lat="44.8667843" lon="8.672178"><ele>99.0</ele><time>2026-04-16T13:10:58.999Z</time></trkpt><trkpt lat="44.8669314" lon="8.6722085"><ele>99.0</ele><time>2026-04-16T13:10:59.999Z</time></trkpt><trkpt lat="44.8670795" lon="8.6722369"><ele>99.0</ele><time>2026-04-16T13:11:00.999Z</time></trkpt><trkpt lat="44.8672267" lon="8.6722752"><ele>99.0</ele><time>2026-04-16T13:11:01.999Z</time></trkpt><trkpt lat="44.8673765" lon="8.6723112"><ele>99.0</ele><time>2026-04-16T13:11:02.999Z</time></trkpt><trkpt lat="44.867526" lon="8.6723432"><ele>99.0</ele><time>2026-04-16T13:11:03.999Z</time></trkpt><trkpt lat="44.8676755" lon="8.6723745"><ele>99.0</ele><time>2026-04-16T13:11:04.999Z</time></trkpt><trkpt lat="44.8678248" lon="8.6724078"><ele>99.0</ele><time>2026-04-16T13:11:05.999Z</time></trkpt><trkpt lat="44.8679697" lon="8.6724442"><ele>99.0</ele><time>2026-04-16T13:11:06.999Z</time></trkpt><trkpt lat="44.8681129" lon="8.6724837"><ele>99.0</ele><time>2026-04-16T13:11:07.999Z</time></trkpt><trkpt lat="44.8682533" lon="8.6725292"><ele>99.0</ele><time>2026-04-16T13:11:08.999Z</time></trkpt><trkpt lat="44.8683923" lon="8.6725758"><ele>98.75</ele><time>2026-04-16T13:11:09.999Z</time></trkpt><trkpt lat="44.868531" lon="8.6726131"><ele>98.5</ele><time>2026-04-16T13:11:10.999Z</time></trkpt><trkpt lat="44.8686698" lon="8.6726509"><ele>98.25</ele><time>2026-04-16T13:11:11.999Z</time></trkpt><trkpt lat="44.8688073" lon="8.672686"><ele>98.0</ele><time>2026-04-16T13:11:12.999Z</time></trkpt><trkpt lat="44.8689413" lon="8.6727238"><ele>98.0</ele><time>2026-04-16T13:11:13.999Z</time></trkpt><trkpt lat="44.8690765" lon="8.672764"><ele>98.0</ele><time>2026-04-16T13:11:14.999Z</time></trkpt><trkpt lat="44.8692074" lon="8.6728056"><ele>98.0</ele><time>2026-04-16T13:11:15.999Z</time></trkpt><trkpt lat="44.8693407" lon="8.6728466"><ele>98.0</ele><time>2026-04-16T13:11:16.999Z</time></trkpt><trkpt lat="44.8694745" lon="8.6728891"><ele>98.0</ele><time>2026-04-16T13:11:17.999Z</time></trkpt><trkpt lat="44.8696068" lon="8.6729363"><ele>98.0</ele><time>2026-04-16T13:11:18.999Z</time></trkpt><trkpt lat="44.8697419" lon="8.6729792"><ele>98.0</ele><time>2026-04-16T13:11:19.999Z</time></trkpt><trkpt lat="44.8698768" lon="8.6730238"><ele>98.0</ele><time>2026-04-16T13:11:20.999Z</time></trkpt><trkpt lat="44.8700138" lon="8.6730649"><ele>97.75</ele><time>2026-04-16T13:11:21.999Z</time></trkpt><trkpt lat="44.8701576" lon="8.6731088"><ele>97.5</ele><time>2026-04-16T13:11:22.999Z</time></trkpt><trkpt lat="44.8702991" lon="8.6731559"><ele>97.25</ele><time>2026-04-16T13:11:23.999Z</time></trkpt><trkpt lat="44.8704434" lon="8.6731994"><ele>97.0</ele><time>2026-04-16T13:11:24.999Z</time></trkpt><trkpt lat="44.870587" lon="8.6732438"><ele>97.0</ele><time>2026-04-16T13:11:25.999Z</time></trkpt><trkpt lat="44.8707319" lon="8.673292"><ele>97.0</ele><time>2026-04-16T13:11:26.999Z</time></trkpt><trkpt lat="44.8708749" lon="8.6733336"><ele>97.0</ele><time>2026-04-16T13:11:27.999Z</time></trkpt><trkpt lat="44.8710163" lon="8.6733769"><ele>97.0</ele><time>2026-04-16T13:11:28.999Z</time></trkpt><trkpt lat="44.8711554" lon="8.6734248"><ele>97.66666666666667</ele><time>2026-04-16T13:11:29.999Z</time></trkpt><trkpt lat="44.8712976" lon="8.6734818"><ele>98.33333333333334</ele><time>2026-04-16T13:11:30.999Z</time></trkpt><trkpt lat="44.8714431" lon="8.673541"><ele>99.0</ele><time>2026-04-16T13:11:31.999Z</time></trkpt><trkpt lat="44.8715922" lon="8.673596"><ele>99.0</ele><time>2026-04-16T13:11:32.999Z</time></trkpt><trkpt lat="44.871743" lon="8.673651"><ele>99.0</ele><time>2026-04-16T13:11:33.999Z</time></trkpt><trkpt lat="44.871893" lon="8.6737107"><ele>99.0</ele><time>2026-04-16T13:11:34.999Z</time></trkpt><trkpt lat="44.8720429" lon="8.6737696"><ele>98.66666666666666</ele><time>2026-04-16T13:11:35.999Z</time></trkpt><trkpt lat="44.8721945" lon="8.6738236"><ele>98.33333333333333</ele><time>2026-04-16T13:11:36.999Z</time></trkpt><trkpt lat="44.8723468" lon="8.6738809"><ele>98.0</ele><time>2026-04-16T13:11:37.999Z</time></trkpt><trkpt lat="44.872498" lon="8.6739428"><ele>97.66666666666666</ele><time>2026-04-16T13:11:38.999Z</time></trkpt><trkpt lat="44.8726491" lon="8.673998"><ele>97.33333333333334</ele><time>2026-04-16T13:11:39.999Z</time></trkpt><trkpt lat="44.872793" lon="8.6740571"><ele>97.0</ele><time>2026-04-16T13:11:40.999Z</time></trkpt><trkpt lat="44.8729402" lon="8.6741099"><ele>97.0</ele><time>2026-04-16T13:11:41.999Z</time></trkpt><trkpt lat="44.8730851" lon="8.6741592"><ele>97.0</ele><time>2026-04-16T13:11:42.999Z</time></trkpt><trkpt lat="44.8732282" lon="8.6742125"><ele>97.0</ele><time>2026-04-16T13:11:43.999Z</time></trkpt><trkpt lat="44.8733685" lon="8.6742554"><ele>97.0</ele><time>2026-04-16T13:11:44.999Z</time></trkpt><trkpt lat="44.8735083" lon="8.6743043"><ele>97.25</ele><time>2026-04-16T13:11:45.999Z</time></trkpt><trkpt lat="44.8736461" lon="8.6743576"><ele>97.5</ele><time>2026-04-16T13:11:46.999Z</time></trkpt><trkpt lat="44.873786" lon="8.6744071"><ele>97.75</ele><time>2026-04-16T13:11:47.999Z</time></trkpt><trkpt lat="44.8739264" lon="8.6744521"><ele>98.0</ele><time>2026-04-16T13:11:48.999Z</time></trkpt><trkpt lat="44.8740689" lon="8.6744913"><ele>98.0</ele><time>2026-04-16T13:11:49.999Z</time></trkpt><trkpt lat="44.874211" lon="8.6745313"><ele>98.0</ele><time>2026-04-16T13:11:50.999Z</time></trkpt><trkpt lat="44.8743508" lon="8.6745706"><ele>98.0</ele><time>2026-04-16T13:11:51.999Z</time></trkpt><trkpt lat="44.8744879" lon="8.6746169"><ele>98.0</ele><time>2026-04-16T13:11:52.999Z</time></trkpt><trkpt lat="44.8746291" lon="8.6746486"><ele>98.0</ele><time>2026-04-16T13:11:53.999Z</time></trkpt><trkpt lat="44.8747688" lon="8.6746816"><ele>98.0</ele><time>2026-04-16T13:11:54.999Z</time></trkpt><trkpt lat="44.8749042" lon="8.6747157"><ele>98.0</ele><time>2026-04-16T13:11:55.999Z</time></trkpt><trkpt lat="44.8750433" lon="8.6747487"><ele>98.0</ele><time>2026-04-16T13:11:56.999Z</time></trkpt><trkpt lat="44.8751811" lon="8.674783"><ele>97.75</ele><time>2026-04-16T13:11:57.999Z</time></trkpt><trkpt lat="44.8753166" lon="8.6748157"><ele>97.5</ele><time>2026-04-16T13:11:58.999Z</time></trkpt><trkpt lat="44.8754602" lon="8.674849"><ele>97.25</ele><time>2026-04-16T13:11:59.998Z</time></trkpt><trkpt lat="44.8756022" lon="8.6748841"><ele>97.0</ele><time>2026-04-16T13:12:00.999Z</time></trkpt><trkpt lat="44.8757436" lon="8.6749133"><ele>97.0</ele><time>2026-04-16T13:12:01.999Z</time></trkpt><trkpt lat="44.8758874" lon="8.6749426"><ele>97.0</ele><time>2026-04-16T13:12:02.999Z</time></trkpt><trkpt lat="44.8760284" lon="8.6749684"><ele>97.0</ele><time>2026-04-16T13:12:03.999Z</time></trkpt><trkpt lat="44.8761687" lon="8.6749943"><ele>97.0</ele><time>2026-04-16T13:12:04.999Z</time></trkpt><trkpt lat="44.8763085" lon="8.675024"><ele>96.75</ele><time>2026-04-16T13:12:05.999Z</time></trkpt><trkpt lat="44.8764413" lon="8.6750472"><ele>96.5</ele><time>2026-04-16T13:12:06.999Z</time></trkpt><trkpt lat="44.8765806" lon="8.6750763"><ele>96.25</ele><time>2026-04-16T13:12:07.999Z</time></trkpt><trkpt lat="44.8767206" lon="8.6751079"><ele>96.0</ele><time>2026-04-16T13:12:08.999Z</time></trkpt><trkpt lat="44.8768603" lon="8.6751401"><ele>96.0</ele><time>2026-04-16T13:12:09.999Z</time></trkpt><trkpt lat="44.8769949" lon="8.6751683"><ele>96.0</ele><time>2026-04-16T13:12:10.999Z</time></trkpt><trkpt lat="44.8771295" lon="8.6752053"><ele>96.0</ele><time>2026-04-16T13:12:11.999Z</time></trkpt><trkpt lat="44.8772633" lon="8.6752402"><ele>96.0</ele><time>2026-04-16T13:12:12.999Z</time></trkpt><trkpt lat="44.8773897" lon="8.6752778"><ele>96.25</ele><time>2026-04-16T13:12:13.999Z</time></trkpt><trkpt lat="44.8775171" lon="8.6753146"><ele>96.5</ele><time>2026-04-16T13:12:14.999Z</time></trkpt><trkpt lat="44.8776473" lon="8.6753572"><ele>96.75</ele><time>2026-04-16T13:12:15.999Z</time></trkpt><trkpt lat="44.8777799" lon="8.6753974"><ele>97.0</ele><time>2026-04-16T13:12:16.999Z</time></trkpt><trkpt lat="44.8779084" lon="8.6754359"><ele>97.0</ele><time>2026-04-16T13:12:17.999Z</time></trkpt><trkpt lat="44.8780366" lon="8.6754677"><ele>97.0</ele><time>2026-04-16T13:12:18.999Z</time></trkpt><trkpt lat="44.8781616" lon="8.6755126"><ele>97.0</ele><time>2026-04-16T13:12:19.999Z</time></trkpt><trkpt lat="44.8782918" lon="8.6755594"><ele>97.0</ele><time>2026-04-16T13:12:20.999Z</time></trkpt><trkpt lat="44.8784204" lon="8.6756024"><ele>96.5</ele><time>2026-04-16T13:12:21.999Z</time></trkpt><trkpt lat="44.8785499" lon="8.6756483"><ele>96.0</ele><time>2026-04-16T13:12:22.999Z</time></trkpt><trkpt lat="44.8786825" lon="8.675696"><ele>95.5</ele><time>2026-04-16T13:12:23.999Z</time></trkpt><trkpt lat="44.878813" lon="8.6757406"><ele>95.0</ele><time>2026-04-16T13:12:24.999Z</time></trkpt><trkpt lat="44.878936" lon="8.675778"><ele>95.0</ele><time>2026-04-16T13:12:25.999Z</time></trkpt><trkpt lat="44.8790529" lon="8.6758172"><ele>95.0</ele><time>2026-04-16T13:12:26.999Z</time></trkpt><trkpt lat="44.8791608" lon="8.6758577"><ele>95.0</ele><time>2026-04-16T13:12:27.999Z</time></trkpt><trkpt lat="44.8792683" lon="8.6758951"><ele>95.0</ele><time>2026-04-16T13:12:28.999Z</time></trkpt><trkpt lat="44.8793745" lon="8.6759151"><ele>95.2</ele><time>2026-04-16T13:12:29.999Z</time></trkpt><trkpt lat="44.8794853" lon="8.6759484"><ele>95.4</ele><time>2026-04-16T13:12:30.999Z</time></trkpt><trkpt lat="44.8795982" lon="8.6759822"><ele>95.6</ele><time>2026-04-16T13:12:31.999Z</time></trkpt><trkpt lat="44.8796974" lon="8.6760196"><ele>95.8</ele><time>2026-04-16T13:12:32.999Z</time></trkpt><trkpt lat="44.8797897" lon="8.6760472"><ele>96.0</ele><time>2026-04-16T13:12:33.999Z</time></trkpt><trkpt lat="44.8798811" lon="8.6760735"><ele>96.0</ele><time>2026-04-16T13:12:34.999Z</time></trkpt><trkpt lat="44.8799624" lon="8.6760929"><ele>96.0</ele><time>2026-04-16T13:12:35.999Z</time></trkpt><trkpt lat="44.8800366" lon="8.6761148"><ele>96.0</ele><time>2026-04-16T13:12:36.999Z</time></trkpt><trkpt lat="44.8801076" lon="8.6761409"><ele>96.0</ele><time>2026-04-16T13:12:37.999Z</time></trkpt><trkpt lat="44.8801733" lon="8.6761597"><ele>96.0</ele><time>2026-04-16T13:12:38.999Z</time></trkpt><trkpt lat="44.8802781" lon="8.6761993"><ele>96.0</ele><time>2026-04-16T13:12:40.999Z</time></trkpt><trkpt lat="44.8803467" lon="8.6762177"><ele>96.16666666666667</ele><time>2026-04-16T13:12:42.999Z</time></trkpt><trkpt lat="44.8804242" lon="8.6762311"><ele>96.33333333333334</ele><time>2026-04-16T13:12:45.999Z</time></trkpt><trkpt lat="44.8804894" lon="8.6762483"><ele>96.5</ele><time>2026-04-16T13:12:47.999Z</time></trkpt><trkpt lat="44.8805877" lon="8.6762835"><ele>96.66666666666667</ele><time>2026-04-16T13:12:49.999Z</time></trkpt><trkpt lat="44.8806902" lon="8.6763207"><ele>96.83333333333334</ele><time>2026-04-16T13:12:51.999Z</time></trkpt><trkpt lat="44.8807603" lon="8.6763432"><ele>97.0</ele><time>2026-04-16T13:12:52.999Z</time></trkpt><trkpt lat="44.880838" lon="8.6763629"><ele>97.00000000000001</ele><time>2026-04-16T13:12:53.999Z</time></trkpt><trkpt lat="44.8809178" lon="8.6763801"><ele>97.0</ele><time>2026-04-16T13:12:54.999Z</time></trkpt><trkpt lat="44.8810038" lon="8.676401"><ele>97.0</ele><time>2026-04-16T13:12:55.999Z</time></trkpt><trkpt lat="44.8810834" lon="8.6764157"><ele>97.0</ele><time>2026-04-16T13:12:56.999Z</time></trkpt><trkpt lat="44.8811655" lon="8.676436"><ele>97.00000000000001</ele><time>2026-04-16T13:12:57.999Z</time></trkpt><trkpt lat="44.8812404" lon="8.6764579"><ele>97.0</ele><time>2026-04-16T13:12:58.999Z</time></trkpt><trkpt lat="44.8813075" lon="8.6764684"><ele>97.16666666666667</ele><time>2026-04-16T13:12:59.999Z</time></trkpt><trkpt lat="44.8814153" lon="8.6764955"><ele>97.33333333333334</ele><time>2026-04-16T13:13:01.999Z</time></trkpt><trkpt lat="44.8815082" lon="8.676518"><ele>97.5</ele><time>2026-04-16T13:13:03.999Z</time></trkpt><trkpt lat="44.8815756" lon="8.6765308"><ele>97.66666666666666</ele><time>2026-04-16T13:13:06.999Z</time></trkpt><trkpt lat="44.8816396" lon="8.6765374"><ele>97.83333333333333</ele><time>2026-04-16T13:13:08.999Z</time></trkpt><trkpt lat="44.8817165" lon="8.6765406"><ele>98.0</ele><time>2026-04-16T13:13:10.999Z</time></trkpt><trkpt lat="44.8817888" lon="8.6765541"><ele>98.0</ele><time>2026-04-16T13:13:12.999Z</time></trkpt><trkpt lat="44.8818983" lon="8.6765759"><ele>98.0</ele><time>2026-04-16T13:13:14.999Z</time></trkpt><trkpt lat="44.8820197" lon="8.6766123"><ele>98.0</ele><time>2026-04-16T13:13:16.999Z</time></trkpt><trkpt lat="44.8820914" lon="8.6766336"><ele>98.0</ele><time>2026-04-16T13:13:17.999Z</time></trkpt><trkpt lat="44.8821674" lon="8.6766571"><ele>98.0</ele><time>2026-04-16T13:13:18.999Z</time></trkpt><trkpt lat="44.8822544" lon="8.6766846"><ele>98.0</ele><time>2026-04-16T13:13:19.999Z</time></trkpt><trkpt lat="44.8823376" lon="8.6767179"><ele>98.0</ele><time>2026-04-16T13:13:20.999Z</time></trkpt><trkpt lat="44.8824266" lon="8.6767506"><ele>98.0</ele><time>2026-04-16T13:13:21.999Z</time></trkpt><trkpt lat="44.8825131" lon="8.6767855"><ele>98.0</ele><time>2026-04-16T13:13:22.999Z</time></trkpt><trkpt lat="44.8826038" lon="8.6768206"><ele>98.0</ele><time>2026-04-16T13:13:23.999Z</time></trkpt><trkpt lat="44.8826975" lon="8.6768562"><ele>98.0</ele><time>2026-04-16T13:13:24.999Z</time></trkpt><trkpt lat="44.8827939" lon="8.6768835"><ele>98.0</ele><time>2026-04-16T13:13:25.999Z</time></trkpt><trkpt lat="44.8828873" lon="8.6769128"><ele>98.0</ele><time>2026-04-16T13:13:26.999Z</time></trkpt><trkpt lat="44.882981" lon="8.6769391"><ele>98.0</ele><time>2026-04-16T13:13:27.999Z</time></trkpt><trkpt lat="44.8830842" lon="8.6769696"><ele>98.0</ele><time>2026-04-16T13:13:28.999Z</time></trkpt><trkpt lat="44.8831806" lon="8.6769969"><ele>98.0</ele><time>2026-04-16T13:13:29.999Z</time></trkpt><trkpt lat="44.8832864" lon="8.6770181"><ele>98.0</ele><time>2026-04-16T13:13:30.999Z</time></trkpt><trkpt lat="44.8834026" lon="8.6770398"><ele>98.0</ele><time>2026-04-16T13:13:31.999Z</time></trkpt><trkpt lat="44.8835067" lon="8.677065"><ele>98.0</ele><time>2026-04-16T13:13:32.999Z</time></trkpt><trkpt lat="44.8836098" lon="8.6770916"><ele>98.0</ele><time>2026-04-16T13:13:33.999Z</time></trkpt><trkpt lat="44.8837096" lon="8.6771197"><ele>97.80000000000001</ele><time>2026-04-16T13:13:34.999Z</time></trkpt><trkpt lat="44.8838181" lon="8.6771485"><ele>97.6</ele><time>2026-04-16T13:13:35.999Z</time></trkpt><trkpt lat="44.8839167" lon="8.677179"><ele>97.4</ele><time>2026-04-16T13:13:36.999Z</time></trkpt><trkpt lat="44.8840218" lon="8.6772213"><ele>97.19999999999999</ele><time>2026-04-16T13:13:37.999Z</time></trkpt><trkpt lat="44.8841214" lon="8.6772589"><ele>97.0</ele><time>2026-04-16T13:13:38.999Z</time></trkpt><trkpt lat="44.8842157" lon="8.6772934"><ele>96.8</ele><time>2026-04-16T13:13:39.999Z</time></trkpt><trkpt lat="44.884313" lon="8.6773186"><ele>96.6</ele><time>2026-04-16T13:13:40.999Z</time></trkpt><trkpt lat="44.8843973" lon="8.6773509"><ele>96.39999999999999</ele><time>2026-04-16T13:13:41.999Z</time></trkpt><trkpt lat="44.8844802" lon="8.6773739"><ele>96.19999999999999</ele><time>2026-04-16T13:13:42.999Z</time></trkpt><trkpt lat="44.8845685" lon="8.6773952"><ele>96.0</ele><time>2026-04-16T13:13:43.999Z</time></trkpt><trkpt lat="44.8846581" lon="8.6774241"><ele>96.0</ele><time>2026-04-16T13:13:44.999Z</time></trkpt><trkpt lat="44.8847607" lon="8.6774527"><ele>96.0</ele><time>2026-04-16T13:13:45.999Z</time></trkpt><trkpt lat="44.884863" lon="8.6774941"><ele>96.0</ele><time>2026-04-16T13:13:46.999Z</time></trkpt><trkpt lat="44.884964" lon="8.6775204"><ele>96.0</ele><time>2026-04-16T13:13:47.999Z</time></trkpt><trkpt lat="44.8850651" lon="8.6775549"><ele>96.0</ele><time>2026-04-16T13:13:48.999Z</time></trkpt><trkpt lat="44.885167" lon="8.677585"><ele>96.75</ele><time>2026-04-16T13:13:49.999Z</time></trkpt><trkpt lat="44.8852764" lon="8.677611"><ele>97.5</ele><time>2026-04-16T13:13:50.999Z</time></trkpt><trkpt lat="44.8853863" lon="8.6776366"><ele>98.25</ele><time>2026-04-16T13:13:51.999Z</time></trkpt><trkpt lat="44.8854999" lon="8.6776514"><ele>99.0</ele><time>2026-04-16T13:13:52.999Z</time></trkpt><trkpt lat="44.8856144" lon="8.677665"><ele>99.0</ele><time>2026-04-16T13:13:53.999Z</time></trkpt><trkpt lat="44.8857268" lon="8.6776675"><ele>99.0</ele><time>2026-04-16T13:13:54.999Z</time></trkpt><trkpt lat="44.8858299" lon="8.6776665"><ele>99.0</ele><time>2026-04-16T13:13:55.999Z</time></trkpt><trkpt lat="44.8859387" lon="8.6776611"><ele>99.0</ele><time>2026-04-16T13:13:56.999Z</time></trkpt><trkpt lat="44.8860459" lon="8.6776557"><ele>99.0</ele><time>2026-04-16T13:13:57.999Z</time></trkpt><trkpt lat="44.8861462" lon="8.6776511"><ele>98.80000000000001</ele><time>2026-04-16T13:13:58.999Z</time></trkpt><trkpt lat="44.8862495" lon="8.6776396"><ele>98.60000000000001</ele><time>2026-04-16T13:13:59.999Z</time></trkpt><trkpt lat="44.8863505" lon="8.6776354"><ele>98.4</ele><time>2026-04-16T13:14:00.999Z</time></trkpt><trkpt lat="44.8864483" lon="8.6776308"><ele>98.2</ele><time>2026-04-16T13:14:01.999Z</time></trkpt><trkpt lat="44.8865348" lon="8.6776204"><ele>98.0</ele><time>2026-04-16T13:14:02.999Z</time></trkpt><trkpt lat="44.8866226" lon="8.6776139"><ele>98.0</ele><time>2026-04-16T13:14:03.999Z</time></trkpt><trkpt lat="44.8867181" lon="8.677601"><ele>98.0</ele><time>2026-04-16T13:14:04.999Z</time></trkpt><trkpt lat="44.8868212" lon="8.6775729"><ele>98.0</ele><time>2026-04-16T13:14:05.999Z</time></trkpt><trkpt lat="44.8869351" lon="8.6775458"><ele>98.0</ele><time>2026-04-16T13:14:06.999Z</time></trkpt><trkpt lat="44.8870262" lon="8.6775158"><ele>98.0</ele><time>2026-04-16T13:14:07.999Z</time></trkpt><trkpt lat="44.8871029" lon="8.6774853"><ele>97.85714285714286</ele><time>2026-04-16T13:14:08.999Z</time></trkpt><trkpt lat="44.8871689" lon="8.6774565"><ele>97.71428571428572</ele><time>2026-04-16T13:14:09.999Z</time></trkpt><trkpt lat="44.8872352" lon="8.6774343"><ele>97.57142857142857</ele><time>2026-04-16T13:14:10.999Z</time></trkpt><trkpt lat="44.8873011" lon="8.6774299"><ele>97.42857142857143</ele><time>2026-04-16T13:14:11.998Z</time></trkpt><trkpt lat="44.8873636" lon="8.67747"><ele>97.28571428571429</ele><time>2026-04-16T13:14:12.999Z</time></trkpt><trkpt lat="44.8874483" lon="8.677549"><ele>97.14285714285714</ele><time>2026-04-16T13:14:14.999Z</time></trkpt><trkpt lat="44.8875043" lon="8.6776203"><ele>97.0</ele><time>2026-04-16T13:14:16.999Z</time></trkpt><trkpt lat="44.8875426" lon="8.6777001"><ele>97.0</ele><time>2026-04-16T13:14:19.999Z</time></trkpt><trkpt lat="44.8875942" lon="8.6777594"><ele>97.0</ele><time>2026-04-16T13:14:22.999Z</time></trkpt><trkpt lat="44.8876502" lon="8.6778479"><ele>97.0</ele><time>2026-04-16T13:14:26.999Z</time></trkpt><trkpt lat="44.8877256" lon="8.6779065"><ele>97.0</ele><time>2026-04-16T13:14:31.999Z</time></trkpt><trkpt lat="44.8878035" lon="8.6778407"><ele>97.0</ele><time>2026-04-16T13:14:33.999Z</time></trkpt><trkpt lat="44.8879199" lon="8.677709"><ele>96.8</ele><time>2026-04-16T13:14:35.999Z</time></trkpt><trkpt lat="44.8879774" lon="8.6776448"><ele>96.6</ele><time>2026-04-16T13:14:36.999Z</time></trkpt><trkpt lat="44.8880407" lon="8.6775652"><ele>96.39999999999999</ele><time>2026-04-16T13:14:37.998Z</time></trkpt><trkpt lat="44.8881035" lon="8.6774905"><ele>96.19999999999999</ele><time>2026-04-16T13:14:39.131Z</time></trkpt><trkpt lat="44.8882402" lon="8.6773304"><ele>96.0</ele><time>2026-04-16T13:14:41.118Z</time></trkpt><trkpt lat="44.888373" lon="8.677163"><ele>96.0</ele><time>2026-04-16T13:14:42.999Z</time></trkpt><trkpt lat="44.8884464" lon="8.6770866"><ele>96.0</ele><time>2026-04-16T13:14:44.119Z</time></trkpt><trkpt lat="44.8885975" lon="8.6769165"><ele>96.0</ele><time>2026-04-16T13:14:45.999Z</time></trkpt><trkpt lat="44.8886722" lon="8.6768266"><ele>96.0</ele><time>2026-04-16T13:14:46.999Z</time></trkpt><trkpt lat="44.8887541" lon="8.6767317"><ele>96.0</ele><time>2026-04-16T13:14:47.999Z</time></trkpt><trkpt lat="44.8888337" lon="8.6766353"><ele>96.0</ele><time>2026-04-16T13:14:48.999Z</time></trkpt><trkpt lat="44.8889158" lon="8.6765347"><ele>96.0</ele><time>2026-04-16T13:14:49.999Z</time></trkpt><trkpt lat="44.8890006" lon="8.6764351"><ele>96.0</ele><time>2026-04-16T13:14:50.999Z</time></trkpt><trkpt lat="44.8890835" lon="8.6763326"><ele>96.0</ele><time>2026-04-16T13:14:51.999Z</time></trkpt><trkpt lat="44.8891734" lon="8.676228"><ele>95.75</ele><time>2026-04-16T13:14:52.999Z</time></trkpt><trkpt lat="44.889262" lon="8.6761347"><ele>95.5</ele><time>2026-04-16T13:14:53.999Z</time></trkpt><trkpt lat="44.8893562" lon="8.6760394"><ele>95.25</ele><time>2026-04-16T13:14:54.999Z</time></trkpt><trkpt lat="44.8894516" lon="8.6759403"><ele>95.0</ele><time>2026-04-16T13:14:55.999Z</time></trkpt><trkpt lat="44.8895439" lon="8.6758391"><ele>94.75</ele><time>2026-04-16T13:14:56.999Z</time></trkpt><trkpt lat="44.8896353" lon="8.6757348"><ele>94.5</ele><time>2026-04-16T13:14:57.999Z</time></trkpt><trkpt lat="44.8897193" lon="8.6756251"><ele>94.25</ele><time>2026-04-16T13:14:58.999Z</time></trkpt><trkpt lat="44.8898085" lon="8.6755176"><ele>94.0</ele><time>2026-04-16T13:14:59.999Z</time></trkpt><trkpt lat="44.889903" lon="8.6754125"><ele>93.66666666666666</ele><time>2026-04-16T13:15:01.105Z</time></trkpt><trkpt lat="44.8900954" lon="8.6752114"><ele>93.33333333333333</ele><time>2026-04-16T13:15:02.999Z</time></trkpt><trkpt lat="44.8901944" lon="8.6751074"><ele>93.0</ele><time>2026-04-16T13:15:03.999Z</time></trkpt><trkpt lat="44.8902862" lon="8.6750003"><ele>93.0</ele><time>2026-04-16T13:15:04.999Z</time></trkpt><trkpt lat="44.8903832" lon="8.6748943"><ele>93.0</ele><time>2026-04-16T13:15:05.999Z</time></trkpt><trkpt lat="44.8904741" lon="8.6747879"><ele>93.0</ele><time>2026-04-16T13:15:06.999Z</time></trkpt><trkpt lat="44.890573" lon="8.674678"><ele>93.0</ele><time>2026-04-16T13:15:07.999Z</time></trkpt><trkpt lat="44.8906759" lon="8.6745715"><ele>93.0</ele><time>2026-04-16T13:15:09.11Z</time></trkpt><trkpt lat="44.8908646" lon="8.6743516"><ele>93.0</ele><time>2026-04-16T13:15:10.999Z</time></trkpt><trkpt lat="44.890953" lon="8.6742528"><ele>93.0</ele><time>2026-04-16T13:15:11.999Z</time></trkpt><trkpt lat="44.8910364" lon="8.6741598"><ele>92.66666666666667</ele><time>2026-04-16T13:15:13.112Z</time></trkpt><trkpt lat="44.8911975" lon="8.6740046"><ele>92.33333333333334</ele><time>2026-04-16T13:15:15.112Z</time></trkpt><trkpt lat="44.8913728" lon="8.6739553"><ele>92.0</ele><time>2026-04-16T13:15:16.999Z</time></trkpt><trkpt lat="44.8914513" lon="8.6739428"><ele>92.0</ele><time>2026-04-16T13:15:17.999Z</time></trkpt><trkpt lat="44.8915473" lon="8.6739332"><ele>92.0</ele><time>2026-04-16T13:15:18.999Z</time></trkpt><trkpt lat="44.8918377" lon="8.6739598"><ele>92.0</ele><time>2026-04-16T13:15:21.999Z</time></trkpt><trkpt lat="44.8919287" lon="8.6740106"><ele>92.19999999999999</ele><time>2026-04-16T13:15:22.999Z</time></trkpt><trkpt lat="44.8920123" lon="8.6740743"><ele>92.4</ele><time>2026-04-16T13:15:23.999Z</time></trkpt><trkpt lat="44.8920886" lon="8.6741405"><ele>92.6</ele><time>2026-04-16T13:15:24.999Z</time></trkpt><trkpt lat="44.8921644" lon="8.6742076"><ele>92.80000000000001</ele><time>2026-04-16T13:15:26.108Z</time></trkpt><trkpt lat="44.8922987" lon="8.674319"><ele>93.0</ele><time>2026-04-16T13:15:27.999Z</time></trkpt><trkpt lat="44.8923601" lon="8.6743687"><ele>93.0</ele><time>2026-04-16T13:15:28.999Z</time></trkpt><trkpt lat="44.8924179" lon="8.6744176"><ele>93.0</ele><time>2026-04-16T13:15:30.11Z</time></trkpt><trkpt lat="44.892532" lon="8.6745186"><ele>93.0</ele><time>2026-04-16T13:15:31.999Z</time></trkpt><trkpt lat="44.8925863" lon="8.6745701"><ele>93.0</ele><time>2026-04-16T13:15:32.999Z</time></trkpt><trkpt lat="44.8926431" lon="8.6746119"><ele>93.0</ele><time>2026-04-16T13:15:33.999Z</time></trkpt><trkpt lat="44.8926967" lon="8.6746645"><ele>93.0</ele><time>2026-04-16T13:15:35.118Z</time></trkpt><trkpt lat="44.8928013" lon="8.6747462"><ele>93.0</ele><time>2026-04-16T13:15:36.999Z</time></trkpt><trkpt lat="44.8929033" lon="8.6748295"><ele>93.0</ele><time>2026-04-16T13:15:38.999Z</time></trkpt><trkpt lat="44.8930014" lon="8.6749389"><ele>93.0</ele><time>2026-04-16T13:15:41.999Z</time></trkpt><trkpt lat="44.8930619" lon="8.6750354"><ele>93.0</ele><time>2026-04-16T13:15:45.999Z</time></trkpt><trkpt lat="44.8930887" lon="8.6751175"><ele>93.0</ele><time>2026-04-16T13:15:47.999Z</time></trkpt><trkpt lat="44.8931151" lon="8.6752434"><ele>92.5</ele><time>2026-04-16T13:15:49.999Z</time></trkpt><trkpt lat="44.8931432" lon="8.67541"><ele>92.0</ele><time>2026-04-16T13:15:51.999Z</time></trkpt><trkpt lat="44.8931758" lon="8.6755498"><ele>91.5</ele><time>2026-04-16T13:15:53.999Z</time></trkpt><trkpt lat="44.8932238" lon="8.6757002"><ele>91.0</ele><time>2026-04-16T13:15:56.102Z</time></trkpt><trkpt lat="44.8933053" lon="8.6758083"><ele>90.8</ele><time>2026-04-16T13:15:57.999Z</time></trkpt><trkpt lat="44.8934769" lon="8.6758481"><ele>90.6</ele><time>2026-04-16T13:16:00.999Z</time></trkpt><trkpt lat="44.8935411" lon="8.6758404"><ele>90.4</ele><time>2026-04-16T13:16:01.999Z</time></trkpt><trkpt lat="44.8935984" lon="8.6757782"><ele>90.2</ele><time>2026-04-16T13:16:02.999Z</time></trkpt><trkpt lat="44.8936366" lon="8.6757018"><ele>90.0</ele><time>2026-04-16T13:16:04.116Z</time></trkpt><trkpt lat="44.8936667" lon="8.6756057"><ele>90.0</ele><time>2026-04-16T13:16:05.105Z</time></trkpt><trkpt lat="44.8936819" lon="8.6755033"><ele>90.0</ele><time>2026-04-16T13:16:06.121Z</time></trkpt><trkpt lat="44.8936652" lon="8.6752995"><ele>90.0</ele><time>2026-04-16T13:16:07.999Z</time></trkpt><trkpt lat="44.8936552" lon="8.6751899"><ele>90.0</ele><time>2026-04-16T13:16:09.109Z</time></trkpt><trkpt lat="44.8936435" lon="8.6750629"><ele>90.0</ele><time>2026-04-16T13:16:10.118Z</time></trkpt><trkpt lat="44.8936332" lon="8.6749188"><ele>90.66666666666667</ele><time>2026-04-16T13:16:11.129Z</time></trkpt><trkpt lat="44.8936409" lon="8.6746028"><ele>91.33333333333334</ele><time>2026-04-16T13:16:12.999Z</time></trkpt><trkpt lat="44.8936503" lon="8.6744443"><ele>92.0</ele><time>2026-04-16T13:16:14.124Z</time></trkpt><trkpt lat="44.8936978" lon="8.674095"><ele>92.33333333333334</ele><time>2026-04-16T13:16:16.106Z</time></trkpt><trkpt lat="44.8937554" lon="8.6737537"><ele>92.66666666666667</ele><time>2026-04-16T13:16:17.999Z</time></trkpt><trkpt lat="44.8937805" lon="8.6735822"><ele>93.0</ele><time>2026-04-16T13:16:19.117Z</time></trkpt><trkpt lat="44.8938052" lon="8.6734158"><ele>94.0</ele><time>2026-04-16T13:16:20.108Z</time></trkpt><trkpt lat="44.8938382" lon="8.6732449"><ele>95.0</ele><time>2026-04-16T13:16:21.109Z</time></trkpt><trkpt lat="44.8938928" lon="8.6728979"><ele>96.0</ele><time>2026-04-16T13:16:22.999Z</time></trkpt><trkpt lat="44.8939152" lon="8.6727246"><ele>96.0</ele><time>2026-04-16T13:16:23.999Z</time></trkpt><trkpt lat="44.8939406" lon="8.6725417"><ele>96.0</ele><time>2026-04-16T13:16:25.126Z</time></trkpt><trkpt lat="44.8939949" lon="8.6721806"><ele>96.0</ele><time>2026-04-16T13:16:26.999Z</time></trkpt><trkpt lat="44.8940252" lon="8.6720078"><ele>95.66666666666667</ele><time>2026-04-16T13:16:28.132Z</time></trkpt><trkpt lat="44.8940825" lon="8.6716481"><ele>95.33333333333334</ele><time>2026-04-16T13:16:29.999Z</time></trkpt><trkpt lat="44.8941062" lon="8.6714644"><ele>95.0</ele><time>2026-04-16T13:16:30.999Z</time></trkpt><trkpt lat="44.8941398" lon="8.6712623"><ele>95.0</ele><time>2026-04-16T13:16:31.999Z</time></trkpt><trkpt lat="44.8941655" lon="8.6710839"><ele>95.0</ele><time>2026-04-16T13:16:32.999Z</time></trkpt><trkpt lat="44.8941918" lon="8.670902"><ele>95.0</ele><time>2026-04-16T13:16:33.999Z</time></trkpt><trkpt lat="44.8942184" lon="8.6707109"><ele>95.0</ele><time>2026-04-16T13:16:34.999Z</time></trkpt><trkpt lat="44.8942456" lon="8.6705266"><ele>95.0</ele><time>2026-04-16T13:16:35.999Z</time></trkpt><trkpt lat="44.8942763" lon="8.6703482"><ele>95.0</ele><time>2026-04-16T13:16:36.999Z</time></trkpt><trkpt lat="44.8943072" lon="8.670166"><ele>95.0</ele><time>2026-04-16T13:16:37.999Z</time></trkpt><trkpt lat="44.8943385" lon="8.669988"><ele>95.0</ele><time>2026-04-16T13:16:38.999Z</time></trkpt><trkpt lat="44.894383" lon="8.6698043"><ele>95.0</ele><time>2026-04-16T13:16:39.999Z</time></trkpt><trkpt lat="44.8944248" lon="8.6696182"><ele>95.0</ele><time>2026-04-16T13:16:40.999Z</time></trkpt><trkpt lat="44.8944841" lon="8.669436"><ele>95.0</ele><time>2026-04-16T13:16:41.999Z</time></trkpt><trkpt lat="44.8945522" lon="8.6692787"><ele>95.0</ele><time>2026-04-16T13:16:42.999Z</time></trkpt><trkpt lat="44.8946252" lon="8.6691211"><ele>94.0</ele><time>2026-04-16T13:16:43.999Z</time></trkpt><trkpt lat="44.8947049" lon="8.6689721"><ele>93.0</ele><time>2026-04-16T13:16:44.999Z</time></trkpt><trkpt lat="44.8947864" lon="8.6688308"><ele>92.0</ele><time>2026-04-16T13:16:46.1Z</time></trkpt><trkpt lat="44.8949745" lon="8.6685799"><ele>91.75</ele><time>2026-04-16T13:16:47.999Z</time></trkpt><trkpt lat="44.8950642" lon="8.668446"><ele>91.5</ele><time>2026-04-16T13:16:48.999Z</time></trkpt><trkpt lat="44.895147" lon="8.6683177"><ele>91.25</ele><time>2026-04-16T13:16:49.999Z</time></trkpt><trkpt lat="44.8952317" lon="8.668179"><ele>91.0</ele><time>2026-04-16T13:16:50.999Z</time></trkpt><trkpt lat="44.8953163" lon="8.6680365"><ele>91.0</ele><time>2026-04-16T13:16:51.999Z</time></trkpt><trkpt lat="44.8953897" lon="8.6678937"><ele>91.0</ele><time>2026-04-16T13:16:52.999Z</time></trkpt><trkpt lat="44.8954561" lon="8.6677459"><ele>91.0</ele><time>2026-04-16T13:16:53.999Z</time></trkpt><trkpt lat="44.8955192" lon="8.6675972"><ele>91.0</ele><time>2026-04-16T13:16:55.13Z</time></trkpt><trkpt lat="44.8955755" lon="8.6674516"><ele>91.0</ele><time>2026-04-16T13:16:56.123Z</time></trkpt><trkpt lat="44.8956882" lon="8.6671596"><ele>91.0</ele><time>2026-04-16T13:16:57.999Z</time></trkpt><trkpt lat="44.8957318" lon="8.6670331"><ele>91.0</ele><time>2026-04-16T13:16:58.999Z</time></trkpt><trkpt lat="44.8957703" lon="8.6669199"><ele>91.0</ele><time>2026-04-16T13:16:59.999Z</time></trkpt><trkpt lat="44.8958093" lon="8.6668127"><ele>91.19999999999999</ele><time>2026-04-16T13:17:00.999Z</time></trkpt><trkpt lat="44.8958544" lon="8.6667256"><ele>91.39999999999999</ele><time>2026-04-16T13:17:01.999Z</time></trkpt><trkpt lat="44.895893" lon="8.6666475"><ele>91.6</ele><time>2026-04-16T13:17:02.999Z</time></trkpt><trkpt lat="44.8959749" lon="8.6665312"><ele>91.8</ele><time>2026-04-16T13:17:04.999Z</time></trkpt><trkpt lat="44.8960677" lon="8.6663936"><ele>92.0</ele><time>2026-04-16T13:17:07.999Z</time></trkpt><trkpt lat="44.8961122" lon="8.6662992"><ele>92.42857142857143</ele><time>2026-04-16T13:17:10.999Z</time></trkpt><trkpt lat="44.8961612" lon="8.6662434"><ele>92.85714285714285</ele><time>2026-04-16T13:19:56.999Z</time></trkpt><trkpt lat="44.8961797" lon="8.6661557"><ele>93.28571428571428</ele><time>2026-04-16T13:20:01.999Z</time></trkpt><trkpt lat="44.8962351" lon="8.6660784"><ele>93.71428571428572</ele><time>2026-04-16T13:21:40.999Z</time></trkpt><trkpt lat="44.896202" lon="8.6659814"><ele>94.14285714285714</ele><time>2026-04-16T13:21:50.999Z</time></trkpt><trkpt lat="44.896186" lon="8.6658799"><ele>94.57142857142857</ele><time>2026-04-16T13:22:05.999Z</time></trkpt><trkpt lat="44.8961972" lon="8.6657863"><ele>95.0</ele><time>2026-04-16T13:22:07.999Z</time></trkpt><trkpt lat="44.8962012" lon="8.6656401"><ele>95.0</ele><time>2026-04-16T13:22:08.999Z</time></trkpt><trkpt lat="44.8964746" lon="8.6651242"><ele>95.0</ele><time>2026-04-16T13:22:09.999Z</time></trkpt><trkpt lat="44.8965713" lon="8.6648903"><ele>95.0</ele><time>2026-04-16T13:22:11.111Z</time></trkpt><trkpt lat="44.8966694" lon="8.6646736"><ele>95.0</ele><time>2026-04-16T13:22:11.999Z</time></trkpt><trkpt lat="44.8967664" lon="8.6644527"><ele>93.66666666666667</ele><time>2026-04-16T13:22:12.999Z</time></trkpt><trkpt lat="44.8968783" lon="8.6642237"><ele>92.33333333333333</ele><time>2026-04-16T13:22:13.999Z</time></trkpt><trkpt lat="44.8969746" lon="8.6639931"><ele>91.0</ele><time>2026-04-16T13:22:14.999Z</time></trkpt><trkpt lat="44.8970708" lon="8.6637603"><ele>91.0</ele><time>2026-04-16T13:22:15.999Z</time></trkpt><trkpt lat="44.8971827" lon="8.6635238"><ele>91.0</ele><time>2026-04-16T13:22:16.999Z</time></trkpt><trkpt lat="44.8972833" lon="8.6632945"><ele>91.0</ele><time>2026-04-16T13:22:17.999Z</time></trkpt><trkpt lat="44.8973835" lon="8.6630749"><ele>91.0</ele><time>2026-04-16T13:22:18.999Z</time></trkpt><trkpt lat="44.8974782" lon="8.6628538"><ele>91.0</ele><time>2026-04-16T13:22:19.999Z</time></trkpt><trkpt lat="44.8975793" lon="8.662636"><ele>91.0</ele><time>2026-04-16T13:22:20.999Z</time></trkpt><trkpt lat="44.8976776" lon="8.6624136"><ele>91.0</ele><time>2026-04-16T13:22:21.999Z</time></trkpt><trkpt lat="44.8977751" lon="8.6621983"><ele>91.0</ele><time>2026-04-16T13:22:22.999Z</time></trkpt><trkpt lat="44.8978753" lon="8.6619821"><ele>91.0</ele><time>2026-04-16T13:22:23.999Z</time></trkpt><trkpt lat="44.8979751" lon="8.6617646"><ele>91.0</ele><time>2026-04-16T13:22:24.999Z</time></trkpt><trkpt lat="44.8980753" lon="8.6615499"><ele>91.0</ele><time>2026-04-16T13:22:25.999Z</time></trkpt><trkpt lat="44.8981747" lon="8.6613298"><ele>91.0</ele><time>2026-04-16T13:22:26.999Z</time></trkpt><trkpt lat="44.8982724" lon="8.6611086"><ele>90.33333333333333</ele><time>2026-04-16T13:22:27.999Z</time></trkpt><trkpt lat="44.8983757" lon="8.6608804"><ele>89.66666666666667</ele><time>2026-04-16T13:22:28.999Z</time></trkpt><trkpt lat="44.8984787" lon="8.6606467"><ele>89.0</ele><time>2026-04-16T13:22:29.999Z</time></trkpt><trkpt lat="44.8985874" lon="8.6604072"><ele>89.0</ele><time>2026-04-16T13:22:30.999Z</time></trkpt><trkpt lat="44.8987078" lon="8.6601788"><ele>89.0</ele><time>2026-04-16T13:22:31.999Z</time></trkpt><trkpt lat="44.8988262" lon="8.6599354"><ele>89.0</ele><time>2026-04-16T13:22:32.999Z</time></trkpt><trkpt lat="44.8989503" lon="8.6597078"><ele>89.0</ele><time>2026-04-16T13:22:33.999Z</time></trkpt><trkpt lat="44.8990618" lon="8.6594919"><ele>89.0</ele><time>2026-04-16T13:22:34.999Z</time></trkpt><trkpt lat="44.8991672" lon="8.659277"><ele>89.0</ele><time>2026-04-16T13:22:35.999Z</time></trkpt><trkpt lat="44.8992699" lon="8.6590744"><ele>89.33333333333334</ele><time>2026-04-16T13:22:36.999Z</time></trkpt><trkpt lat="44.8993595" lon="8.6588839"><ele>89.66666666666667</ele><time>2026-04-16T13:22:37.999Z</time></trkpt><trkpt lat="44.8994555" lon="8.6586889"><ele>90.0</ele><time>2026-04-16T13:22:38.999Z</time></trkpt><trkpt lat="44.8995427" lon="8.6584979"><ele>90.0</ele><time>2026-04-16T13:22:39.999Z</time></trkpt><trkpt lat="44.8996258" lon="8.6583086"><ele>90.0</ele><time>2026-04-16T13:22:40.999Z</time></trkpt><trkpt lat="44.8997108" lon="8.6581179"><ele>90.0</ele><time>2026-04-16T13:22:41.999Z</time></trkpt><trkpt lat="44.8997977" lon="8.6579273"><ele>91.5</ele><time>2026-04-16T13:22:42.999Z</time></trkpt><trkpt lat="44.8998842" lon="8.6577351"><ele>93.0</ele><time>2026-04-16T13:22:44.118Z</time></trkpt><trkpt lat="44.9000606" lon="8.6573508"><ele>93.0</ele><time>2026-04-16T13:22:45.999Z</time></trkpt><trkpt lat="44.9001482" lon="8.6571551"><ele>93.0</ele><time>2026-04-16T13:22:46.999Z</time></trkpt><trkpt lat="44.9002408" lon="8.6569535"><ele>93.0</ele><time>2026-04-16T13:22:47.999Z</time></trkpt><trkpt lat="44.9003317" lon="8.656748"><ele>93.0</ele><time>2026-04-16T13:22:48.999Z</time></trkpt><trkpt lat="44.9004182" lon="8.6565475"><ele>93.0</ele><time>2026-04-16T13:22:49.999Z</time></trkpt><trkpt lat="44.9005118" lon="8.6563594"><ele>93.0</ele><time>2026-04-16T13:22:50.999Z</time></trkpt><trkpt lat="44.9005892" lon="8.6561795"><ele>92.66666666666667</ele><time>2026-04-16T13:22:51.999Z</time></trkpt><trkpt lat="44.9006707" lon="8.6560056"><ele>92.33333333333334</ele><time>2026-04-16T13:22:52.999Z</time></trkpt><trkpt lat="44.9007441" lon="8.6558356"><ele>92.0</ele><time>2026-04-16T13:22:54.103Z</time></trkpt><trkpt lat="44.900879" lon="8.6555376"><ele>91.5</ele><time>2026-04-16T13:22:56.101Z</time></trkpt><trkpt lat="44.9010018" lon="8.6552868"><ele>91.0</ele><time>2026-04-16T13:22:57.999Z</time></trkpt><trkpt lat="44.9010578" lon="8.6551716"><ele>90.5</ele><time>2026-04-16T13:22:58.999Z</time></trkpt><trkpt lat="44.9011047" lon="8.6550707"><ele>90.0</ele><time>2026-04-16T13:23:00.138Z</time></trkpt><trkpt lat="44.9011451" lon="8.6549885"><ele>90.0</ele><time>2026-04-16T13:23:01.12Z</time></trkpt><trkpt lat="44.9011946" lon="8.6548851"><ele>90.0</ele><time>2026-04-16T13:23:03.11Z</time></trkpt><trkpt lat="44.9012549" lon="8.6547929"><ele>90.0</ele><time>2026-04-16T13:23:06.999Z</time></trkpt><trkpt lat="44.9012929" lon="8.6547144"><ele>90.0</ele><time>2026-04-16T13:23:08.999Z</time></trkpt><trkpt lat="44.9013756" lon="8.6545553"><ele>90.0</ele><time>2026-04-16T13:23:11.999Z</time></trkpt><trkpt lat="44.9014288" lon="8.6544591"><ele>89.8</ele><time>2026-04-16T13:23:13.999Z</time></trkpt><trkpt lat="44.9014953" lon="8.6543707"><ele>89.6</ele><time>2026-04-16T13:23:15.999Z</time></trkpt><trkpt lat="44.901602" lon="8.6542924"><ele>89.4</ele><time>2026-04-16T13:23:17.999Z</time></trkpt><trkpt lat="44.9016976" lon="8.6541982"><ele>89.2</ele><time>2026-04-16T13:23:19.999Z</time></trkpt><trkpt lat="44.9017494" lon="8.6541166"><ele>89.0</ele><time>2026-04-16T13:23:20.999Z</time></trkpt><trkpt lat="44.9017783" lon="8.6540331"><ele>88.66666666666667</ele><time>2026-04-16T13:23:21.999Z</time></trkpt><trkpt lat="44.9018025" lon="8.6539167"><ele>88.33333333333334</ele><time>2026-04-16T13:23:22.999Z</time></trkpt><trkpt lat="44.9017998" lon="8.6538093"><ele>88.0</ele><time>2026-04-16T13:23:23.999Z</time></trkpt><trkpt lat="44.9017986" lon="8.6536987"><ele>87.66666666666667</ele><time>2026-04-16T13:23:24.999Z</time></trkpt><trkpt lat="44.9017524" lon="8.6536349"><ele>87.33333333333333</ele><time>2026-04-16T13:23:26.102Z</time></trkpt><trkpt lat="44.9016312" lon="8.6535884"><ele>87.0</ele><time>2026-04-16T13:23:27.999Z</time></trkpt><trkpt lat="44.9015676" lon="8.6536125"><ele>87.33333333333333</ele><time>2026-04-16T13:23:28.999Z</time></trkpt><trkpt lat="44.9015131" lon="8.6536696"><ele>87.66666666666667</ele><time>2026-04-16T13:23:29.999Z</time></trkpt><trkpt lat="44.9014715" lon="8.6537569"><ele>88.0</ele><time>2026-04-16T13:23:30.999Z</time></trkpt><trkpt lat="44.9014508" lon="8.6538653"><ele>88.33333333333334</ele><time>2026-04-16T13:23:31.999Z</time></trkpt><trkpt lat="44.9014414" lon="8.6540003"><ele>88.66666666666667</ele><time>2026-04-16T13:23:32.999Z</time></trkpt><trkpt lat="44.9014266" lon="8.6541437"><ele>89.0</ele><time>2026-04-16T13:23:33.999Z</time></trkpt><trkpt lat="44.901395" lon="8.654292"><ele>89.0</ele><time>2026-04-16T13:23:34.999Z</time></trkpt><trkpt lat="44.9013429" lon="8.6544361"><ele>89.0</ele><time>2026-04-16T13:23:35.999Z</time></trkpt><trkpt lat="44.9012804" lon="8.6545716"><ele>89.0</ele><time>2026-04-16T13:23:36.999Z</time></trkpt><trkpt lat="44.9012135" lon="8.6547203"><ele>89.0</ele><time>2026-04-16T13:23:37.999Z</time></trkpt><trkpt lat="44.9011464" lon="8.6548797"><ele>89.33333333333334</ele><time>2026-04-16T13:23:38.999Z</time></trkpt><trkpt lat="44.9010737" lon="8.6550413"><ele>89.66666666666667</ele><time>2026-04-16T13:23:39.999Z</time></trkpt><trkpt lat="44.9009952" lon="8.6552133"><ele>90.0</ele><time>2026-04-16T13:23:41.107Z</time></trkpt><trkpt lat="44.9008315" lon="8.6555905"><ele>90.66666666666667</ele><time>2026-04-16T13:23:42.999Z</time></trkpt><trkpt lat="44.9007439" lon="8.6557799"><ele>91.33333333333334</ele><time>2026-04-16T13:23:43.999Z</time></trkpt><trkpt lat="44.9006553" lon="8.6559727"><ele>92.0</ele><time>2026-04-16T13:23:44.999Z</time></trkpt><trkpt lat="44.9005665" lon="8.6561712"><ele>92.5</ele><time>2026-04-16T13:23:46.116Z</time></trkpt><trkpt lat="44.9003809" lon="8.6565798"><ele>93.0</ele><time>2026-04-16T13:23:47.999Z</time></trkpt><trkpt lat="44.9002854" lon="8.6567839"><ele>93.0</ele><time>2026-04-16T13:23:49.106Z</time></trkpt><trkpt lat="44.9001898" lon="8.6569899"><ele>93.0</ele><time>2026-04-16T13:23:50.109Z</time></trkpt><trkpt lat="44.9000018" lon="8.6573942"><ele>93.0</ele><time>2026-04-16T13:23:51.999Z</time></trkpt><trkpt lat="44.8999085" lon="8.6575885"><ele>93.0</ele><time>2026-04-16T13:23:52.999Z</time></trkpt><trkpt lat="44.8998175" lon="8.6577824"><ele>93.0</ele><time>2026-04-16T13:23:53.999Z</time></trkpt><trkpt lat="44.8997264" lon="8.6579713"><ele>92.0</ele><time>2026-04-16T13:23:54.999Z</time></trkpt><trkpt lat="44.8996377" lon="8.6581641"><ele>91.0</ele><time>2026-04-16T13:23:55.999Z</time></trkpt><trkpt lat="44.8995509" lon="8.6583595"><ele>90.0</ele><time>2026-04-16T13:23:56.999Z</time></trkpt><trkpt lat="44.8994653" lon="8.6585538"><ele>90.0</ele><time>2026-04-16T13:23:57.999Z</time></trkpt><trkpt lat="44.8993788" lon="8.658745"><ele>90.0</ele><time>2026-04-16T13:23:59.112Z</time></trkpt><trkpt lat="44.8992917" lon="8.6589399"><ele>90.0</ele><time>2026-04-16T13:24:00.121Z</time></trkpt><trkpt lat="44.8991982" lon="8.65913"><ele>89.5</ele><time>2026-04-16T13:24:01.119Z</time></trkpt><trkpt lat="44.8990084" lon="8.6595037"><ele>89.0</ele><time>2026-04-16T13:24:02.999Z</time></trkpt><trkpt lat="44.8989142" lon="8.659685"><ele>89.0</ele><time>2026-04-16T13:24:04.113Z</time></trkpt><trkpt lat="44.8987279" lon="8.660054"><ele>89.0</ele><time>2026-04-16T13:24:06.113Z</time></trkpt><trkpt lat="44.8985473" lon="8.6604243"><ele>89.0</ele><time>2026-04-16T13:24:07.999Z</time></trkpt><trkpt lat="44.8984584" lon="8.6606136"><ele>89.0</ele><time>2026-04-16T13:24:08.999Z</time></trkpt><trkpt lat="44.8983724" lon="8.6608046"><ele>89.0</ele><time>2026-04-16T13:24:09.999Z</time></trkpt><trkpt lat="44.8982862" lon="8.6609975"><ele>89.66666666666667</ele><time>2026-04-16T13:24:10.999Z</time></trkpt><trkpt lat="44.8982" lon="8.661187"><ele>90.33333333333333</ele><time>2026-04-16T13:24:11.999Z</time></trkpt><trkpt lat="44.8981122" lon="8.6613776"><ele>91.0</ele><time>2026-04-16T13:24:12.999Z</time></trkpt><trkpt lat="44.8980241" lon="8.6615778"><ele>90.5</ele><time>2026-04-16T13:24:14.116Z</time></trkpt><trkpt lat="44.8978519" lon="8.6619648"><ele>90.0</ele><time>2026-04-16T13:24:15.999Z</time></trkpt><trkpt lat="44.8977641" lon="8.6621522"><ele>90.0</ele><time>2026-04-16T13:24:16.999Z</time></trkpt><trkpt lat="44.8976807" lon="8.6623415"><ele>90.0</ele><time>2026-04-16T13:24:17.999Z</time></trkpt><trkpt lat="44.8975947" lon="8.662533"><ele>90.0</ele><time>2026-04-16T13:24:18.999Z</time></trkpt><trkpt lat="44.897506" lon="8.6627358"><ele>90.33333333333333</ele><time>2026-04-16T13:24:19.999Z</time></trkpt><trkpt lat="44.8974164" lon="8.6629381"><ele>90.66666666666666</ele><time>2026-04-16T13:24:20.999Z</time></trkpt><trkpt lat="44.8973168" lon="8.6631445"><ele>91.0</ele><time>2026-04-16T13:24:21.998Z</time></trkpt><trkpt lat="44.8972163" lon="8.6633611"><ele>91.0</ele><time>2026-04-16T13:24:22.999Z</time></trkpt><trkpt lat="44.8971149" lon="8.6635927"><ele>91.0</ele><time>2026-04-16T13:24:23.999Z</time></trkpt><trkpt lat="44.8970134" lon="8.6638028"><ele>91.0</ele><time>2026-04-16T13:24:24.999Z</time></trkpt><trkpt lat="44.8969141" lon="8.664016"><ele>91.0</ele><time>2026-04-16T13:24:25.999Z</time></trkpt><trkpt lat="44.8968131" lon="8.6642318"><ele>91.0</ele><time>2026-04-16T13:24:26.999Z</time></trkpt><trkpt lat="44.896715" lon="8.6644523"><ele>91.0</ele><time>2026-04-16T13:24:27.999Z</time></trkpt><trkpt lat="44.8966167" lon="8.6646673"><ele>92.33333333333333</ele><time>2026-04-16T13:24:28.999Z</time></trkpt><trkpt lat="44.896522" lon="8.6648834"><ele>93.66666666666667</ele><time>2026-04-16T13:24:29.999Z</time></trkpt><trkpt lat="44.896425" lon="8.665098"><ele>95.0</ele><time>2026-04-16T13:24:30.999Z</time></trkpt><trkpt lat="44.8963298" lon="8.6653061"><ele>95.33333333333334</ele><time>2026-04-16T13:24:31.999Z</time></trkpt><trkpt lat="44.8962336" lon="8.6655195"><ele>95.66666666666667</ele><time>2026-04-16T13:24:32.999Z</time></trkpt><trkpt lat="44.8961424" lon="8.6657232"><ele>96.0</ele><time>2026-04-16T13:24:33.999Z</time></trkpt><trkpt lat="44.8960522" lon="8.665917"><ele>95.5</ele><time>2026-04-16T13:24:34.999Z</time></trkpt><trkpt lat="44.8959622" lon="8.6661156"><ele>95.0</ele><time>2026-04-16T13:24:36.112Z</time></trkpt><trkpt lat="44.8957914" lon="8.6665315"><ele>94.0</ele><time>2026-04-16T13:24:37.999Z</time></trkpt><trkpt lat="44.895715" lon="8.666752"><ele>93.0</ele><time>2026-04-16T13:24:39.109Z</time></trkpt><trkpt lat="44.8956395" lon="8.6669664"><ele>92.0</ele><time>2026-04-16T13:24:40.112Z</time></trkpt><trkpt lat="44.8955667" lon="8.6671867"><ele>91.5</ele><time>2026-04-16T13:24:41.11Z</time></trkpt><trkpt lat="44.8954132" lon="8.6676118"><ele>91.0</ele><time>2026-04-16T13:24:42.999Z</time></trkpt><trkpt lat="44.8953294" lon="8.6678142"><ele>91.0</ele><time>2026-04-16T13:24:44.111Z</time></trkpt><trkpt lat="44.8951274" lon="8.6681978"><ele>91.0</ele><time>2026-04-16T13:24:45.999Z</time></trkpt><trkpt lat="44.8950214" lon="8.6683767"><ele>91.0</ele><time>2026-04-16T13:24:46.999Z</time></trkpt><trkpt lat="44.8949136" lon="8.6685527"><ele>91.0</ele><time>2026-04-16T13:24:47.999Z</time></trkpt><trkpt lat="44.8948096" lon="8.6687365"><ele>91.0</ele><time>2026-04-16T13:24:48.999Z</time></trkpt><trkpt lat="44.8947032" lon="8.6689157"><ele>91.5</ele><time>2026-04-16T13:24:49.999Z</time></trkpt><trkpt lat="44.8945992" lon="8.6690908"><ele>92.0</ele><time>2026-04-16T13:24:51.119Z</time></trkpt><trkpt lat="44.8944197" lon="8.6694853"><ele>92.5</ele><time>2026-04-16T13:24:52.999Z</time></trkpt><trkpt lat="44.8943516" lon="8.669697"><ele>93.0</ele><time>2026-04-16T13:24:54.118Z</time></trkpt><trkpt lat="44.8942478" lon="8.6701383"><ele>94.0</ele><time>2026-04-16T13:24:56.107Z</time></trkpt><trkpt lat="44.8941766" lon="8.6705854"><ele>95.0</ele><time>2026-04-16T13:24:57.999Z</time></trkpt><trkpt lat="44.8941457" lon="8.670807"><ele>95.0</ele><time>2026-04-16T13:24:58.999Z</time></trkpt><trkpt lat="44.8941103" lon="8.6710255"><ele>95.0</ele><time>2026-04-16T13:24:59.999Z</time></trkpt><trkpt lat="44.8940761" lon="8.6712459"><ele>95.0</ele><time>2026-04-16T13:25:00.999Z</time></trkpt><trkpt lat="44.8940418" lon="8.6714629"><ele>95.0</ele><time>2026-04-16T13:25:01.999Z</time></trkpt><trkpt lat="44.8940084" lon="8.6716851"><ele>95.0</ele><time>2026-04-16T13:25:02.999Z</time></trkpt><trkpt lat="44.8939755" lon="8.6719007"><ele>95.0</ele><time>2026-04-16T13:25:04.12Z</time></trkpt><trkpt lat="44.8939445" lon="8.6721137"><ele>95.5</ele><time>2026-04-16T13:25:05.125Z</time></trkpt><trkpt lat="44.8939155" lon="8.6723212"><ele>96.0</ele><time>2026-04-16T13:25:06.111Z</time></trkpt><trkpt lat="44.893851" lon="8.6727427"><ele>96.5</ele><time>2026-04-16T13:25:07.999Z</time></trkpt><trkpt lat="44.893822" lon="8.6729455"><ele>97.0</ele><time>2026-04-16T13:25:08.999Z</time></trkpt><trkpt lat="44.8937999" lon="8.6730788"><ele>97.5</ele><time>2026-04-16T13:25:09.999Z</time></trkpt><trkpt lat="44.8937734" lon="8.6732648"><ele>98.0</ele><time>2026-04-16T13:25:10.999Z</time></trkpt><trkpt lat="44.8937474" lon="8.6734624"><ele>96.75</ele><time>2026-04-16T13:25:11.999Z</time></trkpt><trkpt lat="44.8937148" lon="8.6736592"><ele>95.5</ele><time>2026-04-16T13:25:12.999Z</time></trkpt><trkpt lat="44.8936774" lon="8.6738516"><ele>94.25</ele><time>2026-04-16T13:25:13.999Z</time></trkpt><trkpt lat="44.8936418" lon="8.67405"><ele>93.0</ele><time>2026-04-16T13:25:14.999Z</time></trkpt><trkpt lat="44.8936115" lon="8.6742378"><ele>93.0</ele><time>2026-04-16T13:25:15.999Z</time></trkpt><trkpt lat="44.8935856" lon="8.6744049"><ele>93.0</ele><time>2026-04-16T13:25:16.999Z</time></trkpt><trkpt lat="44.8935695" lon="8.6745398"><ele>93.0</ele><time>2026-04-16T13:25:17.999Z</time></trkpt><trkpt lat="44.8935545" lon="8.6746452"><ele>93.0</ele><time>2026-04-16T13:25:18.999Z</time></trkpt><trkpt lat="44.8935299" lon="8.6747888"><ele>93.0</ele><time>2026-04-16T13:25:20.999Z</time></trkpt><trkpt lat="44.893503" lon="8.674894"><ele>93.0</ele><time>2026-04-16T13:25:22.999Z</time></trkpt><trkpt lat="44.893476" lon="8.6749916"><ele>93.0</ele><time>2026-04-16T13:25:24.999Z</time></trkpt><trkpt lat="44.8934342" lon="8.6750624"><ele>93.0</ele><time>2026-04-16T13:25:26.999Z</time></trkpt><trkpt lat="44.8933743" lon="8.6751538"><ele>93.0</ele><time>2026-04-16T13:25:28.999Z</time></trkpt><trkpt lat="44.8933" lon="8.6752467"><ele>93.0</ele><time>2026-04-16T13:25:30.999Z</time></trkpt><trkpt lat="44.8932302" lon="8.6753182"><ele>93.0</ele><time>2026-04-16T13:25:32.999Z</time></trkpt><trkpt lat="44.8931896" lon="8.6754462"><ele>92.60000000000001</ele><time>2026-04-16T13:25:35.101Z</time></trkpt><trkpt lat="44.8931859" lon="8.6755991"><ele>92.2</ele><time>2026-04-16T13:25:36.999Z</time></trkpt><trkpt lat="44.8932346" lon="8.6757563"><ele>91.8</ele><time>2026-04-16T13:25:38.999Z</time></trkpt><trkpt lat="44.8932875" lon="8.675832"><ele>91.4</ele><time>2026-04-16T13:25:39.999Z</time></trkpt><trkpt lat="44.8933441" lon="8.6758892"><ele>91.0</ele><time>2026-04-16T13:25:41.114Z</time></trkpt><trkpt lat="44.893497" lon="8.6758961"><ele>90.83333333333333</ele><time>2026-04-16T13:25:42.999Z</time></trkpt><trkpt lat="44.8935745" lon="8.6758848"><ele>90.66666666666666</ele><time>2026-04-16T13:25:43.999Z</time></trkpt><trkpt lat="44.8936564" lon="8.6758738"><ele>90.5</ele><time>2026-04-16T13:25:44.999Z</time></trkpt><trkpt lat="44.8937378" lon="8.6758692"><ele>90.33333333333333</ele><time>2026-04-16T13:25:45.999Z</time></trkpt><trkpt lat="44.8938143" lon="8.6758743"><ele>90.16666666666667</ele><time>2026-04-16T13:25:46.999Z</time></trkpt><trkpt lat="44.8938918" lon="8.6759045"><ele>90.0</ele><time>2026-04-16T13:25:47.999Z</time></trkpt><trkpt lat="44.8939725" lon="8.6759421"><ele>90.0</ele><time>2026-04-16T13:25:48.999Z</time></trkpt><trkpt lat="44.8940476" lon="8.6759947"><ele>90.0</ele><time>2026-04-16T13:25:49.999Z</time></trkpt><trkpt lat="44.8941254" lon="8.6760508"><ele>90.0</ele><time>2026-04-16T13:25:50.999Z</time></trkpt><trkpt lat="44.8942042" lon="8.6761097"><ele>90.0</ele><time>2026-04-16T13:25:51.999Z</time></trkpt><trkpt lat="44.8942859" lon="8.6761689"><ele>90.0</ele><time>2026-04-16T13:25:52.999Z</time></trkpt><trkpt lat="44.8943644" lon="8.6762222"><ele>90.0</ele><time>2026-04-16T13:25:53.999Z</time></trkpt><trkpt lat="44.8944478" lon="8.6762816"><ele>90.2</ele><time>2026-04-16T13:25:54.999Z</time></trkpt><trkpt lat="44.8945326" lon="8.6763414"><ele>90.4</ele><time>2026-04-16T13:25:55.999Z</time></trkpt><trkpt lat="44.8946202" lon="8.6764047"><ele>90.6</ele><time>2026-04-16T13:25:56.999Z</time></trkpt><trkpt lat="44.8947095" lon="8.6764653"><ele>90.8</ele><time>2026-04-16T13:25:57.999Z</time></trkpt><trkpt lat="44.8947992" lon="8.6765363"><ele>91.0</ele><time>2026-04-16T13:25:58.999Z</time></trkpt><trkpt lat="44.8948852" lon="8.6765994"><ele>91.0</ele><time>2026-04-16T13:25:59.999Z</time></trkpt><trkpt lat="44.8949636" lon="8.676662"><ele>91.0</ele><time>2026-04-16T13:26:00.999Z</time></trkpt><trkpt lat="44.8950498" lon="8.6767195"><ele>91.0</ele><time>2026-04-16T13:26:01.999Z</time></trkpt><trkpt lat="44.8951329" lon="8.6767818"><ele>91.0</ele><time>2026-04-16T13:26:02.999Z</time></trkpt><trkpt lat="44.8952115" lon="8.6768393"><ele>91.0</ele><time>2026-04-16T13:26:03.999Z</time></trkpt><trkpt lat="44.8952977" lon="8.6768992"><ele>91.19999999999999</ele><time>2026-04-16T13:26:04.999Z</time></trkpt><trkpt lat="44.8953808" lon="8.6769613"><ele>91.39999999999999</ele><time>2026-04-16T13:26:05.999Z</time></trkpt><trkpt lat="44.895468" lon="8.6770293"><ele>91.6</ele><time>2026-04-16T13:26:06.998Z</time></trkpt><trkpt lat="44.8955542" lon="8.6770983"><ele>91.8</ele><time>2026-04-16T13:26:07.999Z</time></trkpt><trkpt lat="44.8956482" lon="8.6771729"><ele>92.0</ele><time>2026-04-16T13:26:08.999Z</time></trkpt><trkpt lat="44.8957436" lon="8.6772517"><ele>92.0</ele><time>2026-04-16T13:26:09.999Z</time></trkpt><trkpt lat="44.8958455" lon="8.677324"><ele>92.0</ele><time>2026-04-16T13:26:10.999Z</time></trkpt><trkpt lat="44.8959482" lon="8.6773961"><ele>92.0</ele><time>2026-04-16T13:26:11.999Z</time></trkpt><trkpt lat="44.896051" lon="8.6774732"><ele>92.0</ele><time>2026-04-16T13:26:12.999Z</time></trkpt><trkpt lat="44.8961569" lon="8.6775485"><ele>92.0</ele><time>2026-04-16T13:26:13.999Z</time></trkpt><trkpt lat="44.8962674" lon="8.6776242"><ele>92.0</ele><time>2026-04-16T13:26:14.999Z</time></trkpt><trkpt lat="44.8963864" lon="8.6776961"><ele>92.0</ele><time>2026-04-16T13:26:15.999Z</time></trkpt><trkpt lat="44.8965033" lon="8.677768"><ele>92.0</ele><time>2026-04-16T13:26:16.999Z</time></trkpt><trkpt lat="44.8966187" lon="8.6778407"><ele>92.0</ele><time>2026-04-16T13:26:17.999Z</time></trkpt><trkpt lat="44.8967376" lon="8.6779149"><ele>92.0</ele><time>2026-04-16T13:26:18.999Z</time></trkpt><trkpt lat="44.8968584" lon="8.677992"><ele>92.0</ele><time>2026-04-16T13:26:19.999Z</time></trkpt><trkpt lat="44.8969811" lon="8.6780672"><ele>92.0</ele><time>2026-04-16T13:26:20.999Z</time></trkpt><trkpt lat="44.8971081" lon="8.6781435"><ele>91.75</ele><time>2026-04-16T13:26:21.999Z</time></trkpt><trkpt lat="44.8972359" lon="8.6782147"><ele>91.5</ele><time>2026-04-16T13:26:22.999Z</time></trkpt><trkpt lat="44.8973552" lon="8.6782851"><ele>91.25</ele><time>2026-04-16T13:26:23.999Z</time></trkpt><trkpt lat="44.8974814" lon="8.6783565"><ele>91.0</ele><time>2026-04-16T13:26:24.999Z</time></trkpt><trkpt lat="44.8976117" lon="8.6784354"><ele>91.0</ele><time>2026-04-16T13:26:25.999Z</time></trkpt><trkpt lat="44.8977424" lon="8.6785128"><ele>91.0</ele><time>2026-04-16T13:26:26.999Z</time></trkpt><trkpt lat="44.897874" lon="8.6785882"><ele>91.0</ele><time>2026-04-16T13:26:27.999Z</time></trkpt><trkpt lat="44.8980133" lon="8.6786699"><ele>91.0</ele><time>2026-04-16T13:26:28.999Z</time></trkpt><trkpt lat="44.8981516" lon="8.6787469"><ele>91.0</ele><time>2026-04-16T13:26:29.999Z</time></trkpt><trkpt lat="44.8982912" lon="8.6788369"><ele>91.0</ele><time>2026-04-16T13:26:30.999Z</time></trkpt><trkpt lat="44.8984314" lon="8.6789225"><ele>91.0</ele><time>2026-04-16T13:26:31.999Z</time></trkpt><trkpt lat="44.8985729" lon="8.679007"><ele>90.66666666666666</ele><time>2026-04-16T13:26:32.999Z</time></trkpt><trkpt lat="44.898716" lon="8.6790927"><ele>90.33333333333333</ele><time>2026-04-16T13:26:33.999Z</time></trkpt><trkpt lat="44.8988584" lon="8.6791825"><ele>90.0</ele><time>2026-04-16T13:26:34.999Z</time></trkpt><trkpt lat="44.8989989" lon="8.6792829"><ele>90.0</ele><time>2026-04-16T13:26:35.999Z</time></trkpt><trkpt lat="44.8991401" lon="8.67939"><ele>90.0</ele><time>2026-04-16T13:26:36.999Z</time></trkpt><trkpt lat="44.8992811" lon="8.6795089"><ele>90.0</ele><time>2026-04-16T13:26:37.999Z</time></trkpt><trkpt lat="44.8994135" lon="8.6796433"><ele>90.33333333333333</ele><time>2026-04-16T13:26:38.999Z</time></trkpt><trkpt lat="44.8995377" lon="8.6797846"><ele>90.66666666666666</ele><time>2026-04-16T13:26:39.999Z</time></trkpt><trkpt lat="44.8996645" lon="8.6799252"><ele>91.0</ele><time>2026-04-16T13:26:41.103Z</time></trkpt><trkpt lat="44.8999052" lon="8.6802182"><ele>91.0</ele><time>2026-04-16T13:26:42.999Z</time></trkpt><trkpt lat="44.900025" lon="8.6803651"><ele>91.0</ele><time>2026-04-16T13:26:43.999Z</time></trkpt><trkpt lat="44.9001426" lon="8.6805168"><ele>91.0</ele><time>2026-04-16T13:26:44.999Z</time></trkpt><trkpt lat="44.900259" lon="8.6806691"><ele>90.66666666666666</ele><time>2026-04-16T13:26:45.999Z</time></trkpt><trkpt lat="44.9003775" lon="8.68083"><ele>90.33333333333333</ele><time>2026-04-16T13:26:46.999Z</time></trkpt><trkpt lat="44.9004925" lon="8.6809793"><ele>90.0</ele><time>2026-04-16T13:26:47.999Z</time></trkpt><trkpt lat="44.9006068" lon="8.6811427"><ele>90.0</ele><time>2026-04-16T13:26:48.999Z</time></trkpt><trkpt lat="44.9007154" lon="8.6813134"><ele>90.0</ele><time>2026-04-16T13:26:49.999Z</time></trkpt><trkpt lat="44.9008256" lon="8.6814792"><ele>90.0</ele><time>2026-04-16T13:26:50.999Z</time></trkpt><trkpt lat="44.9009339" lon="8.6816433"><ele>90.0</ele><time>2026-04-16T13:26:51.999Z</time></trkpt><trkpt lat="44.9010447" lon="8.6818103"><ele>90.0</ele><time>2026-04-16T13:26:52.999Z</time></trkpt><trkpt lat="44.9011565" lon="8.6819809"><ele>90.0</ele><time>2026-04-16T13:26:53.999Z</time></trkpt><trkpt lat="44.9012651" lon="8.6821501"><ele>90.0</ele><time>2026-04-16T13:26:54.999Z</time></trkpt><trkpt lat="44.9013748" lon="8.6823171"><ele>90.0</ele><time>2026-04-16T13:26:55.999Z</time></trkpt><trkpt lat="44.9014865" lon="8.6824894"><ele>90.0</ele><time>2026-04-16T13:26:56.999Z</time></trkpt><trkpt lat="44.9015985" lon="8.6826582"><ele>90.0</ele><time>2026-04-16T13:26:57.999Z</time></trkpt><trkpt lat="44.9017108" lon="8.682819"><ele>90.0</ele><time>2026-04-16T13:26:58.999Z</time></trkpt><trkpt lat="44.9018257" lon="8.6829813"><ele>90.0</ele><time>2026-04-16T13:26:59.999Z</time></trkpt><trkpt lat="44.9019448" lon="8.6831409"><ele>90.0</ele><time>2026-04-16T13:27:00.999Z</time></trkpt><trkpt lat="44.9020664" lon="8.6833024"><ele>90.0</ele><time>2026-04-16T13:27:01.999Z</time></trkpt><trkpt lat="44.9021926" lon="8.6834575"><ele>90.0</ele><time>2026-04-16T13:27:02.999Z</time></trkpt><trkpt lat="44.9023191" lon="8.6836046"><ele>89.66666666666667</ele><time>2026-04-16T13:27:03.999Z</time></trkpt><trkpt lat="44.9024529" lon="8.6837554"><ele>89.33333333333334</ele><time>2026-04-16T13:27:04.999Z</time></trkpt><trkpt lat="44.9025867" lon="8.6839101"><ele>89.0</ele><time>2026-04-16T13:27:05.999Z</time></trkpt><trkpt lat="44.9027133" lon="8.684064"><ele>89.0</ele><time>2026-04-16T13:27:06.999Z</time></trkpt><trkpt lat="44.9028432" lon="8.6842171"><ele>89.0</ele><time>2026-04-16T13:27:07.999Z</time></trkpt><trkpt lat="44.9029689" lon="8.6843745"><ele>89.0</ele><time>2026-04-16T13:27:09Z</time></trkpt><trkpt lat="44.9030971" lon="8.6845277"><ele>89.0</ele><time>2026-04-16T13:27:09.999Z</time></trkpt><trkpt lat="44.903231" lon="8.6846797"><ele>89.0</ele><time>2026-04-16T13:27:10.999Z</time></trkpt><trkpt lat="44.9033596" lon="8.684834"><ele>89.0</ele><time>2026-04-16T13:27:11.999Z</time></trkpt><trkpt lat="44.9034871" lon="8.684985"><ele>89.0</ele><time>2026-04-16T13:27:12.999Z</time></trkpt><trkpt lat="44.9036142" lon="8.6851335"><ele>89.0</ele><time>2026-04-16T13:27:13.999Z</time></trkpt><trkpt lat="44.9037459" lon="8.6852818"><ele>89.0</ele><time>2026-04-16T13:27:14.999Z</time></trkpt><trkpt lat="44.9038778" lon="8.6854285"><ele>88.66666666666667</ele><time>2026-04-16T13:27:15.999Z</time></trkpt><trkpt lat="44.9040095" lon="8.685576"><ele>88.33333333333333</ele><time>2026-04-16T13:27:16.999Z</time></trkpt><trkpt lat="44.9041347" lon="8.6857227"><ele>88.0</ele><time>2026-04-16T13:27:17.999Z</time></trkpt><trkpt lat="44.9042645" lon="8.6858647"><ele>88.0</ele><time>2026-04-16T13:27:18.999Z</time></trkpt><trkpt lat="44.9043879" lon="8.6860184"><ele>88.0</ele><time>2026-04-16T13:27:19.999Z</time></trkpt><trkpt lat="44.9045137" lon="8.6861694"><ele>88.0</ele><time>2026-04-16T13:27:20.999Z</time></trkpt><trkpt lat="44.9046412" lon="8.6863223"><ele>88.0</ele><time>2026-04-16T13:27:21.999Z</time></trkpt><trkpt lat="44.9047663" lon="8.6864738"><ele>88.0</ele><time>2026-04-16T13:27:22.999Z</time></trkpt><trkpt lat="44.9048937" lon="8.6866216"><ele>88.0</ele><time>2026-04-16T13:27:24.102Z</time></trkpt><trkpt lat="44.9051584" lon="8.6869252"><ele>88.5</ele><time>2026-04-16T13:27:26.123Z</time></trkpt><trkpt lat="44.9054312" lon="8.687246"><ele>89.0</ele><time>2026-04-16T13:27:27.999Z</time></trkpt><trkpt lat="44.9055701" lon="8.6874021"><ele>89.0</ele><time>2026-04-16T13:27:28.999Z</time></trkpt><trkpt lat="44.9057065" lon="8.6875464"><ele>89.0</ele><time>2026-04-16T13:27:29.999Z</time></trkpt><trkpt lat="44.9058413" lon="8.6876827"><ele>89.0</ele><time>2026-04-16T13:27:30.999Z</time></trkpt><trkpt lat="44.9059783" lon="8.6878204"><ele>89.0</ele><time>2026-04-16T13:27:31.999Z</time></trkpt><trkpt lat="44.9061145" lon="8.6879549"><ele>89.0</ele><time>2026-04-16T13:27:32.999Z</time></trkpt><trkpt lat="44.9062526" lon="8.6880901"><ele>89.0</ele><time>2026-04-16T13:27:33.999Z</time></trkpt><trkpt lat="44.9063968" lon="8.6882173"><ele>89.0</ele><time>2026-04-16T13:27:34.999Z</time></trkpt><trkpt lat="44.9065384" lon="8.6883434"><ele>89.0</ele><time>2026-04-16T13:27:35.999Z</time></trkpt><trkpt lat="44.9066799" lon="8.6884568"><ele>89.0</ele><time>2026-04-16T13:27:36.999Z</time></trkpt><trkpt lat="44.9068215" lon="8.6885765"><ele>89.0</ele><time>2026-04-16T13:27:37.999Z</time></trkpt><trkpt lat="44.9069796" lon="8.6886881"><ele>89.0</ele><time>2026-04-16T13:27:39.102Z</time></trkpt><trkpt lat="44.9071306" lon="8.6887951"><ele>89.0</ele><time>2026-04-16T13:27:40.11Z</time></trkpt><trkpt lat="44.9072787" lon="8.6889015"><ele>89.0</ele><time>2026-04-16T13:27:41.138Z</time></trkpt><trkpt lat="44.9074262" lon="8.6890051"><ele>89.0</ele><time>2026-04-16T13:27:41.999Z</time></trkpt><trkpt lat="44.9075691" lon="8.6891107"><ele>89.0</ele><time>2026-04-16T13:27:42.999Z</time></trkpt><trkpt lat="44.9077003" lon="8.6892109"><ele>89.33333333333334</ele><time>2026-04-16T13:27:43.999Z</time></trkpt><trkpt lat="44.9078372" lon="8.6893067"><ele>89.66666666666667</ele><time>2026-04-16T13:27:44.999Z</time></trkpt><trkpt lat="44.9079758" lon="8.6894117"><ele>90.0</ele><time>2026-04-16T13:27:45.999Z</time></trkpt><trkpt lat="44.9081126" lon="8.68952"><ele>89.66666666666667</ele><time>2026-04-16T13:27:46.999Z</time></trkpt><trkpt lat="44.9082516" lon="8.6896318"><ele>89.33333333333334</ele><time>2026-04-16T13:27:47.999Z</time></trkpt><trkpt lat="44.9083893" lon="8.6897406"><ele>89.0</ele><time>2026-04-16T13:27:48.999Z</time></trkpt><trkpt lat="44.9085208" lon="8.6898577"><ele>89.0</ele><time>2026-04-16T13:27:50.11Z</time></trkpt><trkpt lat="44.9087763" lon="8.6901061"><ele>89.0</ele><time>2026-04-16T13:27:51.999Z</time></trkpt><trkpt lat="44.9089017" lon="8.6902445"><ele>89.33333333333334</ele><time>2026-04-16T13:27:52.999Z</time></trkpt><trkpt lat="44.9090228" lon="8.6903922"><ele>89.66666666666667</ele><time>2026-04-16T13:27:53.999Z</time></trkpt><trkpt lat="44.9091396" lon="8.6905453"><ele>90.0</ele><time>2026-04-16T13:27:54.999Z</time></trkpt><trkpt lat="44.909254" lon="8.6907018"><ele>90.33333333333333</ele><time>2026-04-16T13:27:55.999Z</time></trkpt><trkpt lat="44.9093715" lon="8.6908599"><ele>90.66666666666666</ele><time>2026-04-16T13:27:56.999Z</time></trkpt><trkpt lat="44.9094873" lon="8.6910118"><ele>91.0</ele><time>2026-04-16T13:27:57.999Z</time></trkpt><trkpt lat="44.9096027" lon="8.6911667"><ele>91.66666666666666</ele><time>2026-04-16T13:27:58.999Z</time></trkpt><trkpt lat="44.9097152" lon="8.6913205"><ele>92.33333333333333</ele><time>2026-04-16T13:27:59.999Z</time></trkpt><trkpt lat="44.9098273" lon="8.6914752"><ele>93.0</ele><time>2026-04-16T13:28:00.999Z</time></trkpt><trkpt lat="44.9099391" lon="8.6916258"><ele>93.0</ele><time>2026-04-16T13:28:01.999Z</time></trkpt><trkpt lat="44.9100541" lon="8.6917753"><ele>93.0</ele><time>2026-04-16T13:28:02.999Z</time></trkpt><trkpt lat="44.9101671" lon="8.6919295"><ele>93.0</ele><time>2026-04-16T13:28:03.999Z</time></trkpt><trkpt lat="44.9102844" lon="8.6920893"><ele>93.33333333333333</ele><time>2026-04-16T13:28:04.999Z</time></trkpt><trkpt lat="44.9104004" lon="8.6922436"><ele>93.66666666666666</ele><time>2026-04-16T13:28:05.999Z</time></trkpt><trkpt lat="44.9105136" lon="8.6924055"><ele>94.0</ele><time>2026-04-16T13:28:06.999Z</time></trkpt><trkpt lat="44.9106325" lon="8.6925669"><ele>94.0</ele><time>2026-04-16T13:28:07.999Z</time></trkpt><trkpt lat="44.9107524" lon="8.6927256"><ele>94.0</ele><time>2026-04-16T13:28:08.999Z</time></trkpt><trkpt lat="44.9108716" lon="8.6928801"><ele>94.0</ele><time>2026-04-16T13:28:09.999Z</time></trkpt><trkpt lat="44.910988" lon="8.6930327"><ele>94.33333333333333</ele><time>2026-04-16T13:28:10.999Z</time></trkpt><trkpt lat="44.9111077" lon="8.6931734"><ele>94.66666666666667</ele><time>2026-04-16T13:28:11.999Z</time></trkpt><trkpt lat="44.9112176" lon="8.6933228"><ele>95.0</ele><time>2026-04-16T13:28:12.999Z</time></trkpt><trkpt lat="44.9113272" lon="8.693476"><ele>95.33333333333334</ele><time>2026-04-16T13:28:13.999Z</time></trkpt><trkpt lat="44.9114403" lon="8.6936176"><ele>95.66666666666667</ele><time>2026-04-16T13:28:14.999Z</time></trkpt><trkpt lat="44.9115546" lon="8.6937682"><ele>96.0</ele><time>2026-04-16T13:28:15.999Z</time></trkpt><trkpt lat="44.9116646" lon="8.6939197"><ele>96.0</ele><time>2026-04-16T13:28:16.999Z</time></trkpt><trkpt lat="44.9117733" lon="8.6940692"><ele>96.0</ele><time>2026-04-16T13:28:17.999Z</time></trkpt><trkpt lat="44.9118831" lon="8.6942197"><ele>96.0</ele><time>2026-04-16T13:28:18.999Z</time></trkpt><trkpt lat="44.9119867" lon="8.6943689"><ele>95.25</ele><time>2026-04-16T13:28:19.999Z</time></trkpt><trkpt lat="44.9120979" lon="8.6945102"><ele>94.5</ele><time>2026-04-16T13:28:20.999Z</time></trkpt><trkpt lat="44.9122071" lon="8.6946543"><ele>93.75</ele><time>2026-04-16T13:28:21.999Z</time></trkpt><trkpt lat="44.9123099" lon="8.694799"><ele>93.0</ele><time>2026-04-16T13:28:22.999Z</time></trkpt><trkpt lat="44.9124181" lon="8.6949409"><ele>93.0</ele><time>2026-04-16T13:28:23.999Z</time></trkpt><trkpt lat="44.9125258" lon="8.6950965"><ele>93.0</ele><time>2026-04-16T13:28:24.999Z</time></trkpt><trkpt lat="44.9126365" lon="8.6952454"><ele>93.0</ele><time>2026-04-16T13:28:25.999Z</time></trkpt><trkpt lat="44.9127411" lon="8.695387"><ele>92.25</ele><time>2026-04-16T13:28:26.999Z</time></trkpt><trkpt lat="44.9128445" lon="8.6955304"><ele>91.5</ele><time>2026-04-16T13:28:27.999Z</time></trkpt><trkpt lat="44.9129455" lon="8.6956663"><ele>90.75</ele><time>2026-04-16T13:28:28.999Z</time></trkpt><trkpt lat="44.9130404" lon="8.6957982"><ele>90.0</ele><time>2026-04-16T13:28:29.999Z</time></trkpt><trkpt lat="44.9131271" lon="8.69592"><ele>90.0</ele><time>2026-04-16T13:28:30.999Z</time></trkpt><trkpt lat="44.9132037" lon="8.6960356"><ele>90.0</ele><time>2026-04-16T13:28:31.999Z</time></trkpt><trkpt lat="44.9132871" lon="8.6961305"><ele>90.0</ele><time>2026-04-16T13:28:32.999Z</time></trkpt><trkpt lat="44.9133504" lon="8.6962179"><ele>90.0</ele><time>2026-04-16T13:28:34.116Z</time></trkpt><trkpt lat="44.9134118" lon="8.696296"><ele>90.0</ele><time>2026-04-16T13:28:35.119Z</time></trkpt><trkpt lat="44.9135194" lon="8.6964381"><ele>90.2</ele><time>2026-04-16T13:28:36.999Z</time></trkpt><trkpt lat="44.9135699" lon="8.6965091"><ele>90.4</ele><time>2026-04-16T13:28:37.999Z</time></trkpt><trkpt lat="44.9136417" lon="8.6966272"><ele>90.6</ele><time>2026-04-16T13:28:39.999Z</time></trkpt><trkpt lat="44.9136745" lon="8.6967477"><ele>90.8</ele><time>2026-04-16T13:28:41.999Z</time></trkpt><trkpt lat="44.9136896" lon="8.6968765"><ele>91.0</ele><time>2026-04-16T13:28:44.122Z</time></trkpt><trkpt lat="44.913656" lon="8.6970146"><ele>91.0</ele><time>2026-04-16T13:28:46.1Z</time></trkpt><trkpt lat="44.9136075" lon="8.6971435"><ele>91.0</ele><time>2026-04-16T13:28:47.999Z</time></trkpt><trkpt lat="44.9136076" lon="8.6973449"><ele>91.0</ele><time>2026-04-16T13:28:50.999Z</time></trkpt><trkpt lat="44.9136709" lon="8.6974392"><ele>91.0</ele><time>2026-04-16T13:28:52.999Z</time></trkpt><trkpt lat="44.9137724" lon="8.6974997"><ele>91.0</ele><time>2026-04-16T13:28:54.999Z</time></trkpt><trkpt lat="44.9138911" lon="8.6974967"><ele>91.0</ele><time>2026-04-16T13:28:56.999Z</time></trkpt><trkpt lat="44.9139692" lon="8.6974907"><ele>91.0</ele><time>2026-04-16T13:28:57.999Z</time></trkpt><trkpt lat="44.9140473" lon="8.697509"><ele>91.0</ele><time>2026-04-16T13:28:58.999Z</time></trkpt><trkpt lat="44.9141205" lon="8.6975463"><ele>91.0</ele><time>2026-04-16T13:28:59.999Z</time></trkpt><trkpt lat="44.9141756" lon="8.6976014"><ele>91.0</ele><time>2026-04-16T13:29:00.999Z</time></trkpt><trkpt lat="44.9142302" lon="8.6976528"><ele>91.0</ele><time>2026-04-16T13:29:03.999Z</time></trkpt><trkpt lat="44.9143297" lon="8.6976921"><ele>91.16666666666666</ele><time>2026-04-16T13:30:21.999Z</time></trkpt><trkpt lat="44.9144368" lon="8.6977444"><ele>91.33333333333333</ele><time>2026-04-16T13:30:23.999Z</time></trkpt><trkpt lat="44.9145258" lon="8.6977883"><ele>91.5</ele><time>2026-04-16T13:30:25.999Z</time></trkpt><trkpt lat="44.9145949" lon="8.6978407"><ele>91.66666666666667</ele><time>2026-04-16T13:30:27.999Z</time></trkpt><trkpt lat="44.9146656" lon="8.6978755"><ele>91.83333333333334</ele><time>2026-04-16T13:30:29.999Z</time></trkpt><trkpt lat="44.9147139" lon="8.697933"><ele>92.0</ele><time>2026-04-16T13:30:54.999Z</time></trkpt><trkpt lat="44.9148085" lon="8.6979926"><ele>92.19999999999999</ele><time>2026-04-16T13:30:56.999Z</time></trkpt><trkpt lat="44.9149102" lon="8.6980507"><ele>92.4</ele><time>2026-04-16T13:30:58.999Z</time></trkpt><trkpt lat="44.9150073" lon="8.6981134"><ele>92.6</ele><time>2026-04-16T13:31:00.999Z</time></trkpt><trkpt lat="44.9150986" lon="8.6981771"><ele>92.80000000000001</ele><time>2026-04-16T13:31:02.999Z</time></trkpt><trkpt lat="44.9151972" lon="8.6982409"><ele>93.0</ele><time>2026-04-16T13:31:04.999Z</time></trkpt><trkpt lat="44.9152997" lon="8.6983043"><ele>93.0</ele><time>2026-04-16T13:31:06.999Z</time></trkpt><trkpt lat="44.9153724" lon="8.6983511"><ele>93.0</ele><time>2026-04-16T13:31:07.999Z</time></trkpt><trkpt lat="44.9154394" lon="8.6983921"><ele>93.0</ele><time>2026-04-16T13:31:08.999Z</time></trkpt><trkpt lat="44.9155143" lon="8.6984378"><ele>93.0</ele><time>2026-04-16T13:31:09.999Z</time></trkpt><trkpt lat="44.9155894" lon="8.6984852"><ele>93.0</ele><time>2026-04-16T13:31:10.999Z</time></trkpt><trkpt lat="44.9156645" lon="8.6985322"><ele>93.0</ele><time>2026-04-16T13:31:11.999Z</time></trkpt><trkpt lat="44.9157506" lon="8.6985896"><ele>93.0</ele><time>2026-04-16T13:31:12.999Z</time></trkpt><trkpt lat="44.9158375" lon="8.6986401"><ele>93.0</ele><time>2026-04-16T13:31:13.999Z</time></trkpt><trkpt lat="44.9159317" lon="8.6986995"><ele>93.0</ele><time>2026-04-16T13:31:15.106Z</time></trkpt><trkpt lat="44.9161309" lon="8.6988252"><ele>93.0</ele><time>2026-04-16T13:31:16.999Z</time></trkpt><trkpt lat="44.9162318" lon="8.6988924"><ele>92.75</ele><time>2026-04-16T13:31:17.999Z</time></trkpt><trkpt lat="44.9163332" lon="8.6989526"><ele>92.5</ele><time>2026-04-16T13:31:18.999Z</time></trkpt><trkpt lat="44.9164378" lon="8.6990217"><ele>92.25</ele><time>2026-04-16T13:31:19.999Z</time></trkpt><trkpt lat="44.9165421" lon="8.6990897"><ele>92.0</ele><time>2026-04-16T13:31:20.999Z</time></trkpt><trkpt lat="44.9166429" lon="8.6991517"><ele>92.0</ele><time>2026-04-16T13:31:21.999Z</time></trkpt><trkpt lat="44.9167423" lon="8.6992146"><ele>92.0</ele><time>2026-04-16T13:31:22.999Z</time></trkpt><trkpt lat="44.9168431" lon="8.6992782"><ele>92.0</ele><time>2026-04-16T13:31:23.999Z</time></trkpt><trkpt lat="44.9169464" lon="8.6993463"><ele>92.0</ele><time>2026-04-16T13:31:24.999Z</time></trkpt><trkpt lat="44.9170525" lon="8.6994183"><ele>92.0</ele><time>2026-04-16T13:31:25.999Z</time></trkpt><trkpt lat="44.9171568" lon="8.699484"><ele>92.0</ele><time>2026-04-16T13:31:26.999Z</time></trkpt><trkpt lat="44.9172527" lon="8.6995479"><ele>92.0</ele><time>2026-04-16T13:31:27.999Z</time></trkpt><trkpt lat="44.917357" lon="8.6996124"><ele>92.0</ele><time>2026-04-16T13:31:28.999Z</time></trkpt><trkpt lat="44.917458" lon="8.6996728"><ele>92.0</ele><time>2026-04-16T13:31:29.999Z</time></trkpt><trkpt lat="44.9175489" lon="8.6997274"><ele>91.75</ele><time>2026-04-16T13:31:31.107Z</time></trkpt><trkpt lat="44.9177318" lon="8.6998434"><ele>91.5</ele><time>2026-04-16T13:31:32.999Z</time></trkpt><trkpt lat="44.9178295" lon="8.6999089"><ele>91.25</ele><time>2026-04-16T13:31:33.999Z</time></trkpt><trkpt lat="44.917934" lon="8.6999796"><ele>91.0</ele><time>2026-04-16T13:31:34.999Z</time></trkpt><trkpt lat="44.9180421" lon="8.7000513"><ele>91.0</ele><time>2026-04-16T13:31:35.999Z</time></trkpt><trkpt lat="44.9181527" lon="8.700124"><ele>91.0</ele><time>2026-04-16T13:31:36.999Z</time></trkpt><trkpt lat="44.9182668" lon="8.7002039"><ele>91.0</ele><time>2026-04-16T13:31:37.999Z</time></trkpt><trkpt lat="44.9183842" lon="8.7002888"><ele>91.0</ele><time>2026-04-16T13:31:38.999Z</time></trkpt><trkpt lat="44.9185014" lon="8.700375"><ele>91.0</ele><time>2026-04-16T13:31:39.999Z</time></trkpt><trkpt lat="44.9186229" lon="8.7004662"><ele>91.0</ele><time>2026-04-16T13:31:40.999Z</time></trkpt><trkpt lat="44.9187401" lon="8.7005647"><ele>91.0</ele><time>2026-04-16T13:31:41.999Z</time></trkpt><trkpt lat="44.9188569" lon="8.7006711"><ele>91.0</ele><time>2026-04-16T13:31:42.999Z</time></trkpt><trkpt lat="44.918977" lon="8.7007913"><ele>91.0</ele><time>2026-04-16T13:31:43.999Z</time></trkpt><trkpt lat="44.9190969" lon="8.7009203"><ele>91.0</ele><time>2026-04-16T13:31:44.999Z</time></trkpt><trkpt lat="44.9192187" lon="8.7010529"><ele>91.0</ele><time>2026-04-16T13:31:45.999Z</time></trkpt><trkpt lat="44.9193438" lon="8.7011929"><ele>91.0</ele><time>2026-04-16T13:31:46.999Z</time></trkpt><trkpt lat="44.919473" lon="8.7013372"><ele>91.0</ele><time>2026-04-16T13:31:47.999Z</time></trkpt><trkpt lat="44.9196011" lon="8.7014812"><ele>91.0</ele><time>2026-04-16T13:31:48.999Z</time></trkpt><trkpt lat="44.9197378" lon="8.7016351"><ele>91.0</ele><time>2026-04-16T13:31:49.999Z</time></trkpt><trkpt lat="44.919878" lon="8.7017905"><ele>91.0</ele><time>2026-04-16T13:31:50.999Z</time></trkpt><trkpt lat="44.9200141" lon="8.7019395"><ele>91.0</ele><time>2026-04-16T13:31:51.999Z</time></trkpt><trkpt lat="44.9201603" lon="8.7021044"><ele>90.66666666666666</ele><time>2026-04-16T13:31:52.999Z</time></trkpt><trkpt lat="44.9203055" lon="8.7022678"><ele>90.33333333333333</ele><time>2026-04-16T13:31:53.999Z</time></trkpt><trkpt lat="44.9204536" lon="8.7024368"><ele>90.0</ele><time>2026-04-16T13:31:54.999Z</time></trkpt><trkpt lat="44.9206013" lon="8.7026029"><ele>89.66666666666667</ele><time>2026-04-16T13:31:55.999Z</time></trkpt><trkpt lat="44.9207529" lon="8.7027686"><ele>89.33333333333334</ele><time>2026-04-16T13:31:56.999Z</time></trkpt><trkpt lat="44.9209058" lon="8.7029333"><ele>89.0</ele><time>2026-04-16T13:31:57.999Z</time></trkpt><trkpt lat="44.9210586" lon="8.7030985"><ele>89.0</ele><time>2026-04-16T13:31:58.999Z</time></trkpt><trkpt lat="44.9212131" lon="8.7032676"><ele>89.0</ele><time>2026-04-16T13:31:59.999Z</time></trkpt><trkpt lat="44.9213643" lon="8.7034428"><ele>89.0</ele><time>2026-04-16T13:32:00.999Z</time></trkpt><trkpt lat="44.9215173" lon="8.7036244"><ele>89.0</ele><time>2026-04-16T13:32:01.999Z</time></trkpt><trkpt lat="44.921671" lon="8.7038128"><ele>89.0</ele><time>2026-04-16T13:32:02.999Z</time></trkpt><trkpt lat="44.9218262" lon="8.704011"><ele>89.0</ele><time>2026-04-16T13:32:03.999Z</time></trkpt><trkpt lat="44.9219801" lon="8.7042146"><ele>89.66666666666667</ele><time>2026-04-16T13:32:04.999Z</time></trkpt><trkpt lat="44.9221337" lon="8.7044331"><ele>90.33333333333333</ele><time>2026-04-16T13:32:05.999Z</time></trkpt><trkpt lat="44.9222874" lon="8.7046572"><ele>91.0</ele><time>2026-04-16T13:32:06.999Z</time></trkpt><trkpt lat="44.9224361" lon="8.7048727"><ele>90.66666666666666</ele><time>2026-04-16T13:32:07.999Z</time></trkpt><trkpt lat="44.9225851" lon="8.7050898"><ele>90.33333333333333</ele><time>2026-04-16T13:32:08.999Z</time></trkpt><trkpt lat="44.9227167" lon="8.7052804"><ele>90.0</ele><time>2026-04-16T13:32:09.999Z</time></trkpt><trkpt lat="44.9228387" lon="8.7054458"><ele>90.66666666666667</ele><time>2026-04-16T13:32:10.999Z</time></trkpt><trkpt lat="44.9229702" lon="8.7055882"><ele>91.33333333333334</ele><time>2026-04-16T13:32:11.999Z</time></trkpt><trkpt lat="44.9231043" lon="8.7056959"><ele>92.0</ele><time>2026-04-16T13:32:12.999Z</time></trkpt><trkpt lat="44.9232526" lon="8.7057915"><ele>91.33333333333334</ele><time>2026-04-16T13:32:13.999Z</time></trkpt><trkpt lat="44.923402" lon="8.7058822"><ele>90.66666666666667</ele><time>2026-04-16T13:32:14.999Z</time></trkpt><trkpt lat="44.9235473" lon="8.7059715"><ele>90.0</ele><time>2026-04-16T13:32:15.999Z</time></trkpt><trkpt lat="44.9236865" lon="8.7060682"><ele>90.0</ele><time>2026-04-16T13:32:16.999Z</time></trkpt><trkpt lat="44.9238199" lon="8.7061863"><ele>90.0</ele><time>2026-04-16T13:32:17.999Z</time></trkpt><trkpt lat="44.923944" lon="8.7063298"><ele>90.0</ele><time>2026-04-16T13:32:18.999Z</time></trkpt><trkpt lat="44.9240574" lon="8.7064974"><ele>90.0</ele><time>2026-04-16T13:32:19.999Z</time></trkpt><trkpt lat="44.9241568" lon="8.7066852"><ele>90.0</ele><time>2026-04-16T13:32:20.999Z</time></trkpt><trkpt lat="44.9242353" lon="8.7068793"><ele>90.0</ele><time>2026-04-16T13:32:21.999Z</time></trkpt><trkpt lat="44.9242998" lon="8.7070932"><ele>89.66666666666667</ele><time>2026-04-16T13:32:22.999Z</time></trkpt><trkpt lat="44.9243513" lon="8.7073257"><ele>89.33333333333334</ele><time>2026-04-16T13:32:23.999Z</time></trkpt><trkpt lat="44.9244011" lon="8.7075681"><ele>89.0</ele><time>2026-04-16T13:32:24.999Z</time></trkpt><trkpt lat="44.9244537" lon="8.7078144"><ele>88.66666666666667</ele><time>2026-04-16T13:32:25.999Z</time></trkpt><trkpt lat="44.9245059" lon="8.7080626"><ele>88.33333333333333</ele><time>2026-04-16T13:32:26.998Z</time></trkpt><trkpt lat="44.9245606" lon="8.708318"><ele>88.0</ele><time>2026-04-16T13:32:27.999Z</time></trkpt><trkpt lat="44.9246126" lon="8.7085611"><ele>88.33333333333333</ele><time>2026-04-16T13:32:28.999Z</time></trkpt><trkpt lat="44.9246672" lon="8.7088127"><ele>88.66666666666667</ele><time>2026-04-16T13:32:29.999Z</time></trkpt><trkpt lat="44.9247183" lon="8.7090646"><ele>89.0</ele><time>2026-04-16T13:32:30.999Z</time></trkpt><trkpt lat="44.9247644" lon="8.7093109"><ele>88.66666666666667</ele><time>2026-04-16T13:32:31.999Z</time></trkpt><trkpt lat="44.9248105" lon="8.7095742"><ele>88.33333333333333</ele><time>2026-04-16T13:32:32.999Z</time></trkpt><trkpt lat="44.9248493" lon="8.7098355"><ele>88.0</ele><time>2026-04-16T13:32:33.999Z</time></trkpt><trkpt lat="44.9248818" lon="8.7100989"><ele>87.66666666666666</ele><time>2026-04-16T13:32:34.999Z</time></trkpt><trkpt lat="44.9249124" lon="8.7103621"><ele>87.33333333333333</ele><time>2026-04-16T13:32:35.999Z</time></trkpt><trkpt lat="44.9249435" lon="8.7106264"><ele>87.0</ele><time>2026-04-16T13:32:36.999Z</time></trkpt><trkpt lat="44.9249731" lon="8.7108914"><ele>87.33333333333333</ele><time>2026-04-16T13:32:37.999Z</time></trkpt><trkpt lat="44.9250024" lon="8.7111528"><ele>87.66666666666666</ele><time>2026-04-16T13:32:38.999Z</time></trkpt><trkpt lat="44.9250319" lon="8.7114139"><ele>88.0</ele><time>2026-04-16T13:32:39.999Z</time></trkpt><trkpt lat="44.925063" lon="8.7116726"><ele>88.0</ele><time>2026-04-16T13:32:40.999Z</time></trkpt><trkpt lat="44.9250943" lon="8.7119277"><ele>88.0</ele><time>2026-04-16T13:32:41.999Z</time></trkpt><trkpt lat="44.9251251" lon="8.7121806"><ele>88.0</ele><time>2026-04-16T13:32:42.999Z</time></trkpt><trkpt lat="44.9251544" lon="8.7124298"><ele>88.0</ele><time>2026-04-16T13:32:43.999Z</time></trkpt><trkpt lat="44.9251844" lon="8.7126732"><ele>88.0</ele><time>2026-04-16T13:32:44.999Z</time></trkpt><trkpt lat="44.9252159" lon="8.7129222"><ele>88.0</ele><time>2026-04-16T13:32:45.999Z</time></trkpt><trkpt lat="44.9252473" lon="8.7131713"><ele>88.33333333333333</ele><time>2026-04-16T13:32:46.999Z</time></trkpt><trkpt lat="44.9252772" lon="8.7134101"><ele>88.66666666666667</ele><time>2026-04-16T13:32:47.999Z</time></trkpt><trkpt lat="44.9253084" lon="8.7136659"><ele>89.0</ele><time>2026-04-16T13:32:48.999Z</time></trkpt><trkpt lat="44.9253388" lon="8.7139127"><ele>89.33333333333334</ele><time>2026-04-16T13:32:49.999Z</time></trkpt><trkpt lat="44.9253695" lon="8.7141555"><ele>89.66666666666667</ele><time>2026-04-16T13:32:50.999Z</time></trkpt><trkpt lat="44.9254018" lon="8.7144063"><ele>90.0</ele><time>2026-04-16T13:32:51.999Z</time></trkpt><trkpt lat="44.9254406" lon="8.7146333"><ele>90.0</ele><time>2026-04-16T13:32:52.999Z</time></trkpt><trkpt lat="44.9254977" lon="8.7148564"><ele>90.0</ele><time>2026-04-16T13:32:53.999Z</time></trkpt><trkpt lat="44.9255732" lon="8.7150672"><ele>90.0</ele><time>2026-04-16T13:32:54.999Z</time></trkpt><trkpt lat="44.9256581" lon="8.7152602"><ele>90.0</ele><time>2026-04-16T13:32:55.999Z</time></trkpt><trkpt lat="44.925751" lon="8.7154541"><ele>90.0</ele><time>2026-04-16T13:32:56.999Z</time></trkpt><trkpt lat="44.9258397" lon="8.7156317"><ele>90.0</ele><time>2026-04-16T13:32:57.999Z</time></trkpt><trkpt lat="44.9259256" lon="8.7158015"><ele>90.0</ele><time>2026-04-16T13:32:58.999Z</time></trkpt><trkpt lat="44.9260079" lon="8.715963"><ele>90.0</ele><time>2026-04-16T13:32:59.999Z</time></trkpt><trkpt lat="44.9260874" lon="8.7161231"><ele>90.0</ele><time>2026-04-16T13:33:00.999Z</time></trkpt><trkpt lat="44.9261649" lon="8.7162767"><ele>90.0</ele><time>2026-04-16T13:33:01.999Z</time></trkpt><trkpt lat="44.9262398" lon="8.7164245"><ele>90.25</ele><time>2026-04-16T13:33:02.999Z</time></trkpt><trkpt lat="44.9263123" lon="8.7165676"><ele>90.5</ele><time>2026-04-16T13:33:03.999Z</time></trkpt><trkpt lat="44.9263817" lon="8.7167031"><ele>90.75</ele><time>2026-04-16T13:33:04.999Z</time></trkpt><trkpt lat="44.9264493" lon="8.716835"><ele>91.0</ele><time>2026-04-16T13:33:05.999Z</time></trkpt><trkpt lat="44.9265127" lon="8.7169644"><ele>91.0</ele><time>2026-04-16T13:33:06.999Z</time></trkpt><trkpt lat="44.9265953" lon="8.7171407"><ele>91.0</ele><time>2026-04-16T13:33:08.999Z</time></trkpt><trkpt lat="44.9267003" lon="8.717342"><ele>91.0</ele><time>2026-04-16T13:33:09.999Z</time></trkpt><trkpt lat="44.9267499" lon="8.7174421"><ele>91.0</ele><time>2026-04-16T13:33:10.999Z</time></trkpt><trkpt lat="44.9268165" lon="8.7175509"><ele>91.0</ele><time>2026-04-16T13:33:13.999Z</time></trkpt><trkpt lat="44.9268925" lon="8.7176852"><ele>91.0</ele><time>2026-04-16T13:33:14.999Z</time></trkpt><trkpt lat="44.9269273" lon="8.7177596"><ele>91.0</ele><time>2026-04-16T13:33:17.999Z</time></trkpt><trkpt lat="44.9269668" lon="8.717844"><ele>91.0</ele><time>2026-04-16T13:33:21.999Z</time></trkpt><trkpt lat="44.9270079" lon="8.7179312"><ele>91.0</ele><time>2026-04-16T13:33:23.999Z</time></trkpt><trkpt lat="44.9270533" lon="8.7180481"><ele>91.0</ele><time>2026-04-16T13:33:25.999Z</time></trkpt><trkpt lat="44.9271299" lon="8.7181752"><ele>91.0</ele><time>2026-04-16T13:33:27.999Z</time></trkpt><trkpt lat="44.92718" lon="8.7182755"><ele>91.0</ele><time>2026-04-16T13:33:28.999Z</time></trkpt><trkpt lat="44.927226" lon="8.7183739"><ele>91.0</ele><time>2026-04-16T13:33:29.999Z</time></trkpt><trkpt lat="44.92727" lon="8.7184795"><ele>91.0</ele><time>2026-04-16T13:33:30.999Z</time></trkpt><trkpt lat="44.9273236" lon="8.7185985"><ele>91.0</ele><time>2026-04-16T13:33:31.999Z</time></trkpt><trkpt lat="44.9273807" lon="8.7187181"><ele>90.75</ele><time>2026-04-16T13:33:32.999Z</time></trkpt><trkpt lat="44.9274456" lon="8.7188466"><ele>90.5</ele><time>2026-04-16T13:33:33.999Z</time></trkpt><trkpt lat="44.9275132" lon="8.7189769"><ele>90.25</ele><time>2026-04-16T13:33:34.999Z</time></trkpt><trkpt lat="44.9275794" lon="8.7191046"><ele>90.0</ele><time>2026-04-16T13:33:35.999Z</time></trkpt><trkpt lat="44.9276536" lon="8.7192472"><ele>90.33333333333333</ele><time>2026-04-16T13:33:36.999Z</time></trkpt><trkpt lat="44.9277277" lon="8.7193948"><ele>90.66666666666666</ele><time>2026-04-16T13:33:37.999Z</time></trkpt><trkpt lat="44.9278392" lon="8.7196156"><ele>91.0</ele><time>2026-04-16T13:33:39.999Z</time></trkpt><trkpt lat="44.9279416" lon="8.7198317"><ele>91.0</ele><time>2026-04-16T13:33:40.999Z</time></trkpt><trkpt lat="44.9280058" lon="8.7199756"><ele>91.0</ele><time>2026-04-16T13:33:41.999Z</time></trkpt><trkpt lat="44.9280413" lon="8.7200847"><ele>91.0</ele><time>2026-04-16T13:33:42.999Z</time></trkpt><trkpt lat="44.9280749" lon="8.7202261"><ele>91.0</ele><time>2026-04-16T13:33:43.999Z</time></trkpt><trkpt lat="44.9281733" lon="8.720546"><ele>90.75</ele><time>2026-04-16T13:33:44.999Z</time></trkpt><trkpt lat="44.9282097" lon="8.7207321"><ele>90.5</ele><time>2026-04-16T13:33:45.999Z</time></trkpt><trkpt lat="44.9282441" lon="8.7209261"><ele>90.25</ele><time>2026-04-16T13:33:46.999Z</time></trkpt><trkpt lat="44.9282784" lon="8.7211253"><ele>90.0</ele><time>2026-04-16T13:33:47.999Z</time></trkpt><trkpt lat="44.928309" lon="8.7213108"><ele>90.0</ele><time>2026-04-16T13:33:48.999Z</time></trkpt><trkpt lat="44.9283423" lon="8.7214999"><ele>90.0</ele><time>2026-04-16T13:33:49.999Z</time></trkpt><trkpt lat="44.9283755" lon="8.7216915"><ele>90.0</ele><time>2026-04-16T13:33:51.107Z</time></trkpt><trkpt lat="44.9284468" lon="8.7220828"><ele>90.33333333333333</ele><time>2026-04-16T13:33:52.999Z</time></trkpt><trkpt lat="44.9284827" lon="8.7222862"><ele>90.66666666666666</ele><time>2026-04-16T13:33:54.104Z</time></trkpt><trkpt lat="44.9285423" lon="8.7226169"><ele>91.0</ele><time>2026-04-16T13:33:56.127Z</time></trkpt><trkpt lat="44.9286371" lon="8.7230684"><ele>91.0</ele><time>2026-04-16T13:33:57.999Z</time></trkpt><trkpt lat="44.9286769" lon="8.7231749"><ele>91.0</ele><time>2026-04-16T13:33:58.999Z</time></trkpt><trkpt lat="44.9287337" lon="8.7233023"><ele>91.0</ele><time>2026-04-16T13:34:00.105Z</time></trkpt><trkpt lat="44.9288567" lon="8.7236448"><ele>90.5</ele><time>2026-04-16T13:34:01.115Z</time></trkpt><trkpt lat="44.9290492" lon="8.7239809"><ele>90.0</ele><time>2026-04-16T13:34:02.999Z</time></trkpt><trkpt lat="44.9291476" lon="8.7241481"><ele>90.0</ele><time>2026-04-16T13:34:03.999Z</time></trkpt><trkpt lat="44.9292448" lon="8.724317"><ele>90.0</ele><time>2026-04-16T13:34:05.122Z</time></trkpt><trkpt lat="44.9293395" lon="8.7244838"><ele>90.0</ele><time>2026-04-16T13:34:06.118Z</time></trkpt><trkpt lat="44.9295302" lon="8.7248153"><ele>90.0</ele><time>2026-04-16T13:34:07.999Z</time></trkpt><trkpt lat="44.9296272" lon="8.7249782"><ele>90.0</ele><time>2026-04-16T13:34:08.999Z</time></trkpt><trkpt lat="44.9297228" lon="8.7251525"><ele>90.0</ele><time>2026-04-16T13:34:09.999Z</time></trkpt><trkpt lat="44.9298128" lon="8.7253286"><ele>90.0</ele><time>2026-04-16T13:34:10.999Z</time></trkpt><trkpt lat="44.9298917" lon="8.7255148"><ele>90.0</ele><time>2026-04-16T13:34:11.999Z</time></trkpt><trkpt lat="44.9299607" lon="8.7257089"><ele>90.0</ele><time>2026-04-16T13:34:12.999Z</time></trkpt><trkpt lat="44.9300212" lon="8.7259167"><ele>89.66666666666667</ele><time>2026-04-16T13:34:13.999Z</time></trkpt><trkpt lat="44.9300706" lon="8.7261209"><ele>89.33333333333334</ele><time>2026-04-16T13:34:14.999Z</time></trkpt><trkpt lat="44.9301157" lon="8.7263271"><ele>89.0</ele><time>2026-04-16T13:34:15.999Z</time></trkpt><trkpt lat="44.9301546" lon="8.7265294"><ele>89.0</ele><time>2026-04-16T13:34:16.999Z</time></trkpt><trkpt lat="44.930193" lon="8.7267316"><ele>89.0</ele><time>2026-04-16T13:34:17.999Z</time></trkpt><trkpt lat="44.9302694" lon="8.7270604"><ele>89.0</ele><time>2026-04-16T13:34:19.999Z</time></trkpt><trkpt lat="44.9303357" lon="8.7273223"><ele>89.0</ele><time>2026-04-16T13:34:20.999Z</time></trkpt><trkpt lat="44.9303984" lon="8.7275131"><ele>89.0</ele><time>2026-04-16T13:34:21.999Z</time></trkpt><trkpt lat="44.9305032" lon="8.7277338"><ele>89.0</ele><time>2026-04-16T13:34:23.999Z</time></trkpt><trkpt lat="44.9306357" lon="8.7280578"><ele>88.66666666666667</ele><time>2026-04-16T13:34:24.999Z</time></trkpt><trkpt lat="44.9307309" lon="8.7282229"><ele>88.33333333333333</ele><time>2026-04-16T13:34:25.999Z</time></trkpt><trkpt lat="44.9308365" lon="8.7283803"><ele>88.0</ele><time>2026-04-16T13:34:26.999Z</time></trkpt><trkpt lat="44.9309538" lon="8.7285298"><ele>88.0</ele><time>2026-04-16T13:34:27.999Z</time></trkpt><trkpt lat="44.9310765" lon="8.7286747"><ele>88.0</ele><time>2026-04-16T13:34:28.999Z</time></trkpt><trkpt lat="44.9312024" lon="8.728827"><ele>88.0</ele><time>2026-04-16T13:34:29.999Z</time></trkpt><trkpt lat="44.9313266" lon="8.7289735"><ele>88.0</ele><time>2026-04-16T13:34:30.999Z</time></trkpt><trkpt lat="44.931454" lon="8.7291259"><ele>88.0</ele><time>2026-04-16T13:34:31.999Z</time></trkpt><trkpt lat="44.9315836" lon="8.729277"><ele>88.0</ele><time>2026-04-16T13:34:32.999Z</time></trkpt><trkpt lat="44.9317164" lon="8.7294314"><ele>88.33333333333333</ele><time>2026-04-16T13:34:33.999Z</time></trkpt><trkpt lat="44.9318548" lon="8.7295857"><ele>88.66666666666667</ele><time>2026-04-16T13:34:34.999Z</time></trkpt><trkpt lat="44.9319958" lon="8.7297386"><ele>89.0</ele><time>2026-04-16T13:34:35.999Z</time></trkpt><trkpt lat="44.9321407" lon="8.7298892"><ele>89.0</ele><time>2026-04-16T13:34:36.999Z</time></trkpt><trkpt lat="44.9322868" lon="8.7300332"><ele>89.0</ele><time>2026-04-16T13:34:37.999Z</time></trkpt><trkpt lat="44.9324352" lon="8.7301772"><ele>89.0</ele><time>2026-04-16T13:34:38.999Z</time></trkpt><trkpt lat="44.9325776" lon="8.730313"><ele>88.33333333333334</ele><time>2026-04-16T13:34:39.999Z</time></trkpt><trkpt lat="44.9327294" lon="8.7304561"><ele>87.66666666666667</ele><time>2026-04-16T13:34:40.999Z</time></trkpt><trkpt lat="44.9328778" lon="8.7305889"><ele>87.0</ele><time>2026-04-16T13:34:41.999Z</time></trkpt><trkpt lat="44.9330263" lon="8.7307208"><ele>87.0</ele><time>2026-04-16T13:34:42.999Z</time></trkpt><trkpt lat="44.9331745" lon="8.7308471"><ele>87.0</ele><time>2026-04-16T13:34:43.999Z</time></trkpt><trkpt lat="44.9332337" lon="8.730892"><ele>87.0</ele><time>2026-04-16T13:34:44.999Z</time></trkpt><trkpt lat="44.9334735" lon="8.7310866"><ele>87.66666666666667</ele><time>2026-04-16T13:34:45.999Z</time></trkpt><trkpt lat="44.9336182" lon="8.7312029"><ele>88.33333333333334</ele><time>2026-04-16T13:34:46.999Z</time></trkpt><trkpt lat="44.933768" lon="8.7313143"><ele>89.0</ele><time>2026-04-16T13:34:47.999Z</time></trkpt><trkpt lat="44.9339249" lon="8.7314271"><ele>89.0</ele><time>2026-04-16T13:34:48.999Z</time></trkpt><trkpt lat="44.9340746" lon="8.7315321"><ele>89.0</ele><time>2026-04-16T13:34:49.999Z</time></trkpt><trkpt lat="44.9342184" lon="8.7316366"><ele>89.0</ele><time>2026-04-16T13:34:50.999Z</time></trkpt><trkpt lat="44.934372" lon="8.7317511"><ele>89.0</ele><time>2026-04-16T13:34:51.999Z</time></trkpt><trkpt lat="44.9344914" lon="8.7318293"><ele>89.0</ele><time>2026-04-16T13:34:52.999Z</time></trkpt><trkpt lat="44.9346821" lon="8.7319474"><ele>89.0</ele><time>2026-04-16T13:34:54.106Z</time></trkpt><trkpt lat="44.9349952" lon="8.7321326"><ele>89.5</ele><time>2026-04-16T13:34:56.111Z</time></trkpt><trkpt lat="44.9353101" lon="8.732312"><ele>90.0</ele><time>2026-04-16T13:34:57.999Z</time></trkpt><trkpt lat="44.9354722" lon="8.7324031"><ele>90.0</ele><time>2026-04-16T13:34:58.999Z</time></trkpt><trkpt lat="44.9356382" lon="8.7324987"><ele>90.0</ele><time>2026-04-16T13:35:00.127Z</time></trkpt><trkpt lat="44.93596" lon="8.7326828"><ele>88.5</ele><time>2026-04-16T13:35:01.999Z</time></trkpt><trkpt lat="44.936274" lon="8.7328557"><ele>87.0</ele><time>2026-04-16T13:35:03.999Z</time></trkpt><trkpt lat="44.9364552" lon="8.7329612"><ele>87.5</ele><time>2026-04-16T13:35:05.1Z</time></trkpt><trkpt lat="44.9367994" lon="8.7331447"><ele>88.0</ele><time>2026-04-16T13:35:06.999Z</time></trkpt><trkpt lat="44.936899" lon="8.7331862"><ele>88.0</ele><time>2026-04-16T13:35:07.999Z</time></trkpt><trkpt lat="44.937153" lon="8.7333099"><ele>88.0</ele><time>2026-04-16T13:35:08.999Z</time></trkpt><trkpt lat="44.9373351" lon="8.7333809"><ele>88.0</ele><time>2026-04-16T13:35:10.109Z</time></trkpt><trkpt lat="44.9377033" lon="8.7334957"><ele>88.0</ele><time>2026-04-16T13:35:11.999Z</time></trkpt><trkpt lat="44.9378952" lon="8.7335478"><ele>88.0</ele><time>2026-04-16T13:35:12.999Z</time></trkpt><trkpt lat="44.9380829" lon="8.7335991"><ele>88.0</ele><time>2026-04-16T13:35:13.999Z</time></trkpt><trkpt lat="44.938274" lon="8.7336525"><ele>88.0</ele><time>2026-04-16T13:35:14.999Z</time></trkpt><trkpt lat="44.938465" lon="8.7337052"><ele>87.66666666666666</ele><time>2026-04-16T13:35:15.999Z</time></trkpt><trkpt lat="44.9386579" lon="8.7337565"><ele>87.33333333333333</ele><time>2026-04-16T13:35:16.999Z</time></trkpt><trkpt lat="44.9388518" lon="8.7338076"><ele>87.0</ele><time>2026-04-16T13:35:17.999Z</time></trkpt><trkpt lat="44.9390482" lon="8.7338594"><ele>87.33333333333333</ele><time>2026-04-16T13:35:18.999Z</time></trkpt><trkpt lat="44.9392391" lon="8.7339111"><ele>87.66666666666666</ele><time>2026-04-16T13:35:19.999Z</time></trkpt><trkpt lat="44.9394456" lon="8.7339688"><ele>88.0</ele><time>2026-04-16T13:35:20.999Z</time></trkpt><trkpt lat="44.9396464" lon="8.7340248"><ele>88.0</ele><time>2026-04-16T13:35:21.999Z</time></trkpt><trkpt lat="44.9398466" lon="8.7340797"><ele>88.0</ele><time>2026-04-16T13:35:22.999Z</time></trkpt><trkpt lat="44.9400556" lon="8.7341373"><ele>88.0</ele><time>2026-04-16T13:35:23.999Z</time></trkpt><trkpt lat="44.9402515" lon="8.7341924"><ele>88.0</ele><time>2026-04-16T13:35:24.999Z</time></trkpt><trkpt lat="44.9404537" lon="8.7342489"><ele>88.0</ele><time>2026-04-16T13:35:25.999Z</time></trkpt><trkpt lat="44.9406548" lon="8.7343035"><ele>88.0</ele><time>2026-04-16T13:35:26.999Z</time></trkpt><trkpt lat="44.9408487" lon="8.7343543"><ele>87.33333333333333</ele><time>2026-04-16T13:35:27.999Z</time></trkpt><trkpt lat="44.9410545" lon="8.7344033"><ele>86.66666666666667</ele><time>2026-04-16T13:35:28.999Z</time></trkpt><trkpt lat="44.9412577" lon="8.7344483"><ele>86.0</ele><time>2026-04-16T13:35:29.999Z</time></trkpt><trkpt lat="44.94146" lon="8.7344869"><ele>86.0</ele><time>2026-04-16T13:35:30.999Z</time></trkpt><trkpt lat="44.9416637" lon="8.7345208"><ele>86.0</ele><time>2026-04-16T13:35:31.999Z</time></trkpt><trkpt lat="44.9418687" lon="8.7345474"><ele>86.0</ele><time>2026-04-16T13:35:32.999Z</time></trkpt><trkpt lat="44.9420773" lon="8.734575"><ele>86.33333333333334</ele><time>2026-04-16T13:35:33.999Z</time></trkpt><trkpt lat="44.9422844" lon="8.7346009"><ele>86.66666666666667</ele><time>2026-04-16T13:35:34.999Z</time></trkpt><trkpt lat="44.9424942" lon="8.7346294"><ele>87.0</ele><time>2026-04-16T13:35:36.102Z</time></trkpt><trkpt lat="44.9429112" lon="8.7346871"><ele>87.33333333333333</ele><time>2026-04-16T13:35:37.999Z</time></trkpt><trkpt lat="44.9431185" lon="8.7347144"><ele>87.66666666666666</ele><time>2026-04-16T13:35:38.999Z</time></trkpt><trkpt lat="44.9433291" lon="8.7347422"><ele>88.0</ele><time>2026-04-16T13:35:39.999Z</time></trkpt><trkpt lat="44.9435286" lon="8.7347682"><ele>87.33333333333333</ele><time>2026-04-16T13:35:40.999Z</time></trkpt><trkpt lat="44.94373" lon="8.7347931"><ele>86.66666666666667</ele><time>2026-04-16T13:35:41.999Z</time></trkpt><trkpt lat="44.9439296" lon="8.7348178"><ele>86.0</ele><time>2026-04-16T13:35:42.999Z</time></trkpt><trkpt lat="44.9441266" lon="8.7348439"><ele>85.5</ele><time>2026-04-16T13:35:44.105Z</time></trkpt><trkpt lat="44.9445382" lon="8.734901"><ele>85.0</ele><time>2026-04-16T13:35:46.102Z</time></trkpt><trkpt lat="44.9449342" lon="8.7349495"><ele>85.66666666666666</ele><time>2026-04-16T13:35:47.999Z</time></trkpt><trkpt lat="44.9451318" lon="8.7349777"><ele>86.33333333333333</ele><time>2026-04-16T13:35:48.999Z</time></trkpt><trkpt lat="44.9453306" lon="8.7350041"><ele>87.0</ele><time>2026-04-16T13:35:50.105Z</time></trkpt><trkpt lat="44.9455318" lon="8.7350295"><ele>87.0</ele><time>2026-04-16T13:35:51.107Z</time></trkpt><trkpt lat="44.9459261" lon="8.7350826"><ele>87.0</ele><time>2026-04-16T13:35:52.999Z</time></trkpt><trkpt lat="44.9461231" lon="8.7351092"><ele>87.0</ele><time>2026-04-16T13:35:53.999Z</time></trkpt><trkpt lat="44.9463198" lon="8.7351361"><ele>87.0</ele><time>2026-04-16T13:35:55.107Z</time></trkpt><trkpt lat="44.9465153" lon="8.7351633"><ele>87.0</ele><time>2026-04-16T13:35:56.106Z</time></trkpt><trkpt lat="44.9467088" lon="8.735189"><ele>86.66666666666667</ele><time>2026-04-16T13:35:56.999Z</time></trkpt><trkpt lat="44.9469014" lon="8.7352155"><ele>86.33333333333334</ele><time>2026-04-16T13:35:57.999Z</time></trkpt><trkpt lat="44.947092" lon="8.7352417"><ele>86.0</ele><time>2026-04-16T13:35:59.117Z</time></trkpt><trkpt lat="44.94719" lon="8.7352516"><ele>86.0</ele><time>2026-04-16T13:36:00.113Z</time></trkpt><trkpt lat="44.9476599" lon="8.7353099"><ele>86.0</ele><time>2026-04-16T13:36:01.999Z</time></trkpt><trkpt lat="44.9478045" lon="8.7353284"><ele>86.0</ele><time>2026-04-16T13:36:02.999Z</time></trkpt><trkpt lat="44.9479224" lon="8.7353449"><ele>86.0</ele><time>2026-04-16T13:36:03.999Z</time></trkpt><trkpt lat="44.9481835" lon="8.7353851"><ele>86.0</ele><time>2026-04-16T13:36:04.999Z</time></trkpt><trkpt lat="44.9483554" lon="8.7354107"><ele>86.0</ele><time>2026-04-16T13:36:06.125Z</time></trkpt><trkpt lat="44.9486879" lon="8.7354598"><ele>86.0</ele><time>2026-04-16T13:36:07.999Z</time></trkpt><trkpt lat="44.9488544" lon="8.7354836"><ele>86.0</ele><time>2026-04-16T13:36:09.106Z</time></trkpt><trkpt lat="44.9490134" lon="8.7355062"><ele>86.0</ele><time>2026-04-16T13:36:10.112Z</time></trkpt><trkpt lat="44.9493248" lon="8.7355549"><ele>85.66666666666667</ele><time>2026-04-16T13:36:11.999Z</time></trkpt><trkpt lat="44.949561" lon="8.7355937"><ele>85.33333333333333</ele><time>2026-04-16T13:36:13.999Z</time></trkpt><trkpt lat="44.9497265" lon="8.7356202"><ele>85.0</ele><time>2026-04-16T13:36:14.999Z</time></trkpt><trkpt lat="44.9498501" lon="8.7356433"><ele>85.0</ele><time>2026-04-16T13:36:15.999Z</time></trkpt><trkpt lat="44.9499711" lon="8.7356705"><ele>85.0</ele><time>2026-04-16T13:36:16.999Z</time></trkpt><trkpt lat="44.9502159" lon="8.7357329"><ele>85.0</ele><time>2026-04-16T13:36:17.999Z</time></trkpt><trkpt lat="44.9503622" lon="8.7357936"><ele>84.66666666666666</ele><time>2026-04-16T13:36:18.999Z</time></trkpt><trkpt lat="44.9505096" lon="8.7358655"><ele>84.33333333333333</ele><time>2026-04-16T13:36:19.999Z</time></trkpt><trkpt lat="44.9506567" lon="8.7359527"><ele>84.0</ele><time>2026-04-16T13:36:20.999Z</time></trkpt><trkpt lat="44.9507981" lon="8.7360463"><ele>85.0</ele><time>2026-04-16T13:36:21.999Z</time></trkpt><trkpt lat="44.9509403" lon="8.7361483"><ele>86.0</ele><time>2026-04-16T13:36:22.999Z</time></trkpt><trkpt lat="44.9510768" lon="8.7362502"><ele>87.0</ele><time>2026-04-16T13:36:23.999Z</time></trkpt><trkpt lat="44.9512248" lon="8.7363579"><ele>87.0</ele><time>2026-04-16T13:36:24.999Z</time></trkpt><trkpt lat="44.9513693" lon="8.7364609"><ele>87.0</ele><time>2026-04-16T13:36:25.999Z</time></trkpt><trkpt lat="44.9515119" lon="8.7365628"><ele>87.0</ele><time>2026-04-16T13:36:26.999Z</time></trkpt><trkpt lat="44.9516553" lon="8.7366718"><ele>86.66666666666667</ele><time>2026-04-16T13:36:27.999Z</time></trkpt><trkpt lat="44.9517915" lon="8.736772"><ele>86.33333333333334</ele><time>2026-04-16T13:36:28.999Z</time></trkpt><trkpt lat="44.9519303" lon="8.7368723"><ele>86.0</ele><time>2026-04-16T13:36:29.999Z</time></trkpt><trkpt lat="44.9520693" lon="8.7369717"><ele>86.0</ele><time>2026-04-16T13:36:30.999Z</time></trkpt><trkpt lat="44.9522057" lon="8.7370696"><ele>86.0</ele><time>2026-04-16T13:36:31.999Z</time></trkpt><trkpt lat="44.9523488" lon="8.7371753"><ele>86.0</ele><time>2026-04-16T13:36:32.999Z</time></trkpt><trkpt lat="44.9524908" lon="8.7372813"><ele>86.25</ele><time>2026-04-16T13:36:33.999Z</time></trkpt><trkpt lat="44.9526353" lon="8.7373876"><ele>86.5</ele><time>2026-04-16T13:36:34.999Z</time></trkpt><trkpt lat="44.9527818" lon="8.7374951"><ele>86.75</ele><time>2026-04-16T13:36:35.999Z</time></trkpt><trkpt lat="44.9528566" lon="8.7375481"><ele>87.0</ele><time>2026-04-16T13:36:36.999Z</time></trkpt><trkpt lat="44.9530513" lon="8.7376879"><ele>86.66666666666667</ele><time>2026-04-16T13:36:37.999Z</time></trkpt><trkpt lat="44.9532296" lon="8.7378153"><ele>86.33333333333334</ele><time>2026-04-16T13:36:38.999Z</time></trkpt><trkpt lat="44.9533544" lon="8.7379104"><ele>86.0</ele><time>2026-04-16T13:36:39.999Z</time></trkpt><trkpt lat="44.9534697" lon="8.7379986"><ele>86.0</ele><time>2026-04-16T13:36:41.106Z</time></trkpt><trkpt lat="44.9538711" lon="8.7382943"><ele>86.0</ele><time>2026-04-16T13:36:42.999Z</time></trkpt><trkpt lat="44.9540326" lon="8.7384142"><ele>86.0</ele><time>2026-04-16T13:36:43.999Z</time></trkpt><trkpt lat="44.9542015" lon="8.738534"><ele>86.0</ele><time>2026-04-16T13:36:45.11Z</time></trkpt><trkpt lat="44.9545332" lon="8.7387737"><ele>86.33333333333334</ele><time>2026-04-16T13:36:46.999Z</time></trkpt><trkpt lat="44.954694" lon="8.7388909"><ele>86.66666666666667</ele><time>2026-04-16T13:36:47.999Z</time></trkpt><trkpt lat="44.954854" lon="8.7390097"><ele>87.0</ele><time>2026-04-16T13:36:48.999Z</time></trkpt><trkpt lat="44.9550073" lon="8.7391226"><ele>86.5</ele><time>2026-04-16T13:36:50.102Z</time></trkpt><trkpt lat="44.9551592" lon="8.7392346"><ele>86.0</ele><time>2026-04-16T13:36:51.113Z</time></trkpt><trkpt lat="44.9554612" lon="8.7394605"><ele>86.0</ele><time>2026-04-16T13:36:52.999Z</time></trkpt><trkpt lat="44.9556098" lon="8.7395735"><ele>86.0</ele><time>2026-04-16T13:36:54.111Z</time></trkpt><trkpt lat="44.9559108" lon="8.7397977"><ele>86.0</ele><time>2026-04-16T13:36:55.999Z</time></trkpt><trkpt lat="44.9560669" lon="8.7399086"><ele>86.0</ele><time>2026-04-16T13:36:56.999Z</time></trkpt><trkpt lat="44.9562293" lon="8.7400154"><ele>86.0</ele><time>2026-04-16T13:36:57.999Z</time></trkpt><trkpt lat="44.9563925" lon="8.7401163"><ele>86.0</ele><time>2026-04-16T13:36:58.999Z</time></trkpt><trkpt lat="44.9565565" lon="8.7402097"><ele>86.0</ele><time>2026-04-16T13:36:59.999Z</time></trkpt><trkpt lat="44.9567217" lon="8.7402965"><ele>86.0</ele><time>2026-04-16T13:37:00.999Z</time></trkpt><trkpt lat="44.9568927" lon="8.7403785"><ele>86.0</ele><time>2026-04-16T13:37:01.999Z</time></trkpt><trkpt lat="44.9570641" lon="8.7404647"><ele>86.0</ele><time>2026-04-16T13:37:02.999Z</time></trkpt><trkpt lat="44.9572302" lon="8.7405477"><ele>86.0</ele><time>2026-04-16T13:37:04.11Z</time></trkpt><trkpt lat="44.9574075" lon="8.7406389"><ele>85.5</ele><time>2026-04-16T13:37:05.117Z</time></trkpt><trkpt lat="44.9575798" lon="8.7407268"><ele>85.0</ele><time>2026-04-16T13:37:06.122Z</time></trkpt><trkpt lat="44.9579267" lon="8.7409033"><ele>85.0</ele><time>2026-04-16T13:37:07.999Z</time></trkpt><trkpt lat="44.9580907" lon="8.7409873"><ele>85.0</ele><time>2026-04-16T13:37:09.128Z</time></trkpt><trkpt lat="44.9582586" lon="8.7410732"><ele>85.0</ele><time>2026-04-16T13:37:10.126Z</time></trkpt><trkpt lat="44.9585723" lon="8.7412318"><ele>85.66666666666666</ele><time>2026-04-16T13:37:11.999Z</time></trkpt><trkpt lat="44.9587314" lon="8.7413113"><ele>86.33333333333333</ele><time>2026-04-16T13:37:12.999Z</time></trkpt><trkpt lat="44.9588918" lon="8.741387"><ele>87.0</ele><time>2026-04-16T13:37:13.999Z</time></trkpt><trkpt lat="44.9590559" lon="8.7414494"><ele>86.33333333333333</ele><time>2026-04-16T13:37:14.999Z</time></trkpt><trkpt lat="44.9592217" lon="8.7414983"><ele>85.66666666666666</ele><time>2026-04-16T13:37:15.999Z</time></trkpt><trkpt lat="44.9593932" lon="8.7415335"><ele>85.0</ele><time>2026-04-16T13:37:16.999Z</time></trkpt><trkpt lat="44.95956" lon="8.7415603"><ele>85.0</ele><time>2026-04-16T13:37:17.999Z</time></trkpt><trkpt lat="44.9597283" lon="8.7415772"><ele>85.0</ele><time>2026-04-16T13:37:18.999Z</time></trkpt><trkpt lat="44.9598961" lon="8.7415949"><ele>85.0</ele><time>2026-04-16T13:37:19.999Z</time></trkpt><trkpt lat="44.9600674" lon="8.7416117"><ele>84.33333333333333</ele><time>2026-04-16T13:37:20.999Z</time></trkpt><trkpt lat="44.9602438" lon="8.7416281"><ele>83.66666666666667</ele><time>2026-04-16T13:37:21.999Z</time></trkpt><trkpt lat="44.9604229" lon="8.7416453"><ele>83.0</ele><time>2026-04-16T13:37:22.999Z</time></trkpt><trkpt lat="44.9606077" lon="8.7416629"><ele>83.0</ele><time>2026-04-16T13:37:23.999Z</time></trkpt><trkpt lat="44.9607844" lon="8.7416778"><ele>83.0</ele><time>2026-04-16T13:37:24.999Z</time></trkpt><trkpt lat="44.9608634" lon="8.7416817"><ele>83.0</ele><time>2026-04-16T13:37:25.999Z</time></trkpt><trkpt lat="44.9610946" lon="8.7417017"><ele>83.0</ele><time>2026-04-16T13:37:26.999Z</time></trkpt><trkpt lat="44.9613277" lon="8.741721"><ele>83.0</ele><time>2026-04-16T13:37:27.999Z</time></trkpt><trkpt lat="44.9614804" lon="8.7417353"><ele>83.0</ele><time>2026-04-16T13:37:28.999Z</time></trkpt><trkpt lat="44.9615971" lon="8.7417491"><ele>83.0</ele><time>2026-04-16T13:37:29.999Z</time></trkpt><trkpt lat="44.9618902" lon="8.7417771"><ele>83.0</ele><time>2026-04-16T13:37:31.105Z</time></trkpt><trkpt lat="44.9622689" lon="8.7418094"><ele>83.0</ele><time>2026-04-16T13:37:32.999Z</time></trkpt><trkpt lat="44.9624604" lon="8.741828"><ele>83.0</ele><time>2026-04-16T13:37:33.999Z</time></trkpt><trkpt lat="44.9626552" lon="8.741844"><ele>83.0</ele><time>2026-04-16T13:37:34.999Z</time></trkpt><trkpt lat="44.9628569" lon="8.7418629"><ele>83.0</ele><time>2026-04-16T13:37:35.999Z</time></trkpt><trkpt lat="44.9629583" lon="8.7418694"><ele>83.0</ele><time>2026-04-16T13:37:36.999Z</time></trkpt><trkpt lat="44.9632589" lon="8.7418928"><ele>83.0</ele><time>2026-04-16T13:37:37.999Z</time></trkpt><trkpt lat="44.9634557" lon="8.741907"><ele>83.0</ele><time>2026-04-16T13:37:38.999Z</time></trkpt><trkpt lat="44.963663" lon="8.7419254"><ele>83.0</ele><time>2026-04-16T13:37:39.999Z</time></trkpt><trkpt lat="44.9638681" lon="8.7419455"><ele>83.0</ele><time>2026-04-16T13:37:40.999Z</time></trkpt><trkpt lat="44.9639944" lon="8.7419612"><ele>83.5</ele><time>2026-04-16T13:37:41.999Z</time></trkpt><trkpt lat="44.9642705" lon="8.7419952"><ele>84.0</ele><time>2026-04-16T13:37:42.999Z</time></trkpt><trkpt lat="44.964463" lon="8.7420187"><ele>84.0</ele><time>2026-04-16T13:37:44.101Z</time></trkpt><trkpt lat="44.964664" lon="8.7420524"><ele>84.0</ele><time>2026-04-16T13:37:45.104Z</time></trkpt><trkpt lat="44.9650442" lon="8.7421523"><ele>83.33333333333333</ele><time>2026-04-16T13:37:46.999Z</time></trkpt><trkpt lat="44.9652354" lon="8.7422243"><ele>82.66666666666666</ele><time>2026-04-16T13:37:47.999Z</time></trkpt><trkpt lat="44.9654263" lon="8.7423071"><ele>82.0</ele><time>2026-04-16T13:37:48.999Z</time></trkpt><trkpt lat="44.965613" lon="8.7423993"><ele>81.5</ele><time>2026-04-16T13:37:50.105Z</time></trkpt><trkpt lat="44.9659677" lon="8.7426038"><ele>81.0</ele><time>2026-04-16T13:37:51.999Z</time></trkpt><trkpt lat="44.9661413" lon="8.7427101"><ele>81.5</ele><time>2026-04-16T13:37:52.999Z</time></trkpt><trkpt lat="44.9663128" lon="8.7428169"><ele>82.0</ele><time>2026-04-16T13:37:54.117Z</time></trkpt><trkpt lat="44.9666567" lon="8.7430343"><ele>82.33333333333333</ele><time>2026-04-16T13:37:55.999Z</time></trkpt><trkpt lat="44.9668243" lon="8.7431388"><ele>82.66666666666667</ele><time>2026-04-16T13:37:56.999Z</time></trkpt><trkpt lat="44.9669927" lon="8.7432437"><ele>83.0</ele><time>2026-04-16T13:37:57.999Z</time></trkpt><trkpt lat="44.9671627" lon="8.7433507"><ele>83.0</ele><time>2026-04-16T13:37:58.999Z</time></trkpt><trkpt lat="44.9673269" lon="8.7434553"><ele>83.0</ele><time>2026-04-16T13:38:00.116Z</time></trkpt><trkpt lat="44.9676784" lon="8.7436661"><ele>83.0</ele><time>2026-04-16T13:38:01.999Z</time></trkpt><trkpt lat="44.9678558" lon="8.7437624"><ele>83.0</ele><time>2026-04-16T13:38:02.999Z</time></trkpt><trkpt lat="44.9680347" lon="8.7438464"><ele>83.0</ele><time>2026-04-16T13:38:04.106Z</time></trkpt><trkpt lat="44.9684067" lon="8.7439894"><ele>82.66666666666667</ele><time>2026-04-16T13:38:05.999Z</time></trkpt><trkpt lat="44.9685931" lon="8.7440453"><ele>82.33333333333333</ele><time>2026-04-16T13:38:06.999Z</time></trkpt><trkpt lat="44.9687801" lon="8.7440932"><ele>82.0</ele><time>2026-04-16T13:38:07.999Z</time></trkpt><trkpt lat="44.9689656" lon="8.7441221"><ele>82.0</ele><time>2026-04-16T13:38:08.999Z</time></trkpt><trkpt lat="44.9691516" lon="8.7441447"><ele>82.0</ele><time>2026-04-16T13:38:10.103Z</time></trkpt><trkpt lat="44.9695232" lon="8.7441894"><ele>82.0</ele><time>2026-04-16T13:38:11.999Z</time></trkpt><trkpt lat="44.9697089" lon="8.7442193"><ele>82.0</ele><time>2026-04-16T13:38:12.999Z</time></trkpt><trkpt lat="44.9698926" lon="8.7442566"><ele>82.0</ele><time>2026-04-16T13:38:13.999Z</time></trkpt><trkpt lat="44.9700761" lon="8.7443066"><ele>82.0</ele><time>2026-04-16T13:38:14.999Z</time></trkpt><trkpt lat="44.9702521" lon="8.7443719"><ele>82.0</ele><time>2026-04-16T13:38:15.999Z</time></trkpt><trkpt lat="44.9704375" lon="8.7444575"><ele>82.0</ele><time>2026-04-16T13:38:16.999Z</time></trkpt><trkpt lat="44.9706179" lon="8.7445509"><ele>81.66666666666666</ele><time>2026-04-16T13:38:17.999Z</time></trkpt><trkpt lat="44.9707955" lon="8.7446559"><ele>81.33333333333333</ele><time>2026-04-16T13:38:18.999Z</time></trkpt><trkpt lat="44.9709697" lon="8.7447723"><ele>81.0</ele><time>2026-04-16T13:38:19.999Z</time></trkpt><trkpt lat="44.9711434" lon="8.7448989"><ele>81.0</ele><time>2026-04-16T13:38:20.999Z</time></trkpt><trkpt lat="44.9713164" lon="8.7450309"><ele>81.0</ele><time>2026-04-16T13:38:21.999Z</time></trkpt><trkpt lat="44.9714882" lon="8.7451695"><ele>81.0</ele><time>2026-04-16T13:38:22.999Z</time></trkpt><trkpt lat="44.9716593" lon="8.745308"><ele>81.0</ele><time>2026-04-16T13:38:23.999Z</time></trkpt><trkpt lat="44.971834" lon="8.7454468"><ele>81.0</ele><time>2026-04-16T13:38:24.999Z</time></trkpt><trkpt lat="44.9720024" lon="8.745583"><ele>81.0</ele><time>2026-04-16T13:38:25.999Z</time></trkpt><trkpt lat="44.9721686" lon="8.7457187"><ele>81.0</ele><time>2026-04-16T13:38:26.999Z</time></trkpt><trkpt lat="44.97233" lon="8.7458509"><ele>81.0</ele><time>2026-04-16T13:38:27.999Z</time></trkpt><trkpt lat="44.9724841" lon="8.7459795"><ele>81.0</ele><time>2026-04-16T13:38:28.999Z</time></trkpt><trkpt lat="44.9726297" lon="8.7461027"><ele>81.33333333333333</ele><time>2026-04-16T13:38:29.999Z</time></trkpt><trkpt lat="44.9727723" lon="8.7462212"><ele>81.66666666666666</ele><time>2026-04-16T13:38:30.999Z</time></trkpt><trkpt lat="44.9729062" lon="8.7463321"><ele>82.0</ele><time>2026-04-16T13:38:31.999Z</time></trkpt><trkpt lat="44.973032" lon="8.7464398"><ele>82.0</ele><time>2026-04-16T13:38:32.999Z</time></trkpt><trkpt lat="44.9731481" lon="8.7465519"><ele>82.0</ele><time>2026-04-16T13:38:33.999Z</time></trkpt><trkpt lat="44.9732543" lon="8.7466643"><ele>82.0</ele><time>2026-04-16T13:38:34.999Z</time></trkpt><trkpt lat="44.9733431" lon="8.7467704"><ele>82.0</ele><time>2026-04-16T13:38:35.999Z</time></trkpt><trkpt lat="44.9734089" lon="8.746858"><ele>81.8</ele><time>2026-04-16T13:38:36.999Z</time></trkpt><trkpt lat="44.9734551" lon="8.7469325"><ele>81.6</ele><time>2026-04-16T13:38:37.999Z</time></trkpt><trkpt lat="44.9735163" lon="8.7471113"><ele>81.39999999999999</ele><time>2026-04-16T13:38:40.999Z</time></trkpt><trkpt lat="44.9735462" lon="8.7472741"><ele>81.19999999999999</ele><time>2026-04-16T13:38:42.999Z</time></trkpt><trkpt lat="44.9735789" lon="8.7473511"><ele>81.0</ele><time>2026-04-16T13:38:43.999Z</time></trkpt><trkpt lat="44.9736319" lon="8.7474159"><ele>81.0</ele><time>2026-04-16T13:38:45.126Z</time></trkpt><trkpt lat="44.9737692" lon="8.7475066"><ele>81.0</ele><time>2026-04-16T13:38:46.999Z</time></trkpt><trkpt lat="44.9738417" lon="8.7475646"><ele>81.0</ele><time>2026-04-16T13:38:47.999Z</time></trkpt><trkpt lat="44.9739157" lon="8.747652"><ele>81.0</ele><time>2026-04-16T13:38:48.999Z</time></trkpt><trkpt lat="44.9739902" lon="8.7477731"><ele>81.0</ele><time>2026-04-16T13:38:50.118Z</time></trkpt><trkpt lat="44.9741468" lon="8.7480477"><ele>80.75</ele><time>2026-04-16T13:38:51.999Z</time></trkpt><trkpt lat="44.9742314" lon="8.7481957"><ele>80.5</ele><time>2026-04-16T13:38:52.999Z</time></trkpt><trkpt lat="44.9743178" lon="8.7483477"><ele>80.25</ele><time>2026-04-16T13:38:54.106Z</time></trkpt><trkpt lat="44.9744094" lon="8.7485081"><ele>80.0</ele><time>2026-04-16T13:38:55.153Z</time></trkpt><trkpt lat="44.9745916" lon="8.7488279"><ele>80.0</ele><time>2026-04-16T13:38:56.999Z</time></trkpt><trkpt lat="44.9746848" lon="8.7489923"><ele>80.0</ele><time>2026-04-16T13:38:57.999Z</time></trkpt><trkpt lat="44.9747761" lon="8.7491596"><ele>80.0</ele><time>2026-04-16T13:38:58.999Z</time></trkpt><trkpt lat="44.9748746" lon="8.7493349"><ele>80.0</ele><time>2026-04-16T13:38:59.999Z</time></trkpt><trkpt lat="44.9749678" lon="8.7495026"><ele>80.0</ele><time>2026-04-16T13:39:00.999Z</time></trkpt><trkpt lat="44.9751073" lon="8.7497174"><ele>80.0</ele><time>2026-04-16T13:39:02.999Z</time></trkpt><trkpt lat="44.9752144" lon="8.7499034"><ele>80.0</ele><time>2026-04-16T13:39:03.999Z</time></trkpt><trkpt lat="44.9752978" lon="8.7500523"><ele>80.0</ele><time>2026-04-16T13:39:04.999Z</time></trkpt><trkpt lat="44.9753819" lon="8.7502147"><ele>80.0</ele><time>2026-04-16T13:39:05.999Z</time></trkpt><trkpt lat="44.9755429" lon="8.7505103"><ele>79.75</ele><time>2026-04-16T13:39:06.999Z</time></trkpt><trkpt lat="44.9756322" lon="8.7506695"><ele>79.5</ele><time>2026-04-16T13:39:07.999Z</time></trkpt><trkpt lat="44.9757261" lon="8.750836"><ele>79.25</ele><time>2026-04-16T13:39:08.999Z</time></trkpt><trkpt lat="44.9758218" lon="8.7510071"><ele>79.0</ele><time>2026-04-16T13:39:09.999Z</time></trkpt><trkpt lat="44.9759507" lon="8.7512059"><ele>80.0</ele><time>2026-04-16T13:39:11.999Z</time></trkpt><trkpt lat="44.976069" lon="8.7514089"><ele>81.0</ele><time>2026-04-16T13:39:12.999Z</time></trkpt><trkpt lat="44.9761514" lon="8.7515601"><ele>82.0</ele><time>2026-04-16T13:39:13.999Z</time></trkpt><trkpt lat="44.976234" lon="8.7517264"><ele>82.0</ele><time>2026-04-16T13:39:14.999Z</time></trkpt><trkpt lat="44.9764054" lon="8.7520485"><ele>82.0</ele><time>2026-04-16T13:39:15.999Z</time></trkpt><trkpt lat="44.976499" lon="8.7522318"><ele>82.0</ele><time>2026-04-16T13:39:16.999Z</time></trkpt><trkpt lat="44.9765861" lon="8.7524124"><ele>82.0</ele><time>2026-04-16T13:39:17.999Z</time></trkpt><trkpt lat="44.9766659" lon="8.752595"><ele>82.0</ele><time>2026-04-16T13:39:18.999Z</time></trkpt><trkpt lat="44.9767386" lon="8.7527681"><ele>82.0</ele><time>2026-04-16T13:39:19.999Z</time></trkpt><trkpt lat="44.9768116" lon="8.7529578"><ele>82.0</ele><time>2026-04-16T13:39:20.999Z</time></trkpt><trkpt lat="44.9768776" lon="8.7531425"><ele>81.66666666666666</ele><time>2026-04-16T13:39:21.999Z</time></trkpt><trkpt lat="44.9769374" lon="8.7533206"><ele>81.33333333333333</ele><time>2026-04-16T13:39:22.999Z</time></trkpt><trkpt lat="44.9769951" lon="8.7535024"><ele>81.0</ele><time>2026-04-16T13:39:23.999Z</time></trkpt><trkpt lat="44.9770938" lon="8.7538352"><ele>81.5</ele><time>2026-04-16T13:39:25.999Z</time></trkpt><trkpt lat="44.9771398" lon="8.7539977"><ele>82.0</ele><time>2026-04-16T13:39:26.999Z</time></trkpt><trkpt lat="44.9771831" lon="8.754153"><ele>82.5</ele><time>2026-04-16T13:39:27.999Z</time></trkpt><trkpt lat="44.9772261" lon="8.7543128"><ele>83.0</ele><time>2026-04-16T13:39:28.999Z</time></trkpt><trkpt lat="44.9772642" lon="8.7544616"><ele>83.0</ele><time>2026-04-16T13:39:29.999Z</time></trkpt><trkpt lat="44.9773015" lon="8.7546161"><ele>83.0</ele><time>2026-04-16T13:39:30.999Z</time></trkpt><trkpt lat="44.9773372" lon="8.7547625"><ele>83.0</ele><time>2026-04-16T13:39:31.999Z</time></trkpt><trkpt lat="44.9773736" lon="8.7549088"><ele>83.0</ele><time>2026-04-16T13:39:32.999Z</time></trkpt><trkpt lat="44.9774221" lon="8.7550622"><ele>83.0</ele><time>2026-04-16T13:39:34.999Z</time></trkpt><trkpt lat="44.9774982" lon="8.7553359"><ele>83.0</ele><time>2026-04-16T13:39:35.999Z</time></trkpt><trkpt lat="44.9775343" lon="8.7554942"><ele>83.0</ele><time>2026-04-16T13:39:36.999Z</time></trkpt><trkpt lat="44.9775663" lon="8.7556367"><ele>83.0</ele><time>2026-04-16T13:39:37.999Z</time></trkpt><trkpt lat="44.9775969" lon="8.7558103"><ele>82.33333333333334</ele><time>2026-04-16T13:39:40.105Z</time></trkpt><trkpt lat="44.9776995" lon="8.7562465"><ele>81.66666666666667</ele><time>2026-04-16T13:39:41.999Z</time></trkpt><trkpt lat="44.9777348" lon="8.7563906"><ele>81.0</ele><time>2026-04-16T13:39:42.999Z</time></trkpt><trkpt lat="44.9777679" lon="8.756531"><ele>81.0</ele><time>2026-04-16T13:39:44.109Z</time></trkpt><trkpt lat="44.9778373" lon="8.7568263"><ele>81.0</ele><time>2026-04-16T13:39:45.999Z</time></trkpt><trkpt lat="44.9778714" lon="8.7569698"><ele>81.0</ele><time>2026-04-16T13:39:46.999Z</time></trkpt><trkpt lat="44.9779062" lon="8.7571136"><ele>81.0</ele><time>2026-04-16T13:39:47.999Z</time></trkpt><trkpt lat="44.9779408" lon="8.7572554"><ele>81.0</ele><time>2026-04-16T13:39:48.999Z</time></trkpt><trkpt lat="44.9779745" lon="8.7573936"><ele>81.0</ele><time>2026-04-16T13:39:50.118Z</time></trkpt><trkpt lat="44.9780408" lon="8.7576704"><ele>81.0</ele><time>2026-04-16T13:39:51.999Z</time></trkpt><trkpt lat="44.9780741" lon="8.757809"><ele>81.0</ele><time>2026-04-16T13:39:52.999Z</time></trkpt><trkpt lat="44.9781064" lon="8.7579512"><ele>81.25</ele><time>2026-04-16T13:39:54.104Z</time></trkpt><trkpt lat="44.9781391" lon="8.7580898"><ele>81.5</ele><time>2026-04-16T13:39:55.111Z</time></trkpt><trkpt lat="44.9781964" lon="8.758361"><ele>81.75</ele><time>2026-04-16T13:39:56.999Z</time></trkpt><trkpt lat="44.9782231" lon="8.7584948"><ele>82.0</ele><time>2026-04-16T13:39:57.999Z</time></trkpt><trkpt lat="44.9782502" lon="8.758629"><ele>82.25</ele><time>2026-04-16T13:39:58.999Z</time></trkpt><trkpt lat="44.9782762" lon="8.7587644"><ele>82.5</ele><time>2026-04-16T13:40:00.111Z</time></trkpt><trkpt lat="44.9783039" lon="8.7589075"><ele>82.75</ele><time>2026-04-16T13:40:01.999Z</time></trkpt><trkpt lat="44.9783371" lon="8.759085"><ele>83.0</ele><time>2026-04-16T13:40:03.999Z</time></trkpt><trkpt lat="44.9783673" lon="8.7592442"><ele>82.33333333333334</ele><time>2026-04-16T13:40:04.999Z</time></trkpt><trkpt lat="44.9784111" lon="8.7594754"><ele>81.66666666666667</ele><time>2026-04-16T13:40:05.999Z</time></trkpt><trkpt lat="44.978465" lon="8.759764"><ele>81.0</ele><time>2026-04-16T13:40:06.999Z</time></trkpt><trkpt lat="44.9784939" lon="8.7599063"><ele>81.0</ele><time>2026-04-16T13:40:07.999Z</time></trkpt><trkpt lat="44.9785243" lon="8.7600575"><ele>81.0</ele><time>2026-04-16T13:40:09.1Z</time></trkpt><trkpt lat="44.9785868" lon="8.7603717"><ele>81.0</ele><time>2026-04-16T13:40:10.999Z</time></trkpt><trkpt lat="44.9786183" lon="8.7605307"><ele>81.25</ele><time>2026-04-16T13:40:11.999Z</time></trkpt><trkpt lat="44.9786486" lon="8.7606901"><ele>81.5</ele><time>2026-04-16T13:40:12.999Z</time></trkpt><trkpt lat="44.9786775" lon="8.7608532"><ele>81.75</ele><time>2026-04-16T13:40:13.999Z</time></trkpt><trkpt lat="44.9787043" lon="8.7610116"><ele>82.0</ele><time>2026-04-16T13:40:14.999Z</time></trkpt><trkpt lat="44.9787304" lon="8.7611711"><ele>82.0</ele><time>2026-04-16T13:40:15.999Z</time></trkpt><trkpt lat="44.9787562" lon="8.7613424"><ele>82.0</ele><time>2026-04-16T13:40:16.999Z</time></trkpt><trkpt lat="44.9787768" lon="8.7615064"><ele>82.0</ele><time>2026-04-16T13:40:17.999Z</time></trkpt><trkpt lat="44.9787961" lon="8.7616742"><ele>82.0</ele><time>2026-04-16T13:40:18.999Z</time></trkpt><trkpt lat="44.978813" lon="8.7618428"><ele>81.75</ele><time>2026-04-16T13:40:19.999Z</time></trkpt><trkpt lat="44.9788265" lon="8.7620111"><ele>81.5</ele><time>2026-04-16T13:40:20.999Z</time></trkpt><trkpt lat="44.9788373" lon="8.7621794"><ele>81.25</ele><time>2026-04-16T13:40:21.999Z</time></trkpt><trkpt lat="44.9788443" lon="8.7623454"><ele>81.0</ele><time>2026-04-16T13:40:22.999Z</time></trkpt><trkpt lat="44.9788483" lon="8.762505"><ele>81.0</ele><time>2026-04-16T13:40:23.999Z</time></trkpt><trkpt lat="44.9788482" lon="8.7626679"><ele>81.0</ele><time>2026-04-16T13:40:24.999Z</time></trkpt><trkpt lat="44.9788441" lon="8.7628255"><ele>81.0</ele><time>2026-04-16T13:40:25.999Z</time></trkpt><trkpt lat="44.9788385" lon="8.7629911"><ele>81.0</ele><time>2026-04-16T13:40:26.999Z</time></trkpt><trkpt lat="44.9788298" lon="8.7631514"><ele>81.25</ele><time>2026-04-16T13:40:27.999Z</time></trkpt><trkpt lat="44.9788214" lon="8.7633148"><ele>81.5</ele><time>2026-04-16T13:40:28.999Z</time></trkpt><trkpt lat="44.9788103" lon="8.7634808"><ele>81.75</ele><time>2026-04-16T13:40:29.999Z</time></trkpt><trkpt lat="44.9787971" lon="8.7636493"><ele>82.0</ele><time>2026-04-16T13:40:30.999Z</time></trkpt><trkpt lat="44.9787802" lon="8.7638113"><ele>82.0</ele><time>2026-04-16T13:40:31.999Z</time></trkpt><trkpt lat="44.9787647" lon="8.7639802"><ele>82.0</ele><time>2026-04-16T13:40:32.999Z</time></trkpt><trkpt lat="44.9787473" lon="8.7641462"><ele>82.0</ele><time>2026-04-16T13:40:33.999Z</time></trkpt><trkpt lat="44.9787321" lon="8.7643087"><ele>82.0</ele><time>2026-04-16T13:40:34.999Z</time></trkpt><trkpt lat="44.978716" lon="8.7644772"><ele>82.0</ele><time>2026-04-16T13:40:35.999Z</time></trkpt><trkpt lat="44.9787004" lon="8.764652"><ele>82.0</ele><time>2026-04-16T13:40:36.999Z</time></trkpt><trkpt lat="44.9786871" lon="8.7648338"><ele>82.0</ele><time>2026-04-16T13:40:37.999Z</time></trkpt><trkpt lat="44.9786746" lon="8.7650239"><ele>82.0</ele><time>2026-04-16T13:40:39.11Z</time></trkpt><trkpt lat="44.9786629" lon="8.7654359"><ele>81.0</ele><time>2026-04-16T13:40:40.999Z</time></trkpt><trkpt lat="44.978666" lon="8.7656547"><ele>80.0</ele><time>2026-04-16T13:40:41.999Z</time></trkpt><trkpt lat="44.978673" lon="8.7658753"><ele>79.0</ele><time>2026-04-16T13:40:42.999Z</time></trkpt><trkpt lat="44.9786838" lon="8.766116"><ele>79.0</ele><time>2026-04-16T13:40:43.999Z</time></trkpt><trkpt lat="44.9786945" lon="8.7663349"><ele>79.0</ele><time>2026-04-16T13:40:44.999Z</time></trkpt><trkpt lat="44.9787093" lon="8.7665607"><ele>79.0</ele><time>2026-04-16T13:40:46.115Z</time></trkpt><trkpt lat="44.9787244" lon="8.7667854"><ele>79.0</ele><time>2026-04-16T13:40:46.999Z</time></trkpt><trkpt lat="44.9787401" lon="8.7670046"><ele>79.0</ele><time>2026-04-16T13:40:47.999Z</time></trkpt><trkpt lat="44.9787625" lon="8.7672207"><ele>79.0</ele><time>2026-04-16T13:40:48.999Z</time></trkpt><trkpt lat="44.9787905" lon="8.7674194"><ele>79.0</ele><time>2026-04-16T13:40:49.999Z</time></trkpt><trkpt lat="44.9788279" lon="8.767626"><ele>79.0</ele><time>2026-04-16T13:40:50.999Z</time></trkpt><trkpt lat="44.9788724" lon="8.7678403"><ele>79.0</ele><time>2026-04-16T13:40:51.999Z</time></trkpt><trkpt lat="44.9789188" lon="8.7680463"><ele>79.66666666666666</ele><time>2026-04-16T13:40:52.999Z</time></trkpt><trkpt lat="44.9789699" lon="8.7682605"><ele>80.33333333333333</ele><time>2026-04-16T13:40:53.999Z</time></trkpt><trkpt lat="44.9790229" lon="8.7684771"><ele>81.0</ele><time>2026-04-16T13:40:54.999Z</time></trkpt><trkpt lat="44.9790749" lon="8.7686877"><ele>81.0</ele><time>2026-04-16T13:40:55.999Z</time></trkpt><trkpt lat="44.9791293" lon="8.7689075"><ele>81.0</ele><time>2026-04-16T13:40:56.999Z</time></trkpt><trkpt lat="44.9791819" lon="8.7691215"><ele>81.0</ele><time>2026-04-16T13:40:57.999Z</time></trkpt><trkpt lat="44.9792345" lon="8.7693352"><ele>80.33333333333333</ele><time>2026-04-16T13:40:58.999Z</time></trkpt><trkpt lat="44.9792893" lon="8.769557"><ele>79.66666666666666</ele><time>2026-04-16T13:40:59.999Z</time></trkpt><trkpt lat="44.9793428" lon="8.7697658"><ele>79.0</ele><time>2026-04-16T13:41:00.999Z</time></trkpt><trkpt lat="44.979396" lon="8.7699822"><ele>78.66666666666666</ele><time>2026-04-16T13:41:01.999Z</time></trkpt><trkpt lat="44.9794445" lon="8.7702056"><ele>78.33333333333333</ele><time>2026-04-16T13:41:02.999Z</time></trkpt><trkpt lat="44.9794841" lon="8.7704227"><ele>78.0</ele><time>2026-04-16T13:41:03.999Z</time></trkpt><trkpt lat="44.9795142" lon="8.7706543"><ele>78.0</ele><time>2026-04-16T13:41:04.999Z</time></trkpt><trkpt lat="44.979529" lon="8.7708847"><ele>78.0</ele><time>2026-04-16T13:41:05.999Z</time></trkpt><trkpt lat="44.9795305" lon="8.7711358"><ele>78.0</ele><time>2026-04-16T13:41:06.999Z</time></trkpt><trkpt lat="44.9795213" lon="8.7713784"><ele>78.33333333333333</ele><time>2026-04-16T13:41:07.999Z</time></trkpt><trkpt lat="44.9795013" lon="8.7716244"><ele>78.66666666666666</ele><time>2026-04-16T13:41:08.999Z</time></trkpt><trkpt lat="44.979472" lon="8.7718655"><ele>79.0</ele><time>2026-04-16T13:41:09.999Z</time></trkpt><trkpt lat="44.9794378" lon="8.7721051"><ele>79.33333333333333</ele><time>2026-04-16T13:41:10.999Z</time></trkpt><trkpt lat="44.9794017" lon="8.7723344"><ele>79.66666666666667</ele><time>2026-04-16T13:41:11.999Z</time></trkpt><trkpt lat="44.9793667" lon="8.7725677"><ele>80.0</ele><time>2026-04-16T13:41:12.999Z</time></trkpt><trkpt lat="44.9793323" lon="8.7727953"><ele>80.0</ele><time>2026-04-16T13:41:13.999Z</time></trkpt><trkpt lat="44.9792984" lon="8.7730202"><ele>80.0</ele><time>2026-04-16T13:41:14.999Z</time></trkpt><trkpt lat="44.9792636" lon="8.7732453"><ele>80.0</ele><time>2026-04-16T13:41:15.999Z</time></trkpt><trkpt lat="44.9792267" lon="8.773464"><ele>80.0</ele><time>2026-04-16T13:41:16.999Z</time></trkpt><trkpt lat="44.9791867" lon="8.7736858"><ele>80.0</ele><time>2026-04-16T13:41:17.999Z</time></trkpt><trkpt lat="44.9791414" lon="8.7739067"><ele>80.0</ele><time>2026-04-16T13:41:18.999Z</time></trkpt><trkpt lat="44.9790917" lon="8.774128"><ele>80.33333333333334</ele><time>2026-04-16T13:41:19.999Z</time></trkpt><trkpt lat="44.979037" lon="8.7743464"><ele>80.66666666666667</ele><time>2026-04-16T13:41:20.999Z</time></trkpt><trkpt lat="44.9789775" lon="8.77457"><ele>81.0</ele><time>2026-04-16T13:41:21.999Z</time></trkpt><trkpt lat="44.9789134" lon="8.7747915"><ele>81.0</ele><time>2026-04-16T13:41:22.999Z</time></trkpt><trkpt lat="44.9788468" lon="8.7750125"><ele>81.0</ele><time>2026-04-16T13:41:23.999Z</time></trkpt><trkpt lat="44.9787765" lon="8.7752279"><ele>81.0</ele><time>2026-04-16T13:41:24.999Z</time></trkpt><trkpt lat="44.9787053" lon="8.7754424"><ele>81.0</ele><time>2026-04-16T13:41:25.999Z</time></trkpt><trkpt lat="44.978631" lon="8.7756604"><ele>81.0</ele><time>2026-04-16T13:41:26.999Z</time></trkpt><trkpt lat="44.9785552" lon="8.7758881"><ele>81.0</ele><time>2026-04-16T13:41:27.999Z</time></trkpt><trkpt lat="44.9785327" lon="8.7759727"><ele>81.0</ele><time>2026-04-16T13:41:28.999Z</time></trkpt><trkpt lat="44.9784515" lon="8.7762437"><ele>81.0</ele><time>2026-04-16T13:41:29.999Z</time></trkpt><trkpt lat="44.9783814" lon="8.7765075"><ele>81.0</ele><time>2026-04-16T13:41:30.999Z</time></trkpt><trkpt lat="44.9783335" lon="8.7767114"><ele>81.0</ele><time>2026-04-16T13:41:31.999Z</time></trkpt><trkpt lat="44.9782938" lon="8.7768903"><ele>82.0</ele><time>2026-04-16T13:41:32.999Z</time></trkpt><trkpt lat="44.9782071" lon="8.7772629"><ele>83.0</ele><time>2026-04-16T13:41:34.104Z</time></trkpt><trkpt lat="44.9781207" lon="8.777716"><ele>83.0</ele><time>2026-04-16T13:41:35.999Z</time></trkpt><trkpt lat="44.9780748" lon="8.777952"><ele>83.0</ele><time>2026-04-16T13:41:36.999Z</time></trkpt><trkpt lat="44.9780295" lon="8.7781835"><ele>83.0</ele><time>2026-04-16T13:41:37.999Z</time></trkpt><trkpt lat="44.977983" lon="8.7784181"><ele>82.5</ele><time>2026-04-16T13:41:38.999Z</time></trkpt><trkpt lat="44.9779207" lon="8.7787899"><ele>82.0</ele><time>2026-04-16T13:41:40.999Z</time></trkpt><trkpt lat="44.9778685" lon="8.779069"><ele>82.0</ele><time>2026-04-16T13:41:41.999Z</time></trkpt><trkpt lat="44.977832" lon="8.7792641"><ele>82.0</ele><time>2026-04-16T13:41:42.999Z</time></trkpt><trkpt lat="44.9777934" lon="8.779455"><ele>82.0</ele><time>2026-04-16T13:41:43.999Z</time></trkpt><trkpt lat="44.9777115" lon="8.7798788"><ele>81.5</ele><time>2026-04-16T13:41:45.109Z</time></trkpt><trkpt lat="44.977661" lon="8.780148"><ele>81.0</ele><time>2026-04-16T13:41:46.102Z</time></trkpt><trkpt lat="44.9775452" lon="8.7806978"><ele>81.0</ele><time>2026-04-16T13:41:47.999Z</time></trkpt><trkpt lat="44.9774843" lon="8.7809741"><ele>81.0</ele><time>2026-04-16T13:41:48.999Z</time></trkpt><trkpt lat="44.9774263" lon="8.7812582"><ele>81.0</ele><time>2026-04-16T13:41:50.112Z</time></trkpt><trkpt lat="44.977312" lon="8.7818296"><ele>81.33333333333333</ele><time>2026-04-16T13:41:51.999Z</time></trkpt><trkpt lat="44.9772549" lon="8.7821186"><ele>81.66666666666666</ele><time>2026-04-16T13:41:52.999Z</time></trkpt><trkpt lat="44.977197" lon="8.7824105"><ele>82.0</ele><time>2026-04-16T13:41:53.999Z</time></trkpt><trkpt lat="44.9771395" lon="8.7827021"><ele>82.5</ele><time>2026-04-16T13:41:55.1Z</time></trkpt><trkpt lat="44.9770251" lon="8.783294"><ele>83.0</ele><time>2026-04-16T13:41:56.999Z</time></trkpt><trkpt lat="44.9769688" lon="8.7835896"><ele>83.0</ele><time>2026-04-16T13:41:57.999Z</time></trkpt><trkpt lat="44.9769122" lon="8.7838828"><ele>83.0</ele><time>2026-04-16T13:41:58.999Z</time></trkpt><trkpt lat="44.9768569" lon="8.7841655"><ele>83.0</ele><time>2026-04-16T13:41:59.999Z</time></trkpt><trkpt lat="44.9767962" lon="8.7844672"><ele>83.0</ele><time>2026-04-16T13:42:00.999Z</time></trkpt><trkpt lat="44.976739" lon="8.784755"><ele>83.0</ele><time>2026-04-16T13:42:01.999Z</time></trkpt><trkpt lat="44.9766819" lon="8.7850375"><ele>83.0</ele><time>2026-04-16T13:42:02.999Z</time></trkpt><trkpt lat="44.9766249" lon="8.7853229"><ele>81.5</ele><time>2026-04-16T13:42:03.999Z</time></trkpt><trkpt lat="44.9765118" lon="8.785891"><ele>80.0</ele><time>2026-04-16T13:42:05.999Z</time></trkpt><trkpt lat="44.9764547" lon="8.786175"><ele>80.0</ele><time>2026-04-16T13:42:06.999Z</time></trkpt><trkpt lat="44.9763981" lon="8.7864626"><ele>80.0</ele><time>2026-04-16T13:42:07.999Z</time></trkpt><trkpt lat="44.9763413" lon="8.786754"><ele>80.0</ele><time>2026-04-16T13:42:08.999Z</time></trkpt><trkpt lat="44.9762861" lon="8.7870522"><ele>80.0</ele><time>2026-04-16T13:42:09.999Z</time></trkpt><trkpt lat="44.9762333" lon="8.7873327"><ele>80.0</ele><time>2026-04-16T13:42:10.999Z</time></trkpt><trkpt lat="44.9761891" lon="8.7876361"><ele>80.0</ele><time>2026-04-16T13:42:11.999Z</time></trkpt><trkpt lat="44.9761555" lon="8.787941"><ele>80.0</ele><time>2026-04-16T13:42:12.999Z</time></trkpt><trkpt lat="44.976129" lon="8.7882501"><ele>80.0</ele><time>2026-04-16T13:42:13.999Z</time></trkpt><trkpt lat="44.9761078" lon="8.7885638"><ele>80.0</ele><time>2026-04-16T13:42:14.999Z</time></trkpt><trkpt lat="44.9760888" lon="8.7888679"><ele>80.0</ele><time>2026-04-16T13:42:15.999Z</time></trkpt><trkpt lat="44.97607" lon="8.7891902"><ele>80.0</ele><time>2026-04-16T13:42:16.999Z</time></trkpt><trkpt lat="44.9760529" lon="8.7894979"><ele>80.0</ele><time>2026-04-16T13:42:17.999Z</time></trkpt><trkpt lat="44.9760372" lon="8.7897976"><ele>80.0</ele><time>2026-04-16T13:42:18.999Z</time></trkpt><trkpt lat="44.976022" lon="8.7900958"><ele>80.0</ele><time>2026-04-16T13:42:19.999Z</time></trkpt><trkpt lat="44.9760075" lon="8.7903636"><ele>80.0</ele><time>2026-04-16T13:42:20.999Z</time></trkpt><trkpt lat="44.9759923" lon="8.7906332"><ele>80.0</ele><time>2026-04-16T13:42:21.999Z</time></trkpt><trkpt lat="44.9759794" lon="8.7908893"><ele>80.0</ele><time>2026-04-16T13:42:22.999Z</time></trkpt><trkpt lat="44.975968" lon="8.7911224"><ele>80.0</ele><time>2026-04-16T13:42:23.999Z</time></trkpt><trkpt lat="44.9759552" lon="8.7913555"><ele>80.33333333333334</ele><time>2026-04-16T13:42:24.999Z</time></trkpt><trkpt lat="44.9759404" lon="8.7915821"><ele>80.66666666666667</ele><time>2026-04-16T13:42:25.999Z</time></trkpt><trkpt lat="44.9759245" lon="8.7918157"><ele>81.0</ele><time>2026-04-16T13:42:26.999Z</time></trkpt><trkpt lat="44.9759074" lon="8.7920575"><ele>81.0</ele><time>2026-04-16T13:42:27.999Z</time></trkpt><trkpt lat="44.9758897" lon="8.7923061"><ele>81.0</ele><time>2026-04-16T13:42:29.104Z</time></trkpt><trkpt lat="44.9758699" lon="8.7925675"><ele>81.0</ele><time>2026-04-16T13:42:30.101Z</time></trkpt><trkpt lat="44.9758199" lon="8.7931096"><ele>81.0</ele><time>2026-04-16T13:42:31.999Z</time></trkpt><trkpt lat="44.9757876" lon="8.7933971"><ele>81.0</ele><time>2026-04-16T13:42:32.999Z</time></trkpt><trkpt lat="44.9757521" lon="8.7936878"><ele>81.0</ele><time>2026-04-16T13:42:33.999Z</time></trkpt><trkpt lat="44.9757147" lon="8.7939792"><ele>81.0</ele><time>2026-04-16T13:42:34.999Z</time></trkpt><trkpt lat="44.9756781" lon="8.7942643"><ele>81.0</ele><time>2026-04-16T13:42:35.999Z</time></trkpt><trkpt lat="44.9756409" lon="8.7945365"><ele>81.0</ele><time>2026-04-16T13:42:36.999Z</time></trkpt><trkpt lat="44.9756057" lon="8.7947962"><ele>81.0</ele><time>2026-04-16T13:42:37.999Z</time></trkpt><trkpt lat="44.9755724" lon="8.7950461"><ele>81.0</ele><time>2026-04-16T13:42:38.999Z</time></trkpt><trkpt lat="44.9755422" lon="8.7952732"><ele>81.0</ele><time>2026-04-16T13:42:40.116Z</time></trkpt><trkpt lat="44.9755123" lon="8.7955034"><ele>82.0</ele><time>2026-04-16T13:42:41.107Z</time></trkpt><trkpt lat="44.9754547" lon="8.7959563"><ele>83.0</ele><time>2026-04-16T13:42:42.999Z</time></trkpt><trkpt lat="44.9754241" lon="8.7961901"><ele>83.0</ele><time>2026-04-16T13:42:43.999Z</time></trkpt><trkpt lat="44.9753938" lon="8.7964277"><ele>83.0</ele><time>2026-04-16T13:42:44.999Z</time></trkpt><trkpt lat="44.9753639" lon="8.796666"><ele>83.0</ele><time>2026-04-16T13:42:45.999Z</time></trkpt><trkpt lat="44.9753336" lon="8.7969058"><ele>83.0</ele><time>2026-04-16T13:42:46.999Z</time></trkpt><trkpt lat="44.9753047" lon="8.7971445"><ele>83.0</ele><time>2026-04-16T13:42:47.999Z</time></trkpt><trkpt lat="44.975275" lon="8.7973803"><ele>83.0</ele><time>2026-04-16T13:42:49.104Z</time></trkpt><trkpt lat="44.9752182" lon="8.7978501"><ele>82.5</ele><time>2026-04-16T13:42:51.109Z</time></trkpt><trkpt lat="44.9751664" lon="8.7983208"><ele>82.0</ele><time>2026-04-16T13:42:52.999Z</time></trkpt><trkpt lat="44.9751402" lon="8.7985558"><ele>82.0</ele><time>2026-04-16T13:42:53.999Z</time></trkpt><trkpt lat="44.9751125" lon="8.7987991"><ele>82.0</ele><time>2026-04-16T13:42:54.999Z</time></trkpt><trkpt lat="44.9750859" lon="8.7990354"><ele>82.0</ele><time>2026-04-16T13:42:55.999Z</time></trkpt><trkpt lat="44.9750566" lon="8.7992851"><ele>82.5</ele><time>2026-04-16T13:42:56.999Z</time></trkpt><trkpt lat="44.9750434" lon="8.7994071"><ele>83.0</ele><time>2026-04-16T13:42:58.999Z</time></trkpt><trkpt lat="44.9750162" lon="8.7996483"><ele>83.5</ele><time>2026-04-16T13:42:59.999Z</time></trkpt><trkpt lat="44.9749894" lon="8.7998911"><ele>84.0</ele><time>2026-04-16T13:43:00.999Z</time></trkpt><trkpt lat="44.9749594" lon="8.8001425"><ele>84.0</ele><time>2026-04-16T13:43:01.999Z</time></trkpt><trkpt lat="44.9749223" lon="8.8004594"><ele>84.0</ele><time>2026-04-16T13:43:02.999Z</time></trkpt><trkpt lat="44.9748622" lon="8.8009676"><ele>84.33333333333333</ele><time>2026-04-16T13:43:03.999Z</time></trkpt><trkpt lat="44.974835" lon="8.8012024"><ele>84.66666666666666</ele><time>2026-04-16T13:43:04.999Z</time></trkpt><trkpt lat="44.9748093" lon="8.8014267"><ele>85.0</ele><time>2026-04-16T13:43:05.999Z</time></trkpt><trkpt lat="44.9747831" lon="8.8016518"><ele>84.33333333333333</ele><time>2026-04-16T13:43:06.999Z</time></trkpt><trkpt lat="44.9747576" lon="8.8018773"><ele>83.66666666666667</ele><time>2026-04-16T13:43:07.999Z</time></trkpt><trkpt lat="44.9747304" lon="8.8021023"><ele>83.0</ele><time>2026-04-16T13:43:08.999Z</time></trkpt><trkpt lat="44.9747038" lon="8.8023317"><ele>83.0</ele><time>2026-04-16T13:43:09.999Z</time></trkpt><trkpt lat="44.9746771" lon="8.8025619"><ele>83.0</ele><time>2026-04-16T13:43:10.999Z</time></trkpt><trkpt lat="44.9746535" lon="8.8027764"><ele>83.0</ele><time>2026-04-16T13:43:11.999Z</time></trkpt><trkpt lat="44.9746305" lon="8.8029989"><ele>83.0</ele><time>2026-04-16T13:43:12.999Z</time></trkpt><trkpt lat="44.9746077" lon="8.8032133"><ele>83.0</ele><time>2026-04-16T13:43:13.999Z</time></trkpt><trkpt lat="44.9745844" lon="8.803421"><ele>83.0</ele><time>2026-04-16T13:43:14.999Z</time></trkpt><trkpt lat="44.9745595" lon="8.8036399"><ele>83.0</ele><time>2026-04-16T13:43:15.999Z</time></trkpt><trkpt lat="44.9745365" lon="8.803838"><ele>83.0</ele><time>2026-04-16T13:43:16.999Z</time></trkpt><trkpt lat="44.9745124" lon="8.8040418"><ele>83.0</ele><time>2026-04-16T13:43:17.999Z</time></trkpt><trkpt lat="44.9744888" lon="8.8042481"><ele>83.0</ele><time>2026-04-16T13:43:18.999Z</time></trkpt><trkpt lat="44.9744669" lon="8.8044419"><ele>83.0</ele><time>2026-04-16T13:43:19.999Z</time></trkpt><trkpt lat="44.9744448" lon="8.8046463"><ele>83.0</ele><time>2026-04-16T13:43:20.999Z</time></trkpt><trkpt lat="44.9744222" lon="8.8048429"><ele>83.0</ele><time>2026-04-16T13:43:21.999Z</time></trkpt><trkpt lat="44.9743985" lon="8.8050403"><ele>83.0</ele><time>2026-04-16T13:43:22.999Z</time></trkpt><trkpt lat="44.9743742" lon="8.8052365"><ele>83.25</ele><time>2026-04-16T13:43:23.999Z</time></trkpt><trkpt lat="44.97435" lon="8.8054371"><ele>83.5</ele><time>2026-04-16T13:43:24.999Z</time></trkpt><trkpt lat="44.9743258" lon="8.8056388"><ele>83.75</ele><time>2026-04-16T13:43:25.999Z</time></trkpt><trkpt lat="44.9743023" lon="8.8058381"><ele>84.0</ele><time>2026-04-16T13:43:26.999Z</time></trkpt><trkpt lat="44.9742786" lon="8.8060387"><ele>84.0</ele><time>2026-04-16T13:43:27.999Z</time></trkpt><trkpt lat="44.9742559" lon="8.8062365"><ele>84.0</ele><time>2026-04-16T13:43:28.999Z</time></trkpt><trkpt lat="44.9742325" lon="8.8064384"><ele>84.0</ele><time>2026-04-16T13:43:29.999Z</time></trkpt><trkpt lat="44.9742111" lon="8.806637"><ele>84.0</ele><time>2026-04-16T13:43:30.999Z</time></trkpt><trkpt lat="44.9741891" lon="8.8068351"><ele>84.25</ele><time>2026-04-16T13:43:31.999Z</time></trkpt><trkpt lat="44.9741678" lon="8.8070296"><ele>84.5</ele><time>2026-04-16T13:43:32.999Z</time></trkpt><trkpt lat="44.9741453" lon="8.8072304"><ele>84.75</ele><time>2026-04-16T13:43:33.999Z</time></trkpt><trkpt lat="44.9741213" lon="8.8074314"><ele>85.0</ele><time>2026-04-16T13:43:34.999Z</time></trkpt><trkpt lat="44.9740977" lon="8.8076285"><ele>84.75</ele><time>2026-04-16T13:43:35.999Z</time></trkpt><trkpt lat="44.9740731" lon="8.8078378"><ele>84.5</ele><time>2026-04-16T13:43:36.999Z</time></trkpt><trkpt lat="44.9740499" lon="8.8080418"><ele>84.25</ele><time>2026-04-16T13:43:37.999Z</time></trkpt><trkpt lat="44.9740286" lon="8.8082359"><ele>84.0</ele><time>2026-04-16T13:43:38.999Z</time></trkpt><trkpt lat="44.9740065" lon="8.8084327"><ele>83.75</ele><time>2026-04-16T13:43:39.999Z</time></trkpt><trkpt lat="44.9739872" lon="8.8086073"><ele>83.5</ele><time>2026-04-16T13:43:40.999Z</time></trkpt><trkpt lat="44.9739678" lon="8.808782"><ele>83.25</ele><time>2026-04-16T13:43:41.999Z</time></trkpt><trkpt lat="44.9739481" lon="8.8089576"><ele>83.0</ele><time>2026-04-16T13:43:42.999Z</time></trkpt><trkpt lat="44.9739272" lon="8.8091335"><ele>83.0</ele><time>2026-04-16T13:43:43.999Z</time></trkpt><trkpt lat="44.9739058" lon="8.8093179"><ele>83.0</ele><time>2026-04-16T13:43:44.999Z</time></trkpt><trkpt lat="44.973884" lon="8.8095102"><ele>83.0</ele><time>2026-04-16T13:43:45.999Z</time></trkpt><trkpt lat="44.9738603" lon="8.8097017"><ele>83.0</ele><time>2026-04-16T13:43:46.999Z</time></trkpt><trkpt lat="44.9738342" lon="8.8099065"><ele>83.5</ele><time>2026-04-16T13:43:47.999Z</time></trkpt><trkpt lat="44.9738098" lon="8.8101009"><ele>84.0</ele><time>2026-04-16T13:43:48.999Z</time></trkpt><trkpt lat="44.9737848" lon="8.8103078"><ele>84.5</ele><time>2026-04-16T13:43:49.999Z</time></trkpt><trkpt lat="44.9737586" lon="8.8105121"><ele>85.0</ele><time>2026-04-16T13:43:50.999Z</time></trkpt><trkpt lat="44.9737356" lon="8.8106996"><ele>85.25</ele><time>2026-04-16T13:43:51.999Z</time></trkpt><trkpt lat="44.9737118" lon="8.8108835"><ele>85.5</ele><time>2026-04-16T13:43:52.999Z</time></trkpt><trkpt lat="44.9736841" lon="8.8110374"><ele>85.75</ele><time>2026-04-16T13:43:54.107Z</time></trkpt><trkpt lat="44.973619" lon="8.8112696"><ele>86.0</ele><time>2026-04-16T13:43:55.999Z</time></trkpt><trkpt lat="44.9735577" lon="8.8114083"><ele>86.0</ele><time>2026-04-16T13:43:57.999Z</time></trkpt><trkpt lat="44.9734898" lon="8.8115137"><ele>86.0</ele><time>2026-04-16T13:44:00.104Z</time></trkpt><trkpt lat="44.9733475" lon="8.8116009"><ele>86.0</ele><time>2026-04-16T13:44:01.999Z</time></trkpt><trkpt lat="44.9732577" lon="8.8116253"><ele>86.0</ele><time>2026-04-16T13:44:02.999Z</time></trkpt><trkpt lat="44.9731568" lon="8.8116542"><ele>86.0</ele><time>2026-04-16T13:44:04.113Z</time></trkpt><trkpt lat="44.9729214" lon="8.8117198"><ele>86.0</ele><time>2026-04-16T13:44:05.999Z</time></trkpt><trkpt lat="44.9727963" lon="8.811761"><ele>86.0</ele><time>2026-04-16T13:44:06.999Z</time></trkpt><trkpt lat="44.9726715" lon="8.8118013"><ele>86.0</ele><time>2026-04-16T13:44:07.999Z</time></trkpt><trkpt lat="44.9725339" lon="8.81185"><ele>86.0</ele><time>2026-04-16T13:44:08.999Z</time></trkpt><trkpt lat="44.9723965" lon="8.8118969"><ele>86.0</ele><time>2026-04-16T13:44:10.121Z</time></trkpt><trkpt lat="44.9721151" lon="8.8119954"><ele>86.0</ele><time>2026-04-16T13:44:11.999Z</time></trkpt><trkpt lat="44.9719751" lon="8.8120462"><ele>86.0</ele><time>2026-04-16T13:44:12.999Z</time></trkpt><trkpt lat="44.9718267" lon="8.8121006"><ele>86.0</ele><time>2026-04-16T13:44:13.999Z</time></trkpt><trkpt lat="44.9716784" lon="8.8121572"><ele>86.33333333333334</ele><time>2026-04-16T13:44:14.999Z</time></trkpt><trkpt lat="44.9715384" lon="8.8122149"><ele>86.66666666666667</ele><time>2026-04-16T13:44:15.999Z</time></trkpt><trkpt lat="44.9713858" lon="8.8122717"><ele>87.0</ele><time>2026-04-16T13:44:16.999Z</time></trkpt><trkpt lat="44.9712384" lon="8.8123277"><ele>87.0</ele><time>2026-04-16T13:44:17.999Z</time></trkpt><trkpt lat="44.9710921" lon="8.8123801"><ele>87.0</ele><time>2026-04-16T13:44:18.999Z</time></trkpt><trkpt lat="44.9709392" lon="8.8124243"><ele>87.0</ele><time>2026-04-16T13:44:21.998Z</time></trkpt><trkpt lat="44.970773" lon="8.8124789"><ele>87.0</ele><time>2026-04-16T13:44:22.999Z</time></trkpt><trkpt lat="44.9706483" lon="8.8125262"><ele>87.0</ele><time>2026-04-16T13:44:23.999Z</time></trkpt><trkpt lat="44.9705271" lon="8.8125754"><ele>87.0</ele><time>2026-04-16T13:44:24.999Z</time></trkpt><trkpt lat="44.970404" lon="8.8126266"><ele>87.0</ele><time>2026-04-16T13:44:25.999Z</time></trkpt><trkpt lat="44.9702129" lon="8.8127064"><ele>86.0</ele><time>2026-04-16T13:44:26.999Z</time></trkpt><trkpt lat="44.9698758" lon="8.812835"><ele>85.0</ele><time>2026-04-16T13:44:27.999Z</time></trkpt><trkpt lat="44.969753" lon="8.8128838"><ele>85.0</ele><time>2026-04-16T13:44:28.999Z</time></trkpt><trkpt lat="44.9696314" lon="8.8129275"><ele>85.0</ele><time>2026-04-16T13:44:29.999Z</time></trkpt><trkpt lat="44.9695104" lon="8.81297"><ele>85.0</ele><time>2026-04-16T13:44:30.999Z</time></trkpt><trkpt lat="44.9693927" lon="8.8130137"><ele>85.0</ele><time>2026-04-16T13:44:31.999Z</time></trkpt><trkpt lat="44.9692338" lon="8.8130562"><ele>85.0</ele><time>2026-04-16T13:44:33.999Z</time></trkpt><trkpt lat="44.9690359" lon="8.8131238"><ele>85.0</ele><time>2026-04-16T13:44:34.999Z</time></trkpt><trkpt lat="44.9689112" lon="8.8131715"><ele>85.0</ele><time>2026-04-16T13:44:35.999Z</time></trkpt><trkpt lat="44.9687877" lon="8.8132216"><ele>85.0</ele><time>2026-04-16T13:44:36.999Z</time></trkpt><trkpt lat="44.9686956" lon="8.8132582"><ele>85.0</ele><time>2026-04-16T13:44:37.999Z</time></trkpt><trkpt lat="44.9684103" lon="8.8133849"><ele>85.0</ele><time>2026-04-16T13:44:39.999Z</time></trkpt><trkpt lat="44.9682835" lon="8.8134385"><ele>85.75</ele><time>2026-04-16T13:44:40.999Z</time></trkpt><trkpt lat="44.968161" lon="8.8134913"><ele>86.5</ele><time>2026-04-16T13:44:41.999Z</time></trkpt><trkpt lat="44.9680375" lon="8.813543"><ele>87.25</ele><time>2026-04-16T13:44:42.999Z</time></trkpt><trkpt lat="44.9679109" lon="8.8135918"><ele>88.0</ele><time>2026-04-16T13:44:43.999Z</time></trkpt><trkpt lat="44.9677832" lon="8.8136377"><ele>88.0</ele><time>2026-04-16T13:44:44.999Z</time></trkpt><trkpt lat="44.9676518" lon="8.8136862"><ele>88.0</ele><time>2026-04-16T13:44:45.999Z</time></trkpt><trkpt lat="44.9675177" lon="8.8137413"><ele>88.0</ele><time>2026-04-16T13:44:46.999Z</time></trkpt><trkpt lat="44.9673839" lon="8.8137948"><ele>88.0</ele><time>2026-04-16T13:44:47.999Z</time></trkpt><trkpt lat="44.9672533" lon="8.813848"><ele>88.0</ele><time>2026-04-16T13:44:48.999Z</time></trkpt><trkpt lat="44.9671217" lon="8.8139016"><ele>88.0</ele><time>2026-04-16T13:44:49.999Z</time></trkpt><trkpt lat="44.9669909" lon="8.8139515"><ele>88.0</ele><time>2026-04-16T13:44:50.999Z</time></trkpt><trkpt lat="44.9668574" lon="8.8140024"><ele>88.0</ele><time>2026-04-16T13:44:51.999Z</time></trkpt><trkpt lat="44.9667295" lon="8.8140521"><ele>88.0</ele><time>2026-04-16T13:44:52.999Z</time></trkpt><trkpt lat="44.9665637" lon="8.8141113"><ele>88.0</ele><time>2026-04-16T13:44:54.999Z</time></trkpt><trkpt lat="44.9663683" lon="8.814178"><ele>88.0</ele><time>2026-04-16T13:44:55.999Z</time></trkpt><trkpt lat="44.966223" lon="8.8142334"><ele>88.0</ele><time>2026-04-16T13:44:56.999Z</time></trkpt><trkpt lat="44.9661328" lon="8.8142752"><ele>88.0</ele><time>2026-04-16T13:44:57.999Z</time></trkpt><trkpt lat="44.96604" lon="8.8143217"><ele>88.0</ele><time>2026-04-16T13:44:58.999Z</time></trkpt><trkpt lat="44.9657888" lon="8.814421"><ele>88.0</ele><time>2026-04-16T13:44:59.999Z</time></trkpt><trkpt lat="44.9656517" lon="8.8144705"><ele>88.0</ele><time>2026-04-16T13:45:00.999Z</time></trkpt><trkpt lat="44.9655172" lon="8.814517"><ele>88.0</ele><time>2026-04-16T13:45:01.999Z</time></trkpt><trkpt lat="44.965382" lon="8.8145653"><ele>88.0</ele><time>2026-04-16T13:45:02.999Z</time></trkpt><trkpt lat="44.96522" lon="8.8146192"><ele>88.0</ele><time>2026-04-16T13:45:04.999Z</time></trkpt><trkpt lat="44.9650745" lon="8.8146733"><ele>88.0</ele><time>2026-04-16T13:45:05.999Z</time></trkpt><trkpt lat="44.9649534" lon="8.8147212"><ele>88.0</ele><time>2026-04-16T13:45:06.999Z</time></trkpt><trkpt lat="44.9648075" lon="8.8147841"><ele>88.0</ele><time>2026-04-16T13:45:07.999Z</time></trkpt><trkpt lat="44.9645665" lon="8.8148813"><ele>88.0</ele><time>2026-04-16T13:45:08.999Z</time></trkpt><trkpt lat="44.9644337" lon="8.8149334"><ele>88.0</ele><time>2026-04-16T13:45:09.999Z</time></trkpt><trkpt lat="44.964298" lon="8.8149871"><ele>88.0</ele><time>2026-04-16T13:45:10.999Z</time></trkpt><trkpt lat="44.9641624" lon="8.8150402"><ele>88.0</ele><time>2026-04-16T13:45:11.999Z</time></trkpt><trkpt lat="44.9640261" lon="8.8150952"><ele>88.25</ele><time>2026-04-16T13:45:12.999Z</time></trkpt><trkpt lat="44.9638903" lon="8.8151495"><ele>88.5</ele><time>2026-04-16T13:45:13.999Z</time></trkpt><trkpt lat="44.9637581" lon="8.8151983"><ele>88.75</ele><time>2026-04-16T13:45:14.999Z</time></trkpt><trkpt lat="44.9636204" lon="8.815251"><ele>89.0</ele><time>2026-04-16T13:45:15.999Z</time></trkpt><trkpt lat="44.9634902" lon="8.8153005"><ele>88.75</ele><time>2026-04-16T13:45:16.999Z</time></trkpt><trkpt lat="44.963354" lon="8.8153544"><ele>88.5</ele><time>2026-04-16T13:45:17.999Z</time></trkpt><trkpt lat="44.9632176" lon="8.8154073"><ele>88.25</ele><time>2026-04-16T13:45:18.999Z</time></trkpt><trkpt lat="44.9630831" lon="8.8154555"><ele>88.0</ele><time>2026-04-16T13:45:19.999Z</time></trkpt><trkpt lat="44.9629379" lon="8.8155131"><ele>88.0</ele><time>2026-04-16T13:45:20.999Z</time></trkpt><trkpt lat="44.9627965" lon="8.8155663"><ele>88.0</ele><time>2026-04-16T13:45:21.999Z</time></trkpt><trkpt lat="44.9626529" lon="8.8156209"><ele>88.0</ele><time>2026-04-16T13:45:22.999Z</time></trkpt><trkpt lat="44.9625093" lon="8.8156779"><ele>88.0</ele><time>2026-04-16T13:45:23.999Z</time></trkpt><trkpt lat="44.9623609" lon="8.8157371"><ele>88.0</ele><time>2026-04-16T13:45:24.999Z</time></trkpt><trkpt lat="44.9622109" lon="8.8157958"><ele>88.0</ele><time>2026-04-16T13:45:25.999Z</time></trkpt><trkpt lat="44.9620612" lon="8.8158532"><ele>88.0</ele><time>2026-04-16T13:45:26.999Z</time></trkpt><trkpt lat="44.9619104" lon="8.8159096"><ele>88.0</ele><time>2026-04-16T13:45:27.999Z</time></trkpt><trkpt lat="44.9617454" lon="8.8159723"><ele>88.0</ele><time>2026-04-16T13:45:28.999Z</time></trkpt><trkpt lat="44.9615832" lon="8.8160312"><ele>88.0</ele><time>2026-04-16T13:45:29.999Z</time></trkpt><trkpt lat="44.9614197" lon="8.8160968"><ele>88.66666666666666</ele><time>2026-04-16T13:45:30.999Z</time></trkpt><trkpt lat="44.9612497" lon="8.8161638"><ele>89.33333333333333</ele><time>2026-04-16T13:45:31.999Z</time></trkpt><trkpt lat="44.961084" lon="8.8162302"><ele>90.0</ele><time>2026-04-16T13:45:32.999Z</time></trkpt><trkpt lat="44.9609134" lon="8.8162947"><ele>89.66666666666667</ele><time>2026-04-16T13:45:33.999Z</time></trkpt><trkpt lat="44.9607438" lon="8.8163602"><ele>89.33333333333334</ele><time>2026-04-16T13:45:34.999Z</time></trkpt><trkpt lat="44.9605786" lon="8.8164277"><ele>89.0</ele><time>2026-04-16T13:45:35.999Z</time></trkpt><trkpt lat="44.9604031" lon="8.8164953"><ele>89.0</ele><time>2026-04-16T13:45:36.999Z</time></trkpt><trkpt lat="44.9602282" lon="8.8165647"><ele>89.0</ele><time>2026-04-16T13:45:37.999Z</time></trkpt><trkpt lat="44.9600534" lon="8.8166335"><ele>89.0</ele><time>2026-04-16T13:45:38.999Z</time></trkpt><trkpt lat="44.9598737" lon="8.8167052"><ele>89.0</ele><time>2026-04-16T13:45:39.999Z</time></trkpt><trkpt lat="44.9596868" lon="8.8167792"><ele>89.0</ele><time>2026-04-16T13:45:40.999Z</time></trkpt><trkpt lat="44.9594972" lon="8.816851"><ele>89.0</ele><time>2026-04-16T13:45:41.999Z</time></trkpt><trkpt lat="44.9593129" lon="8.8169218"><ele>89.33333333333334</ele><time>2026-04-16T13:45:42.999Z</time></trkpt><trkpt lat="44.9591311" lon="8.8169901"><ele>89.66666666666667</ele><time>2026-04-16T13:45:44.115Z</time></trkpt><trkpt lat="44.9589502" lon="8.8170606"><ele>90.0</ele><time>2026-04-16T13:45:45.114Z</time></trkpt><trkpt lat="44.9585846" lon="8.8172034"><ele>90.0</ele><time>2026-04-16T13:45:46.999Z</time></trkpt><trkpt lat="44.9584009" lon="8.8172731"><ele>90.0</ele><time>2026-04-16T13:45:47.999Z</time></trkpt><trkpt lat="44.9582187" lon="8.8173429"><ele>90.0</ele><time>2026-04-16T13:45:48.999Z</time></trkpt><trkpt lat="44.9580368" lon="8.8174102"><ele>90.66666666666667</ele><time>2026-04-16T13:45:49.999Z</time></trkpt><trkpt lat="44.9578589" lon="8.8174779"><ele>91.33333333333334</ele><time>2026-04-16T13:45:50.999Z</time></trkpt><trkpt lat="44.9576829" lon="8.8175448"><ele>92.0</ele><time>2026-04-16T13:45:51.999Z</time></trkpt><trkpt lat="44.9574952" lon="8.8176152"><ele>92.0</ele><time>2026-04-16T13:45:52.999Z</time></trkpt><trkpt lat="44.957303" lon="8.8176877"><ele>92.0</ele><time>2026-04-16T13:45:53.999Z</time></trkpt><trkpt lat="44.9571098" lon="8.8177601"><ele>92.0</ele><time>2026-04-16T13:45:54.999Z</time></trkpt><trkpt lat="44.9569086" lon="8.8178359"><ele>92.0</ele><time>2026-04-16T13:45:55.999Z</time></trkpt><trkpt lat="44.9567174" lon="8.8179098"><ele>92.0</ele><time>2026-04-16T13:45:56.999Z</time></trkpt><trkpt lat="44.9565174" lon="8.817986"><ele>92.0</ele><time>2026-04-16T13:45:57.999Z</time></trkpt><trkpt lat="44.9563117" lon="8.818064"><ele>92.33333333333334</ele><time>2026-04-16T13:45:58.999Z</time></trkpt><trkpt lat="44.9561102" lon="8.818142"><ele>92.66666666666667</ele><time>2026-04-16T13:45:59.999Z</time></trkpt><trkpt lat="44.9558938" lon="8.8182247"><ele>93.0</ele><time>2026-04-16T13:46:00.999Z</time></trkpt><trkpt lat="44.9556846" lon="8.8183058"><ele>93.0</ele><time>2026-04-16T13:46:01.999Z</time></trkpt><trkpt lat="44.9554767" lon="8.818387"><ele>93.0</ele><time>2026-04-16T13:46:02.999Z</time></trkpt><trkpt lat="44.9552689" lon="8.8184682"><ele>93.0</ele><time>2026-04-16T13:46:03.999Z</time></trkpt><trkpt lat="44.9550582" lon="8.8185498"><ele>92.66666666666667</ele><time>2026-04-16T13:46:04.999Z</time></trkpt><trkpt lat="44.9548533" lon="8.8186286"><ele>92.33333333333334</ele><time>2026-04-16T13:46:05.999Z</time></trkpt><trkpt lat="44.9546503" lon="8.8187052"><ele>92.0</ele><time>2026-04-16T13:46:06.999Z</time></trkpt><trkpt lat="44.9544466" lon="8.8187797"><ele>92.0</ele><time>2026-04-16T13:46:07.999Z</time></trkpt><trkpt lat="44.954246" lon="8.8188555"><ele>92.0</ele><time>2026-04-16T13:46:08.999Z</time></trkpt><trkpt lat="44.9540508" lon="8.8189304"><ele>92.0</ele><time>2026-04-16T13:46:09.999Z</time></trkpt><trkpt lat="44.9538602" lon="8.8190029"><ele>92.0</ele><time>2026-04-16T13:46:10.999Z</time></trkpt><trkpt lat="44.9536661" lon="8.8190766"><ele>92.0</ele><time>2026-04-16T13:46:11.999Z</time></trkpt><trkpt lat="44.9534788" lon="8.8191461"><ele>92.0</ele><time>2026-04-16T13:46:12.999Z</time></trkpt><trkpt lat="44.9532824" lon="8.819221"><ele>92.33333333333334</ele><time>2026-04-16T13:46:13.999Z</time></trkpt><trkpt lat="44.9530813" lon="8.8192967"><ele>92.66666666666667</ele><time>2026-04-16T13:46:14.999Z</time></trkpt><trkpt lat="44.9528818" lon="8.8193733"><ele>93.0</ele><time>2026-04-16T13:46:15.999Z</time></trkpt><trkpt lat="44.9526688" lon="8.8194555"><ele>93.0</ele><time>2026-04-16T13:46:16.999Z</time></trkpt><trkpt lat="44.9524671" lon="8.8195341"><ele>93.0</ele><time>2026-04-16T13:46:17.999Z</time></trkpt><trkpt lat="44.9522739" lon="8.8196084"><ele>93.0</ele><time>2026-04-16T13:46:18.999Z</time></trkpt><trkpt lat="44.9520833" lon="8.8196795"><ele>93.0</ele><time>2026-04-16T13:46:19.999Z</time></trkpt><trkpt lat="44.9518931" lon="8.8197519"><ele>93.0</ele><time>2026-04-16T13:46:20.999Z</time></trkpt><trkpt lat="44.9517009" lon="8.8198235"><ele>93.0</ele><time>2026-04-16T13:46:21.999Z</time></trkpt><trkpt lat="44.9515103" lon="8.8198959"><ele>93.33333333333333</ele><time>2026-04-16T13:46:22.999Z</time></trkpt><trkpt lat="44.9513169" lon="8.8199683"><ele>93.66666666666666</ele><time>2026-04-16T13:46:23.999Z</time></trkpt><trkpt lat="44.9511234" lon="8.8200428"><ele>94.0</ele><time>2026-04-16T13:46:24.999Z</time></trkpt><trkpt lat="44.9509354" lon="8.8201143"><ele>93.66666666666666</ele><time>2026-04-16T13:46:25.999Z</time></trkpt><trkpt lat="44.9507466" lon="8.8201871"><ele>93.33333333333333</ele><time>2026-04-16T13:46:26.999Z</time></trkpt><trkpt lat="44.9505588" lon="8.8202569"><ele>93.0</ele><time>2026-04-16T13:46:27.999Z</time></trkpt><trkpt lat="44.9503731" lon="8.8203254"><ele>93.0</ele><time>2026-04-16T13:46:28.999Z</time></trkpt><trkpt lat="44.9501874" lon="8.8203955"><ele>93.0</ele><time>2026-04-16T13:46:29.999Z</time></trkpt><trkpt lat="44.9500085" lon="8.8204635"><ele>93.0</ele><time>2026-04-16T13:46:31.106Z</time></trkpt><trkpt lat="44.949667" lon="8.8205928"><ele>93.33333333333333</ele><time>2026-04-16T13:46:32.999Z</time></trkpt><trkpt lat="44.9494965" lon="8.8206552"><ele>93.66666666666666</ele><time>2026-04-16T13:46:33.999Z</time></trkpt><trkpt lat="44.949328" lon="8.8207176"><ele>94.0</ele><time>2026-04-16T13:46:34.999Z</time></trkpt><trkpt lat="44.9491487" lon="8.8207847"><ele>94.0</ele><time>2026-04-16T13:46:35.999Z</time></trkpt><trkpt lat="44.9489808" lon="8.8208502"><ele>94.0</ele><time>2026-04-16T13:46:36.999Z</time></trkpt><trkpt lat="44.9488071" lon="8.8209153"><ele>94.0</ele><time>2026-04-16T13:46:37.999Z</time></trkpt><trkpt lat="44.9486369" lon="8.8209805"><ele>94.0</ele><time>2026-04-16T13:46:38.999Z</time></trkpt><trkpt lat="44.9484706" lon="8.8210456"><ele>94.0</ele><time>2026-04-16T13:46:39.999Z</time></trkpt><trkpt lat="44.9482915" lon="8.821112"><ele>94.0</ele><time>2026-04-16T13:46:40.999Z</time></trkpt><trkpt lat="44.9481182" lon="8.8211774"><ele>94.0</ele><time>2026-04-16T13:46:41.999Z</time></trkpt><trkpt lat="44.9479461" lon="8.8212405"><ele>94.0</ele><time>2026-04-16T13:46:42.999Z</time></trkpt><trkpt lat="44.9477727" lon="8.8213082"><ele>94.0</ele><time>2026-04-16T13:46:43.999Z</time></trkpt><trkpt lat="44.9476084" lon="8.8213732"><ele>94.0</ele><time>2026-04-16T13:46:44.999Z</time></trkpt><trkpt lat="44.9474438" lon="8.8214384"><ele>94.0</ele><time>2026-04-16T13:46:45.999Z</time></trkpt><trkpt lat="44.9472786" lon="8.8215028"><ele>94.0</ele><time>2026-04-16T13:46:46.999Z</time></trkpt><trkpt lat="44.9471082" lon="8.8215668"><ele>94.0</ele><time>2026-04-16T13:46:47.999Z</time></trkpt><trkpt lat="44.946941" lon="8.8216302"><ele>94.0</ele><time>2026-04-16T13:46:49.115Z</time></trkpt><trkpt lat="44.9466008" lon="8.8217609"><ele>94.33333333333333</ele><time>2026-04-16T13:46:50.999Z</time></trkpt><trkpt lat="44.9464289" lon="8.8218259"><ele>94.66666666666667</ele><time>2026-04-16T13:46:51.999Z</time></trkpt><trkpt lat="44.9462601" lon="8.8218886"><ele>95.0</ele><time>2026-04-16T13:46:52.999Z</time></trkpt><trkpt lat="44.9460862" lon="8.8219525"><ele>94.5</ele><time>2026-04-16T13:46:54.139Z</time></trkpt><trkpt lat="44.9457431" lon="8.8220802"><ele>94.0</ele><time>2026-04-16T13:46:55.999Z</time></trkpt><trkpt lat="44.9455627" lon="8.8221468"><ele>94.0</ele><time>2026-04-16T13:46:56.999Z</time></trkpt><trkpt lat="44.9453845" lon="8.8222122"><ele>94.0</ele><time>2026-04-16T13:46:57.999Z</time></trkpt><trkpt lat="44.9452065" lon="8.8222799"><ele>94.0</ele><time>2026-04-16T13:46:58.999Z</time></trkpt><trkpt lat="44.9450271" lon="8.8223494"><ele>94.0</ele><time>2026-04-16T13:46:59.999Z</time></trkpt><trkpt lat="44.9448565" lon="8.8224135"><ele>94.0</ele><time>2026-04-16T13:47:00.999Z</time></trkpt><trkpt lat="44.9446818" lon="8.8224815"><ele>94.0</ele><time>2026-04-16T13:47:01.999Z</time></trkpt><trkpt lat="44.9445074" lon="8.8225497"><ele>94.0</ele><time>2026-04-16T13:47:02.999Z</time></trkpt><trkpt lat="44.9443378" lon="8.822617"><ele>94.0</ele><time>2026-04-16T13:47:03.999Z</time></trkpt><trkpt lat="44.9441551" lon="8.8226896"><ele>94.0</ele><time>2026-04-16T13:47:04.999Z</time></trkpt><trkpt lat="44.9439778" lon="8.8227565"><ele>94.0</ele><time>2026-04-16T13:47:05.999Z</time></trkpt><trkpt lat="44.9438007" lon="8.8228233"><ele>94.0</ele><time>2026-04-16T13:47:06.999Z</time></trkpt><trkpt lat="44.943624" lon="8.8228919"><ele>94.0</ele><time>2026-04-16T13:47:07.999Z</time></trkpt><trkpt lat="44.9434483" lon="8.8229586"><ele>95.5</ele><time>2026-04-16T13:47:08.999Z</time></trkpt><trkpt lat="44.9432683" lon="8.8230269"><ele>97.0</ele><time>2026-04-16T13:47:09.999Z</time></trkpt><trkpt lat="44.942954" lon="8.8231478"><ele>97.0</ele><time>2026-04-16T13:47:11.999Z</time></trkpt><trkpt lat="44.9427672" lon="8.8232202"><ele>97.0</ele><time>2026-04-16T13:47:12.999Z</time></trkpt><trkpt lat="44.942588" lon="8.8232845"><ele>97.0</ele><time>2026-04-16T13:47:13.999Z</time></trkpt><trkpt lat="44.9424306" lon="8.8233406"><ele>96.66666666666667</ele><time>2026-04-16T13:47:14.999Z</time></trkpt><trkpt lat="44.9423463" lon="8.8233741"><ele>96.33333333333334</ele><time>2026-04-16T13:47:15.999Z</time></trkpt><trkpt lat="44.9420443" lon="8.8234917"><ele>96.0</ele><time>2026-04-16T13:47:16.999Z</time></trkpt><trkpt lat="44.9418703" lon="8.8235584"><ele>95.66666666666667</ele><time>2026-04-16T13:47:17.999Z</time></trkpt><trkpt lat="44.9417034" lon="8.8236196"><ele>95.33333333333334</ele><time>2026-04-16T13:47:18.999Z</time></trkpt><trkpt lat="44.9415361" lon="8.8236833"><ele>95.0</ele><time>2026-04-16T13:47:19.999Z</time></trkpt><trkpt lat="44.9413591" lon="8.8237496"><ele>95.0</ele><time>2026-04-16T13:47:20.999Z</time></trkpt><trkpt lat="44.9411874" lon="8.8238146"><ele>95.0</ele><time>2026-04-16T13:47:21.999Z</time></trkpt><trkpt lat="44.9410142" lon="8.8238803"><ele>95.0</ele><time>2026-04-16T13:47:22.999Z</time></trkpt><trkpt lat="44.9408375" lon="8.823948"><ele>95.0</ele><time>2026-04-16T13:47:23.999Z</time></trkpt><trkpt lat="44.9406768" lon="8.8240085"><ele>95.0</ele><time>2026-04-16T13:47:24.999Z</time></trkpt><trkpt lat="44.9405142" lon="8.8240706"><ele>95.0</ele><time>2026-04-16T13:47:25.999Z</time></trkpt><trkpt lat="44.940352" lon="8.824132"><ele>95.0</ele><time>2026-04-16T13:47:26.999Z</time></trkpt><trkpt lat="44.9401889" lon="8.824193"><ele>95.0</ele><time>2026-04-16T13:47:27.999Z</time></trkpt><trkpt lat="44.9400221" lon="8.8242564"><ele>95.0</ele><time>2026-04-16T13:47:29.101Z</time></trkpt><trkpt lat="44.9396883" lon="8.8243844"><ele>95.66666666666667</ele><time>2026-04-16T13:47:30.999Z</time></trkpt><trkpt lat="44.9395273" lon="8.8244494"><ele>96.33333333333334</ele><time>2026-04-16T13:47:31.999Z</time></trkpt><trkpt lat="44.9393717" lon="8.8245113"><ele>97.0</ele><time>2026-04-16T13:47:32.999Z</time></trkpt><trkpt lat="44.9392109" lon="8.8245705"><ele>98.0</ele><time>2026-04-16T13:47:33.999Z</time></trkpt><trkpt lat="44.9390474" lon="8.8246316"><ele>99.0</ele><time>2026-04-16T13:47:34.999Z</time></trkpt><trkpt lat="44.9388942" lon="8.8246893"><ele>100.0</ele><time>2026-04-16T13:47:35.999Z</time></trkpt><trkpt lat="44.9387282" lon="8.8247532"><ele>100.0</ele><time>2026-04-16T13:47:36.999Z</time></trkpt><trkpt lat="44.9385643" lon="8.8248148"><ele>100.0</ele><time>2026-04-16T13:47:38.108Z</time></trkpt><trkpt lat="44.9382223" lon="8.8249462"><ele>98.5</ele><time>2026-04-16T13:47:39.999Z</time></trkpt><trkpt lat="44.9380605" lon="8.8250069"><ele>97.0</ele><time>2026-04-16T13:47:41.105Z</time></trkpt><trkpt lat="44.9377241" lon="8.8251373"><ele>97.0</ele><time>2026-04-16T13:47:42.999Z</time></trkpt><trkpt lat="44.9375562" lon="8.8252029"><ele>97.0</ele><time>2026-04-16T13:47:43.999Z</time></trkpt><trkpt lat="44.937385" lon="8.8252699"><ele>97.0</ele><time>2026-04-16T13:47:44.999Z</time></trkpt><trkpt lat="44.9372139" lon="8.8253352"><ele>97.66666666666667</ele><time>2026-04-16T13:47:45.999Z</time></trkpt><trkpt lat="44.9370415" lon="8.8253997"><ele>98.33333333333334</ele><time>2026-04-16T13:47:46.999Z</time></trkpt><trkpt lat="44.9368707" lon="8.8254645"><ele>99.0</ele><time>2026-04-16T13:47:47.999Z</time></trkpt><trkpt lat="44.9367021" lon="8.8255285"><ele>99.0</ele><time>2026-04-16T13:47:48.999Z</time></trkpt><trkpt lat="44.9365335" lon="8.8255941"><ele>99.0</ele><time>2026-04-16T13:47:49.999Z</time></trkpt><trkpt lat="44.9363632" lon="8.825659"><ele>99.0</ele><time>2026-04-16T13:47:50.999Z</time></trkpt><trkpt lat="44.9361892" lon="8.8257253"><ele>99.0</ele><time>2026-04-16T13:47:51.999Z</time></trkpt><trkpt lat="44.9360167" lon="8.82579"><ele>99.0</ele><time>2026-04-16T13:47:52.999Z</time></trkpt><trkpt lat="44.9358464" lon="8.8258533"><ele>99.0</ele><time>2026-04-16T13:47:53.999Z</time></trkpt><trkpt lat="44.9356788" lon="8.8259167"><ele>99.33333333333334</ele><time>2026-04-16T13:47:54.999Z</time></trkpt><trkpt lat="44.9355068" lon="8.8259836"><ele>99.66666666666667</ele><time>2026-04-16T13:47:55.999Z</time></trkpt><trkpt lat="44.9353446" lon="8.8260449"><ele>100.0</ele><time>2026-04-16T13:47:56.999Z</time></trkpt><trkpt lat="44.9351792" lon="8.8261067"><ele>99.66666666666667</ele><time>2026-04-16T13:47:57.999Z</time></trkpt><trkpt lat="44.9350131" lon="8.8261685"><ele>99.33333333333334</ele><time>2026-04-16T13:47:58.999Z</time></trkpt><trkpt lat="44.9348517" lon="8.8262293"><ele>99.0</ele><time>2026-04-16T13:47:59.999Z</time></trkpt><trkpt lat="44.9346849" lon="8.826293"><ele>99.0</ele><time>2026-04-16T13:48:00.999Z</time></trkpt><trkpt lat="44.9345227" lon="8.8263554"><ele>99.0</ele><time>2026-04-16T13:48:01.999Z</time></trkpt><trkpt lat="44.9343614" lon="8.8264179"><ele>99.0</ele><time>2026-04-16T13:48:02.999Z</time></trkpt><trkpt lat="44.9342011" lon="8.8264783"><ele>99.33333333333334</ele><time>2026-04-16T13:48:03.999Z</time></trkpt><trkpt lat="44.9340396" lon="8.8265377"><ele>99.66666666666667</ele><time>2026-04-16T13:48:04.999Z</time></trkpt><trkpt lat="44.9338751" lon="8.8265999"><ele>100.0</ele><time>2026-04-16T13:48:05.999Z</time></trkpt><trkpt lat="44.9337145" lon="8.8266599"><ele>100.0</ele><time>2026-04-16T13:48:06.999Z</time></trkpt><trkpt lat="44.9335517" lon="8.826725"><ele>100.0</ele><time>2026-04-16T13:48:07.999Z</time></trkpt><trkpt lat="44.9333903" lon="8.826786"><ele>100.0</ele><time>2026-04-16T13:48:08.999Z</time></trkpt><trkpt lat="44.9332282" lon="8.8268468"><ele>100.33333333333334</ele><time>2026-04-16T13:48:09.999Z</time></trkpt><trkpt lat="44.9330637" lon="8.8269081"><ele>100.66666666666666</ele><time>2026-04-16T13:48:10.999Z</time></trkpt><trkpt lat="44.932903" lon="8.8269681"><ele>101.0</ele><time>2026-04-16T13:48:11.999Z</time></trkpt><trkpt lat="44.9327442" lon="8.8270265"><ele>101.0</ele><time>2026-04-16T13:48:12.999Z</time></trkpt><trkpt lat="44.9325855" lon="8.8270851"><ele>101.0</ele><time>2026-04-16T13:48:13.999Z</time></trkpt><trkpt lat="44.9324278" lon="8.8271438"><ele>101.0</ele><time>2026-04-16T13:48:14.999Z</time></trkpt><trkpt lat="44.9322734" lon="8.8272028"><ele>101.66666666666666</ele><time>2026-04-16T13:48:15.999Z</time></trkpt><trkpt lat="44.9321089" lon="8.827265"><ele>102.33333333333334</ele><time>2026-04-16T13:48:16.999Z</time></trkpt><trkpt lat="44.931949" lon="8.827324"><ele>103.0</ele><time>2026-04-16T13:48:17.999Z</time></trkpt><trkpt lat="44.9317883" lon="8.8273839"><ele>103.0</ele><time>2026-04-16T13:48:18.999Z</time></trkpt><trkpt lat="44.9316199" lon="8.8274488"><ele>103.0</ele><time>2026-04-16T13:48:20.103Z</time></trkpt><trkpt lat="44.9312998" lon="8.8275711"><ele>103.0</ele><time>2026-04-16T13:48:21.999Z</time></trkpt><trkpt lat="44.931139" lon="8.8276329"><ele>103.0</ele><time>2026-04-16T13:48:22.999Z</time></trkpt><trkpt lat="44.9309811" lon="8.8276944"><ele>103.0</ele><time>2026-04-16T13:48:23.999Z</time></trkpt><trkpt lat="44.9308152" lon="8.827757"><ele>103.0</ele><time>2026-04-16T13:48:24.999Z</time></trkpt><trkpt lat="44.9306526" lon="8.8278181"><ele>103.0</ele><time>2026-04-16T13:48:25.999Z</time></trkpt><trkpt lat="44.9304877" lon="8.827879"><ele>103.0</ele><time>2026-04-16T13:48:26.999Z</time></trkpt><trkpt lat="44.9303258" lon="8.8279402"><ele>103.0</ele><time>2026-04-16T13:48:27.999Z</time></trkpt><trkpt lat="44.9301621" lon="8.8280022"><ele>103.0</ele><time>2026-04-16T13:48:29.106Z</time></trkpt><trkpt lat="44.9298445" lon="8.8281245"><ele>103.33333333333334</ele><time>2026-04-16T13:48:30.999Z</time></trkpt><trkpt lat="44.9296837" lon="8.828183"><ele>103.66666666666666</ele><time>2026-04-16T13:48:31.999Z</time></trkpt><trkpt lat="44.9295206" lon="8.828243"><ele>104.0</ele><time>2026-04-16T13:48:32.999Z</time></trkpt><trkpt lat="44.9293552" lon="8.8283021"><ele>104.0</ele><time>2026-04-16T13:48:33.999Z</time></trkpt><trkpt lat="44.9291938" lon="8.828361"><ele>104.0</ele><time>2026-04-16T13:48:34.999Z</time></trkpt><trkpt lat="44.929029" lon="8.8284237"><ele>104.0</ele><time>2026-04-16T13:48:35.999Z</time></trkpt><trkpt lat="44.9288691" lon="8.8284843"><ele>104.0</ele><time>2026-04-16T13:48:36.999Z</time></trkpt><trkpt lat="44.9287146" lon="8.8285428"><ele>104.0</ele><time>2026-04-16T13:48:37.999Z</time></trkpt><trkpt lat="44.9285591" lon="8.8286023"><ele>104.0</ele><time>2026-04-16T13:48:38.999Z</time></trkpt><trkpt lat="44.9284079" lon="8.8286588"><ele>103.0</ele><time>2026-04-16T13:48:39.999Z</time></trkpt><trkpt lat="44.9280866" lon="8.828773"><ele>102.0</ele><time>2026-04-16T13:48:41.999Z</time></trkpt><trkpt lat="44.9279333" lon="8.8288304"><ele>102.0</ele><time>2026-04-16T13:48:42.999Z</time></trkpt><trkpt lat="44.9277785" lon="8.8288878"><ele>102.0</ele><time>2026-04-16T13:48:44.117Z</time></trkpt><trkpt lat="44.9274839" lon="8.8290028"><ele>102.0</ele><time>2026-04-16T13:48:45.999Z</time></trkpt><trkpt lat="44.9273264" lon="8.8290638"><ele>102.0</ele><time>2026-04-16T13:48:46.999Z</time></trkpt><trkpt lat="44.927165" lon="8.8291238"><ele>102.0</ele><time>2026-04-16T13:48:47.999Z</time></trkpt><trkpt lat="44.9270031" lon="8.8291853"><ele>102.0</ele><time>2026-04-16T13:48:49Z</time></trkpt><trkpt lat="44.9268425" lon="8.8292467"><ele>102.0</ele><time>2026-04-16T13:48:49.999Z</time></trkpt><trkpt lat="44.9266808" lon="8.8293078"><ele>102.0</ele><time>2026-04-16T13:48:50.999Z</time></trkpt><trkpt lat="44.9265141" lon="8.8293706"><ele>102.0</ele><time>2026-04-16T13:48:51.999Z</time></trkpt><trkpt lat="44.9263518" lon="8.8294343"><ele>102.0</ele><time>2026-04-16T13:48:52.999Z</time></trkpt><trkpt lat="44.9261803" lon="8.8294985"><ele>102.0</ele><time>2026-04-16T13:48:54.103Z</time></trkpt><trkpt lat="44.9258329" lon="8.8296314"><ele>102.0</ele><time>2026-04-16T13:48:56.107Z</time></trkpt><trkpt lat="44.9254519" lon="8.8297644"><ele>102.0</ele><time>2026-04-16T13:48:57.999Z</time></trkpt><trkpt lat="44.9252783" lon="8.8298272"><ele>102.5</ele><time>2026-04-16T13:48:59.1Z</time></trkpt><trkpt lat="44.9249213" lon="8.8299588"><ele>103.0</ele><time>2026-04-16T13:49:00.999Z</time></trkpt><trkpt lat="44.9248365" lon="8.8299934"><ele>103.0</ele><time>2026-04-16T13:49:01.999Z</time></trkpt><trkpt lat="44.9245714" lon="8.8300992"><ele>103.0</ele><time>2026-04-16T13:49:02.999Z</time></trkpt><trkpt lat="44.9244034" lon="8.8301619"><ele>103.0</ele><time>2026-04-16T13:49:03.999Z</time></trkpt><trkpt lat="44.9242355" lon="8.8302251"><ele>104.0</ele><time>2026-04-16T13:49:04.999Z</time></trkpt><trkpt lat="44.9240712" lon="8.8302869"><ele>105.0</ele><time>2026-04-16T13:49:05.999Z</time></trkpt><trkpt lat="44.9239038" lon="8.830349"><ele>106.0</ele><time>2026-04-16T13:49:06.999Z</time></trkpt><trkpt lat="44.9237341" lon="8.8304135"><ele>106.0</ele><time>2026-04-16T13:49:07.999Z</time></trkpt><trkpt lat="44.9235656" lon="8.8304765"><ele>106.0</ele><time>2026-04-16T13:49:08.999Z</time></trkpt><trkpt lat="44.9233999" lon="8.8305395"><ele>106.0</ele><time>2026-04-16T13:49:09.999Z</time></trkpt><trkpt lat="44.9232341" lon="8.8305991"><ele>106.33333333333334</ele><time>2026-04-16T13:49:10.999Z</time></trkpt><trkpt lat="44.9230685" lon="8.830659"><ele>106.66666666666666</ele><time>2026-04-16T13:49:11.999Z</time></trkpt><trkpt lat="44.9229064" lon="8.8307169"><ele>107.0</ele><time>2026-04-16T13:49:12.999Z</time></trkpt><trkpt lat="44.9227476" lon="8.8307746"><ele>107.0</ele><time>2026-04-16T13:49:13.999Z</time></trkpt><trkpt lat="44.9225851" lon="8.8308353"><ele>107.0</ele><time>2026-04-16T13:49:14.999Z</time></trkpt><trkpt lat="44.9224209" lon="8.8308954"><ele>107.0</ele><time>2026-04-16T13:49:15.999Z</time></trkpt><trkpt lat="44.9222609" lon="8.8309553"><ele>105.0</ele><time>2026-04-16T13:49:16.999Z</time></trkpt><trkpt lat="44.9221002" lon="8.8310169"><ele>103.0</ele><time>2026-04-16T13:49:17.999Z</time></trkpt><trkpt lat="44.9219392" lon="8.8310785"><ele>101.0</ele><time>2026-04-16T13:49:18.999Z</time></trkpt><trkpt lat="44.9217748" lon="8.8311402"><ele>103.0</ele><time>2026-04-16T13:49:19.999Z</time></trkpt><trkpt lat="44.9216094" lon="8.8312001"><ele>105.0</ele><time>2026-04-16T13:49:21.103Z</time></trkpt><trkpt lat="44.9212807" lon="8.8313212"><ele>105.0</ele><time>2026-04-16T13:49:22.999Z</time></trkpt><trkpt lat="44.9211116" lon="8.8313826"><ele>105.0</ele><time>2026-04-16T13:49:23.999Z</time></trkpt><trkpt lat="44.9209479" lon="8.8314439"><ele>105.0</ele><time>2026-04-16T13:49:24.999Z</time></trkpt><trkpt lat="44.9207839" lon="8.8315063"><ele>106.0</ele><time>2026-04-16T13:49:26.102Z</time></trkpt><trkpt lat="44.92062" lon="8.8315697"><ele>107.0</ele><time>2026-04-16T13:49:26.999Z</time></trkpt><trkpt lat="44.9204593" lon="8.8316315"><ele>108.0</ele><time>2026-04-16T13:49:27.999Z</time></trkpt><trkpt lat="44.9202856" lon="8.8316982"><ele>107.0</ele><time>2026-04-16T13:49:29.105Z</time></trkpt><trkpt lat="44.9199561" lon="8.8318213"><ele>106.0</ele><time>2026-04-16T13:49:31.103Z</time></trkpt><trkpt lat="44.9196216" lon="8.831945"><ele>106.0</ele><time>2026-04-16T13:49:32.999Z</time></trkpt><trkpt lat="44.9194524" lon="8.8320084"><ele>106.0</ele><time>2026-04-16T13:49:33.999Z</time></trkpt><trkpt lat="44.9192852" lon="8.8320723"><ele>106.0</ele><time>2026-04-16T13:49:34.999Z</time></trkpt><trkpt lat="44.9191157" lon="8.8321398"><ele>105.66666666666667</ele><time>2026-04-16T13:49:35.999Z</time></trkpt><trkpt lat="44.9189452" lon="8.8322074"><ele>105.33333333333334</ele><time>2026-04-16T13:49:36.999Z</time></trkpt><trkpt lat="44.9187729" lon="8.8322844"><ele>105.0</ele><time>2026-04-16T13:49:37.999Z</time></trkpt><trkpt lat="44.9185999" lon="8.8323668"><ele>105.0</ele><time>2026-04-16T13:49:38.999Z</time></trkpt><trkpt lat="44.9184255" lon="8.8324547"><ele>105.0</ele><time>2026-04-16T13:49:39.999Z</time></trkpt><trkpt lat="44.9182625" lon="8.8325383"><ele>105.0</ele><time>2026-04-16T13:49:40.999Z</time></trkpt><trkpt lat="44.9180983" lon="8.8326245"><ele>105.0</ele><time>2026-04-16T13:49:41.997Z</time></trkpt><trkpt lat="44.9179361" lon="8.8327091"><ele>105.0</ele><time>2026-04-16T13:49:42.999Z</time></trkpt><trkpt lat="44.9177777" lon="8.8327914"><ele>105.0</ele><time>2026-04-16T13:49:44.12Z</time></trkpt><trkpt lat="44.9176091" lon="8.832881"><ele>107.5</ele><time>2026-04-16T13:49:45.11Z</time></trkpt><trkpt lat="44.9172832" lon="8.83306"><ele>110.0</ele><time>2026-04-16T13:49:46.999Z</time></trkpt><trkpt lat="44.9171147" lon="8.8331522"><ele>110.0</ele><time>2026-04-16T13:49:47.999Z</time></trkpt><trkpt lat="44.916961" lon="8.8332337"><ele>110.0</ele><time>2026-04-16T13:49:48.999Z</time></trkpt><trkpt lat="44.9168015" lon="8.8333181"><ele>110.0</ele><time>2026-04-16T13:49:49.999Z</time></trkpt><trkpt lat="44.9166465" lon="8.8334006"><ele>109.66666666666666</ele><time>2026-04-16T13:49:50.999Z</time></trkpt><trkpt lat="44.9164932" lon="8.8334789"><ele>109.33333333333334</ele><time>2026-04-16T13:49:51.999Z</time></trkpt><trkpt lat="44.916341" lon="8.8335522"><ele>109.0</ele><time>2026-04-16T13:49:52.999Z</time></trkpt><trkpt lat="44.9161872" lon="8.8336198"><ele>109.0</ele><time>2026-04-16T13:49:54.117Z</time></trkpt><trkpt lat="44.9160321" lon="8.8336831"><ele>109.0</ele><time>2026-04-16T13:49:55.111Z</time></trkpt><trkpt lat="44.9157135" lon="8.8338099"><ele>109.33333333333334</ele><time>2026-04-16T13:49:56.999Z</time></trkpt><trkpt lat="44.9155506" lon="8.8338668"><ele>109.66666666666666</ele><time>2026-04-16T13:49:57.999Z</time></trkpt><trkpt lat="44.9153807" lon="8.8339219"><ele>110.0</ele><time>2026-04-16T13:49:58.999Z</time></trkpt><trkpt lat="44.9152141" lon="8.8339712"><ele>110.33333333333333</ele><time>2026-04-16T13:49:59.999Z</time></trkpt><trkpt lat="44.9150472" lon="8.8340169"><ele>110.66666666666666</ele><time>2026-04-16T13:50:00.999Z</time></trkpt><trkpt lat="44.9148826" lon="8.8340584"><ele>111.0</ele><time>2026-04-16T13:50:01.999Z</time></trkpt><trkpt lat="44.91471" lon="8.8341006"><ele>111.0</ele><time>2026-04-16T13:50:02.999Z</time></trkpt><trkpt lat="44.9145375" lon="8.8341392"><ele>111.0</ele><time>2026-04-16T13:50:03.999Z</time></trkpt><trkpt lat="44.9143703" lon="8.8341682"><ele>111.0</ele><time>2026-04-16T13:50:04.999Z</time></trkpt><trkpt lat="44.9142075" lon="8.8341925"><ele>111.0</ele><time>2026-04-16T13:50:05.999Z</time></trkpt><trkpt lat="44.914045" lon="8.8342175"><ele>111.0</ele><time>2026-04-16T13:50:06.999Z</time></trkpt><trkpt lat="44.9138843" lon="8.8342446"><ele>111.0</ele><time>2026-04-16T13:50:07.999Z</time></trkpt><trkpt lat="44.9137202" lon="8.8342732"><ele>111.0</ele><time>2026-04-16T13:50:08.999Z</time></trkpt><trkpt lat="44.9135536" lon="8.8343046"><ele>111.0</ele><time>2026-04-16T13:50:09.999Z</time></trkpt><trkpt lat="44.9133894" lon="8.8343351"><ele>111.0</ele><time>2026-04-16T13:50:10.999Z</time></trkpt><trkpt lat="44.9132229" lon="8.8343716"><ele>110.0</ele><time>2026-04-16T13:50:11.999Z</time></trkpt><trkpt lat="44.9130657" lon="8.8344101"><ele>109.0</ele><time>2026-04-16T13:50:12.999Z</time></trkpt><trkpt lat="44.9129073" lon="8.8344551"><ele>108.0</ele><time>2026-04-16T13:50:13.999Z</time></trkpt><trkpt lat="44.9127482" lon="8.8345081"><ele>108.0</ele><time>2026-04-16T13:50:14.999Z</time></trkpt><trkpt lat="44.912593" lon="8.8345656"><ele>108.0</ele><time>2026-04-16T13:50:15.999Z</time></trkpt><trkpt lat="44.9124245" lon="8.834629"><ele>108.0</ele><time>2026-04-16T13:50:16.999Z</time></trkpt><trkpt lat="44.9122616" lon="8.8346905"><ele>108.0</ele><time>2026-04-16T13:50:17.999Z</time></trkpt><trkpt lat="44.912092" lon="8.8347574"><ele>108.0</ele><time>2026-04-16T13:50:18.999Z</time></trkpt><trkpt lat="44.9119229" lon="8.8348195"><ele>108.0</ele><time>2026-04-16T13:50:19.999Z</time></trkpt><trkpt lat="44.9117515" lon="8.8348839"><ele>108.0</ele><time>2026-04-16T13:50:20.999Z</time></trkpt><trkpt lat="44.9115824" lon="8.8349479"><ele>108.0</ele><time>2026-04-16T13:50:21.999Z</time></trkpt><trkpt lat="44.9114145" lon="8.8350122"><ele>108.0</ele><time>2026-04-16T13:50:22.999Z</time></trkpt><trkpt lat="44.9112505" lon="8.8350751"><ele>108.0</ele><time>2026-04-16T13:50:23.999Z</time></trkpt><trkpt lat="44.9110869" lon="8.8351364"><ele>108.0</ele><time>2026-04-16T13:50:24.999Z</time></trkpt><trkpt lat="44.9109289" lon="8.8351949"><ele>108.0</ele><time>2026-04-16T13:50:25.999Z</time></trkpt><trkpt lat="44.910772" lon="8.8352507"><ele>108.33333333333334</ele><time>2026-04-16T13:50:26.999Z</time></trkpt><trkpt lat="44.9106193" lon="8.8353013"><ele>108.66666666666667</ele><time>2026-04-16T13:50:27.999Z</time></trkpt><trkpt lat="44.9104688" lon="8.8353471"><ele>109.0</ele><time>2026-04-16T13:50:28.999Z</time></trkpt><trkpt lat="44.9103205" lon="8.8353918"><ele>109.0</ele><time>2026-04-16T13:50:29.999Z</time></trkpt><trkpt lat="44.9101746" lon="8.8354363"><ele>109.0</ele><time>2026-04-16T13:50:30.999Z</time></trkpt><trkpt lat="44.9100335" lon="8.8354791"><ele>109.0</ele><time>2026-04-16T13:50:31.999Z</time></trkpt><trkpt lat="44.9098968" lon="8.8355221"><ele>109.0</ele><time>2026-04-16T13:50:32.999Z</time></trkpt><trkpt lat="44.9097635" lon="8.835565"><ele>109.0</ele><time>2026-04-16T13:50:33.999Z</time></trkpt><trkpt lat="44.9096293" lon="8.8356097"><ele>109.0</ele><time>2026-04-16T13:50:34.999Z</time></trkpt><trkpt lat="44.9094875" lon="8.8356584"><ele>109.0</ele><time>2026-04-16T13:50:35.999Z</time></trkpt><trkpt lat="44.9093569" lon="8.8357069"><ele>109.0</ele><time>2026-04-16T13:50:36.999Z</time></trkpt><trkpt lat="44.9092202" lon="8.8357616"><ele>109.0</ele><time>2026-04-16T13:50:37.999Z</time></trkpt><trkpt lat="44.9090859" lon="8.8358187"><ele>109.0</ele><time>2026-04-16T13:50:39.101Z</time></trkpt><trkpt lat="44.9088289" lon="8.8359367"><ele>109.0</ele><time>2026-04-16T13:50:40.999Z</time></trkpt><trkpt lat="44.9087025" lon="8.8359938"><ele>109.33333333333334</ele><time>2026-04-16T13:50:41.999Z</time></trkpt><trkpt lat="44.9085831" lon="8.8360477"><ele>109.66666666666666</ele><time>2026-04-16T13:50:42.999Z</time></trkpt><trkpt lat="44.9084662" lon="8.8361003"><ele>110.0</ele><time>2026-04-16T13:50:44.119Z</time></trkpt><trkpt lat="44.9082447" lon="8.836182"><ele>110.2</ele><time>2026-04-16T13:50:45.999Z</time></trkpt><trkpt lat="44.908144" lon="8.8362056"><ele>110.4</ele><time>2026-04-16T13:50:46.999Z</time></trkpt><trkpt lat="44.9080498" lon="8.8362163"><ele>110.6</ele><time>2026-04-16T13:50:47.999Z</time></trkpt><trkpt lat="44.9079713" lon="8.8362183"><ele>110.8</ele><time>2026-04-16T13:50:48.999Z</time></trkpt><trkpt lat="44.9078603" lon="8.8362147"><ele>111.0</ele><time>2026-04-16T13:50:50.999Z</time></trkpt><trkpt lat="44.9077221" lon="8.8362103"><ele>111.0</ele><time>2026-04-16T13:50:52.999Z</time></trkpt><trkpt lat="44.9076355" lon="8.8362111"><ele>111.0</ele><time>2026-04-16T13:50:53.999Z</time></trkpt><trkpt lat="44.9075475" lon="8.8362231"><ele>111.0</ele><time>2026-04-16T13:50:54.999Z</time></trkpt><trkpt lat="44.9074603" lon="8.8362532"><ele>111.0</ele><time>2026-04-16T13:50:55.999Z</time></trkpt><trkpt lat="44.9073701" lon="8.8363071"><ele>111.0</ele><time>2026-04-16T13:50:56.999Z</time></trkpt><trkpt lat="44.9072928" lon="8.836385"><ele>111.0</ele><time>2026-04-16T13:50:57.999Z</time></trkpt><trkpt lat="44.9072261" lon="8.8364859"><ele>111.0</ele><time>2026-04-16T13:50:58.999Z</time></trkpt><trkpt lat="44.9071633" lon="8.8366121"><ele>111.0</ele><time>2026-04-16T13:50:59.999Z</time></trkpt><trkpt lat="44.9071031" lon="8.8367363"><ele>111.0</ele><time>2026-04-16T13:51:00.999Z</time></trkpt><trkpt lat="44.9070252" lon="8.836847"><ele>111.0</ele><time>2026-04-16T13:51:01.999Z</time></trkpt><trkpt lat="44.9069321" lon="8.8369302"><ele>111.0</ele><time>2026-04-16T13:51:02.999Z</time></trkpt><trkpt lat="44.9068286" lon="8.8369933"><ele>111.0</ele><time>2026-04-16T13:51:03.999Z</time></trkpt><trkpt lat="44.9067087" lon="8.8370492"><ele>111.0</ele><time>2026-04-16T13:51:04.999Z</time></trkpt><trkpt lat="44.9065812" lon="8.8370964"><ele>111.0</ele><time>2026-04-16T13:51:05.999Z</time></trkpt><trkpt lat="44.9064466" lon="8.837145"><ele>110.75</ele><time>2026-04-16T13:51:06.999Z</time></trkpt><trkpt lat="44.9063055" lon="8.8371899"><ele>110.5</ele><time>2026-04-16T13:51:07.999Z</time></trkpt><trkpt lat="44.9061622" lon="8.8372225"><ele>110.25</ele><time>2026-04-16T13:51:08.999Z</time></trkpt><trkpt lat="44.9060135" lon="8.8372448"><ele>110.0</ele><time>2026-04-16T13:51:09.999Z</time></trkpt><trkpt lat="44.9058627" lon="8.8372618"><ele>110.0</ele><time>2026-04-16T13:51:10.999Z</time></trkpt><trkpt lat="44.9057075" lon="8.8372821"><ele>110.0</ele><time>2026-04-16T13:51:11.999Z</time></trkpt><trkpt lat="44.905552" lon="8.8373076"><ele>110.0</ele><time>2026-04-16T13:51:12.999Z</time></trkpt><trkpt lat="44.9054005" lon="8.8373387"><ele>110.0</ele><time>2026-04-16T13:51:13.999Z</time></trkpt><trkpt lat="44.9052505" lon="8.8373766"><ele>110.0</ele><time>2026-04-16T13:51:14.999Z</time></trkpt><trkpt lat="44.9051069" lon="8.8374218"><ele>110.0</ele><time>2026-04-16T13:51:15.999Z</time></trkpt><trkpt lat="44.9049677" lon="8.8374716"><ele>110.0</ele><time>2026-04-16T13:51:16.999Z</time></trkpt><trkpt lat="44.9048268" lon="8.8375278"><ele>110.0</ele><time>2026-04-16T13:51:17.999Z</time></trkpt><trkpt lat="44.9046848" lon="8.8375825"><ele>110.0</ele><time>2026-04-16T13:51:19.104Z</time></trkpt><trkpt lat="44.9043933" lon="8.8376913"><ele>110.0</ele><time>2026-04-16T13:51:20.999Z</time></trkpt><trkpt lat="44.9042469" lon="8.8377459"><ele>110.25</ele><time>2026-04-16T13:51:21.999Z</time></trkpt><trkpt lat="44.9041055" lon="8.8377994"><ele>110.5</ele><time>2026-04-16T13:51:22.999Z</time></trkpt><trkpt lat="44.9039621" lon="8.8378548"><ele>110.75</ele><time>2026-04-16T13:51:23.999Z</time></trkpt><trkpt lat="44.9038266" lon="8.8379043"><ele>111.0</ele><time>2026-04-16T13:51:24.999Z</time></trkpt><trkpt lat="44.9036861" lon="8.8379572"><ele>111.0</ele><time>2026-04-16T13:51:25.999Z</time></trkpt><trkpt lat="44.9035466" lon="8.8380113"><ele>111.0</ele><time>2026-04-16T13:51:26.999Z</time></trkpt><trkpt lat="44.9034091" lon="8.8380625"><ele>111.0</ele><time>2026-04-16T13:51:27.999Z</time></trkpt><trkpt lat="44.9032726" lon="8.8381124"><ele>111.0</ele><time>2026-04-16T13:51:28.999Z</time></trkpt><trkpt lat="44.9031404" lon="8.8381615"><ele>111.66666666666666</ele><time>2026-04-16T13:51:30.11Z</time></trkpt><trkpt lat="44.9030149" lon="8.8382094"><ele>112.33333333333333</ele><time>2026-04-16T13:51:31.114Z</time></trkpt><trkpt lat="44.9027998" lon="8.8382921"><ele>113.0</ele><time>2026-04-16T13:51:32.999Z</time></trkpt><trkpt lat="44.9026979" lon="8.8383234"><ele>113.0</ele><time>2026-04-16T13:51:34.108Z</time></trkpt><trkpt lat="44.9025969" lon="8.8383531"><ele>113.00000000000001</ele><time>2026-04-16T13:51:35.103Z</time></trkpt><trkpt lat="44.9024175" lon="8.8383577"><ele>113.00000000000001</ele><time>2026-04-16T13:51:36.999Z</time></trkpt><trkpt lat="44.9023343" lon="8.8383407"><ele>113.0</ele><time>2026-04-16T13:51:37.999Z</time></trkpt><trkpt lat="44.902261" lon="8.8383173"><ele>113.0</ele><time>2026-04-16T13:51:39.114Z</time></trkpt><trkpt lat="44.9021248" lon="8.8383095"><ele>112.99999999999999</ele><time>2026-04-16T13:51:40.999Z</time></trkpt><trkpt lat="44.9020587" lon="8.8383393"><ele>113.0</ele><time>2026-04-16T13:51:41.999Z</time></trkpt><trkpt lat="44.9019983" lon="8.8383896"><ele>113.0</ele><time>2026-04-16T13:51:42.999Z</time></trkpt><trkpt lat="44.9019408" lon="8.8384494"><ele>113.0</ele><time>2026-04-16T13:51:43.999Z</time></trkpt><trkpt lat="44.9018791" lon="8.8385186"><ele>112.99999999999999</ele><time>2026-04-16T13:51:44.999Z</time></trkpt><trkpt lat="44.9018118" lon="8.8385815"><ele>113.0</ele><time>2026-04-16T13:51:45.999Z</time></trkpt><trkpt lat="44.9017367" lon="8.8386378"><ele>112.60000000000001</ele><time>2026-04-16T13:51:46.999Z</time></trkpt><trkpt lat="44.9016475" lon="8.8386849"><ele>112.20000000000002</ele><time>2026-04-16T13:51:47.999Z</time></trkpt><trkpt lat="44.9015472" lon="8.8387242"><ele>111.8</ele><time>2026-04-16T13:51:48.999Z</time></trkpt><trkpt lat="44.90144" lon="8.8387582"><ele>111.4</ele><time>2026-04-16T13:51:49.999Z</time></trkpt><trkpt lat="44.9013322" lon="8.8387923"><ele>111.0</ele><time>2026-04-16T13:51:50.999Z</time></trkpt><trkpt lat="44.9012257" lon="8.8388301"><ele>111.0</ele><time>2026-04-16T13:51:51.999Z</time></trkpt><trkpt lat="44.9011182" lon="8.8388703"><ele>111.0</ele><time>2026-04-16T13:51:52.999Z</time></trkpt><trkpt lat="44.9010091" lon="8.8389085"><ele>111.0</ele><time>2026-04-16T13:51:53.999Z</time></trkpt><trkpt lat="44.9008967" lon="8.8389494"><ele>111.0</ele><time>2026-04-16T13:51:54.999Z</time></trkpt><trkpt lat="44.9007801" lon="8.8389926"><ele>110.75</ele><time>2026-04-16T13:51:55.999Z</time></trkpt><trkpt lat="44.9006603" lon="8.8390389"><ele>110.5</ele><time>2026-04-16T13:51:56.999Z</time></trkpt><trkpt lat="44.9005331" lon="8.8390937"><ele>110.25</ele><time>2026-04-16T13:51:57.999Z</time></trkpt><trkpt lat="44.9004034" lon="8.8391473"><ele>110.0</ele><time>2026-04-16T13:51:58.999Z</time></trkpt><trkpt lat="44.9002732" lon="8.8391967"><ele>110.0</ele><time>2026-04-16T13:51:59.999Z</time></trkpt><trkpt lat="44.9001346" lon="8.8392454"><ele>110.0</ele><time>2026-04-16T13:52:00.999Z</time></trkpt><trkpt lat="44.9000026" lon="8.8392942"><ele>110.0</ele><time>2026-04-16T13:52:01.999Z</time></trkpt><trkpt lat="44.8998728" lon="8.8393415"><ele>110.0</ele><time>2026-04-16T13:52:02.999Z</time></trkpt><trkpt lat="44.8997368" lon="8.8393913"><ele>110.25</ele><time>2026-04-16T13:52:03.999Z</time></trkpt><trkpt lat="44.8996098" lon="8.8394389"><ele>110.5</ele><time>2026-04-16T13:52:04.999Z</time></trkpt><trkpt lat="44.8994773" lon="8.8394884"><ele>110.75</ele><time>2026-04-16T13:52:05.999Z</time></trkpt><trkpt lat="44.8993463" lon="8.8395365"><ele>111.0</ele><time>2026-04-16T13:52:06.999Z</time></trkpt><trkpt lat="44.8992161" lon="8.8395793"><ele>111.5</ele><time>2026-04-16T13:52:07.999Z</time></trkpt><trkpt lat="44.8990829" lon="8.8396204"><ele>112.0</ele><time>2026-04-16T13:52:08.999Z</time></trkpt><trkpt lat="44.8989485" lon="8.8396578"><ele>112.5</ele><time>2026-04-16T13:52:09.999Z</time></trkpt><trkpt lat="44.8988149" lon="8.8396927"><ele>113.0</ele><time>2026-04-16T13:52:10.999Z</time></trkpt><trkpt lat="44.8986795" lon="8.8397277"><ele>113.0</ele><time>2026-04-16T13:52:11.999Z</time></trkpt><trkpt lat="44.8985467" lon="8.8397591"><ele>113.0</ele><time>2026-04-16T13:52:12.999Z</time></trkpt><trkpt lat="44.8984135" lon="8.8397868"><ele>113.0</ele><time>2026-04-16T13:52:13.999Z</time></trkpt><trkpt lat="44.8982792" lon="8.8398128"><ele>113.0</ele><time>2026-04-16T13:52:14.999Z</time></trkpt><trkpt lat="44.8981472" lon="8.839836"><ele>113.66666666666666</ele><time>2026-04-16T13:52:16.108Z</time></trkpt><trkpt lat="44.8978796" lon="8.8398815"><ele>114.33333333333334</ele><time>2026-04-16T13:52:17.999Z</time></trkpt><trkpt lat="44.89775" lon="8.8398986"><ele>115.0</ele><time>2026-04-16T13:52:19.109Z</time></trkpt><trkpt lat="44.8976141" lon="8.8399067"><ele>115.33333333333334</ele><time>2026-04-16T13:52:20.104Z</time></trkpt><trkpt lat="44.8974848" lon="8.8399136"><ele>115.66666666666666</ele><time>2026-04-16T13:52:21.103Z</time></trkpt><trkpt lat="44.8972146" lon="8.8399215"><ele>116.0</ele><time>2026-04-16T13:52:22.999Z</time></trkpt><trkpt lat="44.8970846" lon="8.8399162"><ele>116.0</ele><time>2026-04-16T13:52:24.12Z</time></trkpt><trkpt lat="44.8969558" lon="8.8399076"><ele>116.0</ele><time>2026-04-16T13:52:25.117Z</time></trkpt><trkpt lat="44.8966997" lon="8.8398884"><ele>116.0</ele><time>2026-04-16T13:52:26.999Z</time></trkpt><trkpt lat="44.8965722" lon="8.8398778"><ele>116.0</ele><time>2026-04-16T13:52:27.999Z</time></trkpt><trkpt lat="44.896442" lon="8.8398646"><ele>116.0</ele><time>2026-04-16T13:52:28.999Z</time></trkpt><trkpt lat="44.8963127" lon="8.8398475"><ele>116.0</ele><time>2026-04-16T13:52:29.999Z</time></trkpt><trkpt lat="44.8961816" lon="8.8398318"><ele>116.0</ele><time>2026-04-16T13:52:30.999Z</time></trkpt><trkpt lat="44.8960516" lon="8.8398152"><ele>116.0</ele><time>2026-04-16T13:52:31.999Z</time></trkpt><trkpt lat="44.8959268" lon="8.8398"><ele>116.0</ele><time>2026-04-16T13:52:32.999Z</time></trkpt><trkpt lat="44.8958073" lon="8.8397825"><ele>116.0</ele><time>2026-04-16T13:52:33.999Z</time></trkpt><trkpt lat="44.8956982" lon="8.8397642"><ele>116.0</ele><time>2026-04-16T13:52:34.999Z</time></trkpt><trkpt lat="44.8955934" lon="8.8397503"><ele>116.0</ele><time>2026-04-16T13:52:35.999Z</time></trkpt><trkpt lat="44.8954949" lon="8.8397376"><ele>116.0</ele><time>2026-04-16T13:52:36.999Z</time></trkpt><trkpt lat="44.8953774" lon="8.8397248"><ele>116.0</ele><time>2026-04-16T13:52:37.999Z</time></trkpt><trkpt lat="44.8952598" lon="8.839712"><ele>116.0</ele><time>2026-04-16T13:52:38.999Z</time></trkpt><trkpt lat="44.8951391" lon="8.8396985"><ele>116.5</ele><time>2026-04-16T13:52:39.999Z</time></trkpt><trkpt lat="44.895007" lon="8.8396834"><ele>117.0</ele><time>2026-04-16T13:52:40.999Z</time></trkpt><trkpt lat="44.8948734" lon="8.8396673"><ele>117.5</ele><time>2026-04-16T13:52:41.999Z</time></trkpt><trkpt lat="44.8947464" lon="8.8396526"><ele>118.0</ele><time>2026-04-16T13:52:42.999Z</time></trkpt><trkpt lat="44.8946206" lon="8.8396396"><ele>118.0</ele><time>2026-04-16T13:52:43.999Z</time></trkpt><trkpt lat="44.8944985" lon="8.8396261"><ele>118.0</ele><time>2026-04-16T13:52:44.999Z</time></trkpt><trkpt lat="44.8943787" lon="8.8396119"><ele>118.0</ele><time>2026-04-16T13:52:45.999Z</time></trkpt><trkpt lat="44.894264" lon="8.8395963"><ele>118.0</ele><time>2026-04-16T13:52:46.999Z</time></trkpt><trkpt lat="44.8941519" lon="8.839584"><ele>117.80000000000001</ele><time>2026-04-16T13:52:47.999Z</time></trkpt><trkpt lat="44.8940388" lon="8.8395719"><ele>117.60000000000001</ele><time>2026-04-16T13:52:48.999Z</time></trkpt><trkpt lat="44.8939407" lon="8.8395576"><ele>117.39999999999999</ele><time>2026-04-16T13:52:49.999Z</time></trkpt><trkpt lat="44.893857" lon="8.8395397"><ele>117.19999999999999</ele><time>2026-04-16T13:52:50.999Z</time></trkpt><trkpt lat="44.8937799" lon="8.8395115"><ele>117.0</ele><time>2026-04-16T13:52:51.999Z</time></trkpt><trkpt lat="44.8937108" lon="8.8394686"><ele>117.0</ele><time>2026-04-16T13:52:52.999Z</time></trkpt><trkpt lat="44.8936524" lon="8.8394087"><ele>117.00000000000001</ele><time>2026-04-16T13:52:53.999Z</time></trkpt><trkpt lat="44.8936066" lon="8.8393364"><ele>117.0</ele><time>2026-04-16T13:52:54.999Z</time></trkpt><trkpt lat="44.8935749" lon="8.8392528"><ele>117.0</ele><time>2026-04-16T13:52:55.999Z</time></trkpt><trkpt lat="44.8935586" lon="8.8391513"><ele>117.00000000000001</ele><time>2026-04-16T13:52:56.999Z</time></trkpt><trkpt lat="44.8935591" lon="8.839044"><ele>117.0</ele><time>2026-04-16T13:52:57.999Z</time></trkpt><trkpt lat="44.8935746" lon="8.8389352"><ele>117.0</ele><time>2026-04-16T13:52:58.999Z</time></trkpt><trkpt lat="44.8936113" lon="8.8388298"><ele>117.0</ele><time>2026-04-16T13:52:59.999Z</time></trkpt><trkpt lat="44.89366" lon="8.838741"><ele>117.0</ele><time>2026-04-16T13:53:00.999Z</time></trkpt><trkpt lat="44.8937271" lon="8.838666"><ele>117.0</ele><time>2026-04-16T13:53:01.999Z</time></trkpt><trkpt lat="44.8938024" lon="8.8386019"><ele>117.0</ele><time>2026-04-16T13:53:02.999Z</time></trkpt><trkpt lat="44.8938822" lon="8.8385403"><ele>117.0</ele><time>2026-04-16T13:53:03.999Z</time></trkpt><trkpt lat="44.8939601" lon="8.8384917"><ele>117.0</ele><time>2026-04-16T13:53:04.999Z</time></trkpt><trkpt lat="44.8940429" lon="8.838454"><ele>116.83333333333333</ele><time>2026-04-16T13:53:05.999Z</time></trkpt><trkpt lat="44.8941311" lon="8.8384335"><ele>116.66666666666666</ele><time>2026-04-16T13:53:06.999Z</time></trkpt><trkpt lat="44.89422" lon="8.8384389"><ele>116.5</ele><time>2026-04-16T13:53:07.999Z</time></trkpt><trkpt lat="44.8943048" lon="8.8384703"><ele>116.33333333333333</ele><time>2026-04-16T13:53:08.999Z</time></trkpt><trkpt lat="44.8943796" lon="8.8385254"><ele>116.16666666666666</ele><time>2026-04-16T13:53:09.999Z</time></trkpt><trkpt lat="44.8944414" lon="8.8385951"><ele>116.0</ele><time>2026-04-16T13:53:10.999Z</time></trkpt><trkpt lat="44.894491" lon="8.8386745"><ele>116.0</ele><time>2026-04-16T13:53:11.999Z</time></trkpt><trkpt lat="44.8945307" lon="8.83877"><ele>116.0</ele><time>2026-04-16T13:53:12.999Z</time></trkpt><trkpt lat="44.8945591" lon="8.8388849"><ele>116.0</ele><time>2026-04-16T13:53:13.999Z</time></trkpt><trkpt lat="44.8945766" lon="8.8390133"><ele>116.0</ele><time>2026-04-16T13:53:14.999Z</time></trkpt><trkpt lat="44.894591" lon="8.8391559"><ele>116.0</ele><time>2026-04-16T13:53:15.999Z</time></trkpt><trkpt lat="44.8946041" lon="8.839301"><ele>116.5</ele><time>2026-04-16T13:53:16.999Z</time></trkpt><trkpt lat="44.8946163" lon="8.8394519"><ele>117.0</ele><time>2026-04-16T13:53:17.997Z</time></trkpt><trkpt lat="44.8946299" lon="8.8396156"><ele>117.5</ele><time>2026-04-16T13:53:18.999Z</time></trkpt><trkpt lat="44.8946381" lon="8.8397734"><ele>118.0</ele><time>2026-04-16T13:53:19.999Z</time></trkpt><trkpt lat="44.8946444" lon="8.8399413"><ele>118.0</ele><time>2026-04-16T13:53:20.999Z</time></trkpt><trkpt lat="44.8946479" lon="8.8401092"><ele>118.0</ele><time>2026-04-16T13:53:21.999Z</time></trkpt><trkpt lat="44.8946514" lon="8.8402735"><ele>118.0</ele><time>2026-04-16T13:53:22.999Z</time></trkpt><trkpt lat="44.8946521" lon="8.8404396"><ele>118.0</ele><time>2026-04-16T13:53:23.999Z</time></trkpt><trkpt lat="44.8946551" lon="8.8406064"><ele>118.0</ele><time>2026-04-16T13:53:24.999Z</time></trkpt><trkpt lat="44.8946577" lon="8.8407752"><ele>118.0</ele><time>2026-04-16T13:53:25.999Z</time></trkpt><trkpt lat="44.8946606" lon="8.8409386"><ele>118.0</ele><time>2026-04-16T13:53:26.999Z</time></trkpt><trkpt lat="44.8946643" lon="8.8411048"><ele>118.0</ele><time>2026-04-16T13:53:27.999Z</time></trkpt><trkpt lat="44.8946674" lon="8.8412718"><ele>118.0</ele><time>2026-04-16T13:53:28.999Z</time></trkpt><trkpt lat="44.8946708" lon="8.8414441"><ele>118.0</ele><time>2026-04-16T13:53:29.999Z</time></trkpt><trkpt lat="44.8946746" lon="8.8416147"><ele>118.0</ele><time>2026-04-16T13:53:31.101Z</time></trkpt><trkpt lat="44.8946785" lon="8.8417842"><ele>118.0</ele><time>2026-04-16T13:53:31.999Z</time></trkpt><trkpt lat="44.8946814" lon="8.8419488"><ele>117.5</ele><time>2026-04-16T13:53:32.999Z</time></trkpt><trkpt lat="44.8946855" lon="8.8421198"><ele>117.0</ele><time>2026-04-16T13:53:33.999Z</time></trkpt><trkpt lat="44.8946865" lon="8.8423004"><ele>116.5</ele><time>2026-04-16T13:53:34.999Z</time></trkpt><trkpt lat="44.8946884" lon="8.8424593"><ele>116.0</ele><time>2026-04-16T13:53:35.999Z</time></trkpt><trkpt lat="44.8946901" lon="8.8426382"><ele>115.5</ele><time>2026-04-16T13:53:36.999Z</time></trkpt><trkpt lat="44.8946933" lon="8.8428077"><ele>115.0</ele><time>2026-04-16T13:53:37.999Z</time></trkpt><trkpt lat="44.894699" lon="8.8429833"><ele>114.5</ele><time>2026-04-16T13:53:38.999Z</time></trkpt><trkpt lat="44.8947048" lon="8.8431565"><ele>114.0</ele><time>2026-04-16T13:53:39.999Z</time></trkpt><trkpt lat="44.8947089" lon="8.8433261"><ele>113.0</ele><time>2026-04-16T13:53:40.999Z</time></trkpt><trkpt lat="44.8947107" lon="8.8434872"><ele>112.0</ele><time>2026-04-16T13:53:41.999Z</time></trkpt><trkpt lat="44.8947138" lon="8.8436483"><ele>111.0</ele><time>2026-04-16T13:53:42.999Z</time></trkpt><trkpt lat="44.8947166" lon="8.8438125"><ele>110.0</ele><time>2026-04-16T13:53:43.999Z</time></trkpt><trkpt lat="44.8947192" lon="8.8439785"><ele>110.0</ele><time>2026-04-16T13:53:44.999Z</time></trkpt><trkpt lat="44.8947239" lon="8.8441552"><ele>110.0</ele><time>2026-04-16T13:53:45.999Z</time></trkpt><trkpt lat="44.8947278" lon="8.8443308"><ele>110.0</ele><time>2026-04-16T13:53:46.999Z</time></trkpt><trkpt lat="44.8947314" lon="8.8445049"><ele>110.0</ele><time>2026-04-16T13:53:47.999Z</time></trkpt><trkpt lat="44.8947343" lon="8.8446793"><ele>110.0</ele><time>2026-04-16T13:53:48.999Z</time></trkpt><trkpt lat="44.8947367" lon="8.8448512"><ele>110.0</ele><time>2026-04-16T13:53:49.999Z</time></trkpt><trkpt lat="44.8947379" lon="8.8450238"><ele>110.0</ele><time>2026-04-16T13:53:50.999Z</time></trkpt><trkpt lat="44.8947396" lon="8.8451945"><ele>110.0</ele><time>2026-04-16T13:53:51.999Z</time></trkpt><trkpt lat="44.8947428" lon="8.8453661"><ele>110.25</ele><time>2026-04-16T13:53:52.999Z</time></trkpt><trkpt lat="44.8947476" lon="8.8455366"><ele>110.5</ele><time>2026-04-16T13:53:53.999Z</time></trkpt><trkpt lat="44.8947522" lon="8.8457026"><ele>110.75</ele><time>2026-04-16T13:53:54.999Z</time></trkpt><trkpt lat="44.8947546" lon="8.8458723"><ele>111.0</ele><time>2026-04-16T13:53:55.999Z</time></trkpt><trkpt lat="44.8947569" lon="8.8460317"><ele>112.0</ele><time>2026-04-16T13:53:56.999Z</time></trkpt><trkpt lat="44.89476" lon="8.8461978"><ele>113.0</ele><time>2026-04-16T13:53:57.999Z</time></trkpt><trkpt lat="44.8947636" lon="8.8463685"><ele>114.0</ele><time>2026-04-16T13:53:58.999Z</time></trkpt><trkpt lat="44.8947671" lon="8.8465373"><ele>115.0</ele><time>2026-04-16T13:53:59.999Z</time></trkpt><trkpt lat="44.89477" lon="8.8467151"><ele>115.5</ele><time>2026-04-16T13:54:00.999Z</time></trkpt><trkpt lat="44.8947732" lon="8.84689"><ele>116.0</ele><time>2026-04-16T13:54:01.999Z</time></trkpt><trkpt lat="44.8947751" lon="8.8470635"><ele>116.5</ele><time>2026-04-16T13:54:02.999Z</time></trkpt><trkpt lat="44.8947784" lon="8.8472378"><ele>117.0</ele><time>2026-04-16T13:54:03.999Z</time></trkpt><trkpt lat="44.8947806" lon="8.8474054"><ele>117.0</ele><time>2026-04-16T13:54:04.999Z</time></trkpt><trkpt lat="44.894783" lon="8.8475762"><ele>117.0</ele><time>2026-04-16T13:54:05.999Z</time></trkpt><trkpt lat="44.8947843" lon="8.8477408"><ele>117.0</ele><time>2026-04-16T13:54:06.999Z</time></trkpt><trkpt lat="44.8947864" lon="8.8479107"><ele>117.0</ele><time>2026-04-16T13:54:07.999Z</time></trkpt><trkpt lat="44.8947898" lon="8.8480718"><ele>117.0</ele><time>2026-04-16T13:54:08.999Z</time></trkpt><trkpt lat="44.8947935" lon="8.8482343"><ele>117.0</ele><time>2026-04-16T13:54:09.999Z</time></trkpt><trkpt lat="44.8947968" lon="8.8484005"><ele>117.0</ele><time>2026-04-16T13:54:10.999Z</time></trkpt><trkpt lat="44.8948009" lon="8.848571"><ele>117.0</ele><time>2026-04-16T13:54:11.999Z</time></trkpt><trkpt lat="44.8948031" lon="8.8487422"><ele>117.0</ele><time>2026-04-16T13:54:12.999Z</time></trkpt><trkpt lat="44.8948071" lon="8.8489202"><ele>117.0</ele><time>2026-04-16T13:54:13.999Z</time></trkpt><trkpt lat="44.8948109" lon="8.8490899"><ele>117.0</ele><time>2026-04-16T13:54:14.999Z</time></trkpt><trkpt lat="44.8948141" lon="8.8492461"><ele>117.0</ele><time>2026-04-16T13:54:15.999Z</time></trkpt><trkpt lat="44.8948169" lon="8.8494019"><ele>117.6</ele><time>2026-04-16T13:54:16.999Z</time></trkpt><trkpt lat="44.8948188" lon="8.8495407"><ele>118.19999999999999</ele><time>2026-04-16T13:54:17.999Z</time></trkpt><trkpt lat="44.8948213" lon="8.8496782"><ele>118.8</ele><time>2026-04-16T13:54:18.999Z</time></trkpt><trkpt lat="44.8948237" lon="8.8498157"><ele>119.4</ele><time>2026-04-16T13:54:19.999Z</time></trkpt><trkpt lat="44.8948275" lon="8.8499505"><ele>120.0</ele><time>2026-04-16T13:54:20.999Z</time></trkpt><trkpt lat="44.8948308" lon="8.8500828"><ele>119.85714285714286</ele><time>2026-04-16T13:54:21.999Z</time></trkpt><trkpt lat="44.8948343" lon="8.8502056"><ele>119.71428571428571</ele><time>2026-04-16T13:54:22.999Z</time></trkpt><trkpt lat="44.8948368" lon="8.8503186"><ele>119.57142857142857</ele><time>2026-04-16T13:54:23.999Z</time></trkpt><trkpt lat="44.8948399" lon="8.8504225"><ele>119.42857142857143</ele><time>2026-04-16T13:54:24.999Z</time></trkpt><trkpt lat="44.8948412" lon="8.8505226"><ele>119.28571428571428</ele><time>2026-04-16T13:54:25.999Z</time></trkpt><trkpt lat="44.894841" lon="8.8506178"><ele>119.14285714285714</ele><time>2026-04-16T13:54:26.999Z</time></trkpt><trkpt lat="44.8948393" lon="8.8507135"><ele>119.0</ele><time>2026-04-16T13:54:27.999Z</time></trkpt><trkpt lat="44.8948349" lon="8.8508087"><ele>118.99999999999999</ele><time>2026-04-16T13:54:28.999Z</time></trkpt><trkpt lat="44.8948294" lon="8.8509093"><ele>119.0</ele><time>2026-04-16T13:54:29.999Z</time></trkpt><trkpt lat="44.8948261" lon="8.8510143"><ele>119.0</ele><time>2026-04-16T13:54:30.999Z</time></trkpt><trkpt lat="44.8948308" lon="8.8511214"><ele>119.0</ele><time>2026-04-16T13:54:31.999Z</time></trkpt><trkpt lat="44.8948399" lon="8.8512286"><ele>118.99999999999999</ele><time>2026-04-16T13:54:32.999Z</time></trkpt><trkpt lat="44.8948493" lon="8.8513405"><ele>119.0</ele><time>2026-04-16T13:54:33.999Z</time></trkpt><trkpt lat="44.8948568" lon="8.8514687"><ele>119.0</ele><time>2026-04-16T13:54:34.999Z</time></trkpt><trkpt lat="44.8948595" lon="8.8516197"><ele>119.0</ele><time>2026-04-16T13:54:35.999Z</time></trkpt><trkpt lat="44.8948606" lon="8.8517683"><ele>119.0</ele><time>2026-04-16T13:54:36.999Z</time></trkpt><trkpt lat="44.894862" lon="8.8519185"><ele>119.0</ele><time>2026-04-16T13:54:37.999Z</time></trkpt><trkpt lat="44.8948644" lon="8.8520581"><ele>119.0</ele><time>2026-04-16T13:54:39.113Z</time></trkpt><trkpt lat="44.8948793" lon="8.8523264"><ele>119.0</ele><time>2026-04-16T13:54:41.108Z</time></trkpt><trkpt lat="44.8948925" lon="8.8524584"><ele>119.0</ele><time>2026-04-16T13:54:41.999Z</time></trkpt><trkpt lat="44.8949113" lon="8.8525918"><ele>119.0</ele><time>2026-04-16T13:54:42.999Z</time></trkpt><trkpt lat="44.8949369" lon="8.8527241"><ele>119.0</ele><time>2026-04-16T13:54:43.999Z</time></trkpt><trkpt lat="44.8949746" lon="8.8528509"><ele>119.0</ele><time>2026-04-16T13:54:44.999Z</time></trkpt><trkpt lat="44.8950231" lon="8.8529679"><ele>119.2</ele><time>2026-04-16T13:54:45.999Z</time></trkpt><trkpt lat="44.8950811" lon="8.8530803"><ele>119.4</ele><time>2026-04-16T13:54:46.999Z</time></trkpt><trkpt lat="44.8951457" lon="8.8531815"><ele>119.6</ele><time>2026-04-16T13:54:47.999Z</time></trkpt><trkpt lat="44.8952209" lon="8.8532893"><ele>119.8</ele><time>2026-04-16T13:54:48.999Z</time></trkpt><trkpt lat="44.8952974" lon="8.853397"><ele>120.0</ele><time>2026-04-16T13:54:50.114Z</time></trkpt><trkpt lat="44.8954533" lon="8.8536196"><ele>120.0</ele><time>2026-04-16T13:54:51.999Z</time></trkpt><trkpt lat="44.8955323" lon="8.8537277"><ele>120.0</ele><time>2026-04-16T13:54:52.999Z</time></trkpt><trkpt lat="44.8956089" lon="8.8538372"><ele>120.0</ele><time>2026-04-16T13:54:54.105Z</time></trkpt><trkpt lat="44.8956842" lon="8.8539385"><ele>120.0</ele><time>2026-04-16T13:54:55.11Z</time></trkpt><trkpt lat="44.8958299" lon="8.8541429"><ele>120.0</ele><time>2026-04-16T13:54:56.999Z</time></trkpt><trkpt lat="44.8958941" lon="8.8542415"><ele>120.0</ele><time>2026-04-16T13:54:57.999Z</time></trkpt><trkpt lat="44.8959535" lon="8.8543426"><ele>120.0</ele><time>2026-04-16T13:54:58.999Z</time></trkpt><trkpt lat="44.8960101" lon="8.8544508"><ele>120.0</ele><time>2026-04-16T13:54:59.999Z</time></trkpt><trkpt lat="44.896055" lon="8.8545508"><ele>120.0</ele><time>2026-04-16T13:55:00.999Z</time></trkpt><trkpt lat="44.8960939" lon="8.8546503"><ele>120.0</ele><time>2026-04-16T13:55:01.999Z</time></trkpt><trkpt lat="44.8961239" lon="8.8547346"><ele>119.8</ele><time>2026-04-16T13:55:02.998Z</time></trkpt><trkpt lat="44.8961635" lon="8.8548804"><ele>119.6</ele><time>2026-04-16T13:55:04.999Z</time></trkpt><trkpt lat="44.8961845" lon="8.85501"><ele>119.4</ele><time>2026-04-16T13:55:06.999Z</time></trkpt><trkpt lat="44.8961759" lon="8.8551658"><ele>119.2</ele><time>2026-04-16T13:55:08.999Z</time></trkpt><trkpt lat="44.8961152" lon="8.8553234"><ele>119.0</ele><time>2026-04-16T13:55:10.999Z</time></trkpt><trkpt lat="44.896063" lon="8.8553963"><ele>118.83333333333333</ele><time>2026-04-16T13:55:11.999Z</time></trkpt><trkpt lat="44.8959972" lon="8.8554656"><ele>118.66666666666666</ele><time>2026-04-16T13:55:12.999Z</time></trkpt><trkpt lat="44.8959206" lon="8.8555125"><ele>118.5</ele><time>2026-04-16T13:55:13.999Z</time></trkpt><trkpt lat="44.8958427" lon="8.8555518"><ele>118.33333333333334</ele><time>2026-04-16T13:55:14.999Z</time></trkpt><trkpt lat="44.8957589" lon="8.8555807"><ele>118.16666666666667</ele><time>2026-04-16T13:55:15.999Z</time></trkpt><trkpt lat="44.895667" lon="8.8556115"><ele>118.0</ele><time>2026-04-16T13:55:16.999Z</time></trkpt><trkpt lat="44.8955687" lon="8.8556347"><ele>118.4</ele><time>2026-04-16T13:55:17.999Z</time></trkpt><trkpt lat="44.8954645" lon="8.8556519"><ele>118.80000000000001</ele><time>2026-04-16T13:55:18.999Z</time></trkpt><trkpt lat="44.8953592" lon="8.8556635"><ele>119.2</ele><time>2026-04-16T13:55:19.999Z</time></trkpt><trkpt lat="44.8952525" lon="8.8556724"><ele>119.6</ele><time>2026-04-16T13:55:20.999Z</time></trkpt><trkpt lat="44.8951456" lon="8.8556724"><ele>120.0</ele><time>2026-04-16T13:55:21.999Z</time></trkpt><trkpt lat="44.8950382" lon="8.8556755"><ele>120.25</ele><time>2026-04-16T13:55:22.999Z</time></trkpt><trkpt lat="44.8949237" lon="8.8556733"><ele>120.5</ele><time>2026-04-16T13:55:23.999Z</time></trkpt><trkpt lat="44.8948166" lon="8.8556746"><ele>120.75</ele><time>2026-04-16T13:55:24.999Z</time></trkpt><trkpt lat="44.8947016" lon="8.8556752"><ele>121.0</ele><time>2026-04-16T13:55:25.999Z</time></trkpt><trkpt lat="44.8945859" lon="8.855681"><ele>121.0</ele><time>2026-04-16T13:55:26.999Z</time></trkpt><trkpt lat="44.8944649" lon="8.8556836"><ele>121.0</ele><time>2026-04-16T13:55:27.999Z</time></trkpt><trkpt lat="44.8943386" lon="8.8556897"><ele>121.0</ele><time>2026-04-16T13:55:28.999Z</time></trkpt><trkpt lat="44.8942079" lon="8.8556925"><ele>121.0</ele><time>2026-04-16T13:55:29.999Z</time></trkpt><trkpt lat="44.8940766" lon="8.8556938"><ele>120.75</ele><time>2026-04-16T13:55:30.999Z</time></trkpt><trkpt lat="44.8939438" lon="8.8556922"><ele>120.5</ele><time>2026-04-16T13:55:31.999Z</time></trkpt><trkpt lat="44.8938106" lon="8.8556922"><ele>120.25</ele><time>2026-04-16T13:55:32.999Z</time></trkpt><trkpt lat="44.8936819" lon="8.8556945"><ele>120.0</ele><time>2026-04-16T13:55:33.999Z</time></trkpt><trkpt lat="44.8935549" lon="8.8556979"><ele>120.0</ele><time>2026-04-16T13:55:34.999Z</time></trkpt><trkpt lat="44.8934258" lon="8.8557021"><ele>120.0</ele><time>2026-04-16T13:55:35.999Z</time></trkpt><trkpt lat="44.8932973" lon="8.8557064"><ele>120.0</ele><time>2026-04-16T13:55:36.999Z</time></trkpt><trkpt lat="44.8931667" lon="8.8557097"><ele>120.0</ele><time>2026-04-16T13:55:37.999Z</time></trkpt><trkpt lat="44.8930384" lon="8.8557163"><ele>119.75</ele><time>2026-04-16T13:55:38.999Z</time></trkpt><trkpt lat="44.8929086" lon="8.8557213"><ele>119.5</ele><time>2026-04-16T13:55:39.999Z</time></trkpt><trkpt lat="44.8927869" lon="8.8557251"><ele>119.25</ele><time>2026-04-16T13:55:40.999Z</time></trkpt><trkpt lat="44.8926584" lon="8.8557251"><ele>119.0</ele><time>2026-04-16T13:55:41.999Z</time></trkpt><trkpt lat="44.8925322" lon="8.8557268"><ele>119.0</ele><time>2026-04-16T13:55:42.999Z</time></trkpt><trkpt lat="44.8924004" lon="8.8557276"><ele>119.0</ele><time>2026-04-16T13:55:43.999Z</time></trkpt><trkpt lat="44.8922594" lon="8.8557295"><ele>119.0</ele><time>2026-04-16T13:55:44.999Z</time></trkpt><trkpt lat="44.8921286" lon="8.8557305"><ele>119.0</ele><time>2026-04-16T13:55:45.999Z</time></trkpt><trkpt lat="44.8919951" lon="8.8557317"><ele>119.0</ele><time>2026-04-16T13:55:46.998Z</time></trkpt><trkpt lat="44.8918675" lon="8.8557347"><ele>119.0</ele><time>2026-04-16T13:55:47.999Z</time></trkpt><trkpt lat="44.8917414" lon="8.8557377"><ele>119.0</ele><time>2026-04-16T13:55:48.999Z</time></trkpt><trkpt lat="44.8916131" lon="8.8557403"><ele>119.0</ele><time>2026-04-16T13:55:49.999Z</time></trkpt><trkpt lat="44.8914891" lon="8.8557417"><ele>119.75</ele><time>2026-04-16T13:55:50.999Z</time></trkpt><trkpt lat="44.8913653" lon="8.8557444"><ele>120.5</ele><time>2026-04-16T13:55:51.999Z</time></trkpt><trkpt lat="44.8912406" lon="8.855747"><ele>121.25</ele><time>2026-04-16T13:55:52.999Z</time></trkpt><trkpt lat="44.8911171" lon="8.8557509"><ele>122.0</ele><time>2026-04-16T13:55:53.999Z</time></trkpt><trkpt lat="44.8909913" lon="8.8557596"><ele>122.6</ele><time>2026-04-16T13:55:54.999Z</time></trkpt><trkpt lat="44.890883" lon="8.8557631"><ele>123.19999999999999</ele><time>2026-04-16T13:55:55.999Z</time></trkpt><trkpt lat="44.8907859" lon="8.8557672"><ele>123.8</ele><time>2026-04-16T13:55:56.999Z</time></trkpt><trkpt lat="44.8906927" lon="8.8557701"><ele>124.4</ele><time>2026-04-16T13:55:57.999Z</time></trkpt><trkpt lat="44.8906066" lon="8.8557724"><ele>125.0</ele><time>2026-04-16T13:55:58.999Z</time></trkpt><trkpt lat="44.8905283" lon="8.8557737"><ele>125.0</ele><time>2026-04-16T13:56:00.119Z</time></trkpt><trkpt lat="44.890455" lon="8.8557754"><ele>125.0</ele><time>2026-04-16T13:56:01.101Z</time></trkpt><trkpt lat="44.8903382" lon="8.8557766"><ele>125.0</ele><time>2026-04-16T13:56:02.999Z</time></trkpt><trkpt lat="44.8902327" lon="8.8557761"><ele>125.0</ele><time>2026-04-16T13:56:04.999Z</time></trkpt><trkpt lat="44.8901142" lon="8.8557808"><ele>125.0</ele><time>2026-04-16T13:56:06.999Z</time></trkpt><trkpt lat="44.89005" lon="8.8557819"><ele>124.71428571428571</ele><time>2026-04-16T13:56:07.999Z</time></trkpt><trkpt lat="44.8899834" lon="8.8557828"><ele>124.42857142857144</ele><time>2026-04-16T13:56:08.999Z</time></trkpt><trkpt lat="44.8899169" lon="8.8557821"><ele>124.14285714285715</ele><time>2026-04-16T13:56:09.999Z</time></trkpt><trkpt lat="44.8898517" lon="8.8557823"><ele>123.85714285714286</ele><time>2026-04-16T13:56:10.999Z</time></trkpt><trkpt lat="44.8897837" lon="8.8557832"><ele>123.57142857142858</ele><time>2026-04-16T13:56:11.999Z</time></trkpt><trkpt lat="44.8897166" lon="8.8557861"><ele>123.2857142857143</ele><time>2026-04-16T13:56:12.999Z</time></trkpt><trkpt lat="44.8896478" lon="8.8557876"><ele>123.00000000000001</ele><time>2026-04-16T13:56:13.999Z</time></trkpt><trkpt lat="44.8895815" lon="8.8557878"><ele>123.0</ele><time>2026-04-16T13:56:14.999Z</time></trkpt><trkpt lat="44.8894589" lon="8.8557849"><ele>123.0</ele><time>2026-04-16T13:56:16.999Z</time></trkpt><trkpt lat="44.8893885" lon="8.8557863"><ele>123.0</ele><time>2026-04-16T13:56:17.999Z</time></trkpt><trkpt lat="44.889314" lon="8.8557893"><ele>123.0</ele><time>2026-04-16T13:56:18.999Z</time></trkpt><trkpt lat="44.8892351" lon="8.8557937"><ele>123.0</ele><time>2026-04-16T13:56:19.999Z</time></trkpt><trkpt lat="44.889149" lon="8.8557983"><ele>123.0</ele><time>2026-04-16T13:56:20.999Z</time></trkpt><trkpt lat="44.889061" lon="8.8558034"><ele>123.2</ele><time>2026-04-16T13:56:21.999Z</time></trkpt><trkpt lat="44.8889693" lon="8.8558046"><ele>123.4</ele><time>2026-04-16T13:56:22.999Z</time></trkpt><trkpt lat="44.8888785" lon="8.8558047"><ele>123.60000000000001</ele><time>2026-04-16T13:56:23.999Z</time></trkpt><trkpt lat="44.888775" lon="8.8558056"><ele>123.80000000000001</ele><time>2026-04-16T13:56:24.999Z</time></trkpt><trkpt lat="44.8886702" lon="8.8558102"><ele>124.0</ele><time>2026-04-16T13:56:25.999Z</time></trkpt><trkpt lat="44.8885639" lon="8.855814"><ele>124.0</ele><time>2026-04-16T13:56:26.999Z</time></trkpt><trkpt lat="44.8884573" lon="8.8558156"><ele>124.0</ele><time>2026-04-16T13:56:27.999Z</time></trkpt><trkpt lat="44.8883515" lon="8.8558175"><ele>124.0</ele><time>2026-04-16T13:56:28.999Z</time></trkpt><trkpt lat="44.8882464" lon="8.8558195"><ele>124.0</ele><time>2026-04-16T13:56:29.999Z</time></trkpt><trkpt lat="44.8881439" lon="8.8558262"><ele>124.0</ele><time>2026-04-16T13:56:31.999Z</time></trkpt><trkpt lat="44.8880341" lon="8.8558331"><ele>124.0</ele><time>2026-04-16T13:56:32.999Z</time></trkpt><trkpt lat="44.8879196" lon="8.8558374"><ele>124.0</ele><time>2026-04-16T13:56:33.999Z</time></trkpt><trkpt lat="44.8878058" lon="8.8558393"><ele>124.0</ele><time>2026-04-16T13:56:34.999Z</time></trkpt><trkpt lat="44.8876037" lon="8.8558503"><ele>124.0</ele><time>2026-04-16T13:56:35.999Z</time></trkpt><trkpt lat="44.8875074" lon="8.8558595"><ele>124.2</ele><time>2026-04-16T13:56:36.999Z</time></trkpt><trkpt lat="44.8874041" lon="8.8558739"><ele>124.4</ele><time>2026-04-16T13:56:37.999Z</time></trkpt><trkpt lat="44.887301" lon="8.8558935"><ele>124.6</ele><time>2026-04-16T13:56:38.999Z</time></trkpt><trkpt lat="44.887198" lon="8.8559171"><ele>124.8</ele><time>2026-04-16T13:56:39.999Z</time></trkpt><trkpt lat="44.8870928" lon="8.8559461"><ele>125.0</ele><time>2026-04-16T13:56:40.999Z</time></trkpt><trkpt lat="44.8869887" lon="8.8559791"><ele>125.0</ele><time>2026-04-16T13:56:41.999Z</time></trkpt><trkpt lat="44.8868833" lon="8.8560143"><ele>125.0</ele><time>2026-04-16T13:56:42.999Z</time></trkpt><trkpt lat="44.8867792" lon="8.8560514"><ele>125.0</ele><time>2026-04-16T13:56:44.101Z</time></trkpt><trkpt lat="44.8865788" lon="8.8561303"><ele>125.0</ele><time>2026-04-16T13:56:46.107Z</time></trkpt><trkpt lat="44.8863899" lon="8.8562289"><ele>125.0</ele><time>2026-04-16T13:56:47.999Z</time></trkpt><trkpt lat="44.8862966" lon="8.8562796"><ele>125.0</ele><time>2026-04-16T13:56:48.999Z</time></trkpt><trkpt lat="44.8862067" lon="8.8563334"><ele>125.0</ele><time>2026-04-16T13:56:49.999Z</time></trkpt><trkpt lat="44.8861221" lon="8.8563857"><ele>125.0</ele><time>2026-04-16T13:56:50.999Z</time></trkpt><trkpt lat="44.8860356" lon="8.8564465"><ele>125.0</ele><time>2026-04-16T13:56:51.999Z</time></trkpt><trkpt lat="44.8859633" lon="8.8565009"><ele>125.33333333333333</ele><time>2026-04-16T13:56:52.999Z</time></trkpt><trkpt lat="44.8858959" lon="8.856552"><ele>125.66666666666666</ele><time>2026-04-16T13:56:53.999Z</time></trkpt><trkpt lat="44.8858361" lon="8.8566008"><ele>126.0</ele><time>2026-04-16T13:56:55.111Z</time></trkpt><trkpt lat="44.8857515" lon="8.856671"><ele>126.33333333333334</ele><time>2026-04-16T13:56:56.999Z</time></trkpt><trkpt lat="44.8856934" lon="8.8567299"><ele>126.66666666666667</ele><time>2026-04-16T13:56:58.999Z</time></trkpt><trkpt lat="44.885622" lon="8.8568055"><ele>127.0</ele><time>2026-04-16T13:57:00.999Z</time></trkpt><trkpt lat="44.885538" lon="8.8569034"><ele>127.00000000000001</ele><time>2026-04-16T13:57:02.999Z</time></trkpt><trkpt lat="44.8854504" lon="8.8570135"><ele>127.0</ele><time>2026-04-16T13:57:04.999Z</time></trkpt><trkpt lat="44.8853996" lon="8.8570811"><ele>127.0</ele><time>2026-04-16T13:57:05.999Z</time></trkpt><trkpt lat="44.8853394" lon="8.8571422"><ele>127.0</ele><time>2026-04-16T13:57:06.999Z</time></trkpt><trkpt lat="44.8852688" lon="8.8571984"><ele>127.00000000000001</ele><time>2026-04-16T13:57:07.999Z</time></trkpt><trkpt lat="44.8851963" lon="8.8572415"><ele>127.0</ele><time>2026-04-16T13:57:08.999Z</time></trkpt><trkpt lat="44.8851181" lon="8.8572831"><ele>127.16666666666667</ele><time>2026-04-16T13:57:09.999Z</time></trkpt><trkpt lat="44.8850425" lon="8.8573237"><ele>127.33333333333334</ele><time>2026-04-16T13:57:10.999Z</time></trkpt><trkpt lat="44.8849664" lon="8.8573697"><ele>127.5</ele><time>2026-04-16T13:57:11.999Z</time></trkpt><trkpt lat="44.8848876" lon="8.8574229"><ele>127.66666666666666</ele><time>2026-04-16T13:57:12.999Z</time></trkpt><trkpt lat="44.884807" lon="8.8574823"><ele>127.83333333333333</ele><time>2026-04-16T13:57:13.999Z</time></trkpt><trkpt lat="44.8847254" lon="8.8575487"><ele>128.0</ele><time>2026-04-16T13:57:14.999Z</time></trkpt><trkpt lat="44.8846451" lon="8.8576174"><ele>128.20000000000002</ele><time>2026-04-16T13:57:15.999Z</time></trkpt><trkpt lat="44.8845639" lon="8.8576904"><ele>128.4</ele><time>2026-04-16T13:57:16.999Z</time></trkpt><trkpt lat="44.8844823" lon="8.8577608"><ele>128.60000000000002</ele><time>2026-04-16T13:57:17.999Z</time></trkpt><trkpt lat="44.8844075" lon="8.8578262"><ele>128.8</ele><time>2026-04-16T13:57:18.999Z</time></trkpt><trkpt lat="44.884332" lon="8.8578895"><ele>129.0</ele><time>2026-04-16T13:57:19.999Z</time></trkpt><trkpt lat="44.8842575" lon="8.8579519"><ele>129.0</ele><time>2026-04-16T13:57:20.999Z</time></trkpt><trkpt lat="44.8841896" lon="8.8580097"><ele>129.0</ele><time>2026-04-16T13:57:21.999Z</time></trkpt><trkpt lat="44.8841232" lon="8.858065"><ele>129.0</ele><time>2026-04-16T13:57:22.999Z</time></trkpt><trkpt lat="44.8840576" lon="8.8581217"><ele>129.0</ele><time>2026-04-16T13:57:23.999Z</time></trkpt><trkpt lat="44.8840002" lon="8.8581736"><ele>129.0</ele><time>2026-04-16T13:57:24.999Z</time></trkpt><trkpt lat="44.8839036" lon="8.8582652"><ele>129.0</ele><time>2026-04-16T13:57:26.999Z</time></trkpt><trkpt lat="44.8838307" lon="8.8583481"><ele>129.0</ele><time>2026-04-16T13:57:28.999Z</time></trkpt><trkpt lat="44.883742" lon="8.8584447"><ele>129.0</ele><time>2026-04-16T13:57:30.999Z</time></trkpt><trkpt lat="44.8836299" lon="8.8585377"><ele>129.0</ele><time>2026-04-16T13:57:32.999Z</time></trkpt><trkpt lat="44.883565" lon="8.8585905"><ele>129.0</ele><time>2026-04-16T13:57:33.999Z</time></trkpt><trkpt lat="44.8834941" lon="8.8586386"><ele>129.0</ele><time>2026-04-16T13:57:34.999Z</time></trkpt><trkpt lat="44.8834178" lon="8.8586744"><ele>128.6</ele><time>2026-04-16T13:57:35.999Z</time></trkpt><trkpt lat="44.8833305" lon="8.8586973"><ele>128.2</ele><time>2026-04-16T13:57:36.999Z</time></trkpt><trkpt lat="44.8832351" lon="8.8587035"><ele>127.79999999999998</ele><time>2026-04-16T13:57:37.999Z</time></trkpt><trkpt lat="44.8831342" lon="8.8586975"><ele>127.39999999999999</ele><time>2026-04-16T13:57:38.999Z</time></trkpt><trkpt lat="44.8830273" lon="8.8586854"><ele>127.0</ele><time>2026-04-16T13:57:39.999Z</time></trkpt><trkpt lat="44.8829194" lon="8.8586701"><ele>127.0</ele><time>2026-04-16T13:57:40.999Z</time></trkpt><trkpt lat="44.882813" lon="8.858652"><ele>127.0</ele><time>2026-04-16T13:57:41.999Z</time></trkpt><trkpt lat="44.882701" lon="8.8586344"><ele>127.0</ele><time>2026-04-16T13:57:42.999Z</time></trkpt><trkpt lat="44.8825892" lon="8.8586158"><ele>127.0</ele><time>2026-04-16T13:57:43.999Z</time></trkpt><trkpt lat="44.8824646" lon="8.8585935"><ele>127.0</ele><time>2026-04-16T13:57:44.999Z</time></trkpt><trkpt lat="44.8823431" lon="8.8585726"><ele>127.0</ele><time>2026-04-16T13:57:45.999Z</time></trkpt><trkpt lat="44.8822193" lon="8.8585508"><ele>127.0</ele><time>2026-04-16T13:57:46.999Z</time></trkpt><trkpt lat="44.8820902" lon="8.8585268"><ele>127.0</ele><time>2026-04-16T13:57:47.999Z</time></trkpt><trkpt lat="44.8819669" lon="8.8585065"><ele>127.0</ele><time>2026-04-16T13:57:48.999Z</time></trkpt><trkpt lat="44.8818393" lon="8.8584873"><ele>127.0</ele><time>2026-04-16T13:57:49.999Z</time></trkpt><trkpt lat="44.8817122" lon="8.8584695"><ele>127.0</ele><time>2026-04-16T13:57:50.999Z</time></trkpt><trkpt lat="44.8815854" lon="8.8584495"><ele>127.0</ele><time>2026-04-16T13:57:51.999Z</time></trkpt><trkpt lat="44.8814532" lon="8.8584286"><ele>127.25</ele><time>2026-04-16T13:57:52.999Z</time></trkpt><trkpt lat="44.8813266" lon="8.8584081"><ele>127.5</ele><time>2026-04-16T13:57:53.999Z</time></trkpt><trkpt lat="44.8811989" lon="8.8583886"><ele>127.75</ele><time>2026-04-16T13:57:54.999Z</time></trkpt><trkpt lat="44.8810714" lon="8.858367"><ele>128.0</ele><time>2026-04-16T13:57:55.999Z</time></trkpt><trkpt lat="44.8809384" lon="8.8583464"><ele>128.0</ele><time>2026-04-16T13:57:56.999Z</time></trkpt><trkpt lat="44.8808028" lon="8.8583263"><ele>128.0</ele><time>2026-04-16T13:57:57.999Z</time></trkpt><trkpt lat="44.8806683" lon="8.8583055"><ele>128.0</ele><time>2026-04-16T13:57:58.999Z</time></trkpt><trkpt lat="44.8805318" lon="8.8582852"><ele>128.0</ele><time>2026-04-16T13:57:59.999Z</time></trkpt><trkpt lat="44.8803953" lon="8.8582648"><ele>128.0</ele><time>2026-04-16T13:58:00.999Z</time></trkpt><trkpt lat="44.8802616" lon="8.8582453"><ele>128.0</ele><time>2026-04-16T13:58:01.999Z</time></trkpt><trkpt lat="44.88013" lon="8.8582256"><ele>128.0</ele><time>2026-04-16T13:58:02.999Z</time></trkpt><trkpt lat="44.8800011" lon="8.8582063"><ele>128.0</ele><time>2026-04-16T13:58:03.999Z</time></trkpt><trkpt lat="44.879874" lon="8.8581865"><ele>128.33333333333331</ele><time>2026-04-16T13:58:05.111Z</time></trkpt><trkpt lat="44.8796157" lon="8.8581473"><ele>128.66666666666666</ele><time>2026-04-16T13:58:06.999Z</time></trkpt><trkpt lat="44.8794918" lon="8.8581268"><ele>129.0</ele><time>2026-04-16T13:58:07.999Z</time></trkpt><trkpt lat="44.8793564" lon="8.8581064"><ele>128.5</ele><time>2026-04-16T13:58:08.999Z</time></trkpt><trkpt lat="44.8792237" lon="8.8580866"><ele>128.0</ele><time>2026-04-16T13:58:09.999Z</time></trkpt><trkpt lat="44.8790947" lon="8.8580663"><ele>127.5</ele><time>2026-04-16T13:58:10.999Z</time></trkpt><trkpt lat="44.8789634" lon="8.8580455"><ele>127.0</ele><time>2026-04-16T13:58:11.999Z</time></trkpt><trkpt lat="44.8788314" lon="8.8580279"><ele>127.0</ele><time>2026-04-16T13:58:12.999Z</time></trkpt><trkpt lat="44.8787014" lon="8.8580048"><ele>127.0</ele><time>2026-04-16T13:58:13.999Z</time></trkpt><trkpt lat="44.8785604" lon="8.8579858"><ele>127.0</ele><time>2026-04-16T13:58:14.999Z</time></trkpt><trkpt lat="44.8784216" lon="8.8579633"><ele>127.0</ele><time>2026-04-16T13:58:15.999Z</time></trkpt><trkpt lat="44.8782791" lon="8.8579398"><ele>127.5</ele><time>2026-04-16T13:58:16.999Z</time></trkpt><trkpt lat="44.8781365" lon="8.8579195"><ele>128.0</ele><time>2026-04-16T13:58:17.999Z</time></trkpt><trkpt lat="44.8779968" lon="8.8578959"><ele>128.5</ele><time>2026-04-16T13:58:18.999Z</time></trkpt><trkpt lat="44.8778579" lon="8.8578744"><ele>129.0</ele><time>2026-04-16T13:58:19.999Z</time></trkpt><trkpt lat="44.8777176" lon="8.857854"><ele>129.0</ele><time>2026-04-16T13:58:20.999Z</time></trkpt><trkpt lat="44.8775791" lon="8.8578336"><ele>129.0</ele><time>2026-04-16T13:58:21.999Z</time></trkpt><trkpt lat="44.8774418" lon="8.8578143"><ele>129.0</ele><time>2026-04-16T13:58:22.999Z</time></trkpt><trkpt lat="44.8773066" lon="8.857794"><ele>129.0</ele><time>2026-04-16T13:58:23.999Z</time></trkpt><trkpt lat="44.8771722" lon="8.8577717"><ele>129.0</ele><time>2026-04-16T13:58:24.999Z</time></trkpt><trkpt lat="44.877024" lon="8.857739"><ele>129.0</ele><time>2026-04-16T13:58:26.999Z</time></trkpt><trkpt lat="44.8768848" lon="8.8577197"><ele>129.0</ele><time>2026-04-16T13:58:27.999Z</time></trkpt><trkpt lat="44.8767686" lon="8.8577066"><ele>129.0</ele><time>2026-04-16T13:58:28.999Z</time></trkpt><trkpt lat="44.8766305" lon="8.8576873"><ele>129.66666666666666</ele><time>2026-04-16T13:58:29.999Z</time></trkpt><trkpt lat="44.8763936" lon="8.8576552"><ele>130.33333333333331</ele><time>2026-04-16T13:58:30.999Z</time></trkpt><trkpt lat="44.8762696" lon="8.8576368"><ele>131.0</ele><time>2026-04-16T13:58:31.999Z</time></trkpt><trkpt lat="44.8761357" lon="8.8576174"><ele>131.0</ele><time>2026-04-16T13:58:32.999Z</time></trkpt><trkpt lat="44.8760056" lon="8.8575965"><ele>131.0</ele><time>2026-04-16T13:58:33.999Z</time></trkpt><trkpt lat="44.8758734" lon="8.8575747"><ele>131.0</ele><time>2026-04-16T13:58:34.999Z</time></trkpt><trkpt lat="44.8757158" lon="8.8575424"><ele>131.0</ele><time>2026-04-16T13:58:36.999Z</time></trkpt><trkpt lat="44.8755738" lon="8.8575174"><ele>131.33333333333331</ele><time>2026-04-16T13:58:37.999Z</time></trkpt><trkpt lat="44.875457" lon="8.8575012"><ele>131.66666666666666</ele><time>2026-04-16T13:58:38.999Z</time></trkpt><trkpt lat="44.8753169" lon="8.857484"><ele>132.0</ele><time>2026-04-16T13:58:39.999Z</time></trkpt><trkpt lat="44.8750748" lon="8.8574532"><ele>132.0</ele><time>2026-04-16T13:58:40.999Z</time></trkpt><trkpt lat="44.8749364" lon="8.857435"><ele>132.0</ele><time>2026-04-16T13:58:41.999Z</time></trkpt><trkpt lat="44.8747976" lon="8.8574141"><ele>132.0</ele><time>2026-04-16T13:58:42.999Z</time></trkpt><trkpt lat="44.8746613" lon="8.8573892"><ele>132.0</ele><time>2026-04-16T13:58:43.999Z</time></trkpt><trkpt lat="44.8745225" lon="8.8573672"><ele>132.0</ele><time>2026-04-16T13:58:44.999Z</time></trkpt><trkpt lat="44.8743835" lon="8.8573447"><ele>132.0</ele><time>2026-04-16T13:58:45.999Z</time></trkpt><trkpt lat="44.8742444" lon="8.8573232"><ele>132.0</ele><time>2026-04-16T13:58:46.999Z</time></trkpt><trkpt lat="44.8741105" lon="8.8573023"><ele>132.0</ele><time>2026-04-16T13:58:47.999Z</time></trkpt><trkpt lat="44.8739678" lon="8.8572805"><ele>132.0</ele><time>2026-04-16T13:58:48.999Z</time></trkpt><trkpt lat="44.8738287" lon="8.8572577"><ele>132.0</ele><time>2026-04-16T13:58:49.999Z</time></trkpt><trkpt lat="44.8736893" lon="8.8572353"><ele>132.0</ele><time>2026-04-16T13:58:50.999Z</time></trkpt><trkpt lat="44.8735434" lon="8.8572119"><ele>132.0</ele><time>2026-04-16T13:58:51.999Z</time></trkpt><trkpt lat="44.8734076" lon="8.857191"><ele>132.0</ele><time>2026-04-16T13:58:52.999Z</time></trkpt><trkpt lat="44.8732664" lon="8.8571728"><ele>132.0</ele><time>2026-04-16T13:58:53.999Z</time></trkpt><trkpt lat="44.8731308" lon="8.8571548"><ele>132.0</ele><time>2026-04-16T13:58:54.999Z</time></trkpt><trkpt lat="44.8730033" lon="8.8571368"><ele>132.0</ele><time>2026-04-16T13:58:55.999Z</time></trkpt><trkpt lat="44.8728704" lon="8.8571181"><ele>132.0</ele><time>2026-04-16T13:58:56.999Z</time></trkpt><trkpt lat="44.8726849" lon="8.8570969"><ele>132.0</ele><time>2026-04-16T13:58:58.999Z</time></trkpt><trkpt lat="44.872515" lon="8.8570718"><ele>132.0</ele><time>2026-04-16T13:58:59.999Z</time></trkpt><trkpt lat="44.8723917" lon="8.8570514"><ele>132.0</ele><time>2026-04-16T13:59:00.999Z</time></trkpt><trkpt lat="44.8723072" lon="8.8570337"><ele>132.0</ele><time>2026-04-16T13:59:01.999Z</time></trkpt><trkpt lat="44.8722116" lon="8.8570191"><ele>132.0</ele><time>2026-04-16T13:59:02.999Z</time></trkpt><trkpt lat="44.8719699" lon="8.856982"><ele>132.0</ele><time>2026-04-16T13:59:03.999Z</time></trkpt><trkpt lat="44.8718452" lon="8.856964"><ele>132.5</ele><time>2026-04-16T13:59:04.999Z</time></trkpt><trkpt lat="44.8717241" lon="8.8569462"><ele>133.0</ele><time>2026-04-16T13:59:05.999Z</time></trkpt><trkpt lat="44.8716026" lon="8.8569303"><ele>133.5</ele><time>2026-04-16T13:59:06.999Z</time></trkpt><trkpt lat="44.8714787" lon="8.8569117"><ele>134.0</ele><time>2026-04-16T13:59:07.999Z</time></trkpt><trkpt lat="44.8713584" lon="8.8568932"><ele>134.0</ele><time>2026-04-16T13:59:08.999Z</time></trkpt><trkpt lat="44.8712372" lon="8.856874"><ele>134.0</ele><time>2026-04-16T13:59:09.999Z</time></trkpt><trkpt lat="44.8711118" lon="8.8568515"><ele>134.0</ele><time>2026-04-16T13:59:10.999Z</time></trkpt><trkpt lat="44.8709836" lon="8.8568328"><ele>134.0</ele><time>2026-04-16T13:59:11.999Z</time></trkpt><trkpt lat="44.8708511" lon="8.8568138"><ele>134.0</ele><time>2026-04-16T13:59:12.999Z</time></trkpt><trkpt lat="44.8707149" lon="8.8567953"><ele>134.0</ele><time>2026-04-16T13:59:13.999Z</time></trkpt><trkpt lat="44.8705814" lon="8.8567755"><ele>134.0</ele><time>2026-04-16T13:59:14.999Z</time></trkpt><trkpt lat="44.8704517" lon="8.856753"><ele>134.0</ele><time>2026-04-16T13:59:15.999Z</time></trkpt><trkpt lat="44.8703242" lon="8.8567328"><ele>134.0</ele><time>2026-04-16T13:59:16.999Z</time></trkpt><trkpt lat="44.8701985" lon="8.8567151"><ele>134.0</ele><time>2026-04-16T13:59:17.999Z</time></trkpt><trkpt lat="44.8700734" lon="8.8566958"><ele>134.0</ele><time>2026-04-16T13:59:18.999Z</time></trkpt><trkpt lat="44.8699536" lon="8.8566765"><ele>134.0</ele><time>2026-04-16T13:59:19.999Z</time></trkpt><trkpt lat="44.869828" lon="8.8566555"><ele>134.0</ele><time>2026-04-16T13:59:20.999Z</time></trkpt><trkpt lat="44.8697092" lon="8.8566395"><ele>134.0</ele><time>2026-04-16T13:59:21.999Z</time></trkpt><trkpt lat="44.8695893" lon="8.8566211"><ele>134.0</ele><time>2026-04-16T13:59:22.999Z</time></trkpt><trkpt lat="44.8694673" lon="8.8566028"><ele>134.0</ele><time>2026-04-16T13:59:23.999Z</time></trkpt><trkpt lat="44.869347" lon="8.8565844"><ele>133.25</ele><time>2026-04-16T13:59:24.999Z</time></trkpt><trkpt lat="44.8692263" lon="8.8565684"><ele>132.5</ele><time>2026-04-16T13:59:25.999Z</time></trkpt><trkpt lat="44.8691033" lon="8.8565486"><ele>131.75</ele><time>2026-04-16T13:59:26.999Z</time></trkpt><trkpt lat="44.8689842" lon="8.8565304"><ele>131.0</ele><time>2026-04-16T13:59:27.999Z</time></trkpt><trkpt lat="44.8688584" lon="8.8565095"><ele>131.0</ele><time>2026-04-16T13:59:28.999Z</time></trkpt><trkpt lat="44.8687345" lon="8.8564923"><ele>131.0</ele><time>2026-04-16T13:59:30.1Z</time></trkpt><trkpt lat="44.8684862" lon="8.8564582"><ele>131.0</ele><time>2026-04-16T13:59:31.999Z</time></trkpt><trkpt lat="44.8683618" lon="8.8564426"><ele>131.25</ele><time>2026-04-16T13:59:32.999Z</time></trkpt><trkpt lat="44.8682324" lon="8.8564245"><ele>131.5</ele><time>2026-04-16T13:59:33.999Z</time></trkpt><trkpt lat="44.8680973" lon="8.8564032"><ele>131.75</ele><time>2026-04-16T13:59:34.999Z</time></trkpt><trkpt lat="44.8679632" lon="8.8563855"><ele>132.0</ele><time>2026-04-16T13:59:36.102Z</time></trkpt><trkpt lat="44.8676852" lon="8.8563484"><ele>132.6</ele><time>2026-04-16T13:59:37.999Z</time></trkpt><trkpt lat="44.8675607" lon="8.8563303"><ele>133.2</ele><time>2026-04-16T13:59:38.999Z</time></trkpt><trkpt lat="44.8674392" lon="8.8563141"><ele>133.8</ele><time>2026-04-16T13:59:39.999Z</time></trkpt><trkpt lat="44.8673407" lon="8.8562988"><ele>134.4</ele><time>2026-04-16T13:59:40.999Z</time></trkpt><trkpt lat="44.8672483" lon="8.8562822"><ele>135.0</ele><time>2026-04-16T13:59:41.999Z</time></trkpt><trkpt lat="44.8671648" lon="8.8562688"><ele>135.0</ele><time>2026-04-16T13:59:42.999Z</time></trkpt><trkpt lat="44.8670862" lon="8.8562581"><ele>135.0</ele><time>2026-04-16T13:59:43.999Z</time></trkpt><trkpt lat="44.8670144" lon="8.8562493"><ele>135.0</ele><time>2026-04-16T13:59:44.999Z</time></trkpt><trkpt lat="44.8668906" lon="8.8562298"><ele>135.0</ele><time>2026-04-16T13:59:46.999Z</time></trkpt><trkpt lat="44.8668219" lon="8.856217"><ele>135.0</ele><time>2026-04-16T13:59:47.999Z</time></trkpt><trkpt lat="44.86674" lon="8.8562012"><ele>135.0</ele><time>2026-04-16T13:59:48.999Z</time></trkpt><trkpt lat="44.8666403" lon="8.8561866"><ele>135.2</ele><time>2026-04-16T13:59:49.999Z</time></trkpt><trkpt lat="44.8665399" lon="8.8561718"><ele>135.4</ele><time>2026-04-16T13:59:50.999Z</time></trkpt><trkpt lat="44.866434" lon="8.8561562"><ele>135.6</ele><time>2026-04-16T13:59:51.999Z</time></trkpt><trkpt lat="44.8663126" lon="8.856141"><ele>135.8</ele><time>2026-04-16T13:59:52.999Z</time></trkpt><trkpt lat="44.8661975" lon="8.8561236"><ele>136.0</ele><time>2026-04-16T13:59:54.117Z</time></trkpt><trkpt lat="44.8660827" lon="8.8561065"><ele>136.0</ele><time>2026-04-16T13:59:55.11Z</time></trkpt><trkpt lat="44.8659599" lon="8.8560872"><ele>136.0</ele><time>2026-04-16T13:59:56.115Z</time></trkpt><trkpt lat="44.8657168" lon="8.8560467"><ele>136.0</ele><time>2026-04-16T13:59:57.999Z</time></trkpt><trkpt lat="44.8655858" lon="8.8560284"><ele>136.33333333333334</ele><time>2026-04-16T13:59:58.999Z</time></trkpt><trkpt lat="44.8654613" lon="8.8560103"><ele>136.66666666666666</ele><time>2026-04-16T13:59:59.999Z</time></trkpt><trkpt lat="44.8653287" lon="8.8559893"><ele>137.0</ele><time>2026-04-16T14:00:01.102Z</time></trkpt><trkpt lat="44.8650605" lon="8.8559477"><ele>137.0</ele><time>2026-04-16T14:00:02.999Z</time></trkpt><trkpt lat="44.8649222" lon="8.8559243"><ele>137.0</ele><time>2026-04-16T14:00:03.999Z</time></trkpt><trkpt lat="44.8647833" lon="8.8558994"><ele>137.0</ele><time>2026-04-16T14:00:04.999Z</time></trkpt><trkpt lat="44.864644" lon="8.8558788"><ele>137.0</ele><time>2026-04-16T14:00:05.999Z</time></trkpt><trkpt lat="44.8645046" lon="8.855856"><ele>137.0</ele><time>2026-04-16T14:00:06.999Z</time></trkpt><trkpt lat="44.8643611" lon="8.8558322"><ele>137.0</ele><time>2026-04-16T14:00:07.999Z</time></trkpt><trkpt lat="44.8642172" lon="8.8558077"><ele>137.0</ele><time>2026-04-16T14:00:08.999Z</time></trkpt><trkpt lat="44.8640723" lon="8.8557845"><ele>137.0</ele><time>2026-04-16T14:00:10.112Z</time></trkpt><trkpt lat="44.8639278" lon="8.8557619"><ele>137.0</ele><time>2026-04-16T14:00:11.116Z</time></trkpt><trkpt lat="44.8636352" lon="8.8557177"><ele>137.0</ele><time>2026-04-16T14:00:12.999Z</time></trkpt><trkpt lat="44.8634882" lon="8.8556958"><ele>137.0</ele><time>2026-04-16T14:00:13.999Z</time></trkpt><trkpt lat="44.8633415" lon="8.8556692"><ele>137.25</ele><time>2026-04-16T14:00:14.999Z</time></trkpt><trkpt lat="44.8631952" lon="8.8556489"><ele>137.5</ele><time>2026-04-16T14:00:15.999Z</time></trkpt><trkpt lat="44.8630446" lon="8.8556243"><ele>137.75</ele><time>2026-04-16T14:00:16.999Z</time></trkpt><trkpt lat="44.8629021" lon="8.8556012"><ele>138.0</ele><time>2026-04-16T14:00:17.999Z</time></trkpt><trkpt lat="44.8627555" lon="8.8555763"><ele>137.33333333333334</ele><time>2026-04-16T14:00:18.999Z</time></trkpt><trkpt lat="44.8626063" lon="8.8555513"><ele>136.66666666666669</ele><time>2026-04-16T14:00:19.999Z</time></trkpt><trkpt lat="44.8624567" lon="8.8555268"><ele>136.0</ele><time>2026-04-16T14:00:20.999Z</time></trkpt><trkpt lat="44.8623047" lon="8.8555"><ele>136.0</ele><time>2026-04-16T14:00:21.999Z</time></trkpt><trkpt lat="44.8621518" lon="8.8554771"><ele>136.0</ele><time>2026-04-16T14:00:22.999Z</time></trkpt><trkpt lat="44.8620031" lon="8.8554542"><ele>136.0</ele><time>2026-04-16T14:00:23.999Z</time></trkpt><trkpt lat="44.8618473" lon="8.8554297"><ele>136.33333333333334</ele><time>2026-04-16T14:00:24.999Z</time></trkpt><trkpt lat="44.8616856" lon="8.8554112"><ele>136.66666666666666</ele><time>2026-04-16T14:00:25.999Z</time></trkpt><trkpt lat="44.8615269" lon="8.8553877"><ele>137.0</ele><time>2026-04-16T14:00:26.999Z</time></trkpt><trkpt lat="44.8613591" lon="8.8553621"><ele>137.0</ele><time>2026-04-16T14:00:27.999Z</time></trkpt><trkpt lat="44.8612014" lon="8.8553381"><ele>137.0</ele><time>2026-04-16T14:00:28.999Z</time></trkpt><trkpt lat="44.8610448" lon="8.8553145"><ele>137.0</ele><time>2026-04-16T14:00:29.999Z</time></trkpt><trkpt lat="44.8608887" lon="8.855293"><ele>138.0</ele><time>2026-04-16T14:00:30.999Z</time></trkpt><trkpt lat="44.8607285" lon="8.8552677"><ele>139.0</ele><time>2026-04-16T14:00:31.999Z</time></trkpt><trkpt lat="44.8605616" lon="8.8552432"><ele>140.0</ele><time>2026-04-16T14:00:32.999Z</time></trkpt><trkpt lat="44.8604012" lon="8.8552184"><ele>140.0</ele><time>2026-04-16T14:00:33.999Z</time></trkpt><trkpt lat="44.8602378" lon="8.8551955"><ele>140.0</ele><time>2026-04-16T14:00:34.999Z</time></trkpt><trkpt lat="44.8600752" lon="8.8551723"><ele>140.0</ele><time>2026-04-16T14:00:35.999Z</time></trkpt><trkpt lat="44.8599102" lon="8.8551485"><ele>140.0</ele><time>2026-04-16T14:00:36.999Z</time></trkpt><trkpt lat="44.8597443" lon="8.8551259"><ele>140.0</ele><time>2026-04-16T14:00:37.999Z</time></trkpt><trkpt lat="44.8595777" lon="8.8551015"><ele>140.0</ele><time>2026-04-16T14:00:38.999Z</time></trkpt><trkpt lat="44.8594114" lon="8.8550754"><ele>139.0</ele><time>2026-04-16T14:00:39.999Z</time></trkpt><trkpt lat="44.8590741" lon="8.8550226"><ele>138.0</ele><time>2026-04-16T14:00:41.999Z</time></trkpt><trkpt lat="44.8589017" lon="8.8549961"><ele>138.0</ele><time>2026-04-16T14:00:42.999Z</time></trkpt><trkpt lat="44.8587302" lon="8.8549695"><ele>138.0</ele><time>2026-04-16T14:00:43.999Z</time></trkpt><trkpt lat="44.8585647" lon="8.8549445"><ele>138.0</ele><time>2026-04-16T14:00:44.999Z</time></trkpt><trkpt lat="44.8584071" lon="8.8549199"><ele>138.0</ele><time>2026-04-16T14:00:45.999Z</time></trkpt><trkpt lat="44.8582506" lon="8.8548942"><ele>138.0</ele><time>2026-04-16T14:00:46.999Z</time></trkpt><trkpt lat="44.8580993" lon="8.8548715"><ele>138.0</ele><time>2026-04-16T14:00:47.999Z</time></trkpt><trkpt lat="44.857939" lon="8.8548468"><ele>138.0</ele><time>2026-04-16T14:00:48.999Z</time></trkpt><trkpt lat="44.8577842" lon="8.854821"><ele>138.0</ele><time>2026-04-16T14:00:50.102Z</time></trkpt><trkpt lat="44.8574699" lon="8.8547705"><ele>138.33333333333334</ele><time>2026-04-16T14:00:51.999Z</time></trkpt><trkpt lat="44.8573017" lon="8.8547484"><ele>138.66666666666669</ele><time>2026-04-16T14:00:52.999Z</time></trkpt><trkpt lat="44.8571384" lon="8.8547239"><ele>139.0</ele><time>2026-04-16T14:00:53.999Z</time></trkpt><trkpt lat="44.8569715" lon="8.8547006"><ele>139.0</ele><time>2026-04-16T14:00:54.999Z</time></trkpt><trkpt lat="44.8568106" lon="8.8546736"><ele>139.0</ele><time>2026-04-16T14:00:55.999Z</time></trkpt><trkpt lat="44.8566481" lon="8.8546486"><ele>139.0</ele><time>2026-04-16T14:00:56.999Z</time></trkpt><trkpt lat="44.8564885" lon="8.8546222"><ele>139.0</ele><time>2026-04-16T14:00:57.999Z</time></trkpt><trkpt lat="44.8563289" lon="8.8545961"><ele>139.0</ele><time>2026-04-16T14:00:59.11Z</time></trkpt><trkpt lat="44.8560131" lon="8.8545464"><ele>138.5</ele><time>2026-04-16T14:01:01.116Z</time></trkpt><trkpt lat="44.8556854" lon="8.8545003"><ele>138.0</ele><time>2026-04-16T14:01:02.999Z</time></trkpt><trkpt lat="44.8555197" lon="8.854475"><ele>138.0</ele><time>2026-04-16T14:01:04.105Z</time></trkpt><trkpt lat="44.8551815" lon="8.8544236"><ele>138.0</ele><time>2026-04-16T14:01:06.107Z</time></trkpt><trkpt lat="44.8548571" lon="8.8543765"><ele>138.33333333333334</ele><time>2026-04-16T14:01:07.999Z</time></trkpt><trkpt lat="44.8546967" lon="8.8543522"><ele>138.66666666666669</ele><time>2026-04-16T14:01:08.999Z</time></trkpt><trkpt lat="44.8545318" lon="8.8543317"><ele>139.0</ele><time>2026-04-16T14:01:09.999Z</time></trkpt><trkpt lat="44.8543672" lon="8.8543098"><ele>139.33333333333334</ele><time>2026-04-16T14:01:10.999Z</time></trkpt><trkpt lat="44.854211" lon="8.854288"><ele>139.66666666666666</ele><time>2026-04-16T14:01:11.999Z</time></trkpt><trkpt lat="44.8540462" lon="8.8542651"><ele>140.0</ele><time>2026-04-16T14:01:12.999Z</time></trkpt><trkpt lat="44.8538758" lon="8.8542387"><ele>140.0</ele><time>2026-04-16T14:01:13.999Z</time></trkpt><trkpt lat="44.8536933" lon="8.8542213"><ele>140.0</ele><time>2026-04-16T14:01:14.999Z</time></trkpt><trkpt lat="44.853501" lon="8.8541997"><ele>140.0</ele><time>2026-04-16T14:01:15.999Z</time></trkpt><trkpt lat="44.8533034" lon="8.8541659"><ele>140.33333333333331</ele><time>2026-04-16T14:01:16.999Z</time></trkpt><trkpt lat="44.8531005" lon="8.8541243"><ele>140.66666666666666</ele><time>2026-04-16T14:01:17.999Z</time></trkpt><trkpt lat="44.8528835" lon="8.8540921"><ele>141.0</ele><time>2026-04-16T14:01:18.999Z</time></trkpt><trkpt lat="44.8526666" lon="8.8540669"><ele>141.0</ele><time>2026-04-16T14:01:19.999Z</time></trkpt><trkpt lat="44.8524278" lon="8.8540301"><ele>141.0</ele><time>2026-04-16T14:01:20.999Z</time></trkpt><trkpt lat="44.8521914" lon="8.8539851"><ele>141.0</ele><time>2026-04-16T14:01:21.999Z</time></trkpt><trkpt lat="44.8519461" lon="8.8539433"><ele>141.0</ele><time>2026-04-16T14:01:22.999Z</time></trkpt><trkpt lat="44.8516854" lon="8.8539021"><ele>141.5</ele><time>2026-04-16T14:01:23.999Z</time></trkpt><trkpt lat="44.8514455" lon="8.8538671"><ele>142.0</ele><time>2026-04-16T14:01:24.999Z</time></trkpt><trkpt lat="44.8512068" lon="8.8538316"><ele>142.0</ele><time>2026-04-16T14:01:25.999Z</time></trkpt><trkpt lat="44.8509787" lon="8.8537986"><ele>142.0</ele><time>2026-04-16T14:01:26.999Z</time></trkpt><trkpt lat="44.8507676" lon="8.853767"><ele>142.0</ele><time>2026-04-16T14:01:27.999Z</time></trkpt><trkpt lat="44.8505562" lon="8.8537335"><ele>141.66666666666669</ele><time>2026-04-16T14:01:28.999Z</time></trkpt><trkpt lat="44.85036" lon="8.8537038"><ele>141.33333333333334</ele><time>2026-04-16T14:01:29.999Z</time></trkpt><trkpt lat="44.8501751" lon="8.8536793"><ele>141.0</ele><time>2026-04-16T14:01:30.999Z</time></trkpt><trkpt lat="44.8499982" lon="8.8536531"><ele>142.33333333333334</ele><time>2026-04-16T14:01:31.999Z</time></trkpt><trkpt lat="44.8498271" lon="8.8536281"><ele>143.66666666666669</ele><time>2026-04-16T14:01:32.999Z</time></trkpt><trkpt lat="44.8496668" lon="8.8536059"><ele>145.0</ele><time>2026-04-16T14:01:33.999Z</time></trkpt><trkpt lat="44.8495142" lon="8.8535837"><ele>145.0</ele><time>2026-04-16T14:01:34.999Z</time></trkpt><trkpt lat="44.8493665" lon="8.8535616"><ele>145.0</ele><time>2026-04-16T14:01:35.999Z</time></trkpt><trkpt lat="44.8492296" lon="8.853544"><ele>145.0</ele><time>2026-04-16T14:01:36.999Z</time></trkpt><trkpt lat="44.8491031" lon="8.8535315"><ele>145.0</ele><time>2026-04-16T14:01:37.999Z</time></trkpt><trkpt lat="44.8489919" lon="8.8535232"><ele>145.75</ele><time>2026-04-16T14:01:38.999Z</time></trkpt><trkpt lat="44.8488899" lon="8.8535076"><ele>146.5</ele><time>2026-04-16T14:01:39.999Z</time></trkpt><trkpt lat="44.8487966" lon="8.8534751"><ele>147.25</ele><time>2026-04-16T14:01:41.108Z</time></trkpt><trkpt lat="44.8486076" lon="8.8534309"><ele>148.0</ele><time>2026-04-16T14:01:42.999Z</time></trkpt><trkpt lat="44.8484989" lon="8.8534365"><ele>146.33333333333334</ele><time>2026-04-16T14:01:44.106Z</time></trkpt><trkpt lat="44.8483799" lon="8.8534364"><ele>144.66666666666666</ele><time>2026-04-16T14:01:45.106Z</time></trkpt><trkpt lat="44.8482473" lon="8.8534144"><ele>143.0</ele><time>2026-04-16T14:01:46.108Z</time></trkpt><trkpt lat="44.8479733" lon="8.8533598"><ele>143.0</ele><time>2026-04-16T14:01:47.999Z</time></trkpt><trkpt lat="44.8478185" lon="8.8533363"><ele>143.0</ele><time>2026-04-16T14:01:48.999Z</time></trkpt><trkpt lat="44.8476684" lon="8.8533127"><ele>143.0</ele><time>2026-04-16T14:01:49.999Z</time></trkpt><trkpt lat="44.8475165" lon="8.8532903"><ele>143.0</ele><time>2026-04-16T14:01:50.999Z</time></trkpt><trkpt lat="44.8473658" lon="8.8532691"><ele>143.0</ele><time>2026-04-16T14:01:51.999Z</time></trkpt><trkpt lat="44.8472027" lon="8.8532449"><ele>143.0</ele><time>2026-04-16T14:01:52.999Z</time></trkpt><trkpt lat="44.8470399" lon="8.8532236"><ele>143.0</ele><time>2026-04-16T14:01:53.999Z</time></trkpt><trkpt lat="44.8468697" lon="8.8531987"><ele>143.0</ele><time>2026-04-16T14:01:54.999Z</time></trkpt><trkpt lat="44.8466882" lon="8.8531766"><ele>143.0</ele><time>2026-04-16T14:01:55.999Z</time></trkpt><trkpt lat="44.8465211" lon="8.8531564"><ele>142.66666666666666</ele><time>2026-04-16T14:01:56.999Z</time></trkpt><trkpt lat="44.8463379" lon="8.8531315"><ele>142.33333333333334</ele><time>2026-04-16T14:01:57.999Z</time></trkpt><trkpt lat="44.8461483" lon="8.8531068"><ele>142.0</ele><time>2026-04-16T14:01:58.999Z</time></trkpt><trkpt lat="44.8459629" lon="8.8530827"><ele>142.33333333333334</ele><time>2026-04-16T14:01:59.999Z</time></trkpt><trkpt lat="44.8457628" lon="8.8530611"><ele>142.66666666666666</ele><time>2026-04-16T14:02:00.999Z</time></trkpt><trkpt lat="44.8455613" lon="8.8530424"><ele>143.0</ele><time>2026-04-16T14:02:01.999Z</time></trkpt><trkpt lat="44.8453577" lon="8.853033"><ele>143.0</ele><time>2026-04-16T14:02:02.999Z</time></trkpt><trkpt lat="44.8451489" lon="8.8530317"><ele>143.0</ele><time>2026-04-16T14:02:03.999Z</time></trkpt><trkpt lat="44.8449328" lon="8.8530427"><ele>143.0</ele><time>2026-04-16T14:02:04.999Z</time></trkpt><trkpt lat="44.8447173" lon="8.8530552"><ele>143.0</ele><time>2026-04-16T14:02:05.999Z</time></trkpt><trkpt lat="44.8445045" lon="8.8530705"><ele>143.0</ele><time>2026-04-16T14:02:06.999Z</time></trkpt><trkpt lat="44.8442938" lon="8.8530835"><ele>143.0</ele><time>2026-04-16T14:02:07.999Z</time></trkpt><trkpt lat="44.8440857" lon="8.8530962"><ele>143.33333333333331</ele><time>2026-04-16T14:02:08.999Z</time></trkpt><trkpt lat="44.8438779" lon="8.8531119"><ele>143.66666666666666</ele><time>2026-04-16T14:02:09.999Z</time></trkpt><trkpt lat="44.8436666" lon="8.8531255"><ele>144.0</ele><time>2026-04-16T14:02:10.999Z</time></trkpt><trkpt lat="44.8434479" lon="8.8531388"><ele>144.0</ele><time>2026-04-16T14:02:11.999Z</time></trkpt><trkpt lat="44.8432379" lon="8.8531532"><ele>144.0</ele><time>2026-04-16T14:02:12.999Z</time></trkpt><trkpt lat="44.8430181" lon="8.8531689"><ele>144.0</ele><time>2026-04-16T14:02:13.999Z</time></trkpt><trkpt lat="44.8427988" lon="8.8531872"><ele>144.5</ele><time>2026-04-16T14:02:14.999Z</time></trkpt><trkpt lat="44.8425823" lon="8.8532016"><ele>145.0</ele><time>2026-04-16T14:02:15.999Z</time></trkpt><trkpt lat="44.8423496" lon="8.853217"><ele>145.0</ele><time>2026-04-16T14:02:16.999Z</time></trkpt><trkpt lat="44.8421252" lon="8.8532328"><ele>145.0</ele><time>2026-04-16T14:02:17.999Z</time></trkpt><trkpt lat="44.8418981" lon="8.8532458"><ele>145.0</ele><time>2026-04-16T14:02:18.999Z</time></trkpt><trkpt lat="44.8416679" lon="8.8532604"><ele>145.0</ele><time>2026-04-16T14:02:19.999Z</time></trkpt><trkpt lat="44.8414395" lon="8.8532764"><ele>145.0</ele><time>2026-04-16T14:02:20.999Z</time></trkpt><trkpt lat="44.8412108" lon="8.8532932"><ele>145.0</ele><time>2026-04-16T14:02:21.999Z</time></trkpt><trkpt lat="44.8409771" lon="8.8533081"><ele>145.5</ele><time>2026-04-16T14:02:22.999Z</time></trkpt><trkpt lat="44.8407467" lon="8.8533229"><ele>146.0</ele><time>2026-04-16T14:02:23.999Z</time></trkpt><trkpt lat="44.840516" lon="8.8533394"><ele>146.0</ele><time>2026-04-16T14:02:24.999Z</time></trkpt><trkpt lat="44.840282" lon="8.853355"><ele>146.0</ele><time>2026-04-16T14:02:25.999Z</time></trkpt><trkpt lat="44.8400477" lon="8.8533721"><ele>146.0</ele><time>2026-04-16T14:02:26.999Z</time></trkpt><trkpt lat="44.8398157" lon="8.8533868"><ele>146.0</ele><time>2026-04-16T14:02:27.999Z</time></trkpt><trkpt lat="44.8395862" lon="8.8534011"><ele>146.0</ele><time>2026-04-16T14:02:28.999Z</time></trkpt><trkpt lat="44.8393625" lon="8.853415"><ele>146.0</ele><time>2026-04-16T14:02:29.999Z</time></trkpt><trkpt lat="44.8391398" lon="8.8534292"><ele>146.0</ele><time>2026-04-16T14:02:30.999Z</time></trkpt><trkpt lat="44.838924" lon="8.8534419"><ele>147.33333333333331</ele><time>2026-04-16T14:02:31.999Z</time></trkpt><trkpt lat="44.8386955" lon="8.853456"><ele>148.66666666666666</ele><time>2026-04-16T14:02:32.999Z</time></trkpt><trkpt lat="44.8384775" lon="8.85347"><ele>150.0</ele><time>2026-04-16T14:02:33.999Z</time></trkpt><trkpt lat="44.8382656" lon="8.8534868"><ele>150.0</ele><time>2026-04-16T14:02:34.999Z</time></trkpt><trkpt lat="44.8380449" lon="8.8535032"><ele>150.0</ele><time>2026-04-16T14:02:35.999Z</time></trkpt><trkpt lat="44.8378397" lon="8.8535179"><ele>150.0</ele><time>2026-04-16T14:02:36.999Z</time></trkpt><trkpt lat="44.8376231" lon="8.8535296"><ele>149.66666666666666</ele><time>2026-04-16T14:02:37.999Z</time></trkpt><trkpt lat="44.8374054" lon="8.8535415"><ele>149.33333333333331</ele><time>2026-04-16T14:02:38.999Z</time></trkpt><trkpt lat="44.8371941" lon="8.8535538"><ele>149.0</ele><time>2026-04-16T14:02:39.999Z</time></trkpt><trkpt lat="44.836973" lon="8.8535712"><ele>149.66666666666666</ele><time>2026-04-16T14:02:40.999Z</time></trkpt><trkpt lat="44.8367539" lon="8.8535871"><ele>150.33333333333334</ele><time>2026-04-16T14:02:41.999Z</time></trkpt><trkpt lat="44.8365351" lon="8.853603"><ele>151.0</ele><time>2026-04-16T14:02:42.999Z</time></trkpt><trkpt lat="44.8363171" lon="8.8536189"><ele>151.0</ele><time>2026-04-16T14:02:43.999Z</time></trkpt><trkpt lat="44.8360983" lon="8.853634"><ele>151.0</ele><time>2026-04-16T14:02:44.999Z</time></trkpt><trkpt lat="44.8358771" lon="8.8536482"><ele>151.0</ele><time>2026-04-16T14:02:45.999Z</time></trkpt><trkpt lat="44.835658" lon="8.8536621"><ele>151.5</ele><time>2026-04-16T14:02:46.999Z</time></trkpt><trkpt lat="44.8354357" lon="8.8536755"><ele>152.0</ele><time>2026-04-16T14:02:47.999Z</time></trkpt><trkpt lat="44.8352088" lon="8.8536864"><ele>151.5</ele><time>2026-04-16T14:02:48.999Z</time></trkpt><trkpt lat="44.8349824" lon="8.8536989"><ele>151.0</ele><time>2026-04-16T14:02:49.999Z</time></trkpt><trkpt lat="44.834757" lon="8.8537117"><ele>151.0</ele><time>2026-04-16T14:02:50.999Z</time></trkpt><trkpt lat="44.834532" lon="8.8537253"><ele>151.0</ele><time>2026-04-16T14:02:51.999Z</time></trkpt><trkpt lat="44.8343185" lon="8.8537406"><ele>151.0</ele><time>2026-04-16T14:02:52.999Z</time></trkpt><trkpt lat="44.8341129" lon="8.853754"><ele>151.0</ele><time>2026-04-16T14:02:54.109Z</time></trkpt><trkpt lat="44.8338253" lon="8.8537757"><ele>151.0</ele><time>2026-04-16T14:02:55.999Z</time></trkpt><trkpt lat="44.8336054" lon="8.8538034"><ele>151.0</ele><time>2026-04-16T14:02:56.999Z</time></trkpt><trkpt lat="44.8333911" lon="8.8538184"><ele>151.0</ele><time>2026-04-16T14:02:57.999Z</time></trkpt><trkpt lat="44.8332642" lon="8.8538196"><ele>151.0</ele><time>2026-04-16T14:02:58.999Z</time></trkpt><trkpt lat="44.8331561" lon="8.8538176"><ele>151.0</ele><time>2026-04-16T14:02:59.999Z</time></trkpt><trkpt lat="44.8328987" lon="8.8538285"><ele>151.0</ele><time>2026-04-16T14:03:01.106Z</time></trkpt><trkpt lat="44.8325925" lon="8.8538441"><ele>151.25</ele><time>2026-04-16T14:03:02.999Z</time></trkpt><trkpt lat="44.8324432" lon="8.8538559"><ele>151.5</ele><time>2026-04-16T14:03:03.999Z</time></trkpt><trkpt lat="44.8322955" lon="8.8538636"><ele>151.75</ele><time>2026-04-16T14:03:04.999Z</time></trkpt><trkpt lat="44.8321503" lon="8.8538734"><ele>152.0</ele><time>2026-04-16T14:03:06.1Z</time></trkpt><trkpt lat="44.8318618" lon="8.8538899"><ele>151.75</ele><time>2026-04-16T14:03:07.999Z</time></trkpt><trkpt lat="44.8317231" lon="8.8538999"><ele>151.5</ele><time>2026-04-16T14:03:08.999Z</time></trkpt><trkpt lat="44.8315872" lon="8.8539097"><ele>151.25</ele><time>2026-04-16T14:03:09.999Z</time></trkpt><trkpt lat="44.831453" lon="8.8539181"><ele>151.0</ele><time>2026-04-16T14:03:10.999Z</time></trkpt><trkpt lat="44.8313241" lon="8.8539263"><ele>151.0</ele><time>2026-04-16T14:03:11.999Z</time></trkpt><trkpt lat="44.8311882" lon="8.853936"><ele>151.0</ele><time>2026-04-16T14:03:12.999Z</time></trkpt><trkpt lat="44.8310581" lon="8.8539448"><ele>151.0</ele><time>2026-04-16T14:03:13.999Z</time></trkpt><trkpt lat="44.8307984" lon="8.8539611"><ele>150.66666666666669</ele><time>2026-04-16T14:03:16.104Z</time></trkpt><trkpt lat="44.8305397" lon="8.8539725"><ele>150.33333333333334</ele><time>2026-04-16T14:03:17.999Z</time></trkpt><trkpt lat="44.830413" lon="8.8539798"><ele>150.0</ele><time>2026-04-16T14:03:18.999Z</time></trkpt><trkpt lat="44.8302932" lon="8.8539906"><ele>150.0</ele><time>2026-04-16T14:03:19.999Z</time></trkpt><trkpt lat="44.8301718" lon="8.8540008"><ele>150.0</ele><time>2026-04-16T14:03:20.999Z</time></trkpt><trkpt lat="44.8300575" lon="8.8540087"><ele>150.0</ele><time>2026-04-16T14:03:21.999Z</time></trkpt><trkpt lat="44.82995" lon="8.8540159"><ele>150.0</ele><time>2026-04-16T14:03:22.999Z</time></trkpt><trkpt lat="44.8298528" lon="8.8540216"><ele>150.0</ele><time>2026-04-16T14:03:23.999Z</time></trkpt><trkpt lat="44.8297615" lon="8.854024"><ele>150.33333333333334</ele><time>2026-04-16T14:03:24.999Z</time></trkpt><trkpt lat="44.8296804" lon="8.8540274"><ele>150.66666666666666</ele><time>2026-04-16T14:03:25.999Z</time></trkpt><trkpt lat="44.8296073" lon="8.8540325"><ele>151.0</ele><time>2026-04-16T14:03:26.999Z</time></trkpt><trkpt lat="44.8295424" lon="8.8540365"><ele>151.33333333333331</ele><time>2026-04-16T14:03:27.999Z</time></trkpt><trkpt lat="44.8294791" lon="8.8540404"><ele>151.66666666666666</ele><time>2026-04-16T14:03:28.999Z</time></trkpt><trkpt lat="44.8293761" lon="8.8540466"><ele>152.0</ele><time>2026-04-16T14:03:30.999Z</time></trkpt><trkpt lat="44.829275" lon="8.8540524"><ele>152.4</ele><time>2026-04-16T14:03:35.999Z</time></trkpt><trkpt lat="44.8291691" lon="8.8540573"><ele>152.79999999999998</ele><time>2026-04-16T14:03:37.999Z</time></trkpt><trkpt lat="44.8290543" lon="8.8540628"><ele>153.2</ele><time>2026-04-16T14:03:53.999Z</time></trkpt><trkpt lat="44.8289854" lon="8.8540716"><ele>153.6</ele><time>2026-04-16T14:03:54.999Z</time></trkpt><trkpt lat="44.8289039" lon="8.8540785"><ele>154.0</ele><time>2026-04-16T14:03:55.999Z</time></trkpt><trkpt lat="44.8288144" lon="8.8540832"><ele>154.0</ele><time>2026-04-16T14:03:56.999Z</time></trkpt><trkpt lat="44.8287131" lon="8.8540869"><ele>154.0</ele><time>2026-04-16T14:03:57.999Z</time></trkpt><trkpt lat="44.8286073" lon="8.8540907"><ele>154.0</ele><time>2026-04-16T14:03:58.999Z</time></trkpt><trkpt lat="44.8284928" lon="8.8540927"><ele>154.0</ele><time>2026-04-16T14:03:59.999Z</time></trkpt><trkpt lat="44.8283654" lon="8.8540993"><ele>154.0</ele><time>2026-04-16T14:04:00.999Z</time></trkpt><trkpt lat="44.8282329" lon="8.8541066"><ele>154.0</ele><time>2026-04-16T14:04:01.999Z</time></trkpt><trkpt lat="44.8280902" lon="8.8541139"><ele>154.0</ele><time>2026-04-16T14:04:02.999Z</time></trkpt><trkpt lat="44.8279428" lon="8.8541209"><ele>154.0</ele><time>2026-04-16T14:04:03.999Z</time></trkpt><trkpt lat="44.8277898" lon="8.8541289"><ele>154.0</ele><time>2026-04-16T14:04:06.075Z</time></trkpt><trkpt lat="44.8274729" lon="8.8541473"><ele>154.0</ele><time>2026-04-16T14:04:06.999Z</time></trkpt><trkpt lat="44.827318" lon="8.8541589"><ele>154.0</ele><time>2026-04-16T14:04:07.999Z</time></trkpt><trkpt lat="44.8271495" lon="8.8541687"><ele>154.0</ele><time>2026-04-16T14:04:08.999Z</time></trkpt><trkpt lat="44.8269832" lon="8.854179"><ele>154.0</ele><time>2026-04-16T14:04:09.999Z</time></trkpt><trkpt lat="44.8268149" lon="8.8541896"><ele>154.0</ele><time>2026-04-16T14:04:10.999Z</time></trkpt><trkpt lat="44.8266435" lon="8.8541994"><ele>154.0</ele><time>2026-04-16T14:04:11.999Z</time></trkpt><trkpt lat="44.8264701" lon="8.8542104"><ele>154.0</ele><time>2026-04-16T14:04:12.999Z</time></trkpt><trkpt lat="44.826296" lon="8.8542208"><ele>154.0</ele><time>2026-04-16T14:04:13.999Z</time></trkpt><trkpt lat="44.826125" lon="8.8542311"><ele>154.0</ele><time>2026-04-16T14:04:14.999Z</time></trkpt><trkpt lat="44.8259574" lon="8.8542422"><ele>154.33333333333334</ele><time>2026-04-16T14:04:15.999Z</time></trkpt><trkpt lat="44.8257852" lon="8.8542507"><ele>154.66666666666666</ele><time>2026-04-16T14:04:16.999Z</time></trkpt><trkpt lat="44.8256139" lon="8.8542602"><ele>155.0</ele><time>2026-04-16T14:04:17.999Z</time></trkpt><trkpt lat="44.8254413" lon="8.8542695"><ele>155.0</ele><time>2026-04-16T14:04:18.999Z</time></trkpt><trkpt lat="44.8252636" lon="8.8542802"><ele>155.0</ele><time>2026-04-16T14:04:19.999Z</time></trkpt><trkpt lat="44.8250966" lon="8.8542934"><ele>155.0</ele><time>2026-04-16T14:04:20.999Z</time></trkpt><trkpt lat="44.8249251" lon="8.8543045"><ele>155.33333333333331</ele><time>2026-04-16T14:04:21.999Z</time></trkpt><trkpt lat="44.8247565" lon="8.8543191"><ele>155.66666666666666</ele><time>2026-04-16T14:04:22.999Z</time></trkpt><trkpt lat="44.8245932" lon="8.8543315"><ele>156.0</ele><time>2026-04-16T14:04:23.999Z</time></trkpt><trkpt lat="44.8242506" lon="8.8543529"><ele>156.33333333333334</ele><time>2026-04-16T14:04:25.999Z</time></trkpt><trkpt lat="44.8240835" lon="8.8543644"><ele>156.66666666666669</ele><time>2026-04-16T14:04:26.999Z</time></trkpt><trkpt lat="44.82392" lon="8.8543776"><ele>157.0</ele><time>2026-04-16T14:04:27.999Z</time></trkpt><trkpt lat="44.823759" lon="8.8543902"><ele>157.0</ele><time>2026-04-16T14:04:28.999Z</time></trkpt><trkpt lat="44.823599" lon="8.8544035"><ele>157.0</ele><time>2026-04-16T14:04:29.999Z</time></trkpt><trkpt lat="44.8232738" lon="8.8544267"><ele>156.66666666666669</ele><time>2026-04-16T14:04:31.999Z</time></trkpt><trkpt lat="44.8230999" lon="8.8544393"><ele>156.33333333333334</ele><time>2026-04-16T14:04:32.999Z</time></trkpt><trkpt lat="44.8229268" lon="8.8544536"><ele>156.0</ele><time>2026-04-16T14:04:33.999Z</time></trkpt><trkpt lat="44.8227515" lon="8.85447"><ele>156.33333333333334</ele><time>2026-04-16T14:04:34.999Z</time></trkpt><trkpt lat="44.8225617" lon="8.8544817"><ele>156.66666666666669</ele><time>2026-04-16T14:04:35.999Z</time></trkpt><trkpt lat="44.8223737" lon="8.8544943"><ele>157.0</ele><time>2026-04-16T14:04:36.999Z</time></trkpt><trkpt lat="44.822184" lon="8.8545042"><ele>157.0</ele><time>2026-04-16T14:04:37.999Z</time></trkpt><trkpt lat="44.8220025" lon="8.8545133"><ele>157.0</ele><time>2026-04-16T14:04:38.999Z</time></trkpt><trkpt lat="44.8218215" lon="8.8545242"><ele>157.0</ele><time>2026-04-16T14:04:39.999Z</time></trkpt><trkpt lat="44.8216432" lon="8.8545314"><ele>156.66666666666669</ele><time>2026-04-16T14:04:40.999Z</time></trkpt><trkpt lat="44.8214791" lon="8.8545345"><ele>156.33333333333334</ele><time>2026-04-16T14:04:41.999Z</time></trkpt><trkpt lat="44.8213231" lon="8.8545488"><ele>156.0</ele><time>2026-04-16T14:04:42.999Z</time></trkpt><trkpt lat="44.8211739" lon="8.8545547"><ele>156.0</ele><time>2026-04-16T14:04:43.999Z</time></trkpt><trkpt lat="44.8210293" lon="8.8545619"><ele>156.0</ele><time>2026-04-16T14:04:44.999Z</time></trkpt><trkpt lat="44.8208921" lon="8.8545682"><ele>156.0</ele><time>2026-04-16T14:04:45.999Z</time></trkpt><trkpt lat="44.820761" lon="8.8545764"><ele>156.0</ele><time>2026-04-16T14:04:46.999Z</time></trkpt><trkpt lat="44.8206369" lon="8.8545855"><ele>156.2</ele><time>2026-04-16T14:04:47.999Z</time></trkpt><trkpt lat="44.8205116" lon="8.8545963"><ele>156.39999999999998</ele><time>2026-04-16T14:04:48.999Z</time></trkpt><trkpt lat="44.8204008" lon="8.8546035"><ele>156.6</ele><time>2026-04-16T14:04:49.999Z</time></trkpt><trkpt lat="44.8203014" lon="8.8546059"><ele>156.79999999999998</ele><time>2026-04-16T14:04:50.999Z</time></trkpt><trkpt lat="44.820212" lon="8.8545918"><ele>157.0</ele><time>2026-04-16T14:04:51.999Z</time></trkpt><trkpt lat="44.8201323" lon="8.8545626"><ele>157.33333333333334</ele><time>2026-04-16T14:04:52.999Z</time></trkpt><trkpt lat="44.8200539" lon="8.8545359"><ele>157.66666666666669</ele><time>2026-04-16T14:04:53.999Z</time></trkpt><trkpt lat="44.8199743" lon="8.8545346"><ele>158.0</ele><time>2026-04-16T14:04:54.999Z</time></trkpt><trkpt lat="44.8198972" lon="8.854561"><ele>158.33333333333334</ele><time>2026-04-16T14:04:55.999Z</time></trkpt><trkpt lat="44.8198154" lon="8.8545929"><ele>158.66666666666666</ele><time>2026-04-16T14:04:56.999Z</time></trkpt><trkpt lat="44.8197223" lon="8.8546215"><ele>159.0</ele><time>2026-04-16T14:04:57.999Z</time></trkpt><trkpt lat="44.8196227" lon="8.8546358"><ele>159.0</ele><time>2026-04-16T14:04:58.999Z</time></trkpt><trkpt lat="44.8195178" lon="8.854648"><ele>159.0</ele><time>2026-04-16T14:04:59.999Z</time></trkpt><trkpt lat="44.8194111" lon="8.8546529"><ele>159.0</ele><time>2026-04-16T14:05:01.125Z</time></trkpt><trkpt lat="44.819186" lon="8.8546625"><ele>159.0</ele><time>2026-04-16T14:05:02.999Z</time></trkpt><trkpt lat="44.8190758" lon="8.8546697"><ele>159.0</ele><time>2026-04-16T14:05:03.999Z</time></trkpt><trkpt lat="44.8189627" lon="8.8546804"><ele>159.0</ele><time>2026-04-16T14:05:04.999Z</time></trkpt><trkpt lat="44.8188495" lon="8.8546876"><ele>159.0</ele><time>2026-04-16T14:05:05.999Z</time></trkpt><trkpt lat="44.8187387" lon="8.8546946"><ele>159.0</ele><time>2026-04-16T14:05:06.999Z</time></trkpt><trkpt lat="44.8186327" lon="8.8547026"><ele>159.0</ele><time>2026-04-16T14:05:07.999Z</time></trkpt><trkpt lat="44.818529" lon="8.8547107"><ele>159.2</ele><time>2026-04-16T14:05:08.999Z</time></trkpt><trkpt lat="44.8184266" lon="8.8547188"><ele>159.4</ele><time>2026-04-16T14:05:09.999Z</time></trkpt><trkpt lat="44.8183266" lon="8.854725"><ele>159.6</ele><time>2026-04-16T14:05:10.999Z</time></trkpt><trkpt lat="44.8182334" lon="8.8547296"><ele>159.8</ele><time>2026-04-16T14:05:11.999Z</time></trkpt><trkpt lat="44.8181402" lon="8.8547335"><ele>160.0</ele><time>2026-04-16T14:05:12.999Z</time></trkpt><trkpt lat="44.8180536" lon="8.8547367"><ele>160.0</ele><time>2026-04-16T14:05:14.113Z</time></trkpt><trkpt lat="44.8178994" lon="8.8547434"><ele>160.0</ele><time>2026-04-16T14:05:15.999Z</time></trkpt><trkpt lat="44.8178326" lon="8.8547454"><ele>160.0</ele><time>2026-04-16T14:05:16.999Z</time></trkpt><trkpt lat="44.8177208" lon="8.8547509"><ele>160.0</ele><time>2026-04-16T14:05:18.999Z</time></trkpt><trkpt lat="44.8176353" lon="8.8547536"><ele>160.0</ele><time>2026-04-16T14:05:20.999Z</time></trkpt><trkpt lat="44.8175556" lon="8.8547569"><ele>160.33333333333334</ele><time>2026-04-16T14:05:23.999Z</time></trkpt><trkpt lat="44.8174693" lon="8.8547655"><ele>160.66666666666669</ele><time>2026-04-16T14:05:45.999Z</time></trkpt><trkpt lat="44.8173591" lon="8.8547767"><ele>161.0</ele><time>2026-04-16T14:05:47.999Z</time></trkpt><trkpt lat="44.8172881" lon="8.8547804"><ele>161.33333333333334</ele><time>2026-04-16T14:05:48.999Z</time></trkpt><trkpt lat="44.8172059" lon="8.854787"><ele>161.66666666666666</ele><time>2026-04-16T14:05:49.999Z</time></trkpt><trkpt lat="44.8171232" lon="8.8547941"><ele>162.0</ele><time>2026-04-16T14:05:50.999Z</time></trkpt><trkpt lat="44.8170366" lon="8.8548014"><ele>162.0</ele><time>2026-04-16T14:05:51.999Z</time></trkpt><trkpt lat="44.8169412" lon="8.8548082"><ele>162.0</ele><time>2026-04-16T14:05:52.999Z</time></trkpt><trkpt lat="44.8168424" lon="8.8548146"><ele>162.0</ele><time>2026-04-16T14:05:53.999Z</time></trkpt><trkpt lat="44.816747" lon="8.8548207"><ele>162.0</ele><time>2026-04-16T14:05:54.999Z</time></trkpt><trkpt lat="44.8166434" lon="8.854827"><ele>162.0</ele><time>2026-04-16T14:05:55.999Z</time></trkpt><trkpt lat="44.8165446" lon="8.8548317"><ele>161.8</ele><time>2026-04-16T14:05:56.999Z</time></trkpt><trkpt lat="44.8164427" lon="8.8548383"><ele>161.6</ele><time>2026-04-16T14:05:57.999Z</time></trkpt><trkpt lat="44.8163393" lon="8.8548441"><ele>161.4</ele><time>2026-04-16T14:05:58.999Z</time></trkpt><trkpt lat="44.816231" lon="8.854852"><ele>161.20000000000002</ele><time>2026-04-16T14:05:59.999Z</time></trkpt><trkpt lat="44.8161176" lon="8.8548596"><ele>161.0</ele><time>2026-04-16T14:06:01.107Z</time></trkpt><trkpt lat="44.8158976" lon="8.854873"><ele>161.0</ele><time>2026-04-16T14:06:02.999Z</time></trkpt><trkpt lat="44.8157896" lon="8.8548797"><ele>161.0</ele><time>2026-04-16T14:06:04.11Z</time></trkpt><trkpt lat="44.8155594" lon="8.8548943"><ele>161.0</ele><time>2026-04-16T14:06:05.999Z</time></trkpt><trkpt lat="44.8154464" lon="8.8549012"><ele>161.0</ele><time>2026-04-16T14:06:06.999Z</time></trkpt><trkpt lat="44.8153306" lon="8.8549078"><ele>161.0</ele><time>2026-04-16T14:06:07.999Z</time></trkpt><trkpt lat="44.8152107" lon="8.8549147"><ele>161.0</ele><time>2026-04-16T14:06:08.999Z</time></trkpt><trkpt lat="44.8150949" lon="8.8549202"><ele>161.0</ele><time>2026-04-16T14:06:10.112Z</time></trkpt><trkpt lat="44.8148592" lon="8.8549346"><ele>161.0</ele><time>2026-04-16T14:06:11.999Z</time></trkpt><trkpt lat="44.8147408" lon="8.854941"><ele>161.0</ele><time>2026-04-16T14:06:12.999Z</time></trkpt><trkpt lat="44.8146238" lon="8.854949"><ele>161.0</ele><time>2026-04-16T14:06:13.999Z</time></trkpt><trkpt lat="44.8145084" lon="8.8549548"><ele>161.0</ele><time>2026-04-16T14:06:14.999Z</time></trkpt><trkpt lat="44.8143889" lon="8.8549619"><ele>162.0</ele><time>2026-04-16T14:06:15.999Z</time></trkpt><trkpt lat="44.8142668" lon="8.8549693"><ele>163.0</ele><time>2026-04-16T14:06:16.999Z</time></trkpt><trkpt lat="44.8141484" lon="8.8549773"><ele>164.0</ele><time>2026-04-16T14:06:17.999Z</time></trkpt><trkpt lat="44.8140292" lon="8.8549858"><ele>165.0</ele><time>2026-04-16T14:06:18.999Z</time></trkpt><trkpt lat="44.8139111" lon="8.8549937"><ele>165.0</ele><time>2026-04-16T14:06:19.999Z</time></trkpt><trkpt lat="44.8137682" lon="8.8549969"><ele>165.0</ele><time>2026-04-16T14:06:21.999Z</time></trkpt><trkpt lat="44.8136512" lon="8.8550093"><ele>165.0</ele><time>2026-04-16T14:06:22.999Z</time></trkpt><trkpt lat="44.8135419" lon="8.8550306"><ele>165.0</ele><time>2026-04-16T14:06:23.999Z</time></trkpt><trkpt lat="44.8134121" lon="8.8550683"><ele>165.33333333333334</ele><time>2026-04-16T14:06:24.999Z</time></trkpt><trkpt lat="44.8131931" lon="8.8551235"><ele>165.66666666666669</ele><time>2026-04-16T14:06:25.999Z</time></trkpt><trkpt lat="44.8130739" lon="8.8551679"><ele>166.0</ele><time>2026-04-16T14:06:26.999Z</time></trkpt><trkpt lat="44.8129516" lon="8.8552199"><ele>166.0</ele><time>2026-04-16T14:06:27.999Z</time></trkpt><trkpt lat="44.8128388" lon="8.8552772"><ele>166.0</ele><time>2026-04-16T14:06:28.999Z</time></trkpt><trkpt lat="44.812724" lon="8.8553351"><ele>166.0</ele><time>2026-04-16T14:06:29.999Z</time></trkpt><trkpt lat="44.8126124" lon="8.855396"><ele>166.0</ele><time>2026-04-16T14:06:30.999Z</time></trkpt><trkpt lat="44.8124967" lon="8.8554576"><ele>166.0</ele><time>2026-04-16T14:06:31.999Z</time></trkpt><trkpt lat="44.812377" lon="8.8555221"><ele>166.0</ele><time>2026-04-16T14:06:32.999Z</time></trkpt><trkpt lat="44.8122607" lon="8.8555858"><ele>166.0</ele><time>2026-04-16T14:06:33.999Z</time></trkpt><trkpt lat="44.8121445" lon="8.8556533"><ele>166.0</ele><time>2026-04-16T14:06:34.999Z</time></trkpt><trkpt lat="44.8120255" lon="8.8557209"><ele>166.0</ele><time>2026-04-16T14:06:35.999Z</time></trkpt><trkpt lat="44.8119057" lon="8.8557865"><ele>166.0</ele><time>2026-04-16T14:06:36.999Z</time></trkpt><trkpt lat="44.8117852" lon="8.8558519"><ele>166.0</ele><time>2026-04-16T14:06:37.999Z</time></trkpt><trkpt lat="44.8116656" lon="8.8559166"><ele>166.0</ele><time>2026-04-16T14:06:38.999Z</time></trkpt><trkpt lat="44.8115382" lon="8.8559888"><ele>165.75</ele><time>2026-04-16T14:06:39.999Z</time></trkpt><trkpt lat="44.8114007" lon="8.8560667"><ele>165.5</ele><time>2026-04-16T14:06:40.999Z</time></trkpt><trkpt lat="44.8112624" lon="8.8561404"><ele>165.25</ele><time>2026-04-16T14:06:41.999Z</time></trkpt><trkpt lat="44.8111217" lon="8.856215"><ele>165.0</ele><time>2026-04-16T14:06:42.999Z</time></trkpt><trkpt lat="44.8109711" lon="8.8562936"><ele>165.0</ele><time>2026-04-16T14:06:43.999Z</time></trkpt><trkpt lat="44.8108202" lon="8.8563722"><ele>165.0</ele><time>2026-04-16T14:06:44.999Z</time></trkpt><trkpt lat="44.810669" lon="8.8564543"><ele>165.0</ele><time>2026-04-16T14:06:45.999Z</time></trkpt><trkpt lat="44.8105139" lon="8.8565368"><ele>165.0</ele><time>2026-04-16T14:06:46.999Z</time></trkpt><trkpt lat="44.8103556" lon="8.8566236"><ele>165.0</ele><time>2026-04-16T14:06:47.999Z</time></trkpt><trkpt lat="44.8101814" lon="8.8567162"><ele>165.0</ele><time>2026-04-16T14:06:48.999Z</time></trkpt><trkpt lat="44.8100088" lon="8.856809"><ele>166.66666666666666</ele><time>2026-04-16T14:06:49.999Z</time></trkpt><trkpt lat="44.8098369" lon="8.8568995"><ele>168.33333333333331</ele><time>2026-04-16T14:06:50.999Z</time></trkpt><trkpt lat="44.8096493" lon="8.8569968"><ele>170.0</ele><time>2026-04-16T14:06:51.999Z</time></trkpt><trkpt lat="44.8094638" lon="8.8570938"><ele>169.0</ele><time>2026-04-16T14:06:52.999Z</time></trkpt><trkpt lat="44.8092815" lon="8.8571909"><ele>168.0</ele><time>2026-04-16T14:06:53.999Z</time></trkpt><trkpt lat="44.8090955" lon="8.8572895"><ele>167.0</ele><time>2026-04-16T14:06:54.999Z</time></trkpt><trkpt lat="44.8089125" lon="8.8573882"><ele>167.0</ele><time>2026-04-16T14:06:55.999Z</time></trkpt><trkpt lat="44.8087183" lon="8.8574923"><ele>167.0</ele><time>2026-04-16T14:06:56.998Z</time></trkpt><trkpt lat="44.8085315" lon="8.8575926"><ele>167.0</ele><time>2026-04-16T14:06:57.999Z</time></trkpt><trkpt lat="44.8083487" lon="8.8576922"><ele>167.33333333333331</ele><time>2026-04-16T14:06:58.999Z</time></trkpt><trkpt lat="44.8081655" lon="8.8577911"><ele>167.66666666666666</ele><time>2026-04-16T14:06:59.999Z</time></trkpt><trkpt lat="44.8079846" lon="8.8578879"><ele>168.0</ele><time>2026-04-16T14:07:00.999Z</time></trkpt><trkpt lat="44.8078046" lon="8.8579831"><ele>167.66666666666666</ele><time>2026-04-16T14:07:01.999Z</time></trkpt><trkpt lat="44.8076282" lon="8.858077"><ele>167.33333333333331</ele><time>2026-04-16T14:07:02.999Z</time></trkpt><trkpt lat="44.807446" lon="8.8581727"><ele>167.0</ele><time>2026-04-16T14:07:03.999Z</time></trkpt><trkpt lat="44.8072555" lon="8.8582742"><ele>167.0</ele><time>2026-04-16T14:07:04.999Z</time></trkpt><trkpt lat="44.8070726" lon="8.85837"><ele>167.0</ele><time>2026-04-16T14:07:05.999Z</time></trkpt><trkpt lat="44.8068929" lon="8.8584662"><ele>167.0</ele><time>2026-04-16T14:07:06.999Z</time></trkpt><trkpt lat="44.8067021" lon="8.8585682"><ele>167.0</ele><time>2026-04-16T14:07:07.999Z</time></trkpt><trkpt lat="44.8065136" lon="8.8586696"><ele>167.0</ele><time>2026-04-16T14:07:08.999Z</time></trkpt><trkpt lat="44.8063265" lon="8.858769"><ele>167.0</ele><time>2026-04-16T14:07:09.999Z</time></trkpt><trkpt lat="44.8061384" lon="8.858872"><ele>167.0</ele><time>2026-04-16T14:07:10.999Z</time></trkpt><trkpt lat="44.8059517" lon="8.8589722"><ele>167.0</ele><time>2026-04-16T14:07:11.999Z</time></trkpt><trkpt lat="44.8057514" lon="8.85908"><ele>167.0</ele><time>2026-04-16T14:07:12.999Z</time></trkpt><trkpt lat="44.8055555" lon="8.8591838"><ele>167.33333333333331</ele><time>2026-04-16T14:07:13.999Z</time></trkpt><trkpt lat="44.805364" lon="8.8592852"><ele>167.66666666666666</ele><time>2026-04-16T14:07:14.999Z</time></trkpt><trkpt lat="44.8051616" lon="8.8593923"><ele>168.0</ele><time>2026-04-16T14:07:15.999Z</time></trkpt><trkpt lat="44.8049626" lon="8.8594981"><ele>168.0</ele><time>2026-04-16T14:07:16.999Z</time></trkpt><trkpt lat="44.8047619" lon="8.8596064"><ele>168.0</ele><time>2026-04-16T14:07:17.999Z</time></trkpt><trkpt lat="44.8045671" lon="8.859712"><ele>168.0</ele><time>2026-04-16T14:07:19.101Z</time></trkpt><trkpt lat="44.8041531" lon="8.8599317"><ele>168.33333333333334</ele><time>2026-04-16T14:07:20.999Z</time></trkpt><trkpt lat="44.8039475" lon="8.8600427"><ele>168.66666666666669</ele><time>2026-04-16T14:07:21.999Z</time></trkpt><trkpt lat="44.8037375" lon="8.8601544"><ele>169.0</ele><time>2026-04-16T14:07:22.999Z</time></trkpt><trkpt lat="44.8035244" lon="8.8602683"><ele>169.0</ele><time>2026-04-16T14:07:23.999Z</time></trkpt><trkpt lat="44.8033103" lon="8.8603821"><ele>169.0</ele><time>2026-04-16T14:07:24.999Z</time></trkpt><trkpt lat="44.8030916" lon="8.8604985"><ele>169.0</ele><time>2026-04-16T14:07:25.999Z</time></trkpt><trkpt lat="44.8028768" lon="8.8606146"><ele>169.0</ele><time>2026-04-16T14:07:26.999Z</time></trkpt><trkpt lat="44.8026654" lon="8.8607285"><ele>169.0</ele><time>2026-04-16T14:07:27.999Z</time></trkpt><trkpt lat="44.8024431" lon="8.8608464"><ele>169.0</ele><time>2026-04-16T14:07:28.999Z</time></trkpt><trkpt lat="44.802227" lon="8.8609608"><ele>169.0</ele><time>2026-04-16T14:07:29.999Z</time></trkpt><trkpt lat="44.802017" lon="8.8610714"><ele>169.0</ele><time>2026-04-16T14:07:30.999Z</time></trkpt><trkpt lat="44.8017927" lon="8.8611886"><ele>168.5</ele><time>2026-04-16T14:07:31.999Z</time></trkpt><trkpt lat="44.801573" lon="8.861306"><ele>168.0</ele><time>2026-04-16T14:07:32.999Z</time></trkpt><trkpt lat="44.8013542" lon="8.8614233"><ele>168.0</ele><time>2026-04-16T14:07:33.999Z</time></trkpt><trkpt lat="44.8011427" lon="8.8615373"><ele>168.0</ele><time>2026-04-16T14:07:34.999Z</time></trkpt><trkpt lat="44.8009253" lon="8.8616535"><ele>168.0</ele><time>2026-04-16T14:07:35.999Z</time></trkpt><trkpt lat="44.8007027" lon="8.8617723"><ele>168.0</ele><time>2026-04-16T14:07:36.999Z</time></trkpt><trkpt lat="44.8004865" lon="8.8618867"><ele>168.5</ele><time>2026-04-16T14:07:37.999Z</time></trkpt><trkpt lat="44.8002794" lon="8.8620001"><ele>169.0</ele><time>2026-04-16T14:07:38.999Z</time></trkpt><trkpt lat="44.7998452" lon="8.8622365"><ele>169.0</ele><time>2026-04-16T14:07:40.999Z</time></trkpt><trkpt lat="44.7996298" lon="8.862351"><ele>169.0</ele><time>2026-04-16T14:07:41.999Z</time></trkpt><trkpt lat="44.7994157" lon="8.8624646"><ele>170.0</ele><time>2026-04-16T14:07:42.999Z</time></trkpt><trkpt lat="44.7992073" lon="8.8625751"><ele>171.0</ele><time>2026-04-16T14:07:43.999Z</time></trkpt><trkpt lat="44.7989867" lon="8.8626917"><ele>171.66666666666666</ele><time>2026-04-16T14:07:44.999Z</time></trkpt><trkpt lat="44.7987774" lon="8.8628046"><ele>172.33333333333331</ele><time>2026-04-16T14:07:45.999Z</time></trkpt><trkpt lat="44.7985678" lon="8.8629174"><ele>173.0</ele><time>2026-04-16T14:07:46.999Z</time></trkpt><trkpt lat="44.7983572" lon="8.8630309"><ele>173.0</ele><time>2026-04-16T14:07:47.999Z</time></trkpt><trkpt lat="44.7981552" lon="8.8631379"><ele>173.0</ele><time>2026-04-16T14:07:48.999Z</time></trkpt><trkpt lat="44.7979614" lon="8.8632413"><ele>173.0</ele><time>2026-04-16T14:07:49.999Z</time></trkpt><trkpt lat="44.7977773" lon="8.8633383"><ele>172.66666666666666</ele><time>2026-04-16T14:07:50.999Z</time></trkpt><trkpt lat="44.7975915" lon="8.8634365"><ele>172.33333333333334</ele><time>2026-04-16T14:07:51.999Z</time></trkpt><trkpt lat="44.7974063" lon="8.8635334"><ele>172.0</ele><time>2026-04-16T14:07:52.999Z</time></trkpt><trkpt lat="44.7972258" lon="8.8636305"><ele>174.66666666666669</ele><time>2026-04-16T14:07:53.999Z</time></trkpt><trkpt lat="44.797043" lon="8.8637291"><ele>177.33333333333334</ele><time>2026-04-16T14:07:54.999Z</time></trkpt><trkpt lat="44.7968584" lon="8.8638271"><ele>180.0</ele><time>2026-04-16T14:07:55.999Z</time></trkpt><trkpt lat="44.7966711" lon="8.8639267"><ele>180.0</ele><time>2026-04-16T14:07:56.999Z</time></trkpt><trkpt lat="44.7964838" lon="8.8640278"><ele>180.0</ele><time>2026-04-16T14:07:57.999Z</time></trkpt><trkpt lat="44.7962984" lon="8.8641288"><ele>180.0</ele><time>2026-04-16T14:07:58.999Z</time></trkpt><trkpt lat="44.7961154" lon="8.8642254"><ele>185.0</ele><time>2026-04-16T14:07:59.999Z</time></trkpt><trkpt lat="44.7959205" lon="8.8643255"><ele>190.0</ele><time>2026-04-16T14:08:00.999Z</time></trkpt><trkpt lat="44.7957346" lon="8.8644164"><ele>195.0</ele><time>2026-04-16T14:08:01.999Z</time></trkpt><trkpt lat="44.7955467" lon="8.8644958"><ele>195.0</ele><time>2026-04-16T14:08:02.999Z</time></trkpt><trkpt lat="44.7953435" lon="8.8645628"><ele>195.0</ele><time>2026-04-16T14:08:03.999Z</time></trkpt><trkpt lat="44.7951319" lon="8.8646137"><ele>195.0</ele><time>2026-04-16T14:08:04.999Z</time></trkpt><trkpt lat="44.7949173" lon="8.8646461"><ele>192.0</ele><time>2026-04-16T14:08:05.999Z</time></trkpt><trkpt lat="44.7947062" lon="8.8646653"><ele>189.0</ele><time>2026-04-16T14:08:06.999Z</time></trkpt><trkpt lat="44.7944921" lon="8.8646746"><ele>186.0</ele><time>2026-04-16T14:08:08.11Z</time></trkpt><trkpt lat="44.7940831" lon="8.8646948"><ele>185.0</ele><time>2026-04-16T14:08:10.102Z</time></trkpt><trkpt lat="44.7938922" lon="8.8647017"><ele>184.0</ele><time>2026-04-16T14:08:10.999Z</time></trkpt><trkpt lat="44.7937086" lon="8.8647081"><ele>183.0</ele><time>2026-04-16T14:08:11.999Z</time></trkpt><trkpt lat="44.7935266" lon="8.8647176"><ele>182.66666666666666</ele><time>2026-04-16T14:08:12.999Z</time></trkpt><trkpt lat="44.793348" lon="8.8647256"><ele>182.33333333333331</ele><time>2026-04-16T14:08:14.115Z</time></trkpt><trkpt lat="44.7931717" lon="8.8647336"><ele>182.0</ele><time>2026-04-16T14:08:15.106Z</time></trkpt><trkpt lat="44.7929997" lon="8.8647429"><ele>181.0</ele><time>2026-04-16T14:08:16.105Z</time></trkpt><trkpt lat="44.7926413" lon="8.8647638"><ele>180.0</ele><time>2026-04-16T14:08:17.999Z</time></trkpt><trkpt lat="44.7924644" lon="8.8647716"><ele>180.0</ele><time>2026-04-16T14:08:18.999Z</time></trkpt><trkpt lat="44.7922884" lon="8.8647775"><ele>180.0</ele><time>2026-04-16T14:08:20.119Z</time></trkpt><trkpt lat="44.7919307" lon="8.8647925"><ele>180.33333333333334</ele><time>2026-04-16T14:08:21.999Z</time></trkpt><trkpt lat="44.7917546" lon="8.8647995"><ele>180.66666666666669</ele><time>2026-04-16T14:08:22.999Z</time></trkpt><trkpt lat="44.7915719" lon="8.864808"><ele>181.0</ele><time>2026-04-16T14:08:23.999Z</time></trkpt><trkpt lat="44.7913841" lon="8.8648165"><ele>181.0</ele><time>2026-04-16T14:08:24.999Z</time></trkpt><trkpt lat="44.7912018" lon="8.8648267"><ele>181.0</ele><time>2026-04-16T14:08:25.999Z</time></trkpt><trkpt lat="44.7910178" lon="8.8648343"><ele>181.0</ele><time>2026-04-16T14:08:26.999Z</time></trkpt><trkpt lat="44.7908252" lon="8.8648414"><ele>181.33333333333334</ele><time>2026-04-16T14:08:27.999Z</time></trkpt><trkpt lat="44.7906295" lon="8.8648486"><ele>181.66666666666666</ele><time>2026-04-16T14:08:28.999Z</time></trkpt><trkpt lat="44.7904315" lon="8.8648547"><ele>182.0</ele><time>2026-04-16T14:08:29.999Z</time></trkpt><trkpt lat="44.7902302" lon="8.8648616"><ele>181.0</ele><time>2026-04-16T14:08:30.999Z</time></trkpt><trkpt lat="44.7900301" lon="8.8648687"><ele>180.0</ele><time>2026-04-16T14:08:31.999Z</time></trkpt><trkpt lat="44.7898134" lon="8.8648787"><ele>179.0</ele><time>2026-04-16T14:08:32.999Z</time></trkpt><trkpt lat="44.7895993" lon="8.8648885"><ele>179.0</ele><time>2026-04-16T14:08:33.999Z</time></trkpt><trkpt lat="44.7893881" lon="8.8649001"><ele>179.0</ele><time>2026-04-16T14:08:34.999Z</time></trkpt><trkpt lat="44.7891641" lon="8.8649125"><ele>179.0</ele><time>2026-04-16T14:08:35.999Z</time></trkpt><trkpt lat="44.7889381" lon="8.8649248"><ele>179.0</ele><time>2026-04-16T14:08:36.999Z</time></trkpt><trkpt lat="44.7887069" lon="8.8649359"><ele>179.0</ele><time>2026-04-16T14:08:37.999Z</time></trkpt><trkpt lat="44.7884834" lon="8.8649455"><ele>179.0</ele><time>2026-04-16T14:08:38.999Z</time></trkpt><trkpt lat="44.7882507" lon="8.8649554"><ele>179.0</ele><time>2026-04-16T14:08:39.999Z</time></trkpt><trkpt lat="44.7880117" lon="8.8649669"><ele>179.0</ele><time>2026-04-16T14:08:40.999Z</time></trkpt><trkpt lat="44.7877748" lon="8.8649766"><ele>179.0</ele><time>2026-04-16T14:08:41.999Z</time></trkpt><trkpt lat="44.7875385" lon="8.8649848"><ele>178.0</ele><time>2026-04-16T14:08:42.999Z</time></trkpt><trkpt lat="44.7873023" lon="8.8649945"><ele>177.0</ele><time>2026-04-16T14:08:43.999Z</time></trkpt><trkpt lat="44.7870666" lon="8.8650049"><ele>177.0</ele><time>2026-04-16T14:08:44.999Z</time></trkpt><trkpt lat="44.786829" lon="8.865015"><ele>177.0</ele><time>2026-04-16T14:08:45.999Z</time></trkpt><trkpt lat="44.7865928" lon="8.8650265"><ele>177.0</ele><time>2026-04-16T14:08:46.999Z</time></trkpt><trkpt lat="44.7863569" lon="8.865036"><ele>177.0</ele><time>2026-04-16T14:08:47.999Z</time></trkpt><trkpt lat="44.7861075" lon="8.8650463"><ele>178.5</ele><time>2026-04-16T14:08:48.999Z</time></trkpt><trkpt lat="44.7858654" lon="8.865056"><ele>180.0</ele><time>2026-04-16T14:08:49.999Z</time></trkpt><trkpt lat="44.7856233" lon="8.8650682"><ele>180.0</ele><time>2026-04-16T14:08:50.999Z</time></trkpt><trkpt lat="44.785374" lon="8.86508"><ele>180.0</ele><time>2026-04-16T14:08:51.999Z</time></trkpt><trkpt lat="44.7851324" lon="8.8650921"><ele>179.0</ele><time>2026-04-16T14:08:52.999Z</time></trkpt><trkpt lat="44.7848884" lon="8.8651051"><ele>178.0</ele><time>2026-04-16T14:08:53.999Z</time></trkpt><trkpt lat="44.7846473" lon="8.8651144"><ele>181.0</ele><time>2026-04-16T14:08:54.999Z</time></trkpt><trkpt lat="44.7843991" lon="8.8651257"><ele>184.0</ele><time>2026-04-16T14:08:55.999Z</time></trkpt><trkpt lat="44.784144" lon="8.8651364"><ele>184.0</ele><time>2026-04-16T14:08:56.999Z</time></trkpt><trkpt lat="44.7838959" lon="8.8651471"><ele>184.0</ele><time>2026-04-16T14:08:57.999Z</time></trkpt><trkpt lat="44.7836509" lon="8.8651571"><ele>183.5</ele><time>2026-04-16T14:08:58.999Z</time></trkpt><trkpt lat="44.7834014" lon="8.8651666"><ele>183.0</ele><time>2026-04-16T14:08:59.999Z</time></trkpt><trkpt lat="44.7831517" lon="8.8651771"><ele>186.0</ele><time>2026-04-16T14:09:01.1Z</time></trkpt><trkpt lat="44.7826524" lon="8.8651983"><ele>186.0</ele><time>2026-04-16T14:09:02.999Z</time></trkpt><trkpt lat="44.7824121" lon="8.8652087"><ele>186.0</ele><time>2026-04-16T14:09:03.999Z</time></trkpt><trkpt lat="44.7821589" lon="8.8652226"><ele>188.0</ele><time>2026-04-16T14:09:05.104Z</time></trkpt><trkpt lat="44.7816858" lon="8.8652477"><ele>188.0</ele><time>2026-04-16T14:09:06.999Z</time></trkpt><trkpt lat="44.7814476" lon="8.8652589"><ele>188.0</ele><time>2026-04-16T14:09:07.999Z</time></trkpt><trkpt lat="44.7812203" lon="8.8652709"><ele>188.33333333333331</ele><time>2026-04-16T14:09:08.999Z</time></trkpt><trkpt lat="44.7809969" lon="8.8652832"><ele>188.66666666666666</ele><time>2026-04-16T14:09:10.102Z</time></trkpt><trkpt lat="44.7807741" lon="8.8652948"><ele>189.0</ele><time>2026-04-16T14:09:11.105Z</time></trkpt><trkpt lat="44.780335" lon="8.8653114"><ele>188.66666666666666</ele><time>2026-04-16T14:09:12.999Z</time></trkpt><trkpt lat="44.7801205" lon="8.8653175"><ele>188.33333333333331</ele><time>2026-04-16T14:09:13.999Z</time></trkpt><trkpt lat="44.7799168" lon="8.8653255"><ele>188.0</ele><time>2026-04-16T14:09:15.111Z</time></trkpt><trkpt lat="44.7797005" lon="8.8653356"><ele>187.5</ele><time>2026-04-16T14:09:16.103Z</time></trkpt><trkpt lat="44.7792691" lon="8.8653542"><ele>187.0</ele><time>2026-04-16T14:09:17.999Z</time></trkpt><trkpt lat="44.77906" lon="8.8653632"><ele>187.0</ele><time>2026-04-16T14:09:18.999Z</time></trkpt><trkpt lat="44.7788481" lon="8.8653754"><ele>187.0</ele><time>2026-04-16T14:09:19.999Z</time></trkpt><trkpt lat="44.7786363" lon="8.8653818"><ele>187.0</ele><time>2026-04-16T14:09:20.999Z</time></trkpt><trkpt lat="44.7784408" lon="8.8653916"><ele>187.33333333333334</ele><time>2026-04-16T14:09:21.999Z</time></trkpt><trkpt lat="44.7782379" lon="8.8653987"><ele>187.66666666666666</ele><time>2026-04-16T14:09:22.999Z</time></trkpt><trkpt lat="44.7780432" lon="8.8654079"><ele>188.0</ele><time>2026-04-16T14:09:23.999Z</time></trkpt><trkpt lat="44.7778517" lon="8.8654177"><ele>187.66666666666666</ele><time>2026-04-16T14:09:24.999Z</time></trkpt><trkpt lat="44.7776491" lon="8.8654284"><ele>187.33333333333334</ele><time>2026-04-16T14:09:25.999Z</time></trkpt><trkpt lat="44.777454" lon="8.8654364"><ele>187.0</ele><time>2026-04-16T14:09:26.999Z</time></trkpt><trkpt lat="44.777262" lon="8.8654443"><ele>187.0</ele><time>2026-04-16T14:09:27.999Z</time></trkpt><trkpt lat="44.7770686" lon="8.8654515"><ele>187.0</ele><time>2026-04-16T14:09:28.999Z</time></trkpt><trkpt lat="44.7768744" lon="8.8654631"><ele>187.0</ele><time>2026-04-16T14:09:29.999Z</time></trkpt><trkpt lat="44.7767037" lon="8.8654712"><ele>185.66666666666669</ele><time>2026-04-16T14:09:30.999Z</time></trkpt><trkpt lat="44.7765265" lon="8.8654792"><ele>184.33333333333334</ele><time>2026-04-16T14:09:31.999Z</time></trkpt><trkpt lat="44.7763585" lon="8.8654862"><ele>183.0</ele><time>2026-04-16T14:09:32.999Z</time></trkpt><trkpt lat="44.7761896" lon="8.8654928"><ele>183.0</ele><time>2026-04-16T14:09:33.999Z</time></trkpt><trkpt lat="44.7760208" lon="8.865498"><ele>183.0</ele><time>2026-04-16T14:09:34.999Z</time></trkpt><trkpt lat="44.7758529" lon="8.8655039"><ele>183.0</ele><time>2026-04-16T14:09:35.999Z</time></trkpt><trkpt lat="44.775675" lon="8.8655102"><ele>183.33333333333334</ele><time>2026-04-16T14:09:36.999Z</time></trkpt><trkpt lat="44.7755007" lon="8.8655146"><ele>183.66666666666669</ele><time>2026-04-16T14:09:37.999Z</time></trkpt><trkpt lat="44.775328" lon="8.865522"><ele>184.0</ele><time>2026-04-16T14:09:38.999Z</time></trkpt><trkpt lat="44.7751562" lon="8.865529"><ele>185.66666666666669</ele><time>2026-04-16T14:09:39.999Z</time></trkpt><trkpt lat="44.7749824" lon="8.8655366"><ele>187.33333333333334</ele><time>2026-04-16T14:09:40.999Z</time></trkpt><trkpt lat="44.7748111" lon="8.8655456"><ele>189.0</ele><time>2026-04-16T14:09:41.999Z</time></trkpt><trkpt lat="44.7746423" lon="8.8655537"><ele>189.0</ele><time>2026-04-16T14:09:42.999Z</time></trkpt><trkpt lat="44.7744679" lon="8.8655641"><ele>189.0</ele><time>2026-04-16T14:09:43.999Z</time></trkpt><trkpt lat="44.7742898" lon="8.8655737"><ele>189.0</ele><time>2026-04-16T14:09:44.999Z</time></trkpt><trkpt lat="44.774118" lon="8.8655827"><ele>188.33333333333334</ele><time>2026-04-16T14:09:45.999Z</time></trkpt><trkpt lat="44.7739431" lon="8.86559"><ele>187.66666666666669</ele><time>2026-04-16T14:09:46.999Z</time></trkpt><trkpt lat="44.7737714" lon="8.8655963"><ele>187.0</ele><time>2026-04-16T14:09:47.999Z</time></trkpt><trkpt lat="44.7735986" lon="8.8656006"><ele>186.0</ele><time>2026-04-16T14:09:48.999Z</time></trkpt><trkpt lat="44.7734264" lon="8.8656064"><ele>185.0</ele><time>2026-04-16T14:09:49.999Z</time></trkpt><trkpt lat="44.7732541" lon="8.8656119"><ele>184.0</ele><time>2026-04-16T14:09:50.999Z</time></trkpt><trkpt lat="44.7730849" lon="8.8656169"><ele>184.0</ele><time>2026-04-16T14:09:51.999Z</time></trkpt><trkpt lat="44.7729019" lon="8.865624"><ele>184.0</ele><time>2026-04-16T14:09:52.999Z</time></trkpt><trkpt lat="44.772723" lon="8.8656326"><ele>184.0</ele><time>2026-04-16T14:09:53.999Z</time></trkpt><trkpt lat="44.7725482" lon="8.8656393"><ele>183.66666666666669</ele><time>2026-04-16T14:09:54.999Z</time></trkpt><trkpt lat="44.7723604" lon="8.8656502"><ele>183.33333333333334</ele><time>2026-04-16T14:09:55.999Z</time></trkpt><trkpt lat="44.7721815" lon="8.8656622"><ele>183.0</ele><time>2026-04-16T14:09:56.999Z</time></trkpt><trkpt lat="44.7720018" lon="8.8656734"><ele>182.66666666666666</ele><time>2026-04-16T14:09:57.999Z</time></trkpt><trkpt lat="44.7718364" lon="8.8656806"><ele>182.33333333333331</ele><time>2026-04-16T14:09:58.999Z</time></trkpt><trkpt lat="44.7716721" lon="8.8656887"><ele>182.0</ele><time>2026-04-16T14:09:59.999Z</time></trkpt><trkpt lat="44.7715056" lon="8.8656972"><ele>182.0</ele><time>2026-04-16T14:10:00.999Z</time></trkpt><trkpt lat="44.7713505" lon="8.8657061"><ele>182.0</ele><time>2026-04-16T14:10:01.999Z</time></trkpt><trkpt lat="44.7711962" lon="8.865714"><ele>182.0</ele><time>2026-04-16T14:10:02.999Z</time></trkpt><trkpt lat="44.7710467" lon="8.865719"><ele>181.0</ele><time>2026-04-16T14:10:04.126Z</time></trkpt><trkpt lat="44.7708981" lon="8.8657254"><ele>180.0</ele><time>2026-04-16T14:10:05.105Z</time></trkpt><trkpt lat="44.7706189" lon="8.8657368"><ele>179.0</ele><time>2026-04-16T14:10:06.999Z</time></trkpt><trkpt lat="44.7704817" lon="8.8657374"><ele>179.0</ele><time>2026-04-16T14:10:07.999Z</time></trkpt><trkpt lat="44.7702957" lon="8.865726"><ele>179.0</ele><time>2026-04-16T14:10:10.104Z</time></trkpt><trkpt lat="44.770098" lon="8.8656693"><ele>179.0</ele><time>2026-04-16T14:10:11.999Z</time></trkpt><trkpt lat="44.7698979" lon="8.8655928"><ele>179.16666666666666</ele><time>2026-04-16T14:10:14.115Z</time></trkpt><trkpt lat="44.7698253" lon="8.8655671"><ele>179.33333333333331</ele><time>2026-04-16T14:10:15.999Z</time></trkpt><trkpt lat="44.7697519" lon="8.8655509"><ele>179.5</ele><time>2026-04-16T14:10:17.999Z</time></trkpt><trkpt lat="44.7696889" lon="8.8655265"><ele>179.66666666666666</ele><time>2026-04-16T14:10:19.999Z</time></trkpt><trkpt lat="44.7696276" lon="8.8654864"><ele>179.83333333333334</ele><time>2026-04-16T14:10:22.999Z</time></trkpt><trkpt lat="44.7695354" lon="8.8654522"><ele>180.0</ele><time>2026-04-16T14:10:26.999Z</time></trkpt><trkpt lat="44.7694189" lon="8.8653941"><ele>180.0</ele><time>2026-04-16T14:10:28.999Z</time></trkpt><trkpt lat="44.7693473" lon="8.8653568"><ele>180.0</ele><time>2026-04-16T14:10:29.999Z</time></trkpt><trkpt lat="44.7692706" lon="8.8653146"><ele>180.0</ele><time>2026-04-16T14:10:30.999Z</time></trkpt><trkpt lat="44.769193" lon="8.8652661"><ele>180.0</ele><time>2026-04-16T14:10:31.999Z</time></trkpt><trkpt lat="44.7691044" lon="8.8652068"><ele>180.0</ele><time>2026-04-16T14:10:32.999Z</time></trkpt><trkpt lat="44.7690141" lon="8.8651348"><ele>180.0</ele><time>2026-04-16T14:10:33.999Z</time></trkpt><trkpt lat="44.7689272" lon="8.8650543"><ele>180.0</ele><time>2026-04-16T14:10:34.999Z</time></trkpt><trkpt lat="44.7688309" lon="8.8649607"><ele>180.0</ele><time>2026-04-16T14:10:35.999Z</time></trkpt><trkpt lat="44.7687418" lon="8.8648647"><ele>180.0</ele><time>2026-04-16T14:10:36.999Z</time></trkpt><trkpt lat="44.768652" lon="8.864768"><ele>180.0</ele><time>2026-04-16T14:10:37.999Z</time></trkpt><trkpt lat="44.7685635" lon="8.8646734"><ele>180.25</ele><time>2026-04-16T14:10:38.999Z</time></trkpt><trkpt lat="44.7684723" lon="8.8645744"><ele>180.5</ele><time>2026-04-16T14:10:39.999Z</time></trkpt><trkpt lat="44.7683783" lon="8.8644726"><ele>180.75</ele><time>2026-04-16T14:10:40.999Z</time></trkpt><trkpt lat="44.768293" lon="8.8643769"><ele>181.0</ele><time>2026-04-16T14:10:41.999Z</time></trkpt><trkpt lat="44.7682038" lon="8.8642795"><ele>181.0</ele><time>2026-04-16T14:10:42.999Z</time></trkpt><trkpt lat="44.768112" lon="8.8641842"><ele>181.0</ele><time>2026-04-16T14:10:43.999Z</time></trkpt><trkpt lat="44.7680199" lon="8.8640887"><ele>181.0</ele><time>2026-04-16T14:10:44.999Z</time></trkpt><trkpt lat="44.7679273" lon="8.8639923"><ele>181.0</ele><time>2026-04-16T14:10:45.999Z</time></trkpt><trkpt lat="44.767838" lon="8.8639017"><ele>181.0</ele><time>2026-04-16T14:10:46.999Z</time></trkpt><trkpt lat="44.7677464" lon="8.8638053"><ele>181.0</ele><time>2026-04-16T14:10:47.999Z</time></trkpt><trkpt lat="44.7676507" lon="8.8637015"><ele>181.0</ele><time>2026-04-16T14:10:48.999Z</time></trkpt><trkpt lat="44.7675578" lon="8.8635953"><ele>181.0</ele><time>2026-04-16T14:10:49.999Z</time></trkpt><trkpt lat="44.767466" lon="8.8634948"><ele>180.75</ele><time>2026-04-16T14:10:50.999Z</time></trkpt><trkpt lat="44.767365" lon="8.8633883"><ele>180.5</ele><time>2026-04-16T14:10:51.999Z</time></trkpt><trkpt lat="44.7672661" lon="8.8632835"><ele>180.25</ele><time>2026-04-16T14:10:52.999Z</time></trkpt><trkpt lat="44.7671693" lon="8.8631776"><ele>180.0</ele><time>2026-04-16T14:10:53.999Z</time></trkpt><trkpt lat="44.7670743" lon="8.8630759"><ele>180.0</ele><time>2026-04-16T14:10:54.999Z</time></trkpt><trkpt lat="44.7669766" lon="8.8629716"><ele>180.0</ele><time>2026-04-16T14:10:55.999Z</time></trkpt><trkpt lat="44.7668775" lon="8.862864"><ele>180.0</ele><time>2026-04-16T14:10:56.999Z</time></trkpt><trkpt lat="44.7667789" lon="8.8627597"><ele>180.0</ele><time>2026-04-16T14:10:57.999Z</time></trkpt><trkpt lat="44.7666808" lon="8.8626533"><ele>180.25</ele><time>2026-04-16T14:10:58.999Z</time></trkpt><trkpt lat="44.7665814" lon="8.8625496"><ele>180.5</ele><time>2026-04-16T14:10:59.999Z</time></trkpt><trkpt lat="44.7664788" lon="8.8624521"><ele>180.75</ele><time>2026-04-16T14:11:00.999Z</time></trkpt><trkpt lat="44.7663721" lon="8.8623655"><ele>181.0</ele><time>2026-04-16T14:11:01.999Z</time></trkpt><trkpt lat="44.766264" lon="8.8622913"><ele>181.0</ele><time>2026-04-16T14:11:02.999Z</time></trkpt><trkpt lat="44.7661254" lon="8.8622229"><ele>181.0</ele><time>2026-04-16T14:11:04.999Z</time></trkpt><trkpt lat="44.7660086" lon="8.8621693"><ele>181.0</ele><time>2026-04-16T14:11:05.999Z</time></trkpt><trkpt lat="44.7658972" lon="8.8621157"><ele>181.0</ele><time>2026-04-16T14:11:06.999Z</time></trkpt><trkpt lat="44.7657717" lon="8.8620564"><ele>183.0</ele><time>2026-04-16T14:11:07.999Z</time></trkpt><trkpt lat="44.7656399" lon="8.8619888"><ele>185.0</ele><time>2026-04-16T14:11:09.102Z</time></trkpt><trkpt lat="44.7654481" lon="8.8618914"><ele>187.0</ele><time>2026-04-16T14:11:10.106Z</time></trkpt><trkpt lat="44.7652148" lon="8.861781"><ele>188.0</ele><time>2026-04-16T14:11:11.999Z</time></trkpt><trkpt lat="44.7650928" lon="8.8617244"><ele>189.0</ele><time>2026-04-16T14:11:12.999Z</time></trkpt><trkpt lat="44.764974" lon="8.8616699"><ele>190.0</ele><time>2026-04-16T14:11:13.999Z</time></trkpt><trkpt lat="44.7648614" lon="8.8616208"><ele>191.0</ele><time>2026-04-16T14:11:14.999Z</time></trkpt><trkpt lat="44.7646078" lon="8.8615165"><ele>191.0</ele><time>2026-04-16T14:11:16.999Z</time></trkpt><trkpt lat="44.7644755" lon="8.861444"><ele>191.0</ele><time>2026-04-16T14:11:18.999Z</time></trkpt><trkpt lat="44.7643351" lon="8.8613854"><ele>191.0</ele><time>2026-04-16T14:11:19.999Z</time></trkpt><trkpt lat="44.7642231" lon="8.8613318"><ele>191.0</ele><time>2026-04-16T14:11:20.999Z</time></trkpt><trkpt lat="44.7641369" lon="8.8612926"><ele>192.0</ele><time>2026-04-16T14:11:21.999Z</time></trkpt><trkpt lat="44.7640301" lon="8.8612429"><ele>193.0</ele><time>2026-04-16T14:11:22.999Z</time></trkpt><trkpt lat="44.7637974" lon="8.861131"><ele>194.0</ele><time>2026-04-16T14:11:23.999Z</time></trkpt><trkpt lat="44.7636816" lon="8.8610727"><ele>194.0</ele><time>2026-04-16T14:11:24.999Z</time></trkpt><trkpt lat="44.7635683" lon="8.8610119"><ele>194.0</ele><time>2026-04-16T14:11:25.999Z</time></trkpt><trkpt lat="44.7634469" lon="8.8609373"><ele>194.0</ele><time>2026-04-16T14:11:27.999Z</time></trkpt><trkpt lat="44.7633248" lon="8.8608724"><ele>194.0</ele><time>2026-04-16T14:11:28.999Z</time></trkpt><trkpt lat="44.7632125" lon="8.8608199"><ele>193.0</ele><time>2026-04-16T14:11:29.999Z</time></trkpt><trkpt lat="44.7630955" lon="8.8607684"><ele>192.0</ele><time>2026-04-16T14:11:30.999Z</time></trkpt><trkpt lat="44.7628792" lon="8.8606669"><ele>191.0</ele><time>2026-04-16T14:11:31.999Z</time></trkpt><trkpt lat="44.7627657" lon="8.8606098"><ele>191.5</ele><time>2026-04-16T14:11:32.999Z</time></trkpt><trkpt lat="44.7626505" lon="8.8605556"><ele>192.0</ele><time>2026-04-16T14:11:33.999Z</time></trkpt><trkpt lat="44.7625341" lon="8.8604997"><ele>192.5</ele><time>2026-04-16T14:11:34.999Z</time></trkpt><trkpt lat="44.7624201" lon="8.860442"><ele>193.0</ele><time>2026-04-16T14:11:35.999Z</time></trkpt><trkpt lat="44.7622972" lon="8.8603805"><ele>193.0</ele><time>2026-04-16T14:11:36.999Z</time></trkpt><trkpt lat="44.7621804" lon="8.8603252"><ele>193.0</ele><time>2026-04-16T14:11:37.999Z</time></trkpt><trkpt lat="44.7620699" lon="8.8602748"><ele>193.0</ele><time>2026-04-16T14:11:38.999Z</time></trkpt><trkpt lat="44.7619513" lon="8.8602192"><ele>193.0</ele><time>2026-04-16T14:11:39.999Z</time></trkpt><trkpt lat="44.7618376" lon="8.8601601"><ele>194.5</ele><time>2026-04-16T14:11:40.999Z</time></trkpt><trkpt lat="44.7617242" lon="8.8601013"><ele>196.0</ele><time>2026-04-16T14:11:41.999Z</time></trkpt><trkpt lat="44.7616172" lon="8.8600468"><ele>197.5</ele><time>2026-04-16T14:11:42.999Z</time></trkpt><trkpt lat="44.7615048" lon="8.8599903"><ele>199.0</ele><time>2026-04-16T14:11:43.999Z</time></trkpt><trkpt lat="44.7613902" lon="8.8599304"><ele>199.0</ele><time>2026-04-16T14:11:44.999Z</time></trkpt><trkpt lat="44.7612804" lon="8.8598739"><ele>199.0</ele><time>2026-04-16T14:11:45.999Z</time></trkpt><trkpt lat="44.7611493" lon="8.8598013"><ele>199.0</ele><time>2026-04-16T14:11:47.999Z</time></trkpt><trkpt lat="44.7609945" lon="8.8597253"><ele>199.0</ele><time>2026-04-16T14:11:48.999Z</time></trkpt><trkpt lat="44.7608512" lon="8.8596525"><ele>201.75</ele><time>2026-04-16T14:11:49.999Z</time></trkpt><trkpt lat="44.7607647" lon="8.8596134"><ele>204.5</ele><time>2026-04-16T14:11:50.999Z</time></trkpt><trkpt lat="44.7606704" lon="8.8595712"><ele>207.25</ele><time>2026-04-16T14:11:51.999Z</time></trkpt><trkpt lat="44.7604528" lon="8.8594668"><ele>210.0</ele><time>2026-04-16T14:11:52.999Z</time></trkpt><trkpt lat="44.7603275" lon="8.8594045"><ele>209.66666666666669</ele><time>2026-04-16T14:11:53.999Z</time></trkpt><trkpt lat="44.76011" lon="8.8592978"><ele>209.33333333333334</ele><time>2026-04-16T14:11:55.999Z</time></trkpt><trkpt lat="44.7599264" lon="8.8592142"><ele>209.0</ele><time>2026-04-16T14:11:56.999Z</time></trkpt><trkpt lat="44.759779" lon="8.8591529"><ele>208.0</ele><time>2026-04-16T14:11:57.999Z</time></trkpt><trkpt lat="44.7596393" lon="8.8591021"><ele>207.0</ele><time>2026-04-16T14:11:58.999Z</time></trkpt><trkpt lat="44.7595028" lon="8.8590565"><ele>206.0</ele><time>2026-04-16T14:11:59.999Z</time></trkpt><trkpt lat="44.7593697" lon="8.8590167"><ele>205.0</ele><time>2026-04-16T14:12:00.999Z</time></trkpt><trkpt lat="44.7591077" lon="8.8589217"><ele>205.0</ele><time>2026-04-16T14:12:02.999Z</time></trkpt><trkpt lat="44.7589718" lon="8.8588558"><ele>205.0</ele><time>2026-04-16T14:12:03.999Z</time></trkpt><trkpt lat="44.7588423" lon="8.8587669"><ele>205.0</ele><time>2026-04-16T14:12:04.999Z</time></trkpt><trkpt lat="44.7587215" lon="8.8586506"><ele>205.0</ele><time>2026-04-16T14:12:05.999Z</time></trkpt><trkpt lat="44.758617" lon="8.858512"><ele>204.0</ele><time>2026-04-16T14:12:06.999Z</time></trkpt><trkpt lat="44.7585303" lon="8.8583496"><ele>203.0</ele><time>2026-04-16T14:12:07.999Z</time></trkpt><trkpt lat="44.7584547" lon="8.8581485"><ele>202.0</ele><time>2026-04-16T14:12:08.999Z</time></trkpt><trkpt lat="44.7583992" lon="8.8579448"><ele>202.0</ele><time>2026-04-16T14:12:09.999Z</time></trkpt><trkpt lat="44.7583484" lon="8.8577385"><ele>202.0</ele><time>2026-04-16T14:12:10.999Z</time></trkpt><trkpt lat="44.7582976" lon="8.8575112"><ele>202.0</ele><time>2026-04-16T14:12:11.999Z</time></trkpt><trkpt lat="44.7582494" lon="8.8572959"><ele>201.0</ele><time>2026-04-16T14:12:12.999Z</time></trkpt><trkpt lat="44.7581982" lon="8.8570765"><ele>200.0</ele><time>2026-04-16T14:12:14.102Z</time></trkpt><trkpt lat="44.7580695" lon="8.8566606"><ele>199.0</ele><time>2026-04-16T14:12:15.999Z</time></trkpt><trkpt lat="44.7579737" lon="8.8564622"><ele>198.0</ele><time>2026-04-16T14:12:16.999Z</time></trkpt><trkpt lat="44.7578603" lon="8.8562788"><ele>197.0</ele><time>2026-04-16T14:12:17.999Z</time></trkpt><trkpt lat="44.7577313" lon="8.8561137"><ele>196.0</ele><time>2026-04-16T14:12:18.999Z</time></trkpt><trkpt lat="44.7575906" lon="8.8559516"><ele>195.0</ele><time>2026-04-16T14:12:20.101Z</time></trkpt><trkpt lat="44.7572947" lon="8.8556229"><ele>195.0</ele><time>2026-04-16T14:12:21.999Z</time></trkpt><trkpt lat="44.757149" lon="8.8554565"><ele>195.0</ele><time>2026-04-16T14:12:22.999Z</time></trkpt><trkpt lat="44.7569943" lon="8.8552794"><ele>195.0</ele><time>2026-04-16T14:12:23.999Z</time></trkpt><trkpt lat="44.7568367" lon="8.8550991"><ele>194.33333333333331</ele><time>2026-04-16T14:12:24.999Z</time></trkpt><trkpt lat="44.7566807" lon="8.8549274"><ele>193.66666666666666</ele><time>2026-04-16T14:12:25.999Z</time></trkpt><trkpt lat="44.756532" lon="8.8547615"><ele>193.0</ele><time>2026-04-16T14:12:26.999Z</time></trkpt><trkpt lat="44.7563765" lon="8.8545883"><ele>193.0</ele><time>2026-04-16T14:12:27.999Z</time></trkpt><trkpt lat="44.7562301" lon="8.8544251"><ele>193.0</ele><time>2026-04-16T14:12:28.999Z</time></trkpt><trkpt lat="44.7560904" lon="8.854269"><ele>193.0</ele><time>2026-04-16T14:12:29.999Z</time></trkpt><trkpt lat="44.7559556" lon="8.8541181"><ele>196.0</ele><time>2026-04-16T14:12:30.999Z</time></trkpt><trkpt lat="44.7558322" lon="8.8539762"><ele>199.0</ele><time>2026-04-16T14:12:31.999Z</time></trkpt><trkpt lat="44.7557036" lon="8.853827"><ele>202.0</ele><time>2026-04-16T14:12:32.999Z</time></trkpt><trkpt lat="44.755589" lon="8.8536764"><ele>202.0</ele><time>2026-04-16T14:12:33.999Z</time></trkpt><trkpt lat="44.7554871" lon="8.8535139"><ele>202.0</ele><time>2026-04-16T14:12:34.999Z</time></trkpt><trkpt lat="44.7553987" lon="8.8533236"><ele>202.0</ele><time>2026-04-16T14:12:35.999Z</time></trkpt><trkpt lat="44.7553285" lon="8.8531315"><ele>199.66666666666666</ele><time>2026-04-16T14:12:36.999Z</time></trkpt><trkpt lat="44.7552559" lon="8.8529259"><ele>197.33333333333331</ele><time>2026-04-16T14:12:37.999Z</time></trkpt><trkpt lat="44.7551868" lon="8.852724"><ele>195.0</ele><time>2026-04-16T14:12:38.999Z</time></trkpt><trkpt lat="44.7551135" lon="8.8525069"><ele>190.33333333333334</ele><time>2026-04-16T14:12:39.999Z</time></trkpt><trkpt lat="44.7550377" lon="8.8522771"><ele>185.66666666666669</ele><time>2026-04-16T14:12:40.999Z</time></trkpt><trkpt lat="44.7549636" lon="8.8520561"><ele>181.0</ele><time>2026-04-16T14:12:41.999Z</time></trkpt><trkpt lat="44.7548834" lon="8.851825"><ele>180.33333333333334</ele><time>2026-04-16T14:12:42.999Z</time></trkpt><trkpt lat="44.7548041" lon="8.8515888"><ele>179.66666666666666</ele><time>2026-04-16T14:12:43.999Z</time></trkpt><trkpt lat="44.7547244" lon="8.8513514"><ele>179.0</ele><time>2026-04-16T14:12:44.999Z</time></trkpt><trkpt lat="44.754649" lon="8.8511281"><ele>181.66666666666666</ele><time>2026-04-16T14:12:45.999Z</time></trkpt><trkpt lat="44.7545785" lon="8.8509167"><ele>184.33333333333334</ele><time>2026-04-16T14:12:46.999Z</time></trkpt><trkpt lat="44.7545122" lon="8.8507156"><ele>187.0</ele><time>2026-04-16T14:12:47.999Z</time></trkpt><trkpt lat="44.7544445" lon="8.8505055"><ele>187.0</ele><time>2026-04-16T14:12:48.999Z</time></trkpt><trkpt lat="44.7543775" lon="8.8503013"><ele>187.0</ele><time>2026-04-16T14:12:49.999Z</time></trkpt><trkpt lat="44.7543169" lon="8.8501127"><ele>187.0</ele><time>2026-04-16T14:12:50.999Z</time></trkpt><trkpt lat="44.7542541" lon="8.8499263"><ele>188.75</ele><time>2026-04-16T14:12:51.999Z</time></trkpt><trkpt lat="44.7541893" lon="8.8497654"><ele>190.5</ele><time>2026-04-16T14:12:52.999Z</time></trkpt><trkpt lat="44.7541112" lon="8.849629"><ele>192.25</ele><time>2026-04-16T14:12:53.999Z</time></trkpt><trkpt lat="44.7540182" lon="8.8495287"><ele>194.0</ele><time>2026-04-16T14:12:54.999Z</time></trkpt><trkpt lat="44.7539016" lon="8.8494484"><ele>194.0</ele><time>2026-04-16T14:12:55.999Z</time></trkpt><trkpt lat="44.7537657" lon="8.8493869"><ele>194.0</ele><time>2026-04-16T14:12:56.999Z</time></trkpt><trkpt lat="44.753617" lon="8.8493423"><ele>194.0</ele><time>2026-04-16T14:12:57.999Z</time></trkpt><trkpt lat="44.7534609" lon="8.8493064"><ele>194.33333333333334</ele><time>2026-04-16T14:12:58.999Z</time></trkpt><trkpt lat="44.7533007" lon="8.8492678"><ele>194.66666666666669</ele><time>2026-04-16T14:12:59.999Z</time></trkpt><trkpt lat="44.7531403" lon="8.849226"><ele>195.0</ele><time>2026-04-16T14:13:00.999Z</time></trkpt><trkpt lat="44.7529752" lon="8.8491791"><ele>195.0</ele><time>2026-04-16T14:13:01.999Z</time></trkpt><trkpt lat="44.752814" lon="8.8491313"><ele>195.0</ele><time>2026-04-16T14:13:02.999Z</time></trkpt><trkpt lat="44.7526384" lon="8.8490854"><ele>195.0</ele><time>2026-04-16T14:13:03.999Z</time></trkpt><trkpt lat="44.7524508" lon="8.8490373"><ele>194.66666666666669</ele><time>2026-04-16T14:13:04.999Z</time></trkpt><trkpt lat="44.7522608" lon="8.8489872"><ele>194.33333333333334</ele><time>2026-04-16T14:13:05.999Z</time></trkpt><trkpt lat="44.7520728" lon="8.8489353"><ele>194.0</ele><time>2026-04-16T14:13:06.999Z</time></trkpt><trkpt lat="44.7518654" lon="8.8488792"><ele>194.66666666666669</ele><time>2026-04-16T14:13:07.999Z</time></trkpt><trkpt lat="44.751661" lon="8.8488238"><ele>195.33333333333331</ele><time>2026-04-16T14:13:08.999Z</time></trkpt><trkpt lat="44.751451" lon="8.848768"><ele>196.0</ele><time>2026-04-16T14:13:09.999Z</time></trkpt><trkpt lat="44.751243" lon="8.8487113"><ele>195.0</ele><time>2026-04-16T14:13:10.999Z</time></trkpt><trkpt lat="44.7510259" lon="8.8486495"><ele>194.0</ele><time>2026-04-16T14:13:11.999Z</time></trkpt><trkpt lat="44.7508003" lon="8.8485868"><ele>194.0</ele><time>2026-04-16T14:13:12.999Z</time></trkpt><trkpt lat="44.7505861" lon="8.8485252"><ele>194.0</ele><time>2026-04-16T14:13:14.11Z</time></trkpt><trkpt lat="44.7503833" lon="8.8484673"><ele>194.0</ele><time>2026-04-16T14:13:15.106Z</time></trkpt><trkpt lat="44.7501923" lon="8.8484162"><ele>197.0</ele><time>2026-04-16T14:13:16.108Z</time></trkpt><trkpt lat="44.749832" lon="8.8483132"><ele>200.0</ele><time>2026-04-16T14:13:17.999Z</time></trkpt><trkpt lat="44.7496696" lon="8.848268"><ele>200.0</ele><time>2026-04-16T14:13:18.999Z</time></trkpt><trkpt lat="44.7495085" lon="8.8482196"><ele>200.0</ele><time>2026-04-16T14:13:19.999Z</time></trkpt><trkpt lat="44.7493484" lon="8.848174"><ele>200.0</ele><time>2026-04-16T14:13:20.999Z</time></trkpt><trkpt lat="44.7491928" lon="8.8481237"><ele>200.0</ele><time>2026-04-16T14:13:21.999Z</time></trkpt><trkpt lat="44.7490458" lon="8.8480709"><ele>200.0</ele><time>2026-04-16T14:13:22.999Z</time></trkpt><trkpt lat="44.7488871" lon="8.8480151"><ele>200.0</ele><time>2026-04-16T14:13:23.999Z</time></trkpt><trkpt lat="44.7487381" lon="8.8479634"><ele>200.0</ele><time>2026-04-16T14:13:24.999Z</time></trkpt><trkpt lat="44.7486036" lon="8.8479205"><ele>200.0</ele><time>2026-04-16T14:13:25.999Z</time></trkpt><trkpt lat="44.7484837" lon="8.8478751"><ele>200.0</ele><time>2026-04-16T14:13:26.999Z</time></trkpt><trkpt lat="44.748383" lon="8.8478243"><ele>200.0</ele><time>2026-04-16T14:13:27.999Z</time></trkpt><trkpt lat="44.7482883" lon="8.8477575"><ele>200.2</ele><time>2026-04-16T14:13:28.999Z</time></trkpt><trkpt lat="44.7482056" lon="8.8476753"><ele>200.4</ele><time>2026-04-16T14:13:29.999Z</time></trkpt><trkpt lat="44.7481368" lon="8.8475814"><ele>200.60000000000002</ele><time>2026-04-16T14:13:30.999Z</time></trkpt><trkpt lat="44.748066" lon="8.8474844"><ele>200.8</ele><time>2026-04-16T14:13:31.999Z</time></trkpt><trkpt lat="44.7479898" lon="8.8474176"><ele>201.0</ele><time>2026-04-16T14:13:32.999Z</time></trkpt><trkpt lat="44.7479004" lon="8.8473832"><ele>201.20000000000002</ele><time>2026-04-16T14:13:33.999Z</time></trkpt><trkpt lat="44.7478104" lon="8.8473905"><ele>201.4</ele><time>2026-04-16T14:13:34.999Z</time></trkpt><trkpt lat="44.7477156" lon="8.8474346"><ele>201.6</ele><time>2026-04-16T14:13:35.999Z</time></trkpt><trkpt lat="44.7476148" lon="8.8474971"><ele>201.8</ele><time>2026-04-16T14:13:36.999Z</time></trkpt><trkpt lat="44.7475049" lon="8.8475428"><ele>202.0</ele><time>2026-04-16T14:13:37.999Z</time></trkpt><trkpt lat="44.7473798" lon="8.8475656"><ele>202.0</ele><time>2026-04-16T14:13:38.999Z</time></trkpt><trkpt lat="44.7472519" lon="8.8475663"><ele>202.0</ele><time>2026-04-16T14:13:39.999Z</time></trkpt><trkpt lat="44.7471222" lon="8.8475526"><ele>202.0</ele><time>2026-04-16T14:13:40.999Z</time></trkpt><trkpt lat="44.7469862" lon="8.8475326"><ele>202.0</ele><time>2026-04-16T14:13:41.999Z</time></trkpt><trkpt lat="44.7468507" lon="8.8475061"><ele>202.5</ele><time>2026-04-16T14:13:42.999Z</time></trkpt><trkpt lat="44.7467062" lon="8.8474722"><ele>203.0</ele><time>2026-04-16T14:13:43.999Z</time></trkpt><trkpt lat="44.7465588" lon="8.8474333"><ele>203.5</ele><time>2026-04-16T14:13:44.999Z</time></trkpt><trkpt lat="44.7464101" lon="8.8473906"><ele>204.0</ele><time>2026-04-16T14:13:45.999Z</time></trkpt><trkpt lat="44.7462631" lon="8.8473489"><ele>204.0</ele><time>2026-04-16T14:13:46.999Z</time></trkpt><trkpt lat="44.7461013" lon="8.8473032"><ele>204.0</ele><time>2026-04-16T14:13:47.999Z</time></trkpt><trkpt lat="44.7459421" lon="8.8472576"><ele>204.0</ele><time>2026-04-16T14:13:48.999Z</time></trkpt><trkpt lat="44.7457793" lon="8.8472118"><ele>204.33333333333331</ele><time>2026-04-16T14:13:49.999Z</time></trkpt><trkpt lat="44.7456214" lon="8.8471674"><ele>204.66666666666666</ele><time>2026-04-16T14:13:50.999Z</time></trkpt><trkpt lat="44.7454534" lon="8.8471219"><ele>205.0</ele><time>2026-04-16T14:13:51.999Z</time></trkpt><trkpt lat="44.7452788" lon="8.8470745"><ele>205.0</ele><time>2026-04-16T14:13:52.999Z</time></trkpt><trkpt lat="44.7451052" lon="8.8470268"><ele>205.0</ele><time>2026-04-16T14:13:53.999Z</time></trkpt><trkpt lat="44.744938" lon="8.8469811"><ele>205.0</ele><time>2026-04-16T14:13:54.999Z</time></trkpt><trkpt lat="44.7447621" lon="8.8469318"><ele>205.0</ele><time>2026-04-16T14:13:55.999Z</time></trkpt><trkpt lat="44.744594" lon="8.846886"><ele>205.0</ele><time>2026-04-16T14:13:56.999Z</time></trkpt><trkpt lat="44.7444195" lon="8.8468391"><ele>205.0</ele><time>2026-04-16T14:13:57.999Z</time></trkpt><trkpt lat="44.7442534" lon="8.8467928"><ele>205.0</ele><time>2026-04-16T14:13:58.999Z</time></trkpt><trkpt lat="44.7440786" lon="8.8467441"><ele>205.0</ele><time>2026-04-16T14:13:59.999Z</time></trkpt><trkpt lat="44.7438945" lon="8.846693"><ele>205.0</ele><time>2026-04-16T14:14:00.999Z</time></trkpt><trkpt lat="44.7437158" lon="8.8466443"><ele>205.33333333333331</ele><time>2026-04-16T14:14:01.999Z</time></trkpt><trkpt lat="44.7435356" lon="8.8465942"><ele>205.66666666666669</ele><time>2026-04-16T14:14:02.999Z</time></trkpt><trkpt lat="44.7433526" lon="8.8465477"><ele>206.0</ele><time>2026-04-16T14:14:03.999Z</time></trkpt><trkpt lat="44.7431657" lon="8.8464989"><ele>206.0</ele><time>2026-04-16T14:14:04.999Z</time></trkpt><trkpt lat="44.7429752" lon="8.8464485"><ele>206.0</ele><time>2026-04-16T14:14:05.999Z</time></trkpt><trkpt lat="44.7427827" lon="8.8463953"><ele>206.0</ele><time>2026-04-16T14:14:06.999Z</time></trkpt><trkpt lat="44.7425894" lon="8.8463439"><ele>206.0</ele><time>2026-04-16T14:14:07.999Z</time></trkpt><trkpt lat="44.7423947" lon="8.846291"><ele>206.0</ele><time>2026-04-16T14:14:08.999Z</time></trkpt><trkpt lat="44.7422098" lon="8.8462411"><ele>206.0</ele><time>2026-04-16T14:14:09.999Z</time></trkpt><trkpt lat="44.7420368" lon="8.8461931"><ele>206.33333333333334</ele><time>2026-04-16T14:14:10.999Z</time></trkpt><trkpt lat="44.7418568" lon="8.846143"><ele>206.66666666666669</ele><time>2026-04-16T14:14:11.999Z</time></trkpt><trkpt lat="44.7416862" lon="8.8460971"><ele>207.0</ele><time>2026-04-16T14:14:12.999Z</time></trkpt><trkpt lat="44.7415101" lon="8.84605"><ele>207.0</ele><time>2026-04-16T14:14:13.999Z</time></trkpt><trkpt lat="44.741338" lon="8.8460053"><ele>207.0</ele><time>2026-04-16T14:14:14.999Z</time></trkpt><trkpt lat="44.7411579" lon="8.8459563"><ele>207.0</ele><time>2026-04-16T14:14:15.999Z</time></trkpt><trkpt lat="44.7409702" lon="8.8459045"><ele>206.33333333333331</ele><time>2026-04-16T14:14:16.999Z</time></trkpt><trkpt lat="44.7407952" lon="8.8458556"><ele>205.66666666666666</ele><time>2026-04-16T14:14:17.999Z</time></trkpt><trkpt lat="44.7406229" lon="8.8458102"><ele>205.0</ele><time>2026-04-16T14:14:18.999Z</time></trkpt><trkpt lat="44.7404542" lon="8.8457665"><ele>205.0</ele><time>2026-04-16T14:14:19.999Z</time></trkpt><trkpt lat="44.7402881" lon="8.8457237"><ele>205.0</ele><time>2026-04-16T14:14:20.999Z</time></trkpt><trkpt lat="44.7401276" lon="8.8456797"><ele>205.0</ele><time>2026-04-16T14:14:21.998Z</time></trkpt><trkpt lat="44.7399831" lon="8.8456362"><ele>205.5</ele><time>2026-04-16T14:14:22.999Z</time></trkpt><trkpt lat="44.7398395" lon="8.8455928"><ele>206.0</ele><time>2026-04-16T14:14:23.999Z</time></trkpt><trkpt lat="44.7397025" lon="8.8455512"><ele>206.5</ele><time>2026-04-16T14:14:25.116Z</time></trkpt><trkpt lat="44.7395455" lon="8.8455077"><ele>207.0</ele><time>2026-04-16T14:14:26.999Z</time></trkpt><trkpt lat="44.7394261" lon="8.8454733"><ele>207.0</ele><time>2026-04-16T14:14:27.999Z</time></trkpt><trkpt lat="44.7393021" lon="8.8454393"><ele>207.0</ele><time>2026-04-16T14:14:28.999Z</time></trkpt><trkpt lat="44.7392158" lon="8.8454169"><ele>207.0</ele><time>2026-04-16T14:14:29.999Z</time></trkpt><trkpt lat="44.7391165" lon="8.8453934"><ele>207.0</ele><time>2026-04-16T14:14:30.999Z</time></trkpt><trkpt lat="44.7389477" lon="8.8453445"><ele>207.0</ele><time>2026-04-16T14:14:31.999Z</time></trkpt><trkpt lat="44.7388805" lon="8.8453103"><ele>207.0</ele><time>2026-04-16T14:14:32.999Z</time></trkpt><trkpt lat="44.7388244" lon="8.8452602"><ele>207.0</ele><time>2026-04-16T14:14:33.999Z</time></trkpt><trkpt lat="44.7387763" lon="8.8451887"><ele>207.0</ele><time>2026-04-16T14:14:34.999Z</time></trkpt><trkpt lat="44.7387352" lon="8.8450901"><ele>207.0</ele><time>2026-04-16T14:14:35.999Z</time></trkpt><trkpt lat="44.7386892" lon="8.844984"><ele>207.0</ele><time>2026-04-16T14:14:36.999Z</time></trkpt><trkpt lat="44.7386309" lon="8.8448852"><ele>207.6</ele><time>2026-04-16T14:14:37.999Z</time></trkpt><trkpt lat="44.7385592" lon="8.8448051"><ele>208.2</ele><time>2026-04-16T14:14:38.999Z</time></trkpt><trkpt lat="44.738473" lon="8.844743"><ele>208.8</ele><time>2026-04-16T14:14:39.999Z</time></trkpt><trkpt lat="44.7383739" lon="8.8447124"><ele>209.4</ele><time>2026-04-16T14:14:40.999Z</time></trkpt><trkpt lat="44.7382745" lon="8.8447223"><ele>210.0</ele><time>2026-04-16T14:14:41.999Z</time></trkpt><trkpt lat="44.7381805" lon="8.844773"><ele>210.2</ele><time>2026-04-16T14:14:42.999Z</time></trkpt><trkpt lat="44.7380891" lon="8.8448578"><ele>210.4</ele><time>2026-04-16T14:14:43.999Z</time></trkpt><trkpt lat="44.7379956" lon="8.8449434"><ele>210.60000000000002</ele><time>2026-04-16T14:14:44.999Z</time></trkpt><trkpt lat="44.7378941" lon="8.845002"><ele>210.8</ele><time>2026-04-16T14:14:45.999Z</time></trkpt><trkpt lat="44.7377872" lon="8.8450156"><ele>211.0</ele><time>2026-04-16T14:14:46.999Z</time></trkpt><trkpt lat="44.7376728" lon="8.8449957"><ele>211.0</ele><time>2026-04-16T14:14:47.999Z</time></trkpt><trkpt lat="44.7375378" lon="8.8449618"><ele>211.0</ele><time>2026-04-16T14:14:48.999Z</time></trkpt><trkpt lat="44.7374043" lon="8.8449253"><ele>211.0</ele><time>2026-04-16T14:14:49.999Z</time></trkpt><trkpt lat="44.7372693" lon="8.8448889"><ele>211.0</ele><time>2026-04-16T14:14:50.999Z</time></trkpt><trkpt lat="44.7371217" lon="8.8448477"><ele>211.0</ele><time>2026-04-16T14:14:51.999Z</time></trkpt><trkpt lat="44.7369732" lon="8.8448037"><ele>211.0</ele><time>2026-04-16T14:14:52.999Z</time></trkpt><trkpt lat="44.7368151" lon="8.8447627"><ele>211.0</ele><time>2026-04-16T14:14:53.999Z</time></trkpt><trkpt lat="44.7366571" lon="8.844721"><ele>211.0</ele><time>2026-04-16T14:14:54.999Z</time></trkpt><trkpt lat="44.7364963" lon="8.8446763"><ele>211.0</ele><time>2026-04-16T14:14:55.999Z</time></trkpt><trkpt lat="44.7363216" lon="8.8446303"><ele>211.0</ele><time>2026-04-16T14:14:56.999Z</time></trkpt><trkpt lat="44.7361522" lon="8.8445855"><ele>210.0</ele><time>2026-04-16T14:14:57.999Z</time></trkpt><trkpt lat="44.7359761" lon="8.8445377"><ele>209.0</ele><time>2026-04-16T14:14:58.999Z</time></trkpt><trkpt lat="44.7357968" lon="8.8444885"><ele>208.0</ele><time>2026-04-16T14:14:59.999Z</time></trkpt><trkpt lat="44.7356199" lon="8.8444411"><ele>208.0</ele><time>2026-04-16T14:15:00.999Z</time></trkpt><trkpt lat="44.7354455" lon="8.8443967"><ele>208.0</ele><time>2026-04-16T14:15:01.999Z</time></trkpt><trkpt lat="44.7352783" lon="8.8443511"><ele>208.0</ele><time>2026-04-16T14:15:02.999Z</time></trkpt><trkpt lat="44.7351074" lon="8.844304"><ele>209.66666666666666</ele><time>2026-04-16T14:15:03.999Z</time></trkpt><trkpt lat="44.7349312" lon="8.8442554"><ele>211.33333333333331</ele><time>2026-04-16T14:15:04.999Z</time></trkpt><trkpt lat="44.7347696" lon="8.8442078"><ele>213.0</ele><time>2026-04-16T14:15:05.999Z</time></trkpt><trkpt lat="44.7346183" lon="8.8441568"><ele>213.0</ele><time>2026-04-16T14:15:06.999Z</time></trkpt><trkpt lat="44.7344652" lon="8.8441042"><ele>213.0</ele><time>2026-04-16T14:15:07.999Z</time></trkpt><trkpt lat="44.7343271" lon="8.8440646"><ele>213.0</ele><time>2026-04-16T14:15:08.999Z</time></trkpt><trkpt lat="44.7341978" lon="8.8440236"><ele>213.0</ele><time>2026-04-16T14:15:09.999Z</time></trkpt><trkpt lat="44.7340644" lon="8.8439845"><ele>214.25</ele><time>2026-04-16T14:15:10.999Z</time></trkpt><trkpt lat="44.7339467" lon="8.8439718"><ele>215.5</ele><time>2026-04-16T14:15:11.999Z</time></trkpt><trkpt lat="44.733821" lon="8.8440024"><ele>216.75</ele><time>2026-04-16T14:15:12.999Z</time></trkpt><trkpt lat="44.733705" lon="8.8440748"><ele>218.0</ele><time>2026-04-16T14:15:13.999Z</time></trkpt><trkpt lat="44.7336001" lon="8.8441897"><ele>217.5</ele><time>2026-04-16T14:15:14.999Z</time></trkpt><trkpt lat="44.7335078" lon="8.8443381"><ele>217.0</ele><time>2026-04-16T14:15:15.999Z</time></trkpt><trkpt lat="44.7334188" lon="8.8445023"><ele>216.5</ele><time>2026-04-16T14:15:16.999Z</time></trkpt><trkpt lat="44.7333232" lon="8.8446805"><ele>216.0</ele><time>2026-04-16T14:15:17.999Z</time></trkpt><trkpt lat="44.7332306" lon="8.8448687"><ele>216.0</ele><time>2026-04-16T14:15:18.999Z</time></trkpt><trkpt lat="44.7331371" lon="8.8450626"><ele>216.0</ele><time>2026-04-16T14:15:19.999Z</time></trkpt><trkpt lat="44.7330427" lon="8.8452569"><ele>216.0</ele><time>2026-04-16T14:15:20.999Z</time></trkpt><trkpt lat="44.7329488" lon="8.8454501"><ele>215.33333333333331</ele><time>2026-04-16T14:15:21.999Z</time></trkpt><trkpt lat="44.7328533" lon="8.8456438"><ele>214.66666666666666</ele><time>2026-04-16T14:15:22.999Z</time></trkpt><trkpt lat="44.732754" lon="8.8458429"><ele>214.0</ele><time>2026-04-16T14:15:23.999Z</time></trkpt><trkpt lat="44.7326537" lon="8.8460475"><ele>214.0</ele><time>2026-04-16T14:15:24.999Z</time></trkpt><trkpt lat="44.7325542" lon="8.8462603"><ele>214.0</ele><time>2026-04-16T14:15:26.119Z</time></trkpt><trkpt lat="44.732366" lon="8.8466599"><ele>214.0</ele><time>2026-04-16T14:15:27.999Z</time></trkpt><trkpt lat="44.7322677" lon="8.8468637"><ele>214.0</ele><time>2026-04-16T14:15:28.999Z</time></trkpt><trkpt lat="44.7321716" lon="8.8470622"><ele>214.0</ele><time>2026-04-16T14:15:29.999Z</time></trkpt><trkpt lat="44.7320726" lon="8.8472647"><ele>214.0</ele><time>2026-04-16T14:15:31.11Z</time></trkpt><trkpt lat="44.7319127" lon="8.8476083"><ele>214.0</ele><time>2026-04-16T14:15:32.999Z</time></trkpt><trkpt lat="44.7317635" lon="8.8479177"><ele>214.25</ele><time>2026-04-16T14:15:33.999Z</time></trkpt><trkpt lat="44.7316585" lon="8.8481384"><ele>214.5</ele><time>2026-04-16T14:15:34.999Z</time></trkpt><trkpt lat="44.7315616" lon="8.8483373"><ele>214.75</ele><time>2026-04-16T14:15:35.999Z</time></trkpt><trkpt lat="44.7315161" lon="8.8484198"><ele>215.0</ele><time>2026-04-16T14:15:36.999Z</time></trkpt><trkpt lat="44.7313863" lon="8.848672"><ele>215.0</ele><time>2026-04-16T14:15:37.999Z</time></trkpt><trkpt lat="44.7312958" lon="8.8488575"><ele>215.0</ele><time>2026-04-16T14:15:38.999Z</time></trkpt><trkpt lat="44.7311996" lon="8.8490507"><ele>215.0</ele><time>2026-04-16T14:15:39.999Z</time></trkpt><trkpt lat="44.7311053" lon="8.8492358"><ele>215.33333333333334</ele><time>2026-04-16T14:15:40.999Z</time></trkpt><trkpt lat="44.7310142" lon="8.849413"><ele>215.66666666666669</ele><time>2026-04-16T14:15:41.999Z</time></trkpt><trkpt lat="44.7309282" lon="8.8495859"><ele>216.0</ele><time>2026-04-16T14:15:42.999Z</time></trkpt><trkpt lat="44.7308455" lon="8.849757"><ele>216.0</ele><time>2026-04-16T14:15:43.999Z</time></trkpt><trkpt lat="44.7307743" lon="8.8499224"><ele>216.00000000000003</ele><time>2026-04-16T14:15:44.999Z</time></trkpt><trkpt lat="44.7307243" lon="8.8500664"><ele>216.00000000000003</ele><time>2026-04-16T14:15:45.999Z</time></trkpt><trkpt lat="44.7306839" lon="8.8502022"><ele>216.0</ele><time>2026-04-16T14:15:46.999Z</time></trkpt><trkpt lat="44.7306557" lon="8.850317"><ele>216.0</ele><time>2026-04-16T14:15:47.999Z</time></trkpt><trkpt lat="44.7306324" lon="8.8504156"><ele>215.66666666666666</ele><time>2026-04-16T14:15:48.999Z</time></trkpt><trkpt lat="44.7305978" lon="8.8505435"><ele>215.33333333333331</ele><time>2026-04-16T14:15:50.999Z</time></trkpt><trkpt lat="44.7305593" lon="8.8506412"><ele>215.0</ele><time>2026-04-16T14:15:53.999Z</time></trkpt><trkpt lat="44.7305157" lon="8.8507197"><ele>214.66666666666666</ele><time>2026-04-16T14:16:05.999Z</time></trkpt><trkpt lat="44.7304505" lon="8.850759"><ele>214.33333333333331</ele><time>2026-04-16T14:16:09.999Z</time></trkpt><trkpt lat="44.7303802" lon="8.8507709"><ele>214.0</ele><time>2026-04-16T14:16:12.999Z</time></trkpt><trkpt lat="44.7303016" lon="8.8507526"><ele>214.49999999999997</ele><time>2026-04-16T14:16:19.999Z</time></trkpt><trkpt lat="44.7301942" lon="8.8506995"><ele>215.0</ele><time>2026-04-16T14:16:21.999Z</time></trkpt><trkpt lat="44.7301265" lon="8.850676"><ele>215.5</ele><time>2026-04-16T14:16:22.999Z</time></trkpt><trkpt lat="44.7300483" lon="8.8506684"><ele>216.0</ele><time>2026-04-16T14:16:23.999Z</time></trkpt><trkpt lat="44.7299661" lon="8.8506945"><ele>216.49999999999997</ele><time>2026-04-16T14:16:24.999Z</time></trkpt><trkpt lat="44.729888" lon="8.8507515"><ele>217.0</ele><time>2026-04-16T14:16:25.999Z</time></trkpt><trkpt lat="44.7298061" lon="8.8508162"><ele>217.0</ele><time>2026-04-16T14:16:26.999Z</time></trkpt><trkpt lat="44.7297241" lon="8.8508893"><ele>217.0</ele><time>2026-04-16T14:16:27.999Z</time></trkpt><trkpt lat="44.7296483" lon="8.8509548"><ele>217.0</ele><time>2026-04-16T14:16:28.999Z</time></trkpt><trkpt lat="44.7295841" lon="8.8510141"><ele>217.0</ele><time>2026-04-16T14:16:29.999Z</time></trkpt><trkpt lat="44.7294987" lon="8.8511239"><ele>217.0</ele><time>2026-04-16T14:16:31.999Z</time></trkpt><trkpt lat="44.7294436" lon="8.8512556"><ele>216.83333333333331</ele><time>2026-04-16T14:16:33.999Z</time></trkpt><trkpt lat="44.7293943" lon="8.8514245"><ele>216.66666666666666</ele><time>2026-04-16T14:16:35.999Z</time></trkpt><trkpt lat="44.7293658" lon="8.851518"><ele>216.5</ele><time>2026-04-16T14:16:36.999Z</time></trkpt><trkpt lat="44.729336" lon="8.8516171"><ele>216.33333333333331</ele><time>2026-04-16T14:16:37.999Z</time></trkpt><trkpt lat="44.729304" lon="8.8517174"><ele>216.16666666666666</ele><time>2026-04-16T14:16:38.999Z</time></trkpt><trkpt lat="44.7292777" lon="8.8518015"><ele>216.0</ele><time>2026-04-16T14:16:39.999Z</time></trkpt><trkpt lat="44.7292382" lon="8.8519315"><ele>215.8</ele><time>2026-04-16T14:16:41.999Z</time></trkpt><trkpt lat="44.7292071" lon="8.8520287"><ele>215.60000000000002</ele><time>2026-04-16T14:16:43.999Z</time></trkpt><trkpt lat="44.7291532" lon="8.8521192"><ele>215.4</ele><time>2026-04-16T14:16:45.999Z</time></trkpt><trkpt lat="44.7290792" lon="8.8522265"><ele>215.2</ele><time>2026-04-16T14:16:47.999Z</time></trkpt><trkpt lat="44.7289975" lon="8.85235"><ele>215.0</ele><time>2026-04-16T14:16:49.999Z</time></trkpt><trkpt lat="44.7289489" lon="8.8524153"><ele>215.0</ele><time>2026-04-16T14:16:50.999Z</time></trkpt><trkpt lat="44.7288662" lon="8.8525248"><ele>215.0</ele><time>2026-04-16T14:16:52.999Z</time></trkpt><trkpt lat="44.72881" lon="8.8526009"><ele>215.0</ele><time>2026-04-16T14:16:54.999Z</time></trkpt><trkpt lat="44.7287672" lon="8.8526661"><ele>215.0</ele><time>2026-04-16T14:16:56.999Z</time></trkpt><trkpt lat="44.7287153" lon="8.8527851"><ele>215.0</ele><time>2026-04-16T14:16:58.999Z</time></trkpt><trkpt lat="44.7286597" lon="8.852936"><ele>215.0</ele><time>2026-04-16T14:17:00.999Z</time></trkpt><trkpt lat="44.728602" lon="8.8530873"><ele>215.0</ele><time>2026-04-16T14:17:02.999Z</time></trkpt><trkpt lat="44.728552" lon="8.8532255"><ele>215.0</ele><time>2026-04-16T14:17:04.999Z</time></trkpt><trkpt lat="44.7284991" lon="8.8533638"><ele>215.0</ele><time>2026-04-16T14:17:06.999Z</time></trkpt><trkpt lat="44.7284486" lon="8.8534713"><ele>215.0</ele><time>2026-04-16T14:17:08.999Z</time></trkpt><trkpt lat="44.72838" lon="8.8535589"><ele>215.50000000000003</ele><time>2026-04-16T14:17:10.999Z</time></trkpt><trkpt lat="44.7282819" lon="8.8536512"><ele>216.0</ele><time>2026-04-16T14:17:12.999Z</time></trkpt><trkpt lat="44.7281913" lon="8.8537169"><ele>216.5</ele><time>2026-04-16T14:17:14.999Z</time></trkpt><trkpt lat="44.7281232" lon="8.8537691"><ele>217.0</ele><time>2026-04-16T14:17:16.999Z</time></trkpt><trkpt lat="44.728063" lon="8.853816"><ele>217.50000000000003</ele><time>2026-04-16T14:17:18.999Z</time></trkpt><trkpt lat="44.728003" lon="8.8538621"><ele>218.0</ele><time>2026-04-16T14:17:20.999Z</time></trkpt><trkpt lat="44.7279132" lon="8.8539379"><ele>218.0</ele><time>2026-04-16T14:17:22.999Z</time></trkpt><trkpt lat="44.7278491" lon="8.8540008"><ele>218.0</ele><time>2026-04-16T14:17:23.999Z</time></trkpt><trkpt lat="44.7277647" lon="8.8540683"><ele>218.0</ele><time>2026-04-16T14:17:24.999Z</time></trkpt><trkpt lat="44.7276693" lon="8.8541414"><ele>218.0</ele><time>2026-04-16T14:17:25.999Z</time></trkpt><trkpt lat="44.7275623" lon="8.8542281"><ele>218.0</ele><time>2026-04-16T14:17:26.999Z</time></trkpt><trkpt lat="44.7274508" lon="8.8543115"><ele>217.75</ele><time>2026-04-16T14:17:27.999Z</time></trkpt><trkpt lat="44.7273399" lon="8.8543979"><ele>217.5</ele><time>2026-04-16T14:17:28.999Z</time></trkpt><trkpt lat="44.7272429" lon="8.854478"><ele>217.25</ele><time>2026-04-16T14:17:29.999Z</time></trkpt><trkpt lat="44.727153" lon="8.8545507"><ele>217.0</ele><time>2026-04-16T14:17:30.999Z</time></trkpt><trkpt lat="44.7270533" lon="8.8546233"><ele>217.0</ele><time>2026-04-16T14:17:31.999Z</time></trkpt><trkpt lat="44.7269564" lon="8.8546862"><ele>217.0</ele><time>2026-04-16T14:17:32.999Z</time></trkpt><trkpt lat="44.7268576" lon="8.8547616"><ele>217.0</ele><time>2026-04-16T14:17:33.999Z</time></trkpt><trkpt lat="44.7267783" lon="8.8548245"><ele>217.0</ele><time>2026-04-16T14:17:34.999Z</time></trkpt><trkpt lat="44.7267143" lon="8.8548729"><ele>217.0</ele><time>2026-04-16T14:17:35.999Z</time></trkpt><trkpt lat="44.7266524" lon="8.8549202"><ele>217.83333333333331</ele><time>2026-04-16T14:17:36.999Z</time></trkpt><trkpt lat="44.7265976" lon="8.8549648"><ele>218.66666666666666</ele><time>2026-04-16T14:17:37.999Z</time></trkpt><trkpt lat="44.7265404" lon="8.8550104"><ele>219.5</ele><time>2026-04-16T14:17:38.999Z</time></trkpt><trkpt lat="44.7264722" lon="8.8550661"><ele>220.33333333333331</ele><time>2026-04-16T14:17:40.124Z</time></trkpt><trkpt lat="44.7263363" lon="8.8551756"><ele>221.16666666666666</ele><time>2026-04-16T14:17:41.999Z</time></trkpt><trkpt lat="44.7262694" lon="8.8552294"><ele>222.0</ele><time>2026-04-16T14:17:42.999Z</time></trkpt><trkpt lat="44.7262006" lon="8.8552834"><ele>222.0</ele><time>2026-04-16T14:17:43.999Z</time></trkpt><trkpt lat="44.7261294" lon="8.8553412"><ele>222.0</ele><time>2026-04-16T14:17:44.999Z</time></trkpt><trkpt lat="44.7260674" lon="8.8553925"><ele>222.0</ele><time>2026-04-16T14:17:46.12Z</time></trkpt><trkpt lat="44.7259519" lon="8.8554851"><ele>222.0</ele><time>2026-04-16T14:17:47.999Z</time></trkpt><trkpt lat="44.7258674" lon="8.8555541"><ele>222.0</ele><time>2026-04-16T14:17:50.117Z</time></trkpt><trkpt lat="44.7257952" lon="8.85561"><ele>222.5</ele><time>2026-04-16T14:17:51.999Z</time></trkpt><trkpt lat="44.725727" lon="8.8556734"><ele>223.0</ele><time>2026-04-16T14:17:53.999Z</time></trkpt><trkpt lat="44.7256654" lon="8.855721"><ele>223.5</ele><time>2026-04-16T14:17:55.999Z</time></trkpt><trkpt lat="44.725598" lon="8.8557711"><ele>224.0</ele><time>2026-04-16T14:18:00.999Z</time></trkpt><trkpt lat="44.7255238" lon="8.8558382"><ele>224.5</ele><time>2026-04-16T14:18:09.999Z</time></trkpt><trkpt lat="44.7254608" lon="8.855878"><ele>225.0</ele><time>2026-04-16T14:18:11.999Z</time></trkpt><trkpt lat="44.7253857" lon="8.8559399"><ele>224.25</ele><time>2026-04-16T14:18:13.999Z</time></trkpt><trkpt lat="44.7252925" lon="8.8560153"><ele>223.5</ele><time>2026-04-16T14:18:15.999Z</time></trkpt><trkpt lat="44.7251891" lon="8.8560949"><ele>222.75</ele><time>2026-04-16T14:18:17.999Z</time></trkpt><trkpt lat="44.7250791" lon="8.8561834"><ele>222.0</ele><time>2026-04-16T14:18:19.999Z</time></trkpt><trkpt lat="44.7249764" lon="8.8562611"><ele>222.0</ele><time>2026-04-16T14:18:21.999Z</time></trkpt><trkpt lat="44.7248879" lon="8.8563347"><ele>222.0</ele><time>2026-04-16T14:18:23.999Z</time></trkpt><trkpt lat="44.7247855" lon="8.8564143"><ele>222.0</ele><time>2026-04-16T14:18:25.999Z</time></trkpt><trkpt lat="44.7247237" lon="8.8564674"><ele>222.0</ele><time>2026-04-16T14:18:26.999Z</time></trkpt><trkpt lat="44.7246558" lon="8.8565204"><ele>222.0</ele><time>2026-04-16T14:18:27.999Z</time></trkpt><trkpt lat="44.724598" lon="8.8565693"><ele>222.0</ele><time>2026-04-16T14:18:28.999Z</time></trkpt><trkpt lat="44.7244964" lon="8.8566461"><ele>222.0</ele><time>2026-04-16T14:18:30.999Z</time></trkpt><trkpt lat="44.7244296" lon="8.8567039"><ele>222.0</ele><time>2026-04-16T14:18:32.999Z</time></trkpt><trkpt lat="44.7243718" lon="8.856756"><ele>222.0</ele><time>2026-04-16T14:18:56.999Z</time></trkpt><trkpt lat="44.7242995" lon="8.856815"><ele>222.0</ele><time>2026-04-16T14:18:59.999Z</time></trkpt><trkpt lat="44.7242209" lon="8.8568747"><ele>222.0</ele><time>2026-04-16T14:19:01.999Z</time></trkpt><trkpt lat="44.724124" lon="8.856953"><ele>222.0</ele><time>2026-04-16T14:19:03.999Z</time></trkpt><trkpt lat="44.7240291" lon="8.8570172"><ele>222.0</ele><time>2026-04-16T14:19:05.999Z</time></trkpt><trkpt lat="44.7239338" lon="8.8570775"><ele>222.0</ele><time>2026-04-16T14:19:07.999Z</time></trkpt><trkpt lat="44.7238279" lon="8.8571629"><ele>222.0</ele><time>2026-04-16T14:19:09.999Z</time></trkpt><trkpt lat="44.7237395" lon="8.8572338"><ele>222.0</ele><time>2026-04-16T14:19:11.999Z</time></trkpt><trkpt lat="44.7236433" lon="8.8573057"><ele>222.0</ele><time>2026-04-16T14:19:13.999Z</time></trkpt><trkpt lat="44.7235356" lon="8.8573816"><ele>222.0</ele><time>2026-04-16T14:19:15.999Z</time></trkpt><trkpt lat="44.7234459" lon="8.8574618"><ele>222.0</ele><time>2026-04-16T14:19:17.999Z</time></trkpt><trkpt lat="44.7233532" lon="8.8575483"><ele>222.0</ele><time>2026-04-16T14:19:19.999Z</time></trkpt><trkpt lat="44.7232896" lon="8.8576047"><ele>222.0</ele><time>2026-04-16T14:19:20.999Z</time></trkpt><trkpt lat="44.7232289" lon="8.8576544"><ele>222.0</ele><time>2026-04-16T14:19:21.999Z</time></trkpt><trkpt lat="44.7231448" lon="8.8577301"><ele>222.0</ele><time>2026-04-16T14:19:23.999Z</time></trkpt><trkpt lat="44.7230852" lon="8.8577862"><ele>222.0</ele><time>2026-04-16T14:19:27.999Z</time></trkpt><trkpt lat="44.7230099" lon="8.8578156"><ele>222.0</ele><time>2026-04-16T14:19:35.999Z</time></trkpt><trkpt lat="44.7229335" lon="8.8578623"><ele>222.0</ele><time>2026-04-16T14:19:38.999Z</time></trkpt><trkpt lat="44.7228572" lon="8.8579276"><ele>222.0</ele><time>2026-04-16T14:19:40.999Z</time></trkpt><trkpt lat="44.7227804" lon="8.8579748"><ele>222.0</ele><time>2026-04-16T14:19:42.999Z</time></trkpt><trkpt lat="44.7226938" lon="8.8580385"><ele>222.39999999999998</ele><time>2026-04-16T14:19:44.999Z</time></trkpt><trkpt lat="44.7226087" lon="8.8580954"><ele>222.79999999999998</ele><time>2026-04-16T14:19:46.999Z</time></trkpt><trkpt lat="44.7225224" lon="8.8581598"><ele>223.2</ele><time>2026-04-16T14:19:48.999Z</time></trkpt><trkpt lat="44.7224484" lon="8.8582142"><ele>223.6</ele><time>2026-04-16T14:19:50.999Z</time></trkpt><trkpt lat="44.7223513" lon="8.8582733"><ele>224.0</ele><time>2026-04-16T14:19:52.999Z</time></trkpt><trkpt lat="44.7222484" lon="8.8583173"><ele>224.00000000000003</ele><time>2026-04-16T14:19:54.999Z</time></trkpt><trkpt lat="44.7221873" lon="8.858339"><ele>224.0</ele><time>2026-04-16T14:19:55.999Z</time></trkpt><trkpt lat="44.7221264" lon="8.8583634"><ele>224.0</ele><time>2026-04-16T14:19:56.999Z</time></trkpt><trkpt lat="44.7220083" lon="8.8584088"><ele>224.0</ele><time>2026-04-16T14:19:58.999Z</time></trkpt><trkpt lat="44.721942" lon="8.8584267"><ele>224.00000000000003</ele><time>2026-04-16T14:19:59.999Z</time></trkpt><trkpt lat="44.7218263" lon="8.8584816"><ele>224.0</ele><time>2026-04-16T14:20:01.999Z</time></trkpt><trkpt lat="44.7217008" lon="8.8585117"><ele>223.5</ele><time>2026-04-16T14:20:03.999Z</time></trkpt><trkpt lat="44.7215915" lon="8.8585568"><ele>223.0</ele><time>2026-04-16T14:20:05.999Z</time></trkpt><trkpt lat="44.7214807" lon="8.8585859"><ele>222.5</ele><time>2026-04-16T14:20:07.999Z</time></trkpt><trkpt lat="44.7213723" lon="8.858604"><ele>222.0</ele><time>2026-04-16T14:20:09.999Z</time></trkpt><trkpt lat="44.7212577" lon="8.8586559"><ele>222.0</ele><time>2026-04-16T14:20:11.999Z</time></trkpt><trkpt lat="44.7211804" lon="8.858684"><ele>222.0</ele><time>2026-04-16T14:20:12.999Z</time></trkpt><trkpt lat="44.7210956" lon="8.8587144"><ele>222.0</ele><time>2026-04-16T14:20:13.999Z</time></trkpt><trkpt lat="44.7210077" lon="8.8587512"><ele>222.0</ele><time>2026-04-16T14:20:14.999Z</time></trkpt><trkpt lat="44.7209189" lon="8.8587775"><ele>222.0</ele><time>2026-04-16T14:20:15.999Z</time></trkpt><trkpt lat="44.7208254" lon="8.8588075"><ele>222.0</ele><time>2026-04-16T14:20:16.999Z</time></trkpt><trkpt lat="44.7207361" lon="8.8588364"><ele>221.39999999999998</ele><time>2026-04-16T14:20:17.999Z</time></trkpt><trkpt lat="44.7206418" lon="8.8588619"><ele>220.79999999999998</ele><time>2026-04-16T14:20:18.999Z</time></trkpt><trkpt lat="44.720543" lon="8.8588814"><ele>220.2</ele><time>2026-04-16T14:20:19.999Z</time></trkpt><trkpt lat="44.7204507" lon="8.858902"><ele>219.6</ele><time>2026-04-16T14:20:20.999Z</time></trkpt><trkpt lat="44.7203598" lon="8.8589197"><ele>219.0</ele><time>2026-04-16T14:20:21.999Z</time></trkpt><trkpt lat="44.7202596" lon="8.8589393"><ele>220.0</ele><time>2026-04-16T14:20:22.999Z</time></trkpt><trkpt lat="44.7201588" lon="8.858963"><ele>220.99999999999997</ele><time>2026-04-16T14:20:23.999Z</time></trkpt><trkpt lat="44.7200621" lon="8.8590001"><ele>221.99999999999997</ele><time>2026-04-16T14:20:24.999Z</time></trkpt><trkpt lat="44.7199556" lon="8.8590196"><ele>223.0</ele><time>2026-04-16T14:20:25.999Z</time></trkpt><trkpt lat="44.7198543" lon="8.859034"><ele>224.0</ele><time>2026-04-16T14:20:26.999Z</time></trkpt><trkpt lat="44.7197511" lon="8.8590811"><ele>224.0</ele><time>2026-04-16T14:20:27.999Z</time></trkpt><trkpt lat="44.7196539" lon="8.8591376"><ele>223.99999999999997</ele><time>2026-04-16T14:20:28.999Z</time></trkpt><trkpt lat="44.71959" lon="8.8591491"><ele>223.99999999999997</ele><time>2026-04-16T14:20:29.999Z</time></trkpt><trkpt lat="44.7194796" lon="8.8591703"><ele>224.0</ele><time>2026-04-16T14:20:30.999Z</time></trkpt><trkpt lat="44.7193641" lon="8.8591936"><ele>224.0</ele><time>2026-04-16T14:20:31.999Z</time></trkpt><trkpt lat="44.7192406" lon="8.8592145"><ele>224.79999999999998</ele><time>2026-04-16T14:20:32.999Z</time></trkpt><trkpt lat="44.7191463" lon="8.859263"><ele>225.59999999999997</ele><time>2026-04-16T14:20:33.999Z</time></trkpt><trkpt lat="44.7190421" lon="8.8593103"><ele>226.4</ele><time>2026-04-16T14:20:34.999Z</time></trkpt><trkpt lat="44.7189249" lon="8.859336"><ele>227.2</ele><time>2026-04-16T14:20:35.999Z</time></trkpt><trkpt lat="44.7188092" lon="8.8593632"><ele>228.0</ele><time>2026-04-16T14:20:36.999Z</time></trkpt><trkpt lat="44.7186958" lon="8.8593883"><ele>224.5</ele><time>2026-04-16T14:20:37.999Z</time></trkpt><trkpt lat="44.71856" lon="8.8594306"><ele>221.0</ele><time>2026-04-16T14:20:38.999Z</time></trkpt><trkpt lat="44.7184383" lon="8.8594834"><ele>217.5</ele><time>2026-04-16T14:20:39.999Z</time></trkpt><trkpt lat="44.7182993" lon="8.8595546"><ele>214.0</ele><time>2026-04-16T14:20:40.999Z</time></trkpt><trkpt lat="44.718181" lon="8.859654"><ele>214.0</ele><time>2026-04-16T14:20:41.999Z</time></trkpt><trkpt lat="44.7180486" lon="8.8597541"><ele>214.0</ele><time>2026-04-16T14:20:42.999Z</time></trkpt><trkpt lat="44.717906" lon="8.8598684"><ele>214.0</ele><time>2026-04-16T14:20:43.999Z</time></trkpt><trkpt lat="44.7177612" lon="8.8599803"><ele>212.33333333333331</ele><time>2026-04-16T14:20:44.999Z</time></trkpt><trkpt lat="44.71762" lon="8.8600856"><ele>210.66666666666669</ele><time>2026-04-16T14:20:45.999Z</time></trkpt><trkpt lat="44.717469" lon="8.8601906"><ele>209.0</ele><time>2026-04-16T14:20:46.999Z</time></trkpt><trkpt lat="44.7173037" lon="8.8602831"><ele>209.0</ele><time>2026-04-16T14:20:47.999Z</time></trkpt><trkpt lat="44.7171265" lon="8.8603767"><ele>209.0</ele><time>2026-04-16T14:20:48.999Z</time></trkpt><trkpt lat="44.7169498" lon="8.860464"><ele>209.0</ele><time>2026-04-16T14:20:49.999Z</time></trkpt><trkpt lat="44.7167597" lon="8.8605443"><ele>214.0</ele><time>2026-04-16T14:20:50.999Z</time></trkpt><trkpt lat="44.7165599" lon="8.8606224"><ele>219.0</ele><time>2026-04-16T14:20:51.999Z</time></trkpt><trkpt lat="44.7161572" lon="8.8607535"><ele>223.0</ele><time>2026-04-16T14:20:53.999Z</time></trkpt><trkpt lat="44.715954" lon="8.8608042"><ele>227.0</ele><time>2026-04-16T14:20:54.999Z</time></trkpt><trkpt lat="44.7157423" lon="8.8608475"><ele>231.0</ele><time>2026-04-16T14:20:55.999Z</time></trkpt><trkpt lat="44.7155194" lon="8.8608824"><ele>231.0</ele><time>2026-04-16T14:20:56.999Z</time></trkpt><trkpt lat="44.7153084" lon="8.8609107"><ele>231.0</ele><time>2026-04-16T14:20:57.999Z</time></trkpt><trkpt lat="44.7150894" lon="8.860931"><ele>231.0</ele><time>2026-04-16T14:20:58.999Z</time></trkpt><trkpt lat="44.7148618" lon="8.8609385"><ele>231.0</ele><time>2026-04-16T14:20:59.999Z</time></trkpt><trkpt lat="44.7146445" lon="8.8609331"><ele>231.0</ele><time>2026-04-16T14:21:00.999Z</time></trkpt><trkpt lat="44.7144266" lon="8.8609267"><ele>231.0</ele><time>2026-04-16T14:21:01.999Z</time></trkpt><trkpt lat="44.7142021" lon="8.860902"><ele>232.5</ele><time>2026-04-16T14:21:02.999Z</time></trkpt><trkpt lat="44.7139769" lon="8.8608552"><ele>234.0</ele><time>2026-04-16T14:21:03.999Z</time></trkpt><trkpt lat="44.7137538" lon="8.8607958"><ele>231.66666666666669</ele><time>2026-04-16T14:21:04.999Z</time></trkpt><trkpt lat="44.7135494" lon="8.860737"><ele>229.33333333333334</ele><time>2026-04-16T14:21:05.999Z</time></trkpt><trkpt lat="44.7133439" lon="8.8606829"><ele>227.0</ele><time>2026-04-16T14:21:06.999Z</time></trkpt><trkpt lat="44.7131442" lon="8.8606327"><ele>227.0</ele><time>2026-04-16T14:21:07.999Z</time></trkpt><trkpt lat="44.7129559" lon="8.860591"><ele>227.0</ele><time>2026-04-16T14:21:08.999Z</time></trkpt><trkpt lat="44.7127771" lon="8.8605627"><ele>227.0</ele><time>2026-04-16T14:21:09.999Z</time></trkpt><trkpt lat="44.7126056" lon="8.8605475"><ele>226.0</ele><time>2026-04-16T14:21:10.999Z</time></trkpt><trkpt lat="44.7124389" lon="8.8605378"><ele>225.0</ele><time>2026-04-16T14:21:11.999Z</time></trkpt><trkpt lat="44.7122722" lon="8.8605303"><ele>224.0</ele><time>2026-04-16T14:21:12.999Z</time></trkpt><trkpt lat="44.7121199" lon="8.8605294"><ele>224.0</ele><time>2026-04-16T14:21:13.999Z</time></trkpt><trkpt lat="44.7119744" lon="8.8605274"><ele>224.0</ele><time>2026-04-16T14:21:14.999Z</time></trkpt><trkpt lat="44.7118403" lon="8.8605277"><ele>224.0</ele><time>2026-04-16T14:21:15.999Z</time></trkpt><trkpt lat="44.7117228" lon="8.8605292"><ele>224.0</ele><time>2026-04-16T14:21:16.999Z</time></trkpt><trkpt lat="44.7116133" lon="8.8605369"><ele>223.83333333333334</ele><time>2026-04-16T14:21:17.999Z</time></trkpt><trkpt lat="44.7115075" lon="8.8605327"><ele>223.66666666666669</ele><time>2026-04-16T14:21:18.999Z</time></trkpt><trkpt lat="44.7114107" lon="8.8605139"><ele>223.5</ele><time>2026-04-16T14:21:19.999Z</time></trkpt><trkpt lat="44.7113191" lon="8.8604975"><ele>223.33333333333331</ele><time>2026-04-16T14:21:20.999Z</time></trkpt><trkpt lat="44.7112477" lon="8.8605052"><ele>223.16666666666666</ele><time>2026-04-16T14:21:21.999Z</time></trkpt><trkpt lat="44.7111809" lon="8.8605426"><ele>223.0</ele><time>2026-04-16T14:21:22.999Z</time></trkpt><trkpt lat="44.7111146" lon="8.8606015"><ele>223.0</ele><time>2026-04-16T14:21:23.999Z</time></trkpt><trkpt lat="44.7110372" lon="8.8606568"><ele>223.0</ele><time>2026-04-16T14:21:24.999Z</time></trkpt><trkpt lat="44.7109438" lon="8.860706"><ele>223.0</ele><time>2026-04-16T14:21:25.999Z</time></trkpt><trkpt lat="44.7108364" lon="8.8607559"><ele>223.0</ele><time>2026-04-16T14:21:26.999Z</time></trkpt><trkpt lat="44.7107243" lon="8.8608038"><ele>223.0</ele><time>2026-04-16T14:21:27.999Z</time></trkpt><trkpt lat="44.7106047" lon="8.8608451"><ele>223.0</ele><time>2026-04-16T14:21:28.999Z</time></trkpt><trkpt lat="44.7104768" lon="8.8608993"><ele>223.0</ele><time>2026-04-16T14:21:29.999Z</time></trkpt><trkpt lat="44.7103442" lon="8.8609528"><ele>223.0</ele><time>2026-04-16T14:21:30.999Z</time></trkpt><trkpt lat="44.7102072" lon="8.8610087"><ele>223.0</ele><time>2026-04-16T14:21:31.999Z</time></trkpt><trkpt lat="44.7100708" lon="8.8610622"><ele>222.0</ele><time>2026-04-16T14:21:32.999Z</time></trkpt><trkpt lat="44.7099324" lon="8.8611155"><ele>221.0</ele><time>2026-04-16T14:21:33.999Z</time></trkpt><trkpt lat="44.7097854" lon="8.8611709"><ele>220.0</ele><time>2026-04-16T14:21:35.106Z</time></trkpt><trkpt lat="44.709451" lon="8.8613076"><ele>220.33333333333331</ele><time>2026-04-16T14:21:36.999Z</time></trkpt><trkpt lat="44.7092893" lon="8.8613724"><ele>220.66666666666669</ele><time>2026-04-16T14:21:37.999Z</time></trkpt><trkpt lat="44.7091315" lon="8.8614279"><ele>221.0</ele><time>2026-04-16T14:21:38.999Z</time></trkpt><trkpt lat="44.7089786" lon="8.8614879"><ele>221.0</ele><time>2026-04-16T14:21:39.999Z</time></trkpt><trkpt lat="44.7088512" lon="8.8615408"><ele>221.00000000000003</ele><time>2026-04-16T14:21:40.999Z</time></trkpt><trkpt lat="44.7087406" lon="8.8615862"><ele>221.00000000000003</ele><time>2026-04-16T14:21:41.999Z</time></trkpt><trkpt lat="44.708646" lon="8.8616134"><ele>221.0</ele><time>2026-04-16T14:21:42.999Z</time></trkpt><trkpt lat="44.7085627" lon="8.8616174"><ele>221.0</ele><time>2026-04-16T14:21:43.999Z</time></trkpt><trkpt lat="44.7084829" lon="8.8615956"><ele>221.20000000000002</ele><time>2026-04-16T14:21:45.103Z</time></trkpt><trkpt lat="44.7084135" lon="8.8615613"><ele>221.40000000000003</ele><time>2026-04-16T14:21:46.123Z</time></trkpt><trkpt lat="44.7082709" lon="8.8615381"><ele>221.6</ele><time>2026-04-16T14:21:47.999Z</time></trkpt><trkpt lat="44.7081644" lon="8.8616285"><ele>221.8</ele><time>2026-04-16T14:21:49.999Z</time></trkpt><trkpt lat="44.7081368" lon="8.8617145"><ele>222.0</ele><time>2026-04-16T14:21:50.999Z</time></trkpt><trkpt lat="44.7081305" lon="8.8618193"><ele>221.39999999999998</ele><time>2026-04-16T14:21:51.999Z</time></trkpt><trkpt lat="44.7081317" lon="8.8619277"><ele>220.79999999999998</ele><time>2026-04-16T14:21:52.999Z</time></trkpt><trkpt lat="44.7081124" lon="8.8620308"><ele>220.2</ele><time>2026-04-16T14:21:53.999Z</time></trkpt><trkpt lat="44.7080638" lon="8.8621363"><ele>219.6</ele><time>2026-04-16T14:21:54.999Z</time></trkpt><trkpt lat="44.7079847" lon="8.8622474"><ele>219.0</ele><time>2026-04-16T14:21:55.999Z</time></trkpt><trkpt lat="44.7078887" lon="8.8623589"><ele>219.0</ele><time>2026-04-16T14:21:56.999Z</time></trkpt><trkpt lat="44.707783" lon="8.8624732"><ele>219.0</ele><time>2026-04-16T14:21:57.999Z</time></trkpt><trkpt lat="44.7076648" lon="8.862595"><ele>219.0</ele><time>2026-04-16T14:21:58.999Z</time></trkpt><trkpt lat="44.7075418" lon="8.8627194"><ele>219.0</ele><time>2026-04-16T14:21:59.999Z</time></trkpt><trkpt lat="44.7074082" lon="8.8628572"><ele>219.66666666666669</ele><time>2026-04-16T14:22:00.999Z</time></trkpt><trkpt lat="44.7072806" lon="8.8629917"><ele>220.33333333333334</ele><time>2026-04-16T14:22:01.999Z</time></trkpt><trkpt lat="44.7071442" lon="8.8631328"><ele>221.0</ele><time>2026-04-16T14:22:02.999Z</time></trkpt><trkpt lat="44.7069954" lon="8.8632849"><ele>221.66666666666669</ele><time>2026-04-16T14:22:03.999Z</time></trkpt><trkpt lat="44.7068479" lon="8.8634358"><ele>222.33333333333331</ele><time>2026-04-16T14:22:04.999Z</time></trkpt><trkpt lat="44.7067057" lon="8.8635852"><ele>223.0</ele><time>2026-04-16T14:22:05.999Z</time></trkpt><trkpt lat="44.7065559" lon="8.8637415"><ele>223.0</ele><time>2026-04-16T14:22:06.999Z</time></trkpt><trkpt lat="44.7064022" lon="8.8639039"><ele>223.0</ele><time>2026-04-16T14:22:07.999Z</time></trkpt><trkpt lat="44.706244" lon="8.8640708"><ele>223.0</ele><time>2026-04-16T14:22:08.999Z</time></trkpt><trkpt lat="44.7060906" lon="8.8642305"><ele>223.66666666666666</ele><time>2026-04-16T14:22:09.999Z</time></trkpt><trkpt lat="44.7059326" lon="8.8643949"><ele>224.33333333333331</ele><time>2026-04-16T14:22:10.999Z</time></trkpt><trkpt lat="44.7057701" lon="8.8645622"><ele>225.0</ele><time>2026-04-16T14:22:11.999Z</time></trkpt><trkpt lat="44.7056147" lon="8.8647191"><ele>225.0</ele><time>2026-04-16T14:22:12.999Z</time></trkpt><trkpt lat="44.7054625" lon="8.8648747"><ele>225.0</ele><time>2026-04-16T14:22:13.999Z</time></trkpt><trkpt lat="44.7053129" lon="8.8650257"><ele>225.0</ele><time>2026-04-16T14:22:14.999Z</time></trkpt><trkpt lat="44.705159" lon="8.8651834"><ele>226.0</ele><time>2026-04-16T14:22:15.999Z</time></trkpt><trkpt lat="44.7050019" lon="8.8653438"><ele>227.0</ele><time>2026-04-16T14:22:16.999Z</time></trkpt><trkpt lat="44.7048555" lon="8.8654974"><ele>228.0</ele><time>2026-04-16T14:22:17.999Z</time></trkpt><trkpt lat="44.7047067" lon="8.8656536"><ele>228.0</ele><time>2026-04-16T14:22:18.999Z</time></trkpt><trkpt lat="44.7045566" lon="8.8658133"><ele>228.0</ele><time>2026-04-16T14:22:19.999Z</time></trkpt><trkpt lat="44.7044167" lon="8.8659598"><ele>228.0</ele><time>2026-04-16T14:22:20.999Z</time></trkpt><trkpt lat="44.7042867" lon="8.8660952"><ele>228.0</ele><time>2026-04-16T14:22:21.999Z</time></trkpt><trkpt lat="44.7041578" lon="8.8662294"><ele>228.0</ele><time>2026-04-16T14:22:22.999Z</time></trkpt><trkpt lat="44.7040283" lon="8.8663639"><ele>228.0</ele><time>2026-04-16T14:22:23.999Z</time></trkpt><trkpt lat="44.7038948" lon="8.8665042"><ele>228.0</ele><time>2026-04-16T14:22:24.999Z</time></trkpt><trkpt lat="44.703771" lon="8.8666348"><ele>228.0</ele><time>2026-04-16T14:22:25.999Z</time></trkpt><trkpt lat="44.7036424" lon="8.8667695"><ele>228.0</ele><time>2026-04-16T14:22:26.999Z</time></trkpt><trkpt lat="44.7035038" lon="8.8669132"><ele>228.66666666666669</ele><time>2026-04-16T14:22:27.999Z</time></trkpt><trkpt lat="44.703364" lon="8.867066"><ele>229.33333333333334</ele><time>2026-04-16T14:22:28.999Z</time></trkpt><trkpt lat="44.7032205" lon="8.8672209"><ele>230.0</ele><time>2026-04-16T14:22:30.107Z</time></trkpt><trkpt lat="44.7030618" lon="8.8673898"><ele>229.0</ele><time>2026-04-16T14:22:31.106Z</time></trkpt><trkpt lat="44.7027204" lon="8.8677398"><ele>228.0</ele><time>2026-04-16T14:22:32.999Z</time></trkpt><trkpt lat="44.7025453" lon="8.8679156"><ele>228.0</ele><time>2026-04-16T14:22:33.999Z</time></trkpt><trkpt lat="44.7023599" lon="8.868097"><ele>228.0</ele><time>2026-04-16T14:22:34.999Z</time></trkpt><trkpt lat="44.7021633" lon="8.8682925"><ele>228.5</ele><time>2026-04-16T14:22:35.999Z</time></trkpt><trkpt lat="44.7019678" lon="8.8684872"><ele>229.0</ele><time>2026-04-16T14:22:36.999Z</time></trkpt><trkpt lat="44.7017756" lon="8.8686811"><ele>229.0</ele><time>2026-04-16T14:22:37.999Z</time></trkpt><trkpt lat="44.7015989" lon="8.8688645"><ele>229.0</ele><time>2026-04-16T14:22:38.999Z</time></trkpt><trkpt lat="44.7014267" lon="8.8690461"><ele>229.0</ele><time>2026-04-16T14:22:39.999Z</time></trkpt><trkpt lat="44.701257" lon="8.8692243"><ele>229.0</ele><time>2026-04-16T14:22:40.999Z</time></trkpt><trkpt lat="44.7011044" lon="8.8693853"><ele>229.0</ele><time>2026-04-16T14:22:41.999Z</time></trkpt><trkpt lat="44.7009465" lon="8.8695497"><ele>229.0</ele><time>2026-04-16T14:22:42.999Z</time></trkpt><trkpt lat="44.7007887" lon="8.8697103"><ele>229.0</ele><time>2026-04-16T14:22:43.999Z</time></trkpt><trkpt lat="44.7006441" lon="8.8698582"><ele>229.0</ele><time>2026-04-16T14:22:44.999Z</time></trkpt><trkpt lat="44.7005149" lon="8.86999"><ele>229.0</ele><time>2026-04-16T14:22:45.999Z</time></trkpt><trkpt lat="44.700399" lon="8.8701125"><ele>229.0</ele><time>2026-04-16T14:22:46.999Z</time></trkpt><trkpt lat="44.7002946" lon="8.8702202"><ele>229.0</ele><time>2026-04-16T14:22:47.999Z</time></trkpt><trkpt lat="44.7001946" lon="8.8703236"><ele>229.0</ele><time>2026-04-16T14:22:48.999Z</time></trkpt><trkpt lat="44.7001074" lon="8.8704148"><ele>229.0</ele><time>2026-04-16T14:22:49.999Z</time></trkpt><trkpt lat="44.7000188" lon="8.870506"><ele>229.49999999999997</ele><time>2026-04-16T14:22:50.999Z</time></trkpt><trkpt lat="44.6999307" lon="8.8705958"><ele>230.0</ele><time>2026-04-16T14:22:51.999Z</time></trkpt><trkpt lat="44.6998599" lon="8.8706709"><ele>230.5</ele><time>2026-04-16T14:22:52.999Z</time></trkpt><trkpt lat="44.6997979" lon="8.8707358"><ele>231.0</ele><time>2026-04-16T14:22:53.999Z</time></trkpt><trkpt lat="44.6997401" lon="8.8707964"><ele>231.49999999999997</ele><time>2026-04-16T14:22:54.999Z</time></trkpt><trkpt lat="44.6996799" lon="8.8708586"><ele>232.0</ele><time>2026-04-16T14:22:55.999Z</time></trkpt><trkpt lat="44.6996212" lon="8.8709169"><ele>231.71428571428575</ele><time>2026-04-16T14:22:56.999Z</time></trkpt><trkpt lat="44.6995683" lon="8.8709705"><ele>231.42857142857144</ele><time>2026-04-16T14:22:57.999Z</time></trkpt><trkpt lat="44.6995158" lon="8.8710236"><ele>231.14285714285714</ele><time>2026-04-16T14:22:58.999Z</time></trkpt><trkpt lat="44.6994597" lon="8.871071"><ele>230.85714285714286</ele><time>2026-04-16T14:22:59.999Z</time></trkpt><trkpt lat="44.6993995" lon="8.8711108"><ele>230.57142857142856</ele><time>2026-04-16T14:23:00.999Z</time></trkpt><trkpt lat="44.699339" lon="8.8711441"><ele>230.28571428571425</ele><time>2026-04-16T14:23:01.999Z</time></trkpt><trkpt lat="44.6992701" lon="8.8711954"><ele>229.99999999999997</ele><time>2026-04-16T14:23:02.999Z</time></trkpt><trkpt lat="44.6992084" lon="8.8712717"><ele>230.8</ele><time>2026-04-16T14:23:03.999Z</time></trkpt><trkpt lat="44.6991479" lon="8.8713694"><ele>231.6</ele><time>2026-04-16T14:23:04.999Z</time></trkpt><trkpt lat="44.6990798" lon="8.871465"><ele>232.39999999999998</ele><time>2026-04-16T14:23:05.999Z</time></trkpt><trkpt lat="44.6989918" lon="8.8715666"><ele>233.2</ele><time>2026-04-16T14:23:06.999Z</time></trkpt><trkpt lat="44.6988931" lon="8.8716693"><ele>234.0</ele><time>2026-04-16T14:23:07.999Z</time></trkpt><trkpt lat="44.6987983" lon="8.8717677"><ele>233.75</ele><time>2026-04-16T14:23:08.999Z</time></trkpt><trkpt lat="44.6987073" lon="8.8718675"><ele>233.5</ele><time>2026-04-16T14:23:09.999Z</time></trkpt><trkpt lat="44.6986171" lon="8.8719725"><ele>233.25</ele><time>2026-04-16T14:23:10.999Z</time></trkpt><trkpt lat="44.6985272" lon="8.8720819"><ele>233.0</ele><time>2026-04-16T14:23:11.999Z</time></trkpt><trkpt lat="44.6984319" lon="8.8721996"><ele>233.0</ele><time>2026-04-16T14:23:12.999Z</time></trkpt><trkpt lat="44.6983401" lon="8.8723142"><ele>233.0</ele><time>2026-04-16T14:23:13.999Z</time></trkpt><trkpt lat="44.6982427" lon="8.8724392"><ele>233.0</ele><time>2026-04-16T14:23:14.999Z</time></trkpt><trkpt lat="44.6981474" lon="8.8725608"><ele>233.0</ele><time>2026-04-16T14:23:15.999Z</time></trkpt><trkpt lat="44.6980533" lon="8.8726824"><ele>233.0</ele><time>2026-04-16T14:23:16.999Z</time></trkpt><trkpt lat="44.6979643" lon="8.8727977"><ele>233.0</ele><time>2026-04-16T14:23:17.999Z</time></trkpt><trkpt lat="44.6978726" lon="8.8729183"><ele>233.0</ele><time>2026-04-16T14:23:18.999Z</time></trkpt><trkpt lat="44.6977793" lon="8.8730408"><ele>233.0</ele><time>2026-04-16T14:23:19.999Z</time></trkpt><trkpt lat="44.6976836" lon="8.8731663"><ele>233.75</ele><time>2026-04-16T14:23:20.999Z</time></trkpt><trkpt lat="44.6975918" lon="8.8732806"><ele>234.5</ele><time>2026-04-16T14:23:21.999Z</time></trkpt><trkpt lat="44.6974923" lon="8.8734077"><ele>235.25</ele><time>2026-04-16T14:23:22.999Z</time></trkpt><trkpt lat="44.6973843" lon="8.8735491"><ele>236.0</ele><time>2026-04-16T14:23:23.999Z</time></trkpt><trkpt lat="44.6972747" lon="8.8736907"><ele>236.0</ele><time>2026-04-16T14:23:24.999Z</time></trkpt><trkpt lat="44.6971645" lon="8.8738314"><ele>236.0</ele><time>2026-04-16T14:23:25.999Z</time></trkpt><trkpt lat="44.6970501" lon="8.8739775"><ele>236.0</ele><time>2026-04-16T14:23:26.999Z</time></trkpt><trkpt lat="44.6969401" lon="8.8741203"><ele>236.0</ele><time>2026-04-16T14:23:27.999Z</time></trkpt><trkpt lat="44.6968298" lon="8.874261"><ele>236.0</ele><time>2026-04-16T14:23:28.999Z</time></trkpt><trkpt lat="44.6967279" lon="8.8743933"><ele>236.0</ele><time>2026-04-16T14:23:29.999Z</time></trkpt><trkpt lat="44.6966224" lon="8.874533"><ele>236.0</ele><time>2026-04-16T14:23:30.999Z</time></trkpt><trkpt lat="44.6965103" lon="8.8746784"><ele>236.0</ele><time>2026-04-16T14:23:31.999Z</time></trkpt><trkpt lat="44.6964002" lon="8.8748197"><ele>236.0</ele><time>2026-04-16T14:23:32.999Z</time></trkpt><trkpt lat="44.696294" lon="8.8749566"><ele>236.0</ele><time>2026-04-16T14:23:33.999Z</time></trkpt><trkpt lat="44.6961889" lon="8.8750926"><ele>236.0</ele><time>2026-04-16T14:23:34.999Z</time></trkpt><trkpt lat="44.6960792" lon="8.8752333"><ele>236.33333333333334</ele><time>2026-04-16T14:23:35.999Z</time></trkpt><trkpt lat="44.6959657" lon="8.8753781"><ele>236.66666666666669</ele><time>2026-04-16T14:23:36.999Z</time></trkpt><trkpt lat="44.6958592" lon="8.875517"><ele>237.0</ele><time>2026-04-16T14:23:37.999Z</time></trkpt><trkpt lat="44.6957478" lon="8.8756611"><ele>237.0</ele><time>2026-04-16T14:23:38.999Z</time></trkpt><trkpt lat="44.6956356" lon="8.8758051"><ele>237.0</ele><time>2026-04-16T14:23:39.999Z</time></trkpt><trkpt lat="44.6955286" lon="8.8759438"><ele>237.0</ele><time>2026-04-16T14:23:40.999Z</time></trkpt><trkpt lat="44.6954248" lon="8.8760759"><ele>237.0</ele><time>2026-04-16T14:23:41.999Z</time></trkpt><trkpt lat="44.6953174" lon="8.8762165"><ele>237.0</ele><time>2026-04-16T14:23:42.999Z</time></trkpt><trkpt lat="44.6952092" lon="8.8763593"><ele>237.0</ele><time>2026-04-16T14:23:43.999Z</time></trkpt><trkpt lat="44.6951017" lon="8.8764969"><ele>237.0</ele><time>2026-04-16T14:23:44.999Z</time></trkpt><trkpt lat="44.6950032" lon="8.8766221"><ele>237.0</ele><time>2026-04-16T14:23:45.999Z</time></trkpt><trkpt lat="44.6949032" lon="8.8767502"><ele>237.5</ele><time>2026-04-16T14:23:46.999Z</time></trkpt><trkpt lat="44.6947997" lon="8.8768828"><ele>238.0</ele><time>2026-04-16T14:23:47.999Z</time></trkpt><trkpt lat="44.694701" lon="8.8770091"><ele>238.5</ele><time>2026-04-16T14:23:48.999Z</time></trkpt><trkpt lat="44.6945993" lon="8.8771429"><ele>239.0</ele><time>2026-04-16T14:23:49.999Z</time></trkpt><trkpt lat="44.6945007" lon="8.8772704"><ele>239.0</ele><time>2026-04-16T14:23:50.999Z</time></trkpt><trkpt lat="44.6944009" lon="8.8774008"><ele>239.0</ele><time>2026-04-16T14:23:51.999Z</time></trkpt><trkpt lat="44.6942988" lon="8.8775326"><ele>239.0</ele><time>2026-04-16T14:23:52.999Z</time></trkpt><trkpt lat="44.694205" lon="8.8776549"><ele>239.0</ele><time>2026-04-16T14:23:53.999Z</time></trkpt><trkpt lat="44.6941076" lon="8.8777826"><ele>239.0</ele><time>2026-04-16T14:23:54.999Z</time></trkpt><trkpt lat="44.6940096" lon="8.8779087"><ele>239.0</ele><time>2026-04-16T14:23:55.999Z</time></trkpt><trkpt lat="44.6939105" lon="8.8780362"><ele>239.0</ele><time>2026-04-16T14:23:56.999Z</time></trkpt><trkpt lat="44.693815" lon="8.8781617"><ele>239.0</ele><time>2026-04-16T14:23:58.102Z</time></trkpt><trkpt lat="44.6937181" lon="8.878283"><ele>239.66666666666669</ele><time>2026-04-16T14:23:59.111Z</time></trkpt><trkpt lat="44.6935164" lon="8.8785415"><ele>240.33333333333331</ele><time>2026-04-16T14:24:00.999Z</time></trkpt><trkpt lat="44.6934193" lon="8.8786682"><ele>241.0</ele><time>2026-04-16T14:24:01.999Z</time></trkpt><trkpt lat="44.6933195" lon="8.878795"><ele>241.0</ele><time>2026-04-16T14:24:02.999Z</time></trkpt><trkpt lat="44.6932224" lon="8.8789205"><ele>241.0</ele><time>2026-04-16T14:24:03.999Z</time></trkpt><trkpt lat="44.6931326" lon="8.879035"><ele>241.0</ele><time>2026-04-16T14:24:04.999Z</time></trkpt><trkpt lat="44.6930497" lon="8.8791427"><ele>241.0</ele><time>2026-04-16T14:24:06.103Z</time></trkpt><trkpt lat="44.6928794" lon="8.8793719"><ele>240.75</ele><time>2026-04-16T14:24:07.999Z</time></trkpt><trkpt lat="44.6927935" lon="8.8794846"><ele>240.5</ele><time>2026-04-16T14:24:09.12Z</time></trkpt><trkpt lat="44.6927202" lon="8.8795813"><ele>240.25</ele><time>2026-04-16T14:24:10.104Z</time></trkpt><trkpt lat="44.6926164" lon="8.8797836"><ele>240.0</ele><time>2026-04-16T14:24:11.999Z</time></trkpt><trkpt lat="44.6926023" lon="8.87989"><ele>240.0</ele><time>2026-04-16T14:24:12.999Z</time></trkpt><trkpt lat="44.692615" lon="8.8799913"><ele>240.0</ele><time>2026-04-16T14:24:13.999Z</time></trkpt><trkpt lat="44.6926553" lon="8.8800859"><ele>240.0</ele><time>2026-04-16T14:24:14.999Z</time></trkpt><trkpt lat="44.6927113" lon="8.8801805"><ele>240.0</ele><time>2026-04-16T14:24:15.999Z</time></trkpt><trkpt lat="44.692774" lon="8.8802737"><ele>240.0</ele><time>2026-04-16T14:24:16.999Z</time></trkpt><trkpt lat="44.6928214" lon="8.880367"><ele>240.0</ele><time>2026-04-16T14:24:17.999Z</time></trkpt><trkpt lat="44.692854" lon="8.8804549"><ele>240.16666666666666</ele><time>2026-04-16T14:24:18.999Z</time></trkpt><trkpt lat="44.6928711" lon="8.8805469"><ele>240.33333333333331</ele><time>2026-04-16T14:24:19.999Z</time></trkpt><trkpt lat="44.6928719" lon="8.8806511"><ele>240.5</ele><time>2026-04-16T14:24:20.999Z</time></trkpt><trkpt lat="44.6928535" lon="8.8807592"><ele>240.66666666666666</ele><time>2026-04-16T14:24:21.999Z</time></trkpt><trkpt lat="44.6928194" lon="8.8808737"><ele>240.83333333333331</ele><time>2026-04-16T14:24:22.999Z</time></trkpt><trkpt lat="44.6927623" lon="8.8810028"><ele>241.0</ele><time>2026-04-16T14:24:23.999Z</time></trkpt><trkpt lat="44.6926793" lon="8.8811383"><ele>241.0</ele><time>2026-04-16T14:24:24.999Z</time></trkpt><trkpt lat="44.6925935" lon="8.8812675"><ele>241.0</ele><time>2026-04-16T14:24:25.999Z</time></trkpt><trkpt lat="44.6925014" lon="8.8814078"><ele>241.0</ele><time>2026-04-16T14:24:26.999Z</time></trkpt><trkpt lat="44.6924071" lon="8.8815526"><ele>241.0</ele><time>2026-04-16T14:24:27.999Z</time></trkpt><trkpt lat="44.6923165" lon="8.8816862"><ele>241.0</ele><time>2026-04-16T14:24:28.999Z</time></trkpt><trkpt lat="44.6922319" lon="8.8818006"><ele>241.00000000000003</ele><time>2026-04-16T14:24:29.999Z</time></trkpt><trkpt lat="44.692151" lon="8.8819113"><ele>241.00000000000003</ele><time>2026-04-16T14:24:30.999Z</time></trkpt><trkpt lat="44.6920789" lon="8.8820119"><ele>241.0</ele><time>2026-04-16T14:24:31.999Z</time></trkpt><trkpt lat="44.6920116" lon="8.8821109"><ele>241.0</ele><time>2026-04-16T14:24:32.999Z</time></trkpt><trkpt lat="44.6919518" lon="8.8822055"><ele>240.8</ele><time>2026-04-16T14:24:33.999Z</time></trkpt><trkpt lat="44.6918883" lon="8.8823005"><ele>240.60000000000002</ele><time>2026-04-16T14:24:34.999Z</time></trkpt><trkpt lat="44.69182" lon="8.8823934"><ele>240.4</ele><time>2026-04-16T14:24:35.999Z</time></trkpt><trkpt lat="44.6917548" lon="8.8824848"><ele>240.2</ele><time>2026-04-16T14:24:36.999Z</time></trkpt><trkpt lat="44.6916871" lon="8.882581"><ele>240.0</ele><time>2026-04-16T14:24:37.999Z</time></trkpt><trkpt lat="44.6916225" lon="8.8826766"><ele>240.0</ele><time>2026-04-16T14:24:38.999Z</time></trkpt><trkpt lat="44.6915541" lon="8.8827755"><ele>240.0</ele><time>2026-04-16T14:24:39.999Z</time></trkpt><trkpt lat="44.6914847" lon="8.8828711"><ele>240.0</ele><time>2026-04-16T14:24:40.999Z</time></trkpt><trkpt lat="44.6914244" lon="8.8829528"><ele>240.0</ele><time>2026-04-16T14:24:41.999Z</time></trkpt><trkpt lat="44.6913725" lon="8.883028"><ele>240.0</ele><time>2026-04-16T14:24:42.999Z</time></trkpt><trkpt lat="44.6913262" lon="8.8830929"><ele>240.0</ele><time>2026-04-16T14:24:43.999Z</time></trkpt><trkpt lat="44.6912443" lon="8.8832101"><ele>240.0</ele><time>2026-04-16T14:24:45.999Z</time></trkpt><trkpt lat="44.6911543" lon="8.8833197"><ele>240.0</ele><time>2026-04-16T14:24:47.999Z</time></trkpt><trkpt lat="44.6910996" lon="8.8833658"><ele>240.0</ele><time>2026-04-16T14:24:48.999Z</time></trkpt><trkpt lat="44.6910429" lon="8.8834115"><ele>240.0</ele><time>2026-04-16T14:24:49.999Z</time></trkpt><trkpt lat="44.6909909" lon="8.8834691"><ele>240.0</ele><time>2026-04-16T14:24:50.999Z</time></trkpt><trkpt lat="44.6909495" lon="8.8835381"><ele>240.0</ele><time>2026-04-16T14:24:51.999Z</time></trkpt><trkpt lat="44.6909026" lon="8.8836759"><ele>240.83333333333334</ele><time>2026-04-16T14:24:53.999Z</time></trkpt><trkpt lat="44.6908356" lon="8.8838124"><ele>241.66666666666669</ele><time>2026-04-16T14:24:55.999Z</time></trkpt><trkpt lat="44.6907912" lon="8.8838836"><ele>242.5</ele><time>2026-04-16T14:24:56.999Z</time></trkpt><trkpt lat="44.6907442" lon="8.8839512"><ele>243.33333333333334</ele><time>2026-04-16T14:24:57.999Z</time></trkpt><trkpt lat="44.6906885" lon="8.8840345"><ele>244.16666666666669</ele><time>2026-04-16T14:24:59.101Z</time></trkpt><trkpt lat="44.6906296" lon="8.8841209"><ele>245.0</ele><time>2026-04-16T14:25:00.127Z</time></trkpt><trkpt lat="44.6905629" lon="8.8842161"><ele>245.0</ele><time>2026-04-16T14:25:01.1Z</time></trkpt><trkpt lat="44.6904315" lon="8.8843966"><ele>245.0</ele><time>2026-04-16T14:25:02.999Z</time></trkpt><trkpt lat="44.6903589" lon="8.8844944"><ele>245.0</ele><time>2026-04-16T14:25:03.999Z</time></trkpt><trkpt lat="44.6902872" lon="8.8845966"><ele>245.0</ele><time>2026-04-16T14:25:05.122Z</time></trkpt><trkpt lat="44.6901424" lon="8.884807"><ele>245.0</ele><time>2026-04-16T14:25:06.999Z</time></trkpt><trkpt lat="44.6900646" lon="8.8849206"><ele>245.0</ele><time>2026-04-16T14:25:07.999Z</time></trkpt><trkpt lat="44.6899871" lon="8.8850302"><ele>245.0</ele><time>2026-04-16T14:25:09.111Z</time></trkpt><trkpt lat="44.6898377" lon="8.8852316"><ele>245.0</ele><time>2026-04-16T14:25:10.999Z</time></trkpt><trkpt lat="44.6897602" lon="8.8853442"><ele>245.0</ele><time>2026-04-16T14:25:11.999Z</time></trkpt><trkpt lat="44.6896697" lon="8.8854767"><ele>245.0</ele><time>2026-04-16T14:25:12.999Z</time></trkpt><trkpt lat="44.6895773" lon="8.8855987"><ele>245.0</ele><time>2026-04-16T14:25:13.999Z</time></trkpt><trkpt lat="44.6894825" lon="8.8857204"><ele>245.0</ele><time>2026-04-16T14:25:14.999Z</time></trkpt><trkpt lat="44.6893866" lon="8.885844"><ele>244.75</ele><time>2026-04-16T14:25:15.999Z</time></trkpt><trkpt lat="44.6892921" lon="8.8859656"><ele>244.5</ele><time>2026-04-16T14:25:16.999Z</time></trkpt><trkpt lat="44.6892" lon="8.8860821"><ele>244.25</ele><time>2026-04-16T14:25:17.999Z</time></trkpt><trkpt lat="44.6891109" lon="8.8861974"><ele>244.0</ele><time>2026-04-16T14:25:18.999Z</time></trkpt><trkpt lat="44.6890294" lon="8.8863086"><ele>243.99999999999997</ele><time>2026-04-16T14:25:19.999Z</time></trkpt><trkpt lat="44.6889504" lon="8.8864065"><ele>244.0</ele><time>2026-04-16T14:25:20.999Z</time></trkpt><trkpt lat="44.6888886" lon="8.8864901"><ele>244.0</ele><time>2026-04-16T14:25:21.999Z</time></trkpt><trkpt lat="44.6888351" lon="8.8865577"><ele>244.0</ele><time>2026-04-16T14:25:22.999Z</time></trkpt><trkpt lat="44.6887559" lon="8.8866554"><ele>243.99999999999997</ele><time>2026-04-16T14:25:24.999Z</time></trkpt><trkpt lat="44.6886984" lon="8.8867188"><ele>244.0</ele><time>2026-04-16T14:25:39.999Z</time></trkpt><trkpt lat="44.6886446" lon="8.8867715"><ele>244.39999999999998</ele><time>2026-04-16T14:25:41.999Z</time></trkpt><trkpt lat="44.6885496" lon="8.8868755"><ele>244.79999999999998</ele><time>2026-04-16T14:25:44.999Z</time></trkpt><trkpt lat="44.688487" lon="8.8869779"><ele>245.20000000000002</ele><time>2026-04-16T14:25:46.999Z</time></trkpt><trkpt lat="44.6883995" lon="8.8870917"><ele>245.60000000000002</ele><time>2026-04-16T14:25:48.999Z</time></trkpt><trkpt lat="44.6883445" lon="8.8871584"><ele>246.0</ele><time>2026-04-16T14:25:49.999Z</time></trkpt><trkpt lat="44.688284" lon="8.8872213"><ele>246.0</ele><time>2026-04-16T14:25:50.999Z</time></trkpt><trkpt lat="44.6882193" lon="8.8872888"><ele>246.0</ele><time>2026-04-16T14:25:51.999Z</time></trkpt><trkpt lat="44.6881524" lon="8.8873571"><ele>246.0</ele><time>2026-04-16T14:25:52.999Z</time></trkpt><trkpt lat="44.688088" lon="8.887421"><ele>246.0</ele><time>2026-04-16T14:25:54.114Z</time></trkpt><trkpt lat="44.6880217" lon="8.8874885"><ele>246.0</ele><time>2026-04-16T14:25:55.109Z</time></trkpt><trkpt lat="44.6879553" lon="8.887558"><ele>246.0</ele><time>2026-04-16T14:25:56.103Z</time></trkpt><trkpt lat="44.6878329" lon="8.8877031"><ele>246.20000000000002</ele><time>2026-04-16T14:25:57.999Z</time></trkpt><trkpt lat="44.6877652" lon="8.8877812"><ele>246.40000000000003</ele><time>2026-04-16T14:25:58.999Z</time></trkpt><trkpt lat="44.687692" lon="8.8878624"><ele>246.6</ele><time>2026-04-16T14:25:59.999Z</time></trkpt><trkpt lat="44.6876169" lon="8.8879441"><ele>246.8</ele><time>2026-04-16T14:26:00.999Z</time></trkpt><trkpt lat="44.687541" lon="8.8880215"><ele>247.0</ele><time>2026-04-16T14:26:01.999Z</time></trkpt><trkpt lat="44.6874633" lon="8.8881053"><ele>247.0</ele><time>2026-04-16T14:26:02.999Z</time></trkpt><trkpt lat="44.6873807" lon="8.8881902"><ele>247.0</ele><time>2026-04-16T14:26:04.11Z</time></trkpt><trkpt lat="44.687216" lon="8.8883437"><ele>247.0</ele><time>2026-04-16T14:26:05.999Z</time></trkpt><trkpt lat="44.6871326" lon="8.8884195"><ele>247.0</ele><time>2026-04-16T14:26:06.999Z</time></trkpt><trkpt lat="44.6870381" lon="8.8885067"><ele>247.0</ele><time>2026-04-16T14:26:07.999Z</time></trkpt><trkpt lat="44.6869467" lon="8.8885959"><ele>247.0</ele><time>2026-04-16T14:26:08.999Z</time></trkpt><trkpt lat="44.6868618" lon="8.8886779"><ele>247.0</ele><time>2026-04-16T14:26:09.999Z</time></trkpt><trkpt lat="44.6867749" lon="8.8887558"><ele>247.0</ele><time>2026-04-16T14:26:10.999Z</time></trkpt><trkpt lat="44.6866916" lon="8.8888357"><ele>247.0</ele><time>2026-04-16T14:26:11.999Z</time></trkpt><trkpt lat="44.6866124" lon="8.8889099"><ele>246.83333333333331</ele><time>2026-04-16T14:26:12.999Z</time></trkpt><trkpt lat="44.6865398" lon="8.8889774"><ele>246.66666666666666</ele><time>2026-04-16T14:26:13.999Z</time></trkpt><trkpt lat="44.6864705" lon="8.8890449"><ele>246.5</ele><time>2026-04-16T14:26:14.999Z</time></trkpt><trkpt lat="44.6864035" lon="8.8891057"><ele>246.33333333333331</ele><time>2026-04-16T14:26:15.999Z</time></trkpt><trkpt lat="44.6863386" lon="8.8891604"><ele>246.16666666666666</ele><time>2026-04-16T14:26:16.999Z</time></trkpt><trkpt lat="44.6862792" lon="8.8892135"><ele>246.0</ele><time>2026-04-16T14:26:17.999Z</time></trkpt><trkpt lat="44.6862226" lon="8.8892692"><ele>246.0</ele><time>2026-04-16T14:26:18.999Z</time></trkpt><trkpt lat="44.6861245" lon="8.8893662"><ele>246.0</ele><time>2026-04-16T14:26:20.999Z</time></trkpt><trkpt lat="44.6860371" lon="8.8894492"><ele>246.0</ele><time>2026-04-16T14:26:22.999Z</time></trkpt><trkpt lat="44.6859347" lon="8.8895401"><ele>246.0</ele><time>2026-04-16T14:26:24.999Z</time></trkpt><trkpt lat="44.6858269" lon="8.8896401"><ele>246.5</ele><time>2026-04-16T14:26:26.999Z</time></trkpt><trkpt lat="44.6857637" lon="8.8896979"><ele>247.0</ele><time>2026-04-16T14:26:27.999Z</time></trkpt><trkpt lat="44.6857019" lon="8.8897557"><ele>247.5</ele><time>2026-04-16T14:26:28.999Z</time></trkpt><trkpt lat="44.6856343" lon="8.8898218"><ele>248.0</ele><time>2026-04-16T14:26:29.999Z</time></trkpt><trkpt lat="44.6855644" lon="8.8898919"><ele>248.5</ele><time>2026-04-16T14:26:30.999Z</time></trkpt><trkpt lat="44.6854881" lon="8.8899673"><ele>249.0</ele><time>2026-04-16T14:26:31.999Z</time></trkpt><trkpt lat="44.6854051" lon="8.890044"><ele>248.79999999999998</ele><time>2026-04-16T14:26:32.999Z</time></trkpt><trkpt lat="44.6853228" lon="8.8901236"><ele>248.59999999999997</ele><time>2026-04-16T14:26:33.999Z</time></trkpt><trkpt lat="44.6852374" lon="8.8902045"><ele>248.4</ele><time>2026-04-16T14:26:34.999Z</time></trkpt><trkpt lat="44.6851515" lon="8.8902883"><ele>248.2</ele><time>2026-04-16T14:26:35.999Z</time></trkpt><trkpt lat="44.6850955" lon="8.8903383"><ele>248.0</ele><time>2026-04-16T14:26:36.999Z</time></trkpt><trkpt lat="44.6850137" lon="8.8904226"><ele>248.60000000000002</ele><time>2026-04-16T14:26:38.999Z</time></trkpt><trkpt lat="44.6849289" lon="8.8905076"><ele>249.20000000000002</ele><time>2026-04-16T14:26:40.999Z</time></trkpt><trkpt lat="44.6848232" lon="8.8906136"><ele>249.8</ele><time>2026-04-16T14:26:42.999Z</time></trkpt><trkpt lat="44.6847599" lon="8.890674"><ele>250.4</ele><time>2026-04-16T14:26:43.999Z</time></trkpt><trkpt lat="44.6847013" lon="8.8907354"><ele>251.0</ele><time>2026-04-16T14:26:44.999Z</time></trkpt><trkpt lat="44.6846428" lon="8.8907916"><ele>250.99999999999997</ele><time>2026-04-16T14:26:45.999Z</time></trkpt><trkpt lat="44.6845791" lon="8.8908444"><ele>251.0</ele><time>2026-04-16T14:26:46.999Z</time></trkpt><trkpt lat="44.6845176" lon="8.8908977"><ele>250.99999999999997</ele><time>2026-04-16T14:26:47.999Z</time></trkpt><trkpt lat="44.6844538" lon="8.8909567"><ele>250.99999999999997</ele><time>2026-04-16T14:26:48.999Z</time></trkpt><trkpt lat="44.6843936" lon="8.8910121"><ele>251.0</ele><time>2026-04-16T14:26:49.999Z</time></trkpt><trkpt lat="44.6843317" lon="8.8910684"><ele>250.99999999999997</ele><time>2026-04-16T14:26:50.999Z</time></trkpt><trkpt lat="44.6842835" lon="8.8911317"><ele>250.99999999999997</ele><time>2026-04-16T14:26:51.999Z</time></trkpt><trkpt lat="44.6842304" lon="8.8911836"><ele>250.8</ele><time>2026-04-16T14:26:52.999Z</time></trkpt><trkpt lat="44.6840784" lon="8.8913323"><ele>250.60000000000002</ele><time>2026-04-16T14:26:55.999Z</time></trkpt><trkpt lat="44.6840206" lon="8.8913856"><ele>250.4</ele><time>2026-04-16T14:26:56.999Z</time></trkpt><trkpt lat="44.6839629" lon="8.8914387"><ele>250.2</ele><time>2026-04-16T14:26:57.999Z</time></trkpt><trkpt lat="44.6839012" lon="8.8914927"><ele>250.0</ele><time>2026-04-16T14:26:58.999Z</time></trkpt><trkpt lat="44.6838434" lon="8.8915447"><ele>249.99999999999997</ele><time>2026-04-16T14:26:59.999Z</time></trkpt><trkpt lat="44.6837899" lon="8.8915936"><ele>250.0</ele><time>2026-04-16T14:27:00.999Z</time></trkpt><trkpt lat="44.683736" lon="8.8916409"><ele>250.0</ele><time>2026-04-16T14:27:01.999Z</time></trkpt><trkpt lat="44.6836794" lon="8.8916931"><ele>250.0</ele><time>2026-04-16T14:27:02.999Z</time></trkpt><trkpt lat="44.6836259" lon="8.8917462"><ele>249.99999999999997</ele><time>2026-04-16T14:27:03.999Z</time></trkpt><trkpt lat="44.6835302" lon="8.8918333"><ele>250.0</ele><time>2026-04-16T14:27:05.999Z</time></trkpt><trkpt lat="44.6834351" lon="8.8919222"><ele>249.8</ele><time>2026-04-16T14:27:07.999Z</time></trkpt><trkpt lat="44.6833283" lon="8.8920275"><ele>249.6</ele><time>2026-04-16T14:27:09.999Z</time></trkpt><trkpt lat="44.6832663" lon="8.8920871"><ele>249.39999999999998</ele><time>2026-04-16T14:27:10.999Z</time></trkpt><trkpt lat="44.6831996" lon="8.8921491"><ele>249.2</ele><time>2026-04-16T14:27:11.999Z</time></trkpt><trkpt lat="44.6831249" lon="8.8922191"><ele>249.0</ele><time>2026-04-16T14:27:12.999Z</time></trkpt><trkpt lat="44.6830526" lon="8.8922866"><ele>249.0</ele><time>2026-04-16T14:27:13.999Z</time></trkpt><trkpt lat="44.6829714" lon="8.8923613"><ele>248.99999999999997</ele><time>2026-04-16T14:27:14.999Z</time></trkpt><trkpt lat="44.682885" lon="8.8924434"><ele>248.99999999999997</ele><time>2026-04-16T14:27:15.999Z</time></trkpt><trkpt lat="44.6828008" lon="8.8925209"><ele>249.0</ele><time>2026-04-16T14:27:16.999Z</time></trkpt><trkpt lat="44.6827183" lon="8.8926005"><ele>249.0</ele><time>2026-04-16T14:27:17.999Z</time></trkpt><trkpt lat="44.6826298" lon="8.8926835"><ele>249.0</ele><time>2026-04-16T14:27:18.999Z</time></trkpt><trkpt lat="44.6825368" lon="8.8927693"><ele>249.0</ele><time>2026-04-16T14:27:19.999Z</time></trkpt><trkpt lat="44.6824412" lon="8.8928564"><ele>249.0</ele><time>2026-04-16T14:27:20.999Z</time></trkpt><trkpt lat="44.6823398" lon="8.8929517"><ele>249.0</ele><time>2026-04-16T14:27:21.999Z</time></trkpt><trkpt lat="44.6822392" lon="8.8930475"><ele>249.0</ele><time>2026-04-16T14:27:22.999Z</time></trkpt><trkpt lat="44.6821333" lon="8.8931474"><ele>249.0</ele><time>2026-04-16T14:27:23.999Z</time></trkpt><trkpt lat="44.6820283" lon="8.8932437"><ele>249.0</ele><time>2026-04-16T14:27:24.999Z</time></trkpt><trkpt lat="44.6819122" lon="8.8933444"><ele>249.0</ele><time>2026-04-16T14:27:25.999Z</time></trkpt><trkpt lat="44.6817906" lon="8.8934477"><ele>248.66666666666669</ele><time>2026-04-16T14:27:26.999Z</time></trkpt><trkpt lat="44.6816633" lon="8.8935548"><ele>248.33333333333334</ele><time>2026-04-16T14:27:27.999Z</time></trkpt><trkpt lat="44.6815278" lon="8.8936696"><ele>248.0</ele><time>2026-04-16T14:27:28.999Z</time></trkpt><trkpt lat="44.6814007" lon="8.8937759"><ele>248.0</ele><time>2026-04-16T14:27:29.999Z</time></trkpt><trkpt lat="44.6812644" lon="8.8938856"><ele>248.0</ele><time>2026-04-16T14:27:30.999Z</time></trkpt><trkpt lat="44.681123" lon="8.8939971"><ele>248.0</ele><time>2026-04-16T14:27:31.998Z</time></trkpt><trkpt lat="44.6809923" lon="8.8940958"><ele>248.66666666666669</ele><time>2026-04-16T14:27:32.999Z</time></trkpt><trkpt lat="44.6808542" lon="8.8941956"><ele>249.33333333333331</ele><time>2026-04-16T14:27:33.999Z</time></trkpt><trkpt lat="44.6807206" lon="8.8942854"><ele>250.0</ele><time>2026-04-16T14:27:34.999Z</time></trkpt><trkpt lat="44.68058" lon="8.8943736"><ele>249.33333333333331</ele><time>2026-04-16T14:27:35.999Z</time></trkpt><trkpt lat="44.6804363" lon="8.8944544"><ele>248.66666666666669</ele><time>2026-04-16T14:27:36.999Z</time></trkpt><trkpt lat="44.6802963" lon="8.8945315"><ele>248.0</ele><time>2026-04-16T14:27:37.999Z</time></trkpt><trkpt lat="44.6801476" lon="8.8946078"><ele>248.0</ele><time>2026-04-16T14:27:38.999Z</time></trkpt><trkpt lat="44.6799939" lon="8.8946806"><ele>248.0</ele><time>2026-04-16T14:27:40.1Z</time></trkpt><trkpt lat="44.6796964" lon="8.8947878"><ele>248.0</ele><time>2026-04-16T14:27:41.999Z</time></trkpt><trkpt lat="44.679546" lon="8.8948303"><ele>248.0</ele><time>2026-04-16T14:27:42.999Z</time></trkpt><trkpt lat="44.6793995" lon="8.894867"><ele>248.0</ele><time>2026-04-16T14:27:44.119Z</time></trkpt><trkpt lat="44.6791147" lon="8.8949166"><ele>249.0</ele><time>2026-04-16T14:27:46.103Z</time></trkpt><trkpt lat="44.6788247" lon="8.8949632"><ele>250.0</ele><time>2026-04-16T14:27:47.999Z</time></trkpt><trkpt lat="44.6786809" lon="8.8949869"><ele>251.0</ele><time>2026-04-16T14:27:49.111Z</time></trkpt><trkpt lat="44.6783963" lon="8.8950344"><ele>250.0</ele><time>2026-04-16T14:27:50.999Z</time></trkpt><trkpt lat="44.678253" lon="8.8950585"><ele>249.0</ele><time>2026-04-16T14:27:51.999Z</time></trkpt><trkpt lat="44.6781003" lon="8.8950819"><ele>248.0</ele><time>2026-04-16T14:27:52.999Z</time></trkpt><trkpt lat="44.6779563" lon="8.8951021"><ele>247.0</ele><time>2026-04-16T14:27:53.999Z</time></trkpt><trkpt lat="44.6778085" lon="8.8951206"><ele>247.33333333333331</ele><time>2026-04-16T14:27:54.999Z</time></trkpt><trkpt lat="44.6776521" lon="8.8951432"><ele>247.66666666666669</ele><time>2026-04-16T14:27:55.999Z</time></trkpt><trkpt lat="44.677499" lon="8.8951646"><ele>248.0</ele><time>2026-04-16T14:27:56.999Z</time></trkpt><trkpt lat="44.6773488" lon="8.8951849"><ele>248.0</ele><time>2026-04-16T14:27:57.999Z</time></trkpt><trkpt lat="44.6771888" lon="8.8952077"><ele>248.0</ele><time>2026-04-16T14:27:59.107Z</time></trkpt><trkpt lat="44.6768544" lon="8.8952611"><ele>248.66666666666669</ele><time>2026-04-16T14:28:00.999Z</time></trkpt><trkpt lat="44.6766855" lon="8.8952981"><ele>249.33333333333331</ele><time>2026-04-16T14:28:01.999Z</time></trkpt><trkpt lat="44.6765153" lon="8.8953451"><ele>250.0</ele><time>2026-04-16T14:28:02.999Z</time></trkpt><trkpt lat="44.6763415" lon="8.8954018"><ele>250.0</ele><time>2026-04-16T14:28:03.999Z</time></trkpt><trkpt lat="44.6761719" lon="8.8954599"><ele>250.0</ele><time>2026-04-16T14:28:04.999Z</time></trkpt><trkpt lat="44.676004" lon="8.8955111"><ele>250.0</ele><time>2026-04-16T14:28:05.999Z</time></trkpt><trkpt lat="44.6758326" lon="8.895561"><ele>251.66666666666666</ele><time>2026-04-16T14:28:06.999Z</time></trkpt><trkpt lat="44.6756589" lon="8.895607"><ele>253.33333333333331</ele><time>2026-04-16T14:28:07.999Z</time></trkpt><trkpt lat="44.6754843" lon="8.8956464"><ele>255.0</ele><time>2026-04-16T14:28:08.999Z</time></trkpt><trkpt lat="44.6753219" lon="8.8956823"><ele>256.0</ele><time>2026-04-16T14:28:09.999Z</time></trkpt><trkpt lat="44.6751566" lon="8.8957185"><ele>257.0</ele><time>2026-04-16T14:28:10.999Z</time></trkpt><trkpt lat="44.674989" lon="8.8957544"><ele>258.0</ele><time>2026-04-16T14:28:11.999Z</time></trkpt><trkpt lat="44.6748288" lon="8.8957902"><ele>258.0</ele><time>2026-04-16T14:28:12.999Z</time></trkpt><trkpt lat="44.6746743" lon="8.8958232"><ele>258.0</ele><time>2026-04-16T14:28:13.999Z</time></trkpt><trkpt lat="44.674514" lon="8.8958502"><ele>258.0</ele><time>2026-04-16T14:28:14.999Z</time></trkpt><trkpt lat="44.6743497" lon="8.895867"><ele>258.6666666666667</ele><time>2026-04-16T14:28:15.999Z</time></trkpt><trkpt lat="44.6741813" lon="8.8958793"><ele>259.33333333333337</ele><time>2026-04-16T14:28:16.999Z</time></trkpt><trkpt lat="44.6740245" lon="8.8958845"><ele>260.0</ele><time>2026-04-16T14:28:17.999Z</time></trkpt><trkpt lat="44.6738627" lon="8.8958888"><ele>260.0</ele><time>2026-04-16T14:28:18.999Z</time></trkpt><trkpt lat="44.673697" lon="8.8958857"><ele>260.0</ele><time>2026-04-16T14:28:19.999Z</time></trkpt><trkpt lat="44.6735358" lon="8.8958789"><ele>260.0</ele><time>2026-04-16T14:28:20.999Z</time></trkpt><trkpt lat="44.6733782" lon="8.895862"><ele>260.6666666666667</ele><time>2026-04-16T14:28:21.999Z</time></trkpt><trkpt lat="44.6732147" lon="8.8958397"><ele>261.3333333333333</ele><time>2026-04-16T14:28:22.999Z</time></trkpt><trkpt lat="44.6730552" lon="8.8958044"><ele>262.0</ele><time>2026-04-16T14:28:23.999Z</time></trkpt><trkpt lat="44.6728949" lon="8.8957573"><ele>261.3333333333333</ele><time>2026-04-16T14:28:24.999Z</time></trkpt><trkpt lat="44.6727426" lon="8.8957147"><ele>260.6666666666667</ele><time>2026-04-16T14:28:25.999Z</time></trkpt><trkpt lat="44.672588" lon="8.8956708"><ele>260.0</ele><time>2026-04-16T14:28:26.999Z</time></trkpt><trkpt lat="44.6724277" lon="8.8956267"><ele>260.0</ele><time>2026-04-16T14:28:27.999Z</time></trkpt><trkpt lat="44.6722744" lon="8.8955838"><ele>260.0</ele><time>2026-04-16T14:28:28.999Z</time></trkpt><trkpt lat="44.672129" lon="8.8955415"><ele>260.0</ele><time>2026-04-16T14:28:29.999Z</time></trkpt><trkpt lat="44.6719794" lon="8.8954984"><ele>260.0</ele><time>2026-04-16T14:28:30.999Z</time></trkpt><trkpt lat="44.6718374" lon="8.8954557"><ele>260.0</ele><time>2026-04-16T14:28:31.999Z</time></trkpt><trkpt lat="44.671698" lon="8.8954138"><ele>260.0</ele><time>2026-04-16T14:28:32.999Z</time></trkpt><trkpt lat="44.6715696" lon="8.8953824"><ele>260.0</ele><time>2026-04-16T14:28:33.999Z</time></trkpt><trkpt lat="44.671442" lon="8.8953714"><ele>260.0</ele><time>2026-04-16T14:28:34.999Z</time></trkpt><trkpt lat="44.6713156" lon="8.8953936"><ele>260.0</ele><time>2026-04-16T14:28:35.999Z</time></trkpt><trkpt lat="44.671198" lon="8.8954487"><ele>260.0</ele><time>2026-04-16T14:28:36.999Z</time></trkpt><trkpt lat="44.6710909" lon="8.8955317"><ele>260.0</ele><time>2026-04-16T14:28:37.999Z</time></trkpt><trkpt lat="44.6709892" lon="8.895631"><ele>260.0</ele><time>2026-04-16T14:28:38.999Z</time></trkpt><trkpt lat="44.6708826" lon="8.8957385"><ele>260.0</ele><time>2026-04-16T14:28:39.999Z</time></trkpt><trkpt lat="44.6707706" lon="8.8958515"><ele>260.0</ele><time>2026-04-16T14:28:40.999Z</time></trkpt><trkpt lat="44.6706575" lon="8.895955"><ele>260.0</ele><time>2026-04-16T14:28:41.999Z</time></trkpt><trkpt lat="44.6705278" lon="8.8960523"><ele>259.5</ele><time>2026-04-16T14:28:42.999Z</time></trkpt><trkpt lat="44.6703857" lon="8.89614"><ele>259.0</ele><time>2026-04-16T14:28:43.999Z</time></trkpt><trkpt lat="44.6702512" lon="8.8962082"><ele>258.5</ele><time>2026-04-16T14:28:44.999Z</time></trkpt><trkpt lat="44.6701139" lon="8.8962701"><ele>258.0</ele><time>2026-04-16T14:28:45.999Z</time></trkpt><trkpt lat="44.6699701" lon="8.8963349"><ele>258.0</ele><time>2026-04-16T14:28:46.999Z</time></trkpt><trkpt lat="44.6698211" lon="8.8964008"><ele>258.0</ele><time>2026-04-16T14:28:47.999Z</time></trkpt><trkpt lat="44.6696721" lon="8.8964682"><ele>258.0</ele><time>2026-04-16T14:28:49.11Z</time></trkpt><trkpt lat="44.6695232" lon="8.8965357"><ele>259.0</ele><time>2026-04-16T14:28:50.105Z</time></trkpt><trkpt lat="44.6692062" lon="8.896678"><ele>260.0</ele><time>2026-04-16T14:28:51.999Z</time></trkpt><trkpt lat="44.6690541" lon="8.8967436"><ele>260.0</ele><time>2026-04-16T14:28:52.999Z</time></trkpt><trkpt lat="44.6689129" lon="8.8968041"><ele>260.0</ele><time>2026-04-16T14:28:53.999Z</time></trkpt><trkpt lat="44.6687728" lon="8.8968619"><ele>260.0</ele><time>2026-04-16T14:28:54.999Z</time></trkpt><trkpt lat="44.6686397" lon="8.8969168"><ele>260.0</ele><time>2026-04-16T14:28:55.999Z</time></trkpt><trkpt lat="44.6685058" lon="8.8969678"><ele>260.0</ele><time>2026-04-16T14:28:56.999Z</time></trkpt><trkpt lat="44.6683856" lon="8.8970101"><ele>260.0</ele><time>2026-04-16T14:28:57.999Z</time></trkpt><trkpt lat="44.6682648" lon="8.8970525"><ele>260.0</ele><time>2026-04-16T14:28:59.108Z</time></trkpt><trkpt lat="44.6680508" lon="8.8971845"><ele>260.0</ele><time>2026-04-16T14:29:00.999Z</time></trkpt><trkpt lat="44.6679659" lon="8.8972919"><ele>260.0</ele><time>2026-04-16T14:29:01.999Z</time></trkpt><trkpt lat="44.6679004" lon="8.8974272"><ele>260.0</ele><time>2026-04-16T14:29:02.999Z</time></trkpt><trkpt lat="44.6678519" lon="8.8975867"><ele>260.0</ele><time>2026-04-16T14:29:03.999Z</time></trkpt><trkpt lat="44.6678129" lon="8.8977545"><ele>259.5</ele><time>2026-04-16T14:29:04.999Z</time></trkpt><trkpt lat="44.6677655" lon="8.8979273"><ele>259.0</ele><time>2026-04-16T14:29:05.999Z</time></trkpt><trkpt lat="44.6677117" lon="8.8980979"><ele>258.5</ele><time>2026-04-16T14:29:06.999Z</time></trkpt><trkpt lat="44.6676445" lon="8.8982737"><ele>258.0</ele><time>2026-04-16T14:29:07.999Z</time></trkpt><trkpt lat="44.6675654" lon="8.8984434"><ele>255.66666666666669</ele><time>2026-04-16T14:29:08.999Z</time></trkpt><trkpt lat="44.667479" lon="8.898607"><ele>253.33333333333334</ele><time>2026-04-16T14:29:09.999Z</time></trkpt><trkpt lat="44.6673799" lon="8.8987785"><ele>251.0</ele><time>2026-04-16T14:29:10.999Z</time></trkpt><trkpt lat="44.6672777" lon="8.8989381"><ele>251.0</ele><time>2026-04-16T14:29:11.999Z</time></trkpt><trkpt lat="44.6671704" lon="8.8991119"><ele>251.0</ele><time>2026-04-16T14:29:12.999Z</time></trkpt><trkpt lat="44.6670685" lon="8.8992745"><ele>251.0</ele><time>2026-04-16T14:29:13.999Z</time></trkpt><trkpt lat="44.6669676" lon="8.8994514"><ele>253.0</ele><time>2026-04-16T14:29:14.999Z</time></trkpt><trkpt lat="44.666866" lon="8.89963"><ele>255.0</ele><time>2026-04-16T14:29:15.999Z</time></trkpt><trkpt lat="44.6667715" lon="8.8998066"><ele>257.0</ele><time>2026-04-16T14:29:16.999Z</time></trkpt><trkpt lat="44.666683" lon="8.8999831"><ele>256.6666666666667</ele><time>2026-04-16T14:29:17.999Z</time></trkpt><trkpt lat="44.6665959" lon="8.9001711"><ele>256.3333333333333</ele><time>2026-04-16T14:29:18.999Z</time></trkpt><trkpt lat="44.6665136" lon="8.9003518"><ele>256.0</ele><time>2026-04-16T14:29:19.999Z</time></trkpt><trkpt lat="44.6664348" lon="8.9005392"><ele>256.0</ele><time>2026-04-16T14:29:20.999Z</time></trkpt><trkpt lat="44.6663587" lon="8.9007275"><ele>256.0</ele><time>2026-04-16T14:29:21.999Z</time></trkpt><trkpt lat="44.6662821" lon="8.9009137"><ele>256.0</ele><time>2026-04-16T14:29:22.999Z</time></trkpt><trkpt lat="44.6662026" lon="8.9011027"><ele>258.0</ele><time>2026-04-16T14:29:23.999Z</time></trkpt><trkpt lat="44.6661151" lon="8.9012761"><ele>260.0</ele><time>2026-04-16T14:29:24.999Z</time></trkpt><trkpt lat="44.666013" lon="8.9014324"><ele>262.0</ele><time>2026-04-16T14:29:25.999Z</time></trkpt><trkpt lat="44.6658949" lon="8.9015736"><ele>262.0</ele><time>2026-04-16T14:29:26.999Z</time></trkpt><trkpt lat="44.6657714" lon="8.9017061"><ele>262.0</ele><time>2026-04-16T14:29:27.999Z</time></trkpt><trkpt lat="44.665637" lon="8.9018272"><ele>262.0</ele><time>2026-04-16T14:29:28.999Z</time></trkpt><trkpt lat="44.6655093" lon="8.9019314"><ele>262.66666666666663</ele><time>2026-04-16T14:29:29.999Z</time></trkpt><trkpt lat="44.6653751" lon="8.9020414"><ele>263.3333333333333</ele><time>2026-04-16T14:29:30.999Z</time></trkpt><trkpt lat="44.66524" lon="8.902157"><ele>264.0</ele><time>2026-04-16T14:29:31.999Z</time></trkpt><trkpt lat="44.6651062" lon="8.9022687"><ele>264.0</ele><time>2026-04-16T14:29:32.999Z</time></trkpt><trkpt lat="44.6649762" lon="8.9023784"><ele>264.0</ele><time>2026-04-16T14:29:33.999Z</time></trkpt><trkpt lat="44.6648401" lon="8.9024958"><ele>264.0</ele><time>2026-04-16T14:29:34.999Z</time></trkpt><trkpt lat="44.6647072" lon="8.9026127"><ele>264.0</ele><time>2026-04-16T14:29:35.999Z</time></trkpt><trkpt lat="44.6645736" lon="8.9027357"><ele>264.0</ele><time>2026-04-16T14:29:36.999Z</time></trkpt><trkpt lat="44.6644488" lon="8.9028528"><ele>264.0</ele><time>2026-04-16T14:29:37.999Z</time></trkpt><trkpt lat="44.664322" lon="8.9029835"><ele>264.0</ele><time>2026-04-16T14:29:39.108Z</time></trkpt><trkpt lat="44.6641981" lon="8.9031307"><ele>264.0</ele><time>2026-04-16T14:29:40.101Z</time></trkpt><trkpt lat="44.66397" lon="8.9034327"><ele>263.6666666666667</ele><time>2026-04-16T14:29:41.999Z</time></trkpt><trkpt lat="44.6638581" lon="8.9035918"><ele>263.33333333333337</ele><time>2026-04-16T14:29:42.999Z</time></trkpt><trkpt lat="44.663746" lon="8.903745"><ele>263.0</ele><time>2026-04-16T14:29:43.999Z</time></trkpt><trkpt lat="44.6636303" lon="8.903905"><ele>263.0</ele><time>2026-04-16T14:29:44.999Z</time></trkpt><trkpt lat="44.6635239" lon="8.9040533"><ele>263.0</ele><time>2026-04-16T14:29:45.999Z</time></trkpt><trkpt lat="44.6634154" lon="8.9042062"><ele>263.0</ele><time>2026-04-16T14:29:46.999Z</time></trkpt><trkpt lat="44.6633069" lon="8.9043604"><ele>263.0</ele><time>2026-04-16T14:29:47.999Z</time></trkpt><trkpt lat="44.6632064" lon="8.9045025"><ele>263.0</ele><time>2026-04-16T14:29:48.999Z</time></trkpt><trkpt lat="44.6631093" lon="8.9046408"><ele>263.0</ele><time>2026-04-16T14:29:49.999Z</time></trkpt><trkpt lat="44.663011" lon="8.9047813"><ele>263.0</ele><time>2026-04-16T14:29:50.999Z</time></trkpt><trkpt lat="44.6629131" lon="8.9049198"><ele>263.0</ele><time>2026-04-16T14:29:51.999Z</time></trkpt><trkpt lat="44.6628129" lon="8.9050591"><ele>263.0</ele><time>2026-04-16T14:29:52.999Z</time></trkpt><trkpt lat="44.662718" lon="8.9051913"><ele>263.0</ele><time>2026-04-16T14:29:53.999Z</time></trkpt><trkpt lat="44.6626198" lon="8.9053289"><ele>263.0</ele><time>2026-04-16T14:29:54.999Z</time></trkpt><trkpt lat="44.6625184" lon="8.9054721"><ele>263.0</ele><time>2026-04-16T14:29:55.998Z</time></trkpt><trkpt lat="44.6624208" lon="8.9056104"><ele>263.0</ele><time>2026-04-16T14:29:56.999Z</time></trkpt><trkpt lat="44.6623267" lon="8.9057442"><ele>263.0</ele><time>2026-04-16T14:29:57.999Z</time></trkpt><trkpt lat="44.6622292" lon="8.9058816"><ele>263.0</ele><time>2026-04-16T14:29:58.999Z</time></trkpt><trkpt lat="44.6621329" lon="8.9060175"><ele>263.0</ele><time>2026-04-16T14:29:59.999Z</time></trkpt><trkpt lat="44.6620358" lon="8.9061523"><ele>263.0</ele><time>2026-04-16T14:30:00.999Z</time></trkpt><trkpt lat="44.6619445" lon="8.9062789"><ele>263.0</ele><time>2026-04-16T14:30:01.999Z</time></trkpt><trkpt lat="44.6618515" lon="8.9064091"><ele>263.0</ele><time>2026-04-16T14:30:02.999Z</time></trkpt><trkpt lat="44.6617584" lon="8.9065384"><ele>262.75</ele><time>2026-04-16T14:30:03.999Z</time></trkpt><trkpt lat="44.6616721" lon="8.9066585"><ele>262.5</ele><time>2026-04-16T14:30:04.999Z</time></trkpt><trkpt lat="44.661586" lon="8.9067803"><ele>262.25</ele><time>2026-04-16T14:30:05.999Z</time></trkpt><trkpt lat="44.6614996" lon="8.9069016"><ele>262.0</ele><time>2026-04-16T14:30:06.999Z</time></trkpt><trkpt lat="44.6614117" lon="8.9070225"><ele>262.0</ele><time>2026-04-16T14:30:07.999Z</time></trkpt><trkpt lat="44.6613237" lon="8.9071448"><ele>262.0</ele><time>2026-04-16T14:30:08.999Z</time></trkpt><trkpt lat="44.6612349" lon="8.9072663"><ele>262.0</ele><time>2026-04-16T14:30:09.999Z</time></trkpt><trkpt lat="44.661145" lon="8.9073894"><ele>262.0</ele><time>2026-04-16T14:30:10.999Z</time></trkpt><trkpt lat="44.6610514" lon="8.907519"><ele>262.25</ele><time>2026-04-16T14:30:11.999Z</time></trkpt><trkpt lat="44.6609584" lon="8.9076483"><ele>262.5</ele><time>2026-04-16T14:30:12.999Z</time></trkpt><trkpt lat="44.6608616" lon="8.9077833"><ele>262.75</ele><time>2026-04-16T14:30:13.999Z</time></trkpt><trkpt lat="44.6607607" lon="8.9079281"><ele>263.0</ele><time>2026-04-16T14:30:14.999Z</time></trkpt><trkpt lat="44.6606566" lon="8.9080859"><ele>263.0</ele><time>2026-04-16T14:30:15.999Z</time></trkpt><trkpt lat="44.6605515" lon="8.9082659"><ele>263.0</ele><time>2026-04-16T14:30:16.999Z</time></trkpt><trkpt lat="44.6604576" lon="8.9084514"><ele>263.0</ele><time>2026-04-16T14:30:17.999Z</time></trkpt><trkpt lat="44.6603718" lon="8.9086483"><ele>263.0</ele><time>2026-04-16T14:30:18.999Z</time></trkpt><trkpt lat="44.6602938" lon="8.9088461"><ele>263.0</ele><time>2026-04-16T14:30:19.999Z</time></trkpt><trkpt lat="44.660226" lon="8.9090306"><ele>263.0</ele><time>2026-04-16T14:30:20.999Z</time></trkpt><trkpt lat="44.6601617" lon="8.9091963"><ele>263.0</ele><time>2026-04-16T14:30:21.999Z</time></trkpt><trkpt lat="44.6601001" lon="8.9093594"><ele>267.4</ele><time>2026-04-16T14:30:22.999Z</time></trkpt><trkpt lat="44.6600575" lon="8.9095105"><ele>271.8</ele><time>2026-04-16T14:30:23.999Z</time></trkpt><trkpt lat="44.6600446" lon="8.9096641"><ele>276.2</ele><time>2026-04-16T14:30:24.999Z</time></trkpt><trkpt lat="44.660068" lon="8.909811"><ele>280.6</ele><time>2026-04-16T14:30:25.999Z</time></trkpt><trkpt lat="44.6601261" lon="8.9099441"><ele>285.0</ele><time>2026-04-16T14:30:26.999Z</time></trkpt><trkpt lat="44.6602167" lon="8.9100648"><ele>281.6666666666667</ele><time>2026-04-16T14:30:27.999Z</time></trkpt><trkpt lat="44.6603228" lon="8.9101606"><ele>278.33333333333337</ele><time>2026-04-16T14:30:28.999Z</time></trkpt><trkpt lat="44.6604332" lon="8.9102689"><ele>275.0</ele><time>2026-04-16T14:30:31.095Z</time></trkpt><trkpt lat="44.6606447" lon="8.9105054"><ele>275.0</ele><time>2026-04-16T14:30:31.999Z</time></trkpt><trkpt lat="44.6607238" lon="8.9106515"><ele>275.0</ele><time>2026-04-16T14:30:32.999Z</time></trkpt><trkpt lat="44.6607825" lon="8.9108005"><ele>275.0</ele><time>2026-04-16T14:30:33.999Z</time></trkpt><trkpt lat="44.6608172" lon="8.9109643"><ele>275.0</ele><time>2026-04-16T14:30:34.999Z</time></trkpt><trkpt lat="44.6608446" lon="8.9111474"><ele>277.5</ele><time>2026-04-16T14:30:35.999Z</time></trkpt><trkpt lat="44.6608655" lon="8.9113328"><ele>280.0</ele><time>2026-04-16T14:30:36.999Z</time></trkpt><trkpt lat="44.6608858" lon="8.9115033"><ele>282.5</ele><time>2026-04-16T14:30:37.999Z</time></trkpt><trkpt lat="44.6609264" lon="8.9116709"><ele>285.0</ele><time>2026-04-16T14:30:38.999Z</time></trkpt><trkpt lat="44.6609877" lon="8.9118363"><ele>288.0</ele><time>2026-04-16T14:30:39.999Z</time></trkpt><trkpt lat="44.6610565" lon="8.9119872"><ele>291.0</ele><time>2026-04-16T14:30:40.999Z</time></trkpt><trkpt lat="44.661123" lon="8.9121388"><ele>294.0</ele><time>2026-04-16T14:30:41.999Z</time></trkpt><trkpt lat="44.6611897" lon="8.9122947"><ele>297.0</ele><time>2026-04-16T14:30:42.999Z</time></trkpt><trkpt lat="44.6612492" lon="8.9124648"><ele>291.25</ele><time>2026-04-16T14:30:43.999Z</time></trkpt><trkpt lat="44.6612987" lon="8.9126349"><ele>285.5</ele><time>2026-04-16T14:30:44.999Z</time></trkpt><trkpt lat="44.661338" lon="8.9128061"><ele>279.75</ele><time>2026-04-16T14:30:45.999Z</time></trkpt><trkpt lat="44.6613722" lon="8.9129848"><ele>274.0</ele><time>2026-04-16T14:30:46.999Z</time></trkpt><trkpt lat="44.6613998" lon="8.9131656"><ele>274.0</ele><time>2026-04-16T14:30:47.999Z</time></trkpt><trkpt lat="44.6614173" lon="8.9133555"><ele>274.0</ele><time>2026-04-16T14:30:48.999Z</time></trkpt><trkpt lat="44.6614277" lon="8.9135512"><ele>274.0</ele><time>2026-04-16T14:30:49.999Z</time></trkpt><trkpt lat="44.6614349" lon="8.913759"><ele>274.0</ele><time>2026-04-16T14:30:50.999Z</time></trkpt><trkpt lat="44.6614293" lon="8.9139551"><ele>274.0</ele><time>2026-04-16T14:30:51.999Z</time></trkpt><trkpt lat="44.6614238" lon="8.9141478"><ele>274.0</ele><time>2026-04-16T14:30:52.999Z</time></trkpt><trkpt lat="44.6614152" lon="8.9143329"><ele>274.0</ele><time>2026-04-16T14:30:53.999Z</time></trkpt><trkpt lat="44.6614035" lon="8.9145365"><ele>274.0</ele><time>2026-04-16T14:30:54.999Z</time></trkpt><trkpt lat="44.6613826" lon="8.9147406"><ele>274.0</ele><time>2026-04-16T14:30:55.999Z</time></trkpt><trkpt lat="44.6613511" lon="8.9149497"><ele>274.0</ele><time>2026-04-16T14:30:56.999Z</time></trkpt><trkpt lat="44.661315" lon="8.9151544"><ele>274.0</ele><time>2026-04-16T14:30:57.999Z</time></trkpt><trkpt lat="44.6612739" lon="8.9153653"><ele>271.0</ele><time>2026-04-16T14:30:59.1Z</time></trkpt><trkpt lat="44.6612314" lon="8.9155718"><ele>268.0</ele><time>2026-04-16T14:31:00.102Z</time></trkpt><trkpt lat="44.6611897" lon="8.9157609"><ele>265.0</ele><time>2026-04-16T14:31:01.11Z</time></trkpt><trkpt lat="44.6610819" lon="8.9161519"><ele>265.25</ele><time>2026-04-16T14:31:02.999Z</time></trkpt><trkpt lat="44.661015" lon="8.91634"><ele>265.5</ele><time>2026-04-16T14:31:03.999Z</time></trkpt><trkpt lat="44.6609469" lon="8.9165318"><ele>265.75</ele><time>2026-04-16T14:31:04.999Z</time></trkpt><trkpt lat="44.6608789" lon="8.9167119"><ele>266.0</ele><time>2026-04-16T14:31:05.999Z</time></trkpt><trkpt lat="44.6608082" lon="8.9168878"><ele>266.0</ele><time>2026-04-16T14:31:06.999Z</time></trkpt><trkpt lat="44.6607301" lon="8.9170668"><ele>266.0</ele><time>2026-04-16T14:31:07.999Z</time></trkpt><trkpt lat="44.6606399" lon="8.9172265"><ele>266.0</ele><time>2026-04-16T14:31:08.999Z</time></trkpt><trkpt lat="44.6605377" lon="8.9173717"><ele>266.0</ele><time>2026-04-16T14:31:09.999Z</time></trkpt><trkpt lat="44.6604211" lon="8.9175039"><ele>269.5</ele><time>2026-04-16T14:31:11.1Z</time></trkpt><trkpt lat="44.6601767" lon="8.9177506"><ele>273.0</ele><time>2026-04-16T14:31:12.999Z</time></trkpt><trkpt lat="44.660053" lon="8.9178825"><ele>273.0</ele><time>2026-04-16T14:31:13.999Z</time></trkpt><trkpt lat="44.6599278" lon="8.91801"><ele>273.0</ele><time>2026-04-16T14:31:14.999Z</time></trkpt><trkpt lat="44.6597931" lon="8.9181512"><ele>273.0</ele><time>2026-04-16T14:31:15.999Z</time></trkpt><trkpt lat="44.6596643" lon="8.9182758"><ele>273.0</ele><time>2026-04-16T14:31:16.999Z</time></trkpt><trkpt lat="44.6595411" lon="8.918397"><ele>273.0</ele><time>2026-04-16T14:31:17.999Z</time></trkpt><trkpt lat="44.6594134" lon="8.9185239"><ele>273.0</ele><time>2026-04-16T14:31:18.999Z</time></trkpt><trkpt lat="44.6592877" lon="8.91865"><ele>273.0</ele><time>2026-04-16T14:31:19.999Z</time></trkpt><trkpt lat="44.6590349" lon="8.9189059"><ele>273.0</ele><time>2026-04-16T14:31:21.999Z</time></trkpt><trkpt lat="44.6588963" lon="8.9190518"><ele>273.0</ele><time>2026-04-16T14:31:22.999Z</time></trkpt><trkpt lat="44.6587664" lon="8.9191919"><ele>273.0</ele><time>2026-04-16T14:31:23.999Z</time></trkpt><trkpt lat="44.6586488" lon="8.9193288"><ele>273.0</ele><time>2026-04-16T14:31:24.999Z</time></trkpt><trkpt lat="44.6585349" lon="8.919465"><ele>274.0</ele><time>2026-04-16T14:31:25.999Z</time></trkpt><trkpt lat="44.6584238" lon="8.9196054"><ele>275.0</ele><time>2026-04-16T14:31:26.999Z</time></trkpt><trkpt lat="44.6583186" lon="8.9197466"><ele>276.0</ele><time>2026-04-16T14:31:27.999Z</time></trkpt><trkpt lat="44.6582169" lon="8.91989"><ele>277.0</ele><time>2026-04-16T14:31:28.999Z</time></trkpt><trkpt lat="44.6581276" lon="8.92002"><ele>274.0</ele><time>2026-04-16T14:31:29.999Z</time></trkpt><trkpt lat="44.6580461" lon="8.9201633"><ele>271.0</ele><time>2026-04-16T14:31:30.999Z</time></trkpt><trkpt lat="44.6579865" lon="8.920325"><ele>268.0</ele><time>2026-04-16T14:31:31.999Z</time></trkpt><trkpt lat="44.6579504" lon="8.9204933"><ele>265.0</ele><time>2026-04-16T14:31:32.999Z</time></trkpt><trkpt lat="44.6579332" lon="8.920662"><ele>265.0</ele><time>2026-04-16T14:31:33.999Z</time></trkpt><trkpt lat="44.6579226" lon="8.9208468"><ele>265.0</ele><time>2026-04-16T14:31:34.999Z</time></trkpt><trkpt lat="44.6579133" lon="8.921038"><ele>265.0</ele><time>2026-04-16T14:31:35.999Z</time></trkpt><trkpt lat="44.6579033" lon="8.9212377"><ele>265.0</ele><time>2026-04-16T14:31:36.999Z</time></trkpt><trkpt lat="44.6578918" lon="8.9214318"><ele>265.5</ele><time>2026-04-16T14:31:37.999Z</time></trkpt><trkpt lat="44.6578806" lon="8.9216355"><ele>266.0</ele><time>2026-04-16T14:31:38.999Z</time></trkpt><trkpt lat="44.6578676" lon="8.9218471"><ele>266.5</ele><time>2026-04-16T14:31:39.999Z</time></trkpt><trkpt lat="44.6578594" lon="8.9220518"><ele>267.0</ele><time>2026-04-16T14:31:40.999Z</time></trkpt><trkpt lat="44.657852" lon="8.9222601"><ele>268.3333333333333</ele><time>2026-04-16T14:31:41.999Z</time></trkpt><trkpt lat="44.6578481" lon="8.9224753"><ele>269.66666666666663</ele><time>2026-04-16T14:31:42.999Z</time></trkpt><trkpt lat="44.6578429" lon="8.9227001"><ele>271.0</ele><time>2026-04-16T14:31:43.999Z</time></trkpt><trkpt lat="44.6578345" lon="8.9229368"><ele>271.0</ele><time>2026-04-16T14:31:44.999Z</time></trkpt><trkpt lat="44.6578274" lon="8.9231621"><ele>271.0</ele><time>2026-04-16T14:31:45.999Z</time></trkpt><trkpt lat="44.6578229" lon="8.9233694"><ele>271.0</ele><time>2026-04-16T14:31:46.999Z</time></trkpt><trkpt lat="44.6578277" lon="8.9236075"><ele>271.3333333333333</ele><time>2026-04-16T14:31:47.999Z</time></trkpt><trkpt lat="44.6578432" lon="8.923831"><ele>271.6666666666667</ele><time>2026-04-16T14:31:48.999Z</time></trkpt><trkpt lat="44.6578701" lon="8.9240612"><ele>272.0</ele><time>2026-04-16T14:31:49.999Z</time></trkpt><trkpt lat="44.6579053" lon="8.9242829"><ele>272.0</ele><time>2026-04-16T14:31:50.999Z</time></trkpt><trkpt lat="44.6579449" lon="8.9245046"><ele>272.0</ele><time>2026-04-16T14:31:51.999Z</time></trkpt><trkpt lat="44.6579873" lon="8.924731"><ele>272.0</ele><time>2026-04-16T14:31:52.999Z</time></trkpt><trkpt lat="44.6580272" lon="8.9249549"><ele>275.5</ele><time>2026-04-16T14:31:53.999Z</time></trkpt><trkpt lat="44.6580662" lon="8.9251769"><ele>279.0</ele><time>2026-04-16T14:31:55.1Z</time></trkpt><trkpt lat="44.6581466" lon="8.9256347"><ele>279.0</ele><time>2026-04-16T14:31:56.999Z</time></trkpt><trkpt lat="44.6581873" lon="8.9258491"><ele>279.0</ele><time>2026-04-16T14:31:57.999Z</time></trkpt><trkpt lat="44.6582294" lon="8.9260754"><ele>279.0</ele><time>2026-04-16T14:31:58.999Z</time></trkpt><trkpt lat="44.6582697" lon="8.9262995"><ele>280.6666666666667</ele><time>2026-04-16T14:31:59.999Z</time></trkpt><trkpt lat="44.6583095" lon="8.9265288"><ele>282.33333333333337</ele><time>2026-04-16T14:32:00.999Z</time></trkpt><trkpt lat="44.6583476" lon="8.9267461"><ele>284.0</ele><time>2026-04-16T14:32:01.999Z</time></trkpt><trkpt lat="44.6583814" lon="8.9269546"><ele>286.33333333333337</ele><time>2026-04-16T14:32:02.999Z</time></trkpt><trkpt lat="44.6584177" lon="8.9271742"><ele>288.6666666666667</ele><time>2026-04-16T14:32:03.999Z</time></trkpt><trkpt lat="44.6584559" lon="8.9273895"><ele>291.0</ele><time>2026-04-16T14:32:05.1Z</time></trkpt><trkpt lat="44.6584986" lon="8.9275969"><ele>294.3333333333333</ele><time>2026-04-16T14:32:05.999Z</time></trkpt><trkpt lat="44.658554" lon="8.9277855"><ele>297.66666666666663</ele><time>2026-04-16T14:32:06.999Z</time></trkpt><trkpt lat="44.6586293" lon="8.9279744"><ele>301.0</ele><time>2026-04-16T14:32:07.999Z</time></trkpt><trkpt lat="44.6587161" lon="8.928151"><ele>297.0</ele><time>2026-04-16T14:32:08.999Z</time></trkpt><trkpt lat="44.6588045" lon="8.9283133"><ele>293.0</ele><time>2026-04-16T14:32:09.999Z</time></trkpt><trkpt lat="44.6588988" lon="8.9284819"><ele>289.0</ele><time>2026-04-16T14:32:10.999Z</time></trkpt><trkpt lat="44.6589961" lon="8.9286512"><ele>289.0</ele><time>2026-04-16T14:32:11.999Z</time></trkpt><trkpt lat="44.6590943" lon="8.9288057"><ele>289.0</ele><time>2026-04-16T14:32:12.999Z</time></trkpt><trkpt lat="44.6592015" lon="8.9289285"><ele>289.0</ele><time>2026-04-16T14:32:13.999Z</time></trkpt><trkpt lat="44.6593266" lon="8.9290072"><ele>289.0</ele><time>2026-04-16T14:32:14.999Z</time></trkpt><trkpt lat="44.6594711" lon="8.9290921"><ele>290.0</ele><time>2026-04-16T14:32:15.999Z</time></trkpt><trkpt lat="44.6596191" lon="8.9291612"><ele>291.0</ele><time>2026-04-16T14:32:16.999Z</time></trkpt><trkpt lat="44.6597491" lon="8.9292172"><ele>292.0</ele><time>2026-04-16T14:32:17.999Z</time></trkpt><trkpt lat="44.6598929" lon="8.929293"><ele>293.0</ele><time>2026-04-16T14:32:18.999Z</time></trkpt><trkpt lat="44.6600485" lon="8.9293779"><ele>293.0</ele><time>2026-04-16T14:32:19.999Z</time></trkpt><trkpt lat="44.6601992" lon="8.9294688"><ele>293.0</ele><time>2026-04-16T14:32:20.999Z</time></trkpt><trkpt lat="44.6603504" lon="8.9295637"><ele>293.0</ele><time>2026-04-16T14:32:21.999Z</time></trkpt><trkpt lat="44.6605318" lon="8.9296695"><ele>289.0</ele><time>2026-04-16T14:32:22.999Z</time></trkpt><trkpt lat="44.6607146" lon="8.9297792"><ele>285.0</ele><time>2026-04-16T14:32:23.999Z</time></trkpt><trkpt lat="44.6609127" lon="8.9299028"><ele>281.0</ele><time>2026-04-16T14:32:24.999Z</time></trkpt><trkpt lat="44.6611127" lon="8.9300368"><ele>286.0</ele><time>2026-04-16T14:32:25.999Z</time></trkpt><trkpt lat="44.661313" lon="8.9301815"><ele>291.0</ele><time>2026-04-16T14:32:26.999Z</time></trkpt><trkpt lat="44.6615299" lon="8.9303281"><ele>291.0</ele><time>2026-04-16T14:32:27.999Z</time></trkpt><trkpt lat="44.6617433" lon="8.9304469"><ele>291.0</ele><time>2026-04-16T14:32:28.999Z</time></trkpt><trkpt lat="44.6619535" lon="8.9305341"><ele>291.0</ele><time>2026-04-16T14:32:29.999Z</time></trkpt><trkpt lat="44.6621779" lon="8.9305993"><ele>288.0</ele><time>2026-04-16T14:32:30.999Z</time></trkpt><trkpt lat="44.6624041" lon="8.9306383"><ele>285.0</ele><time>2026-04-16T14:32:31.999Z</time></trkpt><trkpt lat="44.6626353" lon="8.9306592"><ele>285.0</ele><time>2026-04-16T14:32:32.999Z</time></trkpt><trkpt lat="44.6628459" lon="8.9306781"><ele>285.0</ele><time>2026-04-16T14:32:33.999Z</time></trkpt><trkpt lat="44.663052" lon="8.9306956"><ele>285.0</ele><time>2026-04-16T14:32:34.999Z</time></trkpt><trkpt lat="44.6632605" lon="8.9307086"><ele>285.0</ele><time>2026-04-16T14:32:35.999Z</time></trkpt><trkpt lat="44.6634397" lon="8.9307227"><ele>285.0</ele><time>2026-04-16T14:32:36.999Z</time></trkpt><trkpt lat="44.6636017" lon="8.9307422"><ele>285.0</ele><time>2026-04-16T14:32:37.999Z</time></trkpt><trkpt lat="44.6637434" lon="8.9307777"><ele>284.25</ele><time>2026-04-16T14:32:38.999Z</time></trkpt><trkpt lat="44.6638558" lon="8.9308367"><ele>283.5</ele><time>2026-04-16T14:32:39.999Z</time></trkpt><trkpt lat="44.6639416" lon="8.9309348"><ele>282.75</ele><time>2026-04-16T14:32:40.999Z</time></trkpt><trkpt lat="44.6639952" lon="8.9310649"><ele>282.0</ele><time>2026-04-16T14:32:41.999Z</time></trkpt><trkpt lat="44.664023" lon="8.9312279"><ele>282.0</ele><time>2026-04-16T14:32:42.999Z</time></trkpt><trkpt lat="44.6640362" lon="8.9314221"><ele>282.0</ele><time>2026-04-16T14:32:43.999Z</time></trkpt><trkpt lat="44.6640427" lon="8.9316197"><ele>282.0</ele><time>2026-04-16T14:32:44.999Z</time></trkpt><trkpt lat="44.6640478" lon="8.931814"><ele>282.0</ele><time>2026-04-16T14:32:45.999Z</time></trkpt><trkpt lat="44.6640415" lon="8.9320149"><ele>282.25</ele><time>2026-04-16T14:32:46.999Z</time></trkpt><trkpt lat="44.6640116" lon="8.9322138"><ele>282.5</ele><time>2026-04-16T14:32:47.999Z</time></trkpt><trkpt lat="44.6639435" lon="8.9323983"><ele>282.75</ele><time>2026-04-16T14:32:49.114Z</time></trkpt><trkpt lat="44.663859" lon="8.9325557"><ele>283.0</ele><time>2026-04-16T14:32:50.106Z</time></trkpt><trkpt lat="44.6637908" lon="8.9327345"><ele>280.5</ele><time>2026-04-16T14:32:51.154Z</time></trkpt><trkpt lat="44.6637425" lon="8.9331684"><ele>278.0</ele><time>2026-04-16T14:32:52.999Z</time></trkpt><trkpt lat="44.663793" lon="8.933616"><ele>278.0</ele><time>2026-04-16T14:32:55.106Z</time></trkpt><trkpt lat="44.663873" lon="8.9340424"><ele>278.0</ele><time>2026-04-16T14:32:56.999Z</time></trkpt><trkpt lat="44.6638724" lon="8.9342337"><ele>276.6666666666667</ele><time>2026-04-16T14:32:57.999Z</time></trkpt><trkpt lat="44.6638493" lon="8.934437"><ele>275.3333333333333</ele><time>2026-04-16T14:32:58.999Z</time></trkpt><trkpt lat="44.6638178" lon="8.9346593"><ele>274.0</ele><time>2026-04-16T14:32:59.999Z</time></trkpt><trkpt lat="44.6637905" lon="8.9348992"><ele>273.0</ele><time>2026-04-16T14:33:00.999Z</time></trkpt><trkpt lat="44.6637666" lon="8.9351393"><ele>272.0</ele><time>2026-04-16T14:33:01.999Z</time></trkpt><trkpt lat="44.6637557" lon="8.9353749"><ele>271.0</ele><time>2026-04-16T14:33:02.999Z</time></trkpt><trkpt lat="44.6637349" lon="8.9356233"><ele>271.0</ele><time>2026-04-16T14:33:03.999Z</time></trkpt><trkpt lat="44.6637172" lon="8.9358814"><ele>271.0</ele><time>2026-04-16T14:33:05.106Z</time></trkpt><trkpt lat="44.6636804" lon="8.9364029"><ele>270.66666666666663</ele><time>2026-04-16T14:33:06.999Z</time></trkpt><trkpt lat="44.6636502" lon="8.9366683"><ele>270.3333333333333</ele><time>2026-04-16T14:33:07.999Z</time></trkpt><trkpt lat="44.6636089" lon="8.9369269"><ele>270.0</ele><time>2026-04-16T14:33:08.999Z</time></trkpt><trkpt lat="44.6635468" lon="8.9371695"><ele>275.0</ele><time>2026-04-16T14:33:09.999Z</time></trkpt><trkpt lat="44.6634678" lon="8.9374182"><ele>280.0</ele><time>2026-04-16T14:33:10.999Z</time></trkpt><trkpt lat="44.663381" lon="8.9376652"><ele>285.0</ele><time>2026-04-16T14:33:11.999Z</time></trkpt><trkpt lat="44.6632898" lon="8.9379341"><ele>285.0</ele><time>2026-04-16T14:33:12.999Z</time></trkpt><trkpt lat="44.6632072" lon="8.9382054"><ele>285.0</ele><time>2026-04-16T14:33:13.999Z</time></trkpt><trkpt lat="44.6631189" lon="8.9384738"><ele>285.0</ele><time>2026-04-16T14:33:14.999Z</time></trkpt><trkpt lat="44.663033" lon="8.938741"><ele>282.3333333333333</ele><time>2026-04-16T14:33:15.999Z</time></trkpt><trkpt lat="44.6629661" lon="8.9390128"><ele>279.66666666666663</ele><time>2026-04-16T14:33:16.999Z</time></trkpt><trkpt lat="44.6629154" lon="8.9392832"><ele>277.0</ele><time>2026-04-16T14:33:17.999Z</time></trkpt><trkpt lat="44.6628721" lon="8.9395634"><ele>275.3333333333333</ele><time>2026-04-16T14:33:18.999Z</time></trkpt><trkpt lat="44.6628317" lon="8.9398496"><ele>273.6666666666667</ele><time>2026-04-16T14:33:19.999Z</time></trkpt><trkpt lat="44.662785" lon="8.9401437"><ele>272.0</ele><time>2026-04-16T14:33:20.999Z</time></trkpt><trkpt lat="44.6627205" lon="8.9404198"><ele>275.0</ele><time>2026-04-16T14:33:21.999Z</time></trkpt><trkpt lat="44.662634" lon="8.9406947"><ele>278.0</ele><time>2026-04-16T14:33:22.999Z</time></trkpt><trkpt lat="44.6625326" lon="8.9409688"><ele>281.0</ele><time>2026-04-16T14:33:23.999Z</time></trkpt><trkpt lat="44.6624371" lon="8.9412366"><ele>281.0</ele><time>2026-04-16T14:33:24.999Z</time></trkpt><trkpt lat="44.662345" lon="8.941522"><ele>281.0</ele><time>2026-04-16T14:33:25.999Z</time></trkpt><trkpt lat="44.662263" lon="8.9418182"><ele>281.0</ele><time>2026-04-16T14:33:26.999Z</time></trkpt><trkpt lat="44.6621873" lon="8.9421177"><ele>277.5</ele><time>2026-04-16T14:33:27.999Z</time></trkpt><trkpt lat="44.6621165" lon="8.9424314"><ele>274.0</ele><time>2026-04-16T14:33:28.999Z</time></trkpt><trkpt lat="44.6620508" lon="8.9427221"><ele>273.5</ele><time>2026-04-16T14:33:29.999Z</time></trkpt><trkpt lat="44.6619837" lon="8.9430267"><ele>273.0</ele><time>2026-04-16T14:33:30.999Z</time></trkpt><trkpt lat="44.661917" lon="8.9433342"><ele>280.3333333333333</ele><time>2026-04-16T14:33:31.999Z</time></trkpt><trkpt lat="44.6618512" lon="8.9436251"><ele>287.66666666666663</ele><time>2026-04-16T14:33:32.999Z</time></trkpt><trkpt lat="44.6617878" lon="8.9439091"><ele>295.0</ele><time>2026-04-16T14:33:33.999Z</time></trkpt><trkpt lat="44.6617281" lon="8.9441844"><ele>292.0</ele><time>2026-04-16T14:33:34.999Z</time></trkpt><trkpt lat="44.6616688" lon="8.9444477"><ele>289.0</ele><time>2026-04-16T14:33:35.999Z</time></trkpt><trkpt lat="44.6615984" lon="8.9447087"><ele>286.0</ele><time>2026-04-16T14:33:36.999Z</time></trkpt><trkpt lat="44.6615173" lon="8.9449678"><ele>285.3333333333333</ele><time>2026-04-16T14:33:37.999Z</time></trkpt><trkpt lat="44.6614216" lon="8.9452222"><ele>284.6666666666667</ele><time>2026-04-16T14:33:38.999Z</time></trkpt><trkpt lat="44.6613084" lon="8.945476"><ele>284.0</ele><time>2026-04-16T14:33:39.999Z</time></trkpt><trkpt lat="44.6611999" lon="8.9457168"><ele>285.0</ele><time>2026-04-16T14:33:40.999Z</time></trkpt><trkpt lat="44.6610885" lon="8.9459532"><ele>286.0</ele><time>2026-04-16T14:33:41.999Z</time></trkpt><trkpt lat="44.6609786" lon="8.9461664"><ele>287.0</ele><time>2026-04-16T14:33:42.999Z</time></trkpt><trkpt lat="44.6608564" lon="8.94636"><ele>287.0</ele><time>2026-04-16T14:33:43.999Z</time></trkpt><trkpt lat="44.6607137" lon="8.9465337"><ele>287.0</ele><time>2026-04-16T14:33:44.999Z</time></trkpt><trkpt lat="44.6605657" lon="8.946668"><ele>287.0</ele><time>2026-04-16T14:33:45.999Z</time></trkpt><trkpt lat="44.6603988" lon="8.9467789"><ele>285.0</ele><time>2026-04-16T14:33:46.999Z</time></trkpt><trkpt lat="44.6602317" lon="8.9468857"><ele>283.0</ele><time>2026-04-16T14:33:47.999Z</time></trkpt><trkpt lat="44.6600736" lon="8.9469851"><ele>281.0</ele><time>2026-04-16T14:33:48.999Z</time></trkpt><trkpt lat="44.6599315" lon="8.9470605"><ele>281.0</ele><time>2026-04-16T14:33:49.999Z</time></trkpt><trkpt lat="44.6597861" lon="8.9471124"><ele>281.0</ele><time>2026-04-16T14:33:51.11Z</time></trkpt><trkpt lat="44.6594781" lon="8.9470801"><ele>278.0</ele><time>2026-04-16T14:33:52.999Z</time></trkpt><trkpt lat="44.6593271" lon="8.9470086"><ele>275.0</ele><time>2026-04-16T14:33:54.102Z</time></trkpt><trkpt lat="44.6590043" lon="8.9468307"><ele>275.0</ele><time>2026-04-16T14:33:55.999Z</time></trkpt><trkpt lat="44.6588593" lon="8.9467423"><ele>275.0</ele><time>2026-04-16T14:33:56.999Z</time></trkpt><trkpt lat="44.6587185" lon="8.9466265"><ele>275.0</ele><time>2026-04-16T14:33:57.999Z</time></trkpt><trkpt lat="44.6585883" lon="8.946491"><ele>277.33333333333337</ele><time>2026-04-16T14:33:58.999Z</time></trkpt><trkpt lat="44.6584687" lon="8.9463397"><ele>279.6666666666667</ele><time>2026-04-16T14:33:59.999Z</time></trkpt><trkpt lat="44.6583497" lon="8.9461848"><ele>282.0</ele><time>2026-04-16T14:34:01.114Z</time></trkpt><trkpt lat="44.6581104" lon="8.9460047"><ele>282.0</ele><time>2026-04-16T14:34:02.999Z</time></trkpt><trkpt lat="44.657954" lon="8.9459678"><ele>282.0</ele><time>2026-04-16T14:34:03.999Z</time></trkpt><trkpt lat="44.6578005" lon="8.945954"><ele>282.0</ele><time>2026-04-16T14:34:04.999Z</time></trkpt><trkpt lat="44.6576469" lon="8.9459301"><ele>279.3333333333333</ele><time>2026-04-16T14:34:05.999Z</time></trkpt><trkpt lat="44.657488" lon="8.9458812"><ele>276.66666666666663</ele><time>2026-04-16T14:34:06.999Z</time></trkpt><trkpt lat="44.6573256" lon="8.9458367"><ele>274.0</ele><time>2026-04-16T14:34:07.999Z</time></trkpt><trkpt lat="44.6571549" lon="8.9458123"><ele>280.3333333333333</ele><time>2026-04-16T14:34:08.999Z</time></trkpt><trkpt lat="44.6569832" lon="8.9458101"><ele>286.6666666666667</ele><time>2026-04-16T14:34:09.999Z</time></trkpt><trkpt lat="44.6568094" lon="8.9458106"><ele>293.0</ele><time>2026-04-16T14:34:10.999Z</time></trkpt><trkpt lat="44.6566297" lon="8.945797"><ele>293.0</ele><time>2026-04-16T14:34:11.999Z</time></trkpt><trkpt lat="44.6564503" lon="8.9457707"><ele>293.0</ele><time>2026-04-16T14:34:12.999Z</time></trkpt><trkpt lat="44.6562719" lon="8.9457343"><ele>293.0</ele><time>2026-04-16T14:34:13.999Z</time></trkpt><trkpt lat="44.6560909" lon="8.9456788"><ele>289.6666666666667</ele><time>2026-04-16T14:34:14.999Z</time></trkpt><trkpt lat="44.6559135" lon="8.945593"><ele>286.3333333333333</ele><time>2026-04-16T14:34:15.999Z</time></trkpt><trkpt lat="44.6557392" lon="8.9454755"><ele>283.0</ele><time>2026-04-16T14:34:16.999Z</time></trkpt><trkpt lat="44.6555915" lon="8.9453554"><ele>283.0</ele><time>2026-04-16T14:34:17.999Z</time></trkpt><trkpt lat="44.6554402" lon="8.9452484"><ele>283.0</ele><time>2026-04-16T14:34:18.999Z</time></trkpt><trkpt lat="44.6552765" lon="8.9451739"><ele>283.0</ele><time>2026-04-16T14:34:19.999Z</time></trkpt><trkpt lat="44.6551182" lon="8.9451498"><ele>283.3333333333333</ele><time>2026-04-16T14:34:20.999Z</time></trkpt><trkpt lat="44.6549567" lon="8.9451768"><ele>283.6666666666667</ele><time>2026-04-16T14:34:21.999Z</time></trkpt><trkpt lat="44.6547843" lon="8.9452315"><ele>284.0</ele><time>2026-04-16T14:34:22.999Z</time></trkpt><trkpt lat="44.6546136" lon="8.9452959"><ele>286.33333333333337</ele><time>2026-04-16T14:34:23.997Z</time></trkpt><trkpt lat="44.6544299" lon="8.9453816"><ele>288.6666666666667</ele><time>2026-04-16T14:34:24.999Z</time></trkpt><trkpt lat="44.6542561" lon="8.9454812"><ele>291.0</ele><time>2026-04-16T14:34:25.999Z</time></trkpt><trkpt lat="44.6540744" lon="8.945597"><ele>291.0</ele><time>2026-04-16T14:34:26.999Z</time></trkpt><trkpt lat="44.6538812" lon="8.9457195"><ele>291.0</ele><time>2026-04-16T14:34:27.999Z</time></trkpt><trkpt lat="44.6537042" lon="8.945824"><ele>291.0</ele><time>2026-04-16T14:34:28.999Z</time></trkpt><trkpt lat="44.6535243" lon="8.9459172"><ele>289.0</ele><time>2026-04-16T14:34:29.999Z</time></trkpt><trkpt lat="44.6533351" lon="8.9459834"><ele>287.0</ele><time>2026-04-16T14:34:30.999Z</time></trkpt><trkpt lat="44.6531394" lon="8.9460367"><ele>285.0</ele><time>2026-04-16T14:34:31.999Z</time></trkpt><trkpt lat="44.6529415" lon="8.9460923"><ele>287.6666666666667</ele><time>2026-04-16T14:34:32.999Z</time></trkpt><trkpt lat="44.6527549" lon="8.9461551"><ele>290.33333333333337</ele><time>2026-04-16T14:34:33.999Z</time></trkpt><trkpt lat="44.652565" lon="8.9462324"><ele>293.0</ele><time>2026-04-16T14:34:34.999Z</time></trkpt><trkpt lat="44.6523747" lon="8.946322"><ele>293.0</ele><time>2026-04-16T14:34:35.999Z</time></trkpt><trkpt lat="44.6521919" lon="8.9464236"><ele>293.0</ele><time>2026-04-16T14:34:36.999Z</time></trkpt><trkpt lat="44.6520183" lon="8.9465321"><ele>293.0</ele><time>2026-04-16T14:34:37.999Z</time></trkpt><trkpt lat="44.6518449" lon="8.9466553"><ele>291.0</ele><time>2026-04-16T14:34:38.999Z</time></trkpt><trkpt lat="44.651682" lon="8.9467965"><ele>289.0</ele><time>2026-04-16T14:34:39.999Z</time></trkpt><trkpt lat="44.6515259" lon="8.9469501"><ele>287.0</ele><time>2026-04-16T14:34:40.999Z</time></trkpt><trkpt lat="44.6513795" lon="8.9471059"><ele>287.0</ele><time>2026-04-16T14:34:41.999Z</time></trkpt><trkpt lat="44.6512343" lon="8.9472757"><ele>287.0</ele><time>2026-04-16T14:34:42.999Z</time></trkpt><trkpt lat="44.6510909" lon="8.9474563"><ele>287.0</ele><time>2026-04-16T14:34:43.999Z</time></trkpt><trkpt lat="44.6509564" lon="8.9476416"><ele>288.0</ele><time>2026-04-16T14:34:44.999Z</time></trkpt><trkpt lat="44.6508309" lon="8.9478255"><ele>289.0</ele><time>2026-04-16T14:34:45.999Z</time></trkpt><trkpt lat="44.6507055" lon="8.9480153"><ele>290.0</ele><time>2026-04-16T14:34:46.999Z</time></trkpt><trkpt lat="44.6505833" lon="8.9482069"><ele>292.33333333333337</ele><time>2026-04-16T14:34:47.999Z</time></trkpt><trkpt lat="44.650459" lon="8.9484068"><ele>294.6666666666667</ele><time>2026-04-16T14:34:48.999Z</time></trkpt><trkpt lat="44.6503476" lon="8.9486045"><ele>297.0</ele><time>2026-04-16T14:34:49.999Z</time></trkpt><trkpt lat="44.650249" lon="8.9488201"><ele>297.0</ele><time>2026-04-16T14:34:50.999Z</time></trkpt><trkpt lat="44.6501677" lon="8.9490551"><ele>297.0</ele><time>2026-04-16T14:34:51.999Z</time></trkpt><trkpt lat="44.6501087" lon="8.9492937"><ele>297.0</ele><time>2026-04-16T14:34:52.999Z</time></trkpt><trkpt lat="44.6500607" lon="8.949532"><ele>296.6666666666667</ele><time>2026-04-16T14:34:53.999Z</time></trkpt><trkpt lat="44.6500172" lon="8.9497707"><ele>296.33333333333337</ele><time>2026-04-16T14:34:54.999Z</time></trkpt><trkpt lat="44.6499807" lon="8.9500025"><ele>296.0</ele><time>2026-04-16T14:34:55.999Z</time></trkpt><trkpt lat="44.649946" lon="8.9502297"><ele>295.33333333333337</ele><time>2026-04-16T14:34:56.999Z</time></trkpt><trkpt lat="44.6499131" lon="8.9504392"><ele>294.6666666666667</ele><time>2026-04-16T14:34:57.999Z</time></trkpt><trkpt lat="44.6498792" lon="8.9506503"><ele>294.0</ele><time>2026-04-16T14:34:58.999Z</time></trkpt><trkpt lat="44.6498477" lon="8.9508613"><ele>294.25</ele><time>2026-04-16T14:34:59.999Z</time></trkpt><trkpt lat="44.6498133" lon="8.9510538"><ele>294.5</ele><time>2026-04-16T14:35:00.999Z</time></trkpt><trkpt lat="44.6497829" lon="8.9512404"><ele>294.75</ele><time>2026-04-16T14:35:01.999Z</time></trkpt><trkpt lat="44.6497525" lon="8.9514361"><ele>295.0</ele><time>2026-04-16T14:35:02.999Z</time></trkpt><trkpt lat="44.6497232" lon="8.9516245"><ele>294.25</ele><time>2026-04-16T14:35:03.999Z</time></trkpt><trkpt lat="44.6496949" lon="8.9518161"><ele>293.5</ele><time>2026-04-16T14:35:04.999Z</time></trkpt><trkpt lat="44.6496684" lon="8.9519951"><ele>292.75</ele><time>2026-04-16T14:35:05.999Z</time></trkpt><trkpt lat="44.64964" lon="8.9521791"><ele>292.0</ele><time>2026-04-16T14:35:06.999Z</time></trkpt><trkpt lat="44.6496102" lon="8.9523685"><ele>291.0</ele><time>2026-04-16T14:35:07.999Z</time></trkpt><trkpt lat="44.6495814" lon="8.952544"><ele>290.0</ele><time>2026-04-16T14:35:08.999Z</time></trkpt><trkpt lat="44.6495507" lon="8.9527335"><ele>289.0</ele><time>2026-04-16T14:35:09.999Z</time></trkpt><trkpt lat="44.6495203" lon="8.9529142"><ele>288.0</ele><time>2026-04-16T14:35:10.999Z</time></trkpt><trkpt lat="44.6494886" lon="8.9531061"><ele>292.5</ele><time>2026-04-16T14:35:11.999Z</time></trkpt><trkpt lat="44.6494567" lon="8.9532986"><ele>297.0</ele><time>2026-04-16T14:35:12.999Z</time></trkpt><trkpt lat="44.6494278" lon="8.9534801"><ele>301.5</ele><time>2026-04-16T14:35:13.999Z</time></trkpt><trkpt lat="44.6494004" lon="8.9536639"><ele>306.0</ele><time>2026-04-16T14:35:14.999Z</time></trkpt><trkpt lat="44.649371" lon="8.9538574"><ele>306.0</ele><time>2026-04-16T14:35:15.999Z</time></trkpt><trkpt lat="44.6493425" lon="8.9540457"><ele>306.0</ele><time>2026-04-16T14:35:16.999Z</time></trkpt><trkpt lat="44.6493141" lon="8.9542177"><ele>306.0</ele><time>2026-04-16T14:35:17.999Z</time></trkpt><trkpt lat="44.6492834" lon="8.9543973"><ele>306.0</ele><time>2026-04-16T14:35:18.999Z</time></trkpt><trkpt lat="44.6492514" lon="8.9545687"><ele>305.75</ele><time>2026-04-16T14:35:19.999Z</time></trkpt><trkpt lat="44.6492146" lon="8.9547377"><ele>305.5</ele><time>2026-04-16T14:35:20.999Z</time></trkpt><trkpt lat="44.6491748" lon="8.9548983"><ele>305.25</ele><time>2026-04-16T14:35:21.999Z</time></trkpt><trkpt lat="44.6491294" lon="8.9550577"><ele>305.0</ele><time>2026-04-16T14:35:22.999Z</time></trkpt><trkpt lat="44.6490771" lon="8.9552258"><ele>302.5</ele><time>2026-04-16T14:35:23.999Z</time></trkpt><trkpt lat="44.6490275" lon="8.9553863"><ele>300.0</ele><time>2026-04-16T14:35:24.999Z</time></trkpt><trkpt lat="44.6489785" lon="8.9555402"><ele>297.5</ele><time>2026-04-16T14:35:25.999Z</time></trkpt><trkpt lat="44.6489206" lon="8.9556937"><ele>295.0</ele><time>2026-04-16T14:35:26.999Z</time></trkpt><trkpt lat="44.6488486" lon="8.9558304"><ele>294.0</ele><time>2026-04-16T14:35:27.999Z</time></trkpt><trkpt lat="44.6487585" lon="8.9559503"><ele>293.0</ele><time>2026-04-16T14:35:28.999Z</time></trkpt><trkpt lat="44.6486538" lon="8.9560443"><ele>292.0</ele><time>2026-04-16T14:35:29.999Z</time></trkpt><trkpt lat="44.648539" lon="8.9561096"><ele>291.0</ele><time>2026-04-16T14:35:30.999Z</time></trkpt><trkpt lat="44.6484184" lon="8.9561698"><ele>293.0</ele><time>2026-04-16T14:35:31.999Z</time></trkpt><trkpt lat="44.6483018" lon="8.9562233"><ele>295.0</ele><time>2026-04-16T14:35:32.999Z</time></trkpt><trkpt lat="44.6481832" lon="8.9562711"><ele>297.0</ele><time>2026-04-16T14:35:33.999Z</time></trkpt><trkpt lat="44.6480622" lon="8.9563189"><ele>299.0</ele><time>2026-04-16T14:35:34.999Z</time></trkpt><trkpt lat="44.647945" lon="8.9563529"><ele>299.0</ele><time>2026-04-16T14:35:35.999Z</time></trkpt><trkpt lat="44.6478179" lon="8.9564036"><ele>299.0</ele><time>2026-04-16T14:35:36.999Z</time></trkpt><trkpt lat="44.6476987" lon="8.9564536"><ele>299.0</ele><time>2026-04-16T14:35:37.999Z</time></trkpt><trkpt lat="44.6475735" lon="8.956507"><ele>299.0</ele><time>2026-04-16T14:35:38.999Z</time></trkpt><trkpt lat="44.6474457" lon="8.9565598"><ele>299.5</ele><time>2026-04-16T14:35:39.999Z</time></trkpt><trkpt lat="44.6473246" lon="8.9566099"><ele>300.0</ele><time>2026-04-16T14:35:40.999Z</time></trkpt><trkpt lat="44.647209" lon="8.9566555"><ele>300.5</ele><time>2026-04-16T14:35:41.999Z</time></trkpt><trkpt lat="44.6470921" lon="8.9567059"><ele>301.0</ele><time>2026-04-16T14:35:42.999Z</time></trkpt><trkpt lat="44.6469747" lon="8.9567462"><ele>299.25</ele><time>2026-04-16T14:35:43.999Z</time></trkpt><trkpt lat="44.6468512" lon="8.9567932"><ele>297.5</ele><time>2026-04-16T14:35:44.999Z</time></trkpt><trkpt lat="44.6467348" lon="8.9568261"><ele>295.75</ele><time>2026-04-16T14:35:45.999Z</time></trkpt><trkpt lat="44.6466072" lon="8.9568564"><ele>294.0</ele><time>2026-04-16T14:35:46.999Z</time></trkpt><trkpt lat="44.646475" lon="8.9568713"><ele>294.0</ele><time>2026-04-16T14:35:47.999Z</time></trkpt><trkpt lat="44.6463506" lon="8.9568705"><ele>294.0</ele><time>2026-04-16T14:35:48.999Z</time></trkpt><trkpt lat="44.6462263" lon="8.9568527"><ele>294.0</ele><time>2026-04-16T14:35:49.999Z</time></trkpt><trkpt lat="44.6461029" lon="8.9568285"><ele>294.0</ele><time>2026-04-16T14:35:50.999Z</time></trkpt><trkpt lat="44.645976" lon="8.9567912"><ele>293.25</ele><time>2026-04-16T14:35:51.999Z</time></trkpt><trkpt lat="44.6458527" lon="8.9567454"><ele>292.5</ele><time>2026-04-16T14:35:52.999Z</time></trkpt><trkpt lat="44.6457325" lon="8.9567022"><ele>291.75</ele><time>2026-04-16T14:35:53.999Z</time></trkpt><trkpt lat="44.6456058" lon="8.9566587"><ele>291.0</ele><time>2026-04-16T14:35:54.999Z</time></trkpt><trkpt lat="44.6454738" lon="8.9566123"><ele>293.0</ele><time>2026-04-16T14:35:55.999Z</time></trkpt><trkpt lat="44.645347" lon="8.9565679"><ele>295.0</ele><time>2026-04-16T14:35:56.999Z</time></trkpt><trkpt lat="44.6452204" lon="8.95653"><ele>297.0</ele><time>2026-04-16T14:35:57.999Z</time></trkpt><trkpt lat="44.6450986" lon="8.9564871"><ele>299.0</ele><time>2026-04-16T14:35:58.999Z</time></trkpt><trkpt lat="44.6449763" lon="8.9564472"><ele>299.0</ele><time>2026-04-16T14:35:59.999Z</time></trkpt><trkpt lat="44.6448504" lon="8.9564056"><ele>299.0</ele><time>2026-04-16T14:36:00.999Z</time></trkpt><trkpt lat="44.6447332" lon="8.9563633"><ele>299.0</ele><time>2026-04-16T14:36:01.999Z</time></trkpt><trkpt lat="44.644608" lon="8.9563132"><ele>299.0</ele><time>2026-04-16T14:36:02.999Z</time></trkpt><trkpt lat="44.6444829" lon="8.9562565"><ele>298.0</ele><time>2026-04-16T14:36:03.999Z</time></trkpt><trkpt lat="44.6443653" lon="8.9561853"><ele>297.0</ele><time>2026-04-16T14:36:04.999Z</time></trkpt><trkpt lat="44.6442569" lon="8.9561"><ele>296.0</ele><time>2026-04-16T14:36:05.999Z</time></trkpt><trkpt lat="44.6441478" lon="8.9560105"><ele>295.0</ele><time>2026-04-16T14:36:06.999Z</time></trkpt><trkpt lat="44.6440427" lon="8.9559125"><ele>294.75</ele><time>2026-04-16T14:36:07.999Z</time></trkpt><trkpt lat="44.6439343" lon="8.9558231"><ele>294.5</ele><time>2026-04-16T14:36:08.999Z</time></trkpt><trkpt lat="44.6438292" lon="8.9557386"><ele>294.25</ele><time>2026-04-16T14:36:09.999Z</time></trkpt><trkpt lat="44.6437327" lon="8.9556539"><ele>294.0</ele><time>2026-04-16T14:36:10.999Z</time></trkpt><trkpt lat="44.643619" lon="8.955579"><ele>294.0</ele><time>2026-04-16T14:36:11.999Z</time></trkpt><trkpt lat="44.6435184" lon="8.9554958"><ele>294.0</ele><time>2026-04-16T14:36:12.999Z</time></trkpt><trkpt lat="44.6434154" lon="8.9554164"><ele>294.0</ele><time>2026-04-16T14:36:13.999Z</time></trkpt><trkpt lat="44.6433118" lon="8.9553308"><ele>294.0</ele><time>2026-04-16T14:36:14.999Z</time></trkpt><trkpt lat="44.6432" lon="8.9552503"><ele>294.0</ele><time>2026-04-16T14:36:15.999Z</time></trkpt><trkpt lat="44.6430883" lon="8.9551478"><ele>294.0</ele><time>2026-04-16T14:36:16.999Z</time></trkpt><trkpt lat="44.6429836" lon="8.955029"><ele>294.0</ele><time>2026-04-16T14:36:17.999Z</time></trkpt><trkpt lat="44.6428894" lon="8.954915"><ele>294.0</ele><time>2026-04-16T14:36:18.999Z</time></trkpt><trkpt lat="44.6427853" lon="8.9548047"><ele>293.75</ele><time>2026-04-16T14:36:19.999Z</time></trkpt><trkpt lat="44.6426948" lon="8.9546942"><ele>293.5</ele><time>2026-04-16T14:36:20.999Z</time></trkpt><trkpt lat="44.6426033" lon="8.9545805"><ele>293.25</ele><time>2026-04-16T14:36:21.999Z</time></trkpt><trkpt lat="44.6425093" lon="8.9544578"><ele>293.0</ele><time>2026-04-16T14:36:22.999Z</time></trkpt><trkpt lat="44.6424121" lon="8.9543253"><ele>297.5</ele><time>2026-04-16T14:36:23.999Z</time></trkpt><trkpt lat="44.6423157" lon="8.9541853"><ele>302.0</ele><time>2026-04-16T14:36:24.999Z</time></trkpt><trkpt lat="44.6422123" lon="8.9540415"><ele>306.5</ele><time>2026-04-16T14:36:25.999Z</time></trkpt><trkpt lat="44.6421127" lon="8.9538947"><ele>311.0</ele><time>2026-04-16T14:36:26.999Z</time></trkpt><trkpt lat="44.6420072" lon="8.953747"><ele>311.5</ele><time>2026-04-16T14:36:27.999Z</time></trkpt><trkpt lat="44.6419057" lon="8.9536074"><ele>312.0</ele><time>2026-04-16T14:36:28.999Z</time></trkpt><trkpt lat="44.6417876" lon="8.9534885"><ele>312.5</ele><time>2026-04-16T14:36:29.999Z</time></trkpt><trkpt lat="44.6416473" lon="8.9533923"><ele>313.0</ele><time>2026-04-16T14:36:30.999Z</time></trkpt><trkpt lat="44.6414958" lon="8.9533126"><ele>313.0</ele><time>2026-04-16T14:36:31.999Z</time></trkpt><trkpt lat="44.6413353" lon="8.9532317"><ele>313.0</ele><time>2026-04-16T14:36:32.999Z</time></trkpt><trkpt lat="44.6411876" lon="8.9531624"><ele>313.0</ele><time>2026-04-16T14:36:33.999Z</time></trkpt><trkpt lat="44.6410264" lon="8.9530825"><ele>307.3333333333333</ele><time>2026-04-16T14:36:34.999Z</time></trkpt><trkpt lat="44.6408545" lon="8.9529932"><ele>301.6666666666667</ele><time>2026-04-16T14:36:35.999Z</time></trkpt><trkpt lat="44.6406922" lon="8.9529019"><ele>296.0</ele><time>2026-04-16T14:36:36.999Z</time></trkpt><trkpt lat="44.6405215" lon="8.9528195"><ele>296.0</ele><time>2026-04-16T14:36:37.999Z</time></trkpt><trkpt lat="44.6403511" lon="8.9527472"><ele>296.0</ele><time>2026-04-16T14:36:38.999Z</time></trkpt><trkpt lat="44.6401713" lon="8.9526767"><ele>296.0</ele><time>2026-04-16T14:36:39.999Z</time></trkpt><trkpt lat="44.6399861" lon="8.9526149"><ele>295.0</ele><time>2026-04-16T14:36:40.999Z</time></trkpt><trkpt lat="44.6398121" lon="8.9525549"><ele>294.0</ele><time>2026-04-16T14:36:41.999Z</time></trkpt><trkpt lat="44.6396257" lon="8.9524921"><ele>293.0</ele><time>2026-04-16T14:36:42.999Z</time></trkpt><trkpt lat="44.6394371" lon="8.9524212"><ele>296.33333333333337</ele><time>2026-04-16T14:36:43.999Z</time></trkpt><trkpt lat="44.6392511" lon="8.9523473"><ele>299.6666666666667</ele><time>2026-04-16T14:36:44.999Z</time></trkpt><trkpt lat="44.6390729" lon="8.9522747"><ele>303.0</ele><time>2026-04-16T14:36:45.999Z</time></trkpt><trkpt lat="44.6388865" lon="8.952198"><ele>303.0</ele><time>2026-04-16T14:36:46.999Z</time></trkpt><trkpt lat="44.638701" lon="8.9521205"><ele>303.0</ele><time>2026-04-16T14:36:47.999Z</time></trkpt><trkpt lat="44.6385156" lon="8.9520454"><ele>303.0</ele><time>2026-04-16T14:36:48.999Z</time></trkpt><trkpt lat="44.6383325" lon="8.9519686"><ele>301.6666666666667</ele><time>2026-04-16T14:36:49.999Z</time></trkpt><trkpt lat="44.6381567" lon="8.951893"><ele>300.33333333333337</ele><time>2026-04-16T14:36:50.999Z</time></trkpt><trkpt lat="44.6379734" lon="8.9518145"><ele>299.0</ele><time>2026-04-16T14:36:51.999Z</time></trkpt><trkpt lat="44.6377984" lon="8.951733"><ele>300.33333333333337</ele><time>2026-04-16T14:36:52.999Z</time></trkpt><trkpt lat="44.6376355" lon="8.9516356"><ele>301.6666666666667</ele><time>2026-04-16T14:36:53.999Z</time></trkpt><trkpt lat="44.637471" lon="8.9515139"><ele>303.0</ele><time>2026-04-16T14:36:54.999Z</time></trkpt><trkpt lat="44.6373105" lon="8.9513839"><ele>303.0</ele><time>2026-04-16T14:36:55.999Z</time></trkpt><trkpt lat="44.6371424" lon="8.9512387"><ele>303.0</ele><time>2026-04-16T14:36:56.999Z</time></trkpt><trkpt lat="44.6369838" lon="8.9511003"><ele>303.0</ele><time>2026-04-16T14:36:57.999Z</time></trkpt><trkpt lat="44.6368147" lon="8.9509523"><ele>304.3333333333333</ele><time>2026-04-16T14:36:58.999Z</time></trkpt><trkpt lat="44.6366406" lon="8.950796"><ele>305.66666666666663</ele><time>2026-04-16T14:36:59.999Z</time></trkpt><trkpt lat="44.6364703" lon="8.9506468"><ele>307.0</ele><time>2026-04-16T14:37:00.999Z</time></trkpt><trkpt lat="44.6362959" lon="8.9504926"><ele>304.3333333333333</ele><time>2026-04-16T14:37:01.999Z</time></trkpt><trkpt lat="44.6361244" lon="8.9503417"><ele>301.6666666666667</ele><time>2026-04-16T14:37:02.999Z</time></trkpt><trkpt lat="44.6359578" lon="8.9501977"><ele>299.0</ele><time>2026-04-16T14:37:03.999Z</time></trkpt><trkpt lat="44.635793" lon="8.9500571"><ele>302.6666666666667</ele><time>2026-04-16T14:37:04.999Z</time></trkpt><trkpt lat="44.6356474" lon="8.9499283"><ele>306.3333333333333</ele><time>2026-04-16T14:37:05.999Z</time></trkpt><trkpt lat="44.6354994" lon="8.9497945"><ele>310.0</ele><time>2026-04-16T14:37:06.999Z</time></trkpt><trkpt lat="44.6353537" lon="8.9496667"><ele>309.0</ele><time>2026-04-16T14:37:07.999Z</time></trkpt><trkpt lat="44.6352228" lon="8.9495459"><ele>308.0</ele><time>2026-04-16T14:37:08.999Z</time></trkpt><trkpt lat="44.635114" lon="8.9494273"><ele>307.0</ele><time>2026-04-16T14:37:09.999Z</time></trkpt><trkpt lat="44.6350232" lon="8.9492887"><ele>306.0</ele><time>2026-04-16T14:37:10.999Z</time></trkpt><trkpt lat="44.6349633" lon="8.9491441"><ele>306.0</ele><time>2026-04-16T14:37:11.999Z</time></trkpt><trkpt lat="44.6349263" lon="8.9489865"><ele>306.0</ele><time>2026-04-16T14:37:12.999Z</time></trkpt><trkpt lat="44.6349172" lon="8.9488166"><ele>306.0</ele><time>2026-04-16T14:37:13.999Z</time></trkpt><trkpt lat="44.6349183" lon="8.9486309"><ele>306.0</ele><time>2026-04-16T14:37:14.999Z</time></trkpt><trkpt lat="44.6349221" lon="8.9484162"><ele>309.6666666666667</ele><time>2026-04-16T14:37:15.999Z</time></trkpt><trkpt lat="44.634924" lon="8.9481995"><ele>313.33333333333337</ele><time>2026-04-16T14:37:16.999Z</time></trkpt><trkpt lat="44.634919" lon="8.9479869"><ele>317.0</ele><time>2026-04-16T14:37:17.999Z</time></trkpt><trkpt lat="44.6348998" lon="8.9477585"><ele>320.0</ele><time>2026-04-16T14:37:18.999Z</time></trkpt><trkpt lat="44.6348721" lon="8.9475297"><ele>323.0</ele><time>2026-04-16T14:37:19.999Z</time></trkpt><trkpt lat="44.634838" lon="8.947282"><ele>326.0</ele><time>2026-04-16T14:37:20.999Z</time></trkpt><trkpt lat="44.6348037" lon="8.9470478"><ele>326.0</ele><time>2026-04-16T14:37:21.999Z</time></trkpt><trkpt lat="44.6347526" lon="8.9468031"><ele>326.0</ele><time>2026-04-16T14:37:22.999Z</time></trkpt><trkpt lat="44.6346804" lon="8.9465547"><ele>326.0</ele><time>2026-04-16T14:37:23.999Z</time></trkpt><trkpt lat="44.6345921" lon="8.9463266"><ele>329.33333333333337</ele><time>2026-04-16T14:37:24.999Z</time></trkpt><trkpt lat="44.6344876" lon="8.9461209"><ele>332.6666666666667</ele><time>2026-04-16T14:37:25.999Z</time></trkpt><trkpt lat="44.6343601" lon="8.9459261"><ele>336.0</ele><time>2026-04-16T14:37:26.999Z</time></trkpt><trkpt lat="44.6342202" lon="8.9457384"><ele>328.0</ele><time>2026-04-16T14:37:27.999Z</time></trkpt><trkpt lat="44.6340763" lon="8.9455389"><ele>320.0</ele><time>2026-04-16T14:37:28.999Z</time></trkpt><trkpt lat="44.6339502" lon="8.9453483"><ele>312.0</ele><time>2026-04-16T14:37:29.999Z</time></trkpt><trkpt lat="44.6338231" lon="8.9451515"><ele>310.0</ele><time>2026-04-16T14:37:30.999Z</time></trkpt><trkpt lat="44.6336944" lon="8.9449444"><ele>308.0</ele><time>2026-04-16T14:37:31.999Z</time></trkpt><trkpt lat="44.6335782" lon="8.944742"><ele>306.0</ele><time>2026-04-16T14:37:32.999Z</time></trkpt><trkpt lat="44.6334677" lon="8.9445476"><ele>306.0</ele><time>2026-04-16T14:37:33.999Z</time></trkpt><trkpt lat="44.6333588" lon="8.9443513"><ele>306.0</ele><time>2026-04-16T14:37:34.999Z</time></trkpt><trkpt lat="44.6332502" lon="8.9441619"><ele>306.0</ele><time>2026-04-16T14:37:35.999Z</time></trkpt><trkpt lat="44.6331423" lon="8.9439716"><ele>308.3333333333333</ele><time>2026-04-16T14:37:36.999Z</time></trkpt><trkpt lat="44.6330368" lon="8.94379"><ele>310.66666666666663</ele><time>2026-04-16T14:37:37.999Z</time></trkpt><trkpt lat="44.6329338" lon="8.9436046"><ele>313.0</ele><time>2026-04-16T14:37:38.999Z</time></trkpt><trkpt lat="44.6328278" lon="8.9434134"><ele>311.66666666666663</ele><time>2026-04-16T14:37:39.999Z</time></trkpt><trkpt lat="44.6327271" lon="8.9432425"><ele>310.3333333333333</ele><time>2026-04-16T14:37:40.999Z</time></trkpt><trkpt lat="44.6326272" lon="8.9430633"><ele>309.0</ele><time>2026-04-16T14:37:41.999Z</time></trkpt><trkpt lat="44.6325308" lon="8.9428934"><ele>309.0</ele><time>2026-04-16T14:37:42.999Z</time></trkpt><trkpt lat="44.6324372" lon="8.9427237"><ele>309.0</ele><time>2026-04-16T14:37:43.999Z</time></trkpt><trkpt lat="44.6323409" lon="8.9425608"><ele>309.0</ele><time>2026-04-16T14:37:44.999Z</time></trkpt><trkpt lat="44.6322438" lon="8.9424217"><ele>309.0</ele><time>2026-04-16T14:37:45.999Z</time></trkpt><trkpt lat="44.6321276" lon="8.9423044"><ele>308.0</ele><time>2026-04-16T14:37:46.998Z</time></trkpt><trkpt lat="44.6320019" lon="8.942209"><ele>307.0</ele><time>2026-04-16T14:37:47.999Z</time></trkpt><trkpt lat="44.6318654" lon="8.942117"><ele>306.0</ele><time>2026-04-16T14:37:48.999Z</time></trkpt><trkpt lat="44.6317314" lon="8.9420205"><ele>305.0</ele><time>2026-04-16T14:37:49.999Z</time></trkpt><trkpt lat="44.6316064" lon="8.9419155"><ele>305.0</ele><time>2026-04-16T14:37:50.999Z</time></trkpt><trkpt lat="44.6314691" lon="8.9417978"><ele>305.0</ele><time>2026-04-16T14:37:51.999Z</time></trkpt><trkpt lat="44.631335" lon="8.9416812"><ele>305.0</ele><time>2026-04-16T14:37:52.999Z</time></trkpt><trkpt lat="44.6312125" lon="8.9415717"><ele>305.33333333333337</ele><time>2026-04-16T14:37:53.999Z</time></trkpt><trkpt lat="44.6310769" lon="8.9414589"><ele>305.6666666666667</ele><time>2026-04-16T14:37:54.999Z</time></trkpt><trkpt lat="44.6309482" lon="8.9413486"><ele>306.0</ele><time>2026-04-16T14:37:55.999Z</time></trkpt><trkpt lat="44.6308196" lon="8.9412541"><ele>306.0</ele><time>2026-04-16T14:37:56.999Z</time></trkpt><trkpt lat="44.6306723" lon="8.9411761"><ele>306.0</ele><time>2026-04-16T14:37:57.999Z</time></trkpt><trkpt lat="44.6305276" lon="8.9411257"><ele>306.0</ele><time>2026-04-16T14:37:58.999Z</time></trkpt><trkpt lat="44.6303847" lon="8.9410763"><ele>305.25</ele><time>2026-04-16T14:37:59.999Z</time></trkpt><trkpt lat="44.6302421" lon="8.9410459"><ele>304.5</ele><time>2026-04-16T14:38:00.999Z</time></trkpt><trkpt lat="44.630108" lon="8.9410591"><ele>303.75</ele><time>2026-04-16T14:38:01.999Z</time></trkpt><trkpt lat="44.6299637" lon="8.9411092"><ele>303.0</ele><time>2026-04-16T14:38:02.999Z</time></trkpt><trkpt lat="44.6298185" lon="8.9412017"><ele>303.0</ele><time>2026-04-16T14:38:03.999Z</time></trkpt><trkpt lat="44.6296704" lon="8.9413005"><ele>303.0</ele><time>2026-04-16T14:38:04.999Z</time></trkpt><trkpt lat="44.6295114" lon="8.9414058"><ele>303.0</ele><time>2026-04-16T14:38:05.999Z</time></trkpt><trkpt lat="44.6293491" lon="8.9415202"><ele>303.0</ele><time>2026-04-16T14:38:06.999Z</time></trkpt><trkpt lat="44.6291793" lon="8.941639"><ele>303.0</ele><time>2026-04-16T14:38:07.999Z</time></trkpt><trkpt lat="44.6289983" lon="8.9417657"><ele>303.0</ele><time>2026-04-16T14:38:08.999Z</time></trkpt><trkpt lat="44.628826" lon="8.9418825"><ele>303.0</ele><time>2026-04-16T14:38:09.999Z</time></trkpt><trkpt lat="44.6286483" lon="8.9420046"><ele>303.0</ele><time>2026-04-16T14:38:10.999Z</time></trkpt><trkpt lat="44.6284685" lon="8.9421265"><ele>303.0</ele><time>2026-04-16T14:38:11.999Z</time></trkpt><trkpt lat="44.6282907" lon="8.9422568"><ele>302.6666666666667</ele><time>2026-04-16T14:38:12.999Z</time></trkpt><trkpt lat="44.6281193" lon="8.9423919"><ele>302.33333333333337</ele><time>2026-04-16T14:38:13.999Z</time></trkpt><trkpt lat="44.6279522" lon="8.942557"><ele>302.0</ele><time>2026-04-16T14:38:14.999Z</time></trkpt><trkpt lat="44.6277974" lon="8.9427526"><ele>302.6666666666667</ele><time>2026-04-16T14:38:15.999Z</time></trkpt><trkpt lat="44.6276509" lon="8.9429712"><ele>303.3333333333333</ele><time>2026-04-16T14:38:16.999Z</time></trkpt><trkpt lat="44.6275131" lon="8.9432021"><ele>304.0</ele><time>2026-04-16T14:38:17.999Z</time></trkpt><trkpt lat="44.6273709" lon="8.9434406"><ele>304.0</ele><time>2026-04-16T14:38:18.999Z</time></trkpt><trkpt lat="44.6272245" lon="8.9436885"><ele>304.0</ele><time>2026-04-16T14:38:19.999Z</time></trkpt><trkpt lat="44.627074" lon="8.9439262"><ele>306.3333333333333</ele><time>2026-04-16T14:38:20.999Z</time></trkpt><trkpt lat="44.626928" lon="8.9441556"><ele>308.6666666666667</ele><time>2026-04-16T14:38:21.999Z</time></trkpt><trkpt lat="44.626778" lon="8.9443955"><ele>311.0</ele><time>2026-04-16T14:38:22.999Z</time></trkpt><trkpt lat="44.6266283" lon="8.9446356"><ele>311.0</ele><time>2026-04-16T14:38:23.999Z</time></trkpt><trkpt lat="44.6264703" lon="8.9448857"><ele>311.0</ele><time>2026-04-16T14:38:24.999Z</time></trkpt><trkpt lat="44.6263207" lon="8.9451192"><ele>308.0</ele><time>2026-04-16T14:38:25.998Z</time></trkpt><trkpt lat="44.6261658" lon="8.9453652"><ele>305.0</ele><time>2026-04-16T14:38:26.999Z</time></trkpt><trkpt lat="44.6260075" lon="8.9456194"><ele>308.5</ele><time>2026-04-16T14:38:27.999Z</time></trkpt><trkpt lat="44.6258618" lon="8.9458728"><ele>312.0</ele><time>2026-04-16T14:38:28.999Z</time></trkpt><trkpt lat="44.6257277" lon="8.9461287"><ele>312.0</ele><time>2026-04-16T14:38:29.999Z</time></trkpt><trkpt lat="44.6255961" lon="8.9464001"><ele>312.0</ele><time>2026-04-16T14:38:30.999Z</time></trkpt><trkpt lat="44.6254696" lon="8.9466764"><ele>308.5</ele><time>2026-04-16T14:38:31.999Z</time></trkpt><trkpt lat="44.6253411" lon="8.9469625"><ele>305.0</ele><time>2026-04-16T14:38:32.999Z</time></trkpt><trkpt lat="44.6252223" lon="8.9472263"><ele>310.0</ele><time>2026-04-16T14:38:33.999Z</time></trkpt><trkpt lat="44.625098" lon="8.9474848"><ele>315.0</ele><time>2026-04-16T14:38:34.999Z</time></trkpt><trkpt lat="44.6249615" lon="8.9477464"><ele>315.0</ele><time>2026-04-16T14:38:35.999Z</time></trkpt><trkpt lat="44.6248208" lon="8.9479968"><ele>315.0</ele><time>2026-04-16T14:38:36.999Z</time></trkpt><trkpt lat="44.6246794" lon="8.9482362"><ele>315.0</ele><time>2026-04-16T14:38:37.999Z</time></trkpt><trkpt lat="44.6245334" lon="8.9484845"><ele>319.0</ele><time>2026-04-16T14:38:38.999Z</time></trkpt><trkpt lat="44.6243929" lon="8.9487264"><ele>323.0</ele><time>2026-04-16T14:38:39.999Z</time></trkpt><trkpt lat="44.6242506" lon="8.9489666"><ele>327.0</ele><time>2026-04-16T14:38:40.999Z</time></trkpt><trkpt lat="44.624117" lon="8.9491893"><ele>322.0</ele><time>2026-04-16T14:38:41.999Z</time></trkpt><trkpt lat="44.6239822" lon="8.9493986"><ele>317.0</ele><time>2026-04-16T14:38:42.999Z</time></trkpt><trkpt lat="44.6238442" lon="8.949594"><ele>312.0</ele><time>2026-04-16T14:38:43.999Z</time></trkpt><trkpt lat="44.6237164" lon="8.9497721"><ele>311.5</ele><time>2026-04-16T14:38:44.999Z</time></trkpt><trkpt lat="44.6235877" lon="8.9499341"><ele>311.0</ele><time>2026-04-16T14:38:46.118Z</time></trkpt><trkpt lat="44.623337" lon="8.9502235"><ele>311.0</ele><time>2026-04-16T14:38:47.999Z</time></trkpt><trkpt lat="44.6232145" lon="8.9503592"><ele>311.0</ele><time>2026-04-16T14:38:48.999Z</time></trkpt><trkpt lat="44.6230983" lon="8.9504732"><ele>311.0</ele><time>2026-04-16T14:38:49.999Z</time></trkpt><trkpt lat="44.6229772" lon="8.9505638"><ele>311.0</ele><time>2026-04-16T14:38:50.999Z</time></trkpt><trkpt lat="44.622842" lon="8.9506308"><ele>312.5</ele><time>2026-04-16T14:38:51.999Z</time></trkpt><trkpt lat="44.6227084" lon="8.9506512"><ele>314.0</ele><time>2026-04-16T14:38:52.999Z</time></trkpt><trkpt lat="44.6225739" lon="8.9506362"><ele>315.5</ele><time>2026-04-16T14:38:53.999Z</time></trkpt><trkpt lat="44.6224392" lon="8.9505777"><ele>317.0</ele><time>2026-04-16T14:38:54.999Z</time></trkpt><trkpt lat="44.622312" lon="8.9504776"><ele>317.0</ele><time>2026-04-16T14:38:55.999Z</time></trkpt><trkpt lat="44.6221917" lon="8.9503406"><ele>317.0</ele><time>2026-04-16T14:38:56.999Z</time></trkpt><trkpt lat="44.622089" lon="8.9501789"><ele>317.0</ele><time>2026-04-16T14:38:57.999Z</time></trkpt><trkpt lat="44.6220065" lon="8.949978"><ele>317.5</ele><time>2026-04-16T14:38:58.999Z</time></trkpt><trkpt lat="44.6219428" lon="8.9497575"><ele>318.0</ele><time>2026-04-16T14:39:00.107Z</time></trkpt><trkpt lat="44.621838" lon="8.9493253"><ele>319.3333333333333</ele><time>2026-04-16T14:39:01.999Z</time></trkpt><trkpt lat="44.6217845" lon="8.9490974"><ele>320.66666666666663</ele><time>2026-04-16T14:39:02.999Z</time></trkpt><trkpt lat="44.6217293" lon="8.9488601"><ele>322.0</ele><time>2026-04-16T14:39:03.999Z</time></trkpt><trkpt lat="44.6216665" lon="8.9486137"><ele>326.0</ele><time>2026-04-16T14:39:04.999Z</time></trkpt><trkpt lat="44.6216049" lon="8.9483742"><ele>330.0</ele><time>2026-04-16T14:39:05.999Z</time></trkpt><trkpt lat="44.6215347" lon="8.9481286"><ele>334.0</ele><time>2026-04-16T14:39:06.999Z</time></trkpt><trkpt lat="44.6214515" lon="8.9478784"><ele>334.0</ele><time>2026-04-16T14:39:07.999Z</time></trkpt><trkpt lat="44.6213617" lon="8.9476438"><ele>334.0</ele><time>2026-04-16T14:39:08.999Z</time></trkpt><trkpt lat="44.6212592" lon="8.9474157"><ele>334.0</ele><time>2026-04-16T14:39:09.999Z</time></trkpt><trkpt lat="44.621154" lon="8.947191"><ele>333.0</ele><time>2026-04-16T14:39:10.999Z</time></trkpt><trkpt lat="44.6210524" lon="8.9469743"><ele>332.0</ele><time>2026-04-16T14:39:11.999Z</time></trkpt><trkpt lat="44.620936" lon="8.9467487"><ele>331.0</ele><time>2026-04-16T14:39:13Z</time></trkpt><trkpt lat="44.6208201" lon="8.9465398"><ele>331.0</ele><time>2026-04-16T14:39:13.999Z</time></trkpt><trkpt lat="44.6206935" lon="8.9463323"><ele>331.0</ele><time>2026-04-16T14:39:14.999Z</time></trkpt><trkpt lat="44.6205579" lon="8.9461328"><ele>331.0</ele><time>2026-04-16T14:39:15.999Z</time></trkpt><trkpt lat="44.6204182" lon="8.9459482"><ele>327.0</ele><time>2026-04-16T14:39:16.999Z</time></trkpt><trkpt lat="44.6202841" lon="8.9457956"><ele>323.0</ele><time>2026-04-16T14:39:17.998Z</time></trkpt><trkpt lat="44.6201353" lon="8.9456603"><ele>319.0</ele><time>2026-04-16T14:39:18.999Z</time></trkpt><trkpt lat="44.6199775" lon="8.9455609"><ele>319.0</ele><time>2026-04-16T14:39:19.999Z</time></trkpt><trkpt lat="44.6198151" lon="8.9454819"><ele>319.0</ele><time>2026-04-16T14:39:20.999Z</time></trkpt><trkpt lat="44.6196641" lon="8.9454179"><ele>319.0</ele><time>2026-04-16T14:39:21.999Z</time></trkpt><trkpt lat="44.619496" lon="8.9453534"><ele>317.3333333333333</ele><time>2026-04-16T14:39:22.999Z</time></trkpt><trkpt lat="44.6193315" lon="8.9452936"><ele>315.6666666666667</ele><time>2026-04-16T14:39:23.999Z</time></trkpt><trkpt lat="44.619179" lon="8.9452343"><ele>314.0</ele><time>2026-04-16T14:39:24.999Z</time></trkpt><trkpt lat="44.6190281" lon="8.9451713"><ele>314.0</ele><time>2026-04-16T14:39:25.999Z</time></trkpt><trkpt lat="44.6188796" lon="8.9451077"><ele>314.0</ele><time>2026-04-16T14:39:26.999Z</time></trkpt><trkpt lat="44.6187309" lon="8.9450478"><ele>314.0</ele><time>2026-04-16T14:39:27.999Z</time></trkpt><trkpt lat="44.6185869" lon="8.9449786"><ele>316.0</ele><time>2026-04-16T14:39:28.999Z</time></trkpt><trkpt lat="44.6184527" lon="8.944907"><ele>318.0</ele><time>2026-04-16T14:39:29.999Z</time></trkpt><trkpt lat="44.6183237" lon="8.9448204"><ele>320.0</ele><time>2026-04-16T14:39:30.999Z</time></trkpt><trkpt lat="44.6182079" lon="8.9447236"><ele>322.0</ele><time>2026-04-16T14:39:31.999Z</time></trkpt><trkpt lat="44.6180939" lon="8.9446206"><ele>322.0</ele><time>2026-04-16T14:39:32.999Z</time></trkpt><trkpt lat="44.6179839" lon="8.9445129"><ele>322.0</ele><time>2026-04-16T14:39:33.999Z</time></trkpt><trkpt lat="44.6178722" lon="8.9444002"><ele>322.0</ele><time>2026-04-16T14:39:34.999Z</time></trkpt><trkpt lat="44.6177553" lon="8.9442978"><ele>322.0</ele><time>2026-04-16T14:39:35.999Z</time></trkpt><trkpt lat="44.6176303" lon="8.9442098"><ele>323.75</ele><time>2026-04-16T14:39:36.999Z</time></trkpt><trkpt lat="44.6174984" lon="8.9441418"><ele>325.5</ele><time>2026-04-16T14:39:37.999Z</time></trkpt><trkpt lat="44.6173701" lon="8.9441078"><ele>327.25</ele><time>2026-04-16T14:39:38.999Z</time></trkpt><trkpt lat="44.617241" lon="8.9441045"><ele>329.0</ele><time>2026-04-16T14:39:39.999Z</time></trkpt><trkpt lat="44.6171162" lon="8.9441172"><ele>329.0</ele><time>2026-04-16T14:39:40.999Z</time></trkpt><trkpt lat="44.6169991" lon="8.9441372"><ele>329.0</ele><time>2026-04-16T14:39:41.999Z</time></trkpt><trkpt lat="44.6168828" lon="8.9441594"><ele>329.0</ele><time>2026-04-16T14:39:42.999Z</time></trkpt><trkpt lat="44.6167743" lon="8.9441817"><ele>329.0</ele><time>2026-04-16T14:39:43.999Z</time></trkpt><trkpt lat="44.6166603" lon="8.9442063"><ele>328.0</ele><time>2026-04-16T14:39:44.999Z</time></trkpt><trkpt lat="44.6165541" lon="8.9442303"><ele>327.0</ele><time>2026-04-16T14:39:45.999Z</time></trkpt><trkpt lat="44.6164456" lon="8.9442613"><ele>326.0</ele><time>2026-04-16T14:39:46.999Z</time></trkpt><trkpt lat="44.6163335" lon="8.9443085"><ele>325.0</ele><time>2026-04-16T14:39:47.999Z</time></trkpt><trkpt lat="44.6162336" lon="8.9443733"><ele>324.0</ele><time>2026-04-16T14:39:48.999Z</time></trkpt><trkpt lat="44.6161453" lon="8.9444654"><ele>324.0</ele><time>2026-04-16T14:39:49.999Z</time></trkpt><trkpt lat="44.6160644" lon="8.944576"><ele>324.0</ele><time>2026-04-16T14:39:50.999Z</time></trkpt><trkpt lat="44.6159935" lon="8.9447089"><ele>324.0</ele><time>2026-04-16T14:39:51.999Z</time></trkpt><trkpt lat="44.615926" lon="8.9448549"><ele>324.0</ele><time>2026-04-16T14:39:52.999Z</time></trkpt><trkpt lat="44.6158668" lon="8.9450014"><ele>323.0</ele><time>2026-04-16T14:39:53.999Z</time></trkpt><trkpt lat="44.6158113" lon="8.9451563"><ele>322.0</ele><time>2026-04-16T14:39:54.999Z</time></trkpt><trkpt lat="44.6157503" lon="8.9453168"><ele>321.0</ele><time>2026-04-16T14:39:55.999Z</time></trkpt><trkpt lat="44.6156924" lon="8.9454697"><ele>320.0</ele><time>2026-04-16T14:39:56.999Z</time></trkpt><trkpt lat="44.6156331" lon="8.9456152"><ele>320.0</ele><time>2026-04-16T14:39:57.999Z</time></trkpt><trkpt lat="44.6155741" lon="8.9457629"><ele>320.0</ele><time>2026-04-16T14:39:58.999Z</time></trkpt><trkpt lat="44.6155135" lon="8.945914"><ele>320.0</ele><time>2026-04-16T14:39:59.999Z</time></trkpt><trkpt lat="44.6154537" lon="8.9460667"><ele>320.0</ele><time>2026-04-16T14:40:00.999Z</time></trkpt><trkpt lat="44.6153966" lon="8.9462128"><ele>319.75</ele><time>2026-04-16T14:40:01.999Z</time></trkpt><trkpt lat="44.6153368" lon="8.9463647"><ele>319.5</ele><time>2026-04-16T14:40:02.999Z</time></trkpt><trkpt lat="44.6152736" lon="8.9465227"><ele>319.25</ele><time>2026-04-16T14:40:03.998Z</time></trkpt><trkpt lat="44.615215" lon="8.94667"><ele>319.0</ele><time>2026-04-16T14:40:04.999Z</time></trkpt><trkpt lat="44.6151515" lon="8.9468239"><ele>320.75</ele><time>2026-04-16T14:40:05.999Z</time></trkpt><trkpt lat="44.6150911" lon="8.9469706"><ele>322.5</ele><time>2026-04-16T14:40:06.999Z</time></trkpt><trkpt lat="44.6150325" lon="8.9471229"><ele>324.25</ele><time>2026-04-16T14:40:07.999Z</time></trkpt><trkpt lat="44.6149741" lon="8.9472741"><ele>326.0</ele><time>2026-04-16T14:40:08.999Z</time></trkpt><trkpt lat="44.6149178" lon="8.9473977"><ele>326.0</ele><time>2026-04-16T14:40:09.999Z</time></trkpt><trkpt lat="44.6148652" lon="8.9475256"><ele>326.0</ele><time>2026-04-16T14:40:10.999Z</time></trkpt><trkpt lat="44.6148064" lon="8.9476586"><ele>326.0</ele><time>2026-04-16T14:40:11.999Z</time></trkpt><trkpt lat="44.6147523" lon="8.947788"><ele>326.0</ele><time>2026-04-16T14:40:12.999Z</time></trkpt><trkpt lat="44.6147024" lon="8.9479156"><ele>326.0</ele><time>2026-04-16T14:40:13.999Z</time></trkpt><trkpt lat="44.6146536" lon="8.9480515"><ele>325.4</ele><time>2026-04-16T14:40:14.999Z</time></trkpt><trkpt lat="44.6146033" lon="8.948178"><ele>324.8</ele><time>2026-04-16T14:40:15.999Z</time></trkpt><trkpt lat="44.6145492" lon="8.9482991"><ele>324.2</ele><time>2026-04-16T14:40:16.999Z</time></trkpt><trkpt lat="44.614501" lon="8.9484061"><ele>323.59999999999997</ele><time>2026-04-16T14:40:17.999Z</time></trkpt><trkpt lat="44.6144563" lon="8.9485101"><ele>323.0</ele><time>2026-04-16T14:40:18.999Z</time></trkpt><trkpt lat="44.6144149" lon="8.94859"><ele>323.0</ele><time>2026-04-16T14:40:19.999Z</time></trkpt><trkpt lat="44.6143586" lon="8.9486677"><ele>323.0</ele><time>2026-04-16T14:40:20.999Z</time></trkpt><trkpt lat="44.614294" lon="8.9487266"><ele>323.0</ele><time>2026-04-16T14:40:21.999Z</time></trkpt><trkpt lat="44.6142255" lon="8.9487553"><ele>323.0</ele><time>2026-04-16T14:40:22.999Z</time></trkpt><trkpt lat="44.6141499" lon="8.9487855"><ele>323.0</ele><time>2026-04-16T14:40:23.999Z</time></trkpt><trkpt lat="44.6140852" lon="8.948809"><ele>323.0</ele><time>2026-04-16T14:40:24.999Z</time></trkpt><trkpt lat="44.6139693" lon="8.9488256"><ele>323.0</ele><time>2026-04-16T14:40:26.999Z</time></trkpt><trkpt lat="44.6138992" lon="8.9488364"><ele>323.0</ele><time>2026-04-16T14:40:27.999Z</time></trkpt><trkpt lat="44.6138198" lon="8.9488629"><ele>323.0</ele><time>2026-04-16T14:40:28.999Z</time></trkpt><trkpt lat="44.6137396" lon="8.9488939"><ele>323.0</ele><time>2026-04-16T14:40:29.999Z</time></trkpt><trkpt lat="44.6136572" lon="8.9489399"><ele>323.0</ele><time>2026-04-16T14:40:30.999Z</time></trkpt><trkpt lat="44.6135673" lon="8.9489962"><ele>323.0</ele><time>2026-04-16T14:40:31.999Z</time></trkpt><trkpt lat="44.6134709" lon="8.9490657"><ele>323.4</ele><time>2026-04-16T14:40:32.999Z</time></trkpt><trkpt lat="44.6133798" lon="8.949136"><ele>323.79999999999995</ele><time>2026-04-16T14:40:33.999Z</time></trkpt><trkpt lat="44.6132845" lon="8.9492105"><ele>324.2</ele><time>2026-04-16T14:40:34.999Z</time></trkpt><trkpt lat="44.6131914" lon="8.9492793"><ele>324.6</ele><time>2026-04-16T14:40:35.999Z</time></trkpt><trkpt lat="44.6130965" lon="8.9493514"><ele>325.0</ele><time>2026-04-16T14:40:36.999Z</time></trkpt><trkpt lat="44.6130023" lon="8.9494237"><ele>325.0</ele><time>2026-04-16T14:40:37.999Z</time></trkpt><trkpt lat="44.612906" lon="8.9494979"><ele>325.0</ele><time>2026-04-16T14:40:38.999Z</time></trkpt><trkpt lat="44.6128083" lon="8.9495738"><ele>325.0</ele><time>2026-04-16T14:40:39.999Z</time></trkpt><trkpt lat="44.6127074" lon="8.949651"><ele>325.0</ele><time>2026-04-16T14:40:40.999Z</time></trkpt><trkpt lat="44.6126107" lon="8.9497227"><ele>325.0</ele><time>2026-04-16T14:40:41.998Z</time></trkpt><trkpt lat="44.6125096" lon="8.9498053"><ele>326.0</ele><time>2026-04-16T14:40:42.999Z</time></trkpt><trkpt lat="44.6124074" lon="8.9498942"><ele>327.0</ele><time>2026-04-16T14:40:43.999Z</time></trkpt><trkpt lat="44.6123236" lon="8.9499936"><ele>328.0</ele><time>2026-04-16T14:40:44.999Z</time></trkpt><trkpt lat="44.6122534" lon="8.9501143"><ele>329.0</ele><time>2026-04-16T14:40:45.999Z</time></trkpt><trkpt lat="44.6122097" lon="8.9502549"><ele>329.0</ele><time>2026-04-16T14:40:46.999Z</time></trkpt><trkpt lat="44.6121931" lon="8.9504044"><ele>329.0</ele><time>2026-04-16T14:40:47.998Z</time></trkpt><trkpt lat="44.6121953" lon="8.9505636"><ele>329.0</ele><time>2026-04-16T14:40:48.999Z</time></trkpt><trkpt lat="44.6122062" lon="8.950713"><ele>329.0</ele><time>2026-04-16T14:40:49.999Z</time></trkpt><trkpt lat="44.6122237" lon="8.9508732"><ele>329.0</ele><time>2026-04-16T14:40:50.999Z</time></trkpt><trkpt lat="44.6122463" lon="8.9510275"><ele>329.79999999999995</ele><time>2026-04-16T14:40:51.999Z</time></trkpt><trkpt lat="44.6122691" lon="8.9511746"><ele>330.59999999999997</ele><time>2026-04-16T14:40:52.999Z</time></trkpt><trkpt lat="44.6122889" lon="8.9513136"><ele>331.4</ele><time>2026-04-16T14:40:53.999Z</time></trkpt><trkpt lat="44.6123113" lon="8.9514599"><ele>332.2</ele><time>2026-04-16T14:40:54.999Z</time></trkpt><trkpt lat="44.6123291" lon="8.9516032"><ele>333.0</ele><time>2026-04-16T14:40:55.999Z</time></trkpt><trkpt lat="44.6123503" lon="8.9517546"><ele>333.0</ele><time>2026-04-16T14:40:56.999Z</time></trkpt><trkpt lat="44.6123714" lon="8.9518942"><ele>333.0</ele><time>2026-04-16T14:40:57.999Z</time></trkpt><trkpt lat="44.6123973" lon="8.952044"><ele>333.0</ele><time>2026-04-16T14:40:58.999Z</time></trkpt><trkpt lat="44.612422" lon="8.9522014"><ele>333.0</ele><time>2026-04-16T14:40:59.999Z</time></trkpt><trkpt lat="44.6124436" lon="8.9523554"><ele>333.0</ele><time>2026-04-16T14:41:00.999Z</time></trkpt><trkpt lat="44.6124593" lon="8.9525003"><ele>332.3333333333333</ele><time>2026-04-16T14:41:01.999Z</time></trkpt><trkpt lat="44.612464" lon="8.9526474"><ele>331.6666666666667</ele><time>2026-04-16T14:41:02.999Z</time></trkpt><trkpt lat="44.6124588" lon="8.9527858"><ele>331.0</ele><time>2026-04-16T14:41:03.999Z</time></trkpt><trkpt lat="44.6124442" lon="8.9528935"><ele>330.33333333333337</ele><time>2026-04-16T14:41:04.999Z</time></trkpt><trkpt lat="44.6124266" lon="8.9529788"><ele>329.6666666666667</ele><time>2026-04-16T14:41:05.999Z</time></trkpt><trkpt lat="44.612383" lon="8.9530814"><ele>329.0</ele><time>2026-04-16T14:41:07.999Z</time></trkpt><trkpt lat="44.6123284" lon="8.953168"><ele>329.0</ele><time>2026-04-16T14:41:10.999Z</time></trkpt><trkpt lat="44.6122696" lon="8.9532282"><ele>329.0</ele><time>2026-04-16T14:41:21.999Z</time></trkpt><trkpt lat="44.6122179" lon="8.9532886"><ele>329.0</ele><time>2026-04-16T14:41:25.999Z</time></trkpt><trkpt lat="44.6121504" lon="8.953362"><ele>329.0</ele><time>2026-04-16T14:41:35.999Z</time></trkpt><trkpt lat="44.6120873" lon="8.9534167"><ele>329.0</ele><time>2026-04-16T14:41:37.999Z</time></trkpt><trkpt lat="44.6120246" lon="8.9534752"><ele>329.0</ele><time>2026-04-16T14:41:39.999Z</time></trkpt><trkpt lat="44.6119355" lon="8.9535299"><ele>329.33333333333337</ele><time>2026-04-16T14:41:41.999Z</time></trkpt><trkpt lat="44.611828" lon="8.9536027"><ele>329.6666666666667</ele><time>2026-04-16T14:41:43.999Z</time></trkpt><trkpt lat="44.6117616" lon="8.9536499"><ele>330.0</ele><time>2026-04-16T14:41:44.999Z</time></trkpt><trkpt lat="44.6116913" lon="8.9537006"><ele>330.3333333333333</ele><time>2026-04-16T14:41:45.999Z</time></trkpt><trkpt lat="44.6116193" lon="8.9537522"><ele>330.66666666666663</ele><time>2026-04-16T14:41:46.999Z</time></trkpt><trkpt lat="44.6115399" lon="8.9538053"><ele>331.0</ele><time>2026-04-16T14:41:47.999Z</time></trkpt><trkpt lat="44.6114638" lon="8.9538549"><ele>331.0</ele><time>2026-04-16T14:41:48.999Z</time></trkpt><trkpt lat="44.6113871" lon="8.9539046"><ele>331.0</ele><time>2026-04-16T14:41:49.999Z</time></trkpt><trkpt lat="44.6113165" lon="8.9539523"><ele>331.0</ele><time>2026-04-16T14:41:50.999Z</time></trkpt><trkpt lat="44.611248" lon="8.9539976"><ele>331.0</ele><time>2026-04-16T14:41:51.999Z</time></trkpt><trkpt lat="44.6111771" lon="8.9540457"><ele>331.0</ele><time>2026-04-16T14:41:52.999Z</time></trkpt><trkpt lat="44.611106" lon="8.9540917"><ele>331.0</ele><time>2026-04-16T14:41:53.999Z</time></trkpt><trkpt lat="44.6110314" lon="8.9541354"><ele>331.3333333333333</ele><time>2026-04-16T14:41:54.999Z</time></trkpt><trkpt lat="44.6109544" lon="8.9541787"><ele>331.66666666666663</ele><time>2026-04-16T14:41:55.999Z</time></trkpt><trkpt lat="44.6108837" lon="8.9542122"><ele>332.0</ele><time>2026-04-16T14:41:56.999Z</time></trkpt><trkpt lat="44.610811" lon="8.9542502"><ele>332.3333333333333</ele><time>2026-04-16T14:41:57.999Z</time></trkpt><trkpt lat="44.6107382" lon="8.9542896"><ele>332.6666666666667</ele><time>2026-04-16T14:41:58.999Z</time></trkpt><trkpt lat="44.6106546" lon="8.954328"><ele>333.0</ele><time>2026-04-16T14:41:59.999Z</time></trkpt><trkpt lat="44.6105683" lon="8.9543622"><ele>333.0</ele><time>2026-04-16T14:42:00.999Z</time></trkpt><trkpt lat="44.6104828" lon="8.9543921"><ele>333.0</ele><time>2026-04-16T14:42:01.999Z</time></trkpt><trkpt lat="44.6104016" lon="8.9544234"><ele>333.0</ele><time>2026-04-16T14:42:02.999Z</time></trkpt><trkpt lat="44.6103217" lon="8.9544525"><ele>333.0</ele><time>2026-04-16T14:42:03.999Z</time></trkpt><trkpt lat="44.6102491" lon="8.9544785"><ele>333.0</ele><time>2026-04-16T14:42:04.999Z</time></trkpt><trkpt lat="44.6101724" lon="8.9545131"><ele>333.0</ele><time>2026-04-16T14:42:05.999Z</time></trkpt><trkpt lat="44.6100883" lon="8.9545373"><ele>333.4</ele><time>2026-04-16T14:42:06.999Z</time></trkpt><trkpt lat="44.6099995" lon="8.9545718"><ele>333.79999999999995</ele><time>2026-04-16T14:42:07.999Z</time></trkpt><trkpt lat="44.6099064" lon="8.9546063"><ele>334.2</ele><time>2026-04-16T14:42:08.999Z</time></trkpt><trkpt lat="44.6098179" lon="8.954635"><ele>334.6</ele><time>2026-04-16T14:42:09.999Z</time></trkpt><trkpt lat="44.6097278" lon="8.9546612"><ele>335.0</ele><time>2026-04-16T14:42:10.999Z</time></trkpt><trkpt lat="44.6096345" lon="8.9546991"><ele>335.0</ele><time>2026-04-16T14:42:11.999Z</time></trkpt><trkpt lat="44.6095475" lon="8.9547293"><ele>335.0</ele><time>2026-04-16T14:42:12.999Z</time></trkpt><trkpt lat="44.609465" lon="8.9547581"><ele>335.0</ele><time>2026-04-16T14:42:13.999Z</time></trkpt><trkpt lat="44.6093858" lon="8.9547823"><ele>335.0</ele><time>2026-04-16T14:42:14.999Z</time></trkpt><trkpt lat="44.6093078" lon="8.9548128"><ele>335.0</ele><time>2026-04-16T14:42:15.999Z</time></trkpt><trkpt lat="44.6092312" lon="8.9548396"><ele>335.0</ele><time>2026-04-16T14:42:16.999Z</time></trkpt><trkpt lat="44.609156" lon="8.9548684"><ele>335.0</ele><time>2026-04-16T14:42:17.999Z</time></trkpt><trkpt lat="44.6090783" lon="8.9548999"><ele>335.0</ele><time>2026-04-16T14:42:18.999Z</time></trkpt><trkpt lat="44.6089911" lon="8.9549396"><ele>335.0</ele><time>2026-04-16T14:42:19.999Z</time></trkpt><trkpt lat="44.6089033" lon="8.9549748"><ele>335.0</ele><time>2026-04-16T14:42:20.999Z</time></trkpt><trkpt lat="44.608803" lon="8.9550115"><ele>335.0</ele><time>2026-04-16T14:42:21.999Z</time></trkpt><trkpt lat="44.6087035" lon="8.9550464"><ele>334.6666666666667</ele><time>2026-04-16T14:42:24.11Z</time></trkpt><trkpt lat="44.6084206" lon="8.9551295"><ele>334.3333333333333</ele><time>2026-04-16T14:42:25.999Z</time></trkpt><trkpt lat="44.6083306" lon="8.9551413"><ele>334.0</ele><time>2026-04-16T14:42:26.999Z</time></trkpt><trkpt lat="44.608238" lon="8.9551435"><ele>334.0</ele><time>2026-04-16T14:42:27.999Z</time></trkpt><trkpt lat="44.6081494" lon="8.9551408"><ele>334.0</ele><time>2026-04-16T14:42:28.999Z</time></trkpt><trkpt lat="44.608074" lon="8.9551398"><ele>334.0</ele><time>2026-04-16T14:42:29.999Z</time></trkpt><trkpt lat="44.6080104" lon="8.9551342"><ele>334.0</ele><time>2026-04-16T14:42:30.999Z</time></trkpt><trkpt lat="44.6078885" lon="8.9551145"><ele>334.0</ele><time>2026-04-16T14:42:32.999Z</time></trkpt><trkpt lat="44.6078188" lon="8.9551023"><ele>334.0</ele><time>2026-04-16T14:42:33.999Z</time></trkpt><trkpt lat="44.6077357" lon="8.9550763"><ele>333.75</ele><time>2026-04-16T14:42:34.999Z</time></trkpt><trkpt lat="44.607634" lon="8.9550287"><ele>333.5</ele><time>2026-04-16T14:42:35.999Z</time></trkpt><trkpt lat="44.6075378" lon="8.9549532"><ele>333.25</ele><time>2026-04-16T14:42:36.999Z</time></trkpt><trkpt lat="44.6074428" lon="8.9548483"><ele>333.0</ele><time>2026-04-16T14:42:37.999Z</time></trkpt><trkpt lat="44.6073416" lon="8.9547063"><ele>333.0</ele><time>2026-04-16T14:42:38.999Z</time></trkpt><trkpt lat="44.6072482" lon="8.9545406"><ele>333.0</ele><time>2026-04-16T14:42:39.999Z</time></trkpt><trkpt lat="44.6071604" lon="8.9543561"><ele>333.0</ele><time>2026-04-16T14:42:40.999Z</time></trkpt><trkpt lat="44.607079" lon="8.9541565"><ele>331.3333333333333</ele><time>2026-04-16T14:42:41.999Z</time></trkpt><trkpt lat="44.607" lon="8.9539609"><ele>329.66666666666663</ele><time>2026-04-16T14:42:42.999Z</time></trkpt><trkpt lat="44.6069219" lon="8.9537605"><ele>328.0</ele><time>2026-04-16T14:42:43.999Z</time></trkpt><trkpt lat="44.6068474" lon="8.9535689"><ele>328.0</ele><time>2026-04-16T14:42:44.999Z</time></trkpt><trkpt lat="44.6067763" lon="8.9533732"><ele>328.0</ele><time>2026-04-16T14:42:45.999Z</time></trkpt><trkpt lat="44.6067127" lon="8.9531762"><ele>328.0</ele><time>2026-04-16T14:42:46.999Z</time></trkpt><trkpt lat="44.6066551" lon="8.952977"><ele>330.5</ele><time>2026-04-16T14:42:47.999Z</time></trkpt><trkpt lat="44.6065967" lon="8.9527821"><ele>333.0</ele><time>2026-04-16T14:42:48.999Z</time></trkpt><trkpt lat="44.6065315" lon="8.9525961"><ele>335.5</ele><time>2026-04-16T14:42:49.999Z</time></trkpt><trkpt lat="44.6064582" lon="8.9524181"><ele>338.0</ele><time>2026-04-16T14:42:50.999Z</time></trkpt><trkpt lat="44.6063722" lon="8.952237"><ele>337.0</ele><time>2026-04-16T14:42:51.999Z</time></trkpt><trkpt lat="44.6062936" lon="8.9520674"><ele>336.0</ele><time>2026-04-16T14:42:52.999Z</time></trkpt><trkpt lat="44.6062206" lon="8.9519034"><ele>335.0</ele><time>2026-04-16T14:42:53.999Z</time></trkpt><trkpt lat="44.6061485" lon="8.9517371"><ele>334.0</ele><time>2026-04-16T14:42:54.999Z</time></trkpt><trkpt lat="44.6060722" lon="8.9515683"><ele>334.0</ele><time>2026-04-16T14:42:55.999Z</time></trkpt><trkpt lat="44.6059941" lon="8.9514049"><ele>334.0</ele><time>2026-04-16T14:42:56.999Z</time></trkpt><trkpt lat="44.6059149" lon="8.9512434"><ele>334.0</ele><time>2026-04-16T14:42:57.999Z</time></trkpt><trkpt lat="44.6058324" lon="8.9510825"><ele>334.0</ele><time>2026-04-16T14:42:58.999Z</time></trkpt><trkpt lat="44.6057439" lon="8.9509229"><ele>337.25</ele><time>2026-04-16T14:42:59.999Z</time></trkpt><trkpt lat="44.6056571" lon="8.950773"><ele>340.5</ele><time>2026-04-16T14:43:00.999Z</time></trkpt><trkpt lat="44.6055601" lon="8.9506203"><ele>343.75</ele><time>2026-04-16T14:43:01.999Z</time></trkpt><trkpt lat="44.6054679" lon="8.9504805"><ele>347.0</ele><time>2026-04-16T14:43:02.999Z</time></trkpt><trkpt lat="44.605377" lon="8.9503453"><ele>345.75</ele><time>2026-04-16T14:43:03.999Z</time></trkpt><trkpt lat="44.6052805" lon="8.9502115"><ele>344.5</ele><time>2026-04-16T14:43:04.999Z</time></trkpt><trkpt lat="44.6051884" lon="8.9500817"><ele>343.25</ele><time>2026-04-16T14:43:05.999Z</time></trkpt><trkpt lat="44.6050965" lon="8.9499583"><ele>342.0</ele><time>2026-04-16T14:43:06.999Z</time></trkpt><trkpt lat="44.6050032" lon="8.9498244"><ele>342.0</ele><time>2026-04-16T14:43:07.999Z</time></trkpt><trkpt lat="44.6049133" lon="8.9496926"><ele>342.0</ele><time>2026-04-16T14:43:08.999Z</time></trkpt><trkpt lat="44.6048284" lon="8.9495666"><ele>342.0</ele><time>2026-04-16T14:43:09.999Z</time></trkpt><trkpt lat="44.6047412" lon="8.9494383"><ele>342.0</ele><time>2026-04-16T14:43:10.999Z</time></trkpt><trkpt lat="44.6046534" lon="8.9493201"><ele>342.0</ele><time>2026-04-16T14:43:11.999Z</time></trkpt><trkpt lat="44.6045643" lon="8.94921"><ele>342.0</ele><time>2026-04-16T14:43:12.999Z</time></trkpt><trkpt lat="44.6044712" lon="8.94911"><ele>342.0</ele><time>2026-04-16T14:43:13.999Z</time></trkpt><trkpt lat="44.6043711" lon="8.9490202"><ele>342.0</ele><time>2026-04-16T14:43:14.999Z</time></trkpt><trkpt lat="44.6042682" lon="8.9489364"><ele>340.0</ele><time>2026-04-16T14:43:15.999Z</time></trkpt><trkpt lat="44.6041672" lon="8.9488654"><ele>338.0</ele><time>2026-04-16T14:43:16.999Z</time></trkpt><trkpt lat="44.6040616" lon="8.9488043"><ele>336.0</ele><time>2026-04-16T14:43:17.999Z</time></trkpt><trkpt lat="44.6039444" lon="8.9487518"><ele>334.0</ele><time>2026-04-16T14:43:18.999Z</time></trkpt><trkpt lat="44.6038187" lon="8.9487051"><ele>334.0</ele><time>2026-04-16T14:43:19.999Z</time></trkpt><trkpt lat="44.6036965" lon="8.9486711"><ele>334.0</ele><time>2026-04-16T14:43:20.999Z</time></trkpt><trkpt lat="44.603573" lon="8.9486517"><ele>334.0</ele><time>2026-04-16T14:43:21.999Z</time></trkpt><trkpt lat="44.6034509" lon="8.9486452"><ele>334.0</ele><time>2026-04-16T14:43:22.999Z</time></trkpt><trkpt lat="44.6033225" lon="8.9486516"><ele>333.25</ele><time>2026-04-16T14:43:23.999Z</time></trkpt><trkpt lat="44.6032022" lon="8.9486686"><ele>332.5</ele><time>2026-04-16T14:43:24.999Z</time></trkpt><trkpt lat="44.6030845" lon="8.9486927"><ele>331.75</ele><time>2026-04-16T14:43:25.999Z</time></trkpt><trkpt lat="44.6029661" lon="8.9487279"><ele>331.0</ele><time>2026-04-16T14:43:26.999Z</time></trkpt><trkpt lat="44.6028518" lon="8.9487774"><ele>332.25</ele><time>2026-04-16T14:43:27.999Z</time></trkpt><trkpt lat="44.6027357" lon="8.9488364"><ele>333.5</ele><time>2026-04-16T14:43:28.999Z</time></trkpt><trkpt lat="44.6026268" lon="8.9489015"><ele>334.75</ele><time>2026-04-16T14:43:29.999Z</time></trkpt><trkpt lat="44.6025186" lon="8.9489811"><ele>336.0</ele><time>2026-04-16T14:43:30.999Z</time></trkpt><trkpt lat="44.6024098" lon="8.949078"><ele>336.0</ele><time>2026-04-16T14:43:31.999Z</time></trkpt><trkpt lat="44.6023082" lon="8.9491844"><ele>336.0</ele><time>2026-04-16T14:43:32.999Z</time></trkpt><trkpt lat="44.602214" lon="8.9492967"><ele>336.0</ele><time>2026-04-16T14:43:33.999Z</time></trkpt><trkpt lat="44.6021193" lon="8.9494171"><ele>336.0</ele><time>2026-04-16T14:43:34.999Z</time></trkpt><trkpt lat="44.6020264" lon="8.9495347"><ele>336.0</ele><time>2026-04-16T14:43:35.999Z</time></trkpt><trkpt lat="44.6019281" lon="8.9496498"><ele>336.0</ele><time>2026-04-16T14:43:36.999Z</time></trkpt><trkpt lat="44.6018319" lon="8.9497624"><ele>336.0</ele><time>2026-04-16T14:43:37.999Z</time></trkpt><trkpt lat="44.6017375" lon="8.9498748"><ele>336.0</ele><time>2026-04-16T14:43:38.999Z</time></trkpt><trkpt lat="44.6016407" lon="8.9499918"><ele>336.0</ele><time>2026-04-16T14:43:39.999Z</time></trkpt><trkpt lat="44.6015506" lon="8.9501002"><ele>336.0</ele><time>2026-04-16T14:43:40.999Z</time></trkpt><trkpt lat="44.6014596" lon="8.9502134"><ele>336.0</ele><time>2026-04-16T14:43:41.999Z</time></trkpt><trkpt lat="44.6013679" lon="8.9503234"><ele>336.0</ele><time>2026-04-16T14:43:42.999Z</time></trkpt><trkpt lat="44.6012751" lon="8.950433"><ele>336.0</ele><time>2026-04-16T14:43:43.999Z</time></trkpt><trkpt lat="44.6011833" lon="8.9505434"><ele>336.0</ele><time>2026-04-16T14:43:44.999Z</time></trkpt><trkpt lat="44.6010886" lon="8.9506599"><ele>336.0</ele><time>2026-04-16T14:43:45.999Z</time></trkpt><trkpt lat="44.6009887" lon="8.9507782"><ele>336.0</ele><time>2026-04-16T14:43:46.999Z</time></trkpt><trkpt lat="44.6008828" lon="8.9509014"><ele>336.75</ele><time>2026-04-16T14:43:47.999Z</time></trkpt><trkpt lat="44.6007799" lon="8.9510225"><ele>337.5</ele><time>2026-04-16T14:43:48.999Z</time></trkpt><trkpt lat="44.6006798" lon="8.9511407"><ele>338.25</ele><time>2026-04-16T14:43:49.999Z</time></trkpt><trkpt lat="44.6005785" lon="8.9512616"><ele>339.0</ele><time>2026-04-16T14:43:50.999Z</time></trkpt><trkpt lat="44.6004775" lon="8.9513799"><ele>339.0</ele><time>2026-04-16T14:43:51.999Z</time></trkpt><trkpt lat="44.6003756" lon="8.9514982"><ele>339.0</ele><time>2026-04-16T14:43:52.999Z</time></trkpt><trkpt lat="44.6002756" lon="8.9516099"><ele>339.0</ele><time>2026-04-16T14:43:53.999Z</time></trkpt><trkpt lat="44.6001764" lon="8.9517245"><ele>339.0</ele><time>2026-04-16T14:43:54.999Z</time></trkpt><trkpt lat="44.6000781" lon="8.9518377"><ele>339.25</ele><time>2026-04-16T14:43:55.999Z</time></trkpt><trkpt lat="44.5999806" lon="8.9519528"><ele>339.5</ele><time>2026-04-16T14:43:56.999Z</time></trkpt><trkpt lat="44.5998778" lon="8.9520671"><ele>339.75</ele><time>2026-04-16T14:43:57.999Z</time></trkpt><trkpt lat="44.5997725" lon="8.9521762"><ele>340.0</ele><time>2026-04-16T14:43:58.999Z</time></trkpt><trkpt lat="44.5996691" lon="8.9522748"><ele>340.0</ele><time>2026-04-16T14:43:59.999Z</time></trkpt><trkpt lat="44.5995578" lon="8.9523733"><ele>340.0</ele><time>2026-04-16T14:44:00.999Z</time></trkpt><trkpt lat="44.5994464" lon="8.9524596"><ele>340.0</ele><time>2026-04-16T14:44:01.999Z</time></trkpt><trkpt lat="44.5993173" lon="8.9525569"><ele>340.0</ele><time>2026-04-16T14:44:02.999Z</time></trkpt><trkpt lat="44.5991652" lon="8.9526604"><ele>340.0</ele><time>2026-04-16T14:44:03.999Z</time></trkpt><trkpt lat="44.5990023" lon="8.9527554"><ele>340.0</ele><time>2026-04-16T14:44:04.999Z</time></trkpt><trkpt lat="44.5988315" lon="8.9528559"><ele>340.0</ele><time>2026-04-16T14:44:05.999Z</time></trkpt><trkpt lat="44.5986546" lon="8.9529625"><ele>340.0</ele><time>2026-04-16T14:44:06.999Z</time></trkpt><trkpt lat="44.5984809" lon="8.953069"><ele>340.0</ele><time>2026-04-16T14:44:07.999Z</time></trkpt><trkpt lat="44.5983069" lon="8.9531751"><ele>340.0</ele><time>2026-04-16T14:44:08.999Z</time></trkpt><trkpt lat="44.5981416" lon="8.9532723"><ele>340.0</ele><time>2026-04-16T14:44:09.999Z</time></trkpt><trkpt lat="44.597972" lon="8.9533611"><ele>340.0</ele><time>2026-04-16T14:44:10.999Z</time></trkpt><trkpt lat="44.5977959" lon="8.9534351"><ele>340.0</ele><time>2026-04-16T14:44:11.999Z</time></trkpt><trkpt lat="44.5976304" lon="8.9534783"><ele>339.0</ele><time>2026-04-16T14:44:12.999Z</time></trkpt><trkpt lat="44.5974585" lon="8.9534983"><ele>338.0</ele><time>2026-04-16T14:44:13.999Z</time></trkpt><trkpt lat="44.5972835" lon="8.9534978"><ele>337.0</ele><time>2026-04-16T14:44:14.999Z</time></trkpt><trkpt lat="44.5971064" lon="8.9534909"><ele>337.0</ele><time>2026-04-16T14:44:15.999Z</time></trkpt><trkpt lat="44.5969268" lon="8.9534792"><ele>337.0</ele><time>2026-04-16T14:44:16.999Z</time></trkpt><trkpt lat="44.5967463" lon="8.953462"><ele>337.0</ele><time>2026-04-16T14:44:17.999Z</time></trkpt><trkpt lat="44.596561" lon="8.9534422"><ele>337.0</ele><time>2026-04-16T14:44:18.999Z</time></trkpt><trkpt lat="44.5963741" lon="8.9534232"><ele>337.0</ele><time>2026-04-16T14:44:19.999Z</time></trkpt><trkpt lat="44.5961991" lon="8.9534038"><ele>337.0</ele><time>2026-04-16T14:44:20.999Z</time></trkpt><trkpt lat="44.5960378" lon="8.9533915"><ele>337.75</ele><time>2026-04-16T14:44:21.999Z</time></trkpt><trkpt lat="44.5958846" lon="8.9533782"><ele>338.5</ele><time>2026-04-16T14:44:22.999Z</time></trkpt><trkpt lat="44.5957474" lon="8.9533451"><ele>339.25</ele><time>2026-04-16T14:44:23.999Z</time></trkpt><trkpt lat="44.5956191" lon="8.9532791"><ele>340.0</ele><time>2026-04-16T14:44:24.999Z</time></trkpt><trkpt lat="44.5955103" lon="8.9531734"><ele>340.75</ele><time>2026-04-16T14:44:25.999Z</time></trkpt><trkpt lat="44.5954294" lon="8.9530294"><ele>341.5</ele><time>2026-04-16T14:44:26.999Z</time></trkpt><trkpt lat="44.5953877" lon="8.95285"><ele>342.25</ele><time>2026-04-16T14:44:27.999Z</time></trkpt><trkpt lat="44.595376" lon="8.9526545"><ele>343.0</ele><time>2026-04-16T14:44:28.999Z</time></trkpt><trkpt lat="44.5953832" lon="8.9524424"><ele>348.3333333333333</ele><time>2026-04-16T14:44:29.999Z</time></trkpt><trkpt lat="44.5953963" lon="8.9522182"><ele>353.6666666666667</ele><time>2026-04-16T14:44:30.999Z</time></trkpt><trkpt lat="44.5954112" lon="8.9519828"><ele>359.0</ele><time>2026-04-16T14:44:31.999Z</time></trkpt><trkpt lat="44.5954297" lon="8.9517322"><ele>362.33333333333337</ele><time>2026-04-16T14:44:32.999Z</time></trkpt><trkpt lat="44.5954434" lon="8.9514794"><ele>365.6666666666667</ele><time>2026-04-16T14:44:33.999Z</time></trkpt><trkpt lat="44.5954542" lon="8.9512079"><ele>369.0</ele><time>2026-04-16T14:44:34.999Z</time></trkpt><trkpt lat="44.5954679" lon="8.9509265"><ele>368.3333333333333</ele><time>2026-04-16T14:44:35.999Z</time></trkpt><trkpt lat="44.5954839" lon="8.9506458"><ele>367.66666666666663</ele><time>2026-04-16T14:44:36.999Z</time></trkpt><trkpt lat="44.5954981" lon="8.9503608"><ele>367.0</ele><time>2026-04-16T14:44:37.999Z</time></trkpt><trkpt lat="44.5955156" lon="8.9500622"><ele>366.0</ele><time>2026-04-16T14:44:38.999Z</time></trkpt><trkpt lat="44.5955327" lon="8.949758"><ele>365.0</ele><time>2026-04-16T14:44:39.999Z</time></trkpt><trkpt lat="44.5955505" lon="8.9494531"><ele>364.0</ele><time>2026-04-16T14:44:40.999Z</time></trkpt><trkpt lat="44.5955674" lon="8.9491574"><ele>362.0</ele><time>2026-04-16T14:44:41.999Z</time></trkpt><trkpt lat="44.5955822" lon="8.9488724"><ele>360.0</ele><time>2026-04-16T14:44:42.999Z</time></trkpt><trkpt lat="44.5955888" lon="8.9485835"><ele>358.0</ele><time>2026-04-16T14:44:43.999Z</time></trkpt><trkpt lat="44.595574" lon="8.9483166"><ele>358.0</ele><time>2026-04-16T14:44:44.999Z</time></trkpt><trkpt lat="44.5955339" lon="8.9480463"><ele>358.0</ele><time>2026-04-16T14:44:45.999Z</time></trkpt><trkpt lat="44.595482" lon="8.9477789"><ele>358.0</ele><time>2026-04-16T14:44:46.999Z</time></trkpt><trkpt lat="44.5954453" lon="8.9475086"><ele>360.0</ele><time>2026-04-16T14:44:47.999Z</time></trkpt><trkpt lat="44.5954265" lon="8.947224"><ele>362.0</ele><time>2026-04-16T14:44:48.999Z</time></trkpt><trkpt lat="44.595426" lon="8.9469541"><ele>364.0</ele><time>2026-04-16T14:44:49.999Z</time></trkpt><trkpt lat="44.595451" lon="8.9466868"><ele>365.3333333333333</ele><time>2026-04-16T14:44:50.999Z</time></trkpt><trkpt lat="44.5955035" lon="8.9464153"><ele>366.6666666666667</ele><time>2026-04-16T14:44:51.999Z</time></trkpt><trkpt lat="44.5955623" lon="8.9461597"><ele>368.0</ele><time>2026-04-16T14:44:52.999Z</time></trkpt><trkpt lat="44.5956264" lon="8.9459011"><ele>366.6666666666667</ele><time>2026-04-16T14:44:53.999Z</time></trkpt><trkpt lat="44.5956966" lon="8.9456521"><ele>365.3333333333333</ele><time>2026-04-16T14:44:54.999Z</time></trkpt><trkpt lat="44.5957813" lon="8.9454171"><ele>364.0</ele><time>2026-04-16T14:44:55.999Z</time></trkpt><trkpt lat="44.5958841" lon="8.945187"><ele>358.3333333333333</ele><time>2026-04-16T14:44:56.999Z</time></trkpt><trkpt lat="44.5960001" lon="8.9449866"><ele>352.6666666666667</ele><time>2026-04-16T14:44:57.999Z</time></trkpt><trkpt lat="44.5961295" lon="8.9447936"><ele>347.0</ele><time>2026-04-16T14:44:58.999Z</time></trkpt><trkpt lat="44.596264" lon="8.9446133"><ele>355.0</ele><time>2026-04-16T14:44:59.999Z</time></trkpt><trkpt lat="44.5963886" lon="8.9444561"><ele>363.0</ele><time>2026-04-16T14:45:00.999Z</time></trkpt><trkpt lat="44.5964994" lon="8.9442864"><ele>371.0</ele><time>2026-04-16T14:45:01.999Z</time></trkpt><trkpt lat="44.5965956" lon="8.9440858"><ele>371.0</ele><time>2026-04-16T14:45:02.999Z</time></trkpt><trkpt lat="44.5966687" lon="8.9438647"><ele>371.0</ele><time>2026-04-16T14:45:03.999Z</time></trkpt><trkpt lat="44.5967114" lon="8.9436316"><ele>371.0</ele><time>2026-04-16T14:45:04.999Z</time></trkpt><trkpt lat="44.5967376" lon="8.9433874"><ele>367.33333333333337</ele><time>2026-04-16T14:45:05.999Z</time></trkpt><trkpt lat="44.5967313" lon="8.9431341"><ele>363.6666666666667</ele><time>2026-04-16T14:45:06.999Z</time></trkpt><trkpt lat="44.5967183" lon="8.9428649"><ele>360.0</ele><time>2026-04-16T14:45:07.999Z</time></trkpt><trkpt lat="44.5967152" lon="8.942624"><ele>358.3333333333333</ele><time>2026-04-16T14:45:08.999Z</time></trkpt><trkpt lat="44.5967169" lon="8.9423833"><ele>356.66666666666663</ele><time>2026-04-16T14:45:09.999Z</time></trkpt><trkpt lat="44.5967226" lon="8.9421405"><ele>355.0</ele><time>2026-04-16T14:45:11.1Z</time></trkpt><trkpt lat="44.5967087" lon="8.9416797"><ele>355.0</ele><time>2026-04-16T14:45:12.999Z</time></trkpt><trkpt lat="44.5966634" lon="8.9414602"><ele>355.0</ele><time>2026-04-16T14:45:13.999Z</time></trkpt><trkpt lat="44.5965841" lon="8.9412561"><ele>355.0</ele><time>2026-04-16T14:45:14.999Z</time></trkpt><trkpt lat="44.5964779" lon="8.9410718"><ele>355.0</ele><time>2026-04-16T14:45:15.999Z</time></trkpt><trkpt lat="44.5963541" lon="8.9409081"><ele>355.0</ele><time>2026-04-16T14:45:16.999Z</time></trkpt><trkpt lat="44.5962209" lon="8.9407618"><ele>355.0</ele><time>2026-04-16T14:45:17.999Z</time></trkpt><trkpt lat="44.5960682" lon="8.9406193"><ele>352.66666666666663</ele><time>2026-04-16T14:45:18.999Z</time></trkpt><trkpt lat="44.5959127" lon="8.9404982"><ele>350.3333333333333</ele><time>2026-04-16T14:45:19.999Z</time></trkpt><trkpt lat="44.5957511" lon="8.9403922"><ele>348.0</ele><time>2026-04-16T14:45:21.112Z</time></trkpt><trkpt lat="44.5954275" lon="8.940221"><ele>348.25</ele><time>2026-04-16T14:45:22.999Z</time></trkpt><trkpt lat="44.5952721" lon="8.9401483"><ele>348.5</ele><time>2026-04-16T14:45:23.999Z</time></trkpt><trkpt lat="44.5951369" lon="8.9400824"><ele>348.75</ele><time>2026-04-16T14:45:24.999Z</time></trkpt><trkpt lat="44.59501" lon="8.9400211"><ele>349.0</ele><time>2026-04-16T14:45:25.999Z</time></trkpt><trkpt lat="44.5948897" lon="8.9399643"><ele>349.0</ele><time>2026-04-16T14:45:26.999Z</time></trkpt><trkpt lat="44.5947736" lon="8.9399084"><ele>349.0</ele><time>2026-04-16T14:45:27.999Z</time></trkpt><trkpt lat="44.5946454" lon="8.9398437"><ele>349.0</ele><time>2026-04-16T14:45:29.11Z</time></trkpt><trkpt lat="44.5943984" lon="8.9397039"><ele>348.3333333333333</ele><time>2026-04-16T14:45:31.11Z</time></trkpt><trkpt lat="44.5941355" lon="8.9395541"><ele>347.6666666666667</ele><time>2026-04-16T14:45:32.999Z</time></trkpt><trkpt lat="44.5939965" lon="8.9394736"><ele>347.0</ele><time>2026-04-16T14:45:33.999Z</time></trkpt><trkpt lat="44.5938382" lon="8.9393864"><ele>347.0</ele><time>2026-04-16T14:45:34.999Z</time></trkpt><trkpt lat="44.5936732" lon="8.9392947"><ele>347.0</ele><time>2026-04-16T14:45:35.999Z</time></trkpt><trkpt lat="44.5934941" lon="8.9391996"><ele>347.0</ele><time>2026-04-16T14:45:36.999Z</time></trkpt><trkpt lat="44.5933216" lon="8.9391069"><ele>346.6666666666667</ele><time>2026-04-16T14:45:37.999Z</time></trkpt><trkpt lat="44.5931443" lon="8.939006"><ele>346.3333333333333</ele><time>2026-04-16T14:45:38.999Z</time></trkpt><trkpt lat="44.5929664" lon="8.9388966"><ele>346.0</ele><time>2026-04-16T14:45:39.999Z</time></trkpt><trkpt lat="44.5928033" lon="8.9387982"><ele>346.0</ele><time>2026-04-16T14:45:40.999Z</time></trkpt><trkpt lat="44.5926385" lon="8.9387018"><ele>346.0</ele><time>2026-04-16T14:45:41.999Z</time></trkpt><trkpt lat="44.5924811" lon="8.9386098"><ele>346.0</ele><time>2026-04-16T14:45:42.999Z</time></trkpt><trkpt lat="44.592327" lon="8.9385205"><ele>346.0</ele><time>2026-04-16T14:45:43.999Z</time></trkpt><trkpt lat="44.5921751" lon="8.9384345"><ele>346.0</ele><time>2026-04-16T14:45:44.999Z</time></trkpt><trkpt lat="44.5920258" lon="8.938351"><ele>346.0</ele><time>2026-04-16T14:45:45.999Z</time></trkpt><trkpt lat="44.5918796" lon="8.9382664"><ele>348.3333333333333</ele><time>2026-04-16T14:45:46.999Z</time></trkpt><trkpt lat="44.5917363" lon="8.938179"><ele>350.6666666666667</ele><time>2026-04-16T14:45:47.999Z</time></trkpt><trkpt lat="44.5915971" lon="8.9380904"><ele>353.0</ele><time>2026-04-16T14:45:48.999Z</time></trkpt><trkpt lat="44.5914572" lon="8.9379966"><ele>353.0</ele><time>2026-04-16T14:45:49.999Z</time></trkpt><trkpt lat="44.5913178" lon="8.9379023"><ele>353.0</ele><time>2026-04-16T14:45:50.999Z</time></trkpt><trkpt lat="44.5911847" lon="8.9378118"><ele>353.0</ele><time>2026-04-16T14:45:51.999Z</time></trkpt><trkpt lat="44.5910568" lon="8.9377343"><ele>353.0</ele><time>2026-04-16T14:45:52.999Z</time></trkpt><trkpt lat="44.5909119" lon="8.9376458"><ele>352.6666666666667</ele><time>2026-04-16T14:45:53.999Z</time></trkpt><trkpt lat="44.5907655" lon="8.9375582"><ele>352.3333333333333</ele><time>2026-04-16T14:45:54.999Z</time></trkpt><trkpt lat="44.5906147" lon="8.9374692"><ele>352.0</ele><time>2026-04-16T14:45:55.999Z</time></trkpt><trkpt lat="44.5904729" lon="8.937392"><ele>352.75</ele><time>2026-04-16T14:45:56.999Z</time></trkpt><trkpt lat="44.5903341" lon="8.9373256"><ele>353.5</ele><time>2026-04-16T14:45:57.999Z</time></trkpt><trkpt lat="44.5901947" lon="8.9372823"><ele>354.25</ele><time>2026-04-16T14:45:58.999Z</time></trkpt><trkpt lat="44.5900682" lon="8.9372612"><ele>355.0</ele><time>2026-04-16T14:45:59.999Z</time></trkpt><trkpt lat="44.589946" lon="8.9372559"><ele>355.0</ele><time>2026-04-16T14:46:00.999Z</time></trkpt><trkpt lat="44.5898341" lon="8.9372617"><ele>355.0</ele><time>2026-04-16T14:46:01.999Z</time></trkpt><trkpt lat="44.5897259" lon="8.9372722"><ele>355.0</ele><time>2026-04-16T14:46:02.999Z</time></trkpt><trkpt lat="44.5896307" lon="8.9372876"><ele>355.0</ele><time>2026-04-16T14:46:03.999Z</time></trkpt><trkpt lat="44.5895437" lon="8.9373052"><ele>355.0</ele><time>2026-04-16T14:46:04.999Z</time></trkpt><trkpt lat="44.5894659" lon="8.9373195"><ele>354.85714285714283</ele><time>2026-04-16T14:46:05.999Z</time></trkpt><trkpt lat="44.5893927" lon="8.9373373"><ele>354.7142857142857</ele><time>2026-04-16T14:46:06.999Z</time></trkpt><trkpt lat="44.5893235" lon="8.93735"><ele>354.57142857142856</ele><time>2026-04-16T14:46:07.999Z</time></trkpt><trkpt lat="44.5892543" lon="8.9373641"><ele>354.42857142857144</ele><time>2026-04-16T14:46:08.999Z</time></trkpt><trkpt lat="44.589186" lon="8.9373763"><ele>354.2857142857143</ele><time>2026-04-16T14:46:09.999Z</time></trkpt><trkpt lat="44.5891146" lon="8.937389"><ele>354.14285714285717</ele><time>2026-04-16T14:46:10.999Z</time></trkpt><trkpt lat="44.5890395" lon="8.9374054"><ele>354.0</ele><time>2026-04-16T14:46:11.999Z</time></trkpt><trkpt lat="44.5889611" lon="8.9374228"><ele>354.0</ele><time>2026-04-16T14:46:12.999Z</time></trkpt><trkpt lat="44.5888849" lon="8.9374441"><ele>354.0</ele><time>2026-04-16T14:46:13.999Z</time></trkpt><trkpt lat="44.5888038" lon="8.9374657"><ele>354.0</ele><time>2026-04-16T14:46:14.999Z</time></trkpt><trkpt lat="44.5887194" lon="8.9374918"><ele>354.0</ele><time>2026-04-16T14:46:15.999Z</time></trkpt><trkpt lat="44.5886273" lon="8.9375156"><ele>354.0</ele><time>2026-04-16T14:46:16.999Z</time></trkpt><trkpt lat="44.5885383" lon="8.9375289"><ele>354.0</ele><time>2026-04-16T14:46:17.999Z</time></trkpt><trkpt lat="44.5884413" lon="8.9375524"><ele>353.79999999999995</ele><time>2026-04-16T14:46:18.999Z</time></trkpt><trkpt lat="44.588335" lon="8.9375772"><ele>353.59999999999997</ele><time>2026-04-16T14:46:19.999Z</time></trkpt><trkpt lat="44.5882368" lon="8.9376008"><ele>353.4</ele><time>2026-04-16T14:46:20.999Z</time></trkpt><trkpt lat="44.5881301" lon="8.9376281"><ele>353.2</ele><time>2026-04-16T14:46:21.999Z</time></trkpt><trkpt lat="44.588021" lon="8.9376586"><ele>353.0</ele><time>2026-04-16T14:46:22.999Z</time></trkpt><trkpt lat="44.5879138" lon="8.9376905"><ele>353.2</ele><time>2026-04-16T14:46:23.999Z</time></trkpt><trkpt lat="44.5878027" lon="8.9377243"><ele>353.4</ele><time>2026-04-16T14:46:24.999Z</time></trkpt><trkpt lat="44.5876984" lon="8.9377522"><ele>353.59999999999997</ele><time>2026-04-16T14:46:25.999Z</time></trkpt><trkpt lat="44.5875877" lon="8.9377834"><ele>353.79999999999995</ele><time>2026-04-16T14:46:26.999Z</time></trkpt><trkpt lat="44.58748" lon="8.9378123"><ele>354.0</ele><time>2026-04-16T14:46:27.999Z</time></trkpt><trkpt lat="44.5873768" lon="8.9378366"><ele>354.0</ele><time>2026-04-16T14:46:28.999Z</time></trkpt><trkpt lat="44.587283" lon="8.9378584"><ele>354.0</ele><time>2026-04-16T14:46:29.999Z</time></trkpt><trkpt lat="44.5871838" lon="8.9378798"><ele>354.0</ele><time>2026-04-16T14:46:30.999Z</time></trkpt><trkpt lat="44.587085" lon="8.9379022"><ele>354.0</ele><time>2026-04-16T14:46:31.999Z</time></trkpt><trkpt lat="44.586988" lon="8.9379173"><ele>354.0</ele><time>2026-04-16T14:46:32.999Z</time></trkpt><trkpt lat="44.5868937" lon="8.937946"><ele>354.1666666666667</ele><time>2026-04-16T14:46:33.999Z</time></trkpt><trkpt lat="44.5867988" lon="8.9379692"><ele>354.3333333333333</ele><time>2026-04-16T14:46:34.998Z</time></trkpt><trkpt lat="44.586713" lon="8.9379873"><ele>354.5</ele><time>2026-04-16T14:46:35.999Z</time></trkpt><trkpt lat="44.5866377" lon="8.9380046"><ele>354.66666666666663</ele><time>2026-04-16T14:46:36.999Z</time></trkpt><trkpt lat="44.5865641" lon="8.9380207"><ele>354.8333333333333</ele><time>2026-04-16T14:46:37.999Z</time></trkpt><trkpt lat="44.5864947" lon="8.9380346"><ele>355.0</ele><time>2026-04-16T14:46:38.999Z</time></trkpt><trkpt lat="44.5863845" lon="8.938056"><ele>355.0</ele><time>2026-04-16T14:46:40.999Z</time></trkpt><trkpt lat="44.5863019" lon="8.9380578"><ele>355.0</ele><time>2026-04-16T14:46:42.999Z</time></trkpt><trkpt lat="44.5862191" lon="8.9380543"><ele>355.0</ele><time>2026-04-16T14:46:45.999Z</time></trkpt><trkpt lat="44.5861242" lon="8.9380759"><ele>355.0</ele><time>2026-04-16T14:46:49.999Z</time></trkpt><trkpt lat="44.5860357" lon="8.9380972"><ele>355.0</ele><time>2026-04-16T14:46:51.999Z</time></trkpt><trkpt lat="44.5859232" lon="8.9381325"><ele>355.6</ele><time>2026-04-16T14:46:53.999Z</time></trkpt><trkpt lat="44.5858554" lon="8.9381518"><ele>356.2</ele><time>2026-04-16T14:46:54.999Z</time></trkpt><trkpt lat="44.5857057" lon="8.9381896"><ele>356.79999999999995</ele><time>2026-04-16T14:46:56.999Z</time></trkpt><trkpt lat="44.5856253" lon="8.9382111"><ele>357.4</ele><time>2026-04-16T14:46:57.999Z</time></trkpt><trkpt lat="44.585535" lon="8.9382298"><ele>358.0</ele><time>2026-04-16T14:46:58.999Z</time></trkpt><trkpt lat="44.5854379" lon="8.9382516"><ele>358.79999999999995</ele><time>2026-04-16T14:46:59.999Z</time></trkpt><trkpt lat="44.5853447" lon="8.9382728"><ele>359.6</ele><time>2026-04-16T14:47:00.999Z</time></trkpt><trkpt lat="44.5852463" lon="8.9382957"><ele>360.4</ele><time>2026-04-16T14:47:01.999Z</time></trkpt><trkpt lat="44.5851421" lon="8.938317"><ele>361.20000000000005</ele><time>2026-04-16T14:47:02.999Z</time></trkpt><trkpt lat="44.5850397" lon="8.938342"><ele>362.0</ele><time>2026-04-16T14:47:03.999Z</time></trkpt><trkpt lat="44.5849358" lon="8.9383673"><ele>360.6</ele><time>2026-04-16T14:47:04.999Z</time></trkpt><trkpt lat="44.5848348" lon="8.9383891"><ele>359.20000000000005</ele><time>2026-04-16T14:47:05.999Z</time></trkpt><trkpt lat="44.5847294" lon="8.9384115"><ele>357.8</ele><time>2026-04-16T14:47:06.999Z</time></trkpt><trkpt lat="44.5846121" lon="8.9384386"><ele>356.4</ele><time>2026-04-16T14:47:07.999Z</time></trkpt><trkpt lat="44.5845017" lon="8.938464"><ele>355.0</ele><time>2026-04-16T14:47:08.999Z</time></trkpt><trkpt lat="44.5843864" lon="8.9384902"><ele>355.0</ele><time>2026-04-16T14:47:09.999Z</time></trkpt><trkpt lat="44.5842672" lon="8.9385146"><ele>355.0</ele><time>2026-04-16T14:47:10.999Z</time></trkpt><trkpt lat="44.584148" lon="8.9385418"><ele>355.0</ele><time>2026-04-16T14:47:11.999Z</time></trkpt><trkpt lat="44.5840248" lon="8.9385667"><ele>355.0</ele><time>2026-04-16T14:47:12.999Z</time></trkpt><trkpt lat="44.5838986" lon="8.9385937"><ele>355.0</ele><time>2026-04-16T14:47:13.999Z</time></trkpt><trkpt lat="44.5837712" lon="8.9386224"><ele>355.0</ele><time>2026-04-16T14:47:14.999Z</time></trkpt><trkpt lat="44.5836374" lon="8.9386517"><ele>355.0</ele><time>2026-04-16T14:47:15.999Z</time></trkpt><trkpt lat="44.5835151" lon="8.9386784"><ele>355.0</ele><time>2026-04-16T14:47:16.999Z</time></trkpt><trkpt lat="44.5833858" lon="8.9387052"><ele>355.25</ele><time>2026-04-16T14:47:17.999Z</time></trkpt><trkpt lat="44.5832529" lon="8.9387328"><ele>355.5</ele><time>2026-04-16T14:47:18.999Z</time></trkpt><trkpt lat="44.5831171" lon="8.9387637"><ele>355.75</ele><time>2026-04-16T14:47:19.999Z</time></trkpt><trkpt lat="44.5829709" lon="8.9387978"><ele>356.0</ele><time>2026-04-16T14:47:20.999Z</time></trkpt><trkpt lat="44.5828304" lon="8.9388262"><ele>356.5</ele><time>2026-04-16T14:47:21.999Z</time></trkpt><trkpt lat="44.5826814" lon="8.9388559"><ele>357.0</ele><time>2026-04-16T14:47:22.999Z</time></trkpt><trkpt lat="44.5825289" lon="8.9388849"><ele>357.5</ele><time>2026-04-16T14:47:23.999Z</time></trkpt><trkpt lat="44.5823889" lon="8.9389077"><ele>358.0</ele><time>2026-04-16T14:47:24.999Z</time></trkpt><trkpt lat="44.5822436" lon="8.9389295"><ele>358.0</ele><time>2026-04-16T14:47:25.999Z</time></trkpt><trkpt lat="44.5820948" lon="8.9389522"><ele>358.0</ele><time>2026-04-16T14:47:26.999Z</time></trkpt><trkpt lat="44.5819468" lon="8.9389689"><ele>358.0</ele><time>2026-04-16T14:47:27.999Z</time></trkpt><trkpt lat="44.5818015" lon="8.9389797"><ele>358.0</ele><time>2026-04-16T14:47:28.999Z</time></trkpt><trkpt lat="44.581655" lon="8.938984"><ele>358.0</ele><time>2026-04-16T14:47:29.999Z</time></trkpt><trkpt lat="44.5815074" lon="8.9389709"><ele>358.0</ele><time>2026-04-16T14:47:30.999Z</time></trkpt><trkpt lat="44.5813546" lon="8.9389513"><ele>358.0</ele><time>2026-04-16T14:47:32Z</time></trkpt><trkpt lat="44.5812115" lon="8.9389339"><ele>358.0</ele><time>2026-04-16T14:47:32.999Z</time></trkpt><trkpt lat="44.581055" lon="8.9389389"><ele>358.75</ele><time>2026-04-16T14:47:33.999Z</time></trkpt><trkpt lat="44.5809063" lon="8.9389576"><ele>359.5</ele><time>2026-04-16T14:47:34.999Z</time></trkpt><trkpt lat="44.5807623" lon="8.9389968"><ele>360.25</ele><time>2026-04-16T14:47:35.999Z</time></trkpt><trkpt lat="44.5806183" lon="8.9390535"><ele>361.0</ele><time>2026-04-16T14:47:36.999Z</time></trkpt><trkpt lat="44.5804855" lon="8.9391214"><ele>361.0</ele><time>2026-04-16T14:47:37.999Z</time></trkpt><trkpt lat="44.5803542" lon="8.9392006"><ele>361.0</ele><time>2026-04-16T14:47:38.999Z</time></trkpt><trkpt lat="44.5802225" lon="8.9392875"><ele>361.0</ele><time>2026-04-16T14:47:39.999Z</time></trkpt><trkpt lat="44.580103" lon="8.9393713"><ele>361.0</ele><time>2026-04-16T14:47:40.999Z</time></trkpt><trkpt lat="44.5799732" lon="8.9394674"><ele>359.3333333333333</ele><time>2026-04-16T14:47:41.999Z</time></trkpt><trkpt lat="44.5798355" lon="8.9395741"><ele>357.6666666666667</ele><time>2026-04-16T14:47:42.999Z</time></trkpt><trkpt lat="44.5796892" lon="8.9396891"><ele>356.0</ele><time>2026-04-16T14:47:43.999Z</time></trkpt><trkpt lat="44.5795337" lon="8.9398078"><ele>357.0</ele><time>2026-04-16T14:47:44.999Z</time></trkpt><trkpt lat="44.5793847" lon="8.9399105"><ele>358.0</ele><time>2026-04-16T14:47:45.999Z</time></trkpt><trkpt lat="44.5792247" lon="8.9400163"><ele>359.0</ele><time>2026-04-16T14:47:46.999Z</time></trkpt><trkpt lat="44.5790678" lon="8.94012"><ele>359.33333333333337</ele><time>2026-04-16T14:47:47.999Z</time></trkpt><trkpt lat="44.5789244" lon="8.9402182"><ele>359.6666666666667</ele><time>2026-04-16T14:47:48.999Z</time></trkpt><trkpt lat="44.5787907" lon="8.9403095"><ele>360.0</ele><time>2026-04-16T14:47:49.999Z</time></trkpt><trkpt lat="44.5786588" lon="8.9404022"><ele>360.0</ele><time>2026-04-16T14:47:50.999Z</time></trkpt><trkpt lat="44.5785265" lon="8.9404939"><ele>360.0</ele><time>2026-04-16T14:47:51.999Z</time></trkpt><trkpt lat="44.5783969" lon="8.9405823"><ele>360.0</ele><time>2026-04-16T14:47:52.999Z</time></trkpt><trkpt lat="44.5782727" lon="8.9406706"><ele>360.0</ele><time>2026-04-16T14:47:53.999Z</time></trkpt><trkpt lat="44.5781481" lon="8.9407596"><ele>360.0</ele><time>2026-04-16T14:47:54.999Z</time></trkpt><trkpt lat="44.5780249" lon="8.9408505"><ele>360.0</ele><time>2026-04-16T14:47:55.999Z</time></trkpt><trkpt lat="44.5779139" lon="8.9409313"><ele>360.0</ele><time>2026-04-16T14:47:56.999Z</time></trkpt><trkpt lat="44.5778005" lon="8.9410085"><ele>360.0</ele><time>2026-04-16T14:47:57.999Z</time></trkpt><trkpt lat="44.5776847" lon="8.9410886"><ele>359.5</ele><time>2026-04-16T14:47:58.999Z</time></trkpt><trkpt lat="44.5775692" lon="8.9411654"><ele>359.0</ele><time>2026-04-16T14:47:59.999Z</time></trkpt><trkpt lat="44.5774482" lon="8.9412471"><ele>358.5</ele><time>2026-04-16T14:48:00.999Z</time></trkpt><trkpt lat="44.5773345" lon="8.9413286"><ele>358.0</ele><time>2026-04-16T14:48:01.999Z</time></trkpt><trkpt lat="44.5772154" lon="8.9414187"><ele>358.0</ele><time>2026-04-16T14:48:02.999Z</time></trkpt><trkpt lat="44.577085" lon="8.9415287"><ele>358.0</ele><time>2026-04-16T14:48:03.999Z</time></trkpt><trkpt lat="44.5769635" lon="8.94165"><ele>358.0</ele><time>2026-04-16T14:48:04.999Z</time></trkpt><trkpt lat="44.5768443" lon="8.9417974"><ele>358.66666666666663</ele><time>2026-04-16T14:48:05.999Z</time></trkpt><trkpt lat="44.5767326" lon="8.9419668"><ele>359.3333333333333</ele><time>2026-04-16T14:48:06.999Z</time></trkpt><trkpt lat="44.5766262" lon="8.9421365"><ele>360.0</ele><time>2026-04-16T14:48:07.999Z</time></trkpt><trkpt lat="44.5765194" lon="8.9422962"><ele>360.0</ele><time>2026-04-16T14:48:08.999Z</time></trkpt><trkpt lat="44.5764195" lon="8.9424415"><ele>360.0</ele><time>2026-04-16T14:48:09.999Z</time></trkpt><trkpt lat="44.5763194" lon="8.9425791"><ele>360.0</ele><time>2026-04-16T14:48:10.999Z</time></trkpt><trkpt lat="44.5762178" lon="8.9427002"><ele>360.0</ele><time>2026-04-16T14:48:11.999Z</time></trkpt><trkpt lat="44.5761277" lon="8.9427901"><ele>360.6</ele><time>2026-04-16T14:48:12.999Z</time></trkpt><trkpt lat="44.5760308" lon="8.9428653"><ele>361.2</ele><time>2026-04-16T14:48:13.999Z</time></trkpt><trkpt lat="44.575938" lon="8.9429158"><ele>361.79999999999995</ele><time>2026-04-16T14:48:14.999Z</time></trkpt><trkpt lat="44.5758452" lon="8.942964"><ele>362.4</ele><time>2026-04-16T14:48:15.999Z</time></trkpt><trkpt lat="44.5757561" lon="8.9430101"><ele>363.0</ele><time>2026-04-16T14:48:16.999Z</time></trkpt><trkpt lat="44.5756729" lon="8.9430616"><ele>363.0</ele><time>2026-04-16T14:48:17.999Z</time></trkpt><trkpt lat="44.5755977" lon="8.9430974"><ele>363.0</ele><time>2026-04-16T14:48:18.999Z</time></trkpt><trkpt lat="44.575529" lon="8.9431307"><ele>363.0</ele><time>2026-04-16T14:48:19.999Z</time></trkpt><trkpt lat="44.5754675" lon="8.9431632"><ele>363.0</ele><time>2026-04-16T14:48:20.999Z</time></trkpt><trkpt lat="44.5753558" lon="8.9432194"><ele>363.0</ele><time>2026-04-16T14:48:22.999Z</time></trkpt><trkpt lat="44.5752563" lon="8.9432682"><ele>363.0</ele><time>2026-04-16T14:48:24.999Z</time></trkpt><trkpt lat="44.5751857" lon="8.9433107"><ele>363.4</ele><time>2026-04-16T14:48:26.999Z</time></trkpt><trkpt lat="44.5751268" lon="8.9433463"><ele>363.79999999999995</ele><time>2026-04-16T14:48:29.999Z</time></trkpt><trkpt lat="44.5750431" lon="8.9433857"><ele>364.2</ele><time>2026-04-16T14:48:36.999Z</time></trkpt><trkpt lat="44.5749595" lon="8.943418"><ele>364.6</ele><time>2026-04-16T14:48:38.999Z</time></trkpt><trkpt lat="44.5748519" lon="8.9434773"><ele>365.0</ele><time>2026-04-16T14:48:40.999Z</time></trkpt><trkpt lat="44.5747308" lon="8.9435381"><ele>365.1666666666667</ele><time>2026-04-16T14:48:42.999Z</time></trkpt><trkpt lat="44.574666" lon="8.9435713"><ele>365.33333333333337</ele><time>2026-04-16T14:48:43.999Z</time></trkpt><trkpt lat="44.5746063" lon="8.9436017"><ele>365.5</ele><time>2026-04-16T14:48:44.999Z</time></trkpt><trkpt lat="44.5745183" lon="8.9436459"><ele>365.6666666666667</ele><time>2026-04-16T14:48:46.999Z</time></trkpt><trkpt lat="44.574436" lon="8.9436867"><ele>365.8333333333333</ele><time>2026-04-16T14:48:48.999Z</time></trkpt><trkpt lat="44.5743319" lon="8.9437346"><ele>366.0</ele><time>2026-04-16T14:48:50.999Z</time></trkpt><trkpt lat="44.5742211" lon="8.9437801"><ele>366.0</ele><time>2026-04-16T14:48:53.111Z</time></trkpt><trkpt lat="44.5740575" lon="8.9438719"><ele>366.0</ele><time>2026-04-16T14:48:55.999Z</time></trkpt><trkpt lat="44.5739871" lon="8.9439043"><ele>366.0</ele><time>2026-04-16T14:48:56.999Z</time></trkpt><trkpt lat="44.5739161" lon="8.9439484"><ele>366.0</ele><time>2026-04-16T14:48:57.999Z</time></trkpt><trkpt lat="44.5738433" lon="8.9439827"><ele>366.0</ele><time>2026-04-16T14:48:58.999Z</time></trkpt><trkpt lat="44.5737724" lon="8.9440138"><ele>365.5</ele><time>2026-04-16T14:48:59.999Z</time></trkpt><trkpt lat="44.573673" lon="8.9440631"><ele>365.0</ele><time>2026-04-16T14:49:01.999Z</time></trkpt><trkpt lat="44.5735947" lon="8.944096"><ele>364.5</ele><time>2026-04-16T14:49:04.999Z</time></trkpt><trkpt lat="44.5735167" lon="8.9441255"><ele>364.0</ele><time>2026-04-16T14:49:06.999Z</time></trkpt><trkpt lat="44.5734485" lon="8.9441665"><ele>363.5</ele><time>2026-04-16T14:49:07.999Z</time></trkpt><trkpt lat="44.5733818" lon="8.9442025"><ele>363.0</ele><time>2026-04-16T14:49:08.999Z</time></trkpt><trkpt lat="44.5733061" lon="8.9442429"><ele>362.2</ele><time>2026-04-16T14:49:09.999Z</time></trkpt><trkpt lat="44.5732264" lon="8.9442828"><ele>361.4</ele><time>2026-04-16T14:49:10.999Z</time></trkpt><trkpt lat="44.5731465" lon="8.9443198"><ele>360.59999999999997</ele><time>2026-04-16T14:49:11.999Z</time></trkpt><trkpt lat="44.5730555" lon="8.9443659"><ele>359.79999999999995</ele><time>2026-04-16T14:49:12.999Z</time></trkpt><trkpt lat="44.5729694" lon="8.9444071"><ele>359.0</ele><time>2026-04-16T14:49:13.999Z</time></trkpt><trkpt lat="44.5728765" lon="8.944454"><ele>359.6</ele><time>2026-04-16T14:49:14.999Z</time></trkpt><trkpt lat="44.5727833" lon="8.9445059"><ele>360.2</ele><time>2026-04-16T14:49:15.999Z</time></trkpt><trkpt lat="44.5726985" lon="8.9445512"><ele>360.8</ele><time>2026-04-16T14:49:16.999Z</time></trkpt><trkpt lat="44.5726101" lon="8.9445986"><ele>361.40000000000003</ele><time>2026-04-16T14:49:17.999Z</time></trkpt><trkpt lat="44.5725241" lon="8.9446455"><ele>362.0</ele><time>2026-04-16T14:49:18.999Z</time></trkpt><trkpt lat="44.5724361" lon="8.9446908"><ele>362.0</ele><time>2026-04-16T14:49:19.999Z</time></trkpt><trkpt lat="44.5723492" lon="8.9447348"><ele>362.0</ele><time>2026-04-16T14:49:20.999Z</time></trkpt><trkpt lat="44.5722612" lon="8.9447809"><ele>362.0</ele><time>2026-04-16T14:49:21.999Z</time></trkpt><trkpt lat="44.5721734" lon="8.9448242"><ele>362.0</ele><time>2026-04-16T14:49:22.999Z</time></trkpt><trkpt lat="44.5720803" lon="8.9448725"><ele>362.0</ele><time>2026-04-16T14:49:23.999Z</time></trkpt><trkpt lat="44.5719904" lon="8.9449164"><ele>365.0</ele><time>2026-04-16T14:49:24.999Z</time></trkpt><trkpt lat="44.571724" lon="8.9450545"><ele>368.0</ele><time>2026-04-16T14:49:27.999Z</time></trkpt><trkpt lat="44.5716386" lon="8.9450979"><ele>371.0</ele><time>2026-04-16T14:49:28.999Z</time></trkpt><trkpt lat="44.5715539" lon="8.9451394"><ele>371.0</ele><time>2026-04-16T14:49:29.999Z</time></trkpt><trkpt lat="44.5714696" lon="8.9451828"><ele>371.0</ele><time>2026-04-16T14:49:30.999Z</time></trkpt><trkpt lat="44.5713856" lon="8.9452234"><ele>371.0</ele><time>2026-04-16T14:49:31.999Z</time></trkpt><trkpt lat="44.5713157" lon="8.9452596"><ele>371.0</ele><time>2026-04-16T14:49:32.999Z</time></trkpt><trkpt lat="44.5712444" lon="8.9452973"><ele>371.0</ele><time>2026-04-16T14:49:33.999Z</time></trkpt><trkpt lat="44.5711653" lon="8.9453323"><ele>371.0</ele><time>2026-04-16T14:49:35.103Z</time></trkpt><trkpt lat="44.570993" lon="8.9454184"><ele>371.6666666666667</ele><time>2026-04-16T14:49:36.999Z</time></trkpt><trkpt lat="44.5709067" lon="8.9454608"><ele>372.3333333333333</ele><time>2026-04-16T14:49:38.11Z</time></trkpt><trkpt lat="44.570719" lon="8.9455581"><ele>373.0</ele><time>2026-04-16T14:49:40.104Z</time></trkpt><trkpt lat="44.5705271" lon="8.945654"><ele>373.0</ele><time>2026-04-16T14:49:41.999Z</time></trkpt><trkpt lat="44.5704236" lon="8.945704"><ele>373.0</ele><time>2026-04-16T14:49:42.999Z</time></trkpt><trkpt lat="44.5703172" lon="8.9457636"><ele>373.0</ele><time>2026-04-16T14:49:43.999Z</time></trkpt><trkpt lat="44.570214" lon="8.9458212"><ele>373.0</ele><time>2026-04-16T14:49:44.999Z</time></trkpt><trkpt lat="44.5701028" lon="8.9458776"><ele>372.0</ele><time>2026-04-16T14:49:45.999Z</time></trkpt><trkpt lat="44.569993" lon="8.945926"><ele>371.0</ele><time>2026-04-16T14:49:46.999Z</time></trkpt><trkpt lat="44.5698813" lon="8.9459609"><ele>370.0</ele><time>2026-04-16T14:49:47.999Z</time></trkpt><trkpt lat="44.569772" lon="8.9459769"><ele>369.0</ele><time>2026-04-16T14:49:48.999Z</time></trkpt><trkpt lat="44.5696548" lon="8.9459914"><ele>369.0</ele><time>2026-04-16T14:49:49.999Z</time></trkpt><trkpt lat="44.5695331" lon="8.9460059"><ele>369.0</ele><time>2026-04-16T14:49:50.999Z</time></trkpt><trkpt lat="44.5694076" lon="8.9460148"><ele>369.0</ele><time>2026-04-16T14:49:51.999Z</time></trkpt><trkpt lat="44.5692722" lon="8.9460242"><ele>369.0</ele><time>2026-04-16T14:49:52.999Z</time></trkpt><trkpt lat="44.5691351" lon="8.9460296"><ele>368.75</ele><time>2026-04-16T14:49:53.999Z</time></trkpt><trkpt lat="44.5690074" lon="8.946038"><ele>368.5</ele><time>2026-04-16T14:49:54.999Z</time></trkpt><trkpt lat="44.5688789" lon="8.9460617"><ele>368.25</ele><time>2026-04-16T14:49:55.999Z</time></trkpt><trkpt lat="44.5687521" lon="8.9460948"><ele>368.0</ele><time>2026-04-16T14:49:56.999Z</time></trkpt><trkpt lat="44.5686278" lon="8.9461059"><ele>369.5</ele><time>2026-04-16T14:49:57.999Z</time></trkpt><trkpt lat="44.5684925" lon="8.946109"><ele>371.0</ele><time>2026-04-16T14:49:58.999Z</time></trkpt><trkpt lat="44.5683686" lon="8.9460832"><ele>372.5</ele><time>2026-04-16T14:49:59.999Z</time></trkpt><trkpt lat="44.5682518" lon="8.9460463"><ele>374.0</ele><time>2026-04-16T14:50:00.999Z</time></trkpt><trkpt lat="44.5681387" lon="8.9459929"><ele>374.0</ele><time>2026-04-16T14:50:01.999Z</time></trkpt><trkpt lat="44.5680175" lon="8.9459266"><ele>374.0</ele><time>2026-04-16T14:50:02.999Z</time></trkpt><trkpt lat="44.5678961" lon="8.9458472"><ele>374.0</ele><time>2026-04-16T14:50:03.999Z</time></trkpt><trkpt lat="44.5677767" lon="8.945773"><ele>374.0</ele><time>2026-04-16T14:50:04.999Z</time></trkpt><trkpt lat="44.5676568" lon="8.9456886"><ele>374.75</ele><time>2026-04-16T14:50:05.999Z</time></trkpt><trkpt lat="44.5675357" lon="8.9456005"><ele>375.5</ele><time>2026-04-16T14:50:06.999Z</time></trkpt><trkpt lat="44.5674107" lon="8.945511"><ele>376.25</ele><time>2026-04-16T14:50:07.999Z</time></trkpt><trkpt lat="44.5672906" lon="8.9454159"><ele>377.0</ele><time>2026-04-16T14:50:08.999Z</time></trkpt><trkpt lat="44.567163" lon="8.9453236"><ele>377.0</ele><time>2026-04-16T14:50:09.999Z</time></trkpt><trkpt lat="44.567034" lon="8.94523"><ele>377.0</ele><time>2026-04-16T14:50:10.999Z</time></trkpt><trkpt lat="44.5668989" lon="8.9451372"><ele>377.0</ele><time>2026-04-16T14:50:11.999Z</time></trkpt><trkpt lat="44.5667651" lon="8.9450514"><ele>377.0</ele><time>2026-04-16T14:50:12.999Z</time></trkpt><trkpt lat="44.5666331" lon="8.9449556"><ele>378.6666666666667</ele><time>2026-04-16T14:50:13.999Z</time></trkpt><trkpt lat="44.5665053" lon="8.9448564"><ele>380.3333333333333</ele><time>2026-04-16T14:50:14.999Z</time></trkpt><trkpt lat="44.5663648" lon="8.9447599"><ele>382.0</ele><time>2026-04-16T14:50:15.999Z</time></trkpt><trkpt lat="44.5662191" lon="8.9446604"><ele>381.66666666666663</ele><time>2026-04-16T14:50:16.999Z</time></trkpt><trkpt lat="44.5660801" lon="8.9445664"><ele>381.3333333333333</ele><time>2026-04-16T14:50:17.999Z</time></trkpt><trkpt lat="44.5659503" lon="8.9444689"><ele>381.0</ele><time>2026-04-16T14:50:18.999Z</time></trkpt><trkpt lat="44.5658121" lon="8.9443697"><ele>381.0</ele><time>2026-04-16T14:50:19.999Z</time></trkpt><trkpt lat="44.5656811" lon="8.9442776"><ele>381.0</ele><time>2026-04-16T14:50:20.999Z</time></trkpt><trkpt lat="44.5655424" lon="8.9441826"><ele>381.0</ele><time>2026-04-16T14:50:21.999Z</time></trkpt><trkpt lat="44.5654058" lon="8.9440773"><ele>381.25</ele><time>2026-04-16T14:50:22.999Z</time></trkpt><trkpt lat="44.5652784" lon="8.9439841"><ele>381.5</ele><time>2026-04-16T14:50:23.999Z</time></trkpt><trkpt lat="44.5651446" lon="8.9438867"><ele>381.75</ele><time>2026-04-16T14:50:24.999Z</time></trkpt><trkpt lat="44.565016" lon="8.9437897"><ele>382.0</ele><time>2026-04-16T14:50:25.999Z</time></trkpt><trkpt lat="44.5648889" lon="8.9436947"><ele>382.0</ele><time>2026-04-16T14:50:26.999Z</time></trkpt><trkpt lat="44.5647674" lon="8.9435918"><ele>382.0</ele><time>2026-04-16T14:50:28Z</time></trkpt><trkpt lat="44.5646585" lon="8.9434828"><ele>382.0</ele><time>2026-04-16T14:50:28.999Z</time></trkpt><trkpt lat="44.5645514" lon="8.9433694"><ele>382.0</ele><time>2026-04-16T14:50:29.999Z</time></trkpt><trkpt lat="44.5644443" lon="8.9432481"><ele>383.0</ele><time>2026-04-16T14:50:30.999Z</time></trkpt><trkpt lat="44.5643352" lon="8.943122"><ele>384.0</ele><time>2026-04-16T14:50:31.999Z</time></trkpt><trkpt lat="44.5642243" lon="8.9429905"><ele>385.0</ele><time>2026-04-16T14:50:32.999Z</time></trkpt><trkpt lat="44.564113" lon="8.9428551"><ele>386.0</ele><time>2026-04-16T14:50:33.999Z</time></trkpt><trkpt lat="44.5639939" lon="8.9427162"><ele>386.0</ele><time>2026-04-16T14:50:34.999Z</time></trkpt><trkpt lat="44.5638676" lon="8.9425657"><ele>386.0</ele><time>2026-04-16T14:50:35.999Z</time></trkpt><trkpt lat="44.5637444" lon="8.9424179"><ele>386.0</ele><time>2026-04-16T14:50:36.999Z</time></trkpt><trkpt lat="44.5636134" lon="8.9422654"><ele>391.66666666666663</ele><time>2026-04-16T14:50:37.999Z</time></trkpt><trkpt lat="44.5634806" lon="8.9421108"><ele>397.33333333333337</ele><time>2026-04-16T14:50:38.999Z</time></trkpt><trkpt lat="44.5633451" lon="8.9419468"><ele>403.0</ele><time>2026-04-16T14:50:39.999Z</time></trkpt><trkpt lat="44.5632021" lon="8.9417764"><ele>402.0</ele><time>2026-04-16T14:50:40.999Z</time></trkpt><trkpt lat="44.5630588" lon="8.9416072"><ele>401.0</ele><time>2026-04-16T14:50:41.999Z</time></trkpt><trkpt lat="44.5629125" lon="8.9414399"><ele>400.0</ele><time>2026-04-16T14:50:42.999Z</time></trkpt><trkpt lat="44.5627698" lon="8.9412652"><ele>400.6666666666667</ele><time>2026-04-16T14:50:43.999Z</time></trkpt><trkpt lat="44.5626396" lon="8.941102"><ele>401.33333333333337</ele><time>2026-04-16T14:50:44.999Z</time></trkpt><trkpt lat="44.5624975" lon="8.9409438"><ele>402.0</ele><time>2026-04-16T14:50:45.999Z</time></trkpt><trkpt lat="44.5623479" lon="8.9407984"><ele>402.0</ele><time>2026-04-16T14:50:46.999Z</time></trkpt><trkpt lat="44.562188" lon="8.9406789"><ele>402.0</ele><time>2026-04-16T14:50:47.999Z</time></trkpt><trkpt lat="44.5620229" lon="8.9405882"><ele>402.0</ele><time>2026-04-16T14:50:48.999Z</time></trkpt><trkpt lat="44.5618512" lon="8.9405146"><ele>407.0</ele><time>2026-04-16T14:50:49.999Z</time></trkpt><trkpt lat="44.5616811" lon="8.9404712"><ele>412.0</ele><time>2026-04-16T14:50:50.999Z</time></trkpt><trkpt lat="44.561504" lon="8.9404503"><ele>417.0</ele><time>2026-04-16T14:50:51.999Z</time></trkpt><trkpt lat="44.5613294" lon="8.9404363"><ele>421.0</ele><time>2026-04-16T14:50:52.999Z</time></trkpt><trkpt lat="44.5611465" lon="8.9404206"><ele>425.0</ele><time>2026-04-16T14:50:53.999Z</time></trkpt><trkpt lat="44.560965" lon="8.9404163"><ele>429.0</ele><time>2026-04-16T14:50:54.999Z</time></trkpt><trkpt lat="44.5607837" lon="8.9404122"><ele>429.0</ele><time>2026-04-16T14:50:55.999Z</time></trkpt><trkpt lat="44.5605952" lon="8.940404"><ele>429.0</ele><time>2026-04-16T14:50:56.999Z</time></trkpt><trkpt lat="44.5604188" lon="8.9403932"><ele>429.0</ele><time>2026-04-16T14:50:57.999Z</time></trkpt><trkpt lat="44.5602354" lon="8.9403761"><ele>432.33333333333337</ele><time>2026-04-16T14:50:58.999Z</time></trkpt><trkpt lat="44.5600452" lon="8.9403651"><ele>435.6666666666667</ele><time>2026-04-16T14:50:59.999Z</time></trkpt><trkpt lat="44.5598697" lon="8.9403575"><ele>439.0</ele><time>2026-04-16T14:51:00.999Z</time></trkpt><trkpt lat="44.5596879" lon="8.9403552"><ele>441.33333333333337</ele><time>2026-04-16T14:51:01.999Z</time></trkpt><trkpt lat="44.5595063" lon="8.9403469"><ele>443.66666666666663</ele><time>2026-04-16T14:51:02.999Z</time></trkpt><trkpt lat="44.5593265" lon="8.9403297"><ele>446.0</ele><time>2026-04-16T14:51:03.999Z</time></trkpt><trkpt lat="44.559152" lon="8.9402923"><ele>446.0</ele><time>2026-04-16T14:51:04.999Z</time></trkpt><trkpt lat="44.5589778" lon="8.9402281"><ele>446.0</ele><time>2026-04-16T14:51:05.999Z</time></trkpt><trkpt lat="44.5588121" lon="8.9401553"><ele>446.0</ele><time>2026-04-16T14:51:06.998Z</time></trkpt><trkpt lat="44.5586372" lon="8.9400722"><ele>441.3333333333333</ele><time>2026-04-16T14:51:07.999Z</time></trkpt><trkpt lat="44.5584665" lon="8.9400013"><ele>436.66666666666663</ele><time>2026-04-16T14:51:08.999Z</time></trkpt><trkpt lat="44.5582897" lon="8.9399525"><ele>432.0</ele><time>2026-04-16T14:51:09.999Z</time></trkpt><trkpt lat="44.5581181" lon="8.9399485"><ele>432.0</ele><time>2026-04-16T14:51:10.999Z</time></trkpt><trkpt lat="44.5579442" lon="8.9399679"><ele>432.0</ele><time>2026-04-16T14:51:11.999Z</time></trkpt><trkpt lat="44.5577725" lon="8.9400011"><ele>432.0</ele><time>2026-04-16T14:51:12.999Z</time></trkpt><trkpt lat="44.5576003" lon="8.9400315"><ele>441.66666666666663</ele><time>2026-04-16T14:51:13.999Z</time></trkpt><trkpt lat="44.5574399" lon="8.9400752"><ele>451.3333333333333</ele><time>2026-04-16T14:51:15Z</time></trkpt><trkpt lat="44.5572849" lon="8.9401224"><ele>461.0</ele><time>2026-04-16T14:51:15.999Z</time></trkpt><trkpt lat="44.5571441" lon="8.9401585"><ele>462.25</ele><time>2026-04-16T14:51:16.999Z</time></trkpt><trkpt lat="44.5570105" lon="8.9401866"><ele>463.5</ele><time>2026-04-16T14:51:17.999Z</time></trkpt><trkpt lat="44.5568781" lon="8.940186"><ele>464.75</ele><time>2026-04-16T14:51:18.999Z</time></trkpt><trkpt lat="44.5567617" lon="8.9401411"><ele>466.0</ele><time>2026-04-16T14:51:19.999Z</time></trkpt><trkpt lat="44.5566525" lon="8.940046"><ele>459.75</ele><time>2026-04-16T14:51:20.999Z</time></trkpt><trkpt lat="44.5565477" lon="8.9399309"><ele>453.5</ele><time>2026-04-16T14:51:21.999Z</time></trkpt><trkpt lat="44.556438" lon="8.9398137"><ele>447.25</ele><time>2026-04-16T14:51:22.999Z</time></trkpt><trkpt lat="44.556318" lon="8.9396965"><ele>441.0</ele><time>2026-04-16T14:51:23.999Z</time></trkpt><trkpt lat="44.5562033" lon="8.9395722"><ele>444.66666666666663</ele><time>2026-04-16T14:51:24.999Z</time></trkpt><trkpt lat="44.55609" lon="8.9394321"><ele>448.3333333333333</ele><time>2026-04-16T14:51:25.999Z</time></trkpt><trkpt lat="44.555973" lon="8.9392958"><ele>452.0</ele><time>2026-04-16T14:51:26.999Z</time></trkpt><trkpt lat="44.5558467" lon="8.9391705"><ele>452.0</ele><time>2026-04-16T14:51:28.115Z</time></trkpt><trkpt lat="44.5555891" lon="8.9389392"><ele>452.0</ele><time>2026-04-16T14:51:29.999Z</time></trkpt><trkpt lat="44.5554572" lon="8.9388248"><ele>460.66666666666663</ele><time>2026-04-16T14:51:30.999Z</time></trkpt><trkpt lat="44.555324" lon="8.9387119"><ele>469.33333333333337</ele><time>2026-04-16T14:51:31.999Z</time></trkpt><trkpt lat="44.5551929" lon="8.9386118"><ele>478.0</ele><time>2026-04-16T14:51:32.999Z</time></trkpt><trkpt lat="44.5550506" lon="8.9385294"><ele>478.0</ele><time>2026-04-16T14:51:33.999Z</time></trkpt><trkpt lat="44.5549049" lon="8.9384629"><ele>478.0</ele><time>2026-04-16T14:51:34.999Z</time></trkpt><trkpt lat="44.5547546" lon="8.9384054"><ele>478.0</ele><time>2026-04-16T14:51:35.999Z</time></trkpt><trkpt lat="44.5545972" lon="8.9383543"><ele>474.33333333333337</ele><time>2026-04-16T14:51:36.999Z</time></trkpt><trkpt lat="44.5544426" lon="8.9383035"><ele>470.66666666666663</ele><time>2026-04-16T14:51:37.999Z</time></trkpt><trkpt lat="44.5542897" lon="8.9382522"><ele>467.0</ele><time>2026-04-16T14:51:38.999Z</time></trkpt><trkpt lat="44.5541302" lon="8.9381829"><ele>467.0</ele><time>2026-04-16T14:51:39.999Z</time></trkpt><trkpt lat="44.5539996" lon="8.9381047"><ele>467.0</ele><time>2026-04-16T14:51:40.999Z</time></trkpt><trkpt lat="44.5538693" lon="8.9380109"><ele>467.0</ele><time>2026-04-16T14:51:41.999Z</time></trkpt><trkpt lat="44.5537431" lon="8.9379036"><ele>467.0</ele><time>2026-04-16T14:51:42.999Z</time></trkpt><trkpt lat="44.5536302" lon="8.937798"><ele>468.25</ele><time>2026-04-16T14:51:43.999Z</time></trkpt><trkpt lat="44.5535246" lon="8.9377012"><ele>469.5</ele><time>2026-04-16T14:51:44.999Z</time></trkpt><trkpt lat="44.5534221" lon="8.9376"><ele>470.75</ele><time>2026-04-16T14:51:45.999Z</time></trkpt><trkpt lat="44.5533209" lon="8.9375079"><ele>472.0</ele><time>2026-04-16T14:51:46.999Z</time></trkpt><trkpt lat="44.5532174" lon="8.937424"><ele>472.0</ele><time>2026-04-16T14:51:47.999Z</time></trkpt><trkpt lat="44.5531341" lon="8.9373663"><ele>472.00000000000006</ele><time>2026-04-16T14:51:48.999Z</time></trkpt><trkpt lat="44.5530359" lon="8.9373051"><ele>472.00000000000006</ele><time>2026-04-16T14:51:49.999Z</time></trkpt><trkpt lat="44.552937" lon="8.9372551"><ele>472.0</ele><time>2026-04-16T14:51:50.999Z</time></trkpt><trkpt lat="44.5528329" lon="8.9371954"><ele>472.0</ele><time>2026-04-16T14:51:51.999Z</time></trkpt><trkpt lat="44.5527215" lon="8.9371357"><ele>473.40000000000003</ele><time>2026-04-16T14:51:52.999Z</time></trkpt><trkpt lat="44.5526174" lon="8.9370869"><ele>474.80000000000007</ele><time>2026-04-16T14:51:53.999Z</time></trkpt><trkpt lat="44.5525121" lon="8.9370296"><ele>476.2</ele><time>2026-04-16T14:51:54.999Z</time></trkpt><trkpt lat="44.5524042" lon="8.9369813"><ele>477.6</ele><time>2026-04-16T14:51:55.999Z</time></trkpt><trkpt lat="44.5522989" lon="8.9369265"><ele>479.0</ele><time>2026-04-16T14:51:56.999Z</time></trkpt><trkpt lat="44.5521851" lon="8.9368772"><ele>479.0</ele><time>2026-04-16T14:51:57.999Z</time></trkpt><trkpt lat="44.5520695" lon="8.9368198"><ele>479.0</ele><time>2026-04-16T14:51:58.999Z</time></trkpt><trkpt lat="44.5519506" lon="8.9367571"><ele>479.0</ele><time>2026-04-16T14:51:59.999Z</time></trkpt><trkpt lat="44.5518321" lon="8.9366956"><ele>479.0</ele><time>2026-04-16T14:52:00.999Z</time></trkpt><trkpt lat="44.5517159" lon="8.9366115"><ele>476.75</ele><time>2026-04-16T14:52:01.999Z</time></trkpt><trkpt lat="44.5516092" lon="8.9365211"><ele>474.5</ele><time>2026-04-16T14:52:02.999Z</time></trkpt><trkpt lat="44.5515126" lon="8.9364102"><ele>472.25</ele><time>2026-04-16T14:52:03.999Z</time></trkpt><trkpt lat="44.5514224" lon="8.9363007"><ele>470.0</ele><time>2026-04-16T14:52:04.999Z</time></trkpt><trkpt lat="44.551328" lon="8.9361775"><ele>470.0</ele><time>2026-04-16T14:52:05.999Z</time></trkpt><trkpt lat="44.5512372" lon="8.9360523"><ele>470.0</ele><time>2026-04-16T14:52:06.999Z</time></trkpt><trkpt lat="44.5511464" lon="8.9359234"><ele>470.0</ele><time>2026-04-16T14:52:07.999Z</time></trkpt><trkpt lat="44.5510456" lon="8.9357811"><ele>470.0</ele><time>2026-04-16T14:52:08.999Z</time></trkpt><trkpt lat="44.5509557" lon="8.9356536"><ele>468.5</ele><time>2026-04-16T14:52:09.999Z</time></trkpt><trkpt lat="44.5508549" lon="8.9355222"><ele>467.0</ele><time>2026-04-16T14:52:10.999Z</time></trkpt><trkpt lat="44.5507381" lon="8.9354056"><ele>465.5</ele><time>2026-04-16T14:52:11.999Z</time></trkpt><trkpt lat="44.5506065" lon="8.9353099"><ele>464.0</ele><time>2026-04-16T14:52:13.103Z</time></trkpt><trkpt lat="44.5503281" lon="8.9351588"><ele>461.75</ele><time>2026-04-16T14:52:14.999Z</time></trkpt><trkpt lat="44.5501924" lon="8.9350735"><ele>459.5</ele><time>2026-04-16T14:52:15.999Z</time></trkpt><trkpt lat="44.5500708" lon="8.9349677"><ele>457.25</ele><time>2026-04-16T14:52:16.999Z</time></trkpt><trkpt lat="44.5499625" lon="8.9348265"><ele>455.0</ele><time>2026-04-16T14:52:17.999Z</time></trkpt><trkpt lat="44.5498755" lon="8.9346749"><ele>455.0</ele><time>2026-04-16T14:52:19.109Z</time></trkpt><trkpt lat="44.5498107" lon="8.9345145"><ele>455.0</ele><time>2026-04-16T14:52:19.999Z</time></trkpt><trkpt lat="44.5497564" lon="8.9343623"><ele>455.0</ele><time>2026-04-16T14:52:20.999Z</time></trkpt><trkpt lat="44.5496985" lon="8.9342187"><ele>455.0</ele><time>2026-04-16T14:52:21.999Z</time></trkpt><trkpt lat="44.5496222" lon="8.9340938"><ele>453.3333333333333</ele><time>2026-04-16T14:52:22.999Z</time></trkpt><trkpt lat="44.5495254" lon="8.9340048"><ele>451.66666666666663</ele><time>2026-04-16T14:52:24.106Z</time></trkpt><trkpt lat="44.5492953" lon="8.9339798"><ele>450.0</ele><time>2026-04-16T14:52:25.999Z</time></trkpt><trkpt lat="44.5491764" lon="8.9340285"><ele>450.0</ele><time>2026-04-16T14:52:26.999Z</time></trkpt><trkpt lat="44.5490501" lon="8.9340938"><ele>450.0</ele><time>2026-04-16T14:52:27.999Z</time></trkpt><trkpt lat="44.548935" lon="8.9341528"><ele>450.0</ele><time>2026-04-16T14:52:28.999Z</time></trkpt><trkpt lat="44.5488185" lon="8.9341973"><ele>450.0</ele><time>2026-04-16T14:52:29.999Z</time></trkpt><trkpt lat="44.5486957" lon="8.934206"><ele>448.25</ele><time>2026-04-16T14:52:30.999Z</time></trkpt><trkpt lat="44.5485729" lon="8.9341746"><ele>446.5</ele><time>2026-04-16T14:52:31.999Z</time></trkpt><trkpt lat="44.5484608" lon="8.9341043"><ele>444.75</ele><time>2026-04-16T14:52:32.999Z</time></trkpt><trkpt lat="44.5483676" lon="8.9339892"><ele>443.0</ele><time>2026-04-16T14:52:33.999Z</time></trkpt><trkpt lat="44.5482971" lon="8.9338483"><ele>443.0</ele><time>2026-04-16T14:52:34.999Z</time></trkpt><trkpt lat="44.5482525" lon="8.9336742"><ele>443.0</ele><time>2026-04-16T14:52:35.999Z</time></trkpt><trkpt lat="44.5482439" lon="8.9334997"><ele>443.0</ele><time>2026-04-16T14:52:36.999Z</time></trkpt><trkpt lat="44.5482679" lon="8.9333267"><ele>443.0</ele><time>2026-04-16T14:52:37.999Z</time></trkpt><trkpt lat="44.5483232" lon="8.9331628"><ele>443.75</ele><time>2026-04-16T14:52:38.999Z</time></trkpt><trkpt lat="44.5484086" lon="8.9330565"><ele>444.5</ele><time>2026-04-16T14:52:39.999Z</time></trkpt><trkpt lat="44.5485114" lon="8.9329117"><ele>445.25</ele><time>2026-04-16T14:52:40.999Z</time></trkpt><trkpt lat="44.5486221" lon="8.9327842"><ele>446.0</ele><time>2026-04-16T14:52:41.999Z</time></trkpt><trkpt lat="44.5487342" lon="8.9326629"><ele>448.0</ele><time>2026-04-16T14:52:42.999Z</time></trkpt><trkpt lat="44.548843" lon="8.9325461"><ele>450.0</ele><time>2026-04-16T14:52:43.999Z</time></trkpt><trkpt lat="44.5489324" lon="8.9324273"><ele>452.0</ele><time>2026-04-16T14:52:44.999Z</time></trkpt><trkpt lat="44.5489987" lon="8.9323023"><ele>454.0</ele><time>2026-04-16T14:52:45.999Z</time></trkpt><trkpt lat="44.5490412" lon="8.932161"><ele>454.0</ele><time>2026-04-16T14:52:46.999Z</time></trkpt><trkpt lat="44.5490465" lon="8.9320062"><ele>454.0</ele><time>2026-04-16T14:52:47.999Z</time></trkpt><trkpt lat="44.5490138" lon="8.9318534"><ele>454.0</ele><time>2026-04-16T14:52:48.999Z</time></trkpt><trkpt lat="44.5489555" lon="8.9317155"><ele>454.0</ele><time>2026-04-16T14:52:49.999Z</time></trkpt><trkpt lat="44.54889" lon="8.9315928"><ele>454.0</ele><time>2026-04-16T14:52:50.999Z</time></trkpt><trkpt lat="44.5488166" lon="8.9314574"><ele>452.4</ele><time>2026-04-16T14:52:51.999Z</time></trkpt><trkpt lat="44.5487833" lon="8.9313392"><ele>450.79999999999995</ele><time>2026-04-16T14:52:52.999Z</time></trkpt><trkpt lat="44.5487732" lon="8.9312207"><ele>449.20000000000005</ele><time>2026-04-16T14:52:53.999Z</time></trkpt><trkpt lat="44.5487987" lon="8.9311254"><ele>447.6</ele><time>2026-04-16T14:52:54.999Z</time></trkpt><trkpt lat="44.5488596" lon="8.9310578"><ele>446.0</ele><time>2026-04-16T14:52:55.999Z</time></trkpt><trkpt lat="44.5490258" lon="8.9309797"><ele>446.0</ele><time>2026-04-16T14:52:57.999Z</time></trkpt><trkpt lat="44.5491063" lon="8.9309146"><ele>446.0</ele><time>2026-04-16T14:52:58.999Z</time></trkpt><trkpt lat="44.549191" lon="8.9308208"><ele>446.0</ele><time>2026-04-16T14:52:59.999Z</time></trkpt><trkpt lat="44.5492511" lon="8.9307015"><ele>446.0</ele><time>2026-04-16T14:53:00.999Z</time></trkpt><trkpt lat="44.5492569" lon="8.9305438"><ele>446.0</ele><time>2026-04-16T14:53:01.999Z</time></trkpt><trkpt lat="44.5492531" lon="8.9303792"><ele>443.3333333333333</ele><time>2026-04-16T14:53:02.999Z</time></trkpt><trkpt lat="44.5492579" lon="8.9302135"><ele>440.66666666666663</ele><time>2026-04-16T14:53:04.104Z</time></trkpt><trkpt lat="44.5493103" lon="8.9298573"><ele>438.0</ele><time>2026-04-16T14:53:05.999Z</time></trkpt><trkpt lat="44.5493586" lon="8.9296955"><ele>438.25</ele><time>2026-04-16T14:53:06.999Z</time></trkpt><trkpt lat="44.5494247" lon="8.9295491"><ele>438.5</ele><time>2026-04-16T14:53:07.999Z</time></trkpt><trkpt lat="44.5495131" lon="8.9294309"><ele>438.75</ele><time>2026-04-16T14:53:08.999Z</time></trkpt><trkpt lat="44.5496077" lon="8.9293181"><ele>439.0</ele><time>2026-04-16T14:53:09.999Z</time></trkpt><trkpt lat="44.549696" lon="8.9291957"><ele>439.0</ele><time>2026-04-16T14:53:10.999Z</time></trkpt><trkpt lat="44.5497725" lon="8.9290392"><ele>439.0</ele><time>2026-04-16T14:53:11.999Z</time></trkpt><trkpt lat="44.5498079" lon="8.9288801"><ele>439.0</ele><time>2026-04-16T14:53:12.999Z</time></trkpt><trkpt lat="44.5498165" lon="8.9287154"><ele>439.0</ele><time>2026-04-16T14:53:13.999Z</time></trkpt><trkpt lat="44.5498099" lon="8.9285288"><ele>436.5</ele><time>2026-04-16T14:53:14.999Z</time></trkpt><trkpt lat="44.5497977" lon="8.9283466"><ele>434.0</ele><time>2026-04-16T14:53:15.999Z</time></trkpt><trkpt lat="44.5497891" lon="8.9281679"><ele>431.5</ele><time>2026-04-16T14:53:16.999Z</time></trkpt><trkpt lat="44.5497821" lon="8.9279755"><ele>429.0</ele><time>2026-04-16T14:53:17.999Z</time></trkpt><trkpt lat="44.5497722" lon="8.9277901"><ele>429.0</ele><time>2026-04-16T14:53:18.999Z</time></trkpt><trkpt lat="44.5497532" lon="8.9276102"><ele>429.0</ele><time>2026-04-16T14:53:19.999Z</time></trkpt><trkpt lat="44.5497127" lon="8.9274424"><ele>429.0</ele><time>2026-04-16T14:53:20.999Z</time></trkpt><trkpt lat="44.5496519" lon="8.9272902"><ele>429.0</ele><time>2026-04-16T14:53:21.999Z</time></trkpt><trkpt lat="44.5495806" lon="8.9271515"><ele>423.75</ele><time>2026-04-16T14:53:22.999Z</time></trkpt><trkpt lat="44.5494991" lon="8.9270262"><ele>418.5</ele><time>2026-04-16T14:53:23.999Z</time></trkpt><trkpt lat="44.5494197" lon="8.9269154"><ele>413.25</ele><time>2026-04-16T14:53:24.999Z</time></trkpt><trkpt lat="44.5493387" lon="8.9268025"><ele>408.0</ele><time>2026-04-16T14:53:25.999Z</time></trkpt><trkpt lat="44.5492606" lon="8.9266877"><ele>408.0</ele><time>2026-04-16T14:53:26.999Z</time></trkpt><trkpt lat="44.5491821" lon="8.9265733"><ele>408.0</ele><time>2026-04-16T14:53:27.999Z</time></trkpt><trkpt lat="44.549099" lon="8.926452"><ele>408.0</ele><time>2026-04-16T14:53:28.999Z</time></trkpt><trkpt lat="44.5490271" lon="8.9263475"><ele>408.0</ele><time>2026-04-16T14:53:29.999Z</time></trkpt><trkpt lat="44.5489533" lon="8.9262462"><ele>408.0</ele><time>2026-04-16T14:53:30.999Z</time></trkpt><trkpt lat="44.5488768" lon="8.9261524"><ele>408.0</ele><time>2026-04-16T14:53:31.999Z</time></trkpt><trkpt lat="44.5488008" lon="8.9260806"><ele>408.0</ele><time>2026-04-16T14:53:32.999Z</time></trkpt><trkpt lat="44.5487227" lon="8.9260423"><ele>408.0</ele><time>2026-04-16T14:53:33.999Z</time></trkpt><trkpt lat="44.5486291" lon="8.9260343"><ele>408.0</ele><time>2026-04-16T14:53:34.999Z</time></trkpt><trkpt lat="44.5485612" lon="8.9260695"><ele>408.0</ele><time>2026-04-16T14:53:35.999Z</time></trkpt><trkpt lat="44.5485119" lon="8.9261297"><ele>408.0</ele><time>2026-04-16T14:53:36.999Z</time></trkpt><trkpt lat="44.5484895" lon="8.9262205"><ele>407.1666666666667</ele><time>2026-04-16T14:53:37.999Z</time></trkpt><trkpt lat="44.5484936" lon="8.9263183"><ele>406.33333333333337</ele><time>2026-04-16T14:53:38.999Z</time></trkpt><trkpt lat="44.5485271" lon="8.9264115"><ele>405.5</ele><time>2026-04-16T14:53:39.999Z</time></trkpt><trkpt lat="44.5485796" lon="8.9264943"><ele>404.6666666666667</ele><time>2026-04-16T14:53:40.999Z</time></trkpt><trkpt lat="44.5486434" lon="8.9265754"><ele>403.83333333333337</ele><time>2026-04-16T14:53:41.999Z</time></trkpt><trkpt lat="44.5487048" lon="8.926659"><ele>403.0</ele><time>2026-04-16T14:53:42.999Z</time></trkpt><trkpt lat="44.5487606" lon="8.9267534"><ele>403.0</ele><time>2026-04-16T14:53:43.999Z</time></trkpt><trkpt lat="44.5488121" lon="8.9268593"><ele>403.0</ele><time>2026-04-16T14:53:44.999Z</time></trkpt><trkpt lat="44.5488459" lon="8.9269828"><ele>403.0</ele><time>2026-04-16T14:53:45.999Z</time></trkpt><trkpt lat="44.5488697" lon="8.9271212"><ele>403.0</ele><time>2026-04-16T14:53:46.999Z</time></trkpt><trkpt lat="44.5488784" lon="8.9272782"><ele>403.0</ele><time>2026-04-16T14:53:47.999Z</time></trkpt><trkpt lat="44.5488759" lon="8.9274187"><ele>402.79999999999995</ele><time>2026-04-16T14:53:48.999Z</time></trkpt><trkpt lat="44.5488633" lon="8.9275625"><ele>402.6</ele><time>2026-04-16T14:53:49.999Z</time></trkpt><trkpt lat="44.5488412" lon="8.9277056"><ele>402.4</ele><time>2026-04-16T14:53:50.999Z</time></trkpt><trkpt lat="44.5488131" lon="8.9278399"><ele>402.20000000000005</ele><time>2026-04-16T14:53:51.999Z</time></trkpt><trkpt lat="44.5487739" lon="8.9279704"><ele>402.0</ele><time>2026-04-16T14:53:52.999Z</time></trkpt><trkpt lat="44.5487334" lon="8.9280748"><ele>402.0</ele><time>2026-04-16T14:53:53.999Z</time></trkpt><trkpt lat="44.5486908" lon="8.9281817"><ele>402.0</ele><time>2026-04-16T14:53:54.999Z</time></trkpt><trkpt lat="44.5486566" lon="8.928293"><ele>402.0</ele><time>2026-04-16T14:53:55.999Z</time></trkpt><trkpt lat="44.5486425" lon="8.9284109"><ele>402.0</ele><time>2026-04-16T14:53:56.999Z</time></trkpt><trkpt lat="44.5486501" lon="8.9285403"><ele>402.0</ele><time>2026-04-16T14:53:57.999Z</time></trkpt><trkpt lat="44.5486827" lon="8.9286597"><ele>402.0</ele><time>2026-04-16T14:53:58.999Z</time></trkpt><trkpt lat="44.5487289" lon="8.928767"><ele>402.0</ele><time>2026-04-16T14:53:59.999Z</time></trkpt><trkpt lat="44.548773" lon="8.9288723"><ele>402.0</ele><time>2026-04-16T14:54:01.104Z</time></trkpt><trkpt lat="44.5488034" lon="8.9291087"><ele>402.0</ele><time>2026-04-16T14:54:02.999Z</time></trkpt><trkpt lat="44.5487759" lon="8.9292411"><ele>402.0</ele><time>2026-04-16T14:54:03.999Z</time></trkpt><trkpt lat="44.5487323" lon="8.9293543"><ele>402.0</ele><time>2026-04-16T14:54:04.999Z</time></trkpt><trkpt lat="44.5486719" lon="8.9294677"><ele>398.20000000000005</ele><time>2026-04-16T14:54:05.999Z</time></trkpt><trkpt lat="44.5486048" lon="8.9295774"><ele>394.4</ele><time>2026-04-16T14:54:06.999Z</time></trkpt><trkpt lat="44.5485413" lon="8.9296783"><ele>390.6</ele><time>2026-04-16T14:54:07.999Z</time></trkpt><trkpt lat="44.5484741" lon="8.9297828"><ele>386.79999999999995</ele><time>2026-04-16T14:54:08.999Z</time></trkpt><trkpt lat="44.5483982" lon="8.9298874"><ele>383.0</ele><time>2026-04-16T14:54:09.999Z</time></trkpt><trkpt lat="44.5483171" lon="8.9299866"><ele>381.79999999999995</ele><time>2026-04-16T14:54:10.999Z</time></trkpt><trkpt lat="44.5482228" lon="8.930081"><ele>380.6</ele><time>2026-04-16T14:54:11.999Z</time></trkpt><trkpt lat="44.5481356" lon="8.9301603"><ele>379.4</ele><time>2026-04-16T14:54:12.999Z</time></trkpt><trkpt lat="44.5480422" lon="8.9302343"><ele>378.20000000000005</ele><time>2026-04-16T14:54:13.999Z</time></trkpt><trkpt lat="44.5479463" lon="8.9303054"><ele>377.0</ele><time>2026-04-16T14:54:14.999Z</time></trkpt><trkpt lat="44.5478499" lon="8.9303776"><ele>377.0</ele><time>2026-04-16T14:54:15.999Z</time></trkpt><trkpt lat="44.5477517" lon="8.9304625"><ele>377.0</ele><time>2026-04-16T14:54:16.999Z</time></trkpt><trkpt lat="44.5476697" lon="8.9305561"><ele>377.0</ele><time>2026-04-16T14:54:17.999Z</time></trkpt><trkpt lat="44.5475996" lon="8.9306683"><ele>377.0</ele><time>2026-04-16T14:54:18.999Z</time></trkpt><trkpt lat="44.5475424" lon="8.9307945"><ele>377.0</ele><time>2026-04-16T14:54:19.999Z</time></trkpt><trkpt lat="44.5474888" lon="8.93092"><ele>380.0</ele><time>2026-04-16T14:54:20.999Z</time></trkpt><trkpt lat="44.5474377" lon="8.9310555"><ele>383.0</ele><time>2026-04-16T14:54:21.999Z</time></trkpt><trkpt lat="44.5473826" lon="8.9311887"><ele>386.0</ele><time>2026-04-16T14:54:22.999Z</time></trkpt><trkpt lat="44.5473178" lon="8.9313119"><ele>389.0</ele><time>2026-04-16T14:54:23.999Z</time></trkpt><trkpt lat="44.5472444" lon="8.9314215"><ele>392.0</ele><time>2026-04-16T14:54:24.999Z</time></trkpt><trkpt lat="44.5471635" lon="8.9315102"><ele>392.0</ele><time>2026-04-16T14:54:25.999Z</time></trkpt><trkpt lat="44.5470725" lon="8.9315792"><ele>392.0</ele><time>2026-04-16T14:54:26.999Z</time></trkpt><trkpt lat="44.5469729" lon="8.9316266"><ele>392.0</ele><time>2026-04-16T14:54:27.999Z</time></trkpt><trkpt lat="44.5468703" lon="8.9316558"><ele>392.0</ele><time>2026-04-16T14:54:28.999Z</time></trkpt><trkpt lat="44.5467649" lon="8.9316777"><ele>392.0</ele><time>2026-04-16T14:54:29.999Z</time></trkpt><trkpt lat="44.5466627" lon="8.9317004"><ele>390.8</ele><time>2026-04-16T14:54:30.999Z</time></trkpt><trkpt lat="44.5465621" lon="8.9317338"><ele>389.6</ele><time>2026-04-16T14:54:31.999Z</time></trkpt><trkpt lat="44.5464639" lon="8.9317909"><ele>388.40000000000003</ele><time>2026-04-16T14:54:32.999Z</time></trkpt><trkpt lat="44.546373" lon="8.9318684"><ele>387.20000000000005</ele><time>2026-04-16T14:54:33.999Z</time></trkpt><trkpt lat="44.5462852" lon="8.9319643"><ele>386.0</ele><time>2026-04-16T14:54:34.999Z</time></trkpt><trkpt lat="44.546195" lon="8.9320718"><ele>381.4</ele><time>2026-04-16T14:54:35.999Z</time></trkpt><trkpt lat="44.5461123" lon="8.9321715"><ele>376.8</ele><time>2026-04-16T14:54:36.999Z</time></trkpt><trkpt lat="44.5460289" lon="8.9322748"><ele>372.2</ele><time>2026-04-16T14:54:37.999Z</time></trkpt><trkpt lat="44.5459483" lon="8.9323813"><ele>367.59999999999997</ele><time>2026-04-16T14:54:38.999Z</time></trkpt><trkpt lat="44.5458778" lon="8.9324863"><ele>363.0</ele><time>2026-04-16T14:54:39.999Z</time></trkpt><trkpt lat="44.5458224" lon="8.9325973"><ele>363.0</ele><time>2026-04-16T14:54:40.999Z</time></trkpt><trkpt lat="44.5457816" lon="8.9327126"><ele>363.0</ele><time>2026-04-16T14:54:41.999Z</time></trkpt><trkpt lat="44.5457615" lon="8.9328421"><ele>363.0</ele><time>2026-04-16T14:54:42.999Z</time></trkpt><trkpt lat="44.5457628" lon="8.9329838"><ele>363.0</ele><time>2026-04-16T14:54:43.999Z</time></trkpt><trkpt lat="44.5457848" lon="8.9331221"><ele>363.0</ele><time>2026-04-16T14:54:44.999Z</time></trkpt><trkpt lat="44.5458194" lon="8.9332651"><ele>362.4</ele><time>2026-04-16T14:54:45.999Z</time></trkpt><trkpt lat="44.5458597" lon="8.9334038"><ele>361.79999999999995</ele><time>2026-04-16T14:54:46.999Z</time></trkpt><trkpt lat="44.5459009" lon="8.9335418"><ele>361.2</ele><time>2026-04-16T14:54:47.999Z</time></trkpt><trkpt lat="44.5459462" lon="8.933692"><ele>360.6</ele><time>2026-04-16T14:54:48.999Z</time></trkpt><trkpt lat="44.5459975" lon="8.9338391"><ele>360.0</ele><time>2026-04-16T14:54:49.999Z</time></trkpt><trkpt lat="44.5460462" lon="8.9339867"><ele>360.0</ele><time>2026-04-16T14:54:50.999Z</time></trkpt><trkpt lat="44.5460915" lon="8.9341371"><ele>360.0</ele><time>2026-04-16T14:54:51.999Z</time></trkpt><trkpt lat="44.5461295" lon="8.9342727"><ele>360.0</ele><time>2026-04-16T14:54:52.999Z</time></trkpt><trkpt lat="44.5461592" lon="8.9344153"><ele>360.0</ele><time>2026-04-16T14:54:53.999Z</time></trkpt><trkpt lat="44.5461769" lon="8.934553"><ele>360.0</ele><time>2026-04-16T14:54:55.101Z</time></trkpt><trkpt lat="44.5461597" lon="8.9348147"><ele>360.4</ele><time>2026-04-16T14:54:56.999Z</time></trkpt><trkpt lat="44.5461216" lon="8.9349256"><ele>360.8</ele><time>2026-04-16T14:54:57.999Z</time></trkpt><trkpt lat="44.5460671" lon="8.9350174"><ele>361.20000000000005</ele><time>2026-04-16T14:54:58.999Z</time></trkpt><trkpt lat="44.5459932" lon="8.9351134"><ele>361.6</ele><time>2026-04-16T14:54:59.999Z</time></trkpt><trkpt lat="44.545911" lon="8.9352002"><ele>362.0</ele><time>2026-04-16T14:55:00.999Z</time></trkpt><trkpt lat="44.5458187" lon="8.9352859"><ele>359.5</ele><time>2026-04-16T14:55:01.999Z</time></trkpt><trkpt lat="44.5457209" lon="8.935379"><ele>357.0</ele><time>2026-04-16T14:55:02.999Z</time></trkpt><trkpt lat="44.54562" lon="8.9354857"><ele>354.5</ele><time>2026-04-16T14:55:03.999Z</time></trkpt><trkpt lat="44.5455215" lon="8.9355993"><ele>352.0</ele><time>2026-04-16T14:55:04.999Z</time></trkpt><trkpt lat="44.5454167" lon="8.9357437"><ele>350.66666666666663</ele><time>2026-04-16T14:55:05.999Z</time></trkpt><trkpt lat="44.5453026" lon="8.9359075"><ele>349.3333333333333</ele><time>2026-04-16T14:55:06.999Z</time></trkpt><trkpt lat="44.5451827" lon="8.9360814"><ele>348.0</ele><time>2026-04-16T14:55:07.999Z</time></trkpt><trkpt lat="44.5450717" lon="8.9362427"><ele>348.0</ele><time>2026-04-16T14:55:08.999Z</time></trkpt><trkpt lat="44.544974" lon="8.936384"><ele>348.0</ele><time>2026-04-16T14:55:09.999Z</time></trkpt><trkpt lat="44.54488" lon="8.9365208"><ele>348.0</ele><time>2026-04-16T14:55:10.999Z</time></trkpt><trkpt lat="44.544789" lon="8.9366525"><ele>348.0</ele><time>2026-04-16T14:55:11.999Z</time></trkpt><trkpt lat="44.5447055" lon="8.9367769"><ele>345.4</ele><time>2026-04-16T14:55:12.999Z</time></trkpt><trkpt lat="44.5446267" lon="8.9368916"><ele>342.79999999999995</ele><time>2026-04-16T14:55:13.999Z</time></trkpt><trkpt lat="44.5445511" lon="8.9369864"><ele>340.2</ele><time>2026-04-16T14:55:14.999Z</time></trkpt><trkpt lat="44.5444755" lon="8.9370625"><ele>337.6</ele><time>2026-04-16T14:55:15.999Z</time></trkpt><trkpt lat="44.544403" lon="8.9371123"><ele>335.0</ele><time>2026-04-16T14:55:16.999Z</time></trkpt><trkpt lat="44.5443211" lon="8.9371377"><ele>335.0</ele><time>2026-04-16T14:55:17.999Z</time></trkpt><trkpt lat="44.5442404" lon="8.9371198"><ele>335.0</ele><time>2026-04-16T14:55:18.999Z</time></trkpt><trkpt lat="44.5441603" lon="8.9370601"><ele>335.0</ele><time>2026-04-16T14:55:19.999Z</time></trkpt><trkpt lat="44.5440819" lon="8.9369648"><ele>335.0</ele><time>2026-04-16T14:55:20.999Z</time></trkpt><trkpt lat="44.544" lon="8.9368364"><ele>335.0</ele><time>2026-04-16T14:55:21.999Z</time></trkpt><trkpt lat="44.5439065" lon="8.9366852"><ele>331.6666666666667</ele><time>2026-04-16T14:55:22.999Z</time></trkpt><trkpt lat="44.5437902" lon="8.9365026"><ele>328.3333333333333</ele><time>2026-04-16T14:55:23.999Z</time></trkpt><trkpt lat="44.5436778" lon="8.9363177"><ele>325.0</ele><time>2026-04-16T14:55:24.999Z</time></trkpt><trkpt lat="44.5435507" lon="8.936125"><ele>325.0</ele><time>2026-04-16T14:55:25.999Z</time></trkpt><trkpt lat="44.5434225" lon="8.9359438"><ele>325.0</ele><time>2026-04-16T14:55:26.999Z</time></trkpt><trkpt lat="44.5432955" lon="8.9357689"><ele>325.0</ele><time>2026-04-16T14:55:27.999Z</time></trkpt><trkpt lat="44.5431708" lon="8.9356005"><ele>322.5</ele><time>2026-04-16T14:55:28.999Z</time></trkpt><trkpt lat="44.5430675" lon="8.9354693"><ele>320.0</ele><time>2026-04-16T14:55:29.999Z</time></trkpt><trkpt lat="44.5429542" lon="8.9353489"><ele>317.5</ele><time>2026-04-16T14:55:30.999Z</time></trkpt><trkpt lat="44.5428353" lon="8.9352466"><ele>315.0</ele><time>2026-04-16T14:55:31.999Z</time></trkpt><trkpt lat="44.5427182" lon="8.9351778"><ele>315.0</ele><time>2026-04-16T14:55:32.999Z</time></trkpt><trkpt lat="44.5425959" lon="8.9351257"><ele>315.0</ele><time>2026-04-16T14:55:33.999Z</time></trkpt><trkpt lat="44.5424653" lon="8.9350724"><ele>315.0</ele><time>2026-04-16T14:55:34.999Z</time></trkpt><trkpt lat="44.5423343" lon="8.9349941"><ele>315.0</ele><time>2026-04-16T14:55:35.999Z</time></trkpt><trkpt lat="44.5422124" lon="8.9348821"><ele>314.3333333333333</ele><time>2026-04-16T14:55:36.999Z</time></trkpt><trkpt lat="44.5421011" lon="8.9347546"><ele>313.66666666666663</ele><time>2026-04-16T14:55:37.999Z</time></trkpt><trkpt lat="44.5420044" lon="8.934628"><ele>313.0</ele><time>2026-04-16T14:55:39.102Z</time></trkpt><trkpt lat="44.5418842" lon="8.9343522"><ele>312.75</ele><time>2026-04-16T14:55:40.999Z</time></trkpt><trkpt lat="44.5418585" lon="8.9341709"><ele>312.5</ele><time>2026-04-16T14:55:41.999Z</time></trkpt><trkpt lat="44.5418679" lon="8.9339738"><ele>312.25</ele><time>2026-04-16T14:55:42.999Z</time></trkpt><trkpt lat="44.541896" lon="8.933769"><ele>312.0</ele><time>2026-04-16T14:55:43.999Z</time></trkpt><trkpt lat="44.541935" lon="8.9335615"><ele>309.0</ele><time>2026-04-16T14:55:44.999Z</time></trkpt><trkpt lat="44.541979" lon="8.9333578"><ele>306.0</ele><time>2026-04-16T14:55:45.999Z</time></trkpt><trkpt lat="44.542045" lon="8.9331642"><ele>303.0</ele><time>2026-04-16T14:55:46.999Z</time></trkpt><trkpt lat="44.5421381" lon="8.9329785"><ele>304.0</ele><time>2026-04-16T14:55:47.999Z</time></trkpt><trkpt lat="44.5422503" lon="8.9328072"><ele>305.0</ele><time>2026-04-16T14:55:48.999Z</time></trkpt><trkpt lat="44.5423574" lon="8.9326515"><ele>306.0</ele><time>2026-04-16T14:55:49.999Z</time></trkpt><trkpt lat="44.54247" lon="8.9325136"><ele>306.0</ele><time>2026-04-16T14:55:50.999Z</time></trkpt><trkpt lat="44.5425799" lon="8.9323977"><ele>306.0</ele><time>2026-04-16T14:55:51.999Z</time></trkpt><trkpt lat="44.5426942" lon="8.9323261"><ele>306.0</ele><time>2026-04-16T14:55:52.999Z</time></trkpt><trkpt lat="44.5428159" lon="8.9323025"><ele>306.0</ele><time>2026-04-16T14:55:53.999Z</time></trkpt><trkpt lat="44.5429347" lon="8.9323256"><ele>306.75</ele><time>2026-04-16T14:55:54.999Z</time></trkpt><trkpt lat="44.543056" lon="8.9323852"><ele>307.5</ele><time>2026-04-16T14:55:55.999Z</time></trkpt><trkpt lat="44.5431748" lon="8.9324331"><ele>308.25</ele><time>2026-04-16T14:55:56.999Z</time></trkpt><trkpt lat="44.5432872" lon="8.9324539"><ele>309.0</ele><time>2026-04-16T14:55:57.999Z</time></trkpt><trkpt lat="44.5434007" lon="8.9324413"><ele>309.0</ele><time>2026-04-16T14:55:58.999Z</time></trkpt><trkpt lat="44.543492" lon="8.9324025"><ele>309.0</ele><time>2026-04-16T14:55:59.999Z</time></trkpt><trkpt lat="44.5435787" lon="8.9323234"><ele>309.0</ele><time>2026-04-16T14:56:00.999Z</time></trkpt><trkpt lat="44.5436204" lon="8.9322195"><ele>309.0</ele><time>2026-04-16T14:56:01.999Z</time></trkpt><trkpt lat="44.5436355" lon="8.9320856"><ele>309.0</ele><time>2026-04-16T14:56:02.998Z</time></trkpt><trkpt lat="44.543635" lon="8.9319372"><ele>309.0</ele><time>2026-04-16T14:56:03.999Z</time></trkpt><trkpt lat="44.5436317" lon="8.9317988"><ele>309.0</ele><time>2026-04-16T14:56:04.999Z</time></trkpt><trkpt lat="44.5436426" lon="8.9316662"><ele>309.0</ele><time>2026-04-16T14:56:05.999Z</time></trkpt><trkpt lat="44.5436828" lon="8.9315624"><ele>309.0</ele><time>2026-04-16T14:56:06.999Z</time></trkpt><trkpt lat="44.5437489" lon="8.9314949"><ele>309.0</ele><time>2026-04-16T14:56:07.999Z</time></trkpt><trkpt lat="44.5438232" lon="8.9314695"><ele>309.0</ele><time>2026-04-16T14:56:08.999Z</time></trkpt><trkpt lat="44.5439079" lon="8.9314555"><ele>309.0</ele><time>2026-04-16T14:56:09.999Z</time></trkpt><trkpt lat="44.5439937" lon="8.9314404"><ele>309.0</ele><time>2026-04-16T14:56:10.999Z</time></trkpt><trkpt lat="44.5440793" lon="8.9314029"><ele>309.0</ele><time>2026-04-16T14:56:11.999Z</time></trkpt><trkpt lat="44.5441418" lon="8.9313371"><ele>309.0</ele><time>2026-04-16T14:56:12.999Z</time></trkpt><trkpt lat="44.5441647" lon="8.9311824"><ele>309.0</ele><time>2026-04-16T14:56:13.999Z</time></trkpt><trkpt lat="44.5441782" lon="8.9310662"><ele>309.0</ele><time>2026-04-16T14:56:14.999Z</time></trkpt><trkpt lat="44.5441596" lon="8.9309217"><ele>309.0</ele><time>2026-04-16T14:56:15.999Z</time></trkpt><trkpt lat="44.5441401" lon="8.9307967"><ele>309.0</ele><time>2026-04-16T14:56:16.999Z</time></trkpt><trkpt lat="44.5441032" lon="8.9306377"><ele>309.0</ele><time>2026-04-16T14:56:17.999Z</time></trkpt><trkpt lat="44.5440716" lon="8.9304771"><ele>309.0</ele><time>2026-04-16T14:56:18.999Z</time></trkpt><trkpt lat="44.5440332" lon="8.930308"><ele>306.0</ele><time>2026-04-16T14:56:19.999Z</time></trkpt><trkpt lat="44.5440031" lon="8.9301455"><ele>303.0</ele><time>2026-04-16T14:56:20.999Z</time></trkpt><trkpt lat="44.5439896" lon="8.9299949"><ele>300.0</ele><time>2026-04-16T14:56:21.999Z</time></trkpt><trkpt lat="44.543988" lon="8.9298484"><ele>297.0</ele><time>2026-04-16T14:56:22.999Z</time></trkpt><trkpt lat="44.5439981" lon="8.9297056"><ele>294.0</ele><time>2026-04-16T14:56:23.999Z</time></trkpt><trkpt lat="44.54402" lon="8.9295768"><ele>293.0</ele><time>2026-04-16T14:56:24.999Z</time></trkpt><trkpt lat="44.5440498" lon="8.9294708"><ele>292.0</ele><time>2026-04-16T14:56:25.999Z</time></trkpt><trkpt lat="44.5440963" lon="8.9293843"><ele>291.0</ele><time>2026-04-16T14:56:26.999Z</time></trkpt><trkpt lat="44.5441628" lon="8.9293099"><ele>290.0</ele><time>2026-04-16T14:56:27.999Z</time></trkpt><trkpt lat="44.5442412" lon="8.9292708"><ele>289.0</ele><time>2026-04-16T14:56:28.999Z</time></trkpt><trkpt lat="44.5443317" lon="8.9292584"><ele>288.0</ele><time>2026-04-16T14:56:29.999Z</time></trkpt><trkpt lat="44.5444226" lon="8.9292557"><ele>288.0</ele><time>2026-04-16T14:56:30.999Z</time></trkpt><trkpt lat="44.5445218" lon="8.929261"><ele>288.0</ele><time>2026-04-16T14:56:31.999Z</time></trkpt><trkpt lat="44.5446175" lon="8.9292615"><ele>288.0</ele><time>2026-04-16T14:56:32.999Z</time></trkpt><trkpt lat="44.5447039" lon="8.9292469"><ele>288.0</ele><time>2026-04-16T14:56:33.999Z</time></trkpt><trkpt lat="44.5447697" lon="8.9292084"><ele>288.0</ele><time>2026-04-16T14:56:34.999Z</time></trkpt><trkpt lat="44.5448231" lon="8.9291405"><ele>288.0</ele><time>2026-04-16T14:56:35.999Z</time></trkpt><trkpt lat="44.5448491" lon="8.9290582"><ele>287.1666666666667</ele><time>2026-04-16T14:56:36.999Z</time></trkpt><trkpt lat="44.5448574" lon="8.9289568"><ele>286.3333333333333</ele><time>2026-04-16T14:56:37.999Z</time></trkpt><trkpt lat="44.5448382" lon="8.9288547"><ele>285.5</ele><time>2026-04-16T14:56:38.999Z</time></trkpt><trkpt lat="44.5447916" lon="8.9287715"><ele>284.66666666666663</ele><time>2026-04-16T14:56:39.999Z</time></trkpt><trkpt lat="44.5447205" lon="8.9286989"><ele>283.8333333333333</ele><time>2026-04-16T14:56:40.999Z</time></trkpt><trkpt lat="44.544643" lon="8.9286376"><ele>283.0</ele><time>2026-04-16T14:56:41.999Z</time></trkpt><trkpt lat="44.5445583" lon="8.9285669"><ele>281.5</ele><time>2026-04-16T14:56:42.999Z</time></trkpt><trkpt lat="44.5444783" lon="8.928488"><ele>280.0</ele><time>2026-04-16T14:56:43.999Z</time></trkpt><trkpt lat="44.5444119" lon="8.9284088"><ele>278.5</ele><time>2026-04-16T14:56:44.999Z</time></trkpt><trkpt lat="44.5443584" lon="8.9283213"><ele>277.0</ele><time>2026-04-16T14:56:45.999Z</time></trkpt><trkpt lat="44.5443118" lon="8.9282362"><ele>275.5</ele><time>2026-04-16T14:56:46.999Z</time></trkpt><trkpt lat="44.5442695" lon="8.9281505"><ele>274.0</ele><time>2026-04-16T14:56:47.999Z</time></trkpt><trkpt lat="44.5442184" lon="8.9280739"><ele>271.5</ele><time>2026-04-16T14:56:48.999Z</time></trkpt><trkpt lat="44.5441461" lon="8.9280179"><ele>269.0</ele><time>2026-04-16T14:56:49.999Z</time></trkpt><trkpt lat="44.5440624" lon="8.9280034"><ele>266.5</ele><time>2026-04-16T14:56:50.999Z</time></trkpt><trkpt lat="44.5439727" lon="8.9280282"><ele>264.0</ele><time>2026-04-16T14:56:51.999Z</time></trkpt><trkpt lat="44.5436909" lon="8.9282149"><ele>263.8</ele><time>2026-04-16T14:56:54.999Z</time></trkpt><trkpt lat="44.5435969" lon="8.9282818"><ele>263.59999999999997</ele><time>2026-04-16T14:56:55.999Z</time></trkpt><trkpt lat="44.5435065" lon="8.9283509"><ele>263.4</ele><time>2026-04-16T14:56:56.999Z</time></trkpt><trkpt lat="44.543424" lon="8.9284268"><ele>263.2</ele><time>2026-04-16T14:56:57.999Z</time></trkpt><trkpt lat="44.5433414" lon="8.9285212"><ele>263.0</ele><time>2026-04-16T14:56:58.999Z</time></trkpt><trkpt lat="44.5432763" lon="8.9286186"><ele>262.33333333333337</ele><time>2026-04-16T14:56:59.999Z</time></trkpt><trkpt lat="44.5432359" lon="8.9287058"><ele>261.6666666666667</ele><time>2026-04-16T14:57:00.999Z</time></trkpt><trkpt lat="44.5432122" lon="8.9287922"><ele>261.0</ele><time>2026-04-16T14:57:01.999Z</time></trkpt><trkpt lat="44.543177" lon="8.928954"><ele>260.3333333333333</ele><time>2026-04-16T14:57:03.999Z</time></trkpt><trkpt lat="44.5431423" lon="8.9290329"><ele>259.66666666666663</ele><time>2026-04-16T14:57:04.999Z</time></trkpt><trkpt lat="44.5430917" lon="8.929095"><ele>259.0</ele><time>2026-04-16T14:57:06.114Z</time></trkpt><trkpt lat="44.542925" lon="8.9291622"><ele>257.25</ele><time>2026-04-16T14:57:07.999Z</time></trkpt><trkpt lat="44.542831" lon="8.9291681"><ele>255.5</ele><time>2026-04-16T14:57:08.999Z</time></trkpt><trkpt lat="44.5427281" lon="8.9291614"><ele>253.75</ele><time>2026-04-16T14:57:09.999Z</time></trkpt><trkpt lat="44.5426242" lon="8.9291444"><ele>252.0</ele><time>2026-04-16T14:57:11.102Z</time></trkpt><trkpt lat="44.5424094" lon="8.9291573"><ele>252.0</ele><time>2026-04-16T14:57:12.999Z</time></trkpt><trkpt lat="44.5423082" lon="8.929188"><ele>252.0</ele><time>2026-04-16T14:57:13.999Z</time></trkpt><trkpt lat="44.5422092" lon="8.9292354"><ele>252.0</ele><time>2026-04-16T14:57:14.999Z</time></trkpt><trkpt lat="44.5421112" lon="8.9292907"><ele>252.0</ele><time>2026-04-16T14:57:15.999Z</time></trkpt><trkpt lat="44.5420208" lon="8.9293521"><ele>252.0</ele><time>2026-04-16T14:57:16.999Z</time></trkpt><trkpt lat="44.5419412" lon="8.929426"><ele>253.39999999999998</ele><time>2026-04-16T14:57:17.999Z</time></trkpt><trkpt lat="44.5418764" lon="8.9295242"><ele>254.79999999999998</ele><time>2026-04-16T14:57:18.999Z</time></trkpt><trkpt lat="44.5418317" lon="8.9296479"><ele>256.2</ele><time>2026-04-16T14:57:19.999Z</time></trkpt><trkpt lat="44.5418052" lon="8.9297875"><ele>257.59999999999997</ele><time>2026-04-16T14:57:20.999Z</time></trkpt><trkpt lat="44.5417907" lon="8.929926"><ele>259.0</ele><time>2026-04-16T14:57:21.999Z</time></trkpt><trkpt lat="44.5417838" lon="8.9300547"><ele>257.3333333333333</ele><time>2026-04-16T14:57:22.999Z</time></trkpt><trkpt lat="44.5417765" lon="8.9301784"><ele>255.66666666666666</ele><time>2026-04-16T14:57:23.999Z</time></trkpt><trkpt lat="44.5417632" lon="8.930289"><ele>254.0</ele><time>2026-04-16T14:57:24.999Z</time></trkpt><trkpt lat="44.541739" lon="8.9303969"><ele>252.33333333333331</ele><time>2026-04-16T14:57:25.999Z</time></trkpt><trkpt lat="44.5416954" lon="8.9304878"><ele>250.66666666666666</ele><time>2026-04-16T14:57:26.999Z</time></trkpt><trkpt lat="44.541633" lon="8.9305574"><ele>249.0</ele><time>2026-04-16T14:57:27.999Z</time></trkpt><trkpt lat="44.5415488" lon="8.9306195"><ele>249.0</ele><time>2026-04-16T14:57:28.999Z</time></trkpt><trkpt lat="44.5414627" lon="8.930672"><ele>248.99999999999997</ele><time>2026-04-16T14:57:29.999Z</time></trkpt><trkpt lat="44.5413669" lon="8.9307256"><ele>248.99999999999997</ele><time>2026-04-16T14:57:30.999Z</time></trkpt><trkpt lat="44.5412601" lon="8.9307837"><ele>249.0</ele><time>2026-04-16T14:57:31.999Z</time></trkpt><trkpt lat="44.5411597" lon="8.9308364"><ele>249.0</ele><time>2026-04-16T14:57:32.997Z</time></trkpt><trkpt lat="44.5410568" lon="8.9308926"><ele>248.39999999999998</ele><time>2026-04-16T14:57:33.999Z</time></trkpt><trkpt lat="44.5409525" lon="8.9309478"><ele>247.79999999999998</ele><time>2026-04-16T14:57:34.999Z</time></trkpt><trkpt lat="44.5408511" lon="8.9309962"><ele>247.20000000000002</ele><time>2026-04-16T14:57:35.999Z</time></trkpt><trkpt lat="44.5407495" lon="8.9310455"><ele>246.60000000000002</ele><time>2026-04-16T14:57:36.997Z</time></trkpt><trkpt lat="44.5406469" lon="8.9310946"><ele>246.0</ele><time>2026-04-16T14:57:37.999Z</time></trkpt><trkpt lat="44.5405386" lon="8.9311466"><ele>246.0</ele><time>2026-04-16T14:57:38.999Z</time></trkpt><trkpt lat="44.5404159" lon="8.9312019"><ele>246.0</ele><time>2026-04-16T14:57:39.999Z</time></trkpt><trkpt lat="44.5403" lon="8.9312432"><ele>246.0</ele><time>2026-04-16T14:57:40.999Z</time></trkpt><trkpt lat="44.540192" lon="8.9312683"><ele>246.0</ele><time>2026-04-16T14:57:41.999Z</time></trkpt><trkpt lat="44.5400822" lon="8.9312977"><ele>244.60000000000002</ele><time>2026-04-16T14:57:42.999Z</time></trkpt><trkpt lat="44.5399848" lon="8.9313391"><ele>243.20000000000002</ele><time>2026-04-16T14:57:43.999Z</time></trkpt><trkpt lat="44.539809" lon="8.9314416"><ele>241.79999999999998</ele><time>2026-04-16T14:57:45.999Z</time></trkpt><trkpt lat="44.5397393" lon="8.9314821"><ele>240.39999999999998</ele><time>2026-04-16T14:57:46.999Z</time></trkpt><trkpt lat="44.5396757" lon="8.9315122"><ele>239.0</ele><time>2026-04-16T14:57:47.999Z</time></trkpt><trkpt lat="44.53955" lon="8.9315171"><ele>239.0</ele><time>2026-04-16T14:57:50.101Z</time></trkpt><trkpt lat="44.5394067" lon="8.9314196"><ele>239.0</ele><time>2026-04-16T14:57:51.999Z</time></trkpt><trkpt lat="44.5393383" lon="8.9313306"><ele>239.0</ele><time>2026-04-16T14:57:52.999Z</time></trkpt><trkpt lat="44.5392811" lon="8.9312214"><ele>239.0</ele><time>2026-04-16T14:57:53.999Z</time></trkpt><trkpt lat="44.539219" lon="8.9310992"><ele>239.0</ele><time>2026-04-16T14:57:55.104Z</time></trkpt><trkpt lat="44.5391505" lon="8.9309649"><ele>239.0</ele><time>2026-04-16T14:57:56.1Z</time></trkpt><trkpt lat="44.539014" lon="8.9306931"><ele>239.0</ele><time>2026-04-16T14:57:58.108Z</time></trkpt><trkpt lat="44.5388784" lon="8.9304168"><ele>238.75</ele><time>2026-04-16T14:57:59.999Z</time></trkpt><trkpt lat="44.5388064" lon="8.9302826"><ele>238.5</ele><time>2026-04-16T14:58:00.999Z</time></trkpt><trkpt lat="44.5387415" lon="8.9301503"><ele>238.25</ele><time>2026-04-16T14:58:01.999Z</time></trkpt><trkpt lat="44.5386891" lon="8.930012"><ele>238.0</ele><time>2026-04-16T14:58:02.999Z</time></trkpt><trkpt lat="44.538629" lon="8.9298531"><ele>238.0</ele><time>2026-04-16T14:58:03.999Z</time></trkpt><trkpt lat="44.53858" lon="8.9296947"><ele>238.0</ele><time>2026-04-16T14:58:04.999Z</time></trkpt><trkpt lat="44.538534" lon="8.9295349"><ele>238.0</ele><time>2026-04-16T14:58:05.999Z</time></trkpt><trkpt lat="44.5384868" lon="8.9293688"><ele>238.0</ele><time>2026-04-16T14:58:06.999Z</time></trkpt><trkpt lat="44.5384416" lon="8.9291963"><ele>236.5</ele><time>2026-04-16T14:58:07.999Z</time></trkpt><trkpt lat="44.5384023" lon="8.9290213"><ele>235.0</ele><time>2026-04-16T14:58:08.999Z</time></trkpt><trkpt lat="44.538364" lon="8.9288519"><ele>233.5</ele><time>2026-04-16T14:58:09.999Z</time></trkpt><trkpt lat="44.5383296" lon="8.9286941"><ele>232.0</ele><time>2026-04-16T14:58:10.999Z</time></trkpt><trkpt lat="44.538295" lon="8.9285344"><ele>231.0</ele><time>2026-04-16T14:58:11.999Z</time></trkpt><trkpt lat="44.5382606" lon="8.9283658"><ele>230.0</ele><time>2026-04-16T14:58:12.999Z</time></trkpt><trkpt lat="44.5382292" lon="8.9282022"><ele>229.0</ele><time>2026-04-16T14:58:13.999Z</time></trkpt><trkpt lat="44.538198" lon="8.9280472"><ele>228.0</ele><time>2026-04-16T14:58:14.999Z</time></trkpt><trkpt lat="44.5381659" lon="8.9278927"><ele>228.0</ele><time>2026-04-16T14:58:15.999Z</time></trkpt><trkpt lat="44.5381291" lon="8.9277414"><ele>228.0</ele><time>2026-04-16T14:58:16.999Z</time></trkpt><trkpt lat="44.5380925" lon="8.9275955"><ele>228.0</ele><time>2026-04-16T14:58:17.999Z</time></trkpt><trkpt lat="44.5380559" lon="8.9274596"><ele>228.0</ele><time>2026-04-16T14:58:18.999Z</time></trkpt><trkpt lat="44.5380178" lon="8.9273262"><ele>228.0</ele><time>2026-04-16T14:58:19.999Z</time></trkpt><trkpt lat="44.5379927" lon="8.927215"><ele>227.66666666666666</ele><time>2026-04-16T14:58:20.999Z</time></trkpt><trkpt lat="44.5379914" lon="8.9271014"><ele>227.33333333333331</ele><time>2026-04-16T14:58:21.999Z</time></trkpt><trkpt lat="44.5380057" lon="8.9269973"><ele>227.0</ele><time>2026-04-16T14:58:22.999Z</time></trkpt><trkpt lat="44.538023" lon="8.9268878"><ele>226.66666666666666</ele><time>2026-04-16T14:58:23.999Z</time></trkpt><trkpt lat="44.5380394" lon="8.9267754"><ele>226.33333333333331</ele><time>2026-04-16T14:58:24.999Z</time></trkpt><trkpt lat="44.5380412" lon="8.9266693"><ele>226.0</ele><time>2026-04-16T14:58:25.999Z</time></trkpt><trkpt lat="44.5380192" lon="8.9265561"><ele>226.0</ele><time>2026-04-16T14:58:26.999Z</time></trkpt><trkpt lat="44.5379731" lon="8.9264403"><ele>226.00000000000003</ele><time>2026-04-16T14:58:27.999Z</time></trkpt><trkpt lat="44.5379239" lon="8.9263311"><ele>226.00000000000003</ele><time>2026-04-16T14:58:28.999Z</time></trkpt><trkpt lat="44.5378804" lon="8.9262195"><ele>226.0</ele><time>2026-04-16T14:58:29.998Z</time></trkpt><trkpt lat="44.5378459" lon="8.9260983"><ele>226.0</ele><time>2026-04-16T14:58:30.999Z</time></trkpt><trkpt lat="44.5378185" lon="8.9259832"><ele>224.33333333333331</ele><time>2026-04-16T14:58:31.999Z</time></trkpt><trkpt lat="44.5377983" lon="8.9258751"><ele>222.66666666666666</ele><time>2026-04-16T14:58:32.999Z</time></trkpt><trkpt lat="44.5377911" lon="8.9257623"><ele>221.0</ele><time>2026-04-16T14:58:33.999Z</time></trkpt><trkpt lat="44.5377937" lon="8.9256508"><ele>219.33333333333331</ele><time>2026-04-16T14:58:34.999Z</time></trkpt><trkpt lat="44.5378066" lon="8.9255368"><ele>217.66666666666666</ele><time>2026-04-16T14:58:35.999Z</time></trkpt><trkpt lat="44.5378103" lon="8.9254253"><ele>216.0</ele><time>2026-04-16T14:58:36.999Z</time></trkpt><trkpt lat="44.5378012" lon="8.9253248"><ele>216.0</ele><time>2026-04-16T14:58:37.999Z</time></trkpt><trkpt lat="44.5377639" lon="8.925217"><ele>216.00000000000003</ele><time>2026-04-16T14:58:38.999Z</time></trkpt><trkpt lat="44.5377014" lon="8.9251128"><ele>216.00000000000003</ele><time>2026-04-16T14:58:39.999Z</time></trkpt><trkpt lat="44.5376335" lon="8.9249772"><ele>216.0</ele><time>2026-04-16T14:58:40.999Z</time></trkpt><trkpt lat="44.5375629" lon="8.924815"><ele>216.0</ele><time>2026-04-16T14:58:41.999Z</time></trkpt><trkpt lat="44.5374931" lon="8.9246718"><ele>216.0</ele><time>2026-04-16T14:58:42.999Z</time></trkpt><trkpt lat="44.5374099" lon="8.924565"><ele>216.0</ele><time>2026-04-16T14:58:43.999Z</time></trkpt><trkpt lat="44.5373133" lon="8.9245089"><ele>216.0</ele><time>2026-04-16T14:58:44.999Z</time></trkpt><trkpt lat="44.5372029" lon="8.9244888"><ele>216.0</ele><time>2026-04-16T14:58:45.999Z</time></trkpt><trkpt lat="44.5370792" lon="8.9244861"><ele>214.25</ele><time>2026-04-16T14:58:46.999Z</time></trkpt><trkpt lat="44.5369452" lon="8.9245051"><ele>212.5</ele><time>2026-04-16T14:58:47.999Z</time></trkpt><trkpt lat="44.5368176" lon="8.9245425"><ele>210.75</ele><time>2026-04-16T14:58:48.999Z</time></trkpt><trkpt lat="44.5366985" lon="8.9245819"><ele>209.0</ele><time>2026-04-16T14:58:49.999Z</time></trkpt><trkpt lat="44.5365823" lon="8.924595"><ele>209.0</ele><time>2026-04-16T14:58:50.999Z</time></trkpt><trkpt lat="44.5364687" lon="8.9245649"><ele>209.0</ele><time>2026-04-16T14:58:51.999Z</time></trkpt><trkpt lat="44.5363677" lon="8.9244856"><ele>209.0</ele><time>2026-04-16T14:58:52.999Z</time></trkpt><trkpt lat="44.5362734" lon="8.9243584"><ele>209.0</ele><time>2026-04-16T14:58:53.999Z</time></trkpt><trkpt lat="44.5361793" lon="8.9242103"><ele>208.5</ele><time>2026-04-16T14:58:54.999Z</time></trkpt><trkpt lat="44.5360924" lon="8.9240626"><ele>208.0</ele><time>2026-04-16T14:58:55.999Z</time></trkpt><trkpt lat="44.5360108" lon="8.9239239"><ele>207.5</ele><time>2026-04-16T14:58:56.999Z</time></trkpt><trkpt lat="44.5359158" lon="8.9238069"><ele>207.0</ele><time>2026-04-16T14:58:57.999Z</time></trkpt><trkpt lat="44.5358124" lon="8.9237243"><ele>207.0</ele><time>2026-04-16T14:58:58.999Z</time></trkpt><trkpt lat="44.5356954" lon="8.9236887"><ele>207.0</ele><time>2026-04-16T14:58:59.999Z</time></trkpt><trkpt lat="44.5355842" lon="8.9236994"><ele>207.0</ele><time>2026-04-16T14:59:00.999Z</time></trkpt><trkpt lat="44.535467" lon="8.9237199"><ele>207.0</ele><time>2026-04-16T14:59:01.999Z</time></trkpt><trkpt lat="44.5353404" lon="8.9237252"><ele>206.33333333333331</ele><time>2026-04-16T14:59:02.999Z</time></trkpt><trkpt lat="44.5352143" lon="8.9236939"><ele>205.66666666666666</ele><time>2026-04-16T14:59:03.999Z</time></trkpt><trkpt lat="44.5350887" lon="8.9236218"><ele>205.0</ele><time>2026-04-16T14:59:06.045Z</time></trkpt><trkpt lat="44.5348348" lon="8.923424"><ele>205.0</ele><time>2026-04-16T14:59:06.999Z</time></trkpt><trkpt lat="44.5346924" lon="8.9233172"><ele>205.0</ele><time>2026-04-16T14:59:07.999Z</time></trkpt><trkpt lat="44.5345469" lon="8.9232293"><ele>205.0</ele><time>2026-04-16T14:59:08.999Z</time></trkpt><trkpt lat="44.5343872" lon="8.9231488"><ele>204.33333333333331</ele><time>2026-04-16T14:59:09.999Z</time></trkpt><trkpt lat="44.5342305" lon="8.9230798"><ele>203.66666666666669</ele><time>2026-04-16T14:59:10.999Z</time></trkpt><trkpt lat="44.5340798" lon="8.9230033"><ele>203.0</ele><time>2026-04-16T14:59:11.999Z</time></trkpt><trkpt lat="44.5339454" lon="8.9228987"><ele>203.0</ele><time>2026-04-16T14:59:12.999Z</time></trkpt><trkpt lat="44.5338111" lon="8.9227697"><ele>203.0</ele><time>2026-04-16T14:59:13.999Z</time></trkpt><trkpt lat="44.533685" lon="8.9226176"><ele>203.0</ele><time>2026-04-16T14:59:14.999Z</time></trkpt><trkpt lat="44.5335552" lon="8.9224478"><ele>202.33333333333334</ele><time>2026-04-16T14:59:15.999Z</time></trkpt><trkpt lat="44.533436" lon="8.922285"><ele>201.66666666666669</ele><time>2026-04-16T14:59:16.999Z</time></trkpt><trkpt lat="44.5333118" lon="8.9221125"><ele>201.0</ele><time>2026-04-16T14:59:17.999Z</time></trkpt><trkpt lat="44.5331881" lon="8.9219382"><ele>201.0</ele><time>2026-04-16T14:59:19.112Z</time></trkpt><trkpt lat="44.5330671" lon="8.9217644"><ele>201.0</ele><time>2026-04-16T14:59:20.113Z</time></trkpt><trkpt lat="44.5327943" lon="8.9214024"><ele>199.0</ele><time>2026-04-16T14:59:21.999Z</time></trkpt><trkpt lat="44.5326591" lon="8.9212336"><ele>197.0</ele><time>2026-04-16T14:59:22.999Z</time></trkpt><trkpt lat="44.5325209" lon="8.9210739"><ele>195.0</ele><time>2026-04-16T14:59:23.999Z</time></trkpt><trkpt lat="44.5323936" lon="8.920944"><ele>195.0</ele><time>2026-04-16T14:59:24.999Z</time></trkpt><trkpt lat="44.5322633" lon="8.9208251"><ele>195.0</ele><time>2026-04-16T14:59:25.999Z</time></trkpt><trkpt lat="44.5321404" lon="8.9207074"><ele>195.0</ele><time>2026-04-16T14:59:26.999Z</time></trkpt><trkpt lat="44.532027" lon="8.9205851"><ele>195.0</ele><time>2026-04-16T14:59:27.999Z</time></trkpt><trkpt lat="44.5319346" lon="8.9204641"><ele>195.0</ele><time>2026-04-16T14:59:28.999Z</time></trkpt><trkpt lat="44.5318587" lon="8.9203353"><ele>195.0</ele><time>2026-04-16T14:59:30.107Z</time></trkpt><trkpt lat="44.5318051" lon="8.9200297"><ele>195.0</ele><time>2026-04-16T14:59:31.999Z</time></trkpt><trkpt lat="44.531819" lon="8.9198697"><ele>192.0</ele><time>2026-04-16T14:59:32.999Z</time></trkpt><trkpt lat="44.5318241" lon="8.9197217"><ele>189.0</ele><time>2026-04-16T14:59:33.999Z</time></trkpt><trkpt lat="44.5318" lon="8.9195692"><ele>186.0</ele><time>2026-04-16T14:59:35.109Z</time></trkpt><trkpt lat="44.5316661" lon="8.9193011"><ele>187.5</ele><time>2026-04-16T14:59:36.999Z</time></trkpt><trkpt lat="44.5315663" lon="8.9191955"><ele>189.0</ele><time>2026-04-16T14:59:37.999Z</time></trkpt><trkpt lat="44.5314657" lon="8.9190958"><ele>190.5</ele><time>2026-04-16T14:59:38.999Z</time></trkpt><trkpt lat="44.5313743" lon="8.9189864"><ele>192.0</ele><time>2026-04-16T14:59:39.999Z</time></trkpt><trkpt lat="44.5313016" lon="8.9188628"><ele>192.0</ele><time>2026-04-16T14:59:40.999Z</time></trkpt><trkpt lat="44.531255" lon="8.9187207"><ele>192.0</ele><time>2026-04-16T14:59:41.999Z</time></trkpt><trkpt lat="44.5312183" lon="8.9185589"><ele>192.0</ele><time>2026-04-16T14:59:42.999Z</time></trkpt><trkpt lat="44.5311874" lon="8.9183824"><ele>192.0</ele><time>2026-04-16T14:59:44.112Z</time></trkpt><trkpt lat="44.531157" lon="8.9182188"><ele>187.33333333333334</ele><time>2026-04-16T14:59:45.104Z</time></trkpt><trkpt lat="44.5311102" lon="8.9180537"><ele>182.66666666666669</ele><time>2026-04-16T14:59:46.101Z</time></trkpt><trkpt lat="44.5309649" lon="8.9177939"><ele>178.0</ele><time>2026-04-16T14:59:47.999Z</time></trkpt><trkpt lat="44.5308788" lon="8.9176955"><ele>178.0</ele><time>2026-04-16T14:59:48.999Z</time></trkpt><trkpt lat="44.5307825" lon="8.9175923"><ele>178.0</ele><time>2026-04-16T14:59:49.999Z</time></trkpt><trkpt lat="44.53068" lon="8.9174883"><ele>178.0</ele><time>2026-04-16T14:59:50.999Z</time></trkpt><trkpt lat="44.530575" lon="8.9173835"><ele>178.0</ele><time>2026-04-16T14:59:51.999Z</time></trkpt><trkpt lat="44.5304712" lon="8.9172792"><ele>178.0</ele><time>2026-04-16T14:59:52.999Z</time></trkpt><trkpt lat="44.5303646" lon="8.9171746"><ele>178.0</ele><time>2026-04-16T14:59:53.999Z</time></trkpt><trkpt lat="44.5302583" lon="8.9170705"><ele>178.0</ele><time>2026-04-16T14:59:54.999Z</time></trkpt><trkpt lat="44.5301515" lon="8.9169523"><ele>178.0</ele><time>2026-04-16T14:59:55.999Z</time></trkpt><trkpt lat="44.5300529" lon="8.9168362"><ele>178.5</ele><time>2026-04-16T14:59:56.999Z</time></trkpt><trkpt lat="44.5299589" lon="8.9167089"><ele>179.0</ele><time>2026-04-16T14:59:57.999Z</time></trkpt><trkpt lat="44.5298639" lon="8.9165779"><ele>179.5</ele><time>2026-04-16T14:59:58.999Z</time></trkpt><trkpt lat="44.529771" lon="8.9164403"><ele>180.0</ele><time>2026-04-16T14:59:59.999Z</time></trkpt><trkpt lat="44.5296798" lon="8.9163015"><ele>180.0</ele><time>2026-04-16T15:00:00.999Z</time></trkpt><trkpt lat="44.5295962" lon="8.9161622"><ele>180.0</ele><time>2026-04-16T15:00:01.999Z</time></trkpt><trkpt lat="44.5295157" lon="8.9160175"><ele>180.0</ele><time>2026-04-16T15:00:02.999Z</time></trkpt><trkpt lat="44.5294467" lon="8.91587"><ele>180.0</ele><time>2026-04-16T15:00:03.999Z</time></trkpt><trkpt lat="44.5293796" lon="8.9157284"><ele>177.8</ele><time>2026-04-16T15:00:04.999Z</time></trkpt><trkpt lat="44.529306" lon="8.9156051"><ele>175.6</ele><time>2026-04-16T15:00:05.999Z</time></trkpt><trkpt lat="44.5292225" lon="8.9155052"><ele>173.39999999999998</ele><time>2026-04-16T15:00:06.999Z</time></trkpt><trkpt lat="44.5291291" lon="8.9154414"><ele>171.2</ele><time>2026-04-16T15:00:07.999Z</time></trkpt><trkpt lat="44.5290195" lon="8.9154178"><ele>169.0</ele><time>2026-04-16T15:00:08.999Z</time></trkpt><trkpt lat="44.5289133" lon="8.9154223"><ele>169.0</ele><time>2026-04-16T15:00:09.999Z</time></trkpt><trkpt lat="44.5288062" lon="8.9154579"><ele>169.0</ele><time>2026-04-16T15:00:10.999Z</time></trkpt><trkpt lat="44.5286929" lon="8.9155144"><ele>169.0</ele><time>2026-04-16T15:00:11.999Z</time></trkpt><trkpt lat="44.5285924" lon="8.9155764"><ele>169.0</ele><time>2026-04-16T15:00:12.999Z</time></trkpt><trkpt lat="44.5284887" lon="8.9156332"><ele>168.5</ele><time>2026-04-16T15:00:13.999Z</time></trkpt><trkpt lat="44.5283743" lon="8.9156659"><ele>168.0</ele><time>2026-04-16T15:00:14.999Z</time></trkpt><trkpt lat="44.5282611" lon="8.9156703"><ele>167.5</ele><time>2026-04-16T15:00:15.999Z</time></trkpt><trkpt lat="44.5281343" lon="8.9156499"><ele>167.0</ele><time>2026-04-16T15:00:16.999Z</time></trkpt><trkpt lat="44.5280219" lon="8.915607"><ele>167.0</ele><time>2026-04-16T15:00:17.999Z</time></trkpt><trkpt lat="44.5279123" lon="8.915542"><ele>167.0</ele><time>2026-04-16T15:00:18.999Z</time></trkpt><trkpt lat="44.5278065" lon="8.9154552"><ele>167.0</ele><time>2026-04-16T15:00:19.999Z</time></trkpt><trkpt lat="44.5277098" lon="8.9153549"><ele>167.0</ele><time>2026-04-16T15:00:20.999Z</time></trkpt><trkpt lat="44.5276174" lon="8.915241"><ele>166.75</ele><time>2026-04-16T15:00:21.999Z</time></trkpt><trkpt lat="44.5275282" lon="8.9151205"><ele>166.5</ele><time>2026-04-16T15:00:22.999Z</time></trkpt><trkpt lat="44.5274365" lon="8.914999"><ele>166.25</ele><time>2026-04-16T15:00:23.999Z</time></trkpt><trkpt lat="44.5273465" lon="8.9148767"><ele>166.0</ele><time>2026-04-16T15:00:24.999Z</time></trkpt><trkpt lat="44.5272585" lon="8.9147532"><ele>166.0</ele><time>2026-04-16T15:00:25.999Z</time></trkpt><trkpt lat="44.5271692" lon="8.9146267"><ele>166.0</ele><time>2026-04-16T15:00:27Z</time></trkpt><trkpt lat="44.5269748" lon="8.9143612"><ele>166.0</ele><time>2026-04-16T15:00:28.999Z</time></trkpt><trkpt lat="44.5268775" lon="8.9142312"><ele>165.5</ele><time>2026-04-16T15:00:29.999Z</time></trkpt><trkpt lat="44.5267829" lon="8.9141027"><ele>165.0</ele><time>2026-04-16T15:00:30.999Z</time></trkpt><trkpt lat="44.5266878" lon="8.913979"><ele>164.5</ele><time>2026-04-16T15:00:31.999Z</time></trkpt><trkpt lat="44.52659" lon="8.9138789"><ele>164.0</ele><time>2026-04-16T15:00:32.999Z</time></trkpt><trkpt lat="44.5264803" lon="8.9138068"><ele>164.0</ele><time>2026-04-16T15:00:33.999Z</time></trkpt><trkpt lat="44.5263596" lon="8.9137564"><ele>164.0</ele><time>2026-04-16T15:00:34.999Z</time></trkpt><trkpt lat="44.5262381" lon="8.9137338"><ele>164.0</ele><time>2026-04-16T15:00:35.999Z</time></trkpt><trkpt lat="44.5261184" lon="8.9137095"><ele>164.0</ele><time>2026-04-16T15:00:36.999Z</time></trkpt><trkpt lat="44.5259959" lon="8.9136771"><ele>163.5</ele><time>2026-04-16T15:00:37.999Z</time></trkpt><trkpt lat="44.525877" lon="8.9136318"><ele>163.0</ele><time>2026-04-16T15:00:38.999Z</time></trkpt><trkpt lat="44.5257592" lon="8.9135869"><ele>162.5</ele><time>2026-04-16T15:00:39.999Z</time></trkpt><trkpt lat="44.5256371" lon="8.9135594"><ele>162.0</ele><time>2026-04-16T15:00:40.999Z</time></trkpt><trkpt lat="44.525519" lon="8.9135614"><ele>162.0</ele><time>2026-04-16T15:00:41.999Z</time></trkpt><trkpt lat="44.5253971" lon="8.913591"><ele>162.0</ele><time>2026-04-16T15:00:42.999Z</time></trkpt><trkpt lat="44.5252729" lon="8.9136378"><ele>162.0</ele><time>2026-04-16T15:00:43.999Z</time></trkpt><trkpt lat="44.5251561" lon="8.9136918"><ele>162.0</ele><time>2026-04-16T15:00:45.105Z</time></trkpt><trkpt lat="44.5249192" lon="8.913808"><ele>162.0</ele><time>2026-04-16T15:00:46.999Z</time></trkpt><trkpt lat="44.5247999" lon="8.913854"><ele>162.0</ele><time>2026-04-16T15:00:47.999Z</time></trkpt><trkpt lat="44.5246776" lon="8.9138628"><ele>162.0</ele><time>2026-04-16T15:00:48.999Z</time></trkpt><trkpt lat="44.524551" lon="8.9138343"><ele>162.0</ele><time>2026-04-16T15:00:50.123Z</time></trkpt><trkpt lat="44.5242972" lon="8.9137176"><ele>162.0</ele><time>2026-04-16T15:00:51.999Z</time></trkpt><trkpt lat="44.5241689" lon="8.9136659"><ele>162.0</ele><time>2026-04-16T15:00:52.999Z</time></trkpt><trkpt lat="44.5240304" lon="8.9136198"><ele>162.0</ele><time>2026-04-16T15:00:53.999Z</time></trkpt><trkpt lat="44.5238882" lon="8.9135742"><ele>162.0</ele><time>2026-04-16T15:00:54.999Z</time></trkpt><trkpt lat="44.5237482" lon="8.9135355"><ele>160.25</ele><time>2026-04-16T15:00:55.999Z</time></trkpt><trkpt lat="44.5236065" lon="8.913496"><ele>158.5</ele><time>2026-04-16T15:00:56.999Z</time></trkpt><trkpt lat="44.5234638" lon="8.9134573"><ele>156.75</ele><time>2026-04-16T15:00:57.999Z</time></trkpt><trkpt lat="44.5233252" lon="8.913413"><ele>155.0</ele><time>2026-04-16T15:00:58.999Z</time></trkpt><trkpt lat="44.52318" lon="8.9133701"><ele>155.0</ele><time>2026-04-16T15:00:59.999Z</time></trkpt><trkpt lat="44.5230532" lon="8.9133306"><ele>155.0</ele><time>2026-04-16T15:01:00.999Z</time></trkpt><trkpt lat="44.522923" lon="8.9132942"><ele>155.0</ele><time>2026-04-16T15:01:01.999Z</time></trkpt><trkpt lat="44.5227917" lon="8.9132696"><ele>155.0</ele><time>2026-04-16T15:01:02.999Z</time></trkpt><trkpt lat="44.5226595" lon="8.9132724"><ele>155.25</ele><time>2026-04-16T15:01:03.999Z</time></trkpt><trkpt lat="44.5225327" lon="8.9133069"><ele>155.5</ele><time>2026-04-16T15:01:04.999Z</time></trkpt><trkpt lat="44.5224107" lon="8.9133748"><ele>155.75</ele><time>2026-04-16T15:01:05.999Z</time></trkpt><trkpt lat="44.5222965" lon="8.9134769"><ele>156.0</ele><time>2026-04-16T15:01:06.999Z</time></trkpt><trkpt lat="44.5221912" lon="8.9136135"><ele>155.75</ele><time>2026-04-16T15:01:07.999Z</time></trkpt><trkpt lat="44.5221061" lon="8.9137665"><ele>155.5</ele><time>2026-04-16T15:01:08.999Z</time></trkpt><trkpt lat="44.5220262" lon="8.9139453"><ele>155.25</ele><time>2026-04-16T15:01:09.999Z</time></trkpt><trkpt lat="44.5219583" lon="8.914133"><ele>155.0</ele><time>2026-04-16T15:01:10.999Z</time></trkpt><trkpt lat="44.5218985" lon="8.9143115"><ele>155.0</ele><time>2026-04-16T15:01:11.999Z</time></trkpt><trkpt lat="44.5218434" lon="8.914492"><ele>155.0</ele><time>2026-04-16T15:01:12.999Z</time></trkpt><trkpt lat="44.5217721" lon="8.9146532"><ele>155.0</ele><time>2026-04-16T15:01:13.999Z</time></trkpt><trkpt lat="44.5216848" lon="8.9148245"><ele>155.0</ele><time>2026-04-16T15:01:14.999Z</time></trkpt><trkpt lat="44.5215783" lon="8.9149753"><ele>156.0</ele><time>2026-04-16T15:01:15.999Z</time></trkpt><trkpt lat="44.5214634" lon="8.9151086"><ele>157.0</ele><time>2026-04-16T15:01:16.999Z</time></trkpt><trkpt lat="44.5213398" lon="8.9152467"><ele>158.0</ele><time>2026-04-16T15:01:17.999Z</time></trkpt><trkpt lat="44.5212147" lon="8.9153871"><ele>158.0</ele><time>2026-04-16T15:01:18.999Z</time></trkpt><trkpt lat="44.5210874" lon="8.9155286"><ele>158.0</ele><time>2026-04-16T15:01:19.999Z</time></trkpt><trkpt lat="44.5209606" lon="8.9156718"><ele>158.0</ele><time>2026-04-16T15:01:20.999Z</time></trkpt><trkpt lat="44.520829" lon="8.9158119"><ele>156.66666666666666</ele><time>2026-04-16T15:01:21.999Z</time></trkpt><trkpt lat="44.5207039" lon="8.9159567"><ele>155.33333333333334</ele><time>2026-04-16T15:01:22.999Z</time></trkpt><trkpt lat="44.5205855" lon="8.916125"><ele>154.0</ele><time>2026-04-16T15:01:23.999Z</time></trkpt><trkpt lat="44.5204867" lon="8.9163052"><ele>154.0</ele><time>2026-04-16T15:01:24.999Z</time></trkpt><trkpt lat="44.5203978" lon="8.9165066"><ele>154.0</ele><time>2026-04-16T15:01:25.999Z</time></trkpt><trkpt lat="44.5203161" lon="8.9167157"><ele>154.0</ele><time>2026-04-16T15:01:26.999Z</time></trkpt><trkpt lat="44.5202397" lon="8.9169196"><ele>154.0</ele><time>2026-04-16T15:01:27.999Z</time></trkpt><trkpt lat="44.5201681" lon="8.9171197"><ele>154.0</ele><time>2026-04-16T15:01:28.999Z</time></trkpt><trkpt lat="44.5201035" lon="8.9172978"><ele>154.0</ele><time>2026-04-16T15:01:29.999Z</time></trkpt><trkpt lat="44.5200355" lon="8.9174669"><ele>154.0</ele><time>2026-04-16T15:01:30.999Z</time></trkpt><trkpt lat="44.5199573" lon="8.917606"><ele>152.0</ele><time>2026-04-16T15:01:31.999Z</time></trkpt><trkpt lat="44.5198696" lon="8.9177086"><ele>150.0</ele><time>2026-04-16T15:01:32.999Z</time></trkpt><trkpt lat="44.5197603" lon="8.9177856"><ele>148.0</ele><time>2026-04-16T15:01:33.999Z</time></trkpt><trkpt lat="44.5196428" lon="8.9178276"><ele>146.0</ele><time>2026-04-16T15:01:34.999Z</time></trkpt><trkpt lat="44.5195207" lon="8.917826"><ele>145.75</ele><time>2026-04-16T15:01:35.999Z</time></trkpt><trkpt lat="44.5194069" lon="8.9177712"><ele>145.5</ele><time>2026-04-16T15:01:36.999Z</time></trkpt><trkpt lat="44.5193" lon="8.917676"><ele>145.25</ele><time>2026-04-16T15:01:37.999Z</time></trkpt><trkpt lat="44.5192002" lon="8.9175483"><ele>145.0</ele><time>2026-04-16T15:01:38.999Z</time></trkpt><trkpt lat="44.5191013" lon="8.9174072"><ele>145.0</ele><time>2026-04-16T15:01:39.999Z</time></trkpt><trkpt lat="44.5190086" lon="8.9172714"><ele>145.0</ele><time>2026-04-16T15:01:40.999Z</time></trkpt><trkpt lat="44.5189297" lon="8.9171317"><ele>145.0</ele><time>2026-04-16T15:01:41.999Z</time></trkpt><trkpt lat="44.5188655" lon="8.9169762"><ele>145.0</ele><time>2026-04-16T15:01:42.999Z</time></trkpt><trkpt lat="44.5188275" lon="8.9168006"><ele>151.5</ele><time>2026-04-16T15:01:44.113Z</time></trkpt><trkpt lat="44.518804" lon="8.9164239"><ele>158.0</ele><time>2026-04-16T15:01:46.106Z</time></trkpt><trkpt lat="44.5188349" lon="8.9160358"><ele>159.75</ele><time>2026-04-16T15:01:47.999Z</time></trkpt><trkpt lat="44.5188422" lon="8.9158458"><ele>161.5</ele><time>2026-04-16T15:01:48.999Z</time></trkpt><trkpt lat="44.5188334" lon="8.9156484"><ele>163.25</ele><time>2026-04-16T15:01:49.999Z</time></trkpt><trkpt lat="44.5188135" lon="8.9154586"><ele>165.0</ele><time>2026-04-16T15:01:50.999Z</time></trkpt><trkpt lat="44.5187818" lon="8.9152759"><ele>165.0</ele><time>2026-04-16T15:01:51.999Z</time></trkpt><trkpt lat="44.5187402" lon="8.915077"><ele>165.0</ele><time>2026-04-16T15:01:52.999Z</time></trkpt><trkpt lat="44.5186996" lon="8.9148964"><ele>165.0</ele><time>2026-04-16T15:01:54.104Z</time></trkpt><trkpt lat="44.5186169" lon="8.9145276"><ele>159.75</ele><time>2026-04-16T15:01:55.999Z</time></trkpt><trkpt lat="44.5185812" lon="8.9143609"><ele>154.5</ele><time>2026-04-16T15:01:56.999Z</time></trkpt><trkpt lat="44.5185377" lon="8.9141974"><ele>149.25</ele><time>2026-04-16T15:01:57.999Z</time></trkpt><trkpt lat="44.5184823" lon="8.9140416"><ele>144.0</ele><time>2026-04-16T15:01:58.999Z</time></trkpt><trkpt lat="44.5184073" lon="8.9139049"><ele>142.5</ele><time>2026-04-16T15:01:59.999Z</time></trkpt><trkpt lat="44.5183174" lon="8.9137779"><ele>141.0</ele><time>2026-04-16T15:02:00.999Z</time></trkpt><trkpt lat="44.5182164" lon="8.9136614"><ele>139.5</ele><time>2026-04-16T15:02:01.999Z</time></trkpt><trkpt lat="44.5181211" lon="8.9135486"><ele>138.0</ele><time>2026-04-16T15:02:02.999Z</time></trkpt><trkpt lat="44.5180337" lon="8.9134353"><ele>137.25</ele><time>2026-04-16T15:02:03.999Z</time></trkpt><trkpt lat="44.5179546" lon="8.9133172"><ele>136.5</ele><time>2026-04-16T15:02:04.999Z</time></trkpt><trkpt lat="44.5178871" lon="8.9131921"><ele>135.75</ele><time>2026-04-16T15:02:05.999Z</time></trkpt><trkpt lat="44.5178204" lon="8.9130591"><ele>135.0</ele><time>2026-04-16T15:02:06.999Z</time></trkpt><trkpt lat="44.5177407" lon="8.9129431"><ele>135.0</ele><time>2026-04-16T15:02:07.999Z</time></trkpt><trkpt lat="44.5176504" lon="8.9128379"><ele>135.0</ele><time>2026-04-16T15:02:09.109Z</time></trkpt><trkpt lat="44.5174296" lon="8.9126878"><ele>135.0</ele><time>2026-04-16T15:02:10.999Z</time></trkpt><trkpt lat="44.5173013" lon="8.9126237"><ele>135.0</ele><time>2026-04-16T15:02:11.999Z</time></trkpt><trkpt lat="44.5171858" lon="8.9125798"><ele>135.0</ele><time>2026-04-16T15:02:12.999Z</time></trkpt><trkpt lat="44.517048" lon="8.9125565"><ele>135.0</ele><time>2026-04-16T15:02:13.999Z</time></trkpt><trkpt lat="44.5169182" lon="8.9125692"><ele>135.0</ele><time>2026-04-16T15:02:15Z</time></trkpt><trkpt lat="44.5167965" lon="8.9126181"><ele>135.75</ele><time>2026-04-16T15:02:15.999Z</time></trkpt><trkpt lat="44.5166761" lon="8.9127043"><ele>136.5</ele><time>2026-04-16T15:02:16.999Z</time></trkpt><trkpt lat="44.5165797" lon="8.9128135"><ele>137.25</ele><time>2026-04-16T15:02:17.999Z</time></trkpt><trkpt lat="44.5164857" lon="8.9129408"><ele>138.0</ele><time>2026-04-16T15:02:18.999Z</time></trkpt><trkpt lat="44.5163905" lon="8.913079"><ele>138.0</ele><time>2026-04-16T15:02:19.999Z</time></trkpt><trkpt lat="44.5162904" lon="8.9131933"><ele>138.0</ele><time>2026-04-16T15:02:20.999Z</time></trkpt><trkpt lat="44.5161652" lon="8.9132921"><ele>138.0</ele><time>2026-04-16T15:02:21.999Z</time></trkpt><trkpt lat="44.5160322" lon="8.9133787"><ele>138.0</ele><time>2026-04-16T15:02:22.999Z</time></trkpt><trkpt lat="44.515897" lon="8.9134581"><ele>135.66666666666666</ele><time>2026-04-16T15:02:23.999Z</time></trkpt><trkpt lat="44.5157554" lon="8.9135405"><ele>133.33333333333331</ele><time>2026-04-16T15:02:24.999Z</time></trkpt><trkpt lat="44.5156135" lon="8.9136196"><ele>131.0</ele><time>2026-04-16T15:02:25.999Z</time></trkpt><trkpt lat="44.5154693" lon="8.9137013"><ele>129.66666666666666</ele><time>2026-04-16T15:02:26.999Z</time></trkpt><trkpt lat="44.5153221" lon="8.9137871"><ele>128.33333333333334</ele><time>2026-04-16T15:02:27.999Z</time></trkpt><trkpt lat="44.5151869" lon="8.9138724"><ele>127.0</ele><time>2026-04-16T15:02:28.999Z</time></trkpt><trkpt lat="44.5150437" lon="8.9139575"><ele>127.0</ele><time>2026-04-16T15:02:29.999Z</time></trkpt><trkpt lat="44.5149019" lon="8.9140383"><ele>127.0</ele><time>2026-04-16T15:02:30.999Z</time></trkpt><trkpt lat="44.5147679" lon="8.9141162"><ele>127.0</ele><time>2026-04-16T15:02:31.999Z</time></trkpt><trkpt lat="44.5146323" lon="8.9141873"><ele>127.0</ele><time>2026-04-16T15:02:32.999Z</time></trkpt><trkpt lat="44.5144942" lon="8.9142533"><ele>127.25</ele><time>2026-04-16T15:02:33.999Z</time></trkpt><trkpt lat="44.5143537" lon="8.9143022"><ele>127.5</ele><time>2026-04-16T15:02:34.999Z</time></trkpt><trkpt lat="44.5142083" lon="8.9143488"><ele>127.75</ele><time>2026-04-16T15:02:35.999Z</time></trkpt><trkpt lat="44.5140692" lon="8.9143799"><ele>128.0</ele><time>2026-04-16T15:02:36.999Z</time></trkpt><trkpt lat="44.5139365" lon="8.9143974"><ele>128.0</ele><time>2026-04-16T15:02:37.999Z</time></trkpt><trkpt lat="44.5138021" lon="8.914407"><ele>128.0</ele><time>2026-04-16T15:02:38.999Z</time></trkpt><trkpt lat="44.5135429" lon="8.9144129"><ele>128.0</ele><time>2026-04-16T15:02:40.999Z</time></trkpt><trkpt lat="44.5134142" lon="8.9143989"><ele>128.0</ele><time>2026-04-16T15:02:41.999Z</time></trkpt><trkpt lat="44.51329" lon="8.9143597"><ele>128.0</ele><time>2026-04-16T15:02:42.999Z</time></trkpt><trkpt lat="44.5131627" lon="8.9142854"><ele>128.0</ele><time>2026-04-16T15:02:43.999Z</time></trkpt><trkpt lat="44.5130415" lon="8.9141925"><ele>128.0</ele><time>2026-04-16T15:02:44.999Z</time></trkpt><trkpt lat="44.5129158" lon="8.9140881"><ele>126.5</ele><time>2026-04-16T15:02:45.999Z</time></trkpt><trkpt lat="44.5127995" lon="8.9139838"><ele>125.0</ele><time>2026-04-16T15:02:46.999Z</time></trkpt><trkpt lat="44.5126857" lon="8.9138834"><ele>123.5</ele><time>2026-04-16T15:02:47.999Z</time></trkpt><trkpt lat="44.5125841" lon="8.9137843"><ele>122.0</ele><time>2026-04-16T15:02:48.999Z</time></trkpt><trkpt lat="44.512489" lon="8.9136962"><ele>122.0</ele><time>2026-04-16T15:02:49.999Z</time></trkpt><trkpt lat="44.5123991" lon="8.9136079"><ele>121.99999999999999</ele><time>2026-04-16T15:02:50.999Z</time></trkpt><trkpt lat="44.5123113" lon="8.9135254"><ele>121.99999999999999</ele><time>2026-04-16T15:02:51.999Z</time></trkpt><trkpt lat="44.5122213" lon="8.9134457"><ele>122.0</ele><time>2026-04-16T15:02:52.999Z</time></trkpt><trkpt lat="44.512122" lon="8.9133638"><ele>122.0</ele><time>2026-04-16T15:02:53.999Z</time></trkpt><trkpt lat="44.5120106" lon="8.9132647"><ele>123.0</ele><time>2026-04-16T15:02:54.999Z</time></trkpt><trkpt lat="44.5118848" lon="8.9131479"><ele>124.0</ele><time>2026-04-16T15:02:55.999Z</time></trkpt><trkpt lat="44.5117474" lon="8.9130191"><ele>125.0</ele><time>2026-04-16T15:02:56.999Z</time></trkpt><trkpt lat="44.51161" lon="8.9128858"><ele>125.0</ele><time>2026-04-16T15:02:57.999Z</time></trkpt><trkpt lat="44.5114742" lon="8.9127546"><ele>125.0</ele><time>2026-04-16T15:02:58.999Z</time></trkpt><trkpt lat="44.5113382" lon="8.912618"><ele>125.0</ele><time>2026-04-16T15:02:59.999Z</time></trkpt><trkpt lat="44.511209" lon="8.9125002"><ele>124.33333333333333</ele><time>2026-04-16T15:03:00.999Z</time></trkpt><trkpt lat="44.5110703" lon="8.9123974"><ele>123.66666666666666</ele><time>2026-04-16T15:03:01.999Z</time></trkpt><trkpt lat="44.5109232" lon="8.9123295"><ele>123.0</ele><time>2026-04-16T15:03:02.999Z</time></trkpt><trkpt lat="44.5107839" lon="8.9122756"><ele>123.0</ele><time>2026-04-16T15:03:03.999Z</time></trkpt><trkpt lat="44.5106454" lon="8.9122352"><ele>123.0</ele><time>2026-04-16T15:03:04.999Z</time></trkpt><trkpt lat="44.5105221" lon="8.9122074"><ele>123.0</ele><time>2026-04-16T15:03:05.999Z</time></trkpt><trkpt lat="44.5103973" lon="8.9121929"><ele>123.0</ele><time>2026-04-16T15:03:06.999Z</time></trkpt><trkpt lat="44.5102597" lon="8.9121991"><ele>123.0</ele><time>2026-04-16T15:03:07.999Z</time></trkpt><trkpt lat="44.5101213" lon="8.9122248"><ele>123.0</ele><time>2026-04-16T15:03:08.999Z</time></trkpt><trkpt lat="44.5099725" lon="8.9122707"><ele>123.0</ele><time>2026-04-16T15:03:09.999Z</time></trkpt><trkpt lat="44.5098278" lon="8.9123267"><ele>123.0</ele><time>2026-04-16T15:03:10.999Z</time></trkpt><trkpt lat="44.5096823" lon="8.9123886"><ele>122.5</ele><time>2026-04-16T15:03:11.999Z</time></trkpt><trkpt lat="44.509551" lon="8.9124493"><ele>122.0</ele><time>2026-04-16T15:03:12.999Z</time></trkpt><trkpt lat="44.5094136" lon="8.912504"><ele>121.5</ele><time>2026-04-16T15:03:13.999Z</time></trkpt><trkpt lat="44.5092836" lon="8.9125694"><ele>121.0</ele><time>2026-04-16T15:03:14.999Z</time></trkpt><trkpt lat="44.5091537" lon="8.9126344"><ele>120.25</ele><time>2026-04-16T15:03:15.999Z</time></trkpt><trkpt lat="44.5090373" lon="8.9126941"><ele>119.5</ele><time>2026-04-16T15:03:16.999Z</time></trkpt><trkpt lat="44.5089179" lon="8.9127377"><ele>118.75</ele><time>2026-04-16T15:03:17.999Z</time></trkpt><trkpt lat="44.5087968" lon="8.9127531"><ele>118.0</ele><time>2026-04-16T15:03:18.999Z</time></trkpt><trkpt lat="44.5086781" lon="8.9127303"><ele>118.0</ele><time>2026-04-16T15:03:19.999Z</time></trkpt><trkpt lat="44.5085665" lon="8.9126675"><ele>118.0</ele><time>2026-04-16T15:03:20.999Z</time></trkpt><trkpt lat="44.5084734" lon="8.9125614"><ele>118.0</ele><time>2026-04-16T15:03:21.999Z</time></trkpt><trkpt lat="44.5084022" lon="8.9124185"><ele>118.0</ele><time>2026-04-16T15:03:22.999Z</time></trkpt><trkpt lat="44.5083457" lon="8.9122428"><ele>117.75</ele><time>2026-04-16T15:03:23.999Z</time></trkpt><trkpt lat="44.5082903" lon="8.9120676"><ele>117.5</ele><time>2026-04-16T15:03:24.999Z</time></trkpt><trkpt lat="44.5082342" lon="8.9118895"><ele>117.25</ele><time>2026-04-16T15:03:25.999Z</time></trkpt><trkpt lat="44.5081747" lon="8.9117072"><ele>117.0</ele><time>2026-04-16T15:03:26.999Z</time></trkpt><trkpt lat="44.5081152" lon="8.9115237"><ele>117.0</ele><time>2026-04-16T15:03:27.999Z</time></trkpt><trkpt lat="44.5080597" lon="8.9113329"><ele>117.0</ele><time>2026-04-16T15:03:28.999Z</time></trkpt><trkpt lat="44.5080082" lon="8.9111468"><ele>117.0</ele><time>2026-04-16T15:03:29.999Z</time></trkpt><trkpt lat="44.5079642" lon="8.9109594"><ele>117.0</ele><time>2026-04-16T15:03:30.999Z</time></trkpt><trkpt lat="44.5079193" lon="8.9107671"><ele>115.5</ele><time>2026-04-16T15:03:31.999Z</time></trkpt><trkpt lat="44.5078721" lon="8.9106027"><ele>114.0</ele><time>2026-04-16T15:03:32.999Z</time></trkpt><trkpt lat="44.5078263" lon="8.910439"><ele>112.5</ele><time>2026-04-16T15:03:33.999Z</time></trkpt><trkpt lat="44.5077751" lon="8.9102735"><ele>111.0</ele><time>2026-04-16T15:03:34.999Z</time></trkpt><trkpt lat="44.5077266" lon="8.9101138"><ele>111.0</ele><time>2026-04-16T15:03:35.999Z</time></trkpt><trkpt lat="44.5076628" lon="8.9099544"><ele>111.0</ele><time>2026-04-16T15:03:36.999Z</time></trkpt><trkpt lat="44.507594" lon="8.9098113"><ele>111.0</ele><time>2026-04-16T15:03:37.999Z</time></trkpt><trkpt lat="44.5075071" lon="8.9096774"><ele>111.0</ele><time>2026-04-16T15:03:38.999Z</time></trkpt><trkpt lat="44.5074001" lon="8.9095556"><ele>111.0</ele><time>2026-04-16T15:03:39.999Z</time></trkpt><trkpt lat="44.5072947" lon="8.9094606"><ele>111.0</ele><time>2026-04-16T15:03:40.999Z</time></trkpt><trkpt lat="44.507173" lon="8.9093678"><ele>111.0</ele><time>2026-04-16T15:03:41.999Z</time></trkpt><trkpt lat="44.5070465" lon="8.9092815"><ele>111.0</ele><time>2026-04-16T15:03:42.999Z</time></trkpt><trkpt lat="44.5069149" lon="8.9092029"><ele>111.5</ele><time>2026-04-16T15:03:43.999Z</time></trkpt><trkpt lat="44.5067814" lon="8.9091267"><ele>112.0</ele><time>2026-04-16T15:03:44.999Z</time></trkpt><trkpt lat="44.5066411" lon="8.9090535"><ele>112.5</ele><time>2026-04-16T15:03:45.999Z</time></trkpt><trkpt lat="44.5065111" lon="8.9089932"><ele>113.0</ele><time>2026-04-16T15:03:46.999Z</time></trkpt><trkpt lat="44.5063719" lon="8.908941"><ele>111.75</ele><time>2026-04-16T15:03:47.999Z</time></trkpt><trkpt lat="44.5062334" lon="8.9088874"><ele>110.5</ele><time>2026-04-16T15:03:48.998Z</time></trkpt><trkpt lat="44.5061049" lon="8.9088111"><ele>109.25</ele><time>2026-04-16T15:03:49.999Z</time></trkpt><trkpt lat="44.5059709" lon="8.9087156"><ele>108.0</ele><time>2026-04-16T15:03:50.999Z</time></trkpt><trkpt lat="44.5058399" lon="8.9086095"><ele>108.0</ele><time>2026-04-16T15:03:51.999Z</time></trkpt><trkpt lat="44.5057121" lon="8.9085012"><ele>108.0</ele><time>2026-04-16T15:03:52.999Z</time></trkpt><trkpt lat="44.5055878" lon="8.908392"><ele>108.0</ele><time>2026-04-16T15:03:53.999Z</time></trkpt><trkpt lat="44.5054696" lon="8.9082879"><ele>108.0</ele><time>2026-04-16T15:03:54.999Z</time></trkpt><trkpt lat="44.5053432" lon="8.9081762"><ele>107.75</ele><time>2026-04-16T15:03:55.999Z</time></trkpt><trkpt lat="44.505223" lon="8.9080712"><ele>107.5</ele><time>2026-04-16T15:03:56.999Z</time></trkpt><trkpt lat="44.505101" lon="8.9079628"><ele>107.25</ele><time>2026-04-16T15:03:57.998Z</time></trkpt><trkpt lat="44.5049909" lon="8.9078561"><ele>107.0</ele><time>2026-04-16T15:03:58.999Z</time></trkpt><trkpt lat="44.5048766" lon="8.9077545"><ele>107.0</ele><time>2026-04-16T15:03:59.999Z</time></trkpt><trkpt lat="44.5047725" lon="8.9076551"><ele>107.0</ele><time>2026-04-16T15:04:00.999Z</time></trkpt><trkpt lat="44.5046662" lon="8.9075622"><ele>107.0</ele><time>2026-04-16T15:04:01.999Z</time></trkpt><trkpt lat="44.5045698" lon="8.907477"><ele>107.0</ele><time>2026-04-16T15:04:02.999Z</time></trkpt><trkpt lat="44.5044807" lon="8.9073958"><ele>106.19999999999999</ele><time>2026-04-16T15:04:03.999Z</time></trkpt><trkpt lat="44.5043979" lon="8.9073204"><ele>105.39999999999999</ele><time>2026-04-16T15:04:04.999Z</time></trkpt><trkpt lat="44.504315" lon="8.9072463"><ele>104.6</ele><time>2026-04-16T15:04:05.999Z</time></trkpt><trkpt lat="44.5042314" lon="8.9071698"><ele>103.80000000000001</ele><time>2026-04-16T15:04:06.999Z</time></trkpt><trkpt lat="44.5041524" lon="8.907083"><ele>103.0</ele><time>2026-04-16T15:04:07.999Z</time></trkpt><trkpt lat="44.5040875" lon="8.9069973"><ele>103.00000000000001</ele><time>2026-04-16T15:04:08.999Z</time></trkpt><trkpt lat="44.5040245" lon="8.9069076"><ele>103.0</ele><time>2026-04-16T15:04:09.999Z</time></trkpt><trkpt lat="44.5039687" lon="8.9068223"><ele>103.0</ele><time>2026-04-16T15:04:10.999Z</time></trkpt><trkpt lat="44.5039173" lon="8.9067428"><ele>103.0</ele><time>2026-04-16T15:04:11.999Z</time></trkpt><trkpt lat="44.5038591" lon="8.9066608"><ele>103.00000000000001</ele><time>2026-04-16T15:04:12.999Z</time></trkpt><trkpt lat="44.5037982" lon="8.906566"><ele>103.0</ele><time>2026-04-16T15:04:13.999Z</time></trkpt><trkpt lat="44.5037347" lon="8.9064576"><ele>102.75</ele><time>2026-04-16T15:04:14.999Z</time></trkpt><trkpt lat="44.5036589" lon="8.9063454"><ele>102.5</ele><time>2026-04-16T15:04:15.999Z</time></trkpt><trkpt lat="44.5035743" lon="8.9062343"><ele>102.25</ele><time>2026-04-16T15:04:16.999Z</time></trkpt><trkpt lat="44.5034797" lon="8.9061434"><ele>102.0</ele><time>2026-04-16T15:04:17.999Z</time></trkpt><trkpt lat="44.5033718" lon="8.9060644"><ele>102.0</ele><time>2026-04-16T15:04:18.999Z</time></trkpt><trkpt lat="44.5032472" lon="8.9059964"><ele>102.0</ele><time>2026-04-16T15:04:19.999Z</time></trkpt><trkpt lat="44.5031252" lon="8.9059572"><ele>102.0</ele><time>2026-04-16T15:04:20.999Z</time></trkpt><trkpt lat="44.5030031" lon="8.9059527"><ele>102.0</ele><time>2026-04-16T15:04:21.999Z</time></trkpt><trkpt lat="44.5028769" lon="8.9059713"><ele>101.75</ele><time>2026-04-16T15:04:22.999Z</time></trkpt><trkpt lat="44.5027604" lon="8.9060165"><ele>101.5</ele><time>2026-04-16T15:04:23.999Z</time></trkpt><trkpt lat="44.5026469" lon="8.9060718"><ele>101.25</ele><time>2026-04-16T15:04:24.999Z</time></trkpt><trkpt lat="44.5025421" lon="8.9061036"><ele>101.0</ele><time>2026-04-16T15:04:25.999Z</time></trkpt><trkpt lat="44.5024315" lon="8.9060983"><ele>101.0</ele><time>2026-04-16T15:04:26.999Z</time></trkpt><trkpt lat="44.5023081" lon="8.9060501"><ele>101.0</ele><time>2026-04-16T15:04:27.999Z</time></trkpt><trkpt lat="44.5021895" lon="8.9059752"><ele>101.0</ele><time>2026-04-16T15:04:28.999Z</time></trkpt><trkpt lat="44.5020725" lon="8.9058888"><ele>101.0</ele><time>2026-04-16T15:04:29.999Z</time></trkpt><trkpt lat="44.5019626" lon="8.9058012"><ele>100.5</ele><time>2026-04-16T15:04:30.999Z</time></trkpt><trkpt lat="44.5018565" lon="8.9057197"><ele>100.0</ele><time>2026-04-16T15:04:31.999Z</time></trkpt><trkpt lat="44.5017561" lon="8.9056414"><ele>99.5</ele><time>2026-04-16T15:04:32.999Z</time></trkpt><trkpt lat="44.5016551" lon="8.9055575"><ele>99.0</ele><time>2026-04-16T15:04:33.999Z</time></trkpt><trkpt lat="44.5015717" lon="8.9054741"><ele>99.0</ele><time>2026-04-16T15:04:34.999Z</time></trkpt><trkpt lat="44.5015061" lon="8.9053945"><ele>99.0</ele><time>2026-04-16T15:04:36.106Z</time></trkpt><trkpt lat="44.501442" lon="8.9052812"><ele>99.0</ele><time>2026-04-16T15:04:37.999Z</time></trkpt><trkpt lat="44.5014092" lon="8.905194"><ele>99.0</ele><time>2026-04-16T15:04:40.999Z</time></trkpt><trkpt lat="44.5013424" lon="8.9050502"><ele>99.0</ele><time>2026-04-16T15:04:54.999Z</time></trkpt><trkpt lat="44.501307" lon="8.9049657"><ele>99.2</ele><time>2026-04-16T15:04:56.999Z</time></trkpt><trkpt lat="44.5012166" lon="8.9047952"><ele>99.4</ele><time>2026-04-16T15:05:29.999Z</time></trkpt><trkpt lat="44.50115" lon="8.9046499"><ele>99.6</ele><time>2026-04-16T15:05:31.999Z</time></trkpt><trkpt lat="44.5011169" lon="8.9045737"><ele>99.8</ele><time>2026-04-16T15:05:32.999Z</time></trkpt><trkpt lat="44.5010823" lon="8.904489"><ele>100.0</ele><time>2026-04-16T15:05:33.999Z</time></trkpt><trkpt lat="44.5010434" lon="8.9043957"><ele>100.00000000000001</ele><time>2026-04-16T15:05:34.999Z</time></trkpt><trkpt lat="44.5010074" lon="8.9043056"><ele>100.0</ele><time>2026-04-16T15:05:35.999Z</time></trkpt><trkpt lat="44.5009721" lon="8.9042075"><ele>100.0</ele><time>2026-04-16T15:05:36.999Z</time></trkpt><trkpt lat="44.5009387" lon="8.9041186"><ele>100.0</ele><time>2026-04-16T15:05:37.999Z</time></trkpt><trkpt lat="44.5009068" lon="8.904035"><ele>100.0</ele><time>2026-04-16T15:05:38.999Z</time></trkpt><trkpt lat="44.5008744" lon="8.9039503"><ele>100.00000000000001</ele><time>2026-04-16T15:05:39.999Z</time></trkpt><trkpt lat="44.500839" lon="8.903866"><ele>100.0</ele><time>2026-04-16T15:05:41.106Z</time></trkpt><trkpt lat="44.5007587" lon="8.9036993"><ele>99.83333333333334</ele><time>2026-04-16T15:05:42.999Z</time></trkpt><trkpt lat="44.500716" lon="8.9036221"><ele>99.66666666666667</ele><time>2026-04-16T15:05:43.999Z</time></trkpt><trkpt lat="44.5006606" lon="8.903556"><ele>99.5</ele><time>2026-04-16T15:05:44.999Z</time></trkpt><trkpt lat="44.5006111" lon="8.903492"><ele>99.33333333333334</ele><time>2026-04-16T15:05:45.999Z</time></trkpt><trkpt lat="44.500548" lon="8.9034521"><ele>99.16666666666667</ele><time>2026-04-16T15:05:46.999Z</time></trkpt><trkpt lat="44.5004557" lon="8.9033644"><ele>99.0</ele><time>2026-04-16T15:05:48.999Z</time></trkpt><trkpt lat="44.5003356" lon="8.9032975"><ele>99.0</ele><time>2026-04-16T15:05:51.105Z</time></trkpt><trkpt lat="44.5002728" lon="8.9032727"><ele>99.0</ele><time>2026-04-16T15:05:51.999Z</time></trkpt><trkpt lat="44.5002014" lon="8.9032473"><ele>99.0</ele><time>2026-04-16T15:05:52.999Z</time></trkpt><trkpt lat="44.5001258" lon="8.9032217"><ele>99.0</ele><time>2026-04-16T15:05:53.999Z</time></trkpt><trkpt lat="44.5000531" lon="8.9031937"><ele>99.0</ele><time>2026-04-16T15:05:54.999Z</time></trkpt><trkpt lat="44.4999874" lon="8.9031736"><ele>99.0</ele><time>2026-04-16T15:05:55.999Z</time></trkpt><trkpt lat="44.4999251" lon="8.903157"><ele>99.0</ele><time>2026-04-16T15:05:56.999Z</time></trkpt><trkpt lat="44.4998615" lon="8.9031416"><ele>99.0</ele><time>2026-04-16T15:05:57.999Z</time></trkpt><trkpt lat="44.4997977" lon="8.9031323"><ele>99.0</ele><time>2026-04-16T15:05:58.999Z</time></trkpt><trkpt lat="44.4996721" lon="8.9031442"><ele>99.0</ele><time>2026-04-16T15:06:00.999Z</time></trkpt><trkpt lat="44.4995586" lon="8.9031697"><ele>99.0</ele><time>2026-04-16T15:06:02.999Z</time></trkpt><trkpt lat="44.4994655" lon="8.903196"><ele>99.0</ele><time>2026-04-16T15:06:04.999Z</time></trkpt><trkpt lat="44.4993973" lon="8.9032126"><ele>98.5</ele><time>2026-04-16T15:06:06.999Z</time></trkpt><trkpt lat="44.4993196" lon="8.9032347"><ele>98.0</ele><time>2026-04-16T15:06:09.999Z</time></trkpt><trkpt lat="44.4992521" lon="8.9032192"><ele>97.5</ele><time>2026-04-16T15:06:12.999Z</time></trkpt><trkpt lat="44.4992497" lon="8.9031283"><ele>97.0</ele><time>2026-04-16T15:06:14.999Z</time></trkpt><trkpt lat="44.4992862" lon="8.903013"><ele>96.5</ele><time>2026-04-16T15:06:16.999Z</time></trkpt><trkpt lat="44.4993462" lon="8.9028784"><ele>96.0</ele><time>2026-04-16T15:06:18.999Z</time></trkpt><trkpt lat="44.4993654" lon="8.9027596"><ele>96.0</ele><time>2026-04-16T15:06:20.999Z</time></trkpt><trkpt lat="44.4993531" lon="8.9026199"><ele>96.0</ele><time>2026-04-16T15:06:22.999Z</time></trkpt><trkpt lat="44.4993195" lon="8.902538"><ele>96.0</ele><time>2026-04-16T15:06:23.999Z</time></trkpt><trkpt lat="44.4992502" lon="8.9023815"><ele>96.0</ele><time>2026-04-16T15:06:25.999Z</time></trkpt><trkpt lat="44.4992198" lon="8.9022767"><ele>96.0</ele><time>2026-04-16T15:06:26.999Z</time></trkpt><trkpt lat="44.4991928" lon="8.9021689"><ele>96.4</ele><time>2026-04-16T15:06:27.999Z</time></trkpt><trkpt lat="44.4991612" lon="8.902055"><ele>96.8</ele><time>2026-04-16T15:06:29.104Z</time></trkpt><trkpt lat="44.4991304" lon="8.9019393"><ele>97.2</ele><time>2026-04-16T15:06:30.104Z</time></trkpt><trkpt lat="44.4990696" lon="8.9017147"><ele>97.60000000000001</ele><time>2026-04-16T15:06:31.999Z</time></trkpt><trkpt lat="44.4990341" lon="8.9015986"><ele>98.0</ele><time>2026-04-16T15:06:32.999Z</time></trkpt><trkpt lat="44.4990114" lon="8.9015056"><ele>96.99999999999999</ele><time>2026-04-16T15:06:33.999Z</time></trkpt><trkpt lat="44.4989758" lon="8.901375"><ele>96.0</ele><time>2026-04-16T15:06:36.127Z</time></trkpt><trkpt lat="44.4989861" lon="8.901285"><ele>95.0</ele><time>2026-04-16T15:06:37.999Z</time></trkpt><trkpt lat="44.4990757" lon="8.9012215"><ele>94.0</ele><time>2026-04-16T15:06:39.999Z</time></trkpt><trkpt lat="44.4991449" lon="8.901185"><ele>93.0</ele><time>2026-04-16T15:06:40.999Z</time></trkpt><trkpt lat="44.4992181" lon="8.9011477"><ele>92.0</ele><time>2026-04-16T15:06:41.999Z</time></trkpt><trkpt lat="44.4992924" lon="8.9011139"><ele>92.0</ele><time>2026-04-16T15:06:42.999Z</time></trkpt><trkpt lat="44.4993696" lon="8.9010683"><ele>92.0</ele><time>2026-04-16T15:06:43.999Z</time></trkpt><trkpt lat="44.4994427" lon="8.9010235"><ele>92.0</ele><time>2026-04-16T15:06:44.999Z</time></trkpt><trkpt lat="44.4995216" lon="8.9009782"><ele>92.0</ele><time>2026-04-16T15:06:46.101Z</time></trkpt><trkpt lat="44.4996828" lon="8.9008837"><ele>92.0</ele><time>2026-04-16T15:06:47.999Z</time></trkpt><trkpt lat="44.4997755" lon="8.900834"><ele>92.25</ele><time>2026-04-16T15:06:48.999Z</time></trkpt><trkpt lat="44.4998694" lon="8.9007862"><ele>92.5</ele><time>2026-04-16T15:06:49.999Z</time></trkpt><trkpt lat="44.4999615" lon="8.9007391"><ele>92.75</ele><time>2026-04-16T15:06:51.107Z</time></trkpt><trkpt lat="44.5001478" lon="8.9006467"><ele>93.0</ele><time>2026-04-16T15:06:52.999Z</time></trkpt><trkpt lat="44.5002429" lon="8.9006006"><ele>93.0</ele><time>2026-04-16T15:06:53.999Z</time></trkpt><trkpt lat="44.5003399" lon="8.9005546"><ele>93.0</ele><time>2026-04-16T15:06:54.999Z</time></trkpt><trkpt lat="44.5004325" lon="8.9005091"><ele>93.0</ele><time>2026-04-16T15:06:55.999Z</time></trkpt><trkpt lat="44.5005338" lon="8.9004599"><ele>93.0</ele><time>2026-04-16T15:06:56.999Z</time></trkpt><trkpt lat="44.5006278" lon="8.9003987"><ele>93.0</ele><time>2026-04-16T15:06:57.999Z</time></trkpt><trkpt lat="44.5007191" lon="8.9003387"><ele>93.60000000000001</ele><time>2026-04-16T15:06:58.999Z</time></trkpt><trkpt lat="44.5008007" lon="8.9002747"><ele>94.2</ele><time>2026-04-16T15:06:59.999Z</time></trkpt><trkpt lat="44.5008762" lon="8.9002135"><ele>94.8</ele><time>2026-04-16T15:07:00.999Z</time></trkpt><trkpt lat="44.5009646" lon="8.9001496"><ele>95.4</ele><time>2026-04-16T15:07:01.999Z</time></trkpt><trkpt lat="44.5010459" lon="8.9000797"><ele>96.0</ele><time>2026-04-16T15:07:02.999Z</time></trkpt><trkpt lat="44.5011212" lon="8.9000047"><ele>96.0</ele><time>2026-04-16T15:07:03.999Z</time></trkpt><trkpt lat="44.5011982" lon="8.8999226"><ele>96.0</ele><time>2026-04-16T15:07:04.999Z</time></trkpt><trkpt lat="44.5012611" lon="8.8998405"><ele>96.0</ele><time>2026-04-16T15:07:05.999Z</time></trkpt><trkpt lat="44.5013289" lon="8.8997611"><ele>96.0</ele><time>2026-04-16T15:07:06.999Z</time></trkpt><trkpt lat="44.5013896" lon="8.8996827"><ele>96.0</ele><time>2026-04-16T15:07:07.999Z</time></trkpt><trkpt lat="44.5014475" lon="8.8996002"><ele>96.0</ele><time>2026-04-16T15:07:08.999Z</time></trkpt><trkpt lat="44.5015047" lon="8.8995157"><ele>96.66666666666667</ele><time>2026-04-16T15:07:09.999Z</time></trkpt><trkpt lat="44.501562" lon="8.8994283"><ele>97.33333333333334</ele><time>2026-04-16T15:07:10.999Z</time></trkpt><trkpt lat="44.5016152" lon="8.899341"><ele>98.0</ele><time>2026-04-16T15:07:11.999Z</time></trkpt><trkpt lat="44.5016735" lon="8.8992468"><ele>98.66666666666667</ele><time>2026-04-16T15:07:12.999Z</time></trkpt><trkpt lat="44.501731" lon="8.8991609"><ele>99.33333333333334</ele><time>2026-04-16T15:07:13.999Z</time></trkpt><trkpt lat="44.5017788" lon="8.8990841"><ele>100.0</ele><time>2026-04-16T15:07:14.999Z</time></trkpt><trkpt lat="44.5018292" lon="8.8990211"><ele>100.0</ele><time>2026-04-16T15:07:15.999Z</time></trkpt><trkpt lat="44.5018962" lon="8.8989235"><ele>100.0</ele><time>2026-04-16T15:07:17.999Z</time></trkpt><trkpt lat="44.501892" lon="8.8988286"><ele>100.0</ele><time>2026-04-16T15:07:21.999Z</time></trkpt><trkpt lat="44.501804" lon="8.8988753"><ele>100.0</ele><time>2026-04-16T15:07:26.999Z</time></trkpt><trkpt lat="44.5017167" lon="8.8989992"><ele>100.0</ele><time>2026-04-16T15:07:28.999Z</time></trkpt><trkpt lat="44.501662" lon="8.8990682"><ele>100.00000000000001</ele><time>2026-04-16T15:07:29.999Z</time></trkpt><trkpt lat="44.5016019" lon="8.8991372"><ele>100.0</ele><time>2026-04-16T15:07:30.999Z</time></trkpt><trkpt lat="44.5015361" lon="8.8992129"><ele>100.0</ele><time>2026-04-16T15:07:31.999Z</time></trkpt><trkpt lat="44.5014545" lon="8.8992726"><ele>100.0</ele><time>2026-04-16T15:07:32.999Z</time></trkpt><trkpt lat="44.5013747" lon="8.8993275"><ele>100.00000000000001</ele><time>2026-04-16T15:07:33.999Z</time></trkpt><trkpt lat="44.5012933" lon="8.8993732"><ele>100.0</ele><time>2026-04-16T15:07:34.999Z</time></trkpt><trkpt lat="44.5012273" lon="8.8994034"><ele>99.33333333333334</ele><time>2026-04-16T15:07:35.999Z</time></trkpt><trkpt lat="44.5011354" lon="8.8994036"><ele>98.66666666666667</ele><time>2026-04-16T15:07:37.999Z</time></trkpt><trkpt lat="44.5010728" lon="8.8993241"><ele>98.0</ele><time>2026-04-16T15:07:39.999Z</time></trkpt><trkpt lat="44.5010419" lon="8.8992276"><ele>97.33333333333334</ele><time>2026-04-16T15:07:41.999Z</time></trkpt><trkpt lat="44.5010706" lon="8.8991469"><ele>96.66666666666667</ele><time>2026-04-16T15:08:03.999Z</time></trkpt><trkpt lat="44.5011261" lon="8.8990364"><ele>96.0</ele><time>2026-04-16T15:08:16.999Z</time></trkpt><trkpt lat="44.5012414" lon="8.8989505"><ele>106.0</ele><time>2026-04-16T15:09:05.998Z</time></trkpt></trkseg></trk></gpx>